<?xml version='1.0' encoding='UTF-8'?><gpx version="1.1" creator="JPX - https://github.com/jenetics/jpx" xmlns="http://www.topografix.com/GPX/1/1"><trk><trkseg><trkpt lat="45.64314822048483" lon="10.012762855420076"><ele>207.0</ele><time>2026-04-20T07:13:58Z</time></trkpt><trkpt lat="45.64319147885804" lon="10.012636573472811"><ele>207.0</ele><time>2026-04-20T07:14:00Z</time></trkpt><trkpt lat="45.64320249683676" lon="10.01254561545879"><ele>207.0</ele><time>2026-04-20T07:14:01Z</time></trkpt><trkpt lat="45.643212423041945" lon="10.012443841685995"><ele>207.0</ele><time>2026-04-20T07:14:02Z</time></trkpt><trkpt lat="45.64322551785009" lon="10.012341059643145"><ele>207.0</ele><time>2026-04-20T07:14:03Z</time></trkpt><trkpt lat="45.643234297627416" lon="10.012248126082453"><ele>207.0</ele><time>2026-04-20T07:14:04Z</time></trkpt><trkpt lat="45.643248146536735" lon="10.012100540417634"><ele>206.66666666666666</ele><time>2026-04-20T07:14:06Z</time></trkpt><trkpt lat="45.643293507207225" lon="10.011998654848183"><ele>206.33333333333331</ele><time>2026-04-20T07:14:08Z</time></trkpt><trkpt lat="45.64339707245656" lon="10.012042328464837"><ele>206.0</ele><time>2026-04-20T07:14:10Z</time></trkpt><trkpt lat="45.64346545197256" lon="10.012078448068545"><ele>205.66666666666666</ele><time>2026-04-20T07:14:11Z</time></trkpt><trkpt lat="45.643537898631784" lon="10.012096475088214"><ele>205.33333333333331</ele><time>2026-04-20T07:14:12Z</time></trkpt><trkpt lat="45.643612552389925" lon="10.012138529023126"><ele>205.0</ele><time>2026-04-20T07:14:13Z</time></trkpt><trkpt lat="45.64368011501118" lon="10.012166585304813"><ele>204.85714285714286</ele><time>2026-04-20T07:14:14Z</time></trkpt><trkpt lat="45.64374769400107" lon="10.012190479441609"><ele>204.7142857142857</ele><time>2026-04-20T07:14:15Z</time></trkpt><trkpt lat="45.6438109408469" lon="10.012218554427875"><ele>204.57142857142856</ele><time>2026-04-20T07:14:16Z</time></trkpt><trkpt lat="45.64388197970338" lon="10.012256617902066"><ele>204.42857142857144</ele><time>2026-04-20T07:14:17Z</time></trkpt><trkpt lat="45.64394460480207" lon="10.012335545925328"><ele>204.28571428571428</ele><time>2026-04-20T07:14:18Z</time></trkpt><trkpt lat="45.64399205898961" lon="10.012420178907277"><ele>204.14285714285714</ele><time>2026-04-20T07:14:19Z</time></trkpt><trkpt lat="45.64405121296267" lon="10.012488511286989"><ele>204.0</ele><time>2026-04-20T07:14:20Z</time></trkpt><trkpt lat="45.644119103724904" lon="10.012507726269188"><ele>204.0</ele><time>2026-04-20T07:14:21Z</time></trkpt><trkpt lat="45.64419040143288" lon="10.012500581821257"><ele>204.0</ele><time>2026-04-20T07:14:22Z</time></trkpt><trkpt lat="45.64428300907027" lon="10.012345989315838"><ele>204.0</ele><time>2026-04-20T07:14:24Z</time></trkpt><trkpt lat="45.64448413765154" lon="10.012305857535118"><ele>204.0</ele><time>2026-04-20T07:14:31Z</time></trkpt><trkpt lat="45.644568459159636" lon="10.012230148845257"><ele>203.2</ele><time>2026-04-20T07:14:33Z</time></trkpt><trkpt lat="45.644679153691044" lon="10.012376851910581"><ele>202.39999999999998</ele><time>2026-04-20T07:14:34Z</time></trkpt><trkpt lat="45.64475858829289" lon="10.012443425288984"><ele>201.6</ele><time>2026-04-20T07:14:35Z</time></trkpt><trkpt lat="45.64481769857229" lon="10.012500613357277"><ele>200.8</ele><time>2026-04-20T07:14:36Z</time></trkpt><trkpt lat="45.64489312922953" lon="10.012576803874335"><ele>200.0</ele><time>2026-04-20T07:14:37Z</time></trkpt><trkpt lat="45.64496051916618" lon="10.01267665816608"><ele>199.8</ele><time>2026-04-20T07:14:38Z</time></trkpt><trkpt lat="45.645029416412676" lon="10.012768518722021"><ele>199.6</ele><time>2026-04-20T07:14:39Z</time></trkpt><trkpt lat="45.6450976557279" lon="10.012875848290408"><ele>199.39999999999998</ele><time>2026-04-20T07:14:40Z</time></trkpt><trkpt lat="45.64517062825015" lon="10.0129991192962"><ele>199.2</ele><time>2026-04-20T07:14:41Z</time></trkpt><trkpt lat="45.64524463726127" lon="10.013140532796854"><ele>199.0</ele><time>2026-04-20T07:14:42Z</time></trkpt><trkpt lat="45.645300627778525" lon="10.01330452220201"><ele>198.39999999999998</ele><time>2026-04-20T07:14:43Z</time></trkpt><trkpt lat="45.645368221371264" lon="10.013454973792552"><ele>197.8</ele><time>2026-04-20T07:14:44Z</time></trkpt><trkpt lat="45.64542722598595" lon="10.013586307830087"><ele>197.2</ele><time>2026-04-20T07:14:45Z</time></trkpt><trkpt lat="45.64547803377056" lon="10.01369939715936"><ele>196.60000000000002</ele><time>2026-04-20T07:14:46Z</time></trkpt><trkpt lat="45.64552933271504" lon="10.013816744116049"><ele>196.0</ele><time>2026-04-20T07:14:47Z</time></trkpt><trkpt lat="45.645586551608794" lon="10.013946495730291"><ele>196.0</ele><time>2026-04-20T07:14:48Z</time></trkpt><trkpt lat="45.645642148800334" lon="10.014072396379579"><ele>196.0</ele><time>2026-04-20T07:14:49Z</time></trkpt><trkpt lat="45.645699065380064" lon="10.014197914101835"><ele>196.0</ele><time>2026-04-20T07:14:50Z</time></trkpt><trkpt lat="45.64575862317138" lon="10.014329256473482"><ele>196.0</ele><time>2026-04-20T07:14:51Z</time></trkpt><trkpt lat="45.645824628357715" lon="10.014473489954044"><ele>196.0</ele><time>2026-04-20T07:14:52Z</time></trkpt><trkpt lat="45.64589956011049" lon="10.014605781492328"><ele>196.0</ele><time>2026-04-20T07:14:53Z</time></trkpt><trkpt lat="45.64594497596776" lon="10.014813557716716"><ele>196.0</ele><time>2026-04-20T07:14:54Z</time></trkpt><trkpt lat="45.64601096600725" lon="10.014961711190843"><ele>196.0</ele><time>2026-04-20T07:14:55Z</time></trkpt><trkpt lat="45.64608651146982" lon="10.015120384135045"><ele>196.0</ele><time>2026-04-20T07:14:56Z</time></trkpt><trkpt lat="45.646181845917795" lon="10.01530199676045"><ele>195.25</ele><time>2026-04-20T07:14:57Z</time></trkpt><trkpt lat="45.64624843005672" lon="10.015469471731958"><ele>194.5</ele><time>2026-04-20T07:14:58Z</time></trkpt><trkpt lat="45.646313172291656" lon="10.015651331537736"><ele>193.75</ele><time>2026-04-20T07:14:59Z</time></trkpt><trkpt lat="45.64638906494581" lon="10.015845268361428"><ele>193.0</ele><time>2026-04-20T07:15:00Z</time></trkpt><trkpt lat="45.6464619279966" lon="10.016043273615294"><ele>193.0</ele><time>2026-04-20T07:15:01Z</time></trkpt><trkpt lat="45.64652525836531" lon="10.016249989257503"><ele>193.0</ele><time>2026-04-20T07:15:02Z</time></trkpt><trkpt lat="45.64657140531298" lon="10.016433589336946"><ele>193.0</ele><time>2026-04-20T07:15:03Z</time></trkpt><trkpt lat="45.64663439602205" lon="10.016625316534489"><ele>193.0</ele><time>2026-04-20T07:15:04Z</time></trkpt><trkpt lat="45.646695624934495" lon="10.016810797613825"><ele>192.5</ele><time>2026-04-20T07:15:05Z</time></trkpt><trkpt lat="45.64674747650207" lon="10.01698458137027"><ele>192.0</ele><time>2026-04-20T07:15:06Z</time></trkpt><trkpt lat="45.646806732542714" lon="10.017154430635744"><ele>191.5</ele><time>2026-04-20T07:15:07Z</time></trkpt><trkpt lat="45.6468646868948" lon="10.017326194993316"><ele>191.0</ele><time>2026-04-20T07:15:08Z</time></trkpt><trkpt lat="45.6469185334375" lon="10.017494094824313"><ele>191.5</ele><time>2026-04-20T07:15:09Z</time></trkpt><trkpt lat="45.64697626022811" lon="10.017661483913503"><ele>192.0</ele><time>2026-04-20T07:15:10Z</time></trkpt><trkpt lat="45.64703161767092" lon="10.01783337970522"><ele>192.5</ele><time>2026-04-20T07:15:11Z</time></trkpt><trkpt lat="45.64710173667626" lon="10.018025156038927"><ele>193.0</ele><time>2026-04-20T07:15:12Z</time></trkpt><trkpt lat="45.64716117829338" lon="10.018205139761907"><ele>192.75</ele><time>2026-04-20T07:15:13Z</time></trkpt><trkpt lat="45.64721614171706" lon="10.018379418157034"><ele>192.5</ele><time>2026-04-20T07:15:14Z</time></trkpt><trkpt lat="45.64726944232357" lon="10.018538873945227"><ele>192.25</ele><time>2026-04-20T07:15:15Z</time></trkpt><trkpt lat="45.64732279788358" lon="10.018691022978912"><ele>192.0</ele><time>2026-04-20T07:15:16Z</time></trkpt><trkpt lat="45.64737652057262" lon="10.018843125869449"><ele>192.0</ele><time>2026-04-20T07:15:17Z</time></trkpt><trkpt lat="45.64742833650096" lon="10.018988387374744"><ele>192.0</ele><time>2026-04-20T07:15:18Z</time></trkpt><trkpt lat="45.64748213580219" lon="10.019151802963089"><ele>192.0</ele><time>2026-04-20T07:15:19Z</time></trkpt><trkpt lat="45.64752981321551" lon="10.019316258988756"><ele>192.0</ele><time>2026-04-20T07:15:20Z</time></trkpt><trkpt lat="45.6475810975589" lon="10.019475329548618"><ele>191.75</ele><time>2026-04-20T07:15:21Z</time></trkpt><trkpt lat="45.64762708779954" lon="10.019628328611402"><ele>191.5</ele><time>2026-04-20T07:15:22Z</time></trkpt><trkpt lat="45.64767986848269" lon="10.019776314458213"><ele>191.25</ele><time>2026-04-20T07:15:23Z</time></trkpt><trkpt lat="45.64773236227033" lon="10.019924461522715"><ele>191.0</ele><time>2026-04-20T07:15:24Z</time></trkpt><trkpt lat="45.647790583084145" lon="10.02006730985532"><ele>191.4</ele><time>2026-04-20T07:15:25Z</time></trkpt><trkpt lat="45.647846988692585" lon="10.020206866184955"><ele>191.8</ele><time>2026-04-20T07:15:26Z</time></trkpt><trkpt lat="45.64792696150684" lon="10.020324330523508"><ele>192.20000000000002</ele><time>2026-04-20T07:15:27Z</time></trkpt><trkpt lat="45.648009943024995" lon="10.020388095938698"><ele>192.60000000000002</ele><time>2026-04-20T07:15:28Z</time></trkpt><trkpt lat="45.64810602927595" lon="10.020447321478851"><ele>193.0</ele><time>2026-04-20T07:15:29Z</time></trkpt><trkpt lat="45.648213576641346" lon="10.020483694287124"><ele>193.0</ele><time>2026-04-20T07:15:30Z</time></trkpt><trkpt lat="45.64834672379261" lon="10.02051144645045"><ele>193.0</ele><time>2026-04-20T07:15:31Z</time></trkpt><trkpt lat="45.64848697076189" lon="10.020550715477722"><ele>193.0</ele><time>2026-04-20T07:15:32Z</time></trkpt><trkpt lat="45.64863848380783" lon="10.020613109754532"><ele>193.0</ele><time>2026-04-20T07:15:33Z</time></trkpt><trkpt lat="45.64882790267643" lon="10.020700464684543"><ele>193.0</ele><time>2026-04-20T07:15:34Z</time></trkpt><trkpt lat="45.64902773008904" lon="10.020781494763689"><ele>193.0</ele><time>2026-04-20T07:15:35Z</time></trkpt><trkpt lat="45.64920142300501" lon="10.020860912122796"><ele>193.0</ele><time>2026-04-20T07:15:36Z</time></trkpt><trkpt lat="45.649377127529235" lon="10.02093179434336"><ele>194.0</ele><time>2026-04-20T07:15:37Z</time></trkpt><trkpt lat="45.64955131470417" lon="10.02099684386421"><ele>195.0</ele><time>2026-04-20T07:15:38Z</time></trkpt><trkpt lat="45.649730630105644" lon="10.02106975151079"><ele>196.0</ele><time>2026-04-20T07:15:39Z</time></trkpt><trkpt lat="45.6498896403209" lon="10.02112829074399"><ele>196.0</ele><time>2026-04-20T07:15:40Z</time></trkpt><trkpt lat="45.650060856947576" lon="10.0211819984855"><ele>196.0</ele><time>2026-04-20T07:15:41Z</time></trkpt><trkpt lat="45.65022649795823" lon="10.021244044838399"><ele>196.0</ele><time>2026-04-20T07:15:42Z</time></trkpt><trkpt lat="45.65040443277854" lon="10.021298056420788"><ele>196.33333333333331</ele><time>2026-04-20T07:15:43Z</time></trkpt><trkpt lat="45.65056705575265" lon="10.021349244743586"><ele>196.66666666666669</ele><time>2026-04-20T07:15:44Z</time></trkpt><trkpt lat="45.65071986903773" lon="10.021401306133678"><ele>197.0</ele><time>2026-04-20T07:15:45Z</time></trkpt><trkpt lat="45.65086853021403" lon="10.021471575543854"><ele>197.0</ele><time>2026-04-20T07:15:46Z</time></trkpt><trkpt lat="45.65098233022479" lon="10.021518672233904"><ele>197.0</ele><time>2026-04-20T07:15:47Z</time></trkpt><trkpt lat="45.65107578896583" lon="10.02157727119261"><ele>197.0</ele><time>2026-04-20T07:15:48Z</time></trkpt><trkpt lat="45.65114391143852" lon="10.02162904504587"><ele>197.0</ele><time>2026-04-20T07:15:49Z</time></trkpt><trkpt lat="45.65120605293565" lon="10.0217276519733"><ele>197.0</ele><time>2026-04-20T07:15:50Z</time></trkpt><trkpt lat="45.65122713911851" lon="10.021823422843461"><ele>195.83333333333334</ele><time>2026-04-20T07:15:51Z</time></trkpt><trkpt lat="45.65123607409451" lon="10.021951597549917"><ele>194.66666666666669</ele><time>2026-04-20T07:15:53Z</time></trkpt><trkpt lat="45.651268866075455" lon="10.022120385788691"><ele>193.5</ele><time>2026-04-20T07:15:55Z</time></trkpt><trkpt lat="45.651287645614765" lon="10.022215105817017"><ele>192.33333333333334</ele><time>2026-04-20T07:15:56Z</time></trkpt><trkpt lat="45.65131874269399" lon="10.02231104789751"><ele>191.16666666666669</ele><time>2026-04-20T07:15:57Z</time></trkpt><trkpt lat="45.651378397396954" lon="10.022413186684386"><ele>190.0</ele><time>2026-04-20T07:15:58Z</time></trkpt><trkpt lat="45.65142318604904" lon="10.022510127276147"><ele>189.4</ele><time>2026-04-20T07:15:59Z</time></trkpt><trkpt lat="45.65146708142067" lon="10.02261162313586"><ele>188.8</ele><time>2026-04-20T07:16:00Z</time></trkpt><trkpt lat="45.65152167438321" lon="10.022695980809125"><ele>188.2</ele><time>2026-04-20T07:16:01Z</time></trkpt><trkpt lat="45.651522991229335" lon="10.022841820214408"><ele>187.6</ele><time>2026-04-20T07:16:02Z</time></trkpt><trkpt lat="45.65153208251559" lon="10.022980436639786"><ele>187.0</ele><time>2026-04-20T07:16:03Z</time></trkpt><trkpt lat="45.651543917289935" lon="10.023122006488288"><ele>187.0</ele><time>2026-04-20T07:16:04Z</time></trkpt><trkpt lat="45.65155818491359" lon="10.023287158586452"><ele>187.0</ele><time>2026-04-20T07:16:05Z</time></trkpt><trkpt lat="45.65157277651147" lon="10.023449458529223"><ele>187.0</ele><time>2026-04-20T07:16:06Z</time></trkpt><trkpt lat="45.651583752337004" lon="10.023627515669867"><ele>187.0</ele><time>2026-04-20T07:16:07Z</time></trkpt><trkpt lat="45.65159335432452" lon="10.023807363376674"><ele>187.0</ele><time>2026-04-20T07:16:08Z</time></trkpt><trkpt lat="45.6516253104111" lon="10.02399323367875"><ele>187.0</ele><time>2026-04-20T07:16:09Z</time></trkpt><trkpt lat="45.651668480790825" lon="10.024157295191422"><ele>187.0</ele><time>2026-04-20T07:16:10Z</time></trkpt><trkpt lat="45.65172533986703" lon="10.024314250850518"><ele>187.0</ele><time>2026-04-20T07:16:11Z</time></trkpt><trkpt lat="45.65179490753163" lon="10.024463926952194"><ele>187.25</ele><time>2026-04-20T07:16:12Z</time></trkpt><trkpt lat="45.651815821796134" lon="10.024636659092167"><ele>187.5</ele><time>2026-04-20T07:16:13Z</time></trkpt><trkpt lat="45.65186689020644" lon="10.024794872827812"><ele>187.75</ele><time>2026-04-20T07:16:14Z</time></trkpt><trkpt lat="45.651924958458586" lon="10.024973645076969"><ele>188.0</ele><time>2026-04-20T07:16:15Z</time></trkpt><trkpt lat="45.651988296952844" lon="10.025146511728007"><ele>188.0</ele><time>2026-04-20T07:16:16Z</time></trkpt><trkpt lat="45.652049933088186" lon="10.025317883041929"><ele>188.0</ele><time>2026-04-20T07:16:17Z</time></trkpt><trkpt lat="45.65210968556316" lon="10.025493830982503"><ele>188.0</ele><time>2026-04-20T07:16:18Z</time></trkpt><trkpt lat="45.65216764942592" lon="10.025654771153329"><ele>188.0</ele><time>2026-04-20T07:16:19Z</time></trkpt><trkpt lat="45.65223560212173" lon="10.025823880390428"><ele>188.0</ele><time>2026-04-20T07:16:20Z</time></trkpt><trkpt lat="45.65228464554761" lon="10.025995469449093"><ele>188.0</ele><time>2026-04-20T07:16:21Z</time></trkpt><trkpt lat="45.652348920908075" lon="10.026154180957759"><ele>188.0</ele><time>2026-04-20T07:16:22Z</time></trkpt><trkpt lat="45.65240522504645" lon="10.02632930886616"><ele>188.0</ele><time>2026-04-20T07:16:23Z</time></trkpt><trkpt lat="45.65247022764783" lon="10.02649830282921"><ele>187.75</ele><time>2026-04-20T07:16:24Z</time></trkpt><trkpt lat="45.65254149417979" lon="10.026691453121423"><ele>187.5</ele><time>2026-04-20T07:16:25Z</time></trkpt><trkpt lat="45.65260067287151" lon="10.02687122949699"><ele>187.25</ele><time>2026-04-20T07:16:26Z</time></trkpt><trkpt lat="45.65267134391974" lon="10.02705775815261"><ele>187.0</ele><time>2026-04-20T07:16:27Z</time></trkpt><trkpt lat="45.65274232389494" lon="10.027232716480116"><ele>187.5</ele><time>2026-04-20T07:16:28Z</time></trkpt><trkpt lat="45.65283021916456" lon="10.027423241062705"><ele>188.0</ele><time>2026-04-20T07:16:29Z</time></trkpt><trkpt lat="45.65289603286995" lon="10.027602091561164"><ele>188.5</ele><time>2026-04-20T07:16:30Z</time></trkpt><trkpt lat="45.652960862623075" lon="10.027769516786735"><ele>189.0</ele><time>2026-04-20T07:16:31Z</time></trkpt><trkpt lat="45.653024986478115" lon="10.027949928597502"><ele>189.25</ele><time>2026-04-20T07:16:32Z</time></trkpt><trkpt lat="45.653094238212425" lon="10.028135663772224"><ele>189.5</ele><time>2026-04-20T07:16:33Z</time></trkpt><trkpt lat="45.65315792826321" lon="10.02831130720727"><ele>189.75</ele><time>2026-04-20T07:16:34Z</time></trkpt><trkpt lat="45.653238066815945" lon="10.028482293903581"><ele>190.0</ele><time>2026-04-20T07:16:35Z</time></trkpt><trkpt lat="45.653311327731544" lon="10.02865520198288"><ele>190.0</ele><time>2026-04-20T07:16:36Z</time></trkpt><trkpt lat="45.653369677712746" lon="10.028829263947664"><ele>190.0</ele><time>2026-04-20T07:16:37Z</time></trkpt><trkpt lat="45.65342505695826" lon="10.029007153294787"><ele>190.0</ele><time>2026-04-20T07:16:38Z</time></trkpt><trkpt lat="45.65348985977424" lon="10.029178171827791"><ele>190.0</ele><time>2026-04-20T07:16:39Z</time></trkpt><trkpt lat="45.65355060860489" lon="10.029344212964887"><ele>190.5</ele><time>2026-04-20T07:16:40Z</time></trkpt><trkpt lat="45.65362087730305" lon="10.02952340180098"><ele>191.0</ele><time>2026-04-20T07:16:41Z</time></trkpt><trkpt lat="45.65368715494342" lon="10.0296992065219"><ele>191.5</ele><time>2026-04-20T07:16:42Z</time></trkpt><trkpt lat="45.653745717997275" lon="10.029878674702514"><ele>192.0</ele><time>2026-04-20T07:16:43Z</time></trkpt><trkpt lat="45.653807135706124" lon="10.030061378629929"><ele>191.0</ele><time>2026-04-20T07:16:44Z</time></trkpt><trkpt lat="45.65386141390572" lon="10.030249943873464"><ele>190.0</ele><time>2026-04-20T07:16:45Z</time></trkpt><trkpt lat="45.653908427397845" lon="10.030441561776605"><ele>189.0</ele><time>2026-04-20T07:16:46Z</time></trkpt><trkpt lat="45.653946375381906" lon="10.030624556676955"><ele>188.0</ele><time>2026-04-20T07:16:47Z</time></trkpt><trkpt lat="45.653983298483034" lon="10.030830340177506"><ele>187.25</ele><time>2026-04-20T07:16:48Z</time></trkpt><trkpt lat="45.654015362090504" lon="10.03103481395873"><ele>186.5</ele><time>2026-04-20T07:16:49Z</time></trkpt><trkpt lat="45.65405096066678" lon="10.03123594733044"><ele>185.75</ele><time>2026-04-20T07:16:50Z</time></trkpt><trkpt lat="45.65408331119854" lon="10.03142701743325"><ele>185.0</ele><time>2026-04-20T07:16:51Z</time></trkpt><trkpt lat="45.65411204038844" lon="10.031615737767181"><ele>185.25</ele><time>2026-04-20T07:16:52Z</time></trkpt><trkpt lat="45.65414764123465" lon="10.031804036905788"><ele>185.5</ele><time>2026-04-20T07:16:53Z</time></trkpt><trkpt lat="45.65418014152315" lon="10.031990641849049"><ele>185.75</ele><time>2026-04-20T07:16:54Z</time></trkpt><trkpt lat="45.654206191879375" lon="10.032166980045824"><ele>186.0</ele><time>2026-04-20T07:16:55Z</time></trkpt><trkpt lat="45.6542424750445" lon="10.032362574933185"><ele>186.0</ele><time>2026-04-20T07:16:56Z</time></trkpt><trkpt lat="45.6542826405698" lon="10.032552070403277"><ele>186.0</ele><time>2026-04-20T07:16:57Z</time></trkpt><trkpt lat="45.65431459870287" lon="10.03273308017368"><ele>186.0</ele><time>2026-04-20T07:16:58Z</time></trkpt><trkpt lat="45.65436370044596" lon="10.032918280334602"><ele>186.0</ele><time>2026-04-20T07:16:59Z</time></trkpt><trkpt lat="45.654428109328954" lon="10.033099374492325"><ele>186.0</ele><time>2026-04-20T07:17:00Z</time></trkpt><trkpt lat="45.6544987791769" lon="10.033279061506239"><ele>186.0</ele><time>2026-04-20T07:17:01Z</time></trkpt><trkpt lat="45.65456772948624" lon="10.033435334008924"><ele>186.0</ele><time>2026-04-20T07:17:02Z</time></trkpt><trkpt lat="45.65463189175639" lon="10.033570101602802"><ele>186.0</ele><time>2026-04-20T07:17:03Z</time></trkpt><trkpt lat="45.65470395638416" lon="10.033718945951566"><ele>186.0</ele><time>2026-04-20T07:17:04Z</time></trkpt><trkpt lat="45.65477926040518" lon="10.033883210034013"><ele>186.0</ele><time>2026-04-20T07:17:05Z</time></trkpt><trkpt lat="45.65485027322591" lon="10.034053010974093"><ele>186.0</ele><time>2026-04-20T07:17:06Z</time></trkpt><trkpt lat="45.65491008789942" lon="10.034225695131507"><ele>186.0</ele><time>2026-04-20T07:17:07Z</time></trkpt><trkpt lat="45.65496578282494" lon="10.034411090856203"><ele>185.75</ele><time>2026-04-20T07:17:08Z</time></trkpt><trkpt lat="45.65501367237537" lon="10.034604950988022"><ele>185.5</ele><time>2026-04-20T07:17:09Z</time></trkpt><trkpt lat="45.65505621887531" lon="10.034801196743842"><ele>185.25</ele><time>2026-04-20T07:17:10Z</time></trkpt><trkpt lat="45.65509767525753" lon="10.034999640690641"><ele>185.0</ele><time>2026-04-20T07:17:11Z</time></trkpt><trkpt lat="45.655125778430794" lon="10.035207168886663"><ele>185.0</ele><time>2026-04-20T07:17:12Z</time></trkpt><trkpt lat="45.65515761115709" lon="10.035402860631264"><ele>185.0</ele><time>2026-04-20T07:17:13Z</time></trkpt><trkpt lat="45.65516387588075" lon="10.035600071177644"><ele>185.0</ele><time>2026-04-20T07:17:14Z</time></trkpt><trkpt lat="45.6551626456339" lon="10.035793793452223"><ele>185.0</ele><time>2026-04-20T07:17:15Z</time></trkpt><trkpt lat="45.6551507143766" lon="10.035988661504534"><ele>185.0</ele><time>2026-04-20T07:17:16Z</time></trkpt><trkpt lat="45.65512480142211" lon="10.036175821139294"><ele>185.0</ele><time>2026-04-20T07:17:17Z</time></trkpt><trkpt lat="45.655098486997815" lon="10.036366592651198"><ele>185.0</ele><time>2026-04-20T07:17:18Z</time></trkpt><trkpt lat="45.65507352551537" lon="10.036547807246286"><ele>185.0</ele><time>2026-04-20T07:17:19Z</time></trkpt><trkpt lat="45.655037623260746" lon="10.036725013308226"><ele>185.25</ele><time>2026-04-20T07:17:20Z</time></trkpt><trkpt lat="45.65500002021903" lon="10.036903754858303"><ele>185.5</ele><time>2026-04-20T07:17:21Z</time></trkpt><trkpt lat="45.654948714024506" lon="10.037077299096648"><ele>185.75</ele><time>2026-04-20T07:17:22Z</time></trkpt><trkpt lat="45.654880776639324" lon="10.037240901987541"><ele>186.0</ele><time>2026-04-20T07:17:23Z</time></trkpt><trkpt lat="45.65481619751958" lon="10.03741518847926"><ele>186.0</ele><time>2026-04-20T07:17:24Z</time></trkpt><trkpt lat="45.654751748485914" lon="10.037602788542769"><ele>186.0</ele><time>2026-04-20T07:17:25Z</time></trkpt><trkpt lat="45.65467210089739" lon="10.037775310510463"><ele>186.0</ele><time>2026-04-20T07:17:26Z</time></trkpt><trkpt lat="45.654588839199114" lon="10.037943777874682"><ele>186.0</ele><time>2026-04-20T07:17:27Z</time></trkpt><trkpt lat="45.65448982183078" lon="10.038105866488989"><ele>186.0</ele><time>2026-04-20T07:17:28Z</time></trkpt><trkpt lat="45.654395169153666" lon="10.03826674518045"><ele>186.0</ele><time>2026-04-20T07:17:29Z</time></trkpt><trkpt lat="45.65429398956674" lon="10.038425171063691"><ele>186.0</ele><time>2026-04-20T07:17:30Z</time></trkpt><trkpt lat="45.65419212615178" lon="10.038556979146836"><ele>186.0</ele><time>2026-04-20T07:17:31Z</time></trkpt><trkpt lat="45.65408976660047" lon="10.038685695717618"><ele>186.0</ele><time>2026-04-20T07:17:32Z</time></trkpt><trkpt lat="45.653974171926144" lon="10.038807720187078"><ele>186.0</ele><time>2026-04-20T07:17:33Z</time></trkpt><trkpt lat="45.65384610733188" lon="10.038937286326242"><ele>186.0</ele><time>2026-04-20T07:17:34Z</time></trkpt><trkpt lat="45.65370375834211" lon="10.039070077214285"><ele>185.66666666666666</ele><time>2026-04-20T07:17:35Z</time></trkpt><trkpt lat="45.653559077362765" lon="10.039168033480022"><ele>185.33333333333331</ele><time>2026-04-20T07:17:36Z</time></trkpt><trkpt lat="45.65341651062143" lon="10.039269795085058"><ele>185.0</ele><time>2026-04-20T07:17:37Z</time></trkpt><trkpt lat="45.65328052645447" lon="10.039363952608129"><ele>185.0</ele><time>2026-04-20T07:17:38Z</time></trkpt><trkpt lat="45.653149203344256" lon="10.039454670523844"><ele>185.0</ele><time>2026-04-20T07:17:39Z</time></trkpt><trkpt lat="45.65301033956891" lon="10.039550597539762"><ele>185.0</ele><time>2026-04-20T07:17:40Z</time></trkpt><trkpt lat="45.65288296620879" lon="10.039638586483868"><ele>185.0</ele><time>2026-04-20T07:17:41Z</time></trkpt><trkpt lat="45.65275902409294" lon="10.03972425402239"><ele>184.75</ele><time>2026-04-20T07:17:42Z</time></trkpt><trkpt lat="45.65263162610337" lon="10.039812293554851"><ele>184.5</ele><time>2026-04-20T07:17:43Z</time></trkpt><trkpt lat="45.65252149349056" lon="10.039888401405682"><ele>184.25</ele><time>2026-04-20T07:17:44Z</time></trkpt><trkpt lat="45.652404032226315" lon="10.039966572828101"><ele>184.0</ele><time>2026-04-20T07:17:45Z</time></trkpt><trkpt lat="45.65227543055185" lon="10.040053866490464"><ele>184.66666666666669</ele><time>2026-04-20T07:17:46Z</time></trkpt><trkpt lat="45.65214062090576" lon="10.04014537409174"><ele>185.33333333333334</ele><time>2026-04-20T07:17:47Z</time></trkpt><trkpt lat="45.65200648960681" lon="10.04023642120312"><ele>186.0</ele><time>2026-04-20T07:17:48Z</time></trkpt><trkpt lat="45.65186693531286" lon="10.040331186101865"><ele>186.25</ele><time>2026-04-20T07:17:49Z</time></trkpt><trkpt lat="45.651727002275386" lon="10.040427795889627"><ele>186.5</ele><time>2026-04-20T07:17:50Z</time></trkpt><trkpt lat="45.65159522305171" lon="10.040518776272819"><ele>186.75</ele><time>2026-04-20T07:17:51Z</time></trkpt><trkpt lat="45.65147826543025" lon="10.040599713087431"><ele>187.0</ele><time>2026-04-20T07:17:52Z</time></trkpt><trkpt lat="45.65138310041418" lon="10.040691184739133"><ele>187.0</ele><time>2026-04-20T07:17:53Z</time></trkpt><trkpt lat="45.65127028224467" lon="10.040718572095782"><ele>187.0</ele><time>2026-04-20T07:17:54Z</time></trkpt><trkpt lat="45.651159935872954" lon="10.040787112714453"><ele>187.0</ele><time>2026-04-20T07:17:55Z</time></trkpt><trkpt lat="45.65103460129978" lon="10.040863830236615"><ele>187.0</ele><time>2026-04-20T07:17:56Z</time></trkpt><trkpt lat="45.650908968520326" lon="10.040939797999254"><ele>186.25</ele><time>2026-04-20T07:17:57Z</time></trkpt><trkpt lat="45.65078320102298" lon="10.041017846084719"><ele>185.5</ele><time>2026-04-20T07:17:58Z</time></trkpt><trkpt lat="45.65065263920778" lon="10.041102085911508"><ele>184.75</ele><time>2026-04-20T07:17:59Z</time></trkpt><trkpt lat="45.65053386966883" lon="10.041245276039836"><ele>184.0</ele><time>2026-04-20T07:18:00Z</time></trkpt><trkpt lat="45.650370338160286" lon="10.041296386680814"><ele>184.33333333333334</ele><time>2026-04-20T07:18:01Z</time></trkpt><trkpt lat="45.65021883193902" lon="10.041405968090631"><ele>184.66666666666666</ele><time>2026-04-20T07:18:02Z</time></trkpt><trkpt lat="45.65005183903094" lon="10.041522019523747"><ele>185.0</ele><time>2026-04-20T07:18:03Z</time></trkpt><trkpt lat="45.64990119724053" lon="10.041668935593563"><ele>185.66666666666666</ele><time>2026-04-20T07:18:04Z</time></trkpt><trkpt lat="45.64971730591581" lon="10.041743920904961"><ele>186.33333333333334</ele><time>2026-04-20T07:18:05Z</time></trkpt><trkpt lat="45.64955986383296" lon="10.041845801406751"><ele>187.0</ele><time>2026-04-20T07:18:06Z</time></trkpt><trkpt lat="45.64940728383108" lon="10.041964030601894"><ele>187.0</ele><time>2026-04-20T07:18:07Z</time></trkpt><trkpt lat="45.64925377285875" lon="10.042085515344162"><ele>187.0</ele><time>2026-04-20T07:18:08Z</time></trkpt><trkpt lat="45.649092691382684" lon="10.042228083784954"><ele>187.0</ele><time>2026-04-20T07:18:09Z</time></trkpt><trkpt lat="45.64893462454839" lon="10.04236968978722"><ele>186.33333333333334</ele><time>2026-04-20T07:18:10Z</time></trkpt><trkpt lat="45.64877571373042" lon="10.042550738335361"><ele>185.66666666666666</ele><time>2026-04-20T07:18:11Z</time></trkpt><trkpt lat="45.648626302502464" lon="10.04271477185071"><ele>185.0</ele><time>2026-04-20T07:18:12Z</time></trkpt><trkpt lat="45.64850476783594" lon="10.042903527574897"><ele>186.66666666666666</ele><time>2026-04-20T07:18:13Z</time></trkpt><trkpt lat="45.648391947689944" lon="10.043113342484332"><ele>188.33333333333334</ele><time>2026-04-20T07:18:14Z</time></trkpt><trkpt lat="45.64827904478354" lon="10.043308636045094"><ele>190.0</ele><time>2026-04-20T07:18:15Z</time></trkpt><trkpt lat="45.648176168461866" lon="10.043531732619641"><ele>191.33333333333334</ele><time>2026-04-20T07:18:16Z</time></trkpt><trkpt lat="45.648073608741974" lon="10.043769338200407"><ele>192.66666666666669</ele><time>2026-04-20T07:18:17Z</time></trkpt><trkpt lat="45.647977653011075" lon="10.044004755406066"><ele>194.0</ele><time>2026-04-20T07:18:18Z</time></trkpt><trkpt lat="45.64790267491936" lon="10.044292129582509"><ele>199.5</ele><time>2026-04-20T07:18:19Z</time></trkpt><trkpt lat="45.64783975817863" lon="10.044526842230141"><ele>205.0</ele><time>2026-04-20T07:18:20Z</time></trkpt><trkpt lat="45.64783416674341" lon="10.047379108639943"><ele>280.0</ele><time>2026-04-20T07:18:24.859Z</time></trkpt><trkpt lat="45.648165024914164" lon="10.048429246777474"><ele>258.0</ele><time>2026-04-20T07:18:25.859Z</time></trkpt><trkpt lat="45.64866426343197" lon="10.049335599069183"><ele>281.0</ele><time>2026-04-20T07:18:26.859Z</time></trkpt><trkpt lat="45.64920797846817" lon="10.050191132896856"><ele>259.0</ele><time>2026-04-20T07:18:27.859Z</time></trkpt><trkpt lat="45.6497510517105" lon="10.05104751238363"><ele>247.0</ele><time>2026-04-20T07:18:28.859Z</time></trkpt><trkpt lat="45.65029475019009" lon="10.051903140858851"><ele>267.0</ele><time>2026-04-20T07:18:29.859Z</time></trkpt><trkpt lat="45.6506678" lon="10.0524902"><ele>257.0</ele><time>2026-04-20T07:18:30.859Z</time></trkpt><trkpt lat="45.653267823698435" lon="10.057368794671472"><ele>251.66666666666669</ele><time>2026-04-20T07:19:23Z</time></trkpt><trkpt lat="45.65338863881305" lon="10.057567263284195"><ele>246.33333333333331</ele><time>2026-04-20T07:19:24Z</time></trkpt><trkpt lat="45.653603882642564" lon="10.05778549980776"><ele>241.0</ele><time>2026-04-20T07:19:25Z</time></trkpt><trkpt lat="45.65372036090566" lon="10.058042569018406"><ele>252.0</ele><time>2026-04-20T07:19:26Z</time></trkpt><trkpt lat="45.65389222763791" lon="10.05830289865947"><ele>263.0</ele><time>2026-04-20T07:19:27Z</time></trkpt><trkpt lat="45.654082587023915" lon="10.058574872720397"><ele>263.0</ele><time>2026-04-20T07:19:28Z</time></trkpt><trkpt lat="45.65439839492181" lon="10.058699360179272"><ele>263.0</ele><time>2026-04-20T07:19:29Z</time></trkpt><trkpt lat="45.6545432943684" lon="10.058989639830147"><ele>259.6666666666667</ele><time>2026-04-20T07:19:30Z</time></trkpt><trkpt lat="45.65467748985656" lon="10.059255735098757"><ele>256.3333333333333</ele><time>2026-04-20T07:19:31Z</time></trkpt><trkpt lat="45.65480499691253" lon="10.059508113225132"><ele>253.0</ele><time>2026-04-20T07:19:32Z</time></trkpt><trkpt lat="45.65494929067008" lon="10.059793717762485"><ele>261.0</ele><time>2026-04-20T07:19:33Z</time></trkpt><trkpt lat="45.65508626891285" lon="10.06005667201281"><ele>269.0</ele><time>2026-04-20T07:19:34Z</time></trkpt><trkpt lat="45.65523710502309" lon="10.060293148547109"><ele>265.6666666666667</ele><time>2026-04-20T07:19:35Z</time></trkpt><trkpt lat="45.65540761937451" lon="10.060541775934713"><ele>262.3333333333333</ele><time>2026-04-20T07:19:36Z</time></trkpt><trkpt lat="45.6555102097342" lon="10.060727328639231"><ele>259.0</ele><time>2026-04-20T07:19:37Z</time></trkpt><trkpt lat="45.65560454845828" lon="10.06093038213407"><ele>259.0</ele><time>2026-04-20T07:19:38Z</time></trkpt><trkpt lat="45.655715464935085" lon="10.061158635714456"><ele>259.0</ele><time>2026-04-20T07:19:39Z</time></trkpt><trkpt lat="45.655799743100545" lon="10.06133019858425"><ele>259.0</ele><time>2026-04-20T07:19:40Z</time></trkpt><trkpt lat="45.655868352340164" lon="10.061508456858709"><ele>260.66666666666663</ele><time>2026-04-20T07:19:41Z</time></trkpt><trkpt lat="45.65592299720688" lon="10.061667256378698"><ele>262.3333333333333</ele><time>2026-04-20T07:19:42Z</time></trkpt><trkpt lat="45.65595886264151" lon="10.061748906313749"><ele>264.0</ele><time>2026-04-20T07:19:43Z</time></trkpt><trkpt lat="45.65601831666957" lon="10.06181304704841"><ele>265.6666666666667</ele><time>2026-04-20T07:19:44Z</time></trkpt><trkpt lat="45.65594417223939" lon="10.061788068760066"><ele>267.33333333333337</ele><time>2026-04-20T07:19:46Z</time></trkpt><trkpt lat="45.65595516148163" lon="10.061898917511945"><ele>269.0</ele><time>2026-04-20T07:19:50Z</time></trkpt><trkpt lat="45.65600896787477" lon="10.061960388538145"><ele>269.0</ele><time>2026-04-20T07:19:51Z</time></trkpt><trkpt lat="45.65606271191885" lon="10.06202223253646"><ele>269.0</ele><time>2026-04-20T07:19:52Z</time></trkpt><trkpt lat="45.6561346136242" lon="10.06211003054965"><ele>269.0</ele><time>2026-04-20T07:19:53Z</time></trkpt><trkpt lat="45.656224168074104" lon="10.062215956339733"><ele>269.0</ele><time>2026-04-20T07:19:54Z</time></trkpt><trkpt lat="45.65630587868214" lon="10.062250977326437"><ele>269.0</ele><time>2026-04-20T07:19:55Z</time></trkpt><trkpt lat="45.65640696383679" lon="10.062307697802778"><ele>268.0</ele><time>2026-04-20T07:19:56Z</time></trkpt><trkpt lat="45.65652649814882" lon="10.06225390924691"><ele>267.0</ele><time>2026-04-20T07:19:57Z</time></trkpt><trkpt lat="45.656651812001904" lon="10.062282554883854"><ele>266.0</ele><time>2026-04-20T07:19:58Z</time></trkpt><trkpt lat="45.65679774746162" lon="10.062350515034343"><ele>265.0</ele><time>2026-04-20T07:19:59Z</time></trkpt><trkpt lat="45.65694846839464" lon="10.062459594627018"><ele>264.66666666666663</ele><time>2026-04-20T07:20:00Z</time></trkpt><trkpt lat="45.65709077762332" lon="10.062532219031219"><ele>264.3333333333333</ele><time>2026-04-20T07:20:01Z</time></trkpt><trkpt lat="45.65724193653127" lon="10.0626176541291"><ele>264.0</ele><time>2026-04-20T07:20:02Z</time></trkpt><trkpt lat="45.657372519369936" lon="10.06269270990845"><ele>264.0</ele><time>2026-04-20T07:20:03Z</time></trkpt><trkpt lat="45.6575028462796" lon="10.062774561500255"><ele>264.0</ele><time>2026-04-20T07:20:04Z</time></trkpt><trkpt lat="45.65763062746359" lon="10.062869066645579"><ele>264.0</ele><time>2026-04-20T07:20:05Z</time></trkpt><trkpt lat="45.65781572657681" lon="10.06288888252141"><ele>258.5</ele><time>2026-04-20T07:20:06Z</time></trkpt><trkpt lat="45.658142591972855" lon="10.062972628789545"><ele>253.0</ele><time>2026-04-20T07:20:07Z</time></trkpt><trkpt lat="45.658431890543596" lon="10.063008027234595"><ele>246.5</ele><time>2026-04-20T07:20:08Z</time></trkpt><trkpt lat="45.65868076676542" lon="10.06302063284069"><ele>240.0</ele><time>2026-04-20T07:20:09Z</time></trkpt><trkpt lat="45.65894404935288" lon="10.063022616613166"><ele>240.0</ele><time>2026-04-20T07:20:10Z</time></trkpt><trkpt lat="45.65916210739202" lon="10.063001478187951"><ele>240.0</ele><time>2026-04-20T07:20:11Z</time></trkpt><trkpt lat="45.659525688219794" lon="10.062994493071582"><ele>237.75</ele><time>2026-04-20T07:20:13Z</time></trkpt><trkpt lat="45.659676312445555" lon="10.06296573734233"><ele>235.5</ele><time>2026-04-20T07:20:14Z</time></trkpt><trkpt lat="45.65981309639788" lon="10.062952412191297"><ele>233.25</ele><time>2026-04-20T07:20:15Z</time></trkpt><trkpt lat="45.659941979228364" lon="10.062942774038664"><ele>231.0</ele><time>2026-04-20T07:20:16Z</time></trkpt><trkpt lat="45.660055605963855" lon="10.06294651606636"><ele>231.0</ele><time>2026-04-20T07:20:17Z</time></trkpt><trkpt lat="45.66017944789517" lon="10.06293905671218"><ele>231.00000000000003</ele><time>2026-04-20T07:20:18Z</time></trkpt><trkpt lat="45.66028213885361" lon="10.062928728434677"><ele>231.00000000000003</ele><time>2026-04-20T07:20:19Z</time></trkpt><trkpt lat="45.66036818774963" lon="10.062930640472278"><ele>231.0</ele><time>2026-04-20T07:20:20Z</time></trkpt><trkpt lat="45.660438371815054" lon="10.062955850707326"><ele>231.0</ele><time>2026-04-20T07:20:21Z</time></trkpt><trkpt lat="45.66051323265287" lon="10.062997935165255"><ele>230.8</ele><time>2026-04-20T07:20:22Z</time></trkpt><trkpt lat="45.66057543398355" lon="10.06304650650108"><ele>230.60000000000002</ele><time>2026-04-20T07:20:23Z</time></trkpt><trkpt lat="45.66065609117313" lon="10.0631309220732"><ele>230.4</ele><time>2026-04-20T07:20:25Z</time></trkpt><trkpt lat="45.66063979289518" lon="10.063231929262603"><ele>230.2</ele><time>2026-04-20T07:20:26Z</time></trkpt><trkpt lat="45.66051758660123" lon="10.063267375947342"><ele>230.0</ele><time>2026-04-20T07:20:27Z</time></trkpt><trkpt lat="45.660401560176545" lon="10.063277783803754"><ele>230.8</ele><time>2026-04-20T07:20:29Z</time></trkpt><trkpt lat="45.66033710449708" lon="10.063328626422742"><ele>231.6</ele><time>2026-04-20T07:20:30Z</time></trkpt><trkpt lat="45.66029303407596" lon="10.063407148370707"><ele>232.39999999999998</ele><time>2026-04-20T07:20:32Z</time></trkpt><trkpt lat="45.66023641088618" lon="10.063496916567532"><ele>233.2</ele><time>2026-04-20T07:20:34Z</time></trkpt><trkpt lat="45.66026389468413" lon="10.063649247594734"><ele>234.0</ele><time>2026-04-20T07:20:35Z</time></trkpt><trkpt lat="45.660331222537756" lon="10.063841300287518"><ele>234.0</ele><time>2026-04-20T07:20:36Z</time></trkpt><trkpt lat="45.6604049217542" lon="10.064004035189496"><ele>234.0</ele><time>2026-04-20T07:20:37Z</time></trkpt><trkpt lat="45.66049082300783" lon="10.064139111087638"><ele>234.0</ele><time>2026-04-20T07:20:38Z</time></trkpt><trkpt lat="45.660560033696456" lon="10.064244034771658"><ele>234.0</ele><time>2026-04-20T07:20:39Z</time></trkpt><trkpt lat="45.66067234419062" lon="10.064287261568657"><ele>235.25</ele><time>2026-04-20T07:20:40Z</time></trkpt><trkpt lat="45.660858319376686" lon="10.064378804771138"><ele>236.5</ele><time>2026-04-20T07:20:41Z</time></trkpt><trkpt lat="45.660975877979446" lon="10.064464685922795"><ele>237.75</ele><time>2026-04-20T07:20:42Z</time></trkpt><trkpt lat="45.66106518067015" lon="10.064495879488053"><ele>239.0</ele><time>2026-04-20T07:20:43Z</time></trkpt><trkpt lat="45.66116943793656" lon="10.064545917182812"><ele>239.0</ele><time>2026-04-20T07:20:44Z</time></trkpt><trkpt lat="45.661260442681154" lon="10.064568177951022"><ele>238.99999999999997</ele><time>2026-04-20T07:20:45Z</time></trkpt><trkpt lat="45.66135804866486" lon="10.06457773936168"><ele>238.99999999999997</ele><time>2026-04-20T07:20:47Z</time></trkpt><trkpt lat="45.661456667405716" lon="10.0645712524867"><ele>239.0</ele><time>2026-04-20T07:20:48Z</time></trkpt><trkpt lat="45.661530570947875" lon="10.064676528329379"><ele>239.0</ele><time>2026-04-20T07:20:49Z</time></trkpt><trkpt lat="45.66154179631343" lon="10.064810710568034"><ele>239.0</ele><time>2026-04-20T07:20:50Z</time></trkpt><trkpt lat="45.661285558896736" lon="10.064746918567737"><ele>239.0</ele><time>2026-04-20T07:20:52Z</time></trkpt><trkpt lat="45.66117919166014" lon="10.064695516937338"><ele>239.0</ele><time>2026-04-20T07:20:53Z</time></trkpt><trkpt lat="45.660988859639325" lon="10.064649030204178"><ele>240.33333333333334</ele><time>2026-04-20T07:20:54Z</time></trkpt><trkpt lat="45.660766776941266" lon="10.064617024090344"><ele>241.66666666666669</ele><time>2026-04-20T07:20:55Z</time></trkpt><trkpt lat="45.66058671321441" lon="10.06456470187252"><ele>243.0</ele><time>2026-04-20T07:20:56Z</time></trkpt><trkpt lat="45.66043474780099" lon="10.06449973387948"><ele>243.0</ele><time>2026-04-20T07:20:57Z</time></trkpt><trkpt lat="45.660298291343935" lon="10.06441400918571"><ele>243.0</ele><time>2026-04-20T07:20:58Z</time></trkpt><trkpt lat="45.66017406240549" lon="10.064345407388483"><ele>243.0</ele><time>2026-04-20T07:20:59Z</time></trkpt><trkpt lat="45.660031321066015" lon="10.064285238990731"><ele>243.0</ele><time>2026-04-20T07:21:00Z</time></trkpt><trkpt lat="45.659884132308655" lon="10.064244912038541"><ele>241.0</ele><time>2026-04-20T07:21:01Z</time></trkpt><trkpt lat="45.659724598111346" lon="10.064175282892203"><ele>239.0</ele><time>2026-04-20T07:21:02Z</time></trkpt><trkpt lat="45.65956427546088" lon="10.064110770760607"><ele>237.0</ele><time>2026-04-20T07:21:03Z</time></trkpt><trkpt lat="45.6594054168782" lon="10.06404736966416"><ele>241.66666666666669</ele><time>2026-04-20T07:21:04Z</time></trkpt><trkpt lat="45.65924423624206" lon="10.063980872937117"><ele>246.33333333333334</ele><time>2026-04-20T07:21:05Z</time></trkpt><trkpt lat="45.65910472711004" lon="10.063941492087116"><ele>251.0</ele><time>2026-04-20T07:21:06Z</time></trkpt><trkpt lat="45.65895990982452" lon="10.063898900014989"><ele>251.0</ele><time>2026-04-20T07:21:07Z</time></trkpt><trkpt lat="45.65881392731192" lon="10.063854118430859"><ele>251.0</ele><time>2026-04-20T07:21:08Z</time></trkpt><trkpt lat="45.65867296940377" lon="10.063808539875488"><ele>251.0</ele><time>2026-04-20T07:21:09Z</time></trkpt><trkpt lat="45.65853650624017" lon="10.06376107126308"><ele>251.0</ele><time>2026-04-20T07:21:10Z</time></trkpt><trkpt lat="45.658395997834916" lon="10.063754347562668"><ele>255.0</ele><time>2026-04-20T07:21:11Z</time></trkpt><trkpt lat="45.6582498822143" lon="10.063788656243025"><ele>259.0</ele><time>2026-04-20T07:21:12Z</time></trkpt><trkpt lat="45.65811465895994" lon="10.063829023425686"><ele>263.0</ele><time>2026-04-20T07:21:13Z</time></trkpt><trkpt lat="45.65793128263961" lon="10.063877464151313"><ele>263.0</ele><time>2026-04-20T07:21:14Z</time></trkpt><trkpt lat="45.65780667307181" lon="10.06385113733016"><ele>263.0</ele><time>2026-04-20T07:21:15Z</time></trkpt><trkpt lat="45.65771733270815" lon="10.06378493056091"><ele>263.0</ele><time>2026-04-20T07:21:16Z</time></trkpt><trkpt lat="45.65763885153454" lon="10.06375225006132"><ele>263.0</ele><time>2026-04-20T07:21:17Z</time></trkpt><trkpt lat="45.65754172409437" lon="10.063685984451952"><ele>263.0</ele><time>2026-04-20T07:21:18Z</time></trkpt><trkpt lat="45.657458058809986" lon="10.063642423070764"><ele>264.5</ele><time>2026-04-20T07:21:19Z</time></trkpt><trkpt lat="45.65739049708905" lon="10.063653329518713"><ele>266.0</ele><time>2026-04-20T07:21:20Z</time></trkpt><trkpt lat="45.65732068734506" lon="10.063653927920122"><ele>267.5</ele><time>2026-04-20T07:21:21Z</time></trkpt><trkpt lat="45.65721597422322" lon="10.0637831659641"><ele>269.0</ele><time>2026-04-20T07:21:23Z</time></trkpt><trkpt lat="45.657179317593595" lon="10.06387612442558"><ele>270.5</ele><time>2026-04-20T07:21:24Z</time></trkpt><trkpt lat="45.65721331924153" lon="10.064006861960014"><ele>272.0</ele><time>2026-04-20T07:21:25Z</time></trkpt><trkpt lat="45.65727894568026" lon="10.064171076926211"><ele>277.0</ele><time>2026-04-20T07:21:27Z</time></trkpt><trkpt lat="45.65737416289474" lon="10.064257859077918"><ele>282.0</ele><time>2026-04-20T07:21:30Z</time></trkpt><trkpt lat="45.657510052540424" lon="10.06431297430838"><ele>287.0</ele><time>2026-04-20T07:21:31Z</time></trkpt><trkpt lat="45.65783141515539" lon="10.06437868011444"><ele>287.0</ele><time>2026-04-20T07:21:32Z</time></trkpt><trkpt lat="45.65809084653059" lon="10.064431957415664"><ele>287.0</ele><time>2026-04-20T07:21:33Z</time></trkpt><trkpt lat="45.658259966459234" lon="10.064465835993351"><ele>287.0</ele><time>2026-04-20T07:21:34Z</time></trkpt><trkpt lat="45.65841065309881" lon="10.064498278012719"><ele>287.0</ele><time>2026-04-20T07:21:35Z</time></trkpt><trkpt lat="45.65858320782246" lon="10.064535287228134"><ele>287.0</ele><time>2026-04-20T07:21:36Z</time></trkpt><trkpt lat="45.65873402634229" lon="10.064596458164068"><ele>287.0</ele><time>2026-04-20T07:21:37Z</time></trkpt><trkpt lat="45.65890462441533" lon="10.064717444022099"><ele>283.33333333333337</ele><time>2026-04-20T07:21:38Z</time></trkpt><trkpt lat="45.65904944959147" lon="10.064879040992201"><ele>279.6666666666667</ele><time>2026-04-20T07:21:39Z</time></trkpt><trkpt lat="45.65916468616667" lon="10.065029122333343"><ele>276.0</ele><time>2026-04-20T07:21:40Z</time></trkpt><trkpt lat="45.659283102399385" lon="10.065182626845615"><ele>277.5</ele><time>2026-04-20T07:21:41Z</time></trkpt><trkpt lat="45.65938879326152" lon="10.06531955028558"><ele>279.0</ele><time>2026-04-20T07:21:42Z</time></trkpt><trkpt lat="45.65949593719064" lon="10.06545973828641"><ele>280.5</ele><time>2026-04-20T07:21:43Z</time></trkpt><trkpt lat="45.659587305106506" lon="10.065580330371267"><ele>282.0</ele><time>2026-04-20T07:21:44Z</time></trkpt><trkpt lat="45.65968462810697" lon="10.065709467724803"><ele>290.3333333333333</ele><time>2026-04-20T07:21:45Z</time></trkpt><trkpt lat="45.65977336921978" lon="10.065841314740217"><ele>298.66666666666663</ele><time>2026-04-20T07:21:46Z</time></trkpt><trkpt lat="45.65986669775961" lon="10.066009737091168"><ele>307.0</ele><time>2026-04-20T07:21:47Z</time></trkpt><trkpt lat="45.65996712248706" lon="10.066250728569788"><ele>307.0</ele><time>2026-04-20T07:21:48Z</time></trkpt><trkpt lat="45.66006145343638" lon="10.066447942908015"><ele>307.0</ele><time>2026-04-20T07:21:49Z</time></trkpt><trkpt lat="45.66014138985355" lon="10.066645550645784"><ele>307.0</ele><time>2026-04-20T07:21:50Z</time></trkpt><trkpt lat="45.66021360623157" lon="10.066832589188197"><ele>308.5</ele><time>2026-04-20T07:21:51Z</time></trkpt><trkpt lat="45.660301340710646" lon="10.06701132165056"><ele>310.0</ele><time>2026-04-20T07:21:52Z</time></trkpt><trkpt lat="45.660386217463824" lon="10.067186272270671"><ele>311.5</ele><time>2026-04-20T07:21:53Z</time></trkpt><trkpt lat="45.660463044099394" lon="10.067343742884614"><ele>313.0</ele><time>2026-04-20T07:21:54Z</time></trkpt><trkpt lat="45.66053161673259" lon="10.067491882700697"><ele>313.0</ele><time>2026-04-20T07:21:55Z</time></trkpt><trkpt lat="45.66059876094994" lon="10.067637952184796"><ele>313.0</ele><time>2026-04-20T07:21:56Z</time></trkpt><trkpt lat="45.66066698873627" lon="10.06778842359115"><ele>313.0</ele><time>2026-04-20T07:21:57Z</time></trkpt><trkpt lat="45.66072894864513" lon="10.067937331802481"><ele>313.0</ele><time>2026-04-20T07:21:58Z</time></trkpt><trkpt lat="45.66079477784429" lon="10.068094383273325"><ele>313.0</ele><time>2026-04-20T07:21:59Z</time></trkpt><trkpt lat="45.660845344866466" lon="10.068264589828958"><ele>313.0</ele><time>2026-04-20T07:22:00Z</time></trkpt><trkpt lat="45.6608796458183" lon="10.068451842650314"><ele>313.0</ele><time>2026-04-20T07:22:01Z</time></trkpt><trkpt lat="45.660877078933915" lon="10.068576798458697"><ele>313.0</ele><time>2026-04-20T07:22:02Z</time></trkpt><trkpt lat="45.660876742461014" lon="10.06870090978251"><ele>313.0</ele><time>2026-04-20T07:22:03Z</time></trkpt><trkpt lat="45.66088126499513" lon="10.06881703795065"><ele>316.0</ele><time>2026-04-20T07:22:04Z</time></trkpt><trkpt lat="45.66091337841039" lon="10.068932786046597"><ele>319.0</ele><time>2026-04-20T07:22:05Z</time></trkpt><trkpt lat="45.66094929784903" lon="10.06902129595569"><ele>322.0</ele><time>2026-04-20T07:22:06Z</time></trkpt><trkpt lat="45.66102430697616" lon="10.06908977496423"><ele>325.0</ele><time>2026-04-20T07:22:07Z</time></trkpt><trkpt lat="45.6610875902483" lon="10.069143017378059"><ele>328.0</ele><time>2026-04-20T07:22:08Z</time></trkpt><trkpt lat="45.66116651049212" lon="10.069102452953695"><ele>331.0</ele><time>2026-04-20T07:22:09Z</time></trkpt><trkpt lat="45.6612255400253" lon="10.069010517188433"><ele>332.0</ele><time>2026-04-20T07:22:10Z</time></trkpt><trkpt lat="45.66131916486843" lon="10.068815810146605"><ele>333.0</ele><time>2026-04-20T07:22:11Z</time></trkpt><trkpt lat="45.66137265576361" lon="10.06859297045863"><ele>334.0</ele><time>2026-04-20T07:22:12Z</time></trkpt><trkpt lat="45.661364892849726" lon="10.068342145882513"><ele>329.8</ele><time>2026-04-20T07:22:13Z</time></trkpt><trkpt lat="45.661426077418156" lon="10.068196115350956"><ele>325.59999999999997</ele><time>2026-04-20T07:22:14Z</time></trkpt><trkpt lat="45.66148932451262" lon="10.068121115364061"><ele>321.4</ele><time>2026-04-20T07:22:15Z</time></trkpt><trkpt lat="45.66156556407535" lon="10.06808959457901"><ele>317.2</ele><time>2026-04-20T07:22:16Z</time></trkpt><trkpt lat="45.6616973812711" lon="10.068054018446604"><ele>313.0</ele><time>2026-04-20T07:22:17Z</time></trkpt><trkpt lat="45.66178619816638" lon="10.06804378256192"><ele>313.0</ele><time>2026-04-20T07:22:18Z</time></trkpt><trkpt lat="45.661878017205126" lon="10.068038794942611"><ele>313.0</ele><time>2026-04-20T07:22:19Z</time></trkpt><trkpt lat="45.66195330142554" lon="10.068063187543721"><ele>313.0</ele><time>2026-04-20T07:22:20Z</time></trkpt><trkpt lat="45.6620342589457" lon="10.068126912093126"><ele>313.0</ele><time>2026-04-20T07:22:21Z</time></trkpt><trkpt lat="45.662151103442916" lon="10.068268517442958"><ele>313.0</ele><time>2026-04-20T07:22:22Z</time></trkpt><trkpt lat="45.662308164035956" lon="10.068485840724884"><ele>319.66666666666663</ele><time>2026-04-20T07:22:23Z</time></trkpt><trkpt lat="45.66246353135294" lon="10.068714609430597"><ele>326.3333333333333</ele><time>2026-04-20T07:22:24Z</time></trkpt><trkpt lat="45.662581613238984" lon="10.068885202451117"><ele>333.0</ele><time>2026-04-20T07:22:25Z</time></trkpt><trkpt lat="45.66269118599748" lon="10.069008879773829"><ele>336.0</ele><time>2026-04-20T07:22:26Z</time></trkpt><trkpt lat="45.66281798987654" lon="10.069084717333478"><ele>339.0</ele><time>2026-04-20T07:22:27Z</time></trkpt><trkpt lat="45.662947686086554" lon="10.069085898538177"><ele>342.0</ele><time>2026-04-20T07:22:28Z</time></trkpt><trkpt lat="45.6630639285849" lon="10.06905943796124"><ele>345.0</ele><time>2026-04-20T07:22:29Z</time></trkpt><trkpt lat="45.663174375034956" lon="10.069024045542008"><ele>345.0</ele><time>2026-04-20T07:22:30Z</time></trkpt><trkpt lat="45.66325890511606" lon="10.068920505505703"><ele>345.0</ele><time>2026-04-20T07:22:31Z</time></trkpt><trkpt lat="45.663350482619954" lon="10.068814636235237"><ele>345.0</ele><time>2026-04-20T07:22:32Z</time></trkpt><trkpt lat="45.66341933341215" lon="10.068744507980815"><ele>345.0</ele><time>2026-04-20T07:22:33Z</time></trkpt><trkpt lat="45.66346936197603" lon="10.06866667118837"><ele>345.0</ele><time>2026-04-20T07:22:34Z</time></trkpt><trkpt lat="45.6635314142873" lon="10.068733482278258"><ele>345.0</ele><time>2026-04-20T07:22:35Z</time></trkpt><trkpt lat="45.66358295964377" lon="10.068846973936955"><ele>345.0</ele><time>2026-04-20T07:22:37Z</time></trkpt><trkpt lat="45.663598723495035" lon="10.069019070609018"><ele>345.0</ele><time>2026-04-20T07:22:39Z</time></trkpt><trkpt lat="45.6635698001946" lon="10.06912774571789"><ele>345.0</ele><time>2026-04-20T07:22:40Z</time></trkpt><trkpt lat="45.663495341580145" lon="10.069270814619054"><ele>345.0</ele><time>2026-04-20T07:22:41Z</time></trkpt><trkpt lat="45.66340749716976" lon="10.069442589409697"><ele>345.4</ele><time>2026-04-20T07:22:42Z</time></trkpt><trkpt lat="45.66334717836735" lon="10.06960220386869"><ele>345.8</ele><time>2026-04-20T07:22:43Z</time></trkpt><trkpt lat="45.66331256744939" lon="10.069765196813044"><ele>346.20000000000005</ele><time>2026-04-20T07:22:44Z</time></trkpt><trkpt lat="45.66328803180151" lon="10.069882407160902"><ele>346.6</ele><time>2026-04-20T07:22:45Z</time></trkpt><trkpt lat="45.66325876057959" lon="10.069972934097976"><ele>347.0</ele><time>2026-04-20T07:22:46Z</time></trkpt><trkpt lat="45.66319916133748" lon="10.07003778165531"><ele>347.0</ele><time>2026-04-20T07:22:47Z</time></trkpt><trkpt lat="45.66312512064315" lon="10.070055605942494"><ele>347.0</ele><time>2026-04-20T07:22:48Z</time></trkpt><trkpt lat="45.66302087090194" lon="10.069981936298738"><ele>347.0</ele><time>2026-04-20T07:22:49Z</time></trkpt><trkpt lat="45.66295015460651" lon="10.069864564049162"><ele>347.0</ele><time>2026-04-20T07:22:50Z</time></trkpt><trkpt lat="45.66289195250071" lon="10.069769145681564"><ele>347.0</ele><time>2026-04-20T07:22:51Z</time></trkpt><trkpt lat="45.6628233520243" lon="10.069605209658395"><ele>347.25</ele><time>2026-04-20T07:22:52Z</time></trkpt><trkpt lat="45.662739087426075" lon="10.06950349680314"><ele>347.5</ele><time>2026-04-20T07:22:53Z</time></trkpt><trkpt lat="45.66260783123204" lon="10.069463191843136"><ele>347.75</ele><time>2026-04-20T07:22:54Z</time></trkpt><trkpt lat="45.66245402790054" lon="10.069453890944008"><ele>348.0</ele><time>2026-04-20T07:22:55Z</time></trkpt><trkpt lat="45.66232981542629" lon="10.069414427819263"><ele>348.0</ele><time>2026-04-20T07:22:56Z</time></trkpt><trkpt lat="45.66222009190744" lon="10.069342006954997"><ele>348.0</ele><time>2026-04-20T07:22:57Z</time></trkpt><trkpt lat="45.662120568475814" lon="10.069292833685594"><ele>348.0</ele><time>2026-04-20T07:22:58Z</time></trkpt><trkpt lat="45.66203266664139" lon="10.069259548425524"><ele>348.0</ele><time>2026-04-20T07:22:59Z</time></trkpt><trkpt lat="45.66195836326979" lon="10.069208313920676"><ele>348.0</ele><time>2026-04-20T07:23:00Z</time></trkpt><trkpt lat="45.66191787643239" lon="10.069077635891368"><ele>345.6666666666667</ele><time>2026-04-20T07:23:01Z</time></trkpt><trkpt lat="45.661900390211926" lon="10.068951774004788"><ele>343.3333333333333</ele><time>2026-04-20T07:23:02Z</time></trkpt><trkpt lat="45.66186103319089" lon="10.068869942307376"><ele>341.0</ele><time>2026-04-20T07:23:03Z</time></trkpt><trkpt lat="45.66180150915591" lon="10.06884025255469"><ele>338.66666666666663</ele><time>2026-04-20T07:23:04Z</time></trkpt><trkpt lat="45.66170295387636" lon="10.068842052409247"><ele>336.3333333333333</ele><time>2026-04-20T07:23:05Z</time></trkpt><trkpt lat="45.66162383596143" lon="10.068914509369861"><ele>334.0</ele><time>2026-04-20T07:23:06Z</time></trkpt><trkpt lat="45.66154865241802" lon="10.069071668881326"><ele>338.5</ele><time>2026-04-20T07:23:07Z</time></trkpt><trkpt lat="45.661459455745444" lon="10.069241606464418"><ele>343.0</ele><time>2026-04-20T07:23:08Z</time></trkpt><trkpt lat="45.661389482057764" lon="10.069348944740106"><ele>347.5</ele><time>2026-04-20T07:23:09Z</time></trkpt><trkpt lat="45.66133117564982" lon="10.069507920330567"><ele>352.0</ele><time>2026-04-20T07:23:10Z</time></trkpt><trkpt lat="45.661257788601866" lon="10.069658117530842"><ele>352.0</ele><time>2026-04-20T07:23:11Z</time></trkpt><trkpt lat="45.661173610265585" lon="10.069798054905544"><ele>352.0</ele><time>2026-04-20T07:23:12Z</time></trkpt><trkpt lat="45.661088601540015" lon="10.069991244769232"><ele>352.0</ele><time>2026-04-20T07:23:13Z</time></trkpt><trkpt lat="45.66102374590941" lon="10.070111455243966"><ele>352.0</ele><time>2026-04-20T07:23:14Z</time></trkpt><trkpt lat="45.660948403792794" lon="10.070229315260839"><ele>354.3333333333333</ele><time>2026-04-20T07:23:15Z</time></trkpt><trkpt lat="45.66086752556879" lon="10.070335335287645"><ele>356.66666666666663</ele><time>2026-04-20T07:23:16Z</time></trkpt><trkpt lat="45.66079392954316" lon="10.070413900271216"><ele>359.0</ele><time>2026-04-20T07:23:17Z</time></trkpt><trkpt lat="45.66072094769467" lon="10.07046504477366"><ele>361.3333333333333</ele><time>2026-04-20T07:23:18Z</time></trkpt><trkpt lat="45.66063840609505" lon="10.070457600268211"><ele>363.6666666666667</ele><time>2026-04-20T07:23:19Z</time></trkpt><trkpt lat="45.6605622989879" lon="10.070436303625737"><ele>366.0</ele><time>2026-04-20T07:23:20Z</time></trkpt><trkpt lat="45.66052505825101" lon="10.070315803547384"><ele>366.0</ele><time>2026-04-20T07:23:21Z</time></trkpt><trkpt lat="45.66049701452896" lon="10.070175898031238"><ele>366.0</ele><time>2026-04-20T07:23:22Z</time></trkpt><trkpt lat="45.660413095694004" lon="10.070042843144446"><ele>366.0</ele><time>2026-04-20T07:23:23Z</time></trkpt><trkpt lat="45.66028167625431" lon="10.069937049665208"><ele>366.0</ele><time>2026-04-20T07:23:24Z</time></trkpt><trkpt lat="45.660165023235834" lon="10.069861129909366"><ele>367.5</ele><time>2026-04-20T07:23:25Z</time></trkpt><trkpt lat="45.66005389601185" lon="10.069767092422852"><ele>369.0</ele><time>2026-04-20T07:23:26Z</time></trkpt><trkpt lat="45.65994203799448" lon="10.06967709905764"><ele>370.5</ele><time>2026-04-20T07:23:27Z</time></trkpt><trkpt lat="45.6598233868014" lon="10.069595628436725"><ele>372.0</ele><time>2026-04-20T07:23:28Z</time></trkpt><trkpt lat="45.659723705318314" lon="10.069495314490606"><ele>372.0</ele><time>2026-04-20T07:23:29Z</time></trkpt><trkpt lat="45.65961756795771" lon="10.069412725220516"><ele>372.0</ele><time>2026-04-20T07:23:30Z</time></trkpt><trkpt lat="45.659520931219724" lon="10.069333190713133"><ele>372.0</ele><time>2026-04-20T07:23:31Z</time></trkpt><trkpt lat="45.65945125651838" lon="10.069258675157236"><ele>372.0</ele><time>2026-04-20T07:23:32Z</time></trkpt><trkpt lat="45.65939416406145" lon="10.06918150132226"><ele>372.0</ele><time>2026-04-20T07:23:33Z</time></trkpt><trkpt lat="45.659346874711204" lon="10.06910474729341"><ele>372.5</ele><time>2026-04-20T07:23:34Z</time></trkpt><trkpt lat="45.65934232753258" lon="10.069000481256074"><ele>373.0</ele><time>2026-04-20T07:23:35Z</time></trkpt><trkpt lat="45.659341109957815" lon="10.068884325378567"><ele>373.5</ele><time>2026-04-20T07:23:36Z</time></trkpt><trkpt lat="45.65933088885042" lon="10.068772323571219"><ele>374.0</ele><time>2026-04-20T07:23:37Z</time></trkpt><trkpt lat="45.6593040112858" lon="10.068681003816637"><ele>374.5</ele><time>2026-04-20T07:23:38Z</time></trkpt><trkpt lat="45.65923001463554" lon="10.068631642676339"><ele>375.0</ele><time>2026-04-20T07:23:39Z</time></trkpt><trkpt lat="45.65915002960035" lon="10.068621900080023"><ele>375.0</ele><time>2026-04-20T07:23:40Z</time></trkpt><trkpt lat="45.6590842447271" lon="10.068676333476628"><ele>375.0</ele><time>2026-04-20T07:23:41Z</time></trkpt><trkpt lat="45.65903806704353" lon="10.068748702414556"><ele>375.0</ele><time>2026-04-20T07:23:42Z</time></trkpt><trkpt lat="45.659013057802674" lon="10.068853284938282"><ele>375.0</ele><time>2026-04-20T07:23:43Z</time></trkpt><trkpt lat="45.659037882777724" lon="10.068965422263567"><ele>375.0</ele><time>2026-04-20T07:23:44Z</time></trkpt><trkpt lat="45.65909993341615" lon="10.069094291723802"><ele>375.0</ele><time>2026-04-20T07:23:45Z</time></trkpt><trkpt lat="45.65917121746047" lon="10.069235666789112"><ele>374.25</ele><time>2026-04-20T07:23:46Z</time></trkpt><trkpt lat="45.659249910877456" lon="10.069372064154853"><ele>373.5</ele><time>2026-04-20T07:23:47Z</time></trkpt><trkpt lat="45.65934912617809" lon="10.06952969754687"><ele>372.75</ele><time>2026-04-20T07:23:48Z</time></trkpt><trkpt lat="45.65941599894462" lon="10.069696840954169"><ele>372.0</ele><time>2026-04-20T07:23:49Z</time></trkpt><trkpt lat="45.65948955794718" lon="10.069864794797143"><ele>374.75</ele><time>2026-04-20T07:23:50Z</time></trkpt><trkpt lat="45.659571061075965" lon="10.070039290495219"><ele>377.5</ele><time>2026-04-20T07:23:51Z</time></trkpt><trkpt lat="45.659639824402404" lon="10.070205670426786"><ele>380.25</ele><time>2026-04-20T07:23:52Z</time></trkpt><trkpt lat="45.659699950359546" lon="10.070359763646138"><ele>383.0</ele><time>2026-04-20T07:23:53Z</time></trkpt><trkpt lat="45.65974762533301" lon="10.07051519387831"><ele>383.0</ele><time>2026-04-20T07:23:54Z</time></trkpt><trkpt lat="45.65977572214272" lon="10.070663494496943"><ele>383.0</ele><time>2026-04-20T07:23:55Z</time></trkpt><trkpt lat="45.65980256393694" lon="10.070825222425706"><ele>383.0</ele><time>2026-04-20T07:23:56Z</time></trkpt><trkpt lat="45.659842184455115" lon="10.070953641673128"><ele>383.0</ele><time>2026-04-20T07:23:57Z</time></trkpt><trkpt lat="45.659880536229984" lon="10.071105180939721"><ele>383.0</ele><time>2026-04-20T07:23:58Z</time></trkpt><trkpt lat="45.65994636122485" lon="10.071239569119777"><ele>386.5</ele><time>2026-04-20T07:23:59Z</time></trkpt><trkpt lat="45.660000892550215" lon="10.071401125968102"><ele>390.0</ele><time>2026-04-20T07:24:00Z</time></trkpt><trkpt lat="45.66008811090503" lon="10.071575778059865"><ele>393.5</ele><time>2026-04-20T07:24:01Z</time></trkpt><trkpt lat="45.66015796114357" lon="10.071733984105304"><ele>397.0</ele><time>2026-04-20T07:24:02Z</time></trkpt><trkpt lat="45.66027045342437" lon="10.071836842058493"><ele>398.5</ele><time>2026-04-20T07:24:03Z</time></trkpt><trkpt lat="45.66038750678893" lon="10.071956432903447"><ele>400.0</ele><time>2026-04-20T07:24:04Z</time></trkpt><trkpt lat="45.66050016451697" lon="10.072056771664172"><ele>401.5</ele><time>2026-04-20T07:24:05Z</time></trkpt><trkpt lat="45.660602775989645" lon="10.072121421395066"><ele>403.0</ele><time>2026-04-20T07:24:06Z</time></trkpt><trkpt lat="45.660719232438275" lon="10.072178744320933"><ele>403.0</ele><time>2026-04-20T07:24:07Z</time></trkpt><trkpt lat="45.66083716236698" lon="10.072213610959913"><ele>403.0</ele><time>2026-04-20T07:24:08Z</time></trkpt><trkpt lat="45.66095694232809" lon="10.072269049063893"><ele>403.0</ele><time>2026-04-20T07:24:09Z</time></trkpt><trkpt lat="45.66107041761092" lon="10.07230344957698"><ele>403.0</ele><time>2026-04-20T07:24:10Z</time></trkpt><trkpt lat="45.66118195981855" lon="10.072358828961557"><ele>406.25</ele><time>2026-04-20T07:24:11Z</time></trkpt><trkpt lat="45.66132183185445" lon="10.072461122183514"><ele>409.5</ele><time>2026-04-20T07:24:12Z</time></trkpt><trkpt lat="45.66144078956759" lon="10.072570294709289"><ele>412.75</ele><time>2026-04-20T07:24:13Z</time></trkpt><trkpt lat="45.661534853695485" lon="10.072657572472837"><ele>416.0</ele><time>2026-04-20T07:24:14Z</time></trkpt><trkpt lat="45.66160096800778" lon="10.072743472372665"><ele>416.0</ele><time>2026-04-20T07:24:15Z</time></trkpt><trkpt lat="45.66165234948681" lon="10.072841425612044"><ele>416.0</ele><time>2026-04-20T07:24:16Z</time></trkpt><trkpt lat="45.66172223804649" lon="10.072970628253817"><ele>416.0</ele><time>2026-04-20T07:24:17Z</time></trkpt><trkpt lat="45.66178201869114" lon="10.073103037648485"><ele>416.0</ele><time>2026-04-20T07:24:18Z</time></trkpt><trkpt lat="45.661821045140904" lon="10.073223091577205"><ele>416.0</ele><time>2026-04-20T07:24:19Z</time></trkpt><trkpt lat="45.66185060698137" lon="10.073321569353407"><ele>417.66666666666663</ele><time>2026-04-20T07:24:20Z</time></trkpt><trkpt lat="45.66189634717578" lon="10.073405865244156"><ele>419.3333333333333</ele><time>2026-04-20T07:24:21Z</time></trkpt><trkpt lat="45.66192290216976" lon="10.073494567739388"><ele>421.0</ele><time>2026-04-20T07:24:22Z</time></trkpt><trkpt lat="45.66196383238437" lon="10.073596482523035"><ele>422.66666666666663</ele><time>2026-04-20T07:24:23Z</time></trkpt><trkpt lat="45.66193704513437" lon="10.073690201826194"><ele>424.3333333333333</ele><time>2026-04-20T07:24:24Z</time></trkpt><trkpt lat="45.66180407621481" lon="10.073789267040821"><ele>426.0</ele><time>2026-04-20T07:24:26Z</time></trkpt><trkpt lat="45.661745744319255" lon="10.073684353252904"><ele>428.0</ele><time>2026-04-20T07:24:28Z</time></trkpt><trkpt lat="45.66173738253787" lon="10.073552533888828"><ele>430.0</ele><time>2026-04-20T07:24:29Z</time></trkpt><trkpt lat="45.661717175892974" lon="10.073382353284444"><ele>432.0</ele><time>2026-04-20T07:24:30Z</time></trkpt><trkpt lat="45.66171925204962" lon="10.073252628767005"><ele>434.0</ele><time>2026-04-20T07:24:31Z</time></trkpt><trkpt lat="45.66168138125245" lon="10.07313009389204"><ele>436.0</ele><time>2026-04-20T07:24:32Z</time></trkpt><trkpt lat="45.661579072061" lon="10.073016214314462"><ele>433.5</ele><time>2026-04-20T07:24:33Z</time></trkpt><trkpt lat="45.66144159638937" lon="10.072923280340973"><ele>431.0</ele><time>2026-04-20T07:24:34Z</time></trkpt><trkpt lat="45.66131878759371" lon="10.07286934309001"><ele>428.5</ele><time>2026-04-20T07:24:35Z</time></trkpt><trkpt lat="45.661200005921586" lon="10.072859690008608"><ele>426.0</ele><time>2026-04-20T07:24:36Z</time></trkpt><trkpt lat="45.66107319094188" lon="10.072851696064726"><ele>426.0</ele><time>2026-04-20T07:24:37Z</time></trkpt><trkpt lat="45.66097106059889" lon="10.072823619007584"><ele>426.0</ele><time>2026-04-20T07:24:38Z</time></trkpt><trkpt lat="45.66085524217698" lon="10.0727759276168"><ele>426.0</ele><time>2026-04-20T07:24:39Z</time></trkpt><trkpt lat="45.660708102365554" lon="10.072768882459464"><ele>426.0</ele><time>2026-04-20T07:24:40Z</time></trkpt><trkpt lat="45.66057456530483" lon="10.072867313507205"><ele>426.0</ele><time>2026-04-20T07:24:41Z</time></trkpt><trkpt lat="45.66046919399257" lon="10.072962472459656"><ele>426.0</ele><time>2026-04-20T07:24:42Z</time></trkpt><trkpt lat="45.660377203254626" lon="10.073047170321624"><ele>426.0</ele><time>2026-04-20T07:24:43Z</time></trkpt><trkpt lat="45.66027308936893" lon="10.07315044920083"><ele>426.0</ele><time>2026-04-20T07:24:44Z</time></trkpt><trkpt lat="45.660166641058474" lon="10.07322969192371"><ele>426.8</ele><time>2026-04-20T07:24:45Z</time></trkpt><trkpt lat="45.6600563890326" lon="10.073246775244346"><ele>427.6</ele><time>2026-04-20T07:24:46Z</time></trkpt><trkpt lat="45.659975065723955" lon="10.07323578595695"><ele>428.4</ele><time>2026-04-20T07:24:47Z</time></trkpt><trkpt lat="45.65987114308229" lon="10.073190014653916"><ele>429.2</ele><time>2026-04-20T07:24:48Z</time></trkpt><trkpt lat="45.65977504439666" lon="10.07313814878194"><ele>430.0</ele><time>2026-04-20T07:24:49Z</time></trkpt><trkpt lat="45.65967857420073" lon="10.073077592070085"><ele>430.0</ele><time>2026-04-20T07:24:50Z</time></trkpt><trkpt lat="45.6595619795039" lon="10.072989860906986"><ele>430.0</ele><time>2026-04-20T07:24:51Z</time></trkpt><trkpt lat="45.65944193721711" lon="10.072935924263236"><ele>430.0</ele><time>2026-04-20T07:24:52Z</time></trkpt><trkpt lat="45.65930321560724" lon="10.072902567773012"><ele>430.0</ele><time>2026-04-20T07:24:53Z</time></trkpt><trkpt lat="45.65920241040794" lon="10.072875539700926"><ele>434.5</ele><time>2026-04-20T07:24:54Z</time></trkpt><trkpt lat="45.65912412587972" lon="10.072821437484658"><ele>439.0</ele><time>2026-04-20T07:24:55Z</time></trkpt><trkpt lat="45.65901921653863" lon="10.072757878163825"><ele>443.5</ele><time>2026-04-20T07:24:56Z</time></trkpt><trkpt lat="45.65888481553977" lon="10.072697426937763"><ele>448.0</ele><time>2026-04-20T07:24:57Z</time></trkpt><trkpt lat="45.65877033015185" lon="10.07265418342298"><ele>448.0</ele><time>2026-04-20T07:24:58Z</time></trkpt><trkpt lat="45.658686309713055" lon="10.07259555235712"><ele>447.99999999999994</ele><time>2026-04-20T07:24:59Z</time></trkpt><trkpt lat="45.65862931958276" lon="10.0725034984284"><ele>447.99999999999994</ele><time>2026-04-20T07:25:00Z</time></trkpt><trkpt lat="45.658493679518195" lon="10.072396376478583"><ele>448.0</ele><time>2026-04-20T07:25:01Z</time></trkpt><trkpt lat="45.65841481987457" lon="10.072349536967094"><ele>448.0</ele><time>2026-04-20T07:25:02Z</time></trkpt><trkpt lat="45.65830552662593" lon="10.072218454374564"><ele>447.75</ele><time>2026-04-20T07:25:04Z</time></trkpt><trkpt lat="45.658216768184985" lon="10.072099131847468"><ele>447.5</ele><time>2026-04-20T07:25:05Z</time></trkpt><trkpt lat="45.658105376319234" lon="10.072037194406844"><ele>447.25</ele><time>2026-04-20T07:25:06Z</time></trkpt><trkpt lat="45.65796817528214" lon="10.071982900478664"><ele>447.0</ele><time>2026-04-20T07:25:07Z</time></trkpt><trkpt lat="45.657858571392126" lon="10.071944631454208"><ele>450.6</ele><time>2026-04-20T07:25:08Z</time></trkpt><trkpt lat="45.65773930402336" lon="10.071907464130993"><ele>454.20000000000005</ele><time>2026-04-20T07:25:09Z</time></trkpt><trkpt lat="45.65763157854278" lon="10.071904072860635"><ele>457.8</ele><time>2026-04-20T07:25:10Z</time></trkpt><trkpt lat="45.65753427954672" lon="10.071850301913841"><ele>461.4</ele><time>2026-04-20T07:25:11Z</time></trkpt><trkpt lat="45.65742652461781" lon="10.071831064623824"><ele>465.0</ele><time>2026-04-20T07:25:12Z</time></trkpt><trkpt lat="45.6573074650403" lon="10.071802234396818"><ele>465.0</ele><time>2026-04-20T07:25:13Z</time></trkpt><trkpt lat="45.65718210770813" lon="10.071771213787226"><ele>465.0</ele><time>2026-04-20T07:25:14Z</time></trkpt><trkpt lat="45.657050441116986" lon="10.071734205659343"><ele>465.0</ele><time>2026-04-20T07:25:15Z</time></trkpt><trkpt lat="45.65693160176216" lon="10.071711569315369"><ele>465.0</ele><time>2026-04-20T07:25:16Z</time></trkpt><trkpt lat="45.65681600911368" lon="10.071666576659796"><ele>467.75</ele><time>2026-04-20T07:25:17Z</time></trkpt><trkpt lat="45.65670527976103" lon="10.071607287249643"><ele>470.5</ele><time>2026-04-20T07:25:18Z</time></trkpt><trkpt lat="45.65659150898687" lon="10.071536648583836"><ele>473.25</ele><time>2026-04-20T07:25:19Z</time></trkpt><trkpt lat="45.65648058613844" lon="10.071464260660342"><ele>476.0</ele><time>2026-04-20T07:25:20Z</time></trkpt><trkpt lat="45.65637032014402" lon="10.071400138987078"><ele>472.20000000000005</ele><time>2026-04-20T07:25:21Z</time></trkpt><trkpt lat="45.65625766382307" lon="10.071359055103148"><ele>468.40000000000003</ele><time>2026-04-20T07:25:22Z</time></trkpt><trkpt lat="45.65616025514193" lon="10.071311678171284"><ele>464.6</ele><time>2026-04-20T07:25:23Z</time></trkpt><trkpt lat="45.65607041567599" lon="10.071248033348725"><ele>460.8</ele><time>2026-04-20T07:25:24Z</time></trkpt><trkpt lat="45.65598464261973" lon="10.071169850260695"><ele>457.0</ele><time>2026-04-20T07:25:25Z</time></trkpt><trkpt lat="45.65592176422324" lon="10.071103745608822"><ele>457.0</ele><time>2026-04-20T07:25:26Z</time></trkpt><trkpt lat="45.65586557747667" lon="10.071053323334477"><ele>457.00000000000006</ele><time>2026-04-20T07:25:27Z</time></trkpt><trkpt lat="45.65575540043835" lon="10.071067098432463"><ele>457.00000000000006</ele><time>2026-04-20T07:25:29Z</time></trkpt><trkpt lat="45.65570412238646" lon="10.071230196929648"><ele>457.0</ele><time>2026-04-20T07:25:31Z</time></trkpt><trkpt lat="45.6556989280677" lon="10.071388730986264"><ele>457.0</ele><time>2026-04-20T07:25:32Z</time></trkpt><trkpt lat="45.65568128355353" lon="10.071537295825648"><ele>461.0</ele><time>2026-04-20T07:25:33Z</time></trkpt><trkpt lat="45.655635793476726" lon="10.071677931733577"><ele>465.00000000000006</ele><time>2026-04-20T07:25:34Z</time></trkpt><trkpt lat="45.65559627418734" lon="10.071812375881574"><ele>469.00000000000006</ele><time>2026-04-20T07:25:35Z</time></trkpt><trkpt lat="45.655561964824734" lon="10.07196382857552"><ele>473.0</ele><time>2026-04-20T07:25:36Z</time></trkpt><trkpt lat="45.65550144208094" lon="10.072072701751262"><ele>477.0</ele><time>2026-04-20T07:25:37Z</time></trkpt><trkpt lat="45.65544656272772" lon="10.072189248488705"><ele>477.0</ele><time>2026-04-20T07:25:38Z</time></trkpt><trkpt lat="45.6553462267177" lon="10.072257043471009"><ele>477.0</ele><time>2026-04-20T07:25:39Z</time></trkpt><trkpt lat="45.65522279335655" lon="10.072224182279777"><ele>477.0</ele><time>2026-04-20T07:25:40Z</time></trkpt><trkpt lat="45.65510170791834" lon="10.072224108438098"><ele>477.0</ele><time>2026-04-20T07:25:41Z</time></trkpt><trkpt lat="45.654985426784165" lon="10.072239193541076"><ele>473.40000000000003</ele><time>2026-04-20T07:25:42Z</time></trkpt><trkpt lat="45.65486438298159" lon="10.072247615029516"><ele>469.80000000000007</ele><time>2026-04-20T07:25:43Z</time></trkpt><trkpt lat="45.654751106672975" lon="10.072258795023744"><ele>466.2</ele><time>2026-04-20T07:25:44Z</time></trkpt><trkpt lat="45.65465134176804" lon="10.072273604236054"><ele>462.6</ele><time>2026-04-20T07:25:45Z</time></trkpt><trkpt lat="45.6545614959952" lon="10.072276286363355"><ele>459.0</ele><time>2026-04-20T07:25:46Z</time></trkpt><trkpt lat="45.654471543251496" lon="10.072305129975339"><ele>459.3333333333333</ele><time>2026-04-20T07:25:47Z</time></trkpt><trkpt lat="45.65439909881953" lon="10.072338834918657"><ele>459.66666666666663</ele><time>2026-04-20T07:25:48Z</time></trkpt><trkpt lat="45.65432680196287" lon="10.072395357918154"><ele>460.0</ele><time>2026-04-20T07:25:49Z</time></trkpt><trkpt lat="45.65427945183563" lon="10.072487270219158"><ele>460.3333333333333</ele><time>2026-04-20T07:25:50Z</time></trkpt><trkpt lat="45.65425413918486" lon="10.072592449169198"><ele>460.66666666666663</ele><time>2026-04-20T07:25:51Z</time></trkpt><trkpt lat="45.654274055433135" lon="10.072708566785122"><ele>461.0</ele><time>2026-04-20T07:25:52Z</time></trkpt><trkpt lat="45.654339831217484" lon="10.072807040952938"><ele>464.0</ele><time>2026-04-20T07:25:53Z</time></trkpt><trkpt lat="45.65441606439337" lon="10.072937069739178"><ele>467.0</ele><time>2026-04-20T07:25:54Z</time></trkpt><trkpt lat="45.65450918810079" lon="10.073067745722366"><ele>470.0</ele><time>2026-04-20T07:25:55Z</time></trkpt><trkpt lat="45.654608700970186" lon="10.073172929428845"><ele>473.0</ele><time>2026-04-20T07:25:56Z</time></trkpt><trkpt lat="45.6547079925045" lon="10.073261574572825"><ele>476.0</ele><time>2026-04-20T07:25:57Z</time></trkpt><trkpt lat="45.65483211719163" lon="10.073336141842924"><ele>479.0</ele><time>2026-04-20T07:25:58Z</time></trkpt><trkpt lat="45.654944098480776" lon="10.07340824386976"><ele>482.0</ele><time>2026-04-20T07:25:59Z</time></trkpt><trkpt lat="45.65503493113951" lon="10.073491856170818"><ele>485.0</ele><time>2026-04-20T07:26:00Z</time></trkpt><trkpt lat="45.655134087619196" lon="10.073582902444267"><ele>485.0</ele><time>2026-04-20T07:26:01Z</time></trkpt><trkpt lat="45.65523820929573" lon="10.073665057750148"><ele>485.0</ele><time>2026-04-20T07:26:02Z</time></trkpt><trkpt lat="45.65531450761212" lon="10.073753218394405"><ele>485.0</ele><time>2026-04-20T07:26:03Z</time></trkpt><trkpt lat="45.65539767283072" lon="10.073820359734249"><ele>485.0</ele><time>2026-04-20T07:26:04Z</time></trkpt><trkpt lat="45.65546893032742" lon="10.073903634107294"><ele>485.0</ele><time>2026-04-20T07:26:05Z</time></trkpt><trkpt lat="45.65555367600337" lon="10.073989977418542"><ele>485.8</ele><time>2026-04-20T07:26:06Z</time></trkpt><trkpt lat="45.655654095608305" lon="10.07411356312816"><ele>486.6</ele><time>2026-04-20T07:26:07Z</time></trkpt><trkpt lat="45.655752482612954" lon="10.074228830924385"><ele>487.4</ele><time>2026-04-20T07:26:08Z</time></trkpt><trkpt lat="45.65583380093708" lon="10.07433072299087"><ele>488.2</ele><time>2026-04-20T07:26:09Z</time></trkpt><trkpt lat="45.65589008056162" lon="10.074411677225124"><ele>489.0</ele><time>2026-04-20T07:26:10Z</time></trkpt><trkpt lat="45.65596542156885" lon="10.074484297872562"><ele>489.0</ele><time>2026-04-20T07:26:11Z</time></trkpt><trkpt lat="45.65607384658544" lon="10.074597564254052"><ele>489.0</ele><time>2026-04-20T07:26:13Z</time></trkpt><trkpt lat="45.656148411412374" lon="10.074683680007418"><ele>489.0</ele><time>2026-04-20T07:26:14Z</time></trkpt><trkpt lat="45.65621126920329" lon="10.074808569487798"><ele>489.0</ele><time>2026-04-20T07:26:15Z</time></trkpt><trkpt lat="45.65626281473315" lon="10.074943368763291"><ele>489.0</ele><time>2026-04-20T07:26:16Z</time></trkpt><trkpt lat="45.65632478700099" lon="10.075075307950005"><ele>490.0</ele><time>2026-04-20T07:26:17Z</time></trkpt><trkpt lat="45.65634885072049" lon="10.075260150668958"><ele>491.0</ele><time>2026-04-20T07:26:18Z</time></trkpt><trkpt lat="45.65640692958855" lon="10.07544567847613"><ele>492.0</ele><time>2026-04-20T07:26:19Z</time></trkpt><trkpt lat="45.65647327645362" lon="10.0756279752571"><ele>493.0</ele><time>2026-04-20T07:26:20Z</time></trkpt><trkpt lat="45.65653145626229" lon="10.075777952032878"><ele>493.75</ele><time>2026-04-20T07:26:21Z</time></trkpt><trkpt lat="45.65659577756376" lon="10.075925484244557"><ele>494.5</ele><time>2026-04-20T07:26:22Z</time></trkpt><trkpt lat="45.656663478042404" lon="10.076077318455132"><ele>495.25</ele><time>2026-04-20T07:26:23Z</time></trkpt><trkpt lat="45.65673773460642" lon="10.076238959313626"><ele>496.0</ele><time>2026-04-20T07:26:24Z</time></trkpt><trkpt lat="45.656807279233746" lon="10.076394013575722"><ele>496.0</ele><time>2026-04-20T07:26:25Z</time></trkpt><trkpt lat="45.656868136685496" lon="10.076546775293798"><ele>496.0</ele><time>2026-04-20T07:26:26Z</time></trkpt><trkpt lat="45.65691900085535" lon="10.076662976934184"><ele>496.0</ele><time>2026-04-20T07:26:27Z</time></trkpt><trkpt lat="45.65697261992709" lon="10.07679737987191"><ele>496.0</ele><time>2026-04-20T07:26:29Z</time></trkpt><trkpt lat="45.657030308281925" lon="10.076868860354987"><ele>496.0</ele><time>2026-04-20T07:26:32Z</time></trkpt><trkpt lat="45.65715455401178" lon="10.076991193147288"><ele>497.00000000000006</ele><time>2026-04-20T07:26:47Z</time></trkpt><trkpt lat="45.657255075580835" lon="10.077098194427618"><ele>498.0</ele><time>2026-04-20T07:26:49Z</time></trkpt><trkpt lat="45.65731040803045" lon="10.077148753895486"><ele>499.0</ele><time>2026-04-20T07:26:50Z</time></trkpt><trkpt lat="45.657363380506595" lon="10.077199203827629"><ele>500.0</ele><time>2026-04-20T07:26:51Z</time></trkpt><trkpt lat="45.65741923046975" lon="10.077256731860322"><ele>501.00000000000006</ele><time>2026-04-20T07:26:52Z</time></trkpt><trkpt lat="45.657477557100414" lon="10.077312355298995"><ele>502.0</ele><time>2026-04-20T07:26:53Z</time></trkpt><trkpt lat="45.65752712676602" lon="10.077403540220756"><ele>503.40000000000003</ele><time>2026-04-20T07:26:54Z</time></trkpt><trkpt lat="45.65756399056589" lon="10.077500252741741"><ele>504.80000000000007</ele><time>2026-04-20T07:26:55Z</time></trkpt><trkpt lat="45.6576082147808" lon="10.077608925182876"><ele>506.2</ele><time>2026-04-20T07:26:56Z</time></trkpt><trkpt lat="45.6576736637165" lon="10.077738442449126"><ele>507.6</ele><time>2026-04-20T07:26:57Z</time></trkpt><trkpt lat="45.65777754442584" lon="10.077808405267229"><ele>509.0</ele><time>2026-04-20T07:26:58Z</time></trkpt><trkpt lat="45.65788512387574" lon="10.077902282737897"><ele>510.5</ele><time>2026-04-20T07:26:59Z</time></trkpt><trkpt lat="45.6579814535788" lon="10.077996385133998"><ele>512.0</ele><time>2026-04-20T07:27:00Z</time></trkpt><trkpt lat="45.65803626359075" lon="10.078127910459203"><ele>513.5</ele><time>2026-04-20T07:27:01Z</time></trkpt><trkpt lat="45.65813202994173" lon="10.078228309513362"><ele>515.0</ele><time>2026-04-20T07:27:02Z</time></trkpt><trkpt lat="45.658227100976056" lon="10.078325243344487"><ele>515.25</ele><time>2026-04-20T07:27:03Z</time></trkpt><trkpt lat="45.6583236725055" lon="10.078417616006226"><ele>515.5</ele><time>2026-04-20T07:27:04Z</time></trkpt><trkpt lat="45.65842610547829" lon="10.078515994764775"><ele>515.75</ele><time>2026-04-20T07:27:05Z</time></trkpt><trkpt lat="45.65852323647728" lon="10.078614440286827"><ele>516.0</ele><time>2026-04-20T07:27:06Z</time></trkpt><trkpt lat="45.658627477437086" lon="10.078724319673237"><ele>518.5</ele><time>2026-04-20T07:27:07Z</time></trkpt><trkpt lat="45.658741526700844" lon="10.078840526615725"><ele>521.0</ele><time>2026-04-20T07:27:08Z</time></trkpt><trkpt lat="45.658839831929505" lon="10.07892805509079"><ele>523.5</ele><time>2026-04-20T07:27:09Z</time></trkpt><trkpt lat="45.65893148739681" lon="10.078990328615813"><ele>526.0</ele><time>2026-04-20T07:27:10Z</time></trkpt><trkpt lat="45.6590463009476" lon="10.079016218675987"><ele>526.0</ele><time>2026-04-20T07:27:11Z</time></trkpt><trkpt lat="45.659188332753395" lon="10.078999061155391"><ele>526.0</ele><time>2026-04-20T07:27:12Z</time></trkpt><trkpt lat="45.65934308467176" lon="10.078951483520102"><ele>526.0</ele><time>2026-04-20T07:27:13Z</time></trkpt><trkpt lat="45.65950000631685" lon="10.078904758722373"><ele>528.6666666666667</ele><time>2026-04-20T07:27:14Z</time></trkpt><trkpt lat="45.65966824035438" lon="10.078848243500731"><ele>531.3333333333334</ele><time>2026-04-20T07:27:15Z</time></trkpt><trkpt lat="45.6598211666569" lon="10.0787968688708"><ele>534.0</ele><time>2026-04-20T07:27:16Z</time></trkpt><trkpt lat="45.65994190040845" lon="10.078760726569211"><ele>534.0</ele><time>2026-04-20T07:27:17Z</time></trkpt><trkpt lat="45.660067469065105" lon="10.078728697799495"><ele>534.0</ele><time>2026-04-20T07:27:18Z</time></trkpt><trkpt lat="45.66018612663725" lon="10.078703170356018"><ele>534.0</ele><time>2026-04-20T07:27:19Z</time></trkpt><trkpt lat="45.660320354017074" lon="10.078714282698934"><ele>534.0</ele><time>2026-04-20T07:27:20Z</time></trkpt><trkpt lat="45.660422548254" lon="10.07871542020853"><ele>534.4</ele><time>2026-04-20T07:27:21Z</time></trkpt><trkpt lat="45.660531245562666" lon="10.078708263259829"><ele>534.8</ele><time>2026-04-20T07:27:22Z</time></trkpt><trkpt lat="45.660607861811435" lon="10.078680844883642"><ele>535.2</ele><time>2026-04-20T07:27:23Z</time></trkpt><trkpt lat="45.66068274984061" lon="10.078663238977528"><ele>535.6</ele><time>2026-04-20T07:27:24Z</time></trkpt><trkpt lat="45.66075568256202" lon="10.078643193151253"><ele>536.0</ele><time>2026-04-20T07:27:25Z</time></trkpt><trkpt lat="45.66088968609133" lon="10.078599798746568"><ele>536.0</ele><time>2026-04-20T07:27:28Z</time></trkpt><trkpt lat="45.66095677489961" lon="10.078580859416137"><ele>536.0</ele><time>2026-04-20T07:27:36Z</time></trkpt><trkpt lat="45.66105032595277" lon="10.078571301532289"><ele>536.0</ele><time>2026-04-20T07:28:02Z</time></trkpt><trkpt lat="45.66111027567067" lon="10.078506545208352"><ele>536.0</ele><time>2026-04-20T07:28:28Z</time></trkpt><trkpt lat="45.661171261177365" lon="10.078480131728725"><ele>536.0</ele><time>2026-04-20T07:28:32Z</time></trkpt><trkpt lat="45.6612394935437" lon="10.078459549804514"><ele>536.0</ele><time>2026-04-20T07:29:01Z</time></trkpt><trkpt lat="45.661312361753076" lon="10.078453670988491"><ele>536.0</ele><time>2026-04-20T07:29:03Z</time></trkpt><trkpt lat="45.661387756359716" lon="10.07845216127609"><ele>536.1666666666666</ele><time>2026-04-20T07:29:05Z</time></trkpt><trkpt lat="45.661485507837206" lon="10.078462429125228"><ele>536.3333333333333</ele><time>2026-04-20T07:29:07Z</time></trkpt><trkpt lat="45.661550557684706" lon="10.078470110596493"><ele>536.5</ele><time>2026-04-20T07:29:08Z</time></trkpt><trkpt lat="45.66161666539621" lon="10.07848870960842"><ele>536.6666666666666</ele><time>2026-04-20T07:29:09Z</time></trkpt><trkpt lat="45.66170216730009" lon="10.078378917199041"><ele>536.8333333333334</ele><time>2026-04-20T07:29:10Z</time></trkpt><trkpt lat="45.66178825771748" lon="10.078394311195726"><ele>537.0</ele><time>2026-04-20T07:29:11Z</time></trkpt><trkpt lat="45.661874501830724" lon="10.078400564352876"><ele>537.0</ele><time>2026-04-20T07:29:12Z</time></trkpt><trkpt lat="45.66194331803384" lon="10.078421833773866"><ele>537.0</ele><time>2026-04-20T07:29:13Z</time></trkpt><trkpt lat="45.66203956598046" lon="10.078480380480938"><ele>537.0</ele><time>2026-04-20T07:29:14Z</time></trkpt><trkpt lat="45.66211041559991" lon="10.078530323723069"><ele>537.0</ele><time>2026-04-20T07:29:15Z</time></trkpt><trkpt lat="45.66219326484145" lon="10.078573183923552"><ele>537.0</ele><time>2026-04-20T07:29:16Z</time></trkpt><trkpt lat="45.662254729700486" lon="10.078754468698719"><ele>537.8000000000001</ele><time>2026-04-20T07:29:17Z</time></trkpt><trkpt lat="45.6623561767323" lon="10.078793327533253"><ele>538.6</ele><time>2026-04-20T07:29:18Z</time></trkpt><trkpt lat="45.66249200000291" lon="10.078842664827224"><ele>539.4000000000001</ele><time>2026-04-20T07:29:20Z</time></trkpt><trkpt lat="45.66258053409946" lon="10.078875904496453"><ele>540.2</ele><time>2026-04-20T07:29:21Z</time></trkpt><trkpt lat="45.66266601185784" lon="10.078911270066127"><ele>541.0</ele><time>2026-04-20T07:29:22Z</time></trkpt><trkpt lat="45.662752160931376" lon="10.078948237442201"><ele>541.4</ele><time>2026-04-20T07:29:23Z</time></trkpt><trkpt lat="45.662833464404876" lon="10.078986498592835"><ele>541.8</ele><time>2026-04-20T07:29:24Z</time></trkpt><trkpt lat="45.662893768332765" lon="10.079016372559689"><ele>542.1999999999999</ele><time>2026-04-20T07:29:25Z</time></trkpt><trkpt lat="45.66298968264272" lon="10.079102117071725"><ele>542.6</ele><time>2026-04-20T07:29:27Z</time></trkpt><trkpt lat="45.66304343646391" lon="10.07920961127721"><ele>543.0</ele><time>2026-04-20T07:29:29Z</time></trkpt><trkpt lat="45.66308534419933" lon="10.079364074393663"><ele>544.75</ele><time>2026-04-20T07:29:31Z</time></trkpt><trkpt lat="45.663110215469956" lon="10.079490107045848"><ele>546.5</ele><time>2026-04-20T07:29:32Z</time></trkpt><trkpt lat="45.6631533801248" lon="10.079668865694698"><ele>548.25</ele><time>2026-04-20T07:29:33Z</time></trkpt><trkpt lat="45.66315602014228" lon="10.07985223245278"><ele>550.0</ele><time>2026-04-20T07:29:34Z</time></trkpt><trkpt lat="45.66319589297315" lon="10.080025270060077"><ele>552.0</ele><time>2026-04-20T07:29:35Z</time></trkpt><trkpt lat="45.66323719384671" lon="10.080199566805637"><ele>554.0</ele><time>2026-04-20T07:29:36Z</time></trkpt><trkpt lat="45.66327812193171" lon="10.0803748817723"><ele>556.0</ele><time>2026-04-20T07:29:37Z</time></trkpt><trkpt lat="45.66332086904528" lon="10.08054657578141"><ele>558.0</ele><time>2026-04-20T07:29:38Z</time></trkpt><trkpt lat="45.66336549073767" lon="10.080730632755492"><ele>559.75</ele><time>2026-04-20T07:29:39Z</time></trkpt><trkpt lat="45.66341289153963" lon="10.080905533545797"><ele>561.5</ele><time>2026-04-20T07:29:40Z</time></trkpt><trkpt lat="45.66346296084094" lon="10.081090768166206"><ele>563.25</ele><time>2026-04-20T07:29:41Z</time></trkpt><trkpt lat="45.66351571363696" lon="10.081270237495325"><ele>565.0</ele><time>2026-04-20T07:29:42Z</time></trkpt><trkpt lat="45.66357767257668" lon="10.081469761121431"><ele>569.6666666666667</ele><time>2026-04-20T07:29:43Z</time></trkpt><trkpt lat="45.66364178925262" lon="10.081658932612804"><ele>574.3333333333334</ele><time>2026-04-20T07:29:44Z</time></trkpt><trkpt lat="45.66371027917592" lon="10.081859016544133"><ele>579.0</ele><time>2026-04-20T07:29:45Z</time></trkpt><trkpt lat="45.663784867794824" lon="10.082054059125788"><ele>579.0</ele><time>2026-04-20T07:29:46Z</time></trkpt><trkpt lat="45.66384350710282" lon="10.082284079732101"><ele>579.0</ele><time>2026-04-20T07:29:47Z</time></trkpt><trkpt lat="45.66389551650827" lon="10.082484465835737"><ele>579.0</ele><time>2026-04-20T07:29:48Z</time></trkpt><trkpt lat="45.66393517626584" lon="10.082681417284443"><ele>580.0</ele><time>2026-04-20T07:29:49Z</time></trkpt><trkpt lat="45.66395979457916" lon="10.082890593358997"><ele>581.0</ele><time>2026-04-20T07:29:50Z</time></trkpt><trkpt lat="45.66394449667241" lon="10.08307354456143"><ele>582.0</ele><time>2026-04-20T07:29:51Z</time></trkpt><trkpt lat="45.66390091839356" lon="10.08327646274826"><ele>583.0</ele><time>2026-04-20T07:29:52Z</time></trkpt><trkpt lat="45.663869444132104" lon="10.083489232726551"><ele>585.0</ele><time>2026-04-20T07:29:53Z</time></trkpt><trkpt lat="45.663832313865065" lon="10.083714002572757"><ele>587.0</ele><time>2026-04-20T07:29:54Z</time></trkpt><trkpt lat="45.66379949710807" lon="10.083921565124726"><ele>589.0</ele><time>2026-04-20T07:29:55Z</time></trkpt><trkpt lat="45.66375013194628" lon="10.084126275886733"><ele>592.0</ele><time>2026-04-20T07:29:56Z</time></trkpt><trkpt lat="45.66371267913743" lon="10.084321279871281"><ele>595.0</ele><time>2026-04-20T07:29:57Z</time></trkpt><trkpt lat="45.66367301797549" lon="10.08452778227388"><ele>598.0</ele><time>2026-04-20T07:29:58Z</time></trkpt><trkpt lat="45.663634119759564" lon="10.08473836919876"><ele>601.0</ele><time>2026-04-20T07:29:59Z</time></trkpt><trkpt lat="45.663605462733805" lon="10.084915182759575"><ele>594.75</ele><time>2026-04-20T07:30:00Z</time></trkpt><trkpt lat="45.663592461573856" lon="10.085128607807787"><ele>588.5</ele><time>2026-04-20T07:30:01Z</time></trkpt><trkpt lat="45.66359400600356" lon="10.085316631714555"><ele>582.25</ele><time>2026-04-20T07:30:02Z</time></trkpt><trkpt lat="45.66360719903638" lon="10.0855267300282"><ele>576.0</ele><time>2026-04-20T07:30:03Z</time></trkpt><trkpt lat="45.66359380280622" lon="10.085757591946129"><ele>577.0</ele><time>2026-04-20T07:30:04Z</time></trkpt><trkpt lat="45.66356161473513" lon="10.086019956698376"><ele>578.0</ele><time>2026-04-20T07:30:05Z</time></trkpt><trkpt lat="45.66352911507176" lon="10.086264162103287"><ele>579.0</ele><time>2026-04-20T07:30:06Z</time></trkpt><trkpt lat="45.6634742398501" lon="10.086469155610313"><ele>581.5</ele><time>2026-04-20T07:30:07Z</time></trkpt><trkpt lat="45.66342838615498" lon="10.086662233436275"><ele>584.0</ele><time>2026-04-20T07:30:08Z</time></trkpt><trkpt lat="45.663396892593155" lon="10.086853543799357"><ele>586.5</ele><time>2026-04-20T07:30:09Z</time></trkpt><trkpt lat="45.66336894154672" lon="10.087015367128327"><ele>589.0</ele><time>2026-04-20T07:30:10Z</time></trkpt><trkpt lat="45.66333267124296" lon="10.087180101063048"><ele>589.0</ele><time>2026-04-20T07:30:11Z</time></trkpt><trkpt lat="45.66329955295246" lon="10.087354491180163"><ele>589.0</ele><time>2026-04-20T07:30:12Z</time></trkpt><trkpt lat="45.663236874860445" lon="10.087526088763994"><ele>589.0</ele><time>2026-04-20T07:30:13Z</time></trkpt><trkpt lat="45.66319752573237" lon="10.087713362227243"><ele>589.0</ele><time>2026-04-20T07:30:14Z</time></trkpt><trkpt lat="45.66315881087565" lon="10.087891999446596"><ele>591.75</ele><time>2026-04-20T07:30:15Z</time></trkpt><trkpt lat="45.66311949941075" lon="10.08806545609053"><ele>594.5</ele><time>2026-04-20T07:30:16Z</time></trkpt><trkpt lat="45.66307919240113" lon="10.088256500877591"><ele>597.25</ele><time>2026-04-20T07:30:17Z</time></trkpt><trkpt lat="45.66303561834702" lon="10.088453584126155"><ele>600.0</ele><time>2026-04-20T07:30:18Z</time></trkpt><trkpt lat="45.66298647985073" lon="10.088645874928536"><ele>605.6666666666666</ele><time>2026-04-20T07:30:19Z</time></trkpt><trkpt lat="45.66293494533789" lon="10.088854140103509"><ele>611.3333333333333</ele><time>2026-04-20T07:30:20Z</time></trkpt><trkpt lat="45.66285883275051" lon="10.089063794975582"><ele>617.0</ele><time>2026-04-20T07:30:21Z</time></trkpt><trkpt lat="45.66280070368995" lon="10.08928657159351"><ele>616.0</ele><time>2026-04-20T07:30:22Z</time></trkpt><trkpt lat="45.66272440788323" lon="10.08949522017028"><ele>615.0</ele><time>2026-04-20T07:30:23Z</time></trkpt><trkpt lat="45.66266861079698" lon="10.089727801331888"><ele>614.0</ele><time>2026-04-20T07:30:24Z</time></trkpt><trkpt lat="45.662576550768954" lon="10.089948816312221"><ele>614.0</ele><time>2026-04-20T07:30:25Z</time></trkpt><trkpt lat="45.66249121368699" lon="10.09018647237199"><ele>614.0</ele><time>2026-04-20T07:30:26Z</time></trkpt><trkpt lat="45.66240260370671" lon="10.09043324424457"><ele>614.0</ele><time>2026-04-20T07:30:27Z</time></trkpt><trkpt lat="45.66230142212784" lon="10.090620955820674"><ele>620.0</ele><time>2026-04-20T07:30:28Z</time></trkpt><trkpt lat="45.662222100364154" lon="10.090830762600946"><ele>626.0</ele><time>2026-04-20T07:30:29Z</time></trkpt><trkpt lat="45.662143539381795" lon="10.091033639865465"><ele>632.0</ele><time>2026-04-20T07:30:30Z</time></trkpt><trkpt lat="45.66206282712259" lon="10.091227722077322"><ele>632.0</ele><time>2026-04-20T07:30:31Z</time></trkpt><trkpt lat="45.661971581755274" lon="10.091428265685792"><ele>632.0</ele><time>2026-04-20T07:30:32Z</time></trkpt><trkpt lat="45.66187285820075" lon="10.091611097823764"><ele>632.0</ele><time>2026-04-20T07:30:33Z</time></trkpt><trkpt lat="45.66175413182078" lon="10.091795518882469"><ele>628.5</ele><time>2026-04-20T07:30:34Z</time></trkpt><trkpt lat="45.66163133236093" lon="10.091955292567526"><ele>625.0</ele><time>2026-04-20T07:30:35Z</time></trkpt><trkpt lat="45.6615319144408" lon="10.092079660568162"><ele>621.5</ele><time>2026-04-20T07:30:36Z</time></trkpt><trkpt lat="45.66145182518728" lon="10.092209002586916"><ele>618.0</ele><time>2026-04-20T07:30:37Z</time></trkpt><trkpt lat="45.661382091360196" lon="10.092383978820644"><ele>622.75</ele><time>2026-04-20T07:30:38Z</time></trkpt><trkpt lat="45.66135407310232" lon="10.092579974555674"><ele>627.5</ele><time>2026-04-20T07:30:39Z</time></trkpt><trkpt lat="45.66134746130172" lon="10.092807695448275"><ele>632.25</ele><time>2026-04-20T07:30:40Z</time></trkpt><trkpt lat="45.661303317858085" lon="10.093006652961753"><ele>637.0</ele><time>2026-04-20T07:30:41Z</time></trkpt><trkpt lat="45.66121944411915" lon="10.093190202716361"><ele>632.6666666666667</ele><time>2026-04-20T07:30:42Z</time></trkpt><trkpt lat="45.661116504132764" lon="10.09334446787436"><ele>628.3333333333334</ele><time>2026-04-20T07:30:43Z</time></trkpt><trkpt lat="45.6610158274507" lon="10.093510252291148"><ele>624.0</ele><time>2026-04-20T07:30:44Z</time></trkpt><trkpt lat="45.660926856581234" lon="10.09369576767808"><ele>624.0</ele><time>2026-04-20T07:30:45Z</time></trkpt><trkpt lat="45.66084396165781" lon="10.093896063064205"><ele>624.0</ele><time>2026-04-20T07:30:46Z</time></trkpt><trkpt lat="45.66079177266472" lon="10.094113113552037"><ele>624.0</ele><time>2026-04-20T07:30:47Z</time></trkpt><trkpt lat="45.66075763942783" lon="10.09435502979339"><ele>629.3333333333334</ele><time>2026-04-20T07:30:48Z</time></trkpt><trkpt lat="45.66073458017736" lon="10.09458317281043"><ele>634.6666666666667</ele><time>2026-04-20T07:30:49Z</time></trkpt><trkpt lat="45.66069408045838" lon="10.094802271304605"><ele>640.0</ele><time>2026-04-20T07:30:50Z</time></trkpt><trkpt lat="45.660630413811965" lon="10.095014430011293"><ele>642.6666666666667</ele><time>2026-04-20T07:30:51Z</time></trkpt><trkpt lat="45.660559720743336" lon="10.095238663480803"><ele>645.3333333333334</ele><time>2026-04-20T07:30:52Z</time></trkpt><trkpt lat="45.66049880701597" lon="10.095491623040866"><ele>648.0</ele><time>2026-04-20T07:30:53Z</time></trkpt><trkpt lat="45.660488300686936" lon="10.095729550874829"><ele>650.3333333333334</ele><time>2026-04-20T07:30:54Z</time></trkpt><trkpt lat="45.66049466083353" lon="10.095992836683534"><ele>652.6666666666667</ele><time>2026-04-20T07:30:55Z</time></trkpt><trkpt lat="45.66050164014011" lon="10.096280041284277"><ele>655.0</ele><time>2026-04-20T07:30:56Z</time></trkpt><trkpt lat="45.660523159597886" lon="10.096587446190085"><ele>657.5</ele><time>2026-04-20T07:30:57Z</time></trkpt><trkpt lat="45.660544260450855" lon="10.096900845008513"><ele>660.0</ele><time>2026-04-20T07:30:58Z</time></trkpt><trkpt lat="45.660559949771475" lon="10.09723053010084"><ele>660.0</ele><time>2026-04-20T07:30:59Z</time></trkpt><trkpt lat="45.66057872357146" lon="10.097569437394812"><ele>660.0</ele><time>2026-04-20T07:31:00Z</time></trkpt><trkpt lat="45.66059830676966" lon="10.097925535041925"><ele>662.5</ele><time>2026-04-20T07:31:01Z</time></trkpt><trkpt lat="45.66060946708588" lon="10.098280073307933"><ele>665.0</ele><time>2026-04-20T07:31:02Z</time></trkpt><trkpt lat="45.660621033705524" lon="10.098637130468001"><ele>665.0</ele><time>2026-04-20T07:31:03Z</time></trkpt><trkpt lat="45.660643206725744" lon="10.098974577514687"><ele>665.0</ele><time>2026-04-20T07:31:04Z</time></trkpt><trkpt lat="45.660656469481495" lon="10.09930108563957"><ele>664.3333333333333</ele><time>2026-04-20T07:31:05Z</time></trkpt><trkpt lat="45.66069858554077" lon="10.099637920824268"><ele>663.6666666666666</ele><time>2026-04-20T07:31:06Z</time></trkpt><trkpt lat="45.66073489005629" lon="10.099933989530797"><ele>663.0</ele><time>2026-04-20T07:31:07Z</time></trkpt><trkpt lat="45.660769655519005" lon="10.100231726078517"><ele>662.0</ele><time>2026-04-20T07:31:08Z</time></trkpt><trkpt lat="45.66075979040274" lon="10.100521672490999"><ele>661.0</ele><time>2026-04-20T07:31:09Z</time></trkpt><trkpt lat="45.66074338532392" lon="10.100821087599696"><ele>660.0</ele><time>2026-04-20T07:31:10Z</time></trkpt><trkpt lat="45.660727037601575" lon="10.101132898529313"><ele>663.3333333333334</ele><time>2026-04-20T07:31:11Z</time></trkpt><trkpt lat="45.660733186776326" lon="10.101442678182279"><ele>666.6666666666667</ele><time>2026-04-20T07:31:12Z</time></trkpt><trkpt lat="45.660751141377794" lon="10.101758368315265"><ele>670.0</ele><time>2026-04-20T07:31:13Z</time></trkpt><trkpt lat="45.660758923872294" lon="10.102067465666435"><ele>671.3333333333334</ele><time>2026-04-20T07:31:14Z</time></trkpt><trkpt lat="45.66078343113387" lon="10.102373687326804"><ele>672.6666666666666</ele><time>2026-04-20T07:31:15Z</time></trkpt><trkpt lat="45.66078638810234" lon="10.102652656540435"><ele>674.0</ele><time>2026-04-20T07:31:16Z</time></trkpt><trkpt lat="45.660804483696474" lon="10.102971862598086"><ele>673.0</ele><time>2026-04-20T07:31:17Z</time></trkpt><trkpt lat="45.66080675448139" lon="10.103249860807818"><ele>672.0</ele><time>2026-04-20T07:31:18Z</time></trkpt><trkpt lat="45.6608377379949" lon="10.103517334678816"><ele>671.0</ele><time>2026-04-20T07:31:19Z</time></trkpt><trkpt lat="45.660882096770486" lon="10.103787058565313"><ele>671.0</ele><time>2026-04-20T07:31:20Z</time></trkpt><trkpt lat="45.66092675329062" lon="10.104035934920477"><ele>671.0</ele><time>2026-04-20T07:31:21Z</time></trkpt><trkpt lat="45.66097160482235" lon="10.10424782633927"><ele>671.0</ele><time>2026-04-20T07:31:22Z</time></trkpt><trkpt lat="45.660998211021216" lon="10.104460748289917"><ele>670.3333333333333</ele><time>2026-04-20T07:31:23Z</time></trkpt><trkpt lat="45.66098561307337" lon="10.104666057185826"><ele>669.6666666666666</ele><time>2026-04-20T07:31:24Z</time></trkpt><trkpt lat="45.660931497607486" lon="10.104890721376938"><ele>669.0</ele><time>2026-04-20T07:31:25Z</time></trkpt><trkpt lat="45.66085345845906" lon="10.10511592845959"><ele>671.3333333333334</ele><time>2026-04-20T07:31:26Z</time></trkpt><trkpt lat="45.66077934785285" lon="10.105351437886656"><ele>673.6666666666667</ele><time>2026-04-20T07:31:27Z</time></trkpt><trkpt lat="45.66072509803696" lon="10.105561070293765"><ele>676.0</ele><time>2026-04-20T07:31:28Z</time></trkpt><trkpt lat="45.6606523868335" lon="10.105715919135276"><ele>680.0</ele><time>2026-04-20T07:31:29Z</time></trkpt><trkpt lat="45.660580472927165" lon="10.105882270586118"><ele>684.0</ele><time>2026-04-20T07:31:30Z</time></trkpt><trkpt lat="45.66053914975554" lon="10.106042057409434"><ele>688.0</ele><time>2026-04-20T07:31:31Z</time></trkpt><trkpt lat="45.660523372680586" lon="10.106213587614874"><ele>692.0</ele><time>2026-04-20T07:31:32Z</time></trkpt><trkpt lat="45.6605529440893" lon="10.106377859882802"><ele>692.0</ele><time>2026-04-20T07:31:33Z</time></trkpt><trkpt lat="45.66061693098796" lon="10.106553639011441"><ele>692.0</ele><time>2026-04-20T07:31:34Z</time></trkpt><trkpt lat="45.66071902606227" lon="10.10673170246529"><ele>692.0</ele><time>2026-04-20T07:31:35Z</time></trkpt><trkpt lat="45.660830008234406" lon="10.106953945331373"><ele>690.75</ele><time>2026-04-20T07:31:36Z</time></trkpt><trkpt lat="45.66092707069289" lon="10.107156280130955"><ele>689.5</ele><time>2026-04-20T07:31:37Z</time></trkpt><trkpt lat="45.661007271315846" lon="10.107323830478645"><ele>688.25</ele><time>2026-04-20T07:31:38Z</time></trkpt><trkpt lat="45.6610640137469" lon="10.107479618254319"><ele>687.0</ele><time>2026-04-20T07:31:39Z</time></trkpt><trkpt lat="45.661106669058015" lon="10.107646614042762"><ele>685.75</ele><time>2026-04-20T07:31:40Z</time></trkpt><trkpt lat="45.661152976084146" lon="10.107781625249293"><ele>684.5</ele><time>2026-04-20T07:31:41Z</time></trkpt><trkpt lat="45.661214162685816" lon="10.107918207372022"><ele>683.25</ele><time>2026-04-20T07:31:42Z</time></trkpt><trkpt lat="45.661112871126" lon="10.108203966229139"><ele>682.0</ele><time>2026-04-20T07:31:43Z</time></trkpt><trkpt lat="45.661008812032954" lon="10.108377944125522"><ele>682.0</ele><time>2026-04-20T07:31:44Z</time></trkpt><trkpt lat="45.66092192798815" lon="10.108525129321551"><ele>682.0</ele><time>2026-04-20T07:31:45Z</time></trkpt><trkpt lat="45.660859025776794" lon="10.10866647138001"><ele>682.0</ele><time>2026-04-20T07:31:46Z</time></trkpt><trkpt lat="45.66080929064371" lon="10.10882857591262"><ele>682.0</ele><time>2026-04-20T07:31:47Z</time></trkpt><trkpt lat="45.66077613093897" lon="10.10902218044711"><ele>682.3333333333334</ele><time>2026-04-20T07:31:48Z</time></trkpt><trkpt lat="45.6607864920849" lon="10.109231231787465"><ele>682.6666666666666</ele><time>2026-04-20T07:31:49Z</time></trkpt><trkpt lat="45.660826829984885" lon="10.109445802063767"><ele>683.0</ele><time>2026-04-20T07:31:50Z</time></trkpt><trkpt lat="45.66089017426412" lon="10.109659123864706"><ele>683.0</ele><time>2026-04-20T07:31:51Z</time></trkpt><trkpt lat="45.66096985400042" lon="10.109854971143196"><ele>683.0</ele><time>2026-04-20T07:31:52Z</time></trkpt><trkpt lat="45.66103501564408" lon="10.1100167399494"><ele>683.0</ele><time>2026-04-20T07:31:53Z</time></trkpt><trkpt lat="45.66108491066747" lon="10.110156175307853"><ele>683.0</ele><time>2026-04-20T07:31:54Z</time></trkpt><trkpt lat="45.66111159709883" lon="10.110317512610964"><ele>680.75</ele><time>2026-04-20T07:31:55Z</time></trkpt><trkpt lat="45.661096260429765" lon="10.110469382186091"><ele>678.5</ele><time>2026-04-20T07:31:56Z</time></trkpt><trkpt lat="45.6610312153893" lon="10.110613133896155"><ele>676.25</ele><time>2026-04-20T07:31:57Z</time></trkpt><trkpt lat="45.66093057011875" lon="10.110774359743212"><ele>674.0</ele><time>2026-04-20T07:31:58Z</time></trkpt><trkpt lat="45.660818135718316" lon="10.11096982659473"><ele>672.0</ele><time>2026-04-20T07:31:59Z</time></trkpt><trkpt lat="45.660706709766366" lon="10.111165144347646"><ele>670.0</ele><time>2026-04-20T07:32:00Z</time></trkpt><trkpt lat="45.66060722073419" lon="10.11133423486695"><ele>668.0</ele><time>2026-04-20T07:32:01Z</time></trkpt><trkpt lat="45.66050382285088" lon="10.111471006401445"><ele>669.25</ele><time>2026-04-20T07:32:02Z</time></trkpt><trkpt lat="45.66042964835231" lon="10.111618052507714"><ele>670.5</ele><time>2026-04-20T07:32:03Z</time></trkpt><trkpt lat="45.66037765849876" lon="10.111791489586839"><ele>671.75</ele><time>2026-04-20T07:32:04Z</time></trkpt><trkpt lat="45.66037145913502" lon="10.111976144944608"><ele>673.0</ele><time>2026-04-20T07:32:05Z</time></trkpt><trkpt lat="45.6603952966724" lon="10.112168932540019"><ele>673.0</ele><time>2026-04-20T07:32:06Z</time></trkpt><trkpt lat="45.66046661152426" lon="10.112351758898036"><ele>673.0</ele><time>2026-04-20T07:32:07Z</time></trkpt><trkpt lat="45.66058561075323" lon="10.112566007348784"><ele>673.0</ele><time>2026-04-20T07:32:08Z</time></trkpt><trkpt lat="45.66071253730277" lon="10.112794919469975"><ele>669.6666666666667</ele><time>2026-04-20T07:32:09Z</time></trkpt><trkpt lat="45.6608373815192" lon="10.113042218279869"><ele>666.3333333333334</ele><time>2026-04-20T07:32:10Z</time></trkpt><trkpt lat="45.66093977920383" lon="10.113280051916076"><ele>663.0</ele><time>2026-04-20T07:32:11Z</time></trkpt><trkpt lat="45.66104326270716" lon="10.113484147149386"><ele>661.5</ele><time>2026-04-20T07:32:12Z</time></trkpt><trkpt lat="45.661139196548795" lon="10.11365576684205"><ele>660.0</ele><time>2026-04-20T07:32:13Z</time></trkpt><trkpt lat="45.66122798143266" lon="10.113814699058087"><ele>658.5</ele><time>2026-04-20T07:32:14Z</time></trkpt><trkpt lat="45.6613185383741" lon="10.11398303569682"><ele>657.0</ele><time>2026-04-20T07:32:15Z</time></trkpt><trkpt lat="45.66140370948306" lon="10.114141493233632"><ele>657.0</ele><time>2026-04-20T07:32:16Z</time></trkpt><trkpt lat="45.66146994126417" lon="10.114299144830927"><ele>657.0</ele><time>2026-04-20T07:32:17Z</time></trkpt><trkpt lat="45.66153236887673" lon="10.114430393061964"><ele>657.0</ele><time>2026-04-20T07:32:18Z</time></trkpt><trkpt lat="45.66160893957302" lon="10.11454258812362"><ele>657.0</ele><time>2026-04-20T07:32:19Z</time></trkpt><trkpt lat="45.66172109435176" lon="10.114606010319092"><ele>657.0</ele><time>2026-04-20T07:32:20Z</time></trkpt><trkpt lat="45.66183229580641" lon="10.114612877661155"><ele>657.0</ele><time>2026-04-20T07:32:21Z</time></trkpt><trkpt lat="45.66193819427384" lon="10.11457440843581"><ele>657.0</ele><time>2026-04-20T07:32:22Z</time></trkpt><trkpt lat="45.66202011516185" lon="10.1145299605067"><ele>657.0</ele><time>2026-04-20T07:32:23Z</time></trkpt><trkpt lat="45.66214496510484" lon="10.11454101816562"><ele>657.0</ele><time>2026-04-20T07:32:25Z</time></trkpt><trkpt lat="45.66220611486271" lon="10.114611366668262"><ele>657.6</ele><time>2026-04-20T07:32:26Z</time></trkpt><trkpt lat="45.6622397758793" lon="10.1147357317975"><ele>658.2</ele><time>2026-04-20T07:32:27Z</time></trkpt><trkpt lat="45.6622583992653" lon="10.114838466926308"><ele>658.8</ele><time>2026-04-20T07:32:28Z</time></trkpt><trkpt lat="45.66225830115046" lon="10.114970967728825"><ele>659.4</ele><time>2026-04-20T07:32:29Z</time></trkpt><trkpt lat="45.66224091062912" lon="10.11510004314884"><ele>660.0</ele><time>2026-04-20T07:32:30Z</time></trkpt><trkpt lat="45.66226656531323" lon="10.11523579402937"><ele>656.0</ele><time>2026-04-20T07:32:31Z</time></trkpt><trkpt lat="45.6623076155076" lon="10.11539078717341"><ele>652.0</ele><time>2026-04-20T07:32:32Z</time></trkpt><trkpt lat="45.66236833134833" lon="10.115558167659275"><ele>648.0</ele><time>2026-04-20T07:32:33Z</time></trkpt><trkpt lat="45.662483104625814" lon="10.115685803456799"><ele>644.0</ele><time>2026-04-20T07:32:34Z</time></trkpt><trkpt lat="45.6626026114645" lon="10.115770280382652"><ele>641.5</ele><time>2026-04-20T07:32:35Z</time></trkpt><trkpt lat="45.66271174085534" lon="10.115842894457836"><ele>639.0</ele><time>2026-04-20T07:32:36Z</time></trkpt><trkpt lat="45.66283088536212" lon="10.115922527736801"><ele>636.5</ele><time>2026-04-20T07:32:37Z</time></trkpt><trkpt lat="45.662920629600826" lon="10.116005872009893"><ele>634.0</ele><time>2026-04-20T07:32:38Z</time></trkpt><trkpt lat="45.662996056807984" lon="10.116132563913103"><ele>635.8</ele><time>2026-04-20T07:32:39Z</time></trkpt><trkpt lat="45.663051426484785" lon="10.11631350748153"><ele>637.5999999999999</ele><time>2026-04-20T07:32:40Z</time></trkpt><trkpt lat="45.66310021189842" lon="10.116483956689425"><ele>639.4</ele><time>2026-04-20T07:32:41Z</time></trkpt><trkpt lat="45.66313391865871" lon="10.116605466613567"><ele>641.1999999999999</ele><time>2026-04-20T07:32:42Z</time></trkpt><trkpt lat="45.66315381196478" lon="10.11670162347594"><ele>643.0</ele><time>2026-04-20T07:32:43Z</time></trkpt><trkpt lat="45.66314616875959" lon="10.116799345948149"><ele>643.0</ele><time>2026-04-20T07:32:44Z</time></trkpt><trkpt lat="45.66311059508915" lon="10.11688404710338"><ele>643.0</ele><time>2026-04-20T07:32:45Z</time></trkpt><trkpt lat="45.66304302816918" lon="10.116923585038117"><ele>643.0</ele><time>2026-04-20T07:32:46Z</time></trkpt><trkpt lat="45.66295456948493" lon="10.116884779210768"><ele>643.0</ele><time>2026-04-20T07:32:47Z</time></trkpt><trkpt lat="45.66285479811394" lon="10.11679533731818"><ele>643.0</ele><time>2026-04-20T07:32:48Z</time></trkpt><trkpt lat="45.66275604306514" lon="10.116689312180897"><ele>641.1999999999999</ele><time>2026-04-20T07:32:49Z</time></trkpt><trkpt lat="45.66267963644398" lon="10.116591608365344"><ele>639.4</ele><time>2026-04-20T07:32:50Z</time></trkpt><trkpt lat="45.66260008056307" lon="10.116526264320479"><ele>637.5999999999999</ele><time>2026-04-20T07:32:51Z</time></trkpt><trkpt lat="45.66248651565447" lon="10.116535698138073"><ele>635.8</ele><time>2026-04-20T07:32:52Z</time></trkpt><trkpt lat="45.662373159580795" lon="10.116604236033986"><ele>634.0</ele><time>2026-04-20T07:32:53Z</time></trkpt><trkpt lat="45.66225397713221" lon="10.116669605632115"><ele>631.0</ele><time>2026-04-20T07:32:54Z</time></trkpt><trkpt lat="45.66211233022676" lon="10.116688729462972"><ele>628.0</ele><time>2026-04-20T07:32:55Z</time></trkpt><trkpt lat="45.66196771997896" lon="10.116684986281122"><ele>625.0</ele><time>2026-04-20T07:32:56Z</time></trkpt><trkpt lat="45.66181121917931" lon="10.116666784016873"><ele>622.0</ele><time>2026-04-20T07:32:57Z</time></trkpt><trkpt lat="45.66164273134119" lon="10.116656274460482"><ele>620.0</ele><time>2026-04-20T07:32:58Z</time></trkpt><trkpt lat="45.661482170169855" lon="10.11663212834435"><ele>618.0</ele><time>2026-04-20T07:32:59Z</time></trkpt><trkpt lat="45.6613175092827" lon="10.11660371334614"><ele>616.0</ele><time>2026-04-20T07:33:00Z</time></trkpt><trkpt lat="45.66117180317777" lon="10.116584280513436"><ele>615.8</ele><time>2026-04-20T07:33:01Z</time></trkpt><trkpt lat="45.6610504966403" lon="10.116556907795916"><ele>615.6</ele><time>2026-04-20T07:33:02Z</time></trkpt><trkpt lat="45.660944329501525" lon="10.116539375362352"><ele>615.4</ele><time>2026-04-20T07:33:03Z</time></trkpt><trkpt lat="45.660848747107465" lon="10.116547756508043"><ele>615.2</ele><time>2026-04-20T07:33:04Z</time></trkpt><trkpt lat="45.66076457943521" lon="10.116591931475583"><ele>615.0</ele><time>2026-04-20T07:33:05Z</time></trkpt><trkpt lat="45.660713354675536" lon="10.116687456873633"><ele>613.4</ele><time>2026-04-20T07:33:06Z</time></trkpt><trkpt lat="45.66067814087127" lon="10.116805085876596"><ele>611.8</ele><time>2026-04-20T07:33:07Z</time></trkpt><trkpt lat="45.66070606332408" lon="10.11694108776323"><ele>610.2</ele><time>2026-04-20T07:33:08Z</time></trkpt><trkpt lat="45.66079236455506" lon="10.117031554377931"><ele>608.6</ele><time>2026-04-20T07:33:09Z</time></trkpt><trkpt lat="45.66090369521915" lon="10.117137072117597"><ele>607.0</ele><time>2026-04-20T07:33:10Z</time></trkpt><trkpt lat="45.661052268649094" lon="10.117223226745855"><ele>606.25</ele><time>2026-04-20T07:33:11Z</time></trkpt><trkpt lat="45.66118490319312" lon="10.117340752059988"><ele>605.5</ele><time>2026-04-20T07:33:12Z</time></trkpt><trkpt lat="45.661318891885315" lon="10.117454190887367"><ele>604.75</ele><time>2026-04-20T07:33:13Z</time></trkpt><trkpt lat="45.66143478572451" lon="10.117552837101364"><ele>604.0</ele><time>2026-04-20T07:33:14Z</time></trkpt><trkpt lat="45.66155752111892" lon="10.117623953443488"><ele>604.0</ele><time>2026-04-20T07:33:15Z</time></trkpt><trkpt lat="45.66168125573103" lon="10.117668087691076"><ele>604.0</ele><time>2026-04-20T07:33:16Z</time></trkpt><trkpt lat="45.66179172420614" lon="10.11767195885666"><ele>604.0</ele><time>2026-04-20T07:33:17Z</time></trkpt><trkpt lat="45.66189890034573" lon="10.117652759074431"><ele>604.0</ele><time>2026-04-20T07:33:18Z</time></trkpt><trkpt lat="45.661996551616504" lon="10.117624394934955"><ele>604.0</ele><time>2026-04-20T07:33:19Z</time></trkpt><trkpt lat="45.66207817284469" lon="10.117598957504821"><ele>604.4</ele><time>2026-04-20T07:33:20Z</time></trkpt><trkpt lat="45.66215860559951" lon="10.117578813220575"><ele>604.8</ele><time>2026-04-20T07:33:21Z</time></trkpt><trkpt lat="45.66224121712119" lon="10.117566439182434"><ele>605.2</ele><time>2026-04-20T07:33:22Z</time></trkpt><trkpt lat="45.66231886143543" lon="10.117693759939511"><ele>605.6</ele><time>2026-04-20T07:33:23Z</time></trkpt><trkpt lat="45.662339957708824" lon="10.11783189834485"><ele>606.0</ele><time>2026-04-20T07:33:24Z</time></trkpt><trkpt lat="45.66235730604616" lon="10.117982929345736"><ele>606.0</ele><time>2026-04-20T07:33:25Z</time></trkpt><trkpt lat="45.662381988107775" lon="10.118173954472526"><ele>606.0</ele><time>2026-04-20T07:33:26Z</time></trkpt><trkpt lat="45.662417087659236" lon="10.118389511357485"><ele>606.0</ele><time>2026-04-20T07:33:27Z</time></trkpt><trkpt lat="45.66245696059295" lon="10.118584009460058"><ele>606.0</ele><time>2026-04-20T07:33:28Z</time></trkpt><trkpt lat="45.66247776286288" lon="10.118774094948868"><ele>603.5</ele><time>2026-04-20T07:33:29Z</time></trkpt><trkpt lat="45.662466985054174" lon="10.118960001454981"><ele>601.0</ele><time>2026-04-20T07:33:30Z</time></trkpt><trkpt lat="45.662419715290625" lon="10.119149521981008"><ele>598.5</ele><time>2026-04-20T07:33:31Z</time></trkpt><trkpt lat="45.66234569481556" lon="10.119338315676464"><ele>596.0</ele><time>2026-04-20T07:33:32Z</time></trkpt><trkpt lat="45.66227129875439" lon="10.11953656266602"><ele>596.3333333333333</ele><time>2026-04-20T07:33:33Z</time></trkpt><trkpt lat="45.66219403615104" lon="10.119743674754476"><ele>596.6666666666666</ele><time>2026-04-20T07:33:34Z</time></trkpt><trkpt lat="45.6621185919377" lon="10.119945911918386"><ele>597.0</ele><time>2026-04-20T07:33:35Z</time></trkpt><trkpt lat="45.6620549311951" lon="10.120151960047016"><ele>597.0</ele><time>2026-04-20T07:33:36Z</time></trkpt><trkpt lat="45.661983058476174" lon="10.120358492255308"><ele>597.0</ele><time>2026-04-20T07:33:37Z</time></trkpt><trkpt lat="45.66190350300433" lon="10.120564638686478"><ele>597.0</ele><time>2026-04-20T07:33:38Z</time></trkpt><trkpt lat="45.66181935222851" lon="10.120786907494734"><ele>590.6666666666666</ele><time>2026-04-20T07:33:39Z</time></trkpt><trkpt lat="45.6617284955365" lon="10.121010696887106"><ele>584.3333333333333</ele><time>2026-04-20T07:33:40Z</time></trkpt><trkpt lat="45.661647980758886" lon="10.121216867278337"><ele>578.0</ele><time>2026-04-20T07:33:41Z</time></trkpt><trkpt lat="45.66157268950081" lon="10.121401684057817"><ele>579.25</ele><time>2026-04-20T07:33:42Z</time></trkpt><trkpt lat="45.66150992873209" lon="10.121585000070544"><ele>580.5</ele><time>2026-04-20T07:33:43Z</time></trkpt><trkpt lat="45.661451987142335" lon="10.121770770632525"><ele>581.75</ele><time>2026-04-20T07:33:44Z</time></trkpt><trkpt lat="45.661379560225846" lon="10.121940336675802"><ele>583.0</ele><time>2026-04-20T07:33:45Z</time></trkpt><trkpt lat="45.66132148354426" lon="10.122139694078333"><ele>583.0</ele><time>2026-04-20T07:33:46Z</time></trkpt><trkpt lat="45.661280773432864" lon="10.122324048500264"><ele>583.0</ele><time>2026-04-20T07:33:47Z</time></trkpt><trkpt lat="45.66124424739835" lon="10.122503189983489"><ele>583.0</ele><time>2026-04-20T07:33:48Z</time></trkpt><trkpt lat="45.66121734679725" lon="10.12268466646351"><ele>583.0</ele><time>2026-04-20T07:33:49Z</time></trkpt><trkpt lat="45.661198729427426" lon="10.122858855534197"><ele>583.25</ele><time>2026-04-20T07:33:50Z</time></trkpt><trkpt lat="45.66120709544724" lon="10.123026544032665"><ele>583.5</ele><time>2026-04-20T07:33:51Z</time></trkpt><trkpt lat="45.661186492333954" lon="10.123204418916412"><ele>583.75</ele><time>2026-04-20T07:33:52Z</time></trkpt><trkpt lat="45.661167214000535" lon="10.123372743738017"><ele>584.0</ele><time>2026-04-20T07:33:53Z</time></trkpt><trkpt lat="45.66114152936016" lon="10.123512290141164"><ele>580.2</ele><time>2026-04-20T07:33:54Z</time></trkpt><trkpt lat="45.6611127806947" lon="10.12365251876687"><ele>576.4</ele><time>2026-04-20T07:33:55Z</time></trkpt><trkpt lat="45.6610871226078" lon="10.12376768144848"><ele>572.6</ele><time>2026-04-20T07:33:56Z</time></trkpt><trkpt lat="45.66105164787677" lon="10.123876731096036"><ele>568.8</ele><time>2026-04-20T07:33:57Z</time></trkpt><trkpt lat="45.66101004917556" lon="10.123986052508656"><ele>565.0</ele><time>2026-04-20T07:33:58Z</time></trkpt><trkpt lat="45.66094348376625" lon="10.124103889915038"><ele>565.0</ele><time>2026-04-20T07:33:59Z</time></trkpt><trkpt lat="45.660891238027126" lon="10.124227447966264"><ele>565.0</ele><time>2026-04-20T07:34:00Z</time></trkpt><trkpt lat="45.660806362613016" lon="10.124268347348977"><ele>565.0</ele><time>2026-04-20T07:34:01Z</time></trkpt><trkpt lat="45.66073971262383" lon="10.124349732330462"><ele>565.0</ele><time>2026-04-20T07:34:02Z</time></trkpt><trkpt lat="45.660660564198245" lon="10.124384968209238"><ele>565.0</ele><time>2026-04-20T07:34:03Z</time></trkpt><trkpt lat="45.66055445119748" lon="10.124453401583644"><ele>565.0</ele><time>2026-04-20T07:34:04Z</time></trkpt><trkpt lat="45.660463642054154" lon="10.124578718000176"><ele>565.0</ele><time>2026-04-20T07:34:05Z</time></trkpt><trkpt lat="45.66039013730798" lon="10.124726981145493"><ele>565.0</ele><time>2026-04-20T07:34:06Z</time></trkpt><trkpt lat="45.66033564274889" lon="10.124873891786075"><ele>565.0</ele><time>2026-04-20T07:34:07Z</time></trkpt><trkpt lat="45.660295171052105" lon="10.125039432698753"><ele>561.8</ele><time>2026-04-20T07:34:08Z</time></trkpt><trkpt lat="45.660262400930044" lon="10.125205503918764"><ele>558.6</ele><time>2026-04-20T07:34:09Z</time></trkpt><trkpt lat="45.66023904677834" lon="10.12532973880061"><ele>555.4</ele><time>2026-04-20T07:34:10Z</time></trkpt><trkpt lat="45.66022169469651" lon="10.125495598721972"><ele>552.2</ele><time>2026-04-20T07:34:11Z</time></trkpt><trkpt lat="45.66018648844226" lon="10.125642863214601"><ele>549.0</ele><time>2026-04-20T07:34:12Z</time></trkpt><trkpt lat="45.66017515750527" lon="10.12579044827574"><ele>549.0</ele><time>2026-04-20T07:34:13Z</time></trkpt><trkpt lat="45.66018071857943" lon="10.125916277725342"><ele>549.0</ele><time>2026-04-20T07:34:14Z</time></trkpt><trkpt lat="45.660189598726745" lon="10.126059652644662"><ele>549.0</ele><time>2026-04-20T07:34:15Z</time></trkpt><trkpt lat="45.66020059577211" lon="10.126195917310268"><ele>549.0</ele><time>2026-04-20T07:34:16Z</time></trkpt><trkpt lat="45.66020318172246" lon="10.126319654242973"><ele>549.0</ele><time>2026-04-20T07:34:17Z</time></trkpt><trkpt lat="45.66020042650963" lon="10.12642040560365"><ele>549.0</ele><time>2026-04-20T07:34:18Z</time></trkpt><trkpt lat="45.66014900310521" lon="10.126517043613008"><ele>549.0</ele><time>2026-04-20T07:34:20Z</time></trkpt><trkpt lat="45.66004269358985" lon="10.126508459848386"><ele>549.0</ele><time>2026-04-20T07:34:22Z</time></trkpt><trkpt lat="45.65999545553621" lon="10.126340638674034"><ele>549.0</ele><time>2026-04-20T07:34:24Z</time></trkpt><trkpt lat="45.6599862813297" lon="10.126221467338626"><ele>549.0</ele><time>2026-04-20T07:34:25Z</time></trkpt><trkpt lat="45.66000110126599" lon="10.126075173119048"><ele>549.0</ele><time>2026-04-20T07:34:26Z</time></trkpt><trkpt lat="45.66001881734199" lon="10.12592955630721"><ele>549.0</ele><time>2026-04-20T07:34:27Z</time></trkpt><trkpt lat="45.66003515211857" lon="10.125802213236943"><ele>549.0</ele><time>2026-04-20T07:34:28Z</time></trkpt><trkpt lat="45.660056750039466" lon="10.125673679273458"><ele>549.0</ele><time>2026-04-20T07:34:29Z</time></trkpt><trkpt lat="45.66008410948897" lon="10.1255272942419"><ele>549.0</ele><time>2026-04-20T07:34:30Z</time></trkpt><trkpt lat="45.66010611598336" lon="10.125381906767737"><ele>549.0</ele><time>2026-04-20T07:34:31Z</time></trkpt><trkpt lat="45.66012601947849" lon="10.125271145378926"><ele>548.6666666666666</ele><time>2026-04-20T07:34:32Z</time></trkpt><trkpt lat="45.66014704595394" lon="10.12516503098286"><ele>548.3333333333334</ele><time>2026-04-20T07:34:33Z</time></trkpt><trkpt lat="45.660164284930104" lon="10.12506748474541"><ele>548.0</ele><time>2026-04-20T07:34:34Z</time></trkpt><trkpt lat="45.66012231671754" lon="10.124909835850609"><ele>547.6666666666667</ele><time>2026-04-20T07:34:36Z</time></trkpt><trkpt lat="45.660052770567574" lon="10.124847776825451"><ele>547.3333333333334</ele><time>2026-04-20T07:34:37Z</time></trkpt><trkpt lat="45.659986230019506" lon="10.124845126686015"><ele>547.0</ele><time>2026-04-20T07:34:38Z</time></trkpt><trkpt lat="45.65987978804162" lon="10.12496987605756"><ele>547.0</ele><time>2026-04-20T07:34:40Z</time></trkpt><trkpt lat="45.65985474605593" lon="10.12512838223801"><ele>547.0</ele><time>2026-04-20T07:34:41Z</time></trkpt><trkpt lat="45.6598648479096" lon="10.125350758490425"><ele>547.0</ele><time>2026-04-20T07:34:42Z</time></trkpt><trkpt lat="45.659835137931275" lon="10.125587816639706"><ele>547.0</ele><time>2026-04-20T07:34:43Z</time></trkpt><trkpt lat="45.659814289850004" lon="10.125821151825853"><ele>547.6666666666667</ele><time>2026-04-20T07:34:44Z</time></trkpt><trkpt lat="45.65978659421089" lon="10.12607568376429"><ele>548.3333333333334</ele><time>2026-04-20T07:34:45Z</time></trkpt><trkpt lat="45.65974817077951" lon="10.126295642134782"><ele>549.0</ele><time>2026-04-20T07:34:46Z</time></trkpt><trkpt lat="45.659712591392854" lon="10.126506615218124"><ele>547.75</ele><time>2026-04-20T07:34:47Z</time></trkpt><trkpt lat="45.65965979676831" lon="10.126676463498548"><ele>546.5</ele><time>2026-04-20T07:34:48Z</time></trkpt><trkpt lat="45.65961979923837" lon="10.126851926498151"><ele>545.25</ele><time>2026-04-20T07:34:49Z</time></trkpt><trkpt lat="45.6595832395072" lon="10.126987616970004"><ele>544.0</ele><time>2026-04-20T07:34:50Z</time></trkpt><trkpt lat="45.659558690608286" lon="10.12712010211367"><ele>544.0</ele><time>2026-04-20T07:34:51Z</time></trkpt><trkpt lat="45.65955708405404" lon="10.127237285985174"><ele>544.0</ele><time>2026-04-20T07:34:52Z</time></trkpt><trkpt lat="45.65965561840633" lon="10.127352790484483"><ele>544.0</ele><time>2026-04-20T07:34:54Z</time></trkpt><trkpt lat="45.659759718450665" lon="10.127363775243985"><ele>544.0</ele><time>2026-04-20T07:34:55Z</time></trkpt><trkpt lat="45.65988691386572" lon="10.127341336380223"><ele>544.0</ele><time>2026-04-20T07:34:56Z</time></trkpt><trkpt lat="45.66001815681184" lon="10.12732002649705"><ele>544.0</ele><time>2026-04-20T07:34:57Z</time></trkpt><trkpt lat="45.660172732835484" lon="10.12729684510767"><ele>544.0</ele><time>2026-04-20T07:34:58Z</time></trkpt><trkpt lat="45.660324819064165" lon="10.127271624075691"><ele>544.0</ele><time>2026-04-20T07:34:59Z</time></trkpt><trkpt lat="45.66047356626683" lon="10.127254763391486"><ele>547.25</ele><time>2026-04-20T07:35:00Z</time></trkpt><trkpt lat="45.66059345360319" lon="10.127262509136997"><ele>550.5</ele><time>2026-04-20T07:35:01Z</time></trkpt><trkpt lat="45.66072281091366" lon="10.127300820307616"><ele>553.75</ele><time>2026-04-20T07:35:02Z</time></trkpt><trkpt lat="45.660867026141354" lon="10.127373891218891"><ele>557.0</ele><time>2026-04-20T07:35:03Z</time></trkpt><trkpt lat="45.660986289606235" lon="10.127482715618697"><ele>559.0</ele><time>2026-04-20T07:35:04Z</time></trkpt><trkpt lat="45.661078983810086" lon="10.127627396748442"><ele>561.0</ele><time>2026-04-20T07:35:05Z</time></trkpt><trkpt lat="45.661171402703914" lon="10.127824855957583"><ele>563.0</ele><time>2026-04-20T07:35:06Z</time></trkpt><trkpt lat="45.66126377827343" lon="10.128022814295063"><ele>563.0</ele><time>2026-04-20T07:35:07Z</time></trkpt><trkpt lat="45.66133671415649" lon="10.128195887362422"><ele>563.0</ele><time>2026-04-20T07:35:08Z</time></trkpt><trkpt lat="45.66139514534078" lon="10.128330659084062"><ele>563.0</ele><time>2026-04-20T07:35:09Z</time></trkpt><trkpt lat="45.661449793990315" lon="10.128429311039714"><ele>563.0</ele><time>2026-04-20T07:35:10Z</time></trkpt><trkpt lat="45.66149818639835" lon="10.128504487099601"><ele>563.0</ele><time>2026-04-20T07:35:11Z</time></trkpt><trkpt lat="45.661540393741895" lon="10.128581067272412"><ele>555.5</ele><time>2026-04-20T07:35:12Z</time></trkpt><trkpt lat="45.661592282351855" lon="10.128665678206689"><ele>548.0</ele><time>2026-04-20T07:35:13Z</time></trkpt><trkpt lat="45.661665405860575" lon="10.128766465069333"><ele>540.5</ele><time>2026-04-20T07:35:14Z</time></trkpt><trkpt lat="45.6617651450234" lon="10.128869813756246"><ele>533.0</ele><time>2026-04-20T07:35:15Z</time></trkpt><trkpt lat="45.66190671969271" lon="10.128948249873108"><ele>538.0</ele><time>2026-04-20T07:35:16Z</time></trkpt><trkpt lat="45.66207479624064" lon="10.12903459158471"><ele>543.0</ele><time>2026-04-20T07:35:17Z</time></trkpt><trkpt lat="45.662251343824764" lon="10.129091088583582"><ele>548.0</ele><time>2026-04-20T07:35:18Z</time></trkpt><trkpt lat="45.662429248225884" lon="10.129156576763823"><ele>537.3333333333333</ele><time>2026-04-20T07:35:19Z</time></trkpt><trkpt lat="45.66259037865042" lon="10.129204826409108"><ele>526.6666666666666</ele><time>2026-04-20T07:35:20Z</time></trkpt><trkpt lat="45.662746053884725" lon="10.129237479643058"><ele>516.0</ele><time>2026-04-20T07:35:21Z</time></trkpt><trkpt lat="45.66288530567552" lon="10.129264148399553"><ele>516.0</ele><time>2026-04-20T07:35:22Z</time></trkpt><trkpt lat="45.6630062336979" lon="10.129286543343413"><ele>516.0</ele><time>2026-04-20T07:35:23Z</time></trkpt><trkpt lat="45.66312607802554" lon="10.129309517987776"><ele>516.0</ele><time>2026-04-20T07:35:24Z</time></trkpt><trkpt lat="45.66324316811297" lon="10.129332839487692"><ele>516.0</ele><time>2026-04-20T07:35:25Z</time></trkpt><trkpt lat="45.66336893405922" lon="10.129463132075632"><ele>516.0</ele><time>2026-04-20T07:35:26Z</time></trkpt><trkpt lat="45.66343502668404" lon="10.129601646859058"><ele>516.0</ele><time>2026-04-20T07:35:27Z</time></trkpt><trkpt lat="45.66354752637807" lon="10.129785079520863"><ele>516.0</ele><time>2026-04-20T07:35:28Z</time></trkpt><trkpt lat="45.663643652889355" lon="10.130044679046124"><ele>512.6666666666666</ele><time>2026-04-20T07:35:29Z</time></trkpt><trkpt lat="45.66373790515622" lon="10.130312211006984"><ele>509.3333333333333</ele><time>2026-04-20T07:35:30Z</time></trkpt><trkpt lat="45.663840172958786" lon="10.130537647272844"><ele>506.0</ele><time>2026-04-20T07:35:31Z</time></trkpt><trkpt lat="45.66393912319422" lon="10.130762631637216"><ele>506.0</ele><time>2026-04-20T07:35:32Z</time></trkpt><trkpt lat="45.664019395662656" lon="10.130965160268879"><ele>506.0</ele><time>2026-04-20T07:35:33Z</time></trkpt><trkpt lat="45.6640961694144" lon="10.131150495688486"><ele>506.0</ele><time>2026-04-20T07:35:34Z</time></trkpt><trkpt lat="45.66417192360983" lon="10.131316622078097"><ele>506.0</ele><time>2026-04-20T07:35:35Z</time></trkpt><trkpt lat="45.66420646353194" lon="10.131498305003987"><ele>506.0</ele><time>2026-04-20T07:35:36Z</time></trkpt><trkpt lat="45.66420366562671" lon="10.131734353328712"><ele>506.0</ele><time>2026-04-20T07:35:37Z</time></trkpt><trkpt lat="45.66418095163202" lon="10.131957969354284"><ele>503.5</ele><time>2026-04-20T07:35:38Z</time></trkpt><trkpt lat="45.66414360154525" lon="10.132184927140093"><ele>501.0</ele><time>2026-04-20T07:35:39Z</time></trkpt><trkpt lat="45.66408173806335" lon="10.132351899833374"><ele>498.5</ele><time>2026-04-20T07:35:40Z</time></trkpt><trkpt lat="45.66399936487264" lon="10.132487198168523"><ele>496.0</ele><time>2026-04-20T07:35:41Z</time></trkpt><trkpt lat="45.663943603644235" lon="10.132631433131417"><ele>494.75</ele><time>2026-04-20T07:35:42Z</time></trkpt><trkpt lat="45.66389102949109" lon="10.132769204127426"><ele>493.5</ele><time>2026-04-20T07:35:43Z</time></trkpt><trkpt lat="45.663891156278765" lon="10.132909242267786"><ele>492.25</ele><time>2026-04-20T07:35:44Z</time></trkpt><trkpt lat="45.66397903649091" lon="10.133047165879036"><ele>491.0</ele><time>2026-04-20T07:35:45Z</time></trkpt><trkpt lat="45.66407201150111" lon="10.133169456790277"><ele>487.75</ele><time>2026-04-20T07:35:46Z</time></trkpt><trkpt lat="45.66417333086513" lon="10.13329511239778"><ele>484.5</ele><time>2026-04-20T07:35:47Z</time></trkpt><trkpt lat="45.664270286660226" lon="10.133403319715296"><ele>481.25</ele><time>2026-04-20T07:35:48Z</time></trkpt><trkpt lat="45.66435493769433" lon="10.13353462105862"><ele>478.0</ele><time>2026-04-20T07:35:49Z</time></trkpt><trkpt lat="45.664401915823944" lon="10.133648178467913"><ele>478.0</ele><time>2026-04-20T07:35:50Z</time></trkpt><trkpt lat="45.66441347943203" lon="10.133782779990831"><ele>478.0</ele><time>2026-04-20T07:35:51Z</time></trkpt><trkpt lat="45.66438807911789" lon="10.133919674696203"><ele>478.0</ele><time>2026-04-20T07:35:52Z</time></trkpt><trkpt lat="45.66433633667506" lon="10.134137238680587"><ele>478.0</ele><time>2026-04-20T07:35:53Z</time></trkpt><trkpt lat="45.66431558800646" lon="10.13440107465598"><ele>475.6666666666667</ele><time>2026-04-20T07:35:54Z</time></trkpt><trkpt lat="45.664330493113496" lon="10.134660119001465"><ele>473.33333333333337</ele><time>2026-04-20T07:35:55Z</time></trkpt><trkpt lat="45.66434754221518" lon="10.134908854603278"><ele>471.0</ele><time>2026-04-20T07:35:56Z</time></trkpt><trkpt lat="45.66436397074552" lon="10.135132733515688"><ele>470.0</ele><time>2026-04-20T07:35:57Z</time></trkpt><trkpt lat="45.664379844545536" lon="10.135367054484906"><ele>469.0</ele><time>2026-04-20T07:35:58Z</time></trkpt><trkpt lat="45.6643962337773" lon="10.135608984584074"><ele>468.0</ele><time>2026-04-20T07:35:59Z</time></trkpt><trkpt lat="45.66441005392998" lon="10.135812991295063"><ele>464.66666666666663</ele><time>2026-04-20T07:36:00Z</time></trkpt><trkpt lat="45.66441425622262" lon="10.136030157837055"><ele>461.3333333333333</ele><time>2026-04-20T07:36:01Z</time></trkpt><trkpt lat="45.66438328141441" lon="10.136275247599551"><ele>458.0</ele><time>2026-04-20T07:36:02Z</time></trkpt><trkpt lat="45.664341598220595" lon="10.136520399115497"><ele>457.0</ele><time>2026-04-20T07:36:03Z</time></trkpt><trkpt lat="45.66431417010132" lon="10.136758400218067"><ele>456.0</ele><time>2026-04-20T07:36:04Z</time></trkpt><trkpt lat="45.66430356397776" lon="10.137026215321553"><ele>455.0</ele><time>2026-04-20T07:36:05Z</time></trkpt><trkpt lat="45.664320592107266" lon="10.137302413099567"><ele>453.0</ele><time>2026-04-20T07:36:06Z</time></trkpt><trkpt lat="45.66433972418279" lon="10.137532885303958"><ele>451.0</ele><time>2026-04-20T07:36:07Z</time></trkpt><trkpt lat="45.66436046569053" lon="10.137724390153595"><ele>449.0</ele><time>2026-04-20T07:36:08Z</time></trkpt><trkpt lat="45.66441351318286" lon="10.137933115572395"><ele>450.66666666666663</ele><time>2026-04-20T07:36:09Z</time></trkpt><trkpt lat="45.664503264303605" lon="10.138110818876594"><ele>452.33333333333337</ele><time>2026-04-20T07:36:10Z</time></trkpt><trkpt lat="45.664638768204284" lon="10.138272840631316"><ele>454.0</ele><time>2026-04-20T07:36:11Z</time></trkpt><trkpt lat="45.664772944530846" lon="10.138470738166685"><ele>454.0</ele><time>2026-04-20T07:36:12Z</time></trkpt><trkpt lat="45.6648941576496" lon="10.138696181223748"><ele>454.0</ele><time>2026-04-20T07:36:13Z</time></trkpt><trkpt lat="45.665044785808064" lon="10.138926377446257"><ele>454.0</ele><time>2026-04-20T07:36:14Z</time></trkpt><trkpt lat="45.66519810869381" lon="10.139146962111985"><ele>452.0</ele><time>2026-04-20T07:36:15Z</time></trkpt><trkpt lat="45.66535393774172" lon="10.139374962094324"><ele>450.0</ele><time>2026-04-20T07:36:16Z</time></trkpt><trkpt lat="45.66550364635488" lon="10.139585959650178"><ele>448.0</ele><time>2026-04-20T07:36:17Z</time></trkpt><trkpt lat="45.66565324533578" lon="10.139767166823791"><ele>441.6666666666667</ele><time>2026-04-20T07:36:18Z</time></trkpt><trkpt lat="45.66580734062032" lon="10.139933665768469"><ele>435.33333333333337</ele><time>2026-04-20T07:36:19Z</time></trkpt><trkpt lat="45.66595981842745" lon="10.140100503212055"><ele>429.0</ele><time>2026-04-20T07:36:20Z</time></trkpt><trkpt lat="45.66609940366024" lon="10.14025553958361"><ele>428.33333333333337</ele><time>2026-04-20T07:36:21Z</time></trkpt><trkpt lat="45.666234426199956" lon="10.140397978480463"><ele>427.6666666666667</ele><time>2026-04-20T07:36:22Z</time></trkpt><trkpt lat="45.66635416645599" lon="10.140541132314183"><ele>427.0</ele><time>2026-04-20T07:36:23Z</time></trkpt><trkpt lat="45.666480221530705" lon="10.140718808936445"><ele>427.0</ele><time>2026-04-20T07:36:24Z</time></trkpt><trkpt lat="45.66661731288629" lon="10.140900183878024"><ele>427.0</ele><time>2026-04-20T07:36:25Z</time></trkpt><trkpt lat="45.66673480031108" lon="10.141120236212553"><ele>427.0</ele><time>2026-04-20T07:36:26Z</time></trkpt><trkpt lat="45.66683649742054" lon="10.141311493440975"><ele>427.0</ele><time>2026-04-20T07:36:27Z</time></trkpt><trkpt lat="45.66693576562607" lon="10.14149818307396"><ele>427.0</ele><time>2026-04-20T07:36:28Z</time></trkpt><trkpt lat="45.66703340704897" lon="10.14168240216714"><ele>427.0</ele><time>2026-04-20T07:36:29Z</time></trkpt><trkpt lat="45.667142795288214" lon="10.14189462806985"><ele>427.6666666666667</ele><time>2026-04-20T07:36:30Z</time></trkpt><trkpt lat="45.66722781567173" lon="10.142111774749779"><ele>428.33333333333337</ele><time>2026-04-20T07:36:31Z</time></trkpt><trkpt lat="45.66729621758004" lon="10.142340143943692"><ele>429.0</ele><time>2026-04-20T07:36:32Z</time></trkpt><trkpt lat="45.66736487607406" lon="10.142555628853286"><ele>427.33333333333337</ele><time>2026-04-20T07:36:33Z</time></trkpt><trkpt lat="45.66745547006947" lon="10.142763726509443"><ele>425.6666666666667</ele><time>2026-04-20T07:36:34Z</time></trkpt><trkpt lat="45.66758102372246" lon="10.142969273458222"><ele>424.0</ele><time>2026-04-20T07:36:35Z</time></trkpt><trkpt lat="45.667719660637104" lon="10.143176957421227"><ele>424.33333333333337</ele><time>2026-04-20T07:36:36Z</time></trkpt><trkpt lat="45.66788483637082" lon="10.143363379533167"><ele>424.66666666666663</ele><time>2026-04-20T07:36:37Z</time></trkpt><trkpt lat="45.66800630079524" lon="10.143572588556637"><ele>425.0</ele><time>2026-04-20T07:36:38Z</time></trkpt><trkpt lat="45.66811768589218" lon="10.143754977687145"><ele>425.0</ele><time>2026-04-20T07:36:39Z</time></trkpt><trkpt lat="45.66823652165591" lon="10.143916890595143"><ele>425.0</ele><time>2026-04-20T07:36:40Z</time></trkpt><trkpt lat="45.668330070809084" lon="10.144057861712971"><ele>425.0</ele><time>2026-04-20T07:36:41Z</time></trkpt><trkpt lat="45.668409831898614" lon="10.144202960018212"><ele>425.0</ele><time>2026-04-20T07:36:42Z</time></trkpt><trkpt lat="45.6684916754448" lon="10.144347295319978"><ele>422.0</ele><time>2026-04-20T07:36:43Z</time></trkpt><trkpt lat="45.66854557945113" lon="10.144529718477273"><ele>419.0</ele><time>2026-04-20T07:36:44Z</time></trkpt><trkpt lat="45.66857207384593" lon="10.144759762448452"><ele>416.0</ele><time>2026-04-20T07:36:45Z</time></trkpt><trkpt lat="45.66857399743907" lon="10.145007442894586"><ele>416.0</ele><time>2026-04-20T07:36:46Z</time></trkpt><trkpt lat="45.66856419823374" lon="10.14526337598412"><ele>416.0</ele><time>2026-04-20T07:36:47Z</time></trkpt><trkpt lat="45.66854593764189" lon="10.145466635469482"><ele>416.0</ele><time>2026-04-20T07:36:48Z</time></trkpt><trkpt lat="45.66855140283549" lon="10.145666847163207"><ele>415.5</ele><time>2026-04-20T07:36:49Z</time></trkpt><trkpt lat="45.668581501673174" lon="10.145857978085067"><ele>415.0</ele><time>2026-04-20T07:36:50Z</time></trkpt><trkpt lat="45.668661462741916" lon="10.146040746558645"><ele>414.5</ele><time>2026-04-20T07:36:51Z</time></trkpt><trkpt lat="45.668754764215166" lon="10.146199636480363"><ele>414.0</ele><time>2026-04-20T07:36:52Z</time></trkpt><trkpt lat="45.66887554974679" lon="10.146380058239007"><ele>410.0</ele><time>2026-04-20T07:36:53Z</time></trkpt><trkpt lat="45.669003610086044" lon="10.146571231320836"><ele>406.0</ele><time>2026-04-20T07:36:54Z</time></trkpt><trkpt lat="45.66909193247424" lon="10.146772682629367"><ele>402.0</ele><time>2026-04-20T07:36:55Z</time></trkpt><trkpt lat="45.669135090258614" lon="10.146995539051677"><ele>402.0</ele><time>2026-04-20T07:36:56Z</time></trkpt><trkpt lat="45.66919078822252" lon="10.14722544876165"><ele>402.0</ele><time>2026-04-20T07:36:57Z</time></trkpt><trkpt lat="45.66922547141132" lon="10.147442738849264"><ele>402.0</ele><time>2026-04-20T07:36:58Z</time></trkpt><trkpt lat="45.66922984800991" lon="10.147663621012326"><ele>400.0</ele><time>2026-04-20T07:36:59Z</time></trkpt><trkpt lat="45.66923883911509" lon="10.147857434361194"><ele>398.0</ele><time>2026-04-20T07:37:00Z</time></trkpt><trkpt lat="45.66924524387817" lon="10.148028302666043"><ele>396.0</ele><time>2026-04-20T07:37:01Z</time></trkpt><trkpt lat="45.66925106945766" lon="10.148188042959815"><ele>394.0</ele><time>2026-04-20T07:37:02Z</time></trkpt><trkpt lat="45.669234022488695" lon="10.148358467701641"><ele>393.0</ele><time>2026-04-20T07:37:03Z</time></trkpt><trkpt lat="45.66917519311694" lon="10.148535075527247"><ele>392.0</ele><time>2026-04-20T07:37:04Z</time></trkpt><trkpt lat="45.669046230181785" lon="10.148629074514673"><ele>391.0</ele><time>2026-04-20T07:37:05Z</time></trkpt><trkpt lat="45.668945674484775" lon="10.148747275962831"><ele>390.0</ele><time>2026-04-20T07:37:06Z</time></trkpt><trkpt lat="45.668823031425624" lon="10.148881596026058"><ele>390.0</ele><time>2026-04-20T07:37:07Z</time></trkpt><trkpt lat="45.66868954629994" lon="10.149028421254872"><ele>390.0</ele><time>2026-04-20T07:37:08Z</time></trkpt><trkpt lat="45.6685560667419" lon="10.149175240337714"><ele>390.0</ele><time>2026-04-20T07:37:09Z</time></trkpt><trkpt lat="45.66841687383874" lon="10.149331032164541"><ele>388.66666666666663</ele><time>2026-04-20T07:37:10Z</time></trkpt><trkpt lat="45.66828204566807" lon="10.14946941187088"><ele>387.3333333333333</ele><time>2026-04-20T07:37:11Z</time></trkpt><trkpt lat="45.668169656994884" lon="10.149616535867196"><ele>386.0</ele><time>2026-04-20T07:37:12Z</time></trkpt><trkpt lat="45.66805717401836" lon="10.14979064696206"><ele>384.66666666666663</ele><time>2026-04-20T07:37:13Z</time></trkpt><trkpt lat="45.66795531834544" lon="10.150007857169273"><ele>383.3333333333333</ele><time>2026-04-20T07:37:14Z</time></trkpt><trkpt lat="45.66784157683011" lon="10.150243769937878"><ele>382.0</ele><time>2026-04-20T07:37:15Z</time></trkpt><trkpt lat="45.66776099491336" lon="10.1504321647293"><ele>382.0</ele><time>2026-04-20T07:37:16Z</time></trkpt><trkpt lat="45.66768940170572" lon="10.15064379378923"><ele>382.0</ele><time>2026-04-20T07:37:17Z</time></trkpt><trkpt lat="45.66762926636556" lon="10.150902763631226"><ele>382.0</ele><time>2026-04-20T07:37:18Z</time></trkpt><trkpt lat="45.667598622935586" lon="10.151184259997619"><ele>382.0</ele><time>2026-04-20T07:37:19Z</time></trkpt><trkpt lat="45.66757844519139" lon="10.151466976780025"><ele>382.0</ele><time>2026-04-20T07:37:20Z</time></trkpt><trkpt lat="45.66755525580546" lon="10.151754566176013"><ele>382.0</ele><time>2026-04-20T07:37:21Z</time></trkpt><trkpt lat="45.66753279938593" lon="10.152035957324987"><ele>378.3333333333333</ele><time>2026-04-20T07:37:22Z</time></trkpt><trkpt lat="45.667514116792084" lon="10.152273152507966"><ele>374.6666666666667</ele><time>2026-04-20T07:37:23Z</time></trkpt><trkpt lat="45.66750912092494" lon="10.152503914751673"><ele>371.0</ele><time>2026-04-20T07:37:24Z</time></trkpt><trkpt lat="45.66749149261327" lon="10.152699208670303"><ele>370.5</ele><time>2026-04-20T07:37:25Z</time></trkpt><trkpt lat="45.667481294006194" lon="10.152898947917537"><ele>370.0</ele><time>2026-04-20T07:37:26Z</time></trkpt><trkpt lat="45.66747676826487" lon="10.153096054513412"><ele>369.5</ele><time>2026-04-20T07:37:27Z</time></trkpt><trkpt lat="45.66752003941937" lon="10.153312096846184"><ele>369.0</ele><time>2026-04-20T07:37:28Z</time></trkpt><trkpt lat="45.66758501076993" lon="10.153542499580928"><ele>369.0</ele><time>2026-04-20T07:37:29Z</time></trkpt><trkpt lat="45.667651166430105" lon="10.153777919436797"><ele>369.0</ele><time>2026-04-20T07:37:30Z</time></trkpt><trkpt lat="45.667717687738055" lon="10.154023836339702"><ele>369.0</ele><time>2026-04-20T07:37:31Z</time></trkpt><trkpt lat="45.66779278023276" lon="10.154295960615057"><ele>369.0</ele><time>2026-04-20T07:37:32Z</time></trkpt><trkpt lat="45.66786590263564" lon="10.154561852644678"><ele>369.0</ele><time>2026-04-20T07:37:33Z</time></trkpt><trkpt lat="45.66793500768398" lon="10.154827980909479"><ele>369.0</ele><time>2026-04-20T07:37:34Z</time></trkpt><trkpt lat="45.66800882865097" lon="10.15507663488669"><ele>366.6666666666667</ele><time>2026-04-20T07:37:35Z</time></trkpt><trkpt lat="45.66808488889561" lon="10.155343378307323"><ele>364.33333333333337</ele><time>2026-04-20T07:37:36Z</time></trkpt><trkpt lat="45.66816440753437" lon="10.155598370844404"><ele>362.0</ele><time>2026-04-20T07:37:37Z</time></trkpt><trkpt lat="45.668225107148814" lon="10.155873085413628"><ele>361.0</ele><time>2026-04-20T07:37:38Z</time></trkpt><trkpt lat="45.66829808033148" lon="10.15613931822335"><ele>360.0</ele><time>2026-04-20T07:37:39Z</time></trkpt><trkpt lat="45.66837130538091" lon="10.156406416999644"><ele>359.0</ele><time>2026-04-20T07:37:40Z</time></trkpt><trkpt lat="45.66845767206824" lon="10.156667902774315"><ele>357.33333333333337</ele><time>2026-04-20T07:37:41Z</time></trkpt><trkpt lat="45.668492049084186" lon="10.156922374269614"><ele>355.6666666666667</ele><time>2026-04-20T07:37:42Z</time></trkpt><trkpt lat="45.66855492507909" lon="10.157175497130282"><ele>354.0</ele><time>2026-04-20T07:37:43Z</time></trkpt><trkpt lat="45.66861237223136" lon="10.157427653706279"><ele>355.0</ele><time>2026-04-20T07:37:44Z</time></trkpt><trkpt lat="45.6686679574874" lon="10.157698536122782"><ele>356.0</ele><time>2026-04-20T07:37:45Z</time></trkpt><trkpt lat="45.66872688433682" lon="10.1579600744809"><ele>357.0</ele><time>2026-04-20T07:37:46Z</time></trkpt><trkpt lat="45.668791413392896" lon="10.158220745256761"><ele>357.0</ele><time>2026-04-20T07:37:47Z</time></trkpt><trkpt lat="45.66884140136724" lon="10.158460727163638"><ele>357.0</ele><time>2026-04-20T07:37:48Z</time></trkpt><trkpt lat="45.668896860148436" lon="10.158709573135058"><ele>357.0</ele><time>2026-04-20T07:37:49Z</time></trkpt><trkpt lat="45.66894719489943" lon="10.158961978120535"><ele>353.6666666666667</ele><time>2026-04-20T07:37:50Z</time></trkpt><trkpt lat="45.66899950106513" lon="10.159214193789792"><ele>350.33333333333337</ele><time>2026-04-20T07:37:51Z</time></trkpt><trkpt lat="45.66906117406134" lon="10.159472514618457"><ele>347.0</ele><time>2026-04-20T07:37:52Z</time></trkpt><trkpt lat="45.66911772439647" lon="10.15973910177723"><ele>346.33333333333337</ele><time>2026-04-20T07:37:53Z</time></trkpt><trkpt lat="45.669183760382936" lon="10.160007249259634"><ele>345.6666666666667</ele><time>2026-04-20T07:37:54Z</time></trkpt><trkpt lat="45.66924284020299" lon="10.160262753835145"><ele>345.0</ele><time>2026-04-20T07:37:55Z</time></trkpt><trkpt lat="45.669301581569165" lon="10.160517192983598"><ele>345.0</ele><time>2026-04-20T07:37:56Z</time></trkpt><trkpt lat="45.66936741835765" lon="10.160776566605435"><ele>345.0</ele><time>2026-04-20T07:37:57Z</time></trkpt><trkpt lat="45.669385202450734" lon="10.161034114204096"><ele>345.0</ele><time>2026-04-20T07:37:58Z</time></trkpt><trkpt lat="45.669439572814774" lon="10.161298106628921"><ele>346.6666666666667</ele><time>2026-04-20T07:37:59Z</time></trkpt><trkpt lat="45.66949411771245" lon="10.16157345723055"><ele>348.33333333333337</ele><time>2026-04-20T07:38:00Z</time></trkpt><trkpt lat="45.66955715003184" lon="10.161852933129843"><ele>350.0</ele><time>2026-04-20T07:38:01Z</time></trkpt><trkpt lat="45.66961587034382" lon="10.162118329629246"><ele>348.0</ele><time>2026-04-20T07:38:02Z</time></trkpt><trkpt lat="45.669673376914524" lon="10.162390484140342"><ele>346.0</ele><time>2026-04-20T07:38:03Z</time></trkpt><trkpt lat="45.669731171494234" lon="10.162675390389621"><ele>344.0</ele><time>2026-04-20T07:38:04Z</time></trkpt><trkpt lat="45.669783198976454" lon="10.16296238581117"><ele>343.6666666666667</ele><time>2026-04-20T07:38:05Z</time></trkpt><trkpt lat="45.669825615100436" lon="10.163253151981253"><ele>343.3333333333333</ele><time>2026-04-20T07:38:06Z</time></trkpt><trkpt lat="45.66987263568517" lon="10.163537539509845"><ele>343.0</ele><time>2026-04-20T07:38:07Z</time></trkpt><trkpt lat="45.66991450802488" lon="10.163816198128995"><ele>342.0</ele><time>2026-04-20T07:38:08Z</time></trkpt><trkpt lat="45.66995683212777" lon="10.164091656785544"><ele>341.0</ele><time>2026-04-20T07:38:09Z</time></trkpt><trkpt lat="45.669999424098535" lon="10.164361174152875"><ele>340.0</ele><time>2026-04-20T07:38:10Z</time></trkpt><trkpt lat="45.67005302239582" lon="10.164625339157737"><ele>338.66666666666663</ele><time>2026-04-20T07:38:11Z</time></trkpt><trkpt lat="45.67010247205997" lon="10.164895020594772"><ele>337.3333333333333</ele><time>2026-04-20T07:38:12Z</time></trkpt><trkpt lat="45.67014596332982" lon="10.165170935064372"><ele>336.0</ele><time>2026-04-20T07:38:13Z</time></trkpt><trkpt lat="45.67018215559985" lon="10.165441691320513"><ele>334.6666666666667</ele><time>2026-04-20T07:38:14Z</time></trkpt><trkpt lat="45.67022321776777" lon="10.165718237143802"><ele>333.33333333333337</ele><time>2026-04-20T07:38:15Z</time></trkpt><trkpt lat="45.67027030400681" lon="10.165989573790116"><ele>332.0</ele><time>2026-04-20T07:38:16Z</time></trkpt><trkpt lat="45.67028122351258" lon="10.16623515667405"><ele>332.6666666666667</ele><time>2026-04-20T07:38:17Z</time></trkpt><trkpt lat="45.67031998895315" lon="10.166492531342792"><ele>333.3333333333333</ele><time>2026-04-20T07:38:18Z</time></trkpt><trkpt lat="45.67035923176827" lon="10.166737511528433"><ele>334.0</ele><time>2026-04-20T07:38:19Z</time></trkpt><trkpt lat="45.67040461819978" lon="10.16699757250954"><ele>334.0</ele><time>2026-04-20T07:38:20Z</time></trkpt><trkpt lat="45.67045091698692" lon="10.167256031603063"><ele>334.0</ele><time>2026-04-20T07:38:21Z</time></trkpt><trkpt lat="45.6704830083692" lon="10.167488858233218"><ele>334.0</ele><time>2026-04-20T07:38:22Z</time></trkpt><trkpt lat="45.670522382589205" lon="10.167724760761555"><ele>333.0</ele><time>2026-04-20T07:38:23Z</time></trkpt><trkpt lat="45.67056103432859" lon="10.167963845522829"><ele>332.0</ele><time>2026-04-20T07:38:24Z</time></trkpt><trkpt lat="45.67059319292121" lon="10.168214675541938"><ele>331.0</ele><time>2026-04-20T07:38:25Z</time></trkpt><trkpt lat="45.670641899593925" lon="10.168461852422599"><ele>330.66666666666663</ele><time>2026-04-20T07:38:26Z</time></trkpt><trkpt lat="45.67067728725193" lon="10.16869715410324"><ele>330.3333333333333</ele><time>2026-04-20T07:38:27Z</time></trkpt><trkpt lat="45.67071762363768" lon="10.168954581539506"><ele>330.0</ele><time>2026-04-20T07:38:28Z</time></trkpt><trkpt lat="45.67076213498427" lon="10.169234151140532"><ele>329.6666666666667</ele><time>2026-04-20T07:38:29Z</time></trkpt><trkpt lat="45.670804926523694" lon="10.169496701418714"><ele>329.33333333333337</ele><time>2026-04-20T07:38:30Z</time></trkpt><trkpt lat="45.67085549428278" lon="10.169768888629722"><ele>329.0</ele><time>2026-04-20T07:38:31Z</time></trkpt><trkpt lat="45.670896562924256" lon="10.170024568470934"><ele>328.33333333333337</ele><time>2026-04-20T07:38:32Z</time></trkpt><trkpt lat="45.67092391597979" lon="10.170238614460189"><ele>327.6666666666667</ele><time>2026-04-20T07:38:33Z</time></trkpt><trkpt lat="45.670960923564934" lon="10.170437993670564"><ele>327.0</ele><time>2026-04-20T07:38:34Z</time></trkpt><trkpt lat="45.67099769525177" lon="10.1706578070952"><ele>326.3333333333333</ele><time>2026-04-20T07:38:35Z</time></trkpt><trkpt lat="45.6710327236778" lon="10.170885877697682"><ele>325.66666666666663</ele><time>2026-04-20T07:38:36Z</time></trkpt><trkpt lat="45.671073588858064" lon="10.17114949447747"><ele>325.0</ele><time>2026-04-20T07:38:37Z</time></trkpt><trkpt lat="45.67112827865501" lon="10.171421352407146"><ele>325.66666666666663</ele><time>2026-04-20T07:38:38Z</time></trkpt><trkpt lat="45.671171755417504" lon="10.171670630087963"><ele>326.3333333333333</ele><time>2026-04-20T07:38:39Z</time></trkpt><trkpt lat="45.6712118630568" lon="10.171904375145036"><ele>327.0</ele><time>2026-04-20T07:38:40Z</time></trkpt><trkpt lat="45.67124721487037" lon="10.172128750349474"><ele>326.75</ele><time>2026-04-20T07:38:41Z</time></trkpt><trkpt lat="45.67128751167972" lon="10.172365667179054"><ele>326.5</ele><time>2026-04-20T07:38:42Z</time></trkpt><trkpt lat="45.67131128127672" lon="10.172559481466662"><ele>326.25</ele><time>2026-04-20T07:38:43Z</time></trkpt><trkpt lat="45.671336809780534" lon="10.17275036642994"><ele>326.0</ele><time>2026-04-20T07:38:44Z</time></trkpt><trkpt lat="45.67135959995616" lon="10.172975311515081"><ele>327.0</ele><time>2026-04-20T07:38:45Z</time></trkpt><trkpt lat="45.671363933752275" lon="10.173207553508528"><ele>328.0</ele><time>2026-04-20T07:38:46Z</time></trkpt><trkpt lat="45.67136178440203" lon="10.173467207313232"><ele>329.0</ele><time>2026-04-20T07:38:47Z</time></trkpt><trkpt lat="45.671318598031824" lon="10.173705675006863"><ele>329.0</ele><time>2026-04-20T07:38:48Z</time></trkpt><trkpt lat="45.67125840531961" lon="10.173955770748945"><ele>329.0</ele><time>2026-04-20T07:38:49Z</time></trkpt><trkpt lat="45.671188425196455" lon="10.174179516529655"><ele>329.0</ele><time>2026-04-20T07:38:50Z</time></trkpt><trkpt lat="45.67107576468154" lon="10.174395202584877"><ele>326.0</ele><time>2026-04-20T07:38:51Z</time></trkpt><trkpt lat="45.67100641909193" lon="10.174601053139094"><ele>323.0</ele><time>2026-04-20T07:38:52Z</time></trkpt><trkpt lat="45.67094905048181" lon="10.174881803275"><ele>320.0</ele><time>2026-04-20T07:38:53Z</time></trkpt><trkpt lat="45.67093721683511" lon="10.175117091133078"><ele>319.33333333333337</ele><time>2026-04-20T07:38:54Z</time></trkpt><trkpt lat="45.67095044524474" lon="10.175404203471812"><ele>318.6666666666667</ele><time>2026-04-20T07:38:55Z</time></trkpt><trkpt lat="45.670972421918734" lon="10.175679525702744"><ele>318.0</ele><time>2026-04-20T07:38:56Z</time></trkpt><trkpt lat="45.670987393217544" lon="10.17595995682565"><ele>316.6666666666667</ele><time>2026-04-20T07:38:57Z</time></trkpt><trkpt lat="45.6710071760914" lon="10.176197432084527"><ele>315.33333333333337</ele><time>2026-04-20T07:38:58Z</time></trkpt><trkpt lat="45.6710190440566" lon="10.176433901050004"><ele>314.0</ele><time>2026-04-20T07:38:59Z</time></trkpt><trkpt lat="45.67100682593223" lon="10.176681484426101"><ele>313.6666666666667</ele><time>2026-04-20T07:39:00Z</time></trkpt><trkpt lat="45.67097421539857" lon="10.176912512616463"><ele>313.3333333333333</ele><time>2026-04-20T07:39:01Z</time></trkpt><trkpt lat="45.6709115071574" lon="10.177156184846439"><ele>313.0</ele><time>2026-04-20T07:39:02Z</time></trkpt><trkpt lat="45.670818867177246" lon="10.177383865433317"><ele>312.0</ele><time>2026-04-20T07:39:03Z</time></trkpt><trkpt lat="45.670739654418675" lon="10.177605622531338"><ele>311.0</ele><time>2026-04-20T07:39:04Z</time></trkpt><trkpt lat="45.67067105423179" lon="10.177837790616739"><ele>310.0</ele><time>2026-04-20T07:39:05Z</time></trkpt><trkpt lat="45.67062159911135" lon="10.178085926756566"><ele>311.5</ele><time>2026-04-20T07:39:06Z</time></trkpt><trkpt lat="45.67060239744768" lon="10.178344080808042"><ele>313.0</ele><time>2026-04-20T07:39:07Z</time></trkpt><trkpt lat="45.67057905344494" lon="10.17884829335283"><ele>313.0</ele><time>2026-04-20T07:39:09Z</time></trkpt><trkpt lat="45.670559174639095" lon="10.17910237696072"><ele>313.0</ele><time>2026-04-20T07:39:10Z</time></trkpt><trkpt lat="45.67054234893605" lon="10.179361289738372"><ele>313.0</ele><time>2026-04-20T07:39:11Z</time></trkpt><trkpt lat="45.670529662064794" lon="10.179624688697169"><ele>314.0</ele><time>2026-04-20T07:39:12Z</time></trkpt><trkpt lat="45.67051171097754" lon="10.179883257335224"><ele>315.0</ele><time>2026-04-20T07:39:13Z</time></trkpt><trkpt lat="45.670455289745384" lon="10.180138649109002"><ele>316.0</ele><time>2026-04-20T07:39:14Z</time></trkpt><trkpt lat="45.67043603586166" lon="10.180375048770674"><ele>316.0</ele><time>2026-04-20T07:39:15Z</time></trkpt><trkpt lat="45.67042677104881" lon="10.180607824509254"><ele>316.0</ele><time>2026-04-20T07:39:16Z</time></trkpt><trkpt lat="45.6704134253239" lon="10.18080815736155"><ele>316.0</ele><time>2026-04-20T07:39:17Z</time></trkpt><trkpt lat="45.67039244876021" lon="10.181051213424968"><ele>316.0</ele><time>2026-04-20T07:39:18Z</time></trkpt><trkpt lat="45.67036882438935" lon="10.181266723353147"><ele>316.0</ele><time>2026-04-20T07:39:19Z</time></trkpt><trkpt lat="45.670320667259766" lon="10.181501469584193"><ele>316.0</ele><time>2026-04-20T07:39:20Z</time></trkpt><trkpt lat="45.670250899848156" lon="10.181730270640738"><ele>312.66666666666663</ele><time>2026-04-20T07:39:21Z</time></trkpt><trkpt lat="45.67018313979452" lon="10.181963538373992"><ele>309.3333333333333</ele><time>2026-04-20T07:39:22Z</time></trkpt><trkpt lat="45.67011588245774" lon="10.182191319981857"><ele>306.0</ele><time>2026-04-20T07:39:23Z</time></trkpt><trkpt lat="45.67005417292641" lon="10.182383506323193"><ele>306.0</ele><time>2026-04-20T07:39:24Z</time></trkpt><trkpt lat="45.670001718600844" lon="10.182569706794531"><ele>306.0</ele><time>2026-04-20T07:39:25Z</time></trkpt><trkpt lat="45.6699633960751" lon="10.18274680592831"><ele>306.0</ele><time>2026-04-20T07:39:26Z</time></trkpt><trkpt lat="45.66992285279485" lon="10.18295400236589"><ele>306.0</ele><time>2026-04-20T07:39:27Z</time></trkpt><trkpt lat="45.669891627379954" lon="10.1831640850166"><ele>306.3333333333333</ele><time>2026-04-20T07:39:28Z</time></trkpt><trkpt lat="45.66988104353794" lon="10.183409465285322"><ele>306.66666666666663</ele><time>2026-04-20T07:39:29Z</time></trkpt><trkpt lat="45.669892342557056" lon="10.183680173308769"><ele>307.0</ele><time>2026-04-20T07:39:30Z</time></trkpt><trkpt lat="45.669884643946496" lon="10.183930443302877"><ele>305.25</ele><time>2026-04-20T07:39:31Z</time></trkpt><trkpt lat="45.66987953208351" lon="10.184141335819808"><ele>303.5</ele><time>2026-04-20T07:39:32Z</time></trkpt><trkpt lat="45.66987390008775" lon="10.184352094331244"><ele>301.75</ele><time>2026-04-20T07:39:33Z</time></trkpt><trkpt lat="45.66989703395686" lon="10.18453791577309"><ele>300.0</ele><time>2026-04-20T07:39:34Z</time></trkpt><trkpt lat="45.66992393292305" lon="10.184723431491847"><ele>298.75</ele><time>2026-04-20T07:39:35Z</time></trkpt><trkpt lat="45.669969912827355" lon="10.18490688999948"><ele>297.5</ele><time>2026-04-20T07:39:36Z</time></trkpt><trkpt lat="45.67002027630472" lon="10.185080271490989"><ele>296.25</ele><time>2026-04-20T07:39:37Z</time></trkpt><trkpt lat="45.67007568560744" lon="10.185238040818911"><ele>295.0</ele><time>2026-04-20T07:39:38Z</time></trkpt><trkpt lat="45.67013809993568" lon="10.185377211812837"><ele>295.0</ele><time>2026-04-20T07:39:39Z</time></trkpt><trkpt lat="45.67020872864063" lon="10.185521356841551"><ele>295.0</ele><time>2026-04-20T07:39:40Z</time></trkpt><trkpt lat="45.67027937825032" lon="10.185636696250242"><ele>295.0</ele><time>2026-04-20T07:39:41Z</time></trkpt><trkpt lat="45.67034132333282" lon="10.185730910899855"><ele>295.0</ele><time>2026-04-20T07:39:42Z</time></trkpt><trkpt lat="45.67039720180532" lon="10.18581420774045"><ele>295.0</ele><time>2026-04-20T07:39:43Z</time></trkpt><trkpt lat="45.670460452429346" lon="10.185914543313324"><ele>295.0</ele><time>2026-04-20T07:39:44Z</time></trkpt><trkpt lat="45.67052538065641" lon="10.186024344730273"><ele>295.0</ele><time>2026-04-20T07:39:45Z</time></trkpt><trkpt lat="45.67059818731933" lon="10.186151587879658"><ele>295.0</ele><time>2026-04-20T07:39:46Z</time></trkpt><trkpt lat="45.67069538358168" lon="10.186274080476744"><ele>295.0</ele><time>2026-04-20T07:39:47Z</time></trkpt><trkpt lat="45.670774838115314" lon="10.186403730649545"><ele>294.6</ele><time>2026-04-20T07:39:48Z</time></trkpt><trkpt lat="45.67084175419269" lon="10.186515416297878"><ele>294.2</ele><time>2026-04-20T07:39:49Z</time></trkpt><trkpt lat="45.67088130117965" lon="10.186635283501444"><ele>293.8</ele><time>2026-04-20T07:39:50Z</time></trkpt><trkpt lat="45.67095090341152" lon="10.186744066174143"><ele>293.4</ele><time>2026-04-20T07:39:51Z</time></trkpt><trkpt lat="45.6709908985502" lon="10.186842816434908"><ele>293.0</ele><time>2026-04-20T07:39:52Z</time></trkpt><trkpt lat="45.67103184999297" lon="10.186932405465196"><ele>293.0</ele><time>2026-04-20T07:39:53Z</time></trkpt><trkpt lat="45.671105896819526" lon="10.187084226718401"><ele>293.0</ele><time>2026-04-20T07:39:55Z</time></trkpt><trkpt lat="45.67116830198385" lon="10.187162063370366"><ele>293.0</ele><time>2026-04-20T07:39:57Z</time></trkpt><trkpt lat="45.671225682721314" lon="10.187240878801845"><ele>293.0</ele><time>2026-04-20T07:39:59Z</time></trkpt><trkpt lat="45.67128139635014" lon="10.18728719202033"><ele>293.0</ele><time>2026-04-20T07:40:02Z</time></trkpt><trkpt lat="45.67135890736164" lon="10.187369413398356"><ele>293.2</ele><time>2026-04-20T07:41:49Z</time></trkpt><trkpt lat="45.67144396838783" lon="10.18742720051269"><ele>293.4</ele><time>2026-04-20T07:41:53Z</time></trkpt><trkpt lat="45.671473767168855" lon="10.187555003939327"><ele>293.59999999999997</ele><time>2026-04-20T07:41:55Z</time></trkpt><trkpt lat="45.671605813167304" lon="10.187445538632339"><ele>293.8</ele><time>2026-04-20T07:41:56Z</time></trkpt><trkpt lat="45.67167701337372" lon="10.187391907990415"><ele>294.0</ele><time>2026-04-20T07:41:57Z</time></trkpt><trkpt lat="45.67174702651318" lon="10.187326126950504"><ele>294.0</ele><time>2026-04-20T07:41:58Z</time></trkpt><trkpt lat="45.6718210751457" lon="10.187240514174759"><ele>294.0</ele><time>2026-04-20T07:41:59Z</time></trkpt><trkpt lat="45.671913732386734" lon="10.187161919701854"><ele>294.0</ele><time>2026-04-20T07:42:00Z</time></trkpt><trkpt lat="45.672012878440114" lon="10.187084228306693"><ele>294.0</ele><time>2026-04-20T07:42:01Z</time></trkpt><trkpt lat="45.672115884101956" lon="10.186992315934729"><ele>294.0</ele><time>2026-04-20T07:42:02Z</time></trkpt><trkpt lat="45.67221964341823" lon="10.18690663299009"><ele>294.0</ele><time>2026-04-20T07:42:03Z</time></trkpt><trkpt lat="45.672334832916356" lon="10.186822536335569"><ele>294.0</ele><time>2026-04-20T07:42:04Z</time></trkpt><trkpt lat="45.672456308342205" lon="10.186742932853381"><ele>294.0</ele><time>2026-04-20T07:42:05Z</time></trkpt><trkpt lat="45.672594325978196" lon="10.186672094069573"><ele>294.0</ele><time>2026-04-20T07:42:06Z</time></trkpt><trkpt lat="45.67273320000745" lon="10.186600034325398"><ele>295.0</ele><time>2026-04-20T07:42:07Z</time></trkpt><trkpt lat="45.67289330468887" lon="10.186537072737531"><ele>296.0</ele><time>2026-04-20T07:42:08Z</time></trkpt><trkpt lat="45.67304735978761" lon="10.186478708068343"><ele>297.0</ele><time>2026-04-20T07:42:09Z</time></trkpt><trkpt lat="45.67319040652096" lon="10.186448415246405"><ele>297.3333333333333</ele><time>2026-04-20T07:42:10Z</time></trkpt><trkpt lat="45.67333975741727" lon="10.186415562562015"><ele>297.66666666666663</ele><time>2026-04-20T07:42:11Z</time></trkpt><trkpt lat="45.67348485440742" lon="10.18641911230295"><ele>298.0</ele><time>2026-04-20T07:42:12Z</time></trkpt><trkpt lat="45.67364240738544" lon="10.186421206061597"><ele>298.0</ele><time>2026-04-20T07:42:13Z</time></trkpt><trkpt lat="45.673792288734646" lon="10.186426199317673"><ele>298.0</ele><time>2026-04-20T07:42:14Z</time></trkpt><trkpt lat="45.673933499305996" lon="10.186440081067621"><ele>298.0</ele><time>2026-04-20T07:42:15Z</time></trkpt><trkpt lat="45.674078128089796" lon="10.186474585566936"><ele>298.0</ele><time>2026-04-20T07:42:16Z</time></trkpt><trkpt lat="45.67424089814686" lon="10.186517690459569"><ele>298.0</ele><time>2026-04-20T07:42:17Z</time></trkpt><trkpt lat="45.67437492513931" lon="10.18654936640552"><ele>298.0</ele><time>2026-04-20T07:42:18Z</time></trkpt><trkpt lat="45.674516965946125" lon="10.186584316897925"><ele>298.0</ele><time>2026-04-20T07:42:19Z</time></trkpt><trkpt lat="45.67464301043462" lon="10.18661335220189"><ele>298.0</ele><time>2026-04-20T07:42:20Z</time></trkpt><trkpt lat="45.674790273210185" lon="10.186601330954037"><ele>298.0</ele><time>2026-04-20T07:42:21Z</time></trkpt><trkpt lat="45.674942268409374" lon="10.1866174350497"><ele>298.0</ele><time>2026-04-20T07:42:22Z</time></trkpt><trkpt lat="45.675080870060725" lon="10.18665075166095"><ele>298.0</ele><time>2026-04-20T07:42:23Z</time></trkpt><trkpt lat="45.67524039464292" lon="10.186668622745795"><ele>298.4</ele><time>2026-04-20T07:42:24Z</time></trkpt><trkpt lat="45.675351856740804" lon="10.18668498304828"><ele>298.8</ele><time>2026-04-20T07:42:25Z</time></trkpt><trkpt lat="45.675450148608974" lon="10.186685323519407"><ele>299.2</ele><time>2026-04-20T07:42:26Z</time></trkpt><trkpt lat="45.67554475722382" lon="10.18670325354538"><ele>299.6</ele><time>2026-04-20T07:42:27Z</time></trkpt><trkpt lat="45.67566456448422" lon="10.186692218752532"><ele>300.0</ele><time>2026-04-20T07:42:28Z</time></trkpt><trkpt lat="45.67575207351991" lon="10.186707447123737"><ele>300.0</ele><time>2026-04-20T07:42:29Z</time></trkpt><trkpt lat="45.67584864164321" lon="10.186720133723068"><ele>300.0</ele><time>2026-04-20T07:42:30Z</time></trkpt><trkpt lat="45.675917359834244" lon="10.18671180024065"><ele>300.0</ele><time>2026-04-20T07:42:31Z</time></trkpt><trkpt lat="45.675981905377604" lon="10.186736163119322"><ele>300.0</ele><time>2026-04-20T07:42:33Z</time></trkpt><trkpt lat="45.67608648672422" lon="10.186712773438332"><ele>300.0</ele><time>2026-04-20T07:42:39Z</time></trkpt><trkpt lat="45.67616965014676" lon="10.186766701992708"><ele>300.0</ele><time>2026-04-20T07:42:48Z</time></trkpt><trkpt lat="45.676283161062265" lon="10.186786487775601"><ele>300.75</ele><time>2026-04-20T07:42:50Z</time></trkpt><trkpt lat="45.67639565722481" lon="10.186808249627221"><ele>301.5</ele><time>2026-04-20T07:42:52Z</time></trkpt><trkpt lat="45.67651242510182" lon="10.186852073699846"><ele>302.25</ele><time>2026-04-20T07:42:54Z</time></trkpt><trkpt lat="45.67661199960206" lon="10.186861205531455"><ele>303.0</ele><time>2026-04-20T07:42:55Z</time></trkpt><trkpt lat="45.67673748735973" lon="10.186848390605842"><ele>303.0</ele><time>2026-04-20T07:42:56Z</time></trkpt><trkpt lat="45.67688855217668" lon="10.186853425391707"><ele>303.0</ele><time>2026-04-20T07:42:57Z</time></trkpt><trkpt lat="45.67703152506986" lon="10.186879129531219"><ele>303.0</ele><time>2026-04-20T07:42:58Z</time></trkpt><trkpt lat="45.67713303446545" lon="10.18689331341382"><ele>303.0</ele><time>2026-04-20T07:42:59Z</time></trkpt><trkpt lat="45.67725458127808" lon="10.186897465944973"><ele>303.0</ele><time>2026-04-20T07:43:00Z</time></trkpt><trkpt lat="45.677370962223065" lon="10.186912903320515"><ele>303.0</ele><time>2026-04-20T07:43:01Z</time></trkpt><trkpt lat="45.67751028463773" lon="10.186951045492442"><ele>303.0</ele><time>2026-04-20T07:43:02Z</time></trkpt><trkpt lat="45.67765525790268" lon="10.186990784610073"><ele>303.0</ele><time>2026-04-20T07:43:03Z</time></trkpt><trkpt lat="45.67778910848991" lon="10.187028409884476"><ele>303.3333333333333</ele><time>2026-04-20T07:43:04Z</time></trkpt><trkpt lat="45.67796718748387" lon="10.18703303915995"><ele>303.66666666666663</ele><time>2026-04-20T07:43:05Z</time></trkpt><trkpt lat="45.67815018836666" lon="10.18701677034344"><ele>304.0</ele><time>2026-04-20T07:43:06Z</time></trkpt><trkpt lat="45.6782893559758" lon="10.187023508157084"><ele>304.0</ele><time>2026-04-20T07:43:07Z</time></trkpt><trkpt lat="45.67844446471807" lon="10.18704250189248"><ele>304.0</ele><time>2026-04-20T07:43:08Z</time></trkpt><trkpt lat="45.678618003681386" lon="10.187047779447031"><ele>304.0</ele><time>2026-04-20T07:43:09Z</time></trkpt><trkpt lat="45.6787794614786" lon="10.187056834217618"><ele>304.0</ele><time>2026-04-20T07:43:10Z</time></trkpt><trkpt lat="45.678946066852255" lon="10.18705343809586"><ele>304.0</ele><time>2026-04-20T07:43:11Z</time></trkpt><trkpt lat="45.67911087106602" lon="10.18706846911094"><ele>304.0</ele><time>2026-04-20T07:43:12Z</time></trkpt><trkpt lat="45.67927915108488" lon="10.18708440960394"><ele>304.66666666666663</ele><time>2026-04-20T07:43:13Z</time></trkpt><trkpt lat="45.6794503841435" lon="10.187102540552626"><ele>305.3333333333333</ele><time>2026-04-20T07:43:14Z</time></trkpt><trkpt lat="45.679642575041534" lon="10.187112556544626"><ele>306.0</ele><time>2026-04-20T07:43:15Z</time></trkpt><trkpt lat="45.6798012677569" lon="10.187161112341789"><ele>306.0</ele><time>2026-04-20T07:43:16Z</time></trkpt><trkpt lat="45.679980315487406" lon="10.187149539059126"><ele>306.0</ele><time>2026-04-20T07:43:17Z</time></trkpt><trkpt lat="45.68015990931173" lon="10.187177576961904"><ele>306.0</ele><time>2026-04-20T07:43:18Z</time></trkpt><trkpt lat="45.68035761532744" lon="10.187190258214052"><ele>306.3333333333333</ele><time>2026-04-20T07:43:19Z</time></trkpt><trkpt lat="45.68051728751195" lon="10.187219887641097"><ele>306.66666666666663</ele><time>2026-04-20T07:43:20Z</time></trkpt><trkpt lat="45.680693072939235" lon="10.187252663184655"><ele>307.0</ele><time>2026-04-20T07:43:21Z</time></trkpt><trkpt lat="45.68088430302499" lon="10.187269609594068"><ele>307.0</ele><time>2026-04-20T07:43:22Z</time></trkpt><trkpt lat="45.68107070997224" lon="10.187270681809832"><ele>307.0</ele><time>2026-04-20T07:43:23Z</time></trkpt><trkpt lat="45.68125864969018" lon="10.187274979933251"><ele>307.0</ele><time>2026-04-20T07:43:24Z</time></trkpt><trkpt lat="45.681436358457375" lon="10.18729487431777"><ele>307.66666666666663</ele><time>2026-04-20T07:43:25Z</time></trkpt><trkpt lat="45.68161151282441" lon="10.187382211507158"><ele>308.3333333333333</ele><time>2026-04-20T07:43:26Z</time></trkpt><trkpt lat="45.6817941333502" lon="10.187403555935237"><ele>309.0</ele><time>2026-04-20T07:43:27Z</time></trkpt><trkpt lat="45.681970229880626" lon="10.187425701620825"><ele>310.3333333333333</ele><time>2026-04-20T07:43:28Z</time></trkpt><trkpt lat="45.68213729123076" lon="10.187441167059829"><ele>311.66666666666663</ele><time>2026-04-20T07:43:29Z</time></trkpt><trkpt lat="45.68228606474377" lon="10.187454939557036"><ele>313.0</ele><time>2026-04-20T07:43:30Z</time></trkpt><trkpt lat="45.682450257499795" lon="10.187471044014494"><ele>313.0</ele><time>2026-04-20T07:43:31Z</time></trkpt><trkpt lat="45.68263028980357" lon="10.187487841976491"><ele>313.0</ele><time>2026-04-20T07:43:32Z</time></trkpt><trkpt lat="45.68279538120466" lon="10.18750324588642"><ele>313.0</ele><time>2026-04-20T07:43:33Z</time></trkpt><trkpt lat="45.68297785715135" lon="10.187519429421288"><ele>312.3333333333333</ele><time>2026-04-20T07:43:34Z</time></trkpt><trkpt lat="45.68317291205394" lon="10.187536800861034"><ele>311.6666666666667</ele><time>2026-04-20T07:43:35Z</time></trkpt><trkpt lat="45.68335794333705" lon="10.18755306289978"><ele>311.0</ele><time>2026-04-20T07:43:36Z</time></trkpt><trkpt lat="45.683524542867765" lon="10.187569711371369"><ele>311.33333333333337</ele><time>2026-04-20T07:43:37Z</time></trkpt><trkpt lat="45.683691490282115" lon="10.187584754136363"><ele>311.6666666666667</ele><time>2026-04-20T07:43:38Z</time></trkpt><trkpt lat="45.68385601363548" lon="10.187580659513479"><ele>312.0</ele><time>2026-04-20T07:43:39Z</time></trkpt><trkpt lat="45.68401363247126" lon="10.187550674552435"><ele>312.0</ele><time>2026-04-20T07:43:40Z</time></trkpt><trkpt lat="45.68414435520902" lon="10.187508649852898"><ele>312.0</ele><time>2026-04-20T07:43:41Z</time></trkpt><trkpt lat="45.68424179325807" lon="10.187421248319854"><ele>312.0</ele><time>2026-04-20T07:43:42Z</time></trkpt><trkpt lat="45.68439611024289" lon="10.187340184894106"><ele>312.0</ele><time>2026-04-20T07:43:43Z</time></trkpt><trkpt lat="45.68453549249202" lon="10.187237674150415"><ele>312.6666666666667</ele><time>2026-04-20T07:43:44Z</time></trkpt><trkpt lat="45.68469146394229" lon="10.187143520171974"><ele>313.33333333333337</ele><time>2026-04-20T07:43:45Z</time></trkpt><trkpt lat="45.68482420232298" lon="10.187053040452353"><ele>314.0</ele><time>2026-04-20T07:43:46Z</time></trkpt><trkpt lat="45.68496842223477" lon="10.186963762140824"><ele>314.0</ele><time>2026-04-20T07:43:47Z</time></trkpt><trkpt lat="45.68509062851694" lon="10.18687856520456"><ele>314.0</ele><time>2026-04-20T07:43:48Z</time></trkpt><trkpt lat="45.68520706218941" lon="10.186824063917562"><ele>314.0</ele><time>2026-04-20T07:43:49Z</time></trkpt><trkpt lat="45.68533627108901" lon="10.18678026417321"><ele>314.0</ele><time>2026-04-20T07:43:50Z</time></trkpt><trkpt lat="45.68542462425298" lon="10.186726197667456"><ele>314.33333333333337</ele><time>2026-04-20T07:43:51Z</time></trkpt><trkpt lat="45.68551067872679" lon="10.18671501788929"><ele>314.6666666666667</ele><time>2026-04-20T07:43:52Z</time></trkpt><trkpt lat="45.68559393988473" lon="10.186721194122606"><ele>315.0</ele><time>2026-04-20T07:43:53Z</time></trkpt><trkpt lat="45.68566975395515" lon="10.186742367439681"><ele>315.3333333333333</ele><time>2026-04-20T07:43:54Z</time></trkpt><trkpt lat="45.68575196131878" lon="10.186769774756645"><ele>315.66666666666663</ele><time>2026-04-20T07:43:55Z</time></trkpt><trkpt lat="45.68583990724862" lon="10.186778358094122"><ele>316.0</ele><time>2026-04-20T07:43:56Z</time></trkpt><trkpt lat="45.685943583749975" lon="10.186747198109453"><ele>316.0</ele><time>2026-04-20T07:43:57Z</time></trkpt><trkpt lat="45.68607222782762" lon="10.186688447192337"><ele>316.0</ele><time>2026-04-20T07:43:58Z</time></trkpt><trkpt lat="45.68622240989094" lon="10.186625647061106"><ele>316.0</ele><time>2026-04-20T07:43:59Z</time></trkpt><trkpt lat="45.686372601117824" lon="10.18666925301604"><ele>316.0</ele><time>2026-04-20T07:44:00Z</time></trkpt><trkpt lat="45.686523086105375" lon="10.186662748450528"><ele>316.3333333333333</ele><time>2026-04-20T07:44:01Z</time></trkpt><trkpt lat="45.68667380080941" lon="10.186692691884051"><ele>316.6666666666667</ele><time>2026-04-20T07:44:02Z</time></trkpt><trkpt lat="45.686828157469705" lon="10.186753218986437"><ele>317.0</ele><time>2026-04-20T07:44:03Z</time></trkpt><trkpt lat="45.6869794771795" lon="10.186819992824075"><ele>317.0</ele><time>2026-04-20T07:44:04Z</time></trkpt><trkpt lat="45.68710346718236" lon="10.18687825111293"><ele>317.0</ele><time>2026-04-20T07:44:05Z</time></trkpt><trkpt lat="45.687243902698796" lon="10.186944232592909"><ele>317.0</ele><time>2026-04-20T07:44:06Z</time></trkpt><trkpt lat="45.687378944782836" lon="10.187016090505455"><ele>317.0</ele><time>2026-04-20T07:44:07Z</time></trkpt><trkpt lat="45.687519394141134" lon="10.187093083519661"><ele>317.0</ele><time>2026-04-20T07:44:08Z</time></trkpt><trkpt lat="45.68765189530994" lon="10.187166956916125"><ele>317.0</ele><time>2026-04-20T07:44:09Z</time></trkpt><trkpt lat="45.687754844733206" lon="10.187231858817054"><ele>317.0</ele><time>2026-04-20T07:44:10Z</time></trkpt><trkpt lat="45.68785234937957" lon="10.187295083634167"><ele>317.0</ele><time>2026-04-20T07:44:11Z</time></trkpt><trkpt lat="45.687947441403125" lon="10.187361100064642"><ele>317.5</ele><time>2026-04-20T07:44:12Z</time></trkpt><trkpt lat="45.688074853768825" lon="10.18743907050617"><ele>318.0</ele><time>2026-04-20T07:44:13Z</time></trkpt><trkpt lat="45.688205012807295" lon="10.187534541834562"><ele>318.5</ele><time>2026-04-20T07:44:14Z</time></trkpt><trkpt lat="45.68831368759529" lon="10.18761973545648"><ele>319.0</ele><time>2026-04-20T07:44:15Z</time></trkpt><trkpt lat="45.688407064816815" lon="10.18770165456214"><ele>319.0</ele><time>2026-04-20T07:44:16Z</time></trkpt><trkpt lat="45.6884987477712" lon="10.187756189838721"><ele>319.0</ele><time>2026-04-20T07:44:17Z</time></trkpt><trkpt lat="45.688601359628095" lon="10.187813292165321"><ele>319.0</ele><time>2026-04-20T07:44:18Z</time></trkpt><trkpt lat="45.68871702146814" lon="10.187837735636581"><ele>319.0</ele><time>2026-04-20T07:44:19Z</time></trkpt><trkpt lat="45.68882144575271" lon="10.187837433303923"><ele>319.0</ele><time>2026-04-20T07:44:20Z</time></trkpt><trkpt lat="45.68893348943836" lon="10.187860989874148"><ele>319.0</ele><time>2026-04-20T07:44:21Z</time></trkpt><trkpt lat="45.68903908177646" lon="10.187867954618156"><ele>319.0</ele><time>2026-04-20T07:44:22Z</time></trkpt><trkpt lat="45.68912469888624" lon="10.187854107895598"><ele>319.0</ele><time>2026-04-20T07:44:23Z</time></trkpt><trkpt lat="45.689202759237084" lon="10.18786883012827"><ele>319.0</ele><time>2026-04-20T07:44:24Z</time></trkpt><trkpt lat="45.689296396886" lon="10.187769375290637"><ele>319.0</ele><time>2026-04-20T07:44:25Z</time></trkpt><trkpt lat="45.68940755783042" lon="10.18774532947862"><ele>319.0</ele><time>2026-04-20T07:44:26Z</time></trkpt><trkpt lat="45.68953915945873" lon="10.18770740537831"><ele>319.0</ele><time>2026-04-20T07:44:27Z</time></trkpt><trkpt lat="45.68966593797571" lon="10.187677355329892"><ele>319.0</ele><time>2026-04-20T07:44:28Z</time></trkpt><trkpt lat="45.68981013580208" lon="10.187598598312753"><ele>319.0</ele><time>2026-04-20T07:44:29Z</time></trkpt><trkpt lat="45.689971373853766" lon="10.187509214922965"><ele>319.0</ele><time>2026-04-20T07:44:30Z</time></trkpt><trkpt lat="45.69012961928309" lon="10.187384222108014"><ele>319.0</ele><time>2026-04-20T07:44:31Z</time></trkpt><trkpt lat="45.69023547689845" lon="10.18728486465872"><ele>319.0</ele><time>2026-04-20T07:44:32Z</time></trkpt><trkpt lat="45.690331621097776" lon="10.187155188455508"><ele>319.0</ele><time>2026-04-20T07:44:33Z</time></trkpt><trkpt lat="45.69040056114682" lon="10.187013159766634"><ele>319.75</ele><time>2026-04-20T07:44:34Z</time></trkpt><trkpt lat="45.69045393560007" lon="10.186848071029758"><ele>320.5</ele><time>2026-04-20T07:44:35Z</time></trkpt><trkpt lat="45.69050837855016" lon="10.186697011236317"><ele>321.25</ele><time>2026-04-20T07:44:36Z</time></trkpt><trkpt lat="45.69056726760221" lon="10.186518942654251"><ele>322.0</ele><time>2026-04-20T07:44:37Z</time></trkpt><trkpt lat="45.69062333145448" lon="10.186338217844153"><ele>322.75</ele><time>2026-04-20T07:44:38Z</time></trkpt><trkpt lat="45.690707682806256" lon="10.186214627648507"><ele>323.5</ele><time>2026-04-20T07:44:39Z</time></trkpt><trkpt lat="45.69081854752462" lon="10.186127576373478"><ele>324.25</ele><time>2026-04-20T07:44:40Z</time></trkpt><trkpt lat="45.69093279908881" lon="10.186087478086202"><ele>325.0</ele><time>2026-04-20T07:44:41Z</time></trkpt><trkpt lat="45.69105877188176" lon="10.186081302976715"><ele>324.75</ele><time>2026-04-20T07:44:42Z</time></trkpt><trkpt lat="45.691212103123036" lon="10.18610952745776"><ele>324.5</ele><time>2026-04-20T07:44:43Z</time></trkpt><trkpt lat="45.691357719512304" lon="10.18609730429973"><ele>324.25</ele><time>2026-04-20T07:44:44Z</time></trkpt><trkpt lat="45.69149984781688" lon="10.186126515499634"><ele>324.0</ele><time>2026-04-20T07:44:45Z</time></trkpt><trkpt lat="45.691653122598" lon="10.186134482477433"><ele>324.0</ele><time>2026-04-20T07:44:46Z</time></trkpt><trkpt lat="45.69180454656103" lon="10.186141749990997"><ele>324.0</ele><time>2026-04-20T07:44:47Z</time></trkpt><trkpt lat="45.69195753033283" lon="10.186149092318193"><ele>324.0</ele><time>2026-04-20T07:44:48Z</time></trkpt><trkpt lat="45.69212178964976" lon="10.186159340739124"><ele>324.0</ele><time>2026-04-20T07:44:49Z</time></trkpt><trkpt lat="45.69227986880344" lon="10.186179021840205"><ele>324.0</ele><time>2026-04-20T07:44:50Z</time></trkpt><trkpt lat="45.69246686777761" lon="10.186202344727189"><ele>324.0</ele><time>2026-04-20T07:44:51Z</time></trkpt><trkpt lat="45.69266150341514" lon="10.1862085819942"><ele>325.0</ele><time>2026-04-20T07:44:52Z</time></trkpt><trkpt lat="45.692807308172966" lon="10.186219802598197"><ele>326.0</ele><time>2026-04-20T07:44:53Z</time></trkpt><trkpt lat="45.692943050600455" lon="10.186242052692279"><ele>327.0</ele><time>2026-04-20T07:44:54Z</time></trkpt><trkpt lat="45.69308107777174" lon="10.186307281546814"><ele>328.0</ele><time>2026-04-20T07:44:55Z</time></trkpt><trkpt lat="45.69319354802565" lon="10.186358033221708"><ele>328.0</ele><time>2026-04-20T07:44:56Z</time></trkpt><trkpt lat="45.69330201412513" lon="10.186411558240843"><ele>328.0</ele><time>2026-04-20T07:44:57Z</time></trkpt><trkpt lat="45.69338883472946" lon="10.186448194637713"><ele>328.0</ele><time>2026-04-20T07:44:58Z</time></trkpt><trkpt lat="45.69347362273886" lon="10.186520897040355"><ele>328.0</ele><time>2026-04-20T07:44:59Z</time></trkpt><trkpt lat="45.69359343712925" lon="10.186566688595438"><ele>328.0</ele><time>2026-04-20T07:45:00Z</time></trkpt><trkpt lat="45.69372718251272" lon="10.186621875448068"><ele>328.0</ele><time>2026-04-20T07:45:01Z</time></trkpt><trkpt lat="45.69382825760363" lon="10.18669177843124"><ele>328.0</ele><time>2026-04-20T07:45:02Z</time></trkpt><trkpt lat="45.693921381108225" lon="10.186745391410422"><ele>328.0</ele><time>2026-04-20T07:45:03Z</time></trkpt><trkpt lat="45.6940245065507" lon="10.18680174981624"><ele>328.0</ele><time>2026-04-20T07:45:04Z</time></trkpt><trkpt lat="45.69413070491725" lon="10.186873531059133"><ele>328.0</ele><time>2026-04-20T07:45:05Z</time></trkpt><trkpt lat="45.69421505233188" lon="10.186948119144835"><ele>328.0</ele><time>2026-04-20T07:45:06Z</time></trkpt><trkpt lat="45.69432529174083" lon="10.187005949487475"><ele>328.0</ele><time>2026-04-20T07:45:07Z</time></trkpt><trkpt lat="45.694414353018004" lon="10.187071251862493"><ele>328.0</ele><time>2026-04-20T07:45:08Z</time></trkpt><trkpt lat="45.6945024988179" lon="10.187138082704625"><ele>328.0</ele><time>2026-04-20T07:45:09Z</time></trkpt><trkpt lat="45.69461725893629" lon="10.18722058454345"><ele>328.0</ele><time>2026-04-20T07:45:10Z</time></trkpt><trkpt lat="45.69474546330584" lon="10.187273418679416"><ele>327.75</ele><time>2026-04-20T07:45:11Z</time></trkpt><trkpt lat="45.69486475373559" lon="10.187345828981577"><ele>327.5</ele><time>2026-04-20T07:45:12Z</time></trkpt><trkpt lat="45.69497666141987" lon="10.187413757902593"><ele>327.25</ele><time>2026-04-20T07:45:13Z</time></trkpt><trkpt lat="45.695077900532375" lon="10.187475210917293"><ele>327.0</ele><time>2026-04-20T07:45:14Z</time></trkpt><trkpt lat="45.69516677940986" lon="10.187529161149975"><ele>327.5</ele><time>2026-04-20T07:45:15Z</time></trkpt><trkpt lat="45.69527089226253" lon="10.187592358530878"><ele>328.0</ele><time>2026-04-20T07:45:16Z</time></trkpt><trkpt lat="45.69536765100498" lon="10.187677981330161"><ele>328.5</ele><time>2026-04-20T07:45:17Z</time></trkpt><trkpt lat="45.69548780001901" lon="10.187726336310025"><ele>329.0</ele><time>2026-04-20T07:45:18Z</time></trkpt><trkpt lat="45.695619958582654" lon="10.187775914320781"><ele>329.0</ele><time>2026-04-20T07:45:19Z</time></trkpt><trkpt lat="45.69574067871642" lon="10.187812392319472"><ele>329.0</ele><time>2026-04-20T07:45:20Z</time></trkpt><trkpt lat="45.6958523947312" lon="10.18784047197355"><ele>329.0</ele><time>2026-04-20T07:45:21Z</time></trkpt><trkpt lat="45.695978811226986" lon="10.187869695611912"><ele>329.0</ele><time>2026-04-20T07:45:22Z</time></trkpt><trkpt lat="45.69610869230613" lon="10.187895138155824"><ele>329.5</ele><time>2026-04-20T07:45:23Z</time></trkpt><trkpt lat="45.6962279957597" lon="10.187912614735826"><ele>330.0</ele><time>2026-04-20T07:45:24Z</time></trkpt><trkpt lat="45.69634407579238" lon="10.187932907832177"><ele>330.5</ele><time>2026-04-20T07:45:25Z</time></trkpt><trkpt lat="45.696450646168365" lon="10.187957024497722"><ele>331.0</ele><time>2026-04-20T07:45:26Z</time></trkpt><trkpt lat="45.69657079647694" lon="10.187988891040144"><ele>331.0</ele><time>2026-04-20T07:45:27Z</time></trkpt><trkpt lat="45.696694139725906" lon="10.188045727072714"><ele>331.0</ele><time>2026-04-20T07:45:28Z</time></trkpt><trkpt lat="45.696793090488434" lon="10.18816011925723"><ele>331.0</ele><time>2026-04-20T07:45:30Z</time></trkpt><trkpt lat="45.69683426214352" lon="10.188261199385206"><ele>331.0</ele><time>2026-04-20T07:45:31Z</time></trkpt><trkpt lat="45.696870076709224" lon="10.188393957868824"><ele>331.0</ele><time>2026-04-20T07:45:32Z</time></trkpt><trkpt lat="45.69690144112188" lon="10.188511235925109"><ele>331.5</ele><time>2026-04-20T07:45:33Z</time></trkpt><trkpt lat="45.69693316709707" lon="10.188631897460494"><ele>332.0</ele><time>2026-04-20T07:45:35Z</time></trkpt><trkpt lat="45.696981675752575" lon="10.188770057527528"><ele>332.5</ele><time>2026-04-20T07:45:37Z</time></trkpt><trkpt lat="45.69701348603082" lon="10.188851228835786"><ele>333.0</ele><time>2026-04-20T07:45:38Z</time></trkpt><trkpt lat="45.69704216057328" lon="10.188943487463812"><ele>333.5</ele><time>2026-04-20T07:45:39Z</time></trkpt><trkpt lat="45.69710472140719" lon="10.189007052501099"><ele>334.0</ele><time>2026-04-20T07:45:40Z</time></trkpt><trkpt lat="45.697168637373906" lon="10.189064218264958"><ele>334.4</ele><time>2026-04-20T07:45:41Z</time></trkpt><trkpt lat="45.697249595632734" lon="10.189114397930151"><ele>334.79999999999995</ele><time>2026-04-20T07:45:42Z</time></trkpt><trkpt lat="45.69733722657633" lon="10.189163746518007"><ele>335.20000000000005</ele><time>2026-04-20T07:45:43Z</time></trkpt><trkpt lat="45.69743440391138" lon="10.189202776011268"><ele>335.6</ele><time>2026-04-20T07:45:44Z</time></trkpt><trkpt lat="45.6975204236617" lon="10.189264047142967"><ele>336.0</ele><time>2026-04-20T07:45:45Z</time></trkpt><trkpt lat="45.69759354796539" lon="10.189341342428445"><ele>336.0</ele><time>2026-04-20T07:45:46Z</time></trkpt><trkpt lat="45.69767742889462" lon="10.189453175506463"><ele>336.0</ele><time>2026-04-20T07:45:47Z</time></trkpt><trkpt lat="45.69776550648802" lon="10.189590614220801"><ele>336.0</ele><time>2026-04-20T07:45:48Z</time></trkpt><trkpt lat="45.69786461231462" lon="10.189758848726582"><ele>336.0</ele><time>2026-04-20T07:45:49Z</time></trkpt><trkpt lat="45.69796594651289" lon="10.189930503044563"><ele>336.25</ele><time>2026-04-20T07:45:50Z</time></trkpt><trkpt lat="45.6980347890866" lon="10.190089197171819"><ele>336.5</ele><time>2026-04-20T07:45:51Z</time></trkpt><trkpt lat="45.69809364919501" lon="10.19026590789568"><ele>336.75</ele><time>2026-04-20T07:45:52Z</time></trkpt><trkpt lat="45.698124117648085" lon="10.190434062229066"><ele>337.0</ele><time>2026-04-20T07:45:53Z</time></trkpt><trkpt lat="45.69817243953991" lon="10.190581912332178"><ele>337.20000000000005</ele><time>2026-04-20T07:45:54Z</time></trkpt><trkpt lat="45.698197244921104" lon="10.190734684764147"><ele>337.4</ele><time>2026-04-20T07:45:55Z</time></trkpt><trkpt lat="45.69821471287764" lon="10.19087905595568"><ele>337.6</ele><time>2026-04-20T07:45:56Z</time></trkpt><trkpt lat="45.69824184188277" lon="10.191018819070468"><ele>337.79999999999995</ele><time>2026-04-20T07:45:57Z</time></trkpt><trkpt lat="45.69826396174982" lon="10.191144699913128"><ele>338.0</ele><time>2026-04-20T07:45:58Z</time></trkpt><trkpt lat="45.69830190545738" lon="10.191264034890446"><ele>338.0</ele><time>2026-04-20T07:45:59Z</time></trkpt><trkpt lat="45.69836590138291" lon="10.191376127419913"><ele>338.0</ele><time>2026-04-20T07:46:00Z</time></trkpt><trkpt lat="45.698445318059335" lon="10.191461073908643"><ele>338.0</ele><time>2026-04-20T07:46:01Z</time></trkpt><trkpt lat="45.69853773754003" lon="10.191525153309659"><ele>338.0</ele><time>2026-04-20T07:46:02Z</time></trkpt><trkpt lat="45.698609836302325" lon="10.191556550444306"><ele>338.0</ele><time>2026-04-20T07:46:03Z</time></trkpt><trkpt lat="45.69867551206643" lon="10.191574028277188"><ele>338.0</ele><time>2026-04-20T07:46:04Z</time></trkpt><trkpt lat="45.69874726789799" lon="10.191602628864086"><ele>338.0</ele><time>2026-04-20T07:46:05Z</time></trkpt><trkpt lat="45.69882051476645" lon="10.191646921015918"><ele>338.0</ele><time>2026-04-20T07:46:06Z</time></trkpt><trkpt lat="45.698888373589796" lon="10.19168014793727"><ele>338.0</ele><time>2026-04-20T07:46:07Z</time></trkpt><trkpt lat="45.698998745354025" lon="10.191732444169343"><ele>338.0</ele><time>2026-04-20T07:46:09Z</time></trkpt><trkpt lat="45.69906508708127" lon="10.191787477439354"><ele>338.0</ele><time>2026-04-20T07:46:10Z</time></trkpt><trkpt lat="45.699108560002195" lon="10.191866852164278"><ele>338.0</ele><time>2026-04-20T07:46:11Z</time></trkpt><trkpt lat="45.699153717333125" lon="10.191964552636854"><ele>338.0</ele><time>2026-04-20T07:46:12Z</time></trkpt><trkpt lat="45.6991789637581" lon="10.19210276141971"><ele>338.0</ele><time>2026-04-20T07:46:13Z</time></trkpt><trkpt lat="45.699203036437005" lon="10.192269019206378"><ele>338.0</ele><time>2026-04-20T07:46:14Z</time></trkpt><trkpt lat="45.69920743221562" lon="10.192440915026912"><ele>338.0</ele><time>2026-04-20T07:46:15Z</time></trkpt><trkpt lat="45.69920727748152" lon="10.19262043701995"><ele>338.0</ele><time>2026-04-20T07:46:16Z</time></trkpt><trkpt lat="45.699207106403435" lon="10.192818924134746"><ele>338.0</ele><time>2026-04-20T07:46:17Z</time></trkpt><trkpt lat="45.69920692069904" lon="10.193034376699204"><ele>338.0</ele><time>2026-04-20T07:46:18Z</time></trkpt><trkpt lat="45.69922051803012" lon="10.193271160029916"><ele>338.33333333333337</ele><time>2026-04-20T07:46:19Z</time></trkpt><trkpt lat="45.69919002956845" lon="10.19351691664296"><ele>338.6666666666667</ele><time>2026-04-20T07:46:20Z</time></trkpt><trkpt lat="45.699179660115284" lon="10.193779140246413"><ele>339.0</ele><time>2026-04-20T07:46:21Z</time></trkpt><trkpt lat="45.69917313474518" lon="10.194022874294928"><ele>339.0</ele><time>2026-04-20T07:46:22Z</time></trkpt><trkpt lat="45.699167648585735" lon="10.19427112425791"><ele>339.0</ele><time>2026-04-20T07:46:23Z</time></trkpt><trkpt lat="45.699167056902475" lon="10.194533472321629"><ele>339.0</ele><time>2026-04-20T07:46:24Z</time></trkpt><trkpt lat="45.69917017453089" lon="10.194803990024585"><ele>339.6666666666667</ele><time>2026-04-20T07:46:25Z</time></trkpt><trkpt lat="45.6991758601598" lon="10.195081596449358"><ele>340.33333333333337</ele><time>2026-04-20T07:46:26Z</time></trkpt><trkpt lat="45.69919076800285" lon="10.195351542185715"><ele>341.0</ele><time>2026-04-20T07:46:27Z</time></trkpt><trkpt lat="45.69922952668227" lon="10.195629335878436"><ele>341.0</ele><time>2026-04-20T07:46:28Z</time></trkpt><trkpt lat="45.699267558232464" lon="10.195887399696108"><ele>341.0</ele><time>2026-04-20T07:46:29Z</time></trkpt><trkpt lat="45.69932049495349" lon="10.196146333430942"><ele>341.0</ele><time>2026-04-20T07:46:30Z</time></trkpt><trkpt lat="45.6993865292835" lon="10.196417051572368"><ele>343.33333333333337</ele><time>2026-04-20T07:46:31Z</time></trkpt><trkpt lat="45.699450735041715" lon="10.196689067492148"><ele>345.6666666666667</ele><time>2026-04-20T07:46:32Z</time></trkpt><trkpt lat="45.699509873575984" lon="10.19697012262981"><ele>348.0</ele><time>2026-04-20T07:46:33Z</time></trkpt><trkpt lat="45.699568157163036" lon="10.197250254184508"><ele>347.3333333333333</ele><time>2026-04-20T07:46:34Z</time></trkpt><trkpt lat="45.699635102685015" lon="10.19753001823575"><ele>346.66666666666663</ele><time>2026-04-20T07:46:35Z</time></trkpt><trkpt lat="45.69968474260142" lon="10.197805537257228"><ele>346.0</ele><time>2026-04-20T07:46:36Z</time></trkpt><trkpt lat="45.69972057267118" lon="10.198079864675273"><ele>346.0</ele><time>2026-04-20T07:46:37Z</time></trkpt><trkpt lat="45.69973397132958" lon="10.198352538292278"><ele>346.0</ele><time>2026-04-20T07:46:38Z</time></trkpt><trkpt lat="45.69973495384411" lon="10.198623003687342"><ele>346.0</ele><time>2026-04-20T07:46:39Z</time></trkpt><trkpt lat="45.69973219328545" lon="10.198909607569899"><ele>346.3333333333333</ele><time>2026-04-20T07:46:40Z</time></trkpt><trkpt lat="45.69971545044979" lon="10.199211170296653"><ele>346.6666666666667</ele><time>2026-04-20T07:46:41Z</time></trkpt><trkpt lat="45.69967072281655" lon="10.199506954967378"><ele>347.0</ele><time>2026-04-20T07:46:42Z</time></trkpt><trkpt lat="45.69964264447663" lon="10.199814562570564"><ele>348.0</ele><time>2026-04-20T07:46:43Z</time></trkpt><trkpt lat="45.699588825627096" lon="10.20011447925211"><ele>349.0</ele><time>2026-04-20T07:46:44Z</time></trkpt><trkpt lat="45.69955044989294" lon="10.200423856002825"><ele>350.0</ele><time>2026-04-20T07:46:45Z</time></trkpt><trkpt lat="45.699513545542295" lon="10.200716620854251"><ele>350.33333333333337</ele><time>2026-04-20T07:46:46Z</time></trkpt><trkpt lat="45.69947933548216" lon="10.200992000274692"><ele>350.6666666666667</ele><time>2026-04-20T07:46:47Z</time></trkpt><trkpt lat="45.69946726745716" lon="10.20126436594023"><ele>351.0</ele><time>2026-04-20T07:46:48Z</time></trkpt><trkpt lat="45.699454839076786" lon="10.201522960671477"><ele>350.3333333333333</ele><time>2026-04-20T07:46:49Z</time></trkpt><trkpt lat="45.69944045189009" lon="10.201793774753819"><ele>349.66666666666663</ele><time>2026-04-20T07:46:50Z</time></trkpt><trkpt lat="45.69947283042457" lon="10.20206792768232"><ele>349.0</ele><time>2026-04-20T07:46:51Z</time></trkpt><trkpt lat="45.699513411597536" lon="10.202352603610105"><ele>349.0</ele><time>2026-04-20T07:46:52Z</time></trkpt><trkpt lat="45.69956902456401" lon="10.202616467600238"><ele>349.0</ele><time>2026-04-20T07:46:53Z</time></trkpt><trkpt lat="45.69963488526516" lon="10.202877249281329"><ele>349.0</ele><time>2026-04-20T07:46:54Z</time></trkpt><trkpt lat="45.699715481283604" lon="10.203123254521449"><ele>349.3333333333333</ele><time>2026-04-20T07:46:55Z</time></trkpt><trkpt lat="45.69978009714897" lon="10.203384489477289"><ele>349.6666666666667</ele><time>2026-04-20T07:46:56Z</time></trkpt><trkpt lat="45.69985414299761" lon="10.203607631866245"><ele>350.0</ele><time>2026-04-20T07:46:57Z</time></trkpt><trkpt lat="45.699938192254486" lon="10.20386092018187"><ele>350.33333333333337</ele><time>2026-04-20T07:46:58Z</time></trkpt><trkpt lat="45.700021659878985" lon="10.204112455069165"><ele>350.6666666666667</ele><time>2026-04-20T07:46:59Z</time></trkpt><trkpt lat="45.700093590889544" lon="10.20433281689861"><ele>351.0</ele><time>2026-04-20T07:47:00Z</time></trkpt><trkpt lat="45.70017538642226" lon="10.204541647361841"><ele>351.0</ele><time>2026-04-20T07:47:01Z</time></trkpt><trkpt lat="45.700243303817274" lon="10.204777178394199"><ele>351.0</ele><time>2026-04-20T07:47:02Z</time></trkpt><trkpt lat="45.70031877943239" lon="10.2050315482062"><ele>351.0</ele><time>2026-04-20T07:47:03Z</time></trkpt><trkpt lat="45.70040652675158" lon="10.205264786011226"><ele>352.0</ele><time>2026-04-20T07:47:04Z</time></trkpt><trkpt lat="45.700487201767395" lon="10.205512049271604"><ele>353.0</ele><time>2026-04-20T07:47:05Z</time></trkpt><trkpt lat="45.700555886219476" lon="10.205744560045293"><ele>354.0</ele><time>2026-04-20T07:47:06Z</time></trkpt><trkpt lat="45.70061986155208" lon="10.20595394431936"><ele>354.0</ele><time>2026-04-20T07:47:07Z</time></trkpt><trkpt lat="45.70069778004743" lon="10.20617574194136"><ele>354.0</ele><time>2026-04-20T07:47:08Z</time></trkpt><trkpt lat="45.700759784247815" lon="10.206375085957458"><ele>354.0</ele><time>2026-04-20T07:47:09Z</time></trkpt><trkpt lat="45.70083059985219" lon="10.206580020681297"><ele>354.25</ele><time>2026-04-20T07:47:10Z</time></trkpt><trkpt lat="45.7008957488289" lon="10.206777841470025"><ele>354.5</ele><time>2026-04-20T07:47:11Z</time></trkpt><trkpt lat="45.70094795471873" lon="10.206954668008798"><ele>354.75</ele><time>2026-04-20T07:47:12Z</time></trkpt><trkpt lat="45.700984025308465" lon="10.207104009904844"><ele>355.0</ele><time>2026-04-20T07:47:13Z</time></trkpt><trkpt lat="45.70101637914862" lon="10.20722420001408"><ele>355.0</ele><time>2026-04-20T07:47:14Z</time></trkpt><trkpt lat="45.70104614079836" lon="10.207322844170767"><ele>355.0</ele><time>2026-04-20T07:47:15Z</time></trkpt><trkpt lat="45.70107572153108" lon="10.20740645781297"><ele>355.0</ele><time>2026-04-20T07:47:16Z</time></trkpt><trkpt lat="45.70111974169275" lon="10.207514210090508"><ele>355.0</ele><time>2026-04-20T07:47:18Z</time></trkpt><trkpt lat="45.701161153279614" lon="10.207588562889573"><ele>355.0</ele><time>2026-04-20T07:47:21Z</time></trkpt><trkpt lat="45.701215371440306" lon="10.207727371553409"><ele>355.0</ele><time>2026-04-20T07:47:32Z</time></trkpt><trkpt lat="45.70125065429213" lon="10.20781516719747"><ele>356.2</ele><time>2026-04-20T07:47:33Z</time></trkpt><trkpt lat="45.70129198627166" lon="10.207915065637726"><ele>357.4</ele><time>2026-04-20T07:47:34Z</time></trkpt><trkpt lat="45.70133187814678" lon="10.208010060098044"><ele>358.6</ele><time>2026-04-20T07:47:35Z</time></trkpt><trkpt lat="45.7013917997589" lon="10.208130522628782"><ele>359.8</ele><time>2026-04-20T07:47:36Z</time></trkpt><trkpt lat="45.701463225017484" lon="10.208264109869628"><ele>361.0</ele><time>2026-04-20T07:47:37Z</time></trkpt><trkpt lat="45.70155774786474" lon="10.208416597640255"><ele>361.0</ele><time>2026-04-20T07:47:38Z</time></trkpt><trkpt lat="45.70161319518191" lon="10.208596997761719"><ele>361.0</ele><time>2026-04-20T07:47:39Z</time></trkpt><trkpt lat="45.70169260903084" lon="10.208742745317252"><ele>361.0</ele><time>2026-04-20T07:47:40Z</time></trkpt><trkpt lat="45.701774449991795" lon="10.208875347880323"><ele>361.0</ele><time>2026-04-20T07:47:41Z</time></trkpt><trkpt lat="45.70186052002004" lon="10.209004044383223"><ele>361.0</ele><time>2026-04-20T07:47:42Z</time></trkpt><trkpt lat="45.70194082208968" lon="10.209117372171155"><ele>361.0</ele><time>2026-04-20T07:47:43Z</time></trkpt><trkpt lat="45.70203459014353" lon="10.20924469713845"><ele>361.0</ele><time>2026-04-20T07:47:44Z</time></trkpt><trkpt lat="45.70213411983756" lon="10.209374214826791"><ele>361.0</ele><time>2026-04-20T07:47:45Z</time></trkpt><trkpt lat="45.70225469028636" lon="10.209521151534394"><ele>361.0</ele><time>2026-04-20T07:47:46Z</time></trkpt><trkpt lat="45.702384872567805" lon="10.209665961938109"><ele>361.0</ele><time>2026-04-20T07:47:47Z</time></trkpt><trkpt lat="45.70252950269821" lon="10.209825884472039"><ele>361.0</ele><time>2026-04-20T07:47:48Z</time></trkpt><trkpt lat="45.702664317956206" lon="10.209974954423672"><ele>361.0</ele><time>2026-04-20T07:47:49Z</time></trkpt><trkpt lat="45.702792946910826" lon="10.21011741843659"><ele>361.0</ele><time>2026-04-20T07:47:50Z</time></trkpt><trkpt lat="45.702927037541954" lon="10.210266480564293"><ele>361.0</ele><time>2026-04-20T07:47:51Z</time></trkpt><trkpt lat="45.70306820453413" lon="10.210423713068138"><ele>361.0</ele><time>2026-04-20T07:47:52Z</time></trkpt><trkpt lat="45.703209150977116" lon="10.210580699881753"><ele>361.0</ele><time>2026-04-20T07:47:53Z</time></trkpt><trkpt lat="45.70334832005155" lon="10.210735707099218"><ele>361.0</ele><time>2026-04-20T07:47:54Z</time></trkpt><trkpt lat="45.70347318318268" lon="10.210851326205473"><ele>362.3333333333333</ele><time>2026-04-20T07:47:55Z</time></trkpt><trkpt lat="45.703588282148516" lon="10.210991874234237"><ele>363.6666666666667</ele><time>2026-04-20T07:47:56Z</time></trkpt><trkpt lat="45.70372622243242" lon="10.211149145926047"><ele>365.0</ele><time>2026-04-20T07:47:57Z</time></trkpt><trkpt lat="45.70386060544977" lon="10.211301138497436"><ele>365.0</ele><time>2026-04-20T07:47:58Z</time></trkpt><trkpt lat="45.70399331604114" lon="10.211463294097655"><ele>365.0</ele><time>2026-04-20T07:47:59Z</time></trkpt><trkpt lat="45.70412896594426" lon="10.211608403661971"><ele>365.0</ele><time>2026-04-20T07:48:00Z</time></trkpt><trkpt lat="45.704273402971126" lon="10.211758285435241"><ele>366.33333333333337</ele><time>2026-04-20T07:48:01Z</time></trkpt><trkpt lat="45.70441548157405" lon="10.211927191875498"><ele>367.6666666666667</ele><time>2026-04-20T07:48:02Z</time></trkpt><trkpt lat="45.704555870405294" lon="10.212092393228644"><ele>369.0</ele><time>2026-04-20T07:48:03Z</time></trkpt><trkpt lat="45.70470531523137" lon="10.212242990445262"><ele>367.3333333333333</ele><time>2026-04-20T07:48:04Z</time></trkpt><trkpt lat="45.70483106382262" lon="10.212393997092999"><ele>365.66666666666663</ele><time>2026-04-20T07:48:05Z</time></trkpt><trkpt lat="45.7049649432341" lon="10.212554142139531"><ele>364.0</ele><time>2026-04-20T07:48:06Z</time></trkpt><trkpt lat="45.70510721490225" lon="10.212714457746014"><ele>365.66666666666663</ele><time>2026-04-20T07:48:07Z</time></trkpt><trkpt lat="45.705250295522326" lon="10.212893273843727"><ele>367.3333333333333</ele><time>2026-04-20T07:48:08Z</time></trkpt><trkpt lat="45.705381494442825" lon="10.21304250676663"><ele>369.0</ele><time>2026-04-20T07:48:09Z</time></trkpt><trkpt lat="45.70553483824572" lon="10.2131695669257"><ele>369.0</ele><time>2026-04-20T07:48:10Z</time></trkpt><trkpt lat="45.70566478037145" lon="10.213322862309433"><ele>369.0</ele><time>2026-04-20T07:48:11Z</time></trkpt><trkpt lat="45.705806113561025" lon="10.213481474731795"><ele>369.0</ele><time>2026-04-20T07:48:12Z</time></trkpt><trkpt lat="45.70593877293822" lon="10.213636088217127"><ele>369.0</ele><time>2026-04-20T07:48:13Z</time></trkpt><trkpt lat="45.706063566149574" lon="10.213781654812383"><ele>369.0</ele><time>2026-04-20T07:48:14Z</time></trkpt><trkpt lat="45.706176535305694" lon="10.213926551619542"><ele>369.0</ele><time>2026-04-20T07:48:15Z</time></trkpt><trkpt lat="45.70630361598721" lon="10.214070810839944"><ele>370.0</ele><time>2026-04-20T07:48:16Z</time></trkpt><trkpt lat="45.706427734525654" lon="10.214212338924254"><ele>371.0</ele><time>2026-04-20T07:48:17Z</time></trkpt><trkpt lat="45.706544171263154" lon="10.214370396091978"><ele>372.0</ele><time>2026-04-20T07:48:18Z</time></trkpt><trkpt lat="45.70664981330717" lon="10.214523255389883"><ele>372.0</ele><time>2026-04-20T07:48:19Z</time></trkpt><trkpt lat="45.70676355791818" lon="10.214683986950869"><ele>372.0</ele><time>2026-04-20T07:48:20Z</time></trkpt><trkpt lat="45.70687777774812" lon="10.21484273771008"><ele>372.0</ele><time>2026-04-20T07:48:21Z</time></trkpt><trkpt lat="45.70699576288587" lon="10.215006205124837"><ele>374.6666666666667</ele><time>2026-04-20T07:48:22Z</time></trkpt><trkpt lat="45.70711721663139" lon="10.215167733044579"><ele>377.33333333333337</ele><time>2026-04-20T07:48:23Z</time></trkpt><trkpt lat="45.70721677788509" lon="10.21533760946762"><ele>380.0</ele><time>2026-04-20T07:48:24Z</time></trkpt><trkpt lat="45.707316523855035" lon="10.215508021436913"><ele>377.6666666666667</ele><time>2026-04-20T07:48:25Z</time></trkpt><trkpt lat="45.70743920648833" lon="10.215672862360904"><ele>375.3333333333333</ele><time>2026-04-20T07:48:26Z</time></trkpt><trkpt lat="45.707550843662645" lon="10.215840187888205"><ele>373.0</ele><time>2026-04-20T07:48:27Z</time></trkpt><trkpt lat="45.70767080088236" lon="10.216017936784873"><ele>373.75</ele><time>2026-04-20T07:48:28Z</time></trkpt><trkpt lat="45.707760932725485" lon="10.216183294605782"><ele>374.5</ele><time>2026-04-20T07:48:29Z</time></trkpt><trkpt lat="45.707847886045684" lon="10.216327458250326"><ele>375.25</ele><time>2026-04-20T07:48:30Z</time></trkpt><trkpt lat="45.70796137909951" lon="10.216456289126672"><ele>376.0</ele><time>2026-04-20T07:48:31Z</time></trkpt><trkpt lat="45.70809356567328" lon="10.216574445870526"><ele>376.0</ele><time>2026-04-20T07:48:32Z</time></trkpt><trkpt lat="45.708235813759806" lon="10.21668558787632"><ele>376.0</ele><time>2026-04-20T07:48:33Z</time></trkpt><trkpt lat="45.70837822831218" lon="10.216768340105684"><ele>376.0</ele><time>2026-04-20T07:48:34Z</time></trkpt><trkpt lat="45.7085109603016" lon="10.216857182164661"><ele>378.75</ele><time>2026-04-20T07:48:35Z</time></trkpt><trkpt lat="45.708634646908706" lon="10.21692141460204"><ele>381.5</ele><time>2026-04-20T07:48:36Z</time></trkpt><trkpt lat="45.70873894574057" lon="10.217020558708018"><ele>384.25</ele><time>2026-04-20T07:48:37Z</time></trkpt><trkpt lat="45.70887516669263" lon="10.21712992669798"><ele>387.0</ele><time>2026-04-20T07:48:38Z</time></trkpt><trkpt lat="45.709007129412136" lon="10.21727682727539"><ele>382.6666666666667</ele><time>2026-04-20T07:48:39Z</time></trkpt><trkpt lat="45.70913392701891" lon="10.217459237005851"><ele>378.33333333333337</ele><time>2026-04-20T07:48:40Z</time></trkpt><trkpt lat="45.709252630664075" lon="10.217660407166615"><ele>374.0</ele><time>2026-04-20T07:48:41Z</time></trkpt><trkpt lat="45.70939065202704" lon="10.217893337725496"><ele>375.6666666666667</ele><time>2026-04-20T07:48:42Z</time></trkpt><trkpt lat="45.70951090017881" lon="10.218109220203232"><ele>377.3333333333333</ele><time>2026-04-20T07:48:43Z</time></trkpt><trkpt lat="45.70964924778049" lon="10.21831486972678"><ele>379.0</ele><time>2026-04-20T07:48:44Z</time></trkpt><trkpt lat="45.70977146887581" lon="10.218494020124638"><ele>379.0</ele><time>2026-04-20T07:48:45Z</time></trkpt><trkpt lat="45.70989054641691" lon="10.218666941704843"><ele>379.0</ele><time>2026-04-20T07:48:46Z</time></trkpt><trkpt lat="45.710007900498866" lon="10.218834554419654"><ele>379.0</ele><time>2026-04-20T07:48:47Z</time></trkpt><trkpt lat="45.71011392264818" lon="10.219000790415857"><ele>378.5</ele><time>2026-04-20T07:48:48Z</time></trkpt><trkpt lat="45.71021612580408" lon="10.219161638204103"><ele>378.0</ele><time>2026-04-20T07:48:49Z</time></trkpt><trkpt lat="45.710309054019845" lon="10.219305364387797"><ele>377.5</ele><time>2026-04-20T07:48:50Z</time></trkpt><trkpt lat="45.710442990235805" lon="10.219424707923109"><ele>377.0</ele><time>2026-04-20T07:48:51Z</time></trkpt><trkpt lat="45.71059661526752" lon="10.21951153998744"><ele>379.33333333333337</ele><time>2026-04-20T07:48:52Z</time></trkpt><trkpt lat="45.71075081375626" lon="10.2195883099491"><ele>381.6666666666667</ele><time>2026-04-20T07:48:53Z</time></trkpt><trkpt lat="45.71092917420879" lon="10.219652370526967"><ele>384.0</ele><time>2026-04-20T07:48:54Z</time></trkpt><trkpt lat="45.71111172272812" lon="10.219693754054225"><ele>383.3333333333333</ele><time>2026-04-20T07:48:55Z</time></trkpt><trkpt lat="45.711307473766894" lon="10.219730574586267"><ele>382.66666666666663</ele><time>2026-04-20T07:48:56Z</time></trkpt><trkpt lat="45.71150053941433" lon="10.219775467227453"><ele>382.0</ele><time>2026-04-20T07:48:57Z</time></trkpt><trkpt lat="45.711679481612194" lon="10.219849137922974"><ele>382.0</ele><time>2026-04-20T07:48:58Z</time></trkpt><trkpt lat="45.711853066754024" lon="10.219975280135282"><ele>382.0</ele><time>2026-04-20T07:48:59Z</time></trkpt><trkpt lat="45.71203607863011" lon="10.220124071030174"><ele>382.0</ele><time>2026-04-20T07:49:00Z</time></trkpt><trkpt lat="45.71221600176126" lon="10.220270200161076"><ele>386.0</ele><time>2026-04-20T07:49:01Z</time></trkpt><trkpt lat="45.712420682918626" lon="10.220415848514735"><ele>390.0</ele><time>2026-04-20T07:49:02Z</time></trkpt><trkpt lat="45.712628799741886" lon="10.220571705553056"><ele>389.0</ele><time>2026-04-20T07:49:03Z</time></trkpt><trkpt lat="45.712800767382355" lon="10.220721558919967"><ele>388.0</ele><time>2026-04-20T07:49:04Z</time></trkpt><trkpt lat="45.71297159406774" lon="10.220868639039926"><ele>387.0</ele><time>2026-04-20T07:49:05Z</time></trkpt><trkpt lat="45.71313608438578" lon="10.220989449341694"><ele>387.0</ele><time>2026-04-20T07:49:06Z</time></trkpt><trkpt lat="45.713278608085155" lon="10.221101587524329"><ele>387.0</ele><time>2026-04-20T07:49:07Z</time></trkpt><trkpt lat="45.71341827467051" lon="10.221188823054066"><ele>387.0</ele><time>2026-04-20T07:49:08Z</time></trkpt><trkpt lat="45.71358964030448" lon="10.221272890381371"><ele>385.0</ele><time>2026-04-20T07:49:09Z</time></trkpt><trkpt lat="45.713771068232674" lon="10.221354219602494"><ele>383.0</ele><time>2026-04-20T07:49:10Z</time></trkpt><trkpt lat="45.71395985074506" lon="10.221423626992788"><ele>381.0</ele><time>2026-04-20T07:49:11Z</time></trkpt><trkpt lat="45.71413598588084" lon="10.221489825651558"><ele>381.0</ele><time>2026-04-20T07:49:12Z</time></trkpt><trkpt lat="45.714305063030224" lon="10.221522186594179"><ele>381.0</ele><time>2026-04-20T07:49:13Z</time></trkpt><trkpt lat="45.7144740136306" lon="10.221613950149555"><ele>381.0</ele><time>2026-04-20T07:49:14Z</time></trkpt><trkpt lat="45.71465919240304" lon="10.221696386351406"><ele>383.66666666666663</ele><time>2026-04-20T07:49:15Z</time></trkpt><trkpt lat="45.7148204467096" lon="10.221791408642574"><ele>386.3333333333333</ele><time>2026-04-20T07:49:16Z</time></trkpt><trkpt lat="45.71497425197545" lon="10.221846371285297"><ele>389.0</ele><time>2026-04-20T07:49:17Z</time></trkpt><trkpt lat="45.71515875265602" lon="10.221961153509941"><ele>388.66666666666663</ele><time>2026-04-20T07:49:18Z</time></trkpt><trkpt lat="45.715326602957155" lon="10.222176824910205"><ele>388.33333333333337</ele><time>2026-04-20T07:49:19Z</time></trkpt><trkpt lat="45.7155028072734" lon="10.222349393114131"><ele>388.0</ele><time>2026-04-20T07:49:20Z</time></trkpt><trkpt lat="45.7156637647286" lon="10.22250447885134"><ele>388.0</ele><time>2026-04-20T07:49:21Z</time></trkpt><trkpt lat="45.71580909418045" lon="10.222684564347109"><ele>388.0</ele><time>2026-04-20T07:49:22Z</time></trkpt><trkpt lat="45.7159197505551" lon="10.222898862905645"><ele>388.0</ele><time>2026-04-20T07:49:23Z</time></trkpt><trkpt lat="45.716036842923174" lon="10.223120372082738"><ele>390.6666666666667</ele><time>2026-04-20T07:49:24Z</time></trkpt><trkpt lat="45.716129161635905" lon="10.223386600691745"><ele>393.33333333333337</ele><time>2026-04-20T07:49:25Z</time></trkpt><trkpt lat="45.71622675426291" lon="10.223680087828578"><ele>396.0</ele><time>2026-04-20T07:49:26Z</time></trkpt><trkpt lat="45.716350017751246" lon="10.22394863526339"><ele>392.0</ele><time>2026-04-20T07:49:27Z</time></trkpt><trkpt lat="45.7164947226292" lon="10.224201563353756"><ele>388.0</ele><time>2026-04-20T07:49:28Z</time></trkpt><trkpt lat="45.716632079177906" lon="10.22446422376746"><ele>388.0</ele><time>2026-04-20T07:49:29Z</time></trkpt><trkpt lat="45.716794690609476" lon="10.224682487589188"><ele>388.0</ele><time>2026-04-20T07:49:30Z</time></trkpt><trkpt lat="45.71695729235862" lon="10.224921495896787"><ele>392.33333333333337</ele><time>2026-04-20T07:49:31Z</time></trkpt><trkpt lat="45.717092118492594" lon="10.225138887591303"><ele>396.66666666666663</ele><time>2026-04-20T07:49:32Z</time></trkpt><trkpt lat="45.71721270951722" lon="10.225354706180184"><ele>401.0</ele><time>2026-04-20T07:49:33Z</time></trkpt><trkpt lat="45.71730916274509" lon="10.225594302397436"><ele>398.66666666666663</ele><time>2026-04-20T07:49:34Z</time></trkpt><trkpt lat="45.71742090765501" lon="10.225833132856579"><ele>396.33333333333337</ele><time>2026-04-20T07:49:35Z</time></trkpt><trkpt lat="45.717521333419455" lon="10.22603122323356"><ele>394.0</ele><time>2026-04-20T07:49:36Z</time></trkpt><trkpt lat="45.717644144477866" lon="10.226210337028926"><ele>395.33333333333337</ele><time>2026-04-20T07:49:37Z</time></trkpt><trkpt lat="45.717772607790536" lon="10.226405446182717"><ele>396.66666666666663</ele><time>2026-04-20T07:49:38Z</time></trkpt><trkpt lat="45.71791271104703" lon="10.22660897600004"><ele>398.0</ele><time>2026-04-20T07:49:39Z</time></trkpt><trkpt lat="45.7180499131395" lon="10.226810632655917"><ele>398.0</ele><time>2026-04-20T07:49:40Z</time></trkpt><trkpt lat="45.71818638800709" lon="10.227003030022361"><ele>398.0</ele><time>2026-04-20T07:49:41Z</time></trkpt><trkpt lat="45.71831585542914" lon="10.227190254203132"><ele>398.0</ele><time>2026-04-20T07:49:42Z</time></trkpt><trkpt lat="45.71842711791827" lon="10.227365179134587"><ele>397.25</ele><time>2026-04-20T07:49:43Z</time></trkpt><trkpt lat="45.71853314746221" lon="10.22752578601553"><ele>396.5</ele><time>2026-04-20T07:49:44Z</time></trkpt><trkpt lat="45.718632037333705" lon="10.22767538062831"><ele>395.75</ele><time>2026-04-20T07:49:45Z</time></trkpt><trkpt lat="45.71873901361705" lon="10.227821888582637"><ele>395.0</ele><time>2026-04-20T07:49:46Z</time></trkpt><trkpt lat="45.71882457488138" lon="10.227994118599067"><ele>395.3333333333333</ele><time>2026-04-20T07:49:47Z</time></trkpt><trkpt lat="45.7189332295056" lon="10.228144449240675"><ele>395.66666666666663</ele><time>2026-04-20T07:49:48Z</time></trkpt><trkpt lat="45.71903721790621" lon="10.228330885565896"><ele>396.0</ele><time>2026-04-20T07:49:49Z</time></trkpt><trkpt lat="45.719141374783355" lon="10.228498200911451"><ele>396.0</ele><time>2026-04-20T07:49:50Z</time></trkpt><trkpt lat="45.719237538590846" lon="10.228640821308254"><ele>396.0</ele><time>2026-04-20T07:49:51Z</time></trkpt><trkpt lat="45.719324643013444" lon="10.228777668160902"><ele>396.0</ele><time>2026-04-20T07:49:52Z</time></trkpt><trkpt lat="45.719420280809345" lon="10.228938770455972"><ele>396.0</ele><time>2026-04-20T07:49:53Z</time></trkpt><trkpt lat="45.71949303390553" lon="10.229068797283432"><ele>397.75</ele><time>2026-04-20T07:49:54Z</time></trkpt><trkpt lat="45.719577908630754" lon="10.229186245714505"><ele>399.5</ele><time>2026-04-20T07:49:55Z</time></trkpt><trkpt lat="45.71966664121475" lon="10.229317542909488"><ele>401.25</ele><time>2026-04-20T07:49:56Z</time></trkpt><trkpt lat="45.71975160972593" lon="10.22945428500119"><ele>403.0</ele><time>2026-04-20T07:49:57Z</time></trkpt><trkpt lat="45.71982671869784" lon="10.229597303423784"><ele>403.0</ele><time>2026-04-20T07:49:58Z</time></trkpt><trkpt lat="45.719911365856305" lon="10.229702308376945"><ele>403.0</ele><time>2026-04-20T07:49:59Z</time></trkpt><trkpt lat="45.71998398644364" lon="10.229826711140017"><ele>403.0</ele><time>2026-04-20T07:50:00Z</time></trkpt><trkpt lat="45.7200660539192" lon="10.22995355483865"><ele>403.0</ele><time>2026-04-20T07:50:01Z</time></trkpt><trkpt lat="45.72014057876254" lon="10.230076944763715"><ele>403.25</ele><time>2026-04-20T07:50:02Z</time></trkpt><trkpt lat="45.72022867798865" lon="10.23019336566906"><ele>403.5</ele><time>2026-04-20T07:50:03Z</time></trkpt><trkpt lat="45.72031637482782" lon="10.230301171940091"><ele>403.75</ele><time>2026-04-20T07:50:04Z</time></trkpt><trkpt lat="45.72041454782524" lon="10.230388751436541"><ele>404.0</ele><time>2026-04-20T07:50:05Z</time></trkpt><trkpt lat="45.72052473236771" lon="10.230455811246461"><ele>404.0</ele><time>2026-04-20T07:50:06Z</time></trkpt><trkpt lat="45.720634721836376" lon="10.230522362655154"><ele>404.0</ele><time>2026-04-20T07:50:07Z</time></trkpt><trkpt lat="45.72074314252937" lon="10.230574394346373"><ele>404.0</ele><time>2026-04-20T07:50:08Z</time></trkpt><trkpt lat="45.720860896784465" lon="10.230609887380334"><ele>404.0</ele><time>2026-04-20T07:50:09Z</time></trkpt><trkpt lat="45.72098495688933" lon="10.23063502723287"><ele>404.2</ele><time>2026-04-20T07:50:10Z</time></trkpt><trkpt lat="45.72110819657521" lon="10.2306369185005"><ele>404.4</ele><time>2026-04-20T07:50:11Z</time></trkpt><trkpt lat="45.72121138730239" lon="10.230609600720491"><ele>404.6</ele><time>2026-04-20T07:50:12Z</time></trkpt><trkpt lat="45.721298740095044" lon="10.230573787620619"><ele>404.8</ele><time>2026-04-20T07:50:13Z</time></trkpt><trkpt lat="45.721383913787115" lon="10.230530728256326"><ele>405.0</ele><time>2026-04-20T07:50:14Z</time></trkpt><trkpt lat="45.72146953715516" lon="10.23049476011938"><ele>405.0</ele><time>2026-04-20T07:50:15Z</time></trkpt><trkpt lat="45.721575548615014" lon="10.230458358603386"><ele>405.0</ele><time>2026-04-20T07:50:16Z</time></trkpt><trkpt lat="45.72166458834253" lon="10.230414537418016"><ele>405.0</ele><time>2026-04-20T07:50:17Z</time></trkpt><trkpt lat="45.72173876424731" lon="10.230385982251427"><ele>405.0</ele><time>2026-04-20T07:50:18Z</time></trkpt><trkpt lat="45.72182898129331" lon="10.230378646560476"><ele>405.0</ele><time>2026-04-20T07:50:20Z</time></trkpt><trkpt lat="45.721922120175066" lon="10.230488496713148"><ele>404.8</ele><time>2026-04-20T07:50:22Z</time></trkpt><trkpt lat="45.72193761530218" lon="10.23066669578209"><ele>404.6</ele><time>2026-04-20T07:50:24Z</time></trkpt><trkpt lat="45.721901077803274" lon="10.230772432869761"><ele>404.4</ele><time>2026-04-20T07:50:25Z</time></trkpt><trkpt lat="45.72186171536259" lon="10.230879960410881"><ele>404.2</ele><time>2026-04-20T07:50:26Z</time></trkpt><trkpt lat="45.72180905944963" lon="10.230997961667592"><ele>404.0</ele><time>2026-04-20T07:50:27Z</time></trkpt><trkpt lat="45.72175494255726" lon="10.231077891773834"><ele>404.0</ele><time>2026-04-20T07:50:28Z</time></trkpt><trkpt lat="45.721681334150794" lon="10.231154837637376"><ele>404.0</ele><time>2026-04-20T07:50:29Z</time></trkpt><trkpt lat="45.72158895404487" lon="10.231215146728458"><ele>404.0</ele><time>2026-04-20T07:50:30Z</time></trkpt><trkpt lat="45.7214691050894" lon="10.231274915845905"><ele>404.0</ele><time>2026-04-20T07:50:31Z</time></trkpt><trkpt lat="45.721343224318495" lon="10.231330583737764"><ele>404.0</ele><time>2026-04-20T07:50:32Z</time></trkpt><trkpt lat="45.72121885598684" lon="10.231395039988785"><ele>404.0</ele><time>2026-04-20T07:50:33Z</time></trkpt><trkpt lat="45.721073360366184" lon="10.231453689107974"><ele>404.0</ele><time>2026-04-20T07:50:34Z</time></trkpt><trkpt lat="45.72091611002462" lon="10.231521308885096"><ele>404.0</ele><time>2026-04-20T07:50:35Z</time></trkpt><trkpt lat="45.72074201060419" lon="10.2315976370826"><ele>403.66666666666663</ele><time>2026-04-20T07:50:36Z</time></trkpt><trkpt lat="45.72056312862613" lon="10.23168282190262"><ele>403.33333333333337</ele><time>2026-04-20T07:50:37Z</time></trkpt><trkpt lat="45.720404036346785" lon="10.231749681657336"><ele>403.0</ele><time>2026-04-20T07:50:38Z</time></trkpt><trkpt lat="45.72022524208577" lon="10.231835995608556"><ele>403.0</ele><time>2026-04-20T07:50:39Z</time></trkpt><trkpt lat="45.720038376958485" lon="10.231940138500935"><ele>403.0</ele><time>2026-04-20T07:50:40Z</time></trkpt><trkpt lat="45.71985960976429" lon="10.232039985043448"><ele>403.0</ele><time>2026-04-20T07:50:41Z</time></trkpt><trkpt lat="45.71969244907121" lon="10.232105478138752"><ele>403.0</ele><time>2026-04-20T07:50:42Z</time></trkpt><trkpt lat="45.71953669353335" lon="10.232163503829632"><ele>403.0</ele><time>2026-04-20T07:50:43Z</time></trkpt><trkpt lat="45.71937012347874" lon="10.232227470925478"><ele>403.0</ele><time>2026-04-20T07:50:44Z</time></trkpt><trkpt lat="45.71920723537454" lon="10.232303938887869"><ele>403.75</ele><time>2026-04-20T07:50:45Z</time></trkpt><trkpt lat="45.719055215378944" lon="10.232360794016202"><ele>404.5</ele><time>2026-04-20T07:50:46Z</time></trkpt><trkpt lat="45.7189126209242" lon="10.232416691903886"><ele>405.25</ele><time>2026-04-20T07:50:47Z</time></trkpt><trkpt lat="45.718785914553614" lon="10.232500112114929"><ele>406.0</ele><time>2026-04-20T07:50:48Z</time></trkpt><trkpt lat="45.71867112198865" lon="10.232601039670437"><ele>405.0</ele><time>2026-04-20T07:50:49Z</time></trkpt><trkpt lat="45.718558190889766" lon="10.23274328737125"><ele>404.0</ele><time>2026-04-20T07:50:50Z</time></trkpt><trkpt lat="45.71845261922846" lon="10.232875262967216"><ele>403.0</ele><time>2026-04-20T07:50:51Z</time></trkpt><trkpt lat="45.71835009092414" lon="10.233011835649107"><ele>402.0</ele><time>2026-04-20T07:50:52Z</time></trkpt><trkpt lat="45.71825598533917" lon="10.233138633006922"><ele>405.33333333333337</ele><time>2026-04-20T07:50:53Z</time></trkpt><trkpt lat="45.718175314982915" lon="10.233302709987997"><ele>408.6666666666667</ele><time>2026-04-20T07:50:54Z</time></trkpt><trkpt lat="45.718075120043046" lon="10.233453297799466"><ele>412.0</ele><time>2026-04-20T07:50:55Z</time></trkpt><trkpt lat="45.71797219632182" lon="10.233641895897142"><ele>412.0</ele><time>2026-04-20T07:50:56Z</time></trkpt><trkpt lat="45.71788084651122" lon="10.233845190698478"><ele>412.0</ele><time>2026-04-20T07:50:57Z</time></trkpt><trkpt lat="45.717792854304754" lon="10.234076522722091"><ele>412.0</ele><time>2026-04-20T07:50:58Z</time></trkpt><trkpt lat="45.71772380060264" lon="10.234269793795649"><ele>412.5</ele><time>2026-04-20T07:50:59Z</time></trkpt><trkpt lat="45.717665206939685" lon="10.234446635306213"><ele>413.0</ele><time>2026-04-20T07:51:00Z</time></trkpt><trkpt lat="45.717616101439155" lon="10.234605910811224"><ele>413.5</ele><time>2026-04-20T07:51:01Z</time></trkpt><trkpt lat="45.71756762847064" lon="10.234750495545708"><ele>414.0</ele><time>2026-04-20T07:51:02Z</time></trkpt><trkpt lat="45.71752200827012" lon="10.234889036505104"><ele>414.79999999999995</ele><time>2026-04-20T07:51:03Z</time></trkpt><trkpt lat="45.71747154722169" lon="10.235021037739243"><ele>415.59999999999997</ele><time>2026-04-20T07:51:04Z</time></trkpt><trkpt lat="45.717412779198796" lon="10.235133644314859"><ele>416.4</ele><time>2026-04-20T07:51:05Z</time></trkpt><trkpt lat="45.717364916690116" lon="10.235248643190781"><ele>417.2</ele><time>2026-04-20T07:51:06Z</time></trkpt><trkpt lat="45.717317384545176" lon="10.235362848781316"><ele>418.0</ele><time>2026-04-20T07:51:07Z</time></trkpt><trkpt lat="45.717270190277326" lon="10.235476241959867"><ele>418.0</ele><time>2026-04-20T07:51:08Z</time></trkpt><trkpt lat="45.71722128532954" lon="10.235594100449015"><ele>418.0</ele><time>2026-04-20T07:51:09Z</time></trkpt><trkpt lat="45.71716028325257" lon="10.235744842933434"><ele>418.0</ele><time>2026-04-20T07:51:10Z</time></trkpt><trkpt lat="45.71710717630132" lon="10.235890308102482"><ele>418.0</ele><time>2026-04-20T07:51:11Z</time></trkpt><trkpt lat="45.71705078126635" lon="10.23606775447859"><ele>418.0</ele><time>2026-04-20T07:51:12Z</time></trkpt><trkpt lat="45.71699425736236" lon="10.2362977470483"><ele>418.0</ele><time>2026-04-20T07:51:13Z</time></trkpt><trkpt lat="45.71695155681982" lon="10.236538371625926"><ele>418.0</ele><time>2026-04-20T07:51:14Z</time></trkpt><trkpt lat="45.71692204787768" lon="10.236732276649608"><ele>421.5</ele><time>2026-04-20T07:51:15Z</time></trkpt><trkpt lat="45.71689789750481" lon="10.236904696097579"><ele>425.0</ele><time>2026-04-20T07:51:16Z</time></trkpt><trkpt lat="45.71688153501989" lon="10.237128695048186"><ele>428.5</ele><time>2026-04-20T07:51:17Z</time></trkpt><trkpt lat="45.716893325941925" lon="10.237314566102322"><ele>432.0</ele><time>2026-04-20T07:51:18Z</time></trkpt><trkpt lat="45.71687245885428" lon="10.237481538855326"><ele>432.0</ele><time>2026-04-20T07:51:19Z</time></trkpt><trkpt lat="45.71687155152214" lon="10.237680013451618"><ele>432.0</ele><time>2026-04-20T07:51:20Z</time></trkpt><trkpt lat="45.716880345007816" lon="10.237886744964085"><ele>432.0</ele><time>2026-04-20T07:51:21Z</time></trkpt><trkpt lat="45.71689846955027" lon="10.238101135685682"><ele>432.0</ele><time>2026-04-20T07:51:22Z</time></trkpt><trkpt lat="45.71692974631148" lon="10.238324514454563"><ele>432.25</ele><time>2026-04-20T07:51:23Z</time></trkpt><trkpt lat="45.71696205922247" lon="10.238499754396885"><ele>432.5</ele><time>2026-04-20T07:51:24Z</time></trkpt><trkpt lat="45.7169943497002" lon="10.238685695901264"><ele>432.75</ele><time>2026-04-20T07:51:25Z</time></trkpt><trkpt lat="45.71702080133477" lon="10.238878610723546"><ele>433.0</ele><time>2026-04-20T07:51:26Z</time></trkpt><trkpt lat="45.717048919582936" lon="10.239077305685196"><ele>433.0</ele><time>2026-04-20T07:51:27Z</time></trkpt><trkpt lat="45.71705971236199" lon="10.23928081958027"><ele>433.0</ele><time>2026-04-20T07:51:28Z</time></trkpt><trkpt lat="45.71706547032909" lon="10.239489796067836"><ele>433.0</ele><time>2026-04-20T07:51:29Z</time></trkpt><trkpt lat="45.717067132890136" lon="10.239686721104098"><ele>433.0</ele><time>2026-04-20T07:51:30Z</time></trkpt><trkpt lat="45.71706235795076" lon="10.239876269736936"><ele>436.25</ele><time>2026-04-20T07:51:31Z</time></trkpt><trkpt lat="45.71705475943884" lon="10.240076375233718"><ele>439.5</ele><time>2026-04-20T07:51:32Z</time></trkpt><trkpt lat="45.717032828228525" lon="10.240254524431698"><ele>442.75</ele><time>2026-04-20T07:51:33Z</time></trkpt><trkpt lat="45.71697859035282" lon="10.240413456585607"><ele>446.0</ele><time>2026-04-20T07:51:34Z</time></trkpt><trkpt lat="45.71691659058324" lon="10.240571144369333"><ele>441.0</ele><time>2026-04-20T07:51:35Z</time></trkpt><trkpt lat="45.71682068805999" lon="10.24071635992534"><ele>436.0</ele><time>2026-04-20T07:51:36Z</time></trkpt><trkpt lat="45.7167104780794" lon="10.240839531442674"><ele>431.0</ele><time>2026-04-20T07:51:37Z</time></trkpt><trkpt lat="45.71655547977939" lon="10.240923653998077"><ele>426.0</ele><time>2026-04-20T07:51:38Z</time></trkpt><trkpt lat="45.71640960192204" lon="10.240999432048197"><ele>426.0</ele><time>2026-04-20T07:51:39Z</time></trkpt><trkpt lat="45.716299102513354" lon="10.241088681277763"><ele>426.0</ele><time>2026-04-20T07:51:40Z</time></trkpt><trkpt lat="45.71621328617181" lon="10.241176597290545"><ele>426.0</ele><time>2026-04-20T07:51:41Z</time></trkpt><trkpt lat="45.71612472778655" lon="10.241284684715886"><ele>426.0</ele><time>2026-04-20T07:51:42Z</time></trkpt><trkpt lat="45.71607036935214" lon="10.241425040951226"><ele>428.25</ele><time>2026-04-20T07:51:43Z</time></trkpt><trkpt lat="45.716046286143296" lon="10.241593945855865"><ele>430.5</ele><time>2026-04-20T07:51:44Z</time></trkpt><trkpt lat="45.71604757307732" lon="10.241806938504697"><ele>432.75</ele><time>2026-04-20T07:51:45Z</time></trkpt><trkpt lat="45.7160428120013" lon="10.242036544683433"><ele>435.0</ele><time>2026-04-20T07:51:46Z</time></trkpt><trkpt lat="45.71604588535178" lon="10.242238963177932"><ele>436.0</ele><time>2026-04-20T07:51:47Z</time></trkpt><trkpt lat="45.71603559485655" lon="10.242436786627733"><ele>437.0</ele><time>2026-04-20T07:51:48Z</time></trkpt><trkpt lat="45.71600686106886" lon="10.242633658205042"><ele>438.0</ele><time>2026-04-20T07:51:49Z</time></trkpt><trkpt lat="45.71595850334285" lon="10.242832654719564"><ele>439.0</ele><time>2026-04-20T07:51:50Z</time></trkpt><trkpt lat="45.71589703867766" lon="10.243000549836298"><ele>442.6666666666667</ele><time>2026-04-20T07:51:51Z</time></trkpt><trkpt lat="45.71583325023569" lon="10.243181570362204"><ele>446.33333333333337</ele><time>2026-04-20T07:51:52Z</time></trkpt><trkpt lat="45.71576375201011" lon="10.24336296113813"><ele>450.0</ele><time>2026-04-20T07:51:53Z</time></trkpt><trkpt lat="45.715672833417116" lon="10.2435664063089"><ele>450.0</ele><time>2026-04-20T07:51:54Z</time></trkpt><trkpt lat="45.71558763253119" lon="10.24376879738575"><ele>450.0</ele><time>2026-04-20T07:51:55Z</time></trkpt><trkpt lat="45.71549689196881" lon="10.24396259056526"><ele>450.0</ele><time>2026-04-20T07:51:56Z</time></trkpt><trkpt lat="45.71541922874127" lon="10.244123077366144"><ele>449.5</ele><time>2026-04-20T07:51:57Z</time></trkpt><trkpt lat="45.71533648623208" lon="10.24430188248718"><ele>449.0</ele><time>2026-04-20T07:51:58Z</time></trkpt><trkpt lat="45.715286224779454" lon="10.244460751992543"><ele>448.5</ele><time>2026-04-20T07:51:59Z</time></trkpt><trkpt lat="45.71526198217264" lon="10.244606390528299"><ele>448.0</ele><time>2026-04-20T07:52:00Z</time></trkpt><trkpt lat="45.71523006205017" lon="10.244733853408956"><ele>446.5</ele><time>2026-04-20T07:52:01Z</time></trkpt><trkpt lat="45.7152179888454" lon="10.244884961829351"><ele>445.0</ele><time>2026-04-20T07:52:02Z</time></trkpt><trkpt lat="45.71515567465003" lon="10.24503545588142"><ele>443.5</ele><time>2026-04-20T07:52:03Z</time></trkpt><trkpt lat="45.71506753148714" lon="10.24515211566951"><ele>442.0</ele><time>2026-04-20T07:52:04Z</time></trkpt><trkpt lat="45.71496341308139" lon="10.245257000009312"><ele>442.0</ele><time>2026-04-20T07:52:05Z</time></trkpt><trkpt lat="45.714852266110356" lon="10.245368002376757"><ele>442.0</ele><time>2026-04-20T07:52:06Z</time></trkpt><trkpt lat="45.71473320352295" lon="10.245461829941622"><ele>442.0</ele><time>2026-04-20T07:52:07Z</time></trkpt><trkpt lat="45.71464429078242" lon="10.245574951389091"><ele>442.0</ele><time>2026-04-20T07:52:08Z</time></trkpt><trkpt lat="45.71455110987612" lon="10.24574294581258"><ele>444.0</ele><time>2026-04-20T07:52:09Z</time></trkpt><trkpt lat="45.71446983900987" lon="10.245977819220078"><ele>446.0</ele><time>2026-04-20T07:52:10Z</time></trkpt><trkpt lat="45.71441240958448" lon="10.246194749979487"><ele>448.0</ele><time>2026-04-20T07:52:11Z</time></trkpt><trkpt lat="45.71436465039583" lon="10.246377928385359"><ele>448.25</ele><time>2026-04-20T07:52:12Z</time></trkpt><trkpt lat="45.71431917471442" lon="10.246550544302561"><ele>448.5</ele><time>2026-04-20T07:52:13Z</time></trkpt><trkpt lat="45.71428645332364" lon="10.246674522511226"><ele>448.75</ele><time>2026-04-20T07:52:14Z</time></trkpt><trkpt lat="45.714252489273804" lon="10.246865951913787"><ele>449.0</ele><time>2026-04-20T07:52:15Z</time></trkpt><trkpt lat="45.714176369535835" lon="10.24705530689754"><ele>449.0</ele><time>2026-04-20T07:52:16Z</time></trkpt><trkpt lat="45.71412011807318" lon="10.247243647821358"><ele>449.0</ele><time>2026-04-20T07:52:17Z</time></trkpt><trkpt lat="45.714058322344314" lon="10.247416657136364"><ele>449.0</ele><time>2026-04-20T07:52:18Z</time></trkpt><trkpt lat="45.71397934137961" lon="10.247592268708756"><ele>449.0</ele><time>2026-04-20T07:52:19Z</time></trkpt><trkpt lat="45.71388828987265" lon="10.247785910199028"><ele>451.3333333333333</ele><time>2026-04-20T07:52:20Z</time></trkpt><trkpt lat="45.71379894070717" lon="10.247985673039386"><ele>453.66666666666663</ele><time>2026-04-20T07:52:21Z</time></trkpt><trkpt lat="45.71371232744762" lon="10.248178089650574"><ele>456.0</ele><time>2026-04-20T07:52:22Z</time></trkpt><trkpt lat="45.7136359788018" lon="10.24835338154886"><ele>457.5</ele><time>2026-04-20T07:52:23Z</time></trkpt><trkpt lat="45.713552639594674" lon="10.248524237577868"><ele>459.0</ele><time>2026-04-20T07:52:24Z</time></trkpt><trkpt lat="45.71349261169224" lon="10.248711791940888"><ele>460.5</ele><time>2026-04-20T07:52:25Z</time></trkpt><trkpt lat="45.713436894106046" lon="10.248913979289691"><ele>462.0</ele><time>2026-04-20T07:52:26Z</time></trkpt><trkpt lat="45.71338395200909" lon="10.249113332328353"><ele>462.0</ele><time>2026-04-20T07:52:27Z</time></trkpt><trkpt lat="45.71331933152635" lon="10.249318089391599"><ele>462.0</ele><time>2026-04-20T07:52:28Z</time></trkpt><trkpt lat="45.71324532120185" lon="10.249519585954099"><ele>462.0</ele><time>2026-04-20T07:52:29Z</time></trkpt><trkpt lat="45.71316565695584" lon="10.24971704101691"><ele>466.0</ele><time>2026-04-20T07:52:30Z</time></trkpt><trkpt lat="45.71308182395986" lon="10.249923596206594"><ele>470.0</ele><time>2026-04-20T07:52:31Z</time></trkpt><trkpt lat="45.71301699141846" lon="10.250137277722052"><ele>474.0</ele><time>2026-04-20T07:52:32Z</time></trkpt><trkpt lat="45.712987828382914" lon="10.250334684016888"><ele>474.0</ele><time>2026-04-20T07:52:33Z</time></trkpt><trkpt lat="45.71294075109565" lon="10.25054778569991"><ele>474.0</ele><time>2026-04-20T07:52:34Z</time></trkpt><trkpt lat="45.712898958666386" lon="10.250761972227098"><ele>474.0</ele><time>2026-04-20T07:52:35Z</time></trkpt><trkpt lat="45.712862454032475" lon="10.250962728341735"><ele>477.5</ele><time>2026-04-20T07:52:36Z</time></trkpt><trkpt lat="45.712824168916036" lon="10.25115541079522"><ele>481.0</ele><time>2026-04-20T07:52:37Z</time></trkpt><trkpt lat="45.712778147081096" lon="10.251348820456966"><ele>484.5</ele><time>2026-04-20T07:52:38Z</time></trkpt><trkpt lat="45.71274287322224" lon="10.251535666057173"><ele>488.0</ele><time>2026-04-20T07:52:39Z</time></trkpt><trkpt lat="45.71271652863701" lon="10.251741736224464"><ele>481.3333333333333</ele><time>2026-04-20T07:52:40Z</time></trkpt><trkpt lat="45.71269753264088" lon="10.251955974213779"><ele>474.66666666666663</ele><time>2026-04-20T07:52:41Z</time></trkpt><trkpt lat="45.71267156111148" lon="10.25219099346409"><ele>468.0</ele><time>2026-04-20T07:52:42Z</time></trkpt><trkpt lat="45.71265880053447" lon="10.252432191100597"><ele>468.0</ele><time>2026-04-20T07:52:43Z</time></trkpt><trkpt lat="45.71264477142437" lon="10.252667826714811"><ele>468.0</ele><time>2026-04-20T07:52:44Z</time></trkpt><trkpt lat="45.71262950074231" lon="10.252913829992089"><ele>468.0</ele><time>2026-04-20T07:52:45Z</time></trkpt><trkpt lat="45.712622282819396" lon="10.253163892051822"><ele>470.0</ele><time>2026-04-20T07:52:46Z</time></trkpt><trkpt lat="45.71264292951552" lon="10.253420645111587"><ele>472.0</ele><time>2026-04-20T07:52:47Z</time></trkpt><trkpt lat="45.71267040125451" lon="10.253685550667281"><ele>474.0</ele><time>2026-04-20T07:52:48Z</time></trkpt><trkpt lat="45.7127017722307" lon="10.253931901733594"><ele>474.33333333333337</ele><time>2026-04-20T07:52:49Z</time></trkpt><trkpt lat="45.71271872151343" lon="10.254159316446364"><ele>474.6666666666667</ele><time>2026-04-20T07:52:50Z</time></trkpt><trkpt lat="45.71273640099445" lon="10.254389253993034"><ele>475.0</ele><time>2026-04-20T07:52:50.999Z</time></trkpt><trkpt lat="45.71275969740138" lon="10.254581279701329"><ele>481.25</ele><time>2026-04-20T07:52:51.999Z</time></trkpt><trkpt lat="45.712783770885544" lon="10.254776856920941"><ele>487.5</ele><time>2026-04-20T07:52:52.999Z</time></trkpt><trkpt lat="45.712804796575895" lon="10.254971215082767"><ele>493.75</ele><time>2026-04-20T07:52:53.999Z</time></trkpt><trkpt lat="45.71281273983063" lon="10.255159698096547"><ele>500.0</ele><time>2026-04-20T07:52:54.999Z</time></trkpt><trkpt lat="45.71283504783632" lon="10.255340418059067"><ele>500.0</ele><time>2026-04-20T07:52:55.999Z</time></trkpt><trkpt lat="45.712861559325" lon="10.255528430145562"><ele>500.0</ele><time>2026-04-20T07:52:56.999Z</time></trkpt><trkpt lat="45.7129011994451" lon="10.2556903299898"><ele>500.0</ele><time>2026-04-20T07:52:57.999Z</time></trkpt><trkpt lat="45.712927134520065" lon="10.255848778901655"><ele>500.0</ele><time>2026-04-20T07:52:58.999Z</time></trkpt><trkpt lat="45.712955357587546" lon="10.25601587016067"><ele>496.5</ele><time>2026-04-20T07:52:59.999Z</time></trkpt><trkpt lat="45.712999276590146" lon="10.256186611115528"><ele>493.0</ele><time>2026-04-20T07:53:00.999Z</time></trkpt><trkpt lat="45.71307725940097" lon="10.256349371765756"><ele>489.5</ele><time>2026-04-20T07:53:01.999Z</time></trkpt><trkpt lat="45.71313377518313" lon="10.256478470209677"><ele>486.0</ele><time>2026-04-20T07:53:02.999Z</time></trkpt><trkpt lat="45.71319927818753" lon="10.256596227493924"><ele>484.4</ele><time>2026-04-20T07:53:03.999Z</time></trkpt><trkpt lat="45.71325176053774" lon="10.25669331959647"><ele>482.8</ele><time>2026-04-20T07:53:04.999Z</time></trkpt><trkpt lat="45.71334659055531" lon="10.256819633428863"><ele>481.19999999999993</ele><time>2026-04-20T07:53:06.999Z</time></trkpt><trkpt lat="45.71346264132095" lon="10.256802324816416"><ele>479.59999999999997</ele><time>2026-04-20T07:53:08.999Z</time></trkpt><trkpt lat="45.71349597879328" lon="10.256719178199354"><ele>478.0</ele><time>2026-04-20T07:53:09.999Z</time></trkpt><trkpt lat="45.71352735714325" lon="10.256600999461307"><ele>480.6666666666667</ele><time>2026-04-20T07:53:10.999Z</time></trkpt><trkpt lat="45.71350741442697" lon="10.25643323889675"><ele>483.33333333333337</ele><time>2026-04-20T07:53:11.999Z</time></trkpt><trkpt lat="45.713478987079675" lon="10.256225296854431"><ele>486.0</ele><time>2026-04-20T07:53:12.999Z</time></trkpt><trkpt lat="45.71342505511142" lon="10.25596835697821"><ele>486.0</ele><time>2026-04-20T07:53:13.999Z</time></trkpt><trkpt lat="45.71337674884635" lon="10.255687958838076"><ele>486.0</ele><time>2026-04-20T07:53:14.999Z</time></trkpt><trkpt lat="45.713313360431144" lon="10.255406467533884"><ele>486.0</ele><time>2026-04-20T07:53:15.999Z</time></trkpt><trkpt lat="45.71324906744379" lon="10.255144516497948"><ele>489.5</ele><time>2026-04-20T07:53:16.999Z</time></trkpt><trkpt lat="45.71320908449264" lon="10.254915719916431"><ele>493.0</ele><time>2026-04-20T07:53:17.999Z</time></trkpt><trkpt lat="45.71317679586342" lon="10.25471266943997"><ele>496.5</ele><time>2026-04-20T07:53:18.999Z</time></trkpt><trkpt lat="45.713139954731815" lon="10.254549423690293"><ele>500.0</ele><time>2026-04-20T07:53:19.999Z</time></trkpt><trkpt lat="45.71309915940314" lon="10.254404660557773"><ele>501.0</ele><time>2026-04-20T07:53:20.999Z</time></trkpt><trkpt lat="45.71307134297096" lon="10.25425704780197"><ele>502.0</ele><time>2026-04-20T07:53:21.999Z</time></trkpt><trkpt lat="45.71306865534654" lon="10.254101923786228"><ele>503.0</ele><time>2026-04-20T07:53:22.999Z</time></trkpt><trkpt lat="45.71305363345341" lon="10.253936565403857"><ele>504.0</ele><time>2026-04-20T07:53:23.999Z</time></trkpt><trkpt lat="45.713040684612736" lon="10.253727817586379"><ele>502.6666666666667</ele><time>2026-04-20T07:53:24.999Z</time></trkpt><trkpt lat="45.71303988879096" lon="10.253553364536097"><ele>501.33333333333337</ele><time>2026-04-20T07:53:25.999Z</time></trkpt><trkpt lat="45.71306210873839" lon="10.253414527136245"><ele>500.0</ele><time>2026-04-20T07:53:26.999Z</time></trkpt><trkpt lat="45.71305763005987" lon="10.253287424280266"><ele>498.6666666666667</ele><time>2026-04-20T07:53:27.999Z</time></trkpt><trkpt lat="45.71304884418953" lon="10.253179469837388"><ele>497.33333333333337</ele><time>2026-04-20T07:53:28.999Z</time></trkpt><trkpt lat="45.71304031964638" lon="10.253089532826943"><ele>496.0</ele><time>2026-04-20T07:53:29.999Z</time></trkpt><trkpt lat="45.71306013983429" lon="10.252998461764493"><ele>496.0</ele><time>2026-04-20T07:53:30.999Z</time></trkpt><trkpt lat="45.71315569793815" lon="10.2529271140344"><ele>496.0</ele><time>2026-04-20T07:53:32.999Z</time></trkpt><trkpt lat="45.713251083040404" lon="10.252994853844735"><ele>496.0</ele><time>2026-04-20T07:53:34.999Z</time></trkpt><trkpt lat="45.71328241424084" lon="10.253092559997212"><ele>496.0</ele><time>2026-04-20T07:53:35.999Z</time></trkpt><trkpt lat="45.713266121277336" lon="10.253234440949571"><ele>496.0</ele><time>2026-04-20T07:53:36.999Z</time></trkpt><trkpt lat="45.71323348322193" lon="10.253428326285466"><ele>496.0</ele><time>2026-04-20T07:53:37.999Z</time></trkpt><trkpt lat="45.71320294052177" lon="10.253611376059904"><ele>496.0</ele><time>2026-04-20T07:53:38.999Z</time></trkpt><trkpt lat="45.71317730045988" lon="10.253779336746787"><ele>496.0</ele><time>2026-04-20T07:53:39.999Z</time></trkpt><trkpt lat="45.71317455729477" lon="10.253969672413815"><ele>496.0</ele><time>2026-04-20T07:53:40.999Z</time></trkpt><trkpt lat="45.71320095918383" lon="10.254161445585389"><ele>497.0</ele><time>2026-04-20T07:53:41.999Z</time></trkpt><trkpt lat="45.713251706403526" lon="10.254332073756736"><ele>498.0</ele><time>2026-04-20T07:53:42.999Z</time></trkpt><trkpt lat="45.713318308601245" lon="10.254496808476365"><ele>499.0</ele><time>2026-04-20T07:53:43.999Z</time></trkpt><trkpt lat="45.713384908975215" lon="10.254653323782053"><ele>500.0</ele><time>2026-04-20T07:53:44.999Z</time></trkpt><trkpt lat="45.713454304065785" lon="10.254814451527741"><ele>500.0</ele><time>2026-04-20T07:53:45.999Z</time></trkpt><trkpt lat="45.71352782700618" lon="10.254977856442522"><ele>500.0</ele><time>2026-04-20T07:53:46.999Z</time></trkpt><trkpt lat="45.713601291339664" lon="10.255126142689734"><ele>500.0</ele><time>2026-04-20T07:53:47.999Z</time></trkpt><trkpt lat="45.7136994702725" lon="10.255275060980352"><ele>500.0</ele><time>2026-04-20T07:53:48.999Z</time></trkpt><trkpt lat="45.71381982169654" lon="10.255397569301275"><ele>504.75</ele><time>2026-04-20T07:53:49.999Z</time></trkpt><trkpt lat="45.71394442698743" lon="10.255483000841803"><ele>509.5</ele><time>2026-04-20T07:53:50.999Z</time></trkpt><trkpt lat="45.71406773492872" lon="10.255536750461014"><ele>514.25</ele><time>2026-04-20T07:53:51.999Z</time></trkpt><trkpt lat="45.71419330042837" lon="10.255582582214826"><ele>519.0</ele><time>2026-04-20T07:53:52.999Z</time></trkpt><trkpt lat="45.71429977112341" lon="10.255621796090098"><ele>519.0</ele><time>2026-04-20T07:53:53.999Z</time></trkpt><trkpt lat="45.7143702352947" lon="10.255650848907411"><ele>519.0</ele><time>2026-04-20T07:53:54.999Z</time></trkpt><trkpt lat="45.71443572009772" lon="10.255695008952266"><ele>519.0</ele><time>2026-04-20T07:53:55.999Z</time></trkpt><trkpt lat="45.71446997340445" lon="10.255813239384805"><ele>519.0</ele><time>2026-04-20T07:53:57.999Z</time></trkpt><trkpt lat="45.71442032442864" lon="10.25599234211653"><ele>519.0</ele><time>2026-04-20T07:53:59.999Z</time></trkpt><trkpt lat="45.71437290608041" lon="10.256102442538534"><ele>519.0</ele><time>2026-04-20T07:54:00.999Z</time></trkpt><trkpt lat="45.71433449358671" lon="10.256211207571084"><ele>519.0</ele><time>2026-04-20T07:54:01.999Z</time></trkpt><trkpt lat="45.71430664344186" lon="10.256353883315882"><ele>519.0</ele><time>2026-04-20T07:54:02.999Z</time></trkpt><trkpt lat="45.71432369611606" lon="10.256494580930282"><ele>519.0</ele><time>2026-04-20T07:54:03.999Z</time></trkpt><trkpt lat="45.714388878216624" lon="10.256598188624206"><ele>519.0</ele><time>2026-04-20T07:54:04.999Z</time></trkpt><trkpt lat="45.71445610080728" lon="10.25668010426075"><ele>525.5</ele><time>2026-04-20T07:54:05.999Z</time></trkpt><trkpt lat="45.71454100735928" lon="10.256775147330071"><ele>532.0</ele><time>2026-04-20T07:54:06.999Z</time></trkpt><trkpt lat="45.71461041478769" lon="10.25689882777545"><ele>538.5</ele><time>2026-04-20T07:54:07.999Z</time></trkpt><trkpt lat="45.71469483837396" lon="10.257022517515981"><ele>545.0</ele><time>2026-04-20T07:54:08.999Z</time></trkpt><trkpt lat="45.71483133696611" lon="10.257151653239756"><ele>545.0</ele><time>2026-04-20T07:54:09.999Z</time></trkpt><trkpt lat="45.71498897541525" lon="10.257280728335408"><ele>545.0</ele><time>2026-04-20T07:54:10.999Z</time></trkpt><trkpt lat="45.71517058941653" lon="10.25741900198709"><ele>545.0</ele><time>2026-04-20T07:54:11.999Z</time></trkpt><trkpt lat="45.71532027600211" lon="10.257572879648698"><ele>547.0</ele><time>2026-04-20T07:54:12.999Z</time></trkpt><trkpt lat="45.71545020953058" lon="10.257749458720433"><ele>549.0</ele><time>2026-04-20T07:54:13.999Z</time></trkpt><trkpt lat="45.71558073330372" lon="10.257888514495127"><ele>551.0</ele><time>2026-04-20T07:54:14.999Z</time></trkpt><trkpt lat="45.71571672673131" lon="10.258026100378308"><ele>548.0</ele><time>2026-04-20T07:54:15.999Z</time></trkpt><trkpt lat="45.71582959654605" lon="10.258166693950749"><ele>545.0</ele><time>2026-04-20T07:54:16.999Z</time></trkpt><trkpt lat="45.7159062001683" lon="10.258346361221381"><ele>542.0</ele><time>2026-04-20T07:54:17.999Z</time></trkpt><trkpt lat="45.71595579384519" lon="10.25852637416775"><ele>539.0</ele><time>2026-04-20T07:54:18.999Z</time></trkpt><trkpt lat="45.71598368337251" lon="10.258737355875676"><ele>539.0</ele><time>2026-04-20T07:54:19.999Z</time></trkpt><trkpt lat="45.71598028544582" lon="10.258938560420805"><ele>539.0</ele><time>2026-04-20T07:54:20.999Z</time></trkpt><trkpt lat="45.71594632205322" lon="10.259135579315405"><ele>539.0</ele><time>2026-04-20T07:54:21.999Z</time></trkpt><trkpt lat="45.71588692580279" lon="10.259334760953152"><ele>539.0</ele><time>2026-04-20T07:54:22.999Z</time></trkpt><trkpt lat="45.715823630720436" lon="10.25952434947261"><ele>539.5</ele><time>2026-04-20T07:54:23.999Z</time></trkpt><trkpt lat="45.71577409423586" lon="10.259708303942853"><ele>540.0</ele><time>2026-04-20T07:54:24.999Z</time></trkpt><trkpt lat="45.715758081262216" lon="10.259933524544829"><ele>540.5</ele><time>2026-04-20T07:54:25.999Z</time></trkpt><trkpt lat="45.715794779624225" lon="10.260138544338933"><ele>541.0</ele><time>2026-04-20T07:54:26.999Z</time></trkpt><trkpt lat="45.71586655476996" lon="10.260321536878907"><ele>540.0</ele><time>2026-04-20T07:54:27.999Z</time></trkpt><trkpt lat="45.715940869169195" lon="10.260530399139112"><ele>539.0</ele><time>2026-04-20T07:54:28.999Z</time></trkpt><trkpt lat="45.71603363561087" lon="10.260780597101432"><ele>538.0</ele><time>2026-04-20T07:54:29.999Z</time></trkpt><trkpt lat="45.71614312653881" lon="10.26105884277318"><ele>548.0</ele><time>2026-04-20T07:54:30.999Z</time></trkpt><trkpt lat="45.716243716290855" lon="10.261338893056383"><ele>558.0</ele><time>2026-04-20T07:54:31.999Z</time></trkpt><trkpt lat="45.71633781658395" lon="10.261630561531865"><ele>568.0</ele><time>2026-04-20T07:54:32.999Z</time></trkpt><trkpt lat="45.71642073883961" lon="10.261862343536038"><ele>568.0</ele><time>2026-04-20T07:54:33.999Z</time></trkpt><trkpt lat="45.7165057222798" lon="10.26206799610032"><ele>568.0</ele><time>2026-04-20T07:54:34.999Z</time></trkpt><trkpt lat="45.7165757207927" lon="10.262245996118184"><ele>568.0</ele><time>2026-04-20T07:54:35.999Z</time></trkpt><trkpt lat="45.71662830779767" lon="10.262413669752114"><ele>568.0</ele><time>2026-04-20T07:54:36.999Z</time></trkpt><trkpt lat="45.7166663115997" lon="10.262603872629892"><ele>566.75</ele><time>2026-04-20T07:54:37.999Z</time></trkpt><trkpt lat="45.716663905515865" lon="10.262799241478548"><ele>565.5</ele><time>2026-04-20T07:54:38.999Z</time></trkpt><trkpt lat="45.71668650122821" lon="10.26298695468515"><ele>564.25</ele><time>2026-04-20T07:54:39.999Z</time></trkpt><trkpt lat="45.71673205244377" lon="10.263166079057227"><ele>563.0</ele><time>2026-04-20T07:54:40.999Z</time></trkpt><trkpt lat="45.71682005307397" lon="10.263335306083453"><ele>570.0</ele><time>2026-04-20T07:54:41.999Z</time></trkpt><trkpt lat="45.716946743058806" lon="10.2634678741129"><ele>577.0</ele><time>2026-04-20T07:54:42.999Z</time></trkpt><trkpt lat="45.71708228570064" lon="10.263611510200223"><ele>584.0</ele><time>2026-04-20T07:54:43.999Z</time></trkpt><trkpt lat="45.7171998522056" lon="10.263760467390727"><ele>584.0</ele><time>2026-04-20T07:54:44.999Z</time></trkpt><trkpt lat="45.71729628982276" lon="10.263875959682926"><ele>584.0</ele><time>2026-04-20T07:54:45.999Z</time></trkpt><trkpt lat="45.71737579531153" lon="10.263992981560706"><ele>584.0</ele><time>2026-04-20T07:54:46.999Z</time></trkpt><trkpt lat="45.717432397117335" lon="10.264133166222676"><ele>584.0</ele><time>2026-04-20T07:54:47.999Z</time></trkpt><trkpt lat="45.71747190283704" lon="10.264247834957176"><ele>584.0</ele><time>2026-04-20T07:54:48.999Z</time></trkpt><trkpt lat="45.71756823970355" lon="10.26433373185829"><ele>584.0</ele><time>2026-04-20T07:54:50.999Z</time></trkpt><trkpt lat="45.71762145192363" lon="10.264282632356972"><ele>584.0</ele><time>2026-04-20T07:54:51.999Z</time></trkpt><trkpt lat="45.71770206377618" lon="10.264193068952325"><ele>584.0</ele><time>2026-04-20T07:54:52.999Z</time></trkpt><trkpt lat="45.71771535967885" lon="10.264017224417719"><ele>584.0</ele><time>2026-04-20T07:54:53.999Z</time></trkpt><trkpt lat="45.71763276664291" lon="10.263904731278995"><ele>584.0</ele><time>2026-04-20T07:54:54.999Z</time></trkpt><trkpt lat="45.717531780143965" lon="10.26380649708351"><ele>584.0</ele><time>2026-04-20T07:54:55.999Z</time></trkpt><trkpt lat="45.71742993450368" lon="10.263656869185278"><ele>584.0</ele><time>2026-04-20T07:54:56.999Z</time></trkpt><trkpt lat="45.71734518610307" lon="10.263468941603202"><ele>584.0</ele><time>2026-04-20T07:54:57.999Z</time></trkpt><trkpt lat="45.71725434249226" lon="10.263261609962262"><ele>587.5</ele><time>2026-04-20T07:54:58.999Z</time></trkpt><trkpt lat="45.71716628906559" lon="10.26308625019722"><ele>591.0</ele><time>2026-04-20T07:54:59.999Z</time></trkpt><trkpt lat="45.717082014623415" lon="10.262962463143497"><ele>594.5</ele><time>2026-04-20T07:55:00.999Z</time></trkpt><trkpt lat="45.71701729862404" lon="10.262874125223899"><ele>598.0</ele><time>2026-04-20T07:55:01.999Z</time></trkpt><trkpt lat="45.717014808955895" lon="10.26272443895831"><ele>598.0</ele><time>2026-04-20T07:55:03.999Z</time></trkpt><trkpt lat="45.717099008126944" lon="10.262653044728344"><ele>598.0</ele><time>2026-04-20T07:55:05.999Z</time></trkpt><trkpt lat="45.71716325868783" lon="10.262610625907259"><ele>598.0</ele><time>2026-04-20T07:55:06.999Z</time></trkpt><trkpt lat="45.71720847054727" lon="10.262789496623004"><ele>598.0</ele><time>2026-04-20T07:55:07.999Z</time></trkpt><trkpt lat="45.717290666394625" lon="10.262993272816356"><ele>593.3333333333334</ele><time>2026-04-20T07:55:08.999Z</time></trkpt><trkpt lat="45.71738714307732" lon="10.263172265167382"><ele>588.6666666666666</ele><time>2026-04-20T07:55:09.999Z</time></trkpt><trkpt lat="45.71747288473249" lon="10.263354720474046"><ele>584.0</ele><time>2026-04-20T07:55:10.999Z</time></trkpt><trkpt lat="45.71754571712683" lon="10.263587439119311"><ele>584.0</ele><time>2026-04-20T07:55:11.999Z</time></trkpt><trkpt lat="45.717686292241176" lon="10.26375500211347"><ele>584.0</ele><time>2026-04-20T07:55:12.999Z</time></trkpt><trkpt lat="45.717810019716325" lon="10.263879855785941"><ele>584.0</ele><time>2026-04-20T07:55:13.999Z</time></trkpt><trkpt lat="45.71789478391415" lon="10.263985726730871"><ele>584.0</ele><time>2026-04-20T07:55:14.999Z</time></trkpt><trkpt lat="45.71796964979613" lon="10.26416975161419"><ele>590.3333333333333</ele><time>2026-04-20T07:55:15.999Z</time></trkpt><trkpt lat="45.718033201678345" lon="10.264356843523487"><ele>596.6666666666666</ele><time>2026-04-20T07:55:16.999Z</time></trkpt><trkpt lat="45.71813471037913" lon="10.264545636648034"><ele>603.0</ele><time>2026-04-20T07:55:17.999Z</time></trkpt><trkpt lat="45.71825477933989" lon="10.264693231367803"><ele>599.0</ele><time>2026-04-20T07:55:18.999Z</time></trkpt><trkpt lat="45.71834304017386" lon="10.264821260537342"><ele>595.0</ele><time>2026-04-20T07:55:19.999Z</time></trkpt><trkpt lat="45.718451008171066" lon="10.26493867413659"><ele>591.0</ele><time>2026-04-20T07:55:20.999Z</time></trkpt><trkpt lat="45.718557410286074" lon="10.265029076349087"><ele>587.0</ele><time>2026-04-20T07:55:21.999Z</time></trkpt><trkpt lat="45.71863955959968" lon="10.265083791739826"><ele>594.2</ele><time>2026-04-20T07:55:22.999Z</time></trkpt><trkpt lat="45.71873202450119" lon="10.265141969867985"><ele>601.4000000000001</ele><time>2026-04-20T07:55:23.999Z</time></trkpt><trkpt lat="45.71879029489958" lon="10.265224624605603"><ele>608.5999999999999</ele><time>2026-04-20T07:55:24.999Z</time></trkpt><trkpt lat="45.718842460164524" lon="10.26534089127772"><ele>615.8</ele><time>2026-04-20T07:55:26.999Z</time></trkpt><trkpt lat="45.71879946495006" lon="10.265452830073666"><ele>623.0</ele><time>2026-04-20T07:55:27.999Z</time></trkpt><trkpt lat="45.71861634057577" lon="10.265471484563024"><ele>618.1999999999999</ele><time>2026-04-20T07:55:29.999Z</time></trkpt><trkpt lat="45.71850388231713" lon="10.265466161643513"><ele>613.4</ele><time>2026-04-20T07:55:30.999Z</time></trkpt><trkpt lat="45.71841315169865" lon="10.265494778554613"><ele>608.5999999999999</ele><time>2026-04-20T07:55:31.999Z</time></trkpt><trkpt lat="45.71832076788871" lon="10.26551538713151"><ele>603.8</ele><time>2026-04-20T07:55:32.999Z</time></trkpt><trkpt lat="45.71826644354855" lon="10.265576457566436"><ele>599.0</ele><time>2026-04-20T07:55:33.999Z</time></trkpt><trkpt lat="45.71822162453066" lon="10.265676339602603"><ele>599.0</ele><time>2026-04-20T07:55:34.999Z</time></trkpt><trkpt lat="45.718159977078464" lon="10.265889449349025"><ele>599.0</ele><time>2026-04-20T07:55:35.999Z</time></trkpt><trkpt lat="45.718075045132345" lon="10.266133498185457"><ele>599.0</ele><time>2026-04-20T07:55:36.999Z</time></trkpt><trkpt lat="45.71800335124197" lon="10.266323482465646"><ele>600.0</ele><time>2026-04-20T07:55:37.999Z</time></trkpt><trkpt lat="45.71793290998632" lon="10.266496683455696"><ele>601.0</ele><time>2026-04-20T07:55:38.999Z</time></trkpt><trkpt lat="45.71787854856436" lon="10.266689080938567"><ele>602.0</ele><time>2026-04-20T07:55:39.999Z</time></trkpt><trkpt lat="45.71783071914447" lon="10.266852998159646"><ele>603.0</ele><time>2026-04-20T07:55:40.999Z</time></trkpt><trkpt lat="45.71776822710975" lon="10.267017168745308"><ele>600.8</ele><time>2026-04-20T07:55:41.999Z</time></trkpt><trkpt lat="45.7177128166344" lon="10.26715004511937"><ele>598.5999999999999</ele><time>2026-04-20T07:55:42.999Z</time></trkpt><trkpt lat="45.71762907168791" lon="10.26724273985638"><ele>596.4000000000001</ele><time>2026-04-20T07:55:43.999Z</time></trkpt><trkpt lat="45.71759343232841" lon="10.26739210233681"><ele>594.2</ele><time>2026-04-20T07:55:44.999Z</time></trkpt><trkpt lat="45.7175896566853" lon="10.267564440620692"><ele>592.0</ele><time>2026-04-20T07:55:45.999Z</time></trkpt><trkpt lat="45.71763736887503" lon="10.267694437932759"><ele>592.0</ele><time>2026-04-20T07:55:46.999Z</time></trkpt><trkpt lat="45.71770519930657" lon="10.267797987169786"><ele>592.0</ele><time>2026-04-20T07:55:47.999Z</time></trkpt><trkpt lat="45.717777398249076" lon="10.267958783182497"><ele>592.0</ele><time>2026-04-20T07:55:48.999Z</time></trkpt><trkpt lat="45.71788124753634" lon="10.26810285677802"><ele>592.0</ele><time>2026-04-20T07:55:49.999Z</time></trkpt><trkpt lat="45.71799436011248" lon="10.26820800143117"><ele>596.0</ele><time>2026-04-20T07:55:50.999Z</time></trkpt><trkpt lat="45.71807091702869" lon="10.268318649048352"><ele>600.0</ele><time>2026-04-20T07:55:51.999Z</time></trkpt><trkpt lat="45.7181282883578" lon="10.26840098740433"><ele>604.0</ele><time>2026-04-20T07:55:52.999Z</time></trkpt><trkpt lat="45.718169313846666" lon="10.26858671290844"><ele>608.0</ele><time>2026-04-20T07:55:54.999Z</time></trkpt><trkpt lat="45.718085631539715" lon="10.268705637150031"><ele>612.0</ele><time>2026-04-20T07:55:56.999Z</time></trkpt><trkpt lat="45.7179927359996" lon="10.268697600774713"><ele>612.0</ele><time>2026-04-20T07:55:57.999Z</time></trkpt><trkpt lat="45.717868645417" lon="10.268701300496712"><ele>612.0</ele><time>2026-04-20T07:55:58.999Z</time></trkpt><trkpt lat="45.71774974934812" lon="10.268754945581097"><ele>612.0</ele><time>2026-04-20T07:55:59.999Z</time></trkpt><trkpt lat="45.717650234294084" lon="10.268851513537914"><ele>612.0</ele><time>2026-04-20T07:56:00.999Z</time></trkpt><trkpt lat="45.71757858004405" lon="10.268957568184405"><ele>610.75</ele><time>2026-04-20T07:56:01.999Z</time></trkpt><trkpt lat="45.71754483375351" lon="10.269118309793265"><ele>609.5</ele><time>2026-04-20T07:56:02.999Z</time></trkpt><trkpt lat="45.717531072997794" lon="10.269301348896748"><ele>608.25</ele><time>2026-04-20T07:56:03.999Z</time></trkpt><trkpt lat="45.7175506206468" lon="10.26949820435804"><ele>607.0</ele><time>2026-04-20T07:56:04.999Z</time></trkpt><trkpt lat="45.717572449627" lon="10.269684723460015"><ele>610.4</ele><time>2026-04-20T07:56:05.999Z</time></trkpt><trkpt lat="45.717590761276156" lon="10.269835367419335"><ele>613.8000000000001</ele><time>2026-04-20T07:56:06.999Z</time></trkpt><trkpt lat="45.717603887922174" lon="10.269960400517656"><ele>617.2</ele><time>2026-04-20T07:56:07.999Z</time></trkpt><trkpt lat="45.717593587176026" lon="10.270122677242547"><ele>620.6</ele><time>2026-04-20T07:56:09.999Z</time></trkpt><trkpt lat="45.71750831288159" lon="10.270139269310471"><ele>624.0</ele><time>2026-04-20T07:56:10.999Z</time></trkpt><trkpt lat="45.717423596403734" lon="10.270080540217412"><ele>624.0</ele><time>2026-04-20T07:56:11.999Z</time></trkpt><trkpt lat="45.71732275222836" lon="10.269963939988154"><ele>624.0</ele><time>2026-04-20T07:56:12.999Z</time></trkpt><trkpt lat="45.717205677078496" lon="10.269846390342854"><ele>624.0</ele><time>2026-04-20T07:56:13.999Z</time></trkpt><trkpt lat="45.71710644522346" lon="10.269773485711914"><ele>624.0</ele><time>2026-04-20T07:56:14.999Z</time></trkpt><trkpt lat="45.71702654945107" lon="10.269697954894394"><ele>621.75</ele><time>2026-04-20T07:56:15.999Z</time></trkpt><trkpt lat="45.71692989399025" lon="10.269619603823012"><ele>619.5</ele><time>2026-04-20T07:56:16.999Z</time></trkpt><trkpt lat="45.716819157073736" lon="10.269640666450652"><ele>617.25</ele><time>2026-04-20T07:56:17.999Z</time></trkpt><trkpt lat="45.71675285993698" lon="10.269720801670507"><ele>615.0</ele><time>2026-04-20T07:56:18.999Z</time></trkpt><trkpt lat="45.71666839263695" lon="10.269894784459462"><ele>615.0</ele><time>2026-04-20T07:56:19.999Z</time></trkpt><trkpt lat="45.71656158676061" lon="10.270066957980255"><ele>615.0</ele><time>2026-04-20T07:56:20.999Z</time></trkpt><trkpt lat="45.716454509000535" lon="10.270286823927343"><ele>615.0</ele><time>2026-04-20T07:56:21.999Z</time></trkpt><trkpt lat="45.71635387426381" lon="10.270479300349786"><ele>618.0</ele><time>2026-04-20T07:56:22.999Z</time></trkpt><trkpt lat="45.71626528916357" lon="10.270626207924824"><ele>621.0</ele><time>2026-04-20T07:56:23.999Z</time></trkpt><trkpt lat="45.716207031645915" lon="10.270759470566327"><ele>624.0</ele><time>2026-04-20T07:56:24.999Z</time></trkpt><trkpt lat="45.71615369976735" lon="10.270843544881938"><ele>627.0</ele><time>2026-04-20T07:56:25.999Z</time></trkpt><trkpt lat="45.71611300898789" lon="10.270933126037061"><ele>630.0</ele><time>2026-04-20T07:56:26.999Z</time></trkpt><trkpt lat="45.71610494973668" lon="10.271038342079489"><ele>630.0</ele><time>2026-04-20T07:56:27.999Z</time></trkpt><trkpt lat="45.716133297760216" lon="10.271129098377997"><ele>630.0</ele><time>2026-04-20T07:56:28.999Z</time></trkpt><trkpt lat="45.71621543824562" lon="10.271199677403168"><ele>630.0</ele><time>2026-04-20T07:56:29.999Z</time></trkpt><trkpt lat="45.71630169827732" lon="10.271265458483175"><ele>630.0</ele><time>2026-04-20T07:56:30.999Z</time></trkpt><trkpt lat="45.71640293278342" lon="10.271183275694458"><ele>630.0</ele><time>2026-04-20T07:56:31.999Z</time></trkpt><trkpt lat="45.71646793514681" lon="10.270983789899375"><ele>630.0</ele><time>2026-04-20T07:56:32.999Z</time></trkpt><trkpt lat="45.71654746104375" lon="10.270833094324226"><ele>630.0</ele><time>2026-04-20T07:56:33.999Z</time></trkpt><trkpt lat="45.71661888652781" lon="10.270676381385021"><ele>630.0</ele><time>2026-04-20T07:56:34.999Z</time></trkpt><trkpt lat="45.71667794820362" lon="10.270544866268011"><ele>630.0</ele><time>2026-04-20T07:56:35.999Z</time></trkpt><trkpt lat="45.71672138984065" lon="10.270432092873213"><ele>630.0</ele><time>2026-04-20T07:56:36.999Z</time></trkpt><trkpt lat="45.716768946274115" lon="10.27034469101964"><ele>630.0</ele><time>2026-04-20T07:56:37.999Z</time></trkpt><trkpt lat="45.71684812523335" lon="10.270332874172109"><ele>630.0</ele><time>2026-04-20T07:56:38.999Z</time></trkpt><trkpt lat="45.71691241123874" lon="10.270377794786302"><ele>630.0</ele><time>2026-04-20T07:56:39.999Z</time></trkpt><trkpt lat="45.71694984210843" lon="10.27048381811987"><ele>630.0</ele><time>2026-04-20T07:56:40.999Z</time></trkpt><trkpt lat="45.716946891949675" lon="10.270608781488335"><ele>630.0</ele><time>2026-04-20T07:56:41.999Z</time></trkpt><trkpt lat="45.71685658556658" lon="10.270745205462653"><ele>630.0</ele><time>2026-04-20T07:56:42.999Z</time></trkpt><trkpt lat="45.71677859928795" lon="10.270880843876204"><ele>630.0</ele><time>2026-04-20T07:56:43.999Z</time></trkpt><trkpt lat="45.71668483013754" lon="10.271044697202425"><ele>630.0</ele><time>2026-04-20T07:56:44.999Z</time></trkpt><trkpt lat="45.71659003490317" lon="10.27121391450494"><ele>630.0</ele><time>2026-04-20T07:56:45.999Z</time></trkpt><trkpt lat="45.716502336341385" lon="10.271383817611651"><ele>633.0</ele><time>2026-04-20T07:56:46.999Z</time></trkpt><trkpt lat="45.71644430960409" lon="10.271556921676764"><ele>636.0</ele><time>2026-04-20T07:56:47.999Z</time></trkpt><trkpt lat="45.71641497776428" lon="10.271755663894686"><ele>639.0</ele><time>2026-04-20T07:56:48.999Z</time></trkpt><trkpt lat="45.71642349656931" lon="10.271982216737479"><ele>642.0</ele><time>2026-04-20T07:56:49.999Z</time></trkpt><trkpt lat="45.71645928896625" lon="10.27221899290332"><ele>643.0</ele><time>2026-04-20T07:56:50.999Z</time></trkpt><trkpt lat="45.716504458531496" lon="10.272456574243927"><ele>644.0</ele><time>2026-04-20T07:56:51.999Z</time></trkpt><trkpt lat="45.71656224602454" lon="10.27268969860238"><ele>645.0</ele><time>2026-04-20T07:56:52.999Z</time></trkpt><trkpt lat="45.71664691191871" lon="10.27292736367667"><ele>645.0</ele><time>2026-04-20T07:56:53.999Z</time></trkpt><trkpt lat="45.716741640249566" lon="10.273155371591033"><ele>645.0</ele><time>2026-04-20T07:56:54.999Z</time></trkpt><trkpt lat="45.716849703021644" lon="10.273364359496208"><ele>645.0</ele><time>2026-04-20T07:56:55.999Z</time></trkpt><trkpt lat="45.716949039764614" lon="10.273599123627747"><ele>653.3333333333334</ele><time>2026-04-20T07:56:56.999Z</time></trkpt><trkpt lat="45.717022554901966" lon="10.27382794107388"><ele>661.6666666666667</ele><time>2026-04-20T07:56:57.999Z</time></trkpt><trkpt lat="45.717097834543445" lon="10.27401808451955"><ele>670.0</ele><time>2026-04-20T07:56:58.999Z</time></trkpt><trkpt lat="45.71715438588608" lon="10.274201030133245"><ele>670.0</ele><time>2026-04-20T07:56:59.999Z</time></trkpt><trkpt lat="45.71718235193966" lon="10.27437786001585"><ele>670.0</ele><time>2026-04-20T07:57:00.999Z</time></trkpt><trkpt lat="45.71719467206691" lon="10.27453005146935"><ele>670.0</ele><time>2026-04-20T07:57:01.999Z</time></trkpt><trkpt lat="45.71719400997907" lon="10.27467296430616"><ele>670.0</ele><time>2026-04-20T07:57:02.999Z</time></trkpt><trkpt lat="45.71716666143892" lon="10.274833061043063"><ele>670.0</ele><time>2026-04-20T07:57:03.999Z</time></trkpt><trkpt lat="45.71712180227715" lon="10.275026279952167"><ele>669.3333333333334</ele><time>2026-04-20T07:57:04.999Z</time></trkpt><trkpt lat="45.717033973729514" lon="10.275231403581621"><ele>668.6666666666666</ele><time>2026-04-20T07:57:05.999Z</time></trkpt><trkpt lat="45.71694476287465" lon="10.27544148504596"><ele>668.0</ele><time>2026-04-20T07:57:06.999Z</time></trkpt><trkpt lat="45.71687075623878" lon="10.275613401111212"><ele>666.4</ele><time>2026-04-20T07:57:07.999Z</time></trkpt><trkpt lat="45.71682182642962" lon="10.275782349440455"><ele>664.8</ele><time>2026-04-20T07:57:08.999Z</time></trkpt><trkpt lat="45.71677540438523" lon="10.275953581656534"><ele>663.2</ele><time>2026-04-20T07:57:09.999Z</time></trkpt><trkpt lat="45.71673322063064" lon="10.27608147572814"><ele>661.6</ele><time>2026-04-20T07:57:10.999Z</time></trkpt><trkpt lat="45.71670322469185" lon="10.276205701779812"><ele>660.0</ele><time>2026-04-20T07:57:11.999Z</time></trkpt><trkpt lat="45.71670853300288" lon="10.276312730177144"><ele>660.0</ele><time>2026-04-20T07:57:12.999Z</time></trkpt><trkpt lat="45.716804976822004" lon="10.276444871024706"><ele>660.0</ele><time>2026-04-20T07:57:14.999Z</time></trkpt><trkpt lat="45.71689052806523" lon="10.276435253862783"><ele>660.0</ele><time>2026-04-20T07:57:15.999Z</time></trkpt><trkpt lat="45.716990202115106" lon="10.276392621896777"><ele>660.0</ele><time>2026-04-20T07:57:16.999Z</time></trkpt><trkpt lat="45.71710603065593" lon="10.276274184683498"><ele>664.3333333333334</ele><time>2026-04-20T07:57:17.999Z</time></trkpt><trkpt lat="45.71722823173187" lon="10.276136822114193"><ele>668.6666666666667</ele><time>2026-04-20T07:57:18.999Z</time></trkpt><trkpt lat="45.71734734689969" lon="10.276002928348996"><ele>673.0</ele><time>2026-04-20T07:57:19.999Z</time></trkpt><trkpt lat="45.717471379634354" lon="10.27586350681527"><ele>673.0</ele><time>2026-04-20T07:57:20.999Z</time></trkpt><trkpt lat="45.717615450472984" lon="10.275693556360803"><ele>673.0</ele><time>2026-04-20T07:57:21.999Z</time></trkpt><trkpt lat="45.71772719438671" lon="10.275481289748313"><ele>673.0</ele><time>2026-04-20T07:57:22.999Z</time></trkpt><trkpt lat="45.71777126609307" lon="10.2752467202464"><ele>679.0</ele><time>2026-04-20T07:57:23.999Z</time></trkpt><trkpt lat="45.71783720075485" lon="10.275062952877795"><ele>685.0</ele><time>2026-04-20T07:57:24.999Z</time></trkpt><trkpt lat="45.71786940793426" lon="10.274887792351633"><ele>691.0</ele><time>2026-04-20T07:57:25.999Z</time></trkpt><trkpt lat="45.71785851016129" lon="10.274688916919205"><ele>697.0</ele><time>2026-04-20T07:57:26.999Z</time></trkpt><trkpt lat="45.71780935784403" lon="10.274465742560583"><ele>700.6666666666667</ele><time>2026-04-20T07:57:27.999Z</time></trkpt><trkpt lat="45.71775198412199" lon="10.274230255011872"><ele>704.3333333333334</ele><time>2026-04-20T07:57:28.999Z</time></trkpt><trkpt lat="45.717688747921926" lon="10.27398847779043"><ele>708.0</ele><time>2026-04-20T07:57:29.999Z</time></trkpt><trkpt lat="45.717612336083896" lon="10.273759523191204"><ele>700.0</ele><time>2026-04-20T07:57:30.999Z</time></trkpt><trkpt lat="45.71757294409813" lon="10.273535373880286"><ele>692.0</ele><time>2026-04-20T07:57:31.999Z</time></trkpt><trkpt lat="45.717534543899845" lon="10.27331151293268"><ele>684.0</ele><time>2026-04-20T07:57:32.999Z</time></trkpt><trkpt lat="45.71750919528856" lon="10.273148505651038"><ele>676.0</ele><time>2026-04-20T07:57:33.999Z</time></trkpt><trkpt lat="45.71748546897232" lon="10.272990594479944"><ele>676.0</ele><time>2026-04-20T07:57:34.999Z</time></trkpt><trkpt lat="45.717466840470394" lon="10.27283968574453"><ele>676.0</ele><time>2026-04-20T07:57:35.999Z</time></trkpt><trkpt lat="45.71745628708766" lon="10.272716167682766"><ele>676.0</ele><time>2026-04-20T07:57:36.999Z</time></trkpt><trkpt lat="45.717475690789406" lon="10.272588959362269"><ele>676.0</ele><time>2026-04-20T07:57:37.999Z</time></trkpt><trkpt lat="45.71752947436877" lon="10.27247228159062"><ele>676.0</ele><time>2026-04-20T07:57:38.999Z</time></trkpt><trkpt lat="45.717600675093145" lon="10.2723591142158"><ele>677.1999999999999</ele><time>2026-04-20T07:57:39.999Z</time></trkpt><trkpt lat="45.717658528756786" lon="10.272267393673447"><ele>678.4</ele><time>2026-04-20T07:57:40.999Z</time></trkpt><trkpt lat="45.717717264616155" lon="10.272176185018361"><ele>679.6</ele><time>2026-04-20T07:57:41.999Z</time></trkpt><trkpt lat="45.71776431146806" lon="10.272082688766647"><ele>680.8</ele><time>2026-04-20T07:57:42.999Z</time></trkpt><trkpt lat="45.717853571857376" lon="10.271975291882516"><ele>682.0</ele><time>2026-04-20T07:57:44.999Z</time></trkpt><trkpt lat="45.717964669782276" lon="10.271954049767567"><ele>682.0</ele><time>2026-04-20T07:57:46.999Z</time></trkpt><trkpt lat="45.718005744473956" lon="10.272110970104341"><ele>682.0</ele><time>2026-04-20T07:57:48.999Z</time></trkpt><trkpt lat="45.71789726625261" lon="10.272223440503017"><ele>682.0</ele><time>2026-04-20T07:57:50.999Z</time></trkpt><trkpt lat="45.71781053587493" lon="10.272284623524362"><ele>682.0</ele><time>2026-04-20T07:57:51.998Z</time></trkpt><trkpt lat="45.717749639305275" lon="10.272371456486349"><ele>682.0</ele><time>2026-04-20T07:57:52.998Z</time></trkpt><trkpt lat="45.71769576126422" lon="10.272481014507072"><ele>680.8</ele><time>2026-04-20T07:57:53.998Z</time></trkpt><trkpt lat="45.71765826999984" lon="10.272621117356616"><ele>679.6</ele><time>2026-04-20T07:57:54.998Z</time></trkpt><trkpt lat="45.71764423006352" lon="10.272787983338526"><ele>678.4</ele><time>2026-04-20T07:57:55.998Z</time></trkpt><trkpt lat="45.71764780444028" lon="10.272942633799383"><ele>677.1999999999999</ele><time>2026-04-20T07:57:56.998Z</time></trkpt><trkpt lat="45.71767222242205" lon="10.273098103486152"><ele>676.0</ele><time>2026-04-20T07:57:57.998Z</time></trkpt><trkpt lat="45.71771499759277" lon="10.273265489017664"><ele>684.5</ele><time>2026-04-20T07:57:58.998Z</time></trkpt><trkpt lat="45.71776716580866" lon="10.27343246898234"><ele>693.0</ele><time>2026-04-20T07:57:59.998Z</time></trkpt><trkpt lat="45.71782724944048" lon="10.273606106317601"><ele>701.5</ele><time>2026-04-20T07:58:00.998Z</time></trkpt><trkpt lat="45.71789115367167" lon="10.273765596620812"><ele>710.0</ele><time>2026-04-20T07:58:01.998Z</time></trkpt><trkpt lat="45.71795997600441" lon="10.273916980814597"><ele>709.5</ele><time>2026-04-20T07:58:02.998Z</time></trkpt><trkpt lat="45.718029749445996" lon="10.274053243117514"><ele>709.0</ele><time>2026-04-20T07:58:03.998Z</time></trkpt><trkpt lat="45.718106973859406" lon="10.274193922453398"><ele>708.5</ele><time>2026-04-20T07:58:04.998Z</time></trkpt><trkpt lat="45.71817753693351" lon="10.274336339942241"><ele>708.0</ele><time>2026-04-20T07:58:05.998Z</time></trkpt><trkpt lat="45.71825296870281" lon="10.274483570125405"><ele>708.0</ele><time>2026-04-20T07:58:06.998Z</time></trkpt><trkpt lat="45.718341299450266" lon="10.274561872093518"><ele>708.0</ele><time>2026-04-20T07:58:07.998Z</time></trkpt><trkpt lat="45.71843175027095" lon="10.274639566946062"><ele>708.0</ele><time>2026-04-20T07:58:08.998Z</time></trkpt><trkpt lat="45.71853077049384" lon="10.274707830731723"><ele>708.0</ele><time>2026-04-20T07:58:09.998Z</time></trkpt><trkpt lat="45.718595171430515" lon="10.274826535349407"><ele>708.0</ele><time>2026-04-20T07:58:10.998Z</time></trkpt><trkpt lat="45.71864978403592" lon="10.27496362412976"><ele>712.75</ele><time>2026-04-20T07:58:11.998Z</time></trkpt><trkpt lat="45.71869275120488" lon="10.275121633690146"><ele>717.5</ele><time>2026-04-20T07:58:12.998Z</time></trkpt><trkpt lat="45.71869723854825" lon="10.275286584051951"><ele>722.25</ele><time>2026-04-20T07:58:13.998Z</time></trkpt><trkpt lat="45.71865863290957" lon="10.275437069241924"><ele>727.0</ele><time>2026-04-20T07:58:14.998Z</time></trkpt><trkpt lat="45.71863765128881" lon="10.275598210686743"><ele>725.8</ele><time>2026-04-20T07:58:15.998Z</time></trkpt><trkpt lat="45.718648483864904" lon="10.275749170432993"><ele>724.6</ele><time>2026-04-20T07:58:16.998Z</time></trkpt><trkpt lat="45.71869891548225" lon="10.275889706114889"><ele>723.4</ele><time>2026-04-20T07:58:17.998Z</time></trkpt><trkpt lat="45.7187516153378" lon="10.276012327182672"><ele>722.1999999999999</ele><time>2026-04-20T07:58:18.998Z</time></trkpt><trkpt lat="45.71881343412216" lon="10.27615365412627"><ele>721.0</ele><time>2026-04-20T07:58:19.998Z</time></trkpt><trkpt lat="45.71887815363737" lon="10.27631378310039"><ele>719.75</ele><time>2026-04-20T07:58:20.998Z</time></trkpt><trkpt lat="45.71893119681863" lon="10.276484401800145"><ele>718.5</ele><time>2026-04-20T07:58:21.998Z</time></trkpt><trkpt lat="45.71897809289136" lon="10.276671164823359"><ele>717.25</ele><time>2026-04-20T07:58:22.998Z</time></trkpt><trkpt lat="45.71902067414379" lon="10.276828742521303"><ele>716.0</ele><time>2026-04-20T07:58:23.998Z</time></trkpt><trkpt lat="45.71906244267015" lon="10.276960447375204"><ele>716.0</ele><time>2026-04-20T07:58:24.998Z</time></trkpt><trkpt lat="45.71910323180864" lon="10.277073349703166"><ele>716.0</ele><time>2026-04-20T07:58:25.998Z</time></trkpt><trkpt lat="45.7191240095728" lon="10.277217891303316"><ele>716.0</ele><time>2026-04-20T07:58:26.998Z</time></trkpt><trkpt lat="45.71912589689451" lon="10.277387265814538"><ele>716.0</ele><time>2026-04-20T07:58:27.998Z</time></trkpt><trkpt lat="45.71912108003248" lon="10.277511057785405"><ele>716.0</ele><time>2026-04-20T07:58:28.998Z</time></trkpt><trkpt lat="45.71911135888256" lon="10.277660040328971"><ele>716.1666666666666</ele><time>2026-04-20T07:58:29.998Z</time></trkpt><trkpt lat="45.71905430881047" lon="10.277788126339962"><ele>716.3333333333333</ele><time>2026-04-20T07:58:30.998Z</time></trkpt><trkpt lat="45.71899807543886" lon="10.277911407225957"><ele>716.5</ele><time>2026-04-20T07:58:31.998Z</time></trkpt><trkpt lat="45.718947377861454" lon="10.2780144542746"><ele>716.6666666666666</ele><time>2026-04-20T07:58:32.998Z</time></trkpt><trkpt lat="45.718905804618295" lon="10.278098665667104"><ele>716.8333333333334</ele><time>2026-04-20T07:58:33.998Z</time></trkpt><trkpt lat="45.71887116514499" lon="10.278196252914036"><ele>717.0</ele><time>2026-04-20T07:58:34.998Z</time></trkpt><trkpt lat="45.71885418310162" lon="10.278311625881797"><ele>718.75</ele><time>2026-04-20T07:58:35.998Z</time></trkpt><trkpt lat="45.71881572234789" lon="10.27844674349396"><ele>720.5</ele><time>2026-04-20T07:58:37.998Z</time></trkpt><trkpt lat="45.718723420139156" lon="10.278616442117961"><ele>722.25</ele><time>2026-04-20T07:58:39.998Z</time></trkpt><trkpt lat="45.71864963032199" lon="10.278712628776589"><ele>724.0</ele><time>2026-04-20T07:58:40.998Z</time></trkpt><trkpt lat="45.71857634074357" lon="10.278823136079081"><ele>723.75</ele><time>2026-04-20T07:58:41.998Z</time></trkpt><trkpt lat="45.71851561449963" lon="10.278902563600104"><ele>723.5</ele><time>2026-04-20T07:58:42.998Z</time></trkpt><trkpt lat="45.71838404081002" lon="10.279046794443714"><ele>723.25</ele><time>2026-04-20T07:58:44.998Z</time></trkpt><trkpt lat="45.71827370649456" lon="10.279084688810222"><ele>723.0</ele><time>2026-04-20T07:58:45.998Z</time></trkpt><trkpt lat="45.718138632309795" lon="10.279132754526554"><ele>723.0</ele><time>2026-04-20T07:58:46.998Z</time></trkpt><trkpt lat="45.718021388857395" lon="10.279193738275195"><ele>723.0</ele><time>2026-04-20T07:58:47.998Z</time></trkpt><trkpt lat="45.71790443572929" lon="10.279236758146604"><ele>723.0</ele><time>2026-04-20T07:58:48.998Z</time></trkpt><trkpt lat="45.71778328139757" lon="10.279284814528921"><ele>723.0</ele><time>2026-04-20T07:58:49.998Z</time></trkpt><trkpt lat="45.71769521057153" lon="10.279324459619973"><ele>722.5</ele><time>2026-04-20T07:58:50.998Z</time></trkpt><trkpt lat="45.717596856114994" lon="10.27932982814158"><ele>722.0</ele><time>2026-04-20T07:58:51.998Z</time></trkpt><trkpt lat="45.717495440710074" lon="10.279351503268954"><ele>721.5</ele><time>2026-04-20T07:58:52.998Z</time></trkpt><trkpt lat="45.71736216829128" lon="10.27938795373693"><ele>721.0</ele><time>2026-04-20T07:58:53.998Z</time></trkpt><trkpt lat="45.71721231307865" lon="10.279438290119275"><ele>721.0</ele><time>2026-04-20T07:58:54.998Z</time></trkpt><trkpt lat="45.71705770178156" lon="10.279458082147228"><ele>721.0</ele><time>2026-04-20T07:58:55.998Z</time></trkpt><trkpt lat="45.71690204119577" lon="10.279444954951437"><ele>721.0</ele><time>2026-04-20T07:58:56.998Z</time></trkpt><trkpt lat="45.71674388980726" lon="10.279406000912704"><ele>722.5</ele><time>2026-04-20T07:58:57.998Z</time></trkpt><trkpt lat="45.716607320504835" lon="10.27933431116666"><ele>724.0</ele><time>2026-04-20T07:58:58.998Z</time></trkpt><trkpt lat="45.71647315372685" lon="10.279228505066925"><ele>725.5</ele><time>2026-04-20T07:58:59.998Z</time></trkpt><trkpt lat="45.71634598585204" lon="10.2791160786486"><ele>727.0</ele><time>2026-04-20T07:59:00.998Z</time></trkpt><trkpt lat="45.71620822877076" lon="10.279009750862429"><ele>724.25</ele><time>2026-04-20T07:59:01.998Z</time></trkpt><trkpt lat="45.71607183413435" lon="10.278909369330977"><ele>721.5</ele><time>2026-04-20T07:59:02.998Z</time></trkpt><trkpt lat="45.7159500724546" lon="10.278820809795324"><ele>718.75</ele><time>2026-04-20T07:59:03.998Z</time></trkpt><trkpt lat="45.71584509798013" lon="10.27876908651527"><ele>716.0</ele><time>2026-04-20T07:59:04.998Z</time></trkpt><trkpt lat="45.71575877282826" lon="10.278770575202751"><ele>716.0</ele><time>2026-04-20T07:59:05.998Z</time></trkpt><trkpt lat="45.71566081670665" lon="10.278805401742323"><ele>716.0</ele><time>2026-04-20T07:59:06.998Z</time></trkpt><trkpt lat="45.71556604201671" lon="10.27887054894879"><ele>716.0</ele><time>2026-04-20T07:59:07.998Z</time></trkpt><trkpt lat="45.71549760760491" lon="10.279004998735038"><ele>716.0</ele><time>2026-04-20T07:59:08.998Z</time></trkpt><trkpt lat="45.71545300865375" lon="10.279199768925373"><ele>723.0</ele><time>2026-04-20T07:59:09.998Z</time></trkpt><trkpt lat="45.71541735797372" lon="10.279399936786113"><ele>730.0</ele><time>2026-04-20T07:59:10.998Z</time></trkpt><trkpt lat="45.71537425353311" lon="10.279618010419922"><ele>737.0</ele><time>2026-04-20T07:59:11.998Z</time></trkpt><trkpt lat="45.71530340406818" lon="10.279826123022284"><ele>735.3333333333333</ele><time>2026-04-20T07:59:12.998Z</time></trkpt><trkpt lat="45.715187802826954" lon="10.280007651717355"><ele>733.6666666666666</ele><time>2026-04-20T07:59:13.998Z</time></trkpt><trkpt lat="45.71505435729885" lon="10.280213146488995"><ele>732.0</ele><time>2026-04-20T07:59:14.998Z</time></trkpt><trkpt lat="45.71492350989257" lon="10.280413503812408"><ele>734.0</ele><time>2026-04-20T07:59:15.998Z</time></trkpt><trkpt lat="45.714809863155516" lon="10.280638619370627"><ele>736.0</ele><time>2026-04-20T07:59:16.998Z</time></trkpt><trkpt lat="45.71467616835512" lon="10.28083665522212"><ele>738.0</ele><time>2026-04-20T07:59:17.998Z</time></trkpt><trkpt lat="45.71455900056022" lon="10.281020541753017"><ele>738.0</ele><time>2026-04-20T07:59:18.998Z</time></trkpt><trkpt lat="45.71445364145428" lon="10.281198916440042"><ele>738.0</ele><time>2026-04-20T07:59:19.998Z</time></trkpt><trkpt lat="45.714350272339715" lon="10.281350422580392"><ele>738.0</ele><time>2026-04-20T07:59:20.998Z</time></trkpt><trkpt lat="45.71428620482663" lon="10.281518173342985"><ele>738.0</ele><time>2026-04-20T07:59:21.998Z</time></trkpt><trkpt lat="45.714248695150175" lon="10.281673438624997"><ele>740.0</ele><time>2026-04-20T07:59:22.998Z</time></trkpt><trkpt lat="45.71425485942638" lon="10.28183046860867"><ele>742.0</ele><time>2026-04-20T07:59:23.998Z</time></trkpt><trkpt lat="45.714283094309295" lon="10.281970854131771"><ele>744.0</ele><time>2026-04-20T07:59:24.998Z</time></trkpt><trkpt lat="45.71434725835412" lon="10.28212307923732"><ele>746.0</ele><time>2026-04-20T07:59:25.998Z</time></trkpt><trkpt lat="45.714426418741255" lon="10.282306190391495"><ele>746.0</ele><time>2026-04-20T07:59:26.998Z</time></trkpt><trkpt lat="45.7145222219064" lon="10.282518674688736"><ele>746.0</ele><time>2026-04-20T07:59:27.998Z</time></trkpt><trkpt lat="45.71459571491936" lon="10.28275270137812"><ele>746.0</ele><time>2026-04-20T07:59:28.998Z</time></trkpt><trkpt lat="45.71464744769574" lon="10.283015695695235"><ele>745.75</ele><time>2026-04-20T07:59:29.998Z</time></trkpt><trkpt lat="45.71469315557153" lon="10.283227232945627"><ele>745.5</ele><time>2026-04-20T07:59:30.998Z</time></trkpt><trkpt lat="45.71472398973276" lon="10.283406198337016"><ele>745.25</ele><time>2026-04-20T07:59:31.998Z</time></trkpt><trkpt lat="45.71472786500871" lon="10.283571870086343"><ele>745.0</ele><time>2026-04-20T07:59:32.998Z</time></trkpt><trkpt lat="45.71468818837088" lon="10.283720296027553"><ele>745.0</ele><time>2026-04-20T07:59:33.998Z</time></trkpt><trkpt lat="45.71461673323467" lon="10.283842406626786"><ele>745.0</ele><time>2026-04-20T07:59:34.998Z</time></trkpt><trkpt lat="45.71450546832336" lon="10.28399277154493"><ele>745.0</ele><time>2026-04-20T07:59:35.998Z</time></trkpt><trkpt lat="45.71438624816733" lon="10.28417687604432"><ele>745.0</ele><time>2026-04-20T07:59:36.998Z</time></trkpt><trkpt lat="45.714230821808016" lon="10.284328341178757"><ele>744.6666666666667</ele><time>2026-04-20T07:59:37.998Z</time></trkpt><trkpt lat="45.71406972059955" lon="10.284500537204323"><ele>744.3333333333334</ele><time>2026-04-20T07:59:38.998Z</time></trkpt><trkpt lat="45.713928898819916" lon="10.28467460803248"><ele>744.0</ele><time>2026-04-20T07:59:39.998Z</time></trkpt><trkpt lat="45.71381238196514" lon="10.284802329473209"><ele>744.0</ele><time>2026-04-20T07:59:40.998Z</time></trkpt><trkpt lat="45.71369630847934" lon="10.284959137688876"><ele>744.0</ele><time>2026-04-20T07:59:41.998Z</time></trkpt><trkpt lat="45.713591763394795" lon="10.285149180305426"><ele>744.0</ele><time>2026-04-20T07:59:42.998Z</time></trkpt><trkpt lat="45.71350958802435" lon="10.2853091646673"><ele>743.25</ele><time>2026-04-20T07:59:43.998Z</time></trkpt><trkpt lat="45.7134496968617" lon="10.285469094619241"><ele>742.5</ele><time>2026-04-20T07:59:44.998Z</time></trkpt><trkpt lat="45.7133864903317" lon="10.285636780330712"><ele>741.75</ele><time>2026-04-20T07:59:45.998Z</time></trkpt><trkpt lat="45.713281719400314" lon="10.285755998441449"><ele>741.0</ele><time>2026-04-20T07:59:46.998Z</time></trkpt><trkpt lat="45.71314990365695" lon="10.285834897173997"><ele>741.0</ele><time>2026-04-20T07:59:47.998Z</time></trkpt><trkpt lat="45.712992909291074" lon="10.28587724986476"><ele>741.0</ele><time>2026-04-20T07:59:48.998Z</time></trkpt><trkpt lat="45.71281938042115" lon="10.28590045586018"><ele>741.0</ele><time>2026-04-20T07:59:49.998Z</time></trkpt><trkpt lat="45.71264683925856" lon="10.285936190823675"><ele>738.75</ele><time>2026-04-20T07:59:50.998Z</time></trkpt><trkpt lat="45.71247865558693" lon="10.285949597399565"><ele>736.5</ele><time>2026-04-20T07:59:51.998Z</time></trkpt><trkpt lat="45.71233707600068" lon="10.285972139153262"><ele>734.25</ele><time>2026-04-20T07:59:52.998Z</time></trkpt><trkpt lat="45.7122204587823" lon="10.285992058089947"><ele>732.0</ele><time>2026-04-20T07:59:53.998Z</time></trkpt><trkpt lat="45.71210824253535" lon="10.28603673049876"><ele>732.0</ele><time>2026-04-20T07:59:54.998Z</time></trkpt><trkpt lat="45.71201328805076" lon="10.28605195214932"><ele>732.0</ele><time>2026-04-20T07:59:55.998Z</time></trkpt><trkpt lat="45.71193560633774" lon="10.286090593027273"><ele>732.0</ele><time>2026-04-20T07:59:57.998Z</time></trkpt><trkpt lat="45.71187106798144" lon="10.286083737427669"><ele>732.0</ele><time>2026-04-20T08:00:03.998Z</time></trkpt><trkpt lat="45.711835754374675" lon="10.286167610951294"><ele>732.0</ele><time>2026-04-20T08:00:27.998Z</time></trkpt><trkpt lat="45.71177085413486" lon="10.286285013935748"><ele>732.0</ele><time>2026-04-20T08:00:29.998Z</time></trkpt><trkpt lat="45.711738000991744" lon="10.286362521757658"><ele>731.0</ele><time>2026-04-20T08:00:30.998Z</time></trkpt><trkpt lat="45.711725194931226" lon="10.286465493041785"><ele>730.0</ele><time>2026-04-20T08:00:31.998Z</time></trkpt><trkpt lat="45.71172843839108" lon="10.286565842923393"><ele>729.0</ele><time>2026-04-20T08:00:32.998Z</time></trkpt><trkpt lat="45.711761158009665" lon="10.286664751397348"><ele>728.0</ele><time>2026-04-20T08:00:33.998Z</time></trkpt><trkpt lat="45.711829151046054" lon="10.286746148103706"><ele>727.0</ele><time>2026-04-20T08:00:34.998Z</time></trkpt><trkpt lat="45.71190971146203" lon="10.286824385293247"><ele>726.0</ele><time>2026-04-20T08:00:35.998Z</time></trkpt><trkpt lat="45.71199789428896" lon="10.286922568376268"><ele>729.75</ele><time>2026-04-20T08:00:36.998Z</time></trkpt><trkpt lat="45.71208229545969" lon="10.287048638209791"><ele>733.5</ele><time>2026-04-20T08:00:37.998Z</time></trkpt><trkpt lat="45.71211042205671" lon="10.287209467711387"><ele>737.25</ele><time>2026-04-20T08:00:38.998Z</time></trkpt><trkpt lat="45.712146216457086" lon="10.287419442248094"><ele>741.0</ele><time>2026-04-20T08:00:39.998Z</time></trkpt><trkpt lat="45.712189942191955" lon="10.287614571108355"><ele>741.0</ele><time>2026-04-20T08:00:40.998Z</time></trkpt><trkpt lat="45.71222986583623" lon="10.287798317608068"><ele>741.0</ele><time>2026-04-20T08:00:41.998Z</time></trkpt><trkpt lat="45.71227900974239" lon="10.287963981035128"><ele>741.0</ele><time>2026-04-20T08:00:42.998Z</time></trkpt><trkpt lat="45.71233218085447" lon="10.288108974985422"><ele>741.0</ele><time>2026-04-20T08:00:43.998Z</time></trkpt><trkpt lat="45.71238417149257" lon="10.28825076502966"><ele>739.8</ele><time>2026-04-20T08:00:44.998Z</time></trkpt><trkpt lat="45.712420129867255" lon="10.28840383588568"><ele>738.5999999999999</ele><time>2026-04-20T08:00:45.998Z</time></trkpt><trkpt lat="45.71240348275983" lon="10.288560480056383"><ele>737.4</ele><time>2026-04-20T08:00:46.998Z</time></trkpt><trkpt lat="45.71234644060803" lon="10.288698049155496"><ele>736.2</ele><time>2026-04-20T08:00:47.998Z</time></trkpt><trkpt lat="45.712264200020485" lon="10.288747542646703"><ele>735.0</ele><time>2026-04-20T08:00:48.998Z</time></trkpt><trkpt lat="45.71215388105543" lon="10.28880554267787"><ele>735.0</ele><time>2026-04-20T08:00:49.998Z</time></trkpt><trkpt lat="45.71197976306875" lon="10.288778144706281"><ele>735.0</ele><time>2026-04-20T08:00:50.998Z</time></trkpt><trkpt lat="45.71182530270424" lon="10.288744959001615"><ele>735.0</ele><time>2026-04-20T08:00:51.998Z</time></trkpt><trkpt lat="45.711696065994886" lon="10.288751728781724"><ele>732.0</ele><time>2026-04-20T08:00:52.998Z</time></trkpt><trkpt lat="45.711592801388676" lon="10.28880040541011"><ele>729.0</ele><time>2026-04-20T08:00:53.998Z</time></trkpt><trkpt lat="45.711496735999745" lon="10.288916440452132"><ele>726.0</ele><time>2026-04-20T08:00:54.998Z</time></trkpt><trkpt lat="45.71138416330693" lon="10.289052012344424"><ele>723.0</ele><time>2026-04-20T08:00:55.998Z</time></trkpt><trkpt lat="45.71127783305702" lon="10.289210399461123"><ele>723.0</ele><time>2026-04-20T08:00:56.998Z</time></trkpt><trkpt lat="45.71117746353602" lon="10.28935913070439"><ele>723.0</ele><time>2026-04-20T08:00:57.998Z</time></trkpt><trkpt lat="45.71106969338159" lon="10.289485242539074"><ele>723.0</ele><time>2026-04-20T08:00:58.998Z</time></trkpt><trkpt lat="45.710995230574284" lon="10.289623826973362"><ele>723.0</ele><time>2026-04-20T08:00:59.998Z</time></trkpt><trkpt lat="45.71094177538392" lon="10.28978202875791"><ele>720.0</ele><time>2026-04-20T08:01:00.998Z</time></trkpt><trkpt lat="45.71094198305348" lon="10.289943418293582"><ele>717.0</ele><time>2026-04-20T08:01:01.998Z</time></trkpt><trkpt lat="45.71094364675248" lon="10.290137633543893"><ele>714.0</ele><time>2026-04-20T08:01:02.998Z</time></trkpt><trkpt lat="45.71094652362327" lon="10.290340580846763"><ele>711.0</ele><time>2026-04-20T08:01:03.998Z</time></trkpt><trkpt lat="45.71093138543818" lon="10.290543305209784"><ele>712.0</ele><time>2026-04-20T08:01:04.998Z</time></trkpt><trkpt lat="45.71087373833954" lon="10.290766392061654"><ele>713.0</ele><time>2026-04-20T08:01:05.998Z</time></trkpt><trkpt lat="45.71078680297329" lon="10.290986224706565"><ele>714.0</ele><time>2026-04-20T08:01:06.998Z</time></trkpt><trkpt lat="45.71071001587061" lon="10.29120296311301"><ele>714.0</ele><time>2026-04-20T08:01:07.998Z</time></trkpt><trkpt lat="45.71062989824496" lon="10.291369851637846"><ele>714.0</ele><time>2026-04-20T08:01:08.998Z</time></trkpt><trkpt lat="45.71055360279831" lon="10.291516005016426"><ele>714.0</ele><time>2026-04-20T08:01:09.998Z</time></trkpt><trkpt lat="45.71046990362905" lon="10.291640612446816"><ele>714.0</ele><time>2026-04-20T08:01:10.998Z</time></trkpt><trkpt lat="45.710354636577335" lon="10.291749509604992"><ele>712.0</ele><time>2026-04-20T08:01:11.998Z</time></trkpt><trkpt lat="45.710230187328825" lon="10.291867158717855"><ele>710.0</ele><time>2026-04-20T08:01:12.998Z</time></trkpt><trkpt lat="45.7100714931925" lon="10.291915923189869"><ele>708.0</ele><time>2026-04-20T08:01:13.998Z</time></trkpt><trkpt lat="45.70992330288033" lon="10.292036679599285"><ele>708.0</ele><time>2026-04-20T08:01:14.998Z</time></trkpt><trkpt lat="45.70982670825036" lon="10.292128819948804"><ele>708.0</ele><time>2026-04-20T08:01:15.998Z</time></trkpt><trkpt lat="45.709730702210834" lon="10.292233289213357"><ele>708.0</ele><time>2026-04-20T08:01:16.998Z</time></trkpt><trkpt lat="45.70964371442363" lon="10.2923754108775"><ele>708.0</ele><time>2026-04-20T08:01:17.998Z</time></trkpt><trkpt lat="45.70956686125697" lon="10.292543879301384"><ele>708.0</ele><time>2026-04-20T08:01:18.998Z</time></trkpt><trkpt lat="45.709490019860915" lon="10.292722860877289"><ele>708.0</ele><time>2026-04-20T08:01:19.998Z</time></trkpt><trkpt lat="45.70940106974061" lon="10.292974834039661"><ele>708.0</ele><time>2026-04-20T08:01:20.998Z</time></trkpt><trkpt lat="45.7093245440839" lon="10.293237009502104"><ele>708.0</ele><time>2026-04-20T08:01:21.998Z</time></trkpt><trkpt lat="45.7092746651209" lon="10.293462761487437"><ele>708.0</ele><time>2026-04-20T08:01:22.998Z</time></trkpt><trkpt lat="45.70924508572434" lon="10.293605819035704"><ele>708.0</ele><time>2026-04-20T08:01:23.998Z</time></trkpt><trkpt lat="45.709231325236566" lon="10.293738100663987"><ele>708.0</ele><time>2026-04-20T08:01:24.998Z</time></trkpt><trkpt lat="45.70919384522007" lon="10.293833747914505"><ele>708.0</ele><time>2026-04-20T08:01:25.998Z</time></trkpt><trkpt lat="45.70916582938775" lon="10.29400261466948"><ele>709.0</ele><time>2026-04-20T08:01:26.998Z</time></trkpt><trkpt lat="45.70912756504441" lon="10.294281999802093"><ele>710.0</ele><time>2026-04-20T08:01:27.998Z</time></trkpt><trkpt lat="45.709179965040626" lon="10.294581873951653"><ele>711.0</ele><time>2026-04-20T08:01:28.998Z</time></trkpt><trkpt lat="45.70926084501316" lon="10.294770825590959"><ele>709.0</ele><time>2026-04-20T08:01:29.998Z</time></trkpt><trkpt lat="45.70931283590827" lon="10.29496967986453"><ele>707.0</ele><time>2026-04-20T08:01:30.998Z</time></trkpt><trkpt lat="45.70929658461907" lon="10.29519669983745"><ele>705.0</ele><time>2026-04-20T08:01:31.998Z</time></trkpt><trkpt lat="45.70924577154805" lon="10.295356438474597"><ele>703.0</ele><time>2026-04-20T08:01:32.998Z</time></trkpt><trkpt lat="45.70916170158208" lon="10.295497848953197"><ele>705.5</ele><time>2026-04-20T08:01:33.998Z</time></trkpt><trkpt lat="45.70905707485841" lon="10.295608606012182"><ele>708.0</ele><time>2026-04-20T08:01:34.998Z</time></trkpt><trkpt lat="45.70891300062476" lon="10.295624886229577"><ele>710.5</ele><time>2026-04-20T08:01:35.998Z</time></trkpt><trkpt lat="45.708759206762515" lon="10.295632853432895"><ele>713.0</ele><time>2026-04-20T08:01:36.998Z</time></trkpt><trkpt lat="45.708603137142084" lon="10.295627154993776"><ele>708.3333333333333</ele><time>2026-04-20T08:01:37.998Z</time></trkpt><trkpt lat="45.708456807919084" lon="10.295648903697845"><ele>703.6666666666666</ele><time>2026-04-20T08:01:38.998Z</time></trkpt><trkpt lat="45.70831740647672" lon="10.295753025841664"><ele>699.0</ele><time>2026-04-20T08:01:39.998Z</time></trkpt><trkpt lat="45.70819909100028" lon="10.29593704669117"><ele>699.0</ele><time>2026-04-20T08:01:40.998Z</time></trkpt><trkpt lat="45.70807905447933" lon="10.296065322203114"><ele>699.0</ele><time>2026-04-20T08:01:41.998Z</time></trkpt><trkpt lat="45.707992496318646" lon="10.296206768005197"><ele>699.0</ele><time>2026-04-20T08:01:42.998Z</time></trkpt><trkpt lat="45.707946100721486" lon="10.29636497325352"><ele>699.0</ele><time>2026-04-20T08:01:43.998Z</time></trkpt><trkpt lat="45.7079039001372" lon="10.29648874966128"><ele>701.2</ele><time>2026-04-20T08:01:44.998Z</time></trkpt><trkpt lat="45.70789550033995" lon="10.296690121640738"><ele>703.4000000000001</ele><time>2026-04-20T08:01:45.998Z</time></trkpt><trkpt lat="45.70791487570254" lon="10.296867913808853"><ele>705.6</ele><time>2026-04-20T08:01:46.998Z</time></trkpt><trkpt lat="45.707943131479055" lon="10.296953958699545"><ele>707.8</ele><time>2026-04-20T08:01:47.998Z</time></trkpt><trkpt lat="45.70791766710981" lon="10.297082193482186"><ele>710.0</ele><time>2026-04-20T08:01:48.998Z</time></trkpt><trkpt lat="45.70785739437158" lon="10.297197035017946"><ele>711.0</ele><time>2026-04-20T08:01:49.998Z</time></trkpt><trkpt lat="45.70776516064283" lon="10.297267888828621"><ele>712.0</ele><time>2026-04-20T08:01:50.998Z</time></trkpt><trkpt lat="45.70763039747162" lon="10.297262475851543"><ele>713.0</ele><time>2026-04-20T08:01:51.998Z</time></trkpt><trkpt lat="45.70748600295505" lon="10.297263705210252"><ele>714.0</ele><time>2026-04-20T08:01:52.998Z</time></trkpt><trkpt lat="45.707354007462285" lon="10.297300569826392"><ele>710.75</ele><time>2026-04-20T08:01:53.998Z</time></trkpt><trkpt lat="45.707238173463914" lon="10.297385067525667"><ele>707.5</ele><time>2026-04-20T08:01:54.998Z</time></trkpt><trkpt lat="45.707160471093424" lon="10.29754632818636"><ele>704.25</ele><time>2026-04-20T08:01:55.998Z</time></trkpt><trkpt lat="45.70709289926903" lon="10.297709333148605"><ele>701.0</ele><time>2026-04-20T08:01:56.998Z</time></trkpt><trkpt lat="45.70702560050266" lon="10.29783740427824"><ele>701.0</ele><time>2026-04-20T08:01:57.998Z</time></trkpt><trkpt lat="45.70695091872349" lon="10.297944148610917"><ele>701.0</ele><time>2026-04-20T08:01:58.998Z</time></trkpt><trkpt lat="45.706840979406" lon="10.29803963288062"><ele>701.0</ele><time>2026-04-20T08:01:59.998Z</time></trkpt><trkpt lat="45.706714584841556" lon="10.298117021392398"><ele>701.0</ele><time>2026-04-20T08:02:00.998Z</time></trkpt><trkpt lat="45.70658655856841" lon="10.298153125968973"><ele>699.25</ele><time>2026-04-20T08:02:01.998Z</time></trkpt><trkpt lat="45.70648237472955" lon="10.29820135668693"><ele>697.5</ele><time>2026-04-20T08:02:02.998Z</time></trkpt><trkpt lat="45.70639705229341" lon="10.298307900369307"><ele>695.75</ele><time>2026-04-20T08:02:03.998Z</time></trkpt><trkpt lat="45.70630827892853" lon="10.298436046208256"><ele>694.0</ele><time>2026-04-20T08:02:04.998Z</time></trkpt><trkpt lat="45.706251576242934" lon="10.298633646436883"><ele>694.0</ele><time>2026-04-20T08:02:05.998Z</time></trkpt><trkpt lat="45.706193736294864" lon="10.298863274892042"><ele>694.0</ele><time>2026-04-20T08:02:06.998Z</time></trkpt><trkpt lat="45.706139563965635" lon="10.299052081288325"><ele>694.0</ele><time>2026-04-20T08:02:07.998Z</time></trkpt><trkpt lat="45.706092789140364" lon="10.29922712049012"><ele>694.0</ele><time>2026-04-20T08:02:08.998Z</time></trkpt><trkpt lat="45.70608398096647" lon="10.299401754244737"><ele>695.25</ele><time>2026-04-20T08:02:09.998Z</time></trkpt><trkpt lat="45.70609839133626" lon="10.299512885585568"><ele>696.5</ele><time>2026-04-20T08:02:10.998Z</time></trkpt><trkpt lat="45.70615485972802" lon="10.299658474339617"><ele>697.75</ele><time>2026-04-20T08:02:11.998Z</time></trkpt><trkpt lat="45.7062480098605" lon="10.299802606286477"><ele>699.0</ele><time>2026-04-20T08:02:12.998Z</time></trkpt><trkpt lat="45.70636328593718" lon="10.299903372128487"><ele>695.75</ele><time>2026-04-20T08:02:13.998Z</time></trkpt><trkpt lat="45.706494207553625" lon="10.299912410985385"><ele>692.5</ele><time>2026-04-20T08:02:14.998Z</time></trkpt><trkpt lat="45.70663304919591" lon="10.299947821696646"><ele>689.25</ele><time>2026-04-20T08:02:15.998Z</time></trkpt><trkpt lat="45.7067565056427" lon="10.29998927192514"><ele>686.0</ele><time>2026-04-20T08:02:16.998Z</time></trkpt><trkpt lat="45.70687783684335" lon="10.300002898776121"><ele>689.0</ele><time>2026-04-20T08:02:17.998Z</time></trkpt><trkpt lat="45.70700527827259" lon="10.300068544593021"><ele>692.0</ele><time>2026-04-20T08:02:18.998Z</time></trkpt><trkpt lat="45.70711193509385" lon="10.300137620363614"><ele>695.0</ele><time>2026-04-20T08:02:19.998Z</time></trkpt><trkpt lat="45.70721930895858" lon="10.300268974828649"><ele>698.0</ele><time>2026-04-20T08:02:20.998Z</time></trkpt><trkpt lat="45.70729680456961" lon="10.300456792917783"><ele>696.25</ele><time>2026-04-20T08:02:21.998Z</time></trkpt><trkpt lat="45.707321599956714" lon="10.300644750760029"><ele>694.5</ele><time>2026-04-20T08:02:22.998Z</time></trkpt><trkpt lat="45.70732097482864" lon="10.300819531003983"><ele>692.75</ele><time>2026-04-20T08:02:23.998Z</time></trkpt><trkpt lat="45.707312747236436" lon="10.301055432888468"><ele>691.0</ele><time>2026-04-20T08:02:24.998Z</time></trkpt><trkpt lat="45.70730932051682" lon="10.301319250757597"><ele>690.6666666666667</ele><time>2026-04-20T08:02:25.998Z</time></trkpt><trkpt lat="45.70731286288714" lon="10.30159645197451"><ele>690.3333333333334</ele><time>2026-04-20T08:02:26.998Z</time></trkpt><trkpt lat="45.707307161545984" lon="10.301844751085087"><ele>690.0</ele><time>2026-04-20T08:02:27.998Z</time></trkpt><trkpt lat="45.7073120292517" lon="10.30208447286584"><ele>691.0</ele><time>2026-04-20T08:02:28.998Z</time></trkpt><trkpt lat="45.70731063527646" lon="10.302271698348155"><ele>692.0</ele><time>2026-04-20T08:02:29.998Z</time></trkpt><trkpt lat="45.70730682494441" lon="10.302450959706716"><ele>693.0</ele><time>2026-04-20T08:02:30.998Z</time></trkpt><trkpt lat="45.70729331823408" lon="10.30263035132034"><ele>694.0</ele><time>2026-04-20T08:02:31.998Z</time></trkpt><trkpt lat="45.70722691729993" lon="10.302754378272935"><ele>694.0</ele><time>2026-04-20T08:02:32.998Z</time></trkpt><trkpt lat="45.70712154155125" lon="10.302847269092004"><ele>694.0</ele><time>2026-04-20T08:02:33.998Z</time></trkpt><trkpt lat="45.70700859426643" lon="10.302907223070047"><ele>694.0</ele><time>2026-04-20T08:02:34.998Z</time></trkpt><trkpt lat="45.7068796523012" lon="10.302925877522824"><ele>694.0</ele><time>2026-04-20T08:02:35.998Z</time></trkpt><trkpt lat="45.70673378354764" lon="10.302893190827701"><ele>693.0</ele><time>2026-04-20T08:02:36.998Z</time></trkpt><trkpt lat="45.70654876231288" lon="10.30298415776871"><ele>692.0</ele><time>2026-04-20T08:02:37.998Z</time></trkpt><trkpt lat="45.70635104223389" lon="10.303109347587991"><ele>691.0</ele><time>2026-04-20T08:02:38.998Z</time></trkpt><trkpt lat="45.70617217683247" lon="10.303230930621403"><ele>685.3333333333334</ele><time>2026-04-20T08:02:39.998Z</time></trkpt><trkpt lat="45.70597960785579" lon="10.30337198003576"><ele>679.6666666666666</ele><time>2026-04-20T08:02:40.998Z</time></trkpt><trkpt lat="45.70580955869738" lon="10.303528721613093"><ele>674.0</ele><time>2026-04-20T08:02:41.998Z</time></trkpt><trkpt lat="45.705664497826575" lon="10.303663715931775"><ele>674.0</ele><time>2026-04-20T08:02:42.998Z</time></trkpt><trkpt lat="45.70552097203178" lon="10.303795292802684"><ele>674.0</ele><time>2026-04-20T08:02:43.998Z</time></trkpt><trkpt lat="45.70539909405394" lon="10.303920751125471"><ele>674.0</ele><time>2026-04-20T08:02:44.998Z</time></trkpt><trkpt lat="45.705313428083805" lon="10.304028037424006"><ele>674.0</ele><time>2026-04-20T08:02:45.998Z</time></trkpt><trkpt lat="45.705245853557415" lon="10.304125739928232"><ele>671.4000000000001</ele><time>2026-04-20T08:02:46.998Z</time></trkpt><trkpt lat="45.70522704300198" lon="10.304251681005626"><ele>668.8</ele><time>2026-04-20T08:02:47.998Z</time></trkpt><trkpt lat="45.70523570219021" lon="10.304383335681655"><ele>666.2</ele><time>2026-04-20T08:02:48.998Z</time></trkpt><trkpt lat="45.705327121178854" lon="10.304512281758074"><ele>663.5999999999999</ele><time>2026-04-20T08:02:49.998Z</time></trkpt><trkpt lat="45.70538988387511" lon="10.304639045478341"><ele>661.0</ele><time>2026-04-20T08:02:50.998Z</time></trkpt><trkpt lat="45.705497310857716" lon="10.304737657699613"><ele>665.8</ele><time>2026-04-20T08:02:51.998Z</time></trkpt><trkpt lat="45.70557627919336" lon="10.304845729064711"><ele>670.5999999999999</ele><time>2026-04-20T08:02:52.997Z</time></trkpt><trkpt lat="45.70560577041663" lon="10.304960435433538"><ele>675.4</ele><time>2026-04-20T08:02:53.997Z</time></trkpt><trkpt lat="45.705561552764976" lon="10.305090878755891"><ele>680.2</ele><time>2026-04-20T08:02:54.997Z</time></trkpt><trkpt lat="45.70550139776267" lon="10.305210398622965"><ele>685.0</ele><time>2026-04-20T08:02:55.997Z</time></trkpt><trkpt lat="45.70538625901983" lon="10.305293271546429"><ele>685.0</ele><time>2026-04-20T08:02:56.997Z</time></trkpt><trkpt lat="45.705262406294494" lon="10.305353870283989"><ele>685.0</ele><time>2026-04-20T08:02:57.997Z</time></trkpt><trkpt lat="45.70510299289701" lon="10.305431300086635"><ele>685.0</ele><time>2026-04-20T08:02:58.997Z</time></trkpt><trkpt lat="45.704890809903766" lon="10.30542362347837"><ele>678.0</ele><time>2026-04-20T08:02:59.997Z</time></trkpt><trkpt lat="45.704732660195965" lon="10.30543621227077"><ele>671.0</ele><time>2026-04-20T08:03:00.997Z</time></trkpt><trkpt lat="45.704584695392626" lon="10.305458814047077"><ele>664.0</ele><time>2026-04-20T08:03:01.997Z</time></trkpt><trkpt lat="45.70445289235769" lon="10.305535939101041"><ele>663.25</ele><time>2026-04-20T08:03:02.997Z</time></trkpt><trkpt lat="45.704350588270124" lon="10.305632403533625"><ele>662.5</ele><time>2026-04-20T08:03:03.997Z</time></trkpt><trkpt lat="45.70430345980789" lon="10.305787504577019"><ele>661.75</ele><time>2026-04-20T08:03:04.997Z</time></trkpt><trkpt lat="45.70424127805324" lon="10.305968216406388"><ele>661.0</ele><time>2026-04-20T08:03:05.997Z</time></trkpt><trkpt lat="45.70421705505848" lon="10.30615519518885"><ele>661.0</ele><time>2026-04-20T08:03:06.997Z</time></trkpt><trkpt lat="45.704234998926395" lon="10.30632378844425"><ele>661.0</ele><time>2026-04-20T08:03:07.997Z</time></trkpt><trkpt lat="45.704275150746035" lon="10.30650906640967"><ele>661.0</ele><time>2026-04-20T08:03:08.997Z</time></trkpt><trkpt lat="45.70435105050246" lon="10.306708270284744"><ele>661.0</ele><time>2026-04-20T08:03:09.997Z</time></trkpt><trkpt lat="45.704417856488035" lon="10.306857697888114"><ele>664.75</ele><time>2026-04-20T08:03:10.997Z</time></trkpt><trkpt lat="45.7044967128272" lon="10.306991748899026"><ele>668.5</ele><time>2026-04-20T08:03:11.997Z</time></trkpt><trkpt lat="45.70459520761288" lon="10.307076032900614"><ele>672.25</ele><time>2026-04-20T08:03:12.997Z</time></trkpt><trkpt lat="45.70470573399908" lon="10.307124398358479"><ele>676.0</ele><time>2026-04-20T08:03:13.997Z</time></trkpt><trkpt lat="45.7047728236549" lon="10.307245644087045"><ele>676.4</ele><time>2026-04-20T08:03:14.997Z</time></trkpt><trkpt lat="45.70474947801142" lon="10.30736327040499"><ele>676.8</ele><time>2026-04-20T08:03:15.997Z</time></trkpt><trkpt lat="45.70468422893484" lon="10.307503089021667"><ele>677.1999999999999</ele><time>2026-04-20T08:03:17.997Z</time></trkpt><trkpt lat="45.70460237967104" lon="10.307595492730568"><ele>677.5999999999999</ele><time>2026-04-20T08:03:18.997Z</time></trkpt><trkpt lat="45.70451715432761" lon="10.307741937570045"><ele>678.0</ele><time>2026-04-20T08:03:19.997Z</time></trkpt><trkpt lat="45.70447474742966" lon="10.30791803333156"><ele>681.3333333333334</ele><time>2026-04-20T08:03:20.997Z</time></trkpt><trkpt lat="45.704458037646376" lon="10.30814059106415"><ele>684.6666666666667</ele><time>2026-04-20T08:03:21.997Z</time></trkpt><trkpt lat="45.70444094379041" lon="10.308363825373792"><ele>688.0</ele><time>2026-04-20T08:03:22.997Z</time></trkpt><trkpt lat="45.70438679252688" lon="10.308609806171523"><ele>679.0</ele><time>2026-04-20T08:03:23.997Z</time></trkpt><trkpt lat="45.704307641949455" lon="10.308860820589869"><ele>670.0</ele><time>2026-04-20T08:03:24.997Z</time></trkpt><trkpt lat="45.704221820080285" lon="10.30911936331187"><ele>661.0</ele><time>2026-04-20T08:03:25.997Z</time></trkpt><trkpt lat="45.704147004315686" lon="10.309337229603425"><ele>661.0</ele><time>2026-04-20T08:03:26.997Z</time></trkpt><trkpt lat="45.70407027667854" lon="10.309547224921353"><ele>661.0</ele><time>2026-04-20T08:03:27.997Z</time></trkpt><trkpt lat="45.70397597311518" lon="10.309734955937989"><ele>661.0</ele><time>2026-04-20T08:03:28.997Z</time></trkpt><trkpt lat="45.70392233022786" lon="10.30993851730699"><ele>663.0</ele><time>2026-04-20T08:03:29.997Z</time></trkpt><trkpt lat="45.703888543977214" lon="10.310063814608514"><ele>665.0</ele><time>2026-04-20T08:03:30.997Z</time></trkpt><trkpt lat="45.70388815040673" lon="10.310215859943439"><ele>667.0</ele><time>2026-04-20T08:03:31.997Z</time></trkpt><trkpt lat="45.70385241294127" lon="10.310345044258224"><ele>669.0</ele><time>2026-04-20T08:03:32.997Z</time></trkpt><trkpt lat="45.70374909880252" lon="10.310460497888744"><ele>671.0</ele><time>2026-04-20T08:03:33.997Z</time></trkpt><trkpt lat="45.70361984595962" lon="10.310567347321975"><ele>662.75</ele><time>2026-04-20T08:03:34.997Z</time></trkpt><trkpt lat="45.70349014206714" lon="10.310681165154312"><ele>654.5</ele><time>2026-04-20T08:03:35.997Z</time></trkpt><trkpt lat="45.70338279040201" lon="10.310790651620716"><ele>646.25</ele><time>2026-04-20T08:03:36.997Z</time></trkpt><trkpt lat="45.70331635926215" lon="10.310900095548039"><ele>638.0</ele><time>2026-04-20T08:03:37.997Z</time></trkpt><trkpt lat="45.703277889075196" lon="10.311013378879604"><ele>638.0</ele><time>2026-04-20T08:03:38.997Z</time></trkpt><trkpt lat="45.70328270894376" lon="10.311148264720002"><ele>638.0</ele><time>2026-04-20T08:03:39.997Z</time></trkpt><trkpt lat="45.70330927666827" lon="10.31132359537879"><ele>638.0</ele><time>2026-04-20T08:03:40.997Z</time></trkpt><trkpt lat="45.70334556928926" lon="10.311520520930285"><ele>638.0</ele><time>2026-04-20T08:03:41.997Z</time></trkpt><trkpt lat="45.70342371642379" lon="10.311708380433474"><ele>638.25</ele><time>2026-04-20T08:03:42.997Z</time></trkpt><trkpt lat="45.703468421666884" lon="10.311895724571125"><ele>638.5</ele><time>2026-04-20T08:03:43.997Z</time></trkpt><trkpt lat="45.70351746742978" lon="10.31205210856559"><ele>638.75</ele><time>2026-04-20T08:03:44.997Z</time></trkpt><trkpt lat="45.70359185039513" lon="10.312188230175602"><ele>639.0</ele><time>2026-04-20T08:03:45.997Z</time></trkpt><trkpt lat="45.703662333154725" lon="10.312319792753893"><ele>646.0</ele><time>2026-04-20T08:03:46.997Z</time></trkpt><trkpt lat="45.7037384260013" lon="10.312440556503114"><ele>653.0</ele><time>2026-04-20T08:03:47.997Z</time></trkpt><trkpt lat="45.70383540911474" lon="10.312562166197878"><ele>660.0</ele><time>2026-04-20T08:03:48.997Z</time></trkpt><trkpt lat="45.7039281320286" lon="10.312699571535225"><ele>667.0</ele><time>2026-04-20T08:03:49.997Z</time></trkpt><trkpt lat="45.7040165011148" lon="10.312839074371945"><ele>667.0</ele><time>2026-04-20T08:03:50.997Z</time></trkpt><trkpt lat="45.704096059957884" lon="10.312948281610831"><ele>667.0</ele><time>2026-04-20T08:03:51.997Z</time></trkpt><trkpt lat="45.70415364791732" lon="10.31305009373757"><ele>667.0</ele><time>2026-04-20T08:03:52.997Z</time></trkpt><trkpt lat="45.70420325603115" lon="10.313159849741018"><ele>667.0</ele><time>2026-04-20T08:03:53.997Z</time></trkpt><trkpt lat="45.70422145055843" lon="10.31331491022948"><ele>667.0</ele><time>2026-04-20T08:03:54.997Z</time></trkpt><trkpt lat="45.704213155247736" lon="10.313486536349274"><ele>665.0</ele><time>2026-04-20T08:03:55.997Z</time></trkpt><trkpt lat="45.704154803904366" lon="10.313635306926548"><ele>663.0</ele><time>2026-04-20T08:03:56.997Z</time></trkpt><trkpt lat="45.7041110389164" lon="10.313769835449385"><ele>661.0</ele><time>2026-04-20T08:03:57.997Z</time></trkpt><trkpt lat="45.704066058551" lon="10.313878805460998"><ele>659.0</ele><time>2026-04-20T08:03:58.997Z</time></trkpt><trkpt lat="45.70400128617043" lon="10.313970245326074"><ele>657.0</ele><time>2026-04-20T08:03:59.997Z</time></trkpt><trkpt lat="45.70391172384212" lon="10.314061561982077"><ele>657.0</ele><time>2026-04-20T08:04:00.997Z</time></trkpt><trkpt lat="45.703804439725495" lon="10.314138334604218"><ele>657.0</ele><time>2026-04-20T08:04:01.997Z</time></trkpt><trkpt lat="45.70370637804146" lon="10.3142579094461"><ele>657.0</ele><time>2026-04-20T08:04:02.997Z</time></trkpt><trkpt lat="45.703595716701734" lon="10.314321307942674"><ele>657.0</ele><time>2026-04-20T08:04:03.997Z</time></trkpt><trkpt lat="45.703473818656875" lon="10.314361766300713"><ele>649.5</ele><time>2026-04-20T08:04:04.997Z</time></trkpt><trkpt lat="45.703351095018654" lon="10.314405309998762"><ele>642.0</ele><time>2026-04-20T08:04:05.997Z</time></trkpt><trkpt lat="45.70323363484016" lon="10.314426251497501"><ele>634.5</ele><time>2026-04-20T08:04:06.997Z</time></trkpt><trkpt lat="45.703108271900426" lon="10.31448280730175"><ele>627.0</ele><time>2026-04-20T08:04:07.997Z</time></trkpt><trkpt lat="45.70300045399738" lon="10.314573334427063"><ele>627.0</ele><time>2026-04-20T08:04:08.997Z</time></trkpt><trkpt lat="45.70292229289428" lon="10.314689337340093"><ele>627.0</ele><time>2026-04-20T08:04:09.997Z</time></trkpt><trkpt lat="45.7028738194484" lon="10.314830289992166"><ele>627.0</ele><time>2026-04-20T08:04:10.997Z</time></trkpt><trkpt lat="45.702855067621805" lon="10.314974994563787"><ele>627.0</ele><time>2026-04-20T08:04:11.997Z</time></trkpt><trkpt lat="45.70289007253314" lon="10.315144153721993"><ele>627.0</ele><time>2026-04-20T08:04:12.997Z</time></trkpt><trkpt lat="45.7029509211323" lon="10.31532048232442"><ele>631.0</ele><time>2026-04-20T08:04:13.997Z</time></trkpt><trkpt lat="45.70301654028871" lon="10.315485515279251"><ele>635.0</ele><time>2026-04-20T08:04:14.997Z</time></trkpt><trkpt lat="45.7030762172864" lon="10.315631505494371"><ele>639.0</ele><time>2026-04-20T08:04:15.997Z</time></trkpt><trkpt lat="45.70312184633109" lon="10.315784063386262"><ele>643.0</ele><time>2026-04-20T08:04:16.997Z</time></trkpt><trkpt lat="45.70315969333304" lon="10.315926837802106"><ele>643.0</ele><time>2026-04-20T08:04:17.997Z</time></trkpt><trkpt lat="45.703187806510215" lon="10.316050077001623"><ele>643.0</ele><time>2026-04-20T08:04:18.997Z</time></trkpt><trkpt lat="45.70320892615701" lon="10.316157648363564"><ele>643.0</ele><time>2026-04-20T08:04:19.997Z</time></trkpt><trkpt lat="45.7032085264562" lon="10.316267295907311"><ele>643.0</ele><time>2026-04-20T08:04:20.997Z</time></trkpt><trkpt lat="45.703169362315656" lon="10.316364403966547"><ele>643.0</ele><time>2026-04-20T08:04:21.997Z</time></trkpt><trkpt lat="45.70311189341379" lon="10.316441366341168"><ele>643.0</ele><time>2026-04-20T08:04:22.997Z</time></trkpt><trkpt lat="45.703039604338734" lon="10.316483091990909"><ele>643.2</ele><time>2026-04-20T08:04:23.997Z</time></trkpt><trkpt lat="45.702966177442015" lon="10.316538689144421"><ele>643.4</ele><time>2026-04-20T08:04:24.997Z</time></trkpt><trkpt lat="45.70287323686496" lon="10.316581366257097"><ele>643.6</ele><time>2026-04-20T08:04:25.997Z</time></trkpt><trkpt lat="45.702792753421775" lon="10.31665105710286"><ele>643.8000000000001</ele><time>2026-04-20T08:04:26.997Z</time></trkpt><trkpt lat="45.70271733684207" lon="10.316719272260684"><ele>644.0</ele><time>2026-04-20T08:04:27.997Z</time></trkpt><trkpt lat="45.70267235711348" lon="10.31687349711915"><ele>640.8333333333333</ele><time>2026-04-20T08:04:28.997Z</time></trkpt><trkpt lat="45.702676771069086" lon="10.317016307592601"><ele>637.6666666666666</ele><time>2026-04-20T08:04:29.997Z</time></trkpt><trkpt lat="45.7026778772224" lon="10.31714928501742"><ele>634.5</ele><time>2026-04-20T08:04:30.997Z</time></trkpt><trkpt lat="45.70266190663956" lon="10.31728757506347"><ele>631.3333333333334</ele><time>2026-04-20T08:04:31.997Z</time></trkpt><trkpt lat="45.70262574695949" lon="10.3173739912774"><ele>628.1666666666667</ele><time>2026-04-20T08:04:32.997Z</time></trkpt><trkpt lat="45.702564604449506" lon="10.317438605418948"><ele>625.0</ele><time>2026-04-20T08:04:33.997Z</time></trkpt><trkpt lat="45.70250007865329" lon="10.31746396200025"><ele>625.0</ele><time>2026-04-20T08:04:34.997Z</time></trkpt><trkpt lat="45.702422522562834" lon="10.317462153467288"><ele>625.0</ele><time>2026-04-20T08:04:35.997Z</time></trkpt><trkpt lat="45.7023350645606" lon="10.317380220709303"><ele>625.0</ele><time>2026-04-20T08:04:36.997Z</time></trkpt><trkpt lat="45.70224529716803" lon="10.317295541673206"><ele>625.0</ele><time>2026-04-20T08:04:37.997Z</time></trkpt><trkpt lat="45.702172062892274" lon="10.317205396498426"><ele>625.0</ele><time>2026-04-20T08:04:38.997Z</time></trkpt><trkpt lat="45.70210593063043" lon="10.317134401352767"><ele>622.2</ele><time>2026-04-20T08:04:39.997Z</time></trkpt><trkpt lat="45.7020286444339" lon="10.317101052880206"><ele>619.4</ele><time>2026-04-20T08:04:40.997Z</time></trkpt><trkpt lat="45.70193760451328" lon="10.317070984888225"><ele>616.6</ele><time>2026-04-20T08:04:41.997Z</time></trkpt><trkpt lat="45.70183227130181" lon="10.317087645274812"><ele>613.8</ele><time>2026-04-20T08:04:42.997Z</time></trkpt><trkpt lat="45.70174848325394" lon="10.31715704389942"><ele>611.0</ele><time>2026-04-20T08:04:43.997Z</time></trkpt><trkpt lat="45.701666121706445" lon="10.317264535893436"><ele>611.0</ele><time>2026-04-20T08:04:44.997Z</time></trkpt><trkpt lat="45.70159102897861" lon="10.317389153116817"><ele>611.0</ele><time>2026-04-20T08:04:45.997Z</time></trkpt><trkpt lat="45.70151988284521" lon="10.317515354982962"><ele>611.0</ele><time>2026-04-20T08:04:46.997Z</time></trkpt><trkpt lat="45.70145118056036" lon="10.317658651643193"><ele>611.0</ele><time>2026-04-20T08:04:47.997Z</time></trkpt><trkpt lat="45.70138437350746" lon="10.317791805724008"><ele>611.0</ele><time>2026-04-20T08:04:48.997Z</time></trkpt><trkpt lat="45.70133487621692" lon="10.31792327213331"><ele>611.0</ele><time>2026-04-20T08:04:49.997Z</time></trkpt><trkpt lat="45.701253878814725" lon="10.31805343339048"><ele>611.0</ele><time>2026-04-20T08:04:50.997Z</time></trkpt><trkpt lat="45.70118751206907" lon="10.3182097267598"><ele>611.0</ele><time>2026-04-20T08:04:51.997Z</time></trkpt><trkpt lat="45.70109551501308" lon="10.318365533329537"><ele>608.0</ele><time>2026-04-20T08:04:52.997Z</time></trkpt><trkpt lat="45.70099004766577" lon="10.318527672334293"><ele>605.0</ele><time>2026-04-20T08:04:53.997Z</time></trkpt><trkpt lat="45.70088932312888" lon="10.318678994809583"><ele>602.0</ele><time>2026-04-20T08:04:54.997Z</time></trkpt><trkpt lat="45.70079232763512" lon="10.318823836876954"><ele>599.0</ele><time>2026-04-20T08:04:55.997Z</time></trkpt><trkpt lat="45.70071712958916" lon="10.318935417903734"><ele>599.0</ele><time>2026-04-20T08:04:56.997Z</time></trkpt><trkpt lat="45.70064741220019" lon="10.319069370113867"><ele>599.0</ele><time>2026-04-20T08:04:57.997Z</time></trkpt><trkpt lat="45.7005951905627" lon="10.319225893501308"><ele>599.0</ele><time>2026-04-20T08:04:58.997Z</time></trkpt><trkpt lat="45.7005684008141" lon="10.319358325828707"><ele>599.0</ele><time>2026-04-20T08:04:59.997Z</time></trkpt><trkpt lat="45.70055120738799" lon="10.319505394772685"><ele>599.0</ele><time>2026-04-20T08:05:00.997Z</time></trkpt><trkpt lat="45.70056030393974" lon="10.31965169880319"><ele>597.25</ele><time>2026-04-20T08:05:01.997Z</time></trkpt><trkpt lat="45.70061066685215" lon="10.31978340324199"><ele>595.5</ele><time>2026-04-20T08:05:02.997Z</time></trkpt><trkpt lat="45.7006628242215" lon="10.319940548982474"><ele>593.75</ele><time>2026-04-20T08:05:03.997Z</time></trkpt><trkpt lat="45.70073100758528" lon="10.320053472160504"><ele>592.0</ele><time>2026-04-20T08:05:04.997Z</time></trkpt><trkpt lat="45.70083425513072" lon="10.320158844672338"><ele>592.0</ele><time>2026-04-20T08:05:05.997Z</time></trkpt><trkpt lat="45.700947799584256" lon="10.320210311917792"><ele>592.0</ele><time>2026-04-20T08:05:06.997Z</time></trkpt><trkpt lat="45.70107206983412" lon="10.320232699962498"><ele>592.0</ele><time>2026-04-20T08:05:07.997Z</time></trkpt><trkpt lat="45.70119669686216" lon="10.320259926987536"><ele>592.0</ele><time>2026-04-20T08:05:08.997Z</time></trkpt><trkpt lat="45.701326115894815" lon="10.320322549417739"><ele>588.25</ele><time>2026-04-20T08:05:09.997Z</time></trkpt><trkpt lat="45.70144190118493" lon="10.320392280080391"><ele>584.5</ele><time>2026-04-20T08:05:10.997Z</time></trkpt><trkpt lat="45.701568904646855" lon="10.320467834477492"><ele>580.75</ele><time>2026-04-20T08:05:11.997Z</time></trkpt><trkpt lat="45.70168376545608" lon="10.320534040073765"><ele>577.0</ele><time>2026-04-20T08:05:12.997Z</time></trkpt><trkpt lat="45.70177730972303" lon="10.320587958841863"><ele>577.0</ele><time>2026-04-20T08:05:13.997Z</time></trkpt><trkpt lat="45.7018791473756" lon="10.320619140547162"><ele>577.0</ele><time>2026-04-20T08:05:14.997Z</time></trkpt><trkpt lat="45.70196059986887" lon="10.320675961058013"><ele>577.0</ele><time>2026-04-20T08:05:15.997Z</time></trkpt><trkpt lat="45.70207183155091" lon="10.32068914499926"><ele>577.0</ele><time>2026-04-20T08:05:16.997Z</time></trkpt><trkpt lat="45.7021961223264" lon="10.320659903592007"><ele>577.0</ele><time>2026-04-20T08:05:17.997Z</time></trkpt><trkpt lat="45.702299750121114" lon="10.320646755270436"><ele>577.5</ele><time>2026-04-20T08:05:18.997Z</time></trkpt><trkpt lat="45.702393856144916" lon="10.320651396740057"><ele>578.0</ele><time>2026-04-20T08:05:19.997Z</time></trkpt><trkpt lat="45.70248155145847" lon="10.320664377851983"><ele>578.5</ele><time>2026-04-20T08:05:20.997Z</time></trkpt><trkpt lat="45.70256114369374" lon="10.32068372815689"><ele>579.0</ele><time>2026-04-20T08:05:21.997Z</time></trkpt><trkpt lat="45.70262827001536" lon="10.320698152227383"><ele>579.5</ele><time>2026-04-20T08:05:22.997Z</time></trkpt><trkpt lat="45.70269563575881" lon="10.32071785127882"><ele>580.0</ele><time>2026-04-20T08:05:23.997Z</time></trkpt><trkpt lat="45.7027319091306" lon="10.320854654131498"><ele>580.0</ele><time>2026-04-20T08:05:25.997Z</time></trkpt><trkpt lat="45.702675777235356" lon="10.32097630727262"><ele>580.0</ele><time>2026-04-20T08:05:27.997Z</time></trkpt><trkpt lat="45.70258154500868" lon="10.320959044360945"><ele>580.0</ele><time>2026-04-20T08:05:28.997Z</time></trkpt><trkpt lat="45.70247055471526" lon="10.320910682047392"><ele>580.0</ele><time>2026-04-20T08:05:29.997Z</time></trkpt><trkpt lat="45.702361855357886" lon="10.320844461252099"><ele>580.0</ele><time>2026-04-20T08:05:30.997Z</time></trkpt><trkpt lat="45.7022543508418" lon="10.320801355231465"><ele>580.0</ele><time>2026-04-20T08:05:31.997Z</time></trkpt><trkpt lat="45.702135592217424" lon="10.32078333246373"><ele>580.0</ele><time>2026-04-20T08:05:32.997Z</time></trkpt><trkpt lat="45.702008096315495" lon="10.320805134366386"><ele>580.0</ele><time>2026-04-20T08:05:33.997Z</time></trkpt><trkpt lat="45.701921069912174" lon="10.320836520743795"><ele>580.0</ele><time>2026-04-20T08:05:34.997Z</time></trkpt><trkpt lat="45.701839064558804" lon="10.32085739892092"><ele>580.0</ele><time>2026-04-20T08:05:35.997Z</time></trkpt><trkpt lat="45.7017536565267" lon="10.320893319392452"><ele>579.4</ele><time>2026-04-20T08:05:36.997Z</time></trkpt><trkpt lat="45.70166561913834" lon="10.320935439704254"><ele>578.8</ele><time>2026-04-20T08:05:37.997Z</time></trkpt><trkpt lat="45.70156962345275" lon="10.32095782618543"><ele>578.2</ele><time>2026-04-20T08:05:38.997Z</time></trkpt><trkpt lat="45.70146658321377" lon="10.320953175523886"><ele>577.6</ele><time>2026-04-20T08:05:39.997Z</time></trkpt><trkpt lat="45.70135051846793" lon="10.320905220500885"><ele>577.0</ele><time>2026-04-20T08:05:40.997Z</time></trkpt><trkpt lat="45.70124377515356" lon="10.32084014292849"><ele>577.0</ele><time>2026-04-20T08:05:41.997Z</time></trkpt><trkpt lat="45.70114029907328" lon="10.32080036760437"><ele>577.0</ele><time>2026-04-20T08:05:42.997Z</time></trkpt><trkpt lat="45.70102263892089" lon="10.320781191104686"><ele>577.0</ele><time>2026-04-20T08:05:43.997Z</time></trkpt><trkpt lat="45.700897492797765" lon="10.320802630380317"><ele>577.0</ele><time>2026-04-20T08:05:44.997Z</time></trkpt><trkpt lat="45.70080421974163" lon="10.320821622084644"><ele>577.0</ele><time>2026-04-20T08:05:45.997Z</time></trkpt><trkpt lat="45.70070187643945" lon="10.320854481089249"><ele>575.2</ele><time>2026-04-20T08:05:46.997Z</time></trkpt><trkpt lat="45.70060382006181" lon="10.32092190877984"><ele>573.4000000000001</ele><time>2026-04-20T08:05:47.997Z</time></trkpt><trkpt lat="45.70051343089864" lon="10.321010574442175"><ele>571.5999999999999</ele><time>2026-04-20T08:05:48.997Z</time></trkpt><trkpt lat="45.70043338714841" lon="10.321119943851643"><ele>569.8</ele><time>2026-04-20T08:05:49.997Z</time></trkpt><trkpt lat="45.700359266039804" lon="10.321205971139031"><ele>568.0</ele><time>2026-04-20T08:05:50.997Z</time></trkpt><trkpt lat="45.70026945492417" lon="10.321283349474344"><ele>566.4</ele><time>2026-04-20T08:05:51.997Z</time></trkpt><trkpt lat="45.70016403024406" lon="10.321343176093956"><ele>564.8</ele><time>2026-04-20T08:05:52.997Z</time></trkpt><trkpt lat="45.70004966527464" lon="10.321394219311701"><ele>563.2</ele><time>2026-04-20T08:05:53.997Z</time></trkpt><trkpt lat="45.69996417417613" lon="10.321407295645786"><ele>561.6</ele><time>2026-04-20T08:05:54.997Z</time></trkpt><trkpt lat="45.699881622144694" lon="10.321393229997481"><ele>560.0</ele><time>2026-04-20T08:05:55.997Z</time></trkpt><trkpt lat="45.69981145215317" lon="10.32134111440227"><ele>560.0</ele><time>2026-04-20T08:05:56.997Z</time></trkpt><trkpt lat="45.699757507429325" lon="10.321223065266482"><ele>560.0</ele><time>2026-04-20T08:05:57.997Z</time></trkpt><trkpt lat="45.69971748640976" lon="10.321112030801634"><ele>560.0</ele><time>2026-04-20T08:05:58.997Z</time></trkpt><trkpt lat="45.69973995443651" lon="10.320957497402686"><ele>560.0</ele><time>2026-04-20T08:05:59.997Z</time></trkpt><trkpt lat="45.69977708508207" lon="10.320791165825744"><ele>560.0</ele><time>2026-04-20T08:06:00.997Z</time></trkpt><trkpt lat="45.69980493669812" lon="10.320631966665225"><ele>561.2</ele><time>2026-04-20T08:06:01.997Z</time></trkpt><trkpt lat="45.6998469896759" lon="10.32051367464002"><ele>562.4</ele><time>2026-04-20T08:06:02.997Z</time></trkpt><trkpt lat="45.69988599053315" lon="10.320357894323555"><ele>563.6</ele><time>2026-04-20T08:06:04.997Z</time></trkpt><trkpt lat="45.6998474984642" lon="10.320186856280264"><ele>564.8</ele><time>2026-04-20T08:06:06.997Z</time></trkpt><trkpt lat="45.69978659933295" lon="10.320140504416914"><ele>566.0</ele><time>2026-04-20T08:06:07.997Z</time></trkpt><trkpt lat="45.69966171308461" lon="10.320196426168888"><ele>566.0</ele><time>2026-04-20T08:06:09.997Z</time></trkpt><trkpt lat="45.69961249693106" lon="10.320349266791865"><ele>566.0</ele><time>2026-04-20T08:06:10.997Z</time></trkpt><trkpt lat="45.699618221965714" lon="10.320492809258374"><ele>566.0</ele><time>2026-04-20T08:06:11.997Z</time></trkpt><trkpt lat="45.699615344864135" lon="10.320716336987461"><ele>566.0</ele><time>2026-04-20T08:06:14.997Z</time></trkpt><trkpt lat="45.69951750600244" lon="10.320837862111919"><ele>564.8</ele><time>2026-04-20T08:06:15.997Z</time></trkpt><trkpt lat="45.69944755424245" lon="10.320960320964334"><ele>563.6</ele><time>2026-04-20T08:06:16.997Z</time></trkpt><trkpt lat="45.69936615330204" lon="10.321027160273363"><ele>562.4</ele><time>2026-04-20T08:06:17.997Z</time></trkpt><trkpt lat="45.69926285428368" lon="10.321098858974507"><ele>561.2</ele><time>2026-04-20T08:06:18.997Z</time></trkpt><trkpt lat="45.699200957834904" lon="10.32123105464794"><ele>560.0</ele><time>2026-04-20T08:06:19.997Z</time></trkpt><trkpt lat="45.69914426322264" lon="10.321340054304594"><ele>556.2</ele><time>2026-04-20T08:06:20.997Z</time></trkpt><trkpt lat="45.6991038139321" lon="10.321490029707276"><ele>552.4</ele><time>2026-04-20T08:06:21.997Z</time></trkpt><trkpt lat="45.69909890915259" lon="10.321648492294095"><ele>548.6</ele><time>2026-04-20T08:06:22.997Z</time></trkpt><trkpt lat="45.69910364665286" lon="10.32173994046464"><ele>544.8</ele><time>2026-04-20T08:06:23.997Z</time></trkpt><trkpt lat="45.69909273097298" lon="10.321867267915978"><ele>541.0</ele><time>2026-04-20T08:06:25.997Z</time></trkpt><trkpt lat="45.69901330586544" lon="10.321938140339853"><ele>541.0</ele><time>2026-04-20T08:06:26.997Z</time></trkpt><trkpt lat="45.69890853773805" lon="10.321845624236042"><ele>541.0</ele><time>2026-04-20T08:06:27.997Z</time></trkpt><trkpt lat="45.6988579760182" lon="10.32166376658556"><ele>541.0</ele><time>2026-04-20T08:06:28.997Z</time></trkpt><trkpt lat="45.69879323987236" lon="10.321543982652083"><ele>541.0</ele><time>2026-04-20T08:06:29.997Z</time></trkpt><trkpt lat="45.69872941183631" lon="10.321434157039674"><ele>541.0</ele><time>2026-04-20T08:06:30.997Z</time></trkpt><trkpt lat="45.69868013326326" lon="10.321333246904935"><ele>541.0</ele><time>2026-04-20T08:06:31.997Z</time></trkpt><trkpt lat="45.69863342825967" lon="10.321213108257874"><ele>541.0</ele><time>2026-04-20T08:06:32.997Z</time></trkpt><trkpt lat="45.698570750544775" lon="10.321086162416664"><ele>541.0</ele><time>2026-04-20T08:06:33.997Z</time></trkpt><trkpt lat="45.698493189819914" lon="10.320937181035129"><ele>541.0</ele><time>2026-04-20T08:06:34.997Z</time></trkpt><trkpt lat="45.69841255551939" lon="10.320803010279965"><ele>540.0</ele><time>2026-04-20T08:06:35.997Z</time></trkpt><trkpt lat="45.698342177507" lon="10.320687285390184"><ele>539.0</ele><time>2026-04-20T08:06:36.997Z</time></trkpt><trkpt lat="45.69826548433514" lon="10.320578307235474"><ele>538.0</ele><time>2026-04-20T08:06:37.997Z</time></trkpt><trkpt lat="45.69819554789922" lon="10.320444283284363"><ele>537.0</ele><time>2026-04-20T08:06:38.997Z</time></trkpt><trkpt lat="45.698132003909045" lon="10.320290373105573"><ele>537.0</ele><time>2026-04-20T08:06:39.997Z</time></trkpt><trkpt lat="45.698075556315864" lon="10.32013227798027"><ele>537.0</ele><time>2026-04-20T08:06:40.997Z</time></trkpt><trkpt lat="45.69803771347687" lon="10.319990791725841"><ele>537.0</ele><time>2026-04-20T08:06:41.997Z</time></trkpt><trkpt lat="45.69800544098142" lon="10.319884834520877"><ele>537.0</ele><time>2026-04-20T08:06:42.997Z</time></trkpt><trkpt lat="45.69798076444864" lon="10.31979349668479"><ele>537.0</ele><time>2026-04-20T08:06:43.997Z</time></trkpt><trkpt lat="45.69793482086869" lon="10.31972046098082"><ele>537.0</ele><time>2026-04-20T08:06:44.997Z</time></trkpt><trkpt lat="45.697871232369685" lon="10.319692591550433"><ele>537.0</ele><time>2026-04-20T08:06:45.997Z</time></trkpt><trkpt lat="45.69780657589479" lon="10.319756147931306"><ele>537.0</ele><time>2026-04-20T08:06:46.997Z</time></trkpt><trkpt lat="45.697766941433564" lon="10.31982680131025"><ele>537.0</ele><time>2026-04-20T08:06:47.997Z</time></trkpt><trkpt lat="45.69776188811261" lon="10.31995255184034"><ele>537.0</ele><time>2026-04-20T08:06:48.997Z</time></trkpt><trkpt lat="45.69781732031018" lon="10.320106689941174"><ele>537.0</ele><time>2026-04-20T08:06:49.997Z</time></trkpt><trkpt lat="45.69785894869551" lon="10.320247917740664"><ele>537.0</ele><time>2026-04-20T08:06:50.997Z</time></trkpt><trkpt lat="45.69790228068631" lon="10.320399011033839"><ele>537.0</ele><time>2026-04-20T08:06:51.997Z</time></trkpt><trkpt lat="45.69794582095816" lon="10.32053072590363"><ele>537.0</ele><time>2026-04-20T08:06:52.997Z</time></trkpt><trkpt lat="45.69796549210166" lon="10.32064692631107"><ele>537.0</ele><time>2026-04-20T08:06:53.997Z</time></trkpt><trkpt lat="45.697945162007166" lon="10.32079672781186"><ele>537.0</ele><time>2026-04-20T08:06:54.997Z</time></trkpt><trkpt lat="45.69790015464017" lon="10.32092502568493"><ele>535.6</ele><time>2026-04-20T08:06:55.997Z</time></trkpt><trkpt lat="45.69782922373835" lon="10.321015323140944"><ele>534.2</ele><time>2026-04-20T08:06:56.997Z</time></trkpt><trkpt lat="45.69771954750049" lon="10.321109127196117"><ele>532.8</ele><time>2026-04-20T08:06:57.997Z</time></trkpt><trkpt lat="45.697628574407936" lon="10.321181012299194"><ele>531.4</ele><time>2026-04-20T08:06:58.997Z</time></trkpt><trkpt lat="45.69755113515734" lon="10.321266364029318"><ele>530.0</ele><time>2026-04-20T08:06:59.997Z</time></trkpt><trkpt lat="45.69748820786041" lon="10.321367427588532"><ele>526.2</ele><time>2026-04-20T08:07:00.997Z</time></trkpt><trkpt lat="45.69744833546967" lon="10.321461922056065"><ele>522.4</ele><time>2026-04-20T08:07:01.997Z</time></trkpt><trkpt lat="45.69742836853278" lon="10.32158787870399"><ele>518.6</ele><time>2026-04-20T08:07:02.997Z</time></trkpt><trkpt lat="45.697431334339" lon="10.32173373808208"><ele>514.8</ele><time>2026-04-20T08:07:03.997Z</time></trkpt><trkpt lat="45.69744147794706" lon="10.321916553771711"><ele>511.0</ele><time>2026-04-20T08:07:04.997Z</time></trkpt><trkpt lat="45.697475043408666" lon="10.322065765393686"><ele>511.00000000000006</ele><time>2026-04-20T08:07:05.997Z</time></trkpt><trkpt lat="45.69750374735473" lon="10.322181492403116"><ele>511.0</ele><time>2026-04-20T08:07:06.997Z</time></trkpt><trkpt lat="45.69753237023093" lon="10.32229233119698"><ele>511.0</ele><time>2026-04-20T08:07:07.997Z</time></trkpt><trkpt lat="45.697556207184626" lon="10.322384045069187"><ele>511.0</ele><time>2026-04-20T08:07:08.997Z</time></trkpt><trkpt lat="45.69747481362641" lon="10.322494110295755"><ele>511.00000000000006</ele><time>2026-04-20T08:07:10.997Z</time></trkpt><trkpt lat="45.69741160315245" lon="10.322464144463936"><ele>511.0</ele><time>2026-04-20T08:07:11.997Z</time></trkpt><trkpt lat="45.69734673605655" lon="10.322379294981058"><ele>511.0</ele><time>2026-04-20T08:07:12.997Z</time></trkpt><trkpt lat="45.69733119070465" lon="10.322237069081204"><ele>511.0</ele><time>2026-04-20T08:07:13.997Z</time></trkpt><trkpt lat="45.697319371059756" lon="10.322091078439248"><ele>511.0</ele><time>2026-04-20T08:07:14.997Z</time></trkpt><trkpt lat="45.697311892993646" lon="10.321935898889597"><ele>511.0</ele><time>2026-04-20T08:07:15.997Z</time></trkpt><trkpt lat="45.69730376422029" lon="10.321787803924742"><ele>511.0</ele><time>2026-04-20T08:07:16.997Z</time></trkpt><trkpt lat="45.69729667162317" lon="10.321628137526082"><ele>511.0</ele><time>2026-04-20T08:07:17.997Z</time></trkpt><trkpt lat="45.69729697954966" lon="10.321486567167899"><ele>511.0</ele><time>2026-04-20T08:07:18.997Z</time></trkpt><trkpt lat="45.69731516156395" lon="10.321366165464935"><ele>511.0</ele><time>2026-04-20T08:07:19.997Z</time></trkpt><trkpt lat="45.69736848924425" lon="10.32125894688899"><ele>511.0</ele><time>2026-04-20T08:07:20.997Z</time></trkpt><trkpt lat="45.69741768910534" lon="10.321146564311992"><ele>511.0</ele><time>2026-04-20T08:07:21.997Z</time></trkpt><trkpt lat="45.69744221831796" lon="10.321030767487127"><ele>510.6666666666667</ele><time>2026-04-20T08:07:22.997Z</time></trkpt><trkpt lat="45.69740395008238" lon="10.320920245910084"><ele>510.33333333333337</ele><time>2026-04-20T08:07:23.997Z</time></trkpt><trkpt lat="45.69736914254711" lon="10.320816700973808"><ele>510.0</ele><time>2026-04-20T08:07:24.997Z</time></trkpt><trkpt lat="45.697305081793836" lon="10.32074988884002"><ele>509.66666666666663</ele><time>2026-04-20T08:07:25.997Z</time></trkpt><trkpt lat="45.69722237035321" lon="10.320789512009336"><ele>509.3333333333333</ele><time>2026-04-20T08:07:26.997Z</time></trkpt><trkpt lat="45.69715804757844" lon="10.320869239321373"><ele>509.0</ele><time>2026-04-20T08:07:27.997Z</time></trkpt><trkpt lat="45.69711425360467" lon="10.32098012545169"><ele>509.0</ele><time>2026-04-20T08:07:28.997Z</time></trkpt><trkpt lat="45.69707715286068" lon="10.321161701526917"><ele>509.0</ele><time>2026-04-20T08:07:29.997Z</time></trkpt><trkpt lat="45.697074544834734" lon="10.321349753161504"><ele>509.0</ele><time>2026-04-20T08:07:30.997Z</time></trkpt><trkpt lat="45.69707270031103" lon="10.321515727721863"><ele>509.0</ele><time>2026-04-20T08:07:31.997Z</time></trkpt><trkpt lat="45.697088098224484" lon="10.321690962550223"><ele>509.5</ele><time>2026-04-20T08:07:32.997Z</time></trkpt><trkpt lat="45.69711895124771" lon="10.321858780999195"><ele>510.0</ele><time>2026-04-20T08:07:33.997Z</time></trkpt><trkpt lat="45.69712751584888" lon="10.322035286952959"><ele>510.5</ele><time>2026-04-20T08:07:34.997Z</time></trkpt><trkpt lat="45.69713893844639" lon="10.322189583664418"><ele>511.0</ele><time>2026-04-20T08:07:35.997Z</time></trkpt><trkpt lat="45.697155236987975" lon="10.322349027449327"><ele>510.33333333333337</ele><time>2026-04-20T08:07:36.997Z</time></trkpt><trkpt lat="45.697175567378586" lon="10.32248616279031"><ele>509.6666666666667</ele><time>2026-04-20T08:07:37.997Z</time></trkpt><trkpt lat="45.69717246635009" lon="10.32259320397918"><ele>509.0</ele><time>2026-04-20T08:07:38.997Z</time></trkpt><trkpt lat="45.697181605208804" lon="10.32270040847002"><ele>508.33333333333337</ele><time>2026-04-20T08:07:39.997Z</time></trkpt><trkpt lat="45.69714767203411" lon="10.32282502089417"><ele>507.6666666666667</ele><time>2026-04-20T08:07:41.997Z</time></trkpt><trkpt lat="45.69705113941249" lon="10.322810645579757"><ele>507.0</ele><time>2026-04-20T08:07:43.997Z</time></trkpt><trkpt lat="45.6970318153319" lon="10.322637767508319"><ele>507.0</ele><time>2026-04-20T08:07:45.997Z</time></trkpt><trkpt lat="45.69704461357898" lon="10.322511810320085"><ele>507.00000000000006</ele><time>2026-04-20T08:07:46.997Z</time></trkpt><trkpt lat="45.697063712323455" lon="10.322365069105613"><ele>507.00000000000006</ele><time>2026-04-20T08:07:47.997Z</time></trkpt><trkpt lat="45.69706649114466" lon="10.322222703118534"><ele>507.0</ele><time>2026-04-20T08:07:48.997Z</time></trkpt><trkpt lat="45.69706800683482" lon="10.32208867000989"><ele>507.0</ele><time>2026-04-20T08:07:49.997Z</time></trkpt><trkpt lat="45.69704514183782" lon="10.321950265983947"><ele>508.0</ele><time>2026-04-20T08:07:50.997Z</time></trkpt><trkpt lat="45.69700283861548" lon="10.321788979693261"><ele>509.0</ele><time>2026-04-20T08:07:51.997Z</time></trkpt><trkpt lat="45.696950192195835" lon="10.321636380122227"><ele>510.0</ele><time>2026-04-20T08:07:52.997Z</time></trkpt><trkpt lat="45.696905172598576" lon="10.321483376033562"><ele>511.0</ele><time>2026-04-20T08:07:53.996Z</time></trkpt><trkpt lat="45.696885744870684" lon="10.32133373373001"><ele>510.6</ele><time>2026-04-20T08:07:54.996Z</time></trkpt><trkpt lat="45.69688517030016" lon="10.321189118941755"><ele>510.20000000000005</ele><time>2026-04-20T08:07:55.996Z</time></trkpt><trkpt lat="45.69689901141241" lon="10.321049653215075"><ele>509.79999999999995</ele><time>2026-04-20T08:07:56.996Z</time></trkpt><trkpt lat="45.69693517086391" lon="10.320914076735036"><ele>509.4</ele><time>2026-04-20T08:07:57.996Z</time></trkpt><trkpt lat="45.696981180814355" lon="10.320782132460876"><ele>509.0</ele><time>2026-04-20T08:07:58.996Z</time></trkpt><trkpt lat="45.696994704576454" lon="10.320624477555388"><ele>508.5</ele><time>2026-04-20T08:07:59.996Z</time></trkpt><trkpt lat="45.69698004634259" lon="10.320458166392754"><ele>508.0</ele><time>2026-04-20T08:08:00.996Z</time></trkpt><trkpt lat="45.696918296147636" lon="10.320296204261707"><ele>507.5</ele><time>2026-04-20T08:08:01.996Z</time></trkpt><trkpt lat="45.69684934870118" lon="10.32015231788726"><ele>507.0</ele><time>2026-04-20T08:08:02.996Z</time></trkpt><trkpt lat="45.69677972914814" lon="10.320023640030092"><ele>501.8</ele><time>2026-04-20T08:08:03.996Z</time></trkpt><trkpt lat="45.69671863609643" lon="10.319869681350283"><ele>496.6</ele><time>2026-04-20T08:08:04.996Z</time></trkpt><trkpt lat="45.69667916071515" lon="10.319741713817217"><ele>491.40000000000003</ele><time>2026-04-20T08:08:05.996Z</time></trkpt><trkpt lat="45.69665226777717" lon="10.319625268457246"><ele>486.20000000000005</ele><time>2026-04-20T08:08:06.996Z</time></trkpt><trkpt lat="45.69665695725951" lon="10.319495259070441"><ele>481.0</ele><time>2026-04-20T08:08:07.996Z</time></trkpt><trkpt lat="45.69669140763747" lon="10.319375563813885"><ele>480.25</ele><time>2026-04-20T08:08:08.996Z</time></trkpt><trkpt lat="45.6967689015902" lon="10.319261715695617"><ele>479.5</ele><time>2026-04-20T08:08:09.996Z</time></trkpt><trkpt lat="45.69686659886108" lon="10.319141293503451"><ele>478.75</ele><time>2026-04-20T08:08:10.996Z</time></trkpt><trkpt lat="45.69696375014204" lon="10.319017904304609"><ele>478.0</ele><time>2026-04-20T08:08:11.996Z</time></trkpt><trkpt lat="45.6970559913137" lon="10.318899077980502"><ele>478.0</ele><time>2026-04-20T08:08:12.996Z</time></trkpt><trkpt lat="45.69714369691804" lon="10.31879046542229"><ele>478.0</ele><time>2026-04-20T08:08:13.996Z</time></trkpt><trkpt lat="45.69723701177138" lon="10.318674016252636"><ele>478.0</ele><time>2026-04-20T08:08:14.996Z</time></trkpt><trkpt lat="45.6973307974441" lon="10.318562944077732"><ele>478.0</ele><time>2026-04-20T08:08:15.996Z</time></trkpt><trkpt lat="45.69741745194516" lon="10.318485913392292"><ele>478.0</ele><time>2026-04-20T08:08:16.996Z</time></trkpt><trkpt lat="45.69750402646463" lon="10.318394928550568"><ele>477.99999999999994</ele><time>2026-04-20T08:08:17.996Z</time></trkpt><trkpt lat="45.69758213175703" lon="10.31828586967043"><ele>477.99999999999994</ele><time>2026-04-20T08:08:18.996Z</time></trkpt><trkpt lat="45.69762336761769" lon="10.31815116566756"><ele>478.0</ele><time>2026-04-20T08:08:19.996Z</time></trkpt><trkpt lat="45.69763815083564" lon="10.317984622654164"><ele>478.0</ele><time>2026-04-20T08:08:20.996Z</time></trkpt><trkpt lat="45.6976469834868" lon="10.317834499393511"><ele>479.79999999999995</ele><time>2026-04-20T08:08:21.996Z</time></trkpt><trkpt lat="45.69767029672165" lon="10.317725323398289"><ele>481.59999999999997</ele><time>2026-04-20T08:08:22.996Z</time></trkpt><trkpt lat="45.697725743550436" lon="10.317605639541338"><ele>483.40000000000003</ele><time>2026-04-20T08:08:23.996Z</time></trkpt><trkpt lat="45.697794454734165" lon="10.317510493030305"><ele>485.20000000000005</ele><time>2026-04-20T08:08:24.996Z</time></trkpt><trkpt lat="45.69787574884076" lon="10.317412808037089"><ele>487.0</ele><time>2026-04-20T08:08:25.996Z</time></trkpt><trkpt lat="45.69797499877669" lon="10.317297277339561"><ele>482.5</ele><time>2026-04-20T08:08:26.996Z</time></trkpt><trkpt lat="45.69807466878826" lon="10.317183448843554"><ele>478.0</ele><time>2026-04-20T08:08:27.996Z</time></trkpt><trkpt lat="45.69816981215108" lon="10.31707648625915"><ele>473.5</ele><time>2026-04-20T08:08:28.996Z</time></trkpt><trkpt lat="45.69826027957704" lon="10.31697573866958"><ele>469.0</ele><time>2026-04-20T08:08:29.996Z</time></trkpt><trkpt lat="45.69834645812502" lon="10.316853246803426"><ele>469.0</ele><time>2026-04-20T08:08:30.996Z</time></trkpt><trkpt lat="45.69844413189672" lon="10.316733313397139"><ele>469.0</ele><time>2026-04-20T08:08:31.996Z</time></trkpt><trkpt lat="45.698529873214135" lon="10.316605445884248"><ele>469.0</ele><time>2026-04-20T08:08:32.996Z</time></trkpt><trkpt lat="45.69859093509633" lon="10.316457320935752"><ele>469.0</ele><time>2026-04-20T08:08:33.996Z</time></trkpt><trkpt lat="45.69864328387117" lon="10.316282167465486"><ele>472.2</ele><time>2026-04-20T08:08:34.996Z</time></trkpt><trkpt lat="45.69868822510254" lon="10.316122653331275"><ele>475.4</ele><time>2026-04-20T08:08:35.996Z</time></trkpt><trkpt lat="45.69871803056504" lon="10.31597486511219"><ele>478.6</ele><time>2026-04-20T08:08:36.996Z</time></trkpt><trkpt lat="45.698748074123706" lon="10.315825892114306"><ele>481.8</ele><time>2026-04-20T08:08:37.996Z</time></trkpt><trkpt lat="45.69877691400173" lon="10.315679110647705"><ele>485.0</ele><time>2026-04-20T08:08:38.996Z</time></trkpt><trkpt lat="45.69879907128541" lon="10.315579250206778"><ele>483.2</ele><time>2026-04-20T08:08:39.996Z</time></trkpt><trkpt lat="45.698794218915324" lon="10.315379758174073"><ele>481.4</ele><time>2026-04-20T08:08:41.996Z</time></trkpt><trkpt lat="45.698741911490465" lon="10.315296468119023"><ele>479.6</ele><time>2026-04-20T08:08:42.996Z</time></trkpt><trkpt lat="45.69867497572291" lon="10.315264418301705"><ele>477.8</ele><time>2026-04-20T08:08:43.996Z</time></trkpt><trkpt lat="45.69860628121434" lon="10.315334980708382"><ele>476.0</ele><time>2026-04-20T08:08:44.996Z</time></trkpt><trkpt lat="45.698531244669" lon="10.31539839926097"><ele>470.75</ele><time>2026-04-20T08:08:45.996Z</time></trkpt><trkpt lat="45.69846344529674" lon="10.31557199464487"><ele>465.5</ele><time>2026-04-20T08:08:46.996Z</time></trkpt><trkpt lat="45.698404798347255" lon="10.315730558619459"><ele>460.25</ele><time>2026-04-20T08:08:47.996Z</time></trkpt><trkpt lat="45.698340697812526" lon="10.315889093314128"><ele>455.0</ele><time>2026-04-20T08:08:48.996Z</time></trkpt><trkpt lat="45.69826967937973" lon="10.316048348855292"><ele>455.0</ele><time>2026-04-20T08:08:49.996Z</time></trkpt><trkpt lat="45.69818560633151" lon="10.316188536958691"><ele>455.0</ele><time>2026-04-20T08:08:50.996Z</time></trkpt><trkpt lat="45.69808283655124" lon="10.316320082719638"><ele>455.0</ele><time>2026-04-20T08:08:51.996Z</time></trkpt><trkpt lat="45.6979699603616" lon="10.316455824862876"><ele>455.0</ele><time>2026-04-20T08:08:52.996Z</time></trkpt><trkpt lat="45.69784991969905" lon="10.316600182828857"><ele>453.25</ele><time>2026-04-20T08:08:53.996Z</time></trkpt><trkpt lat="45.69776020593128" lon="10.31672227510358"><ele>451.5</ele><time>2026-04-20T08:08:54.996Z</time></trkpt><trkpt lat="45.69765616384413" lon="10.316843610208707"><ele>449.75</ele><time>2026-04-20T08:08:55.996Z</time></trkpt><trkpt lat="45.697558706013716" lon="10.316932952357599"><ele>448.0</ele><time>2026-04-20T08:08:56.996Z</time></trkpt><trkpt lat="45.69747642379732" lon="10.317010570613267"><ele>448.0</ele><time>2026-04-20T08:08:57.996Z</time></trkpt><trkpt lat="45.69741177870213" lon="10.31708659415698"><ele>447.99999999999994</ele><time>2026-04-20T08:08:58.996Z</time></trkpt><trkpt lat="45.69734296887256" lon="10.31716261641149"><ele>447.99999999999994</ele><time>2026-04-20T08:08:59.996Z</time></trkpt><trkpt lat="45.6972775425792" lon="10.317259468202439"><ele>448.0</ele><time>2026-04-20T08:09:00.996Z</time></trkpt><trkpt lat="45.697201504493464" lon="10.31735499356492"><ele>448.0</ele><time>2026-04-20T08:09:01.996Z</time></trkpt><trkpt lat="45.697129839587845" lon="10.317441298940325"><ele>450.6666666666667</ele><time>2026-04-20T08:09:02.996Z</time></trkpt><trkpt lat="45.697074112136825" lon="10.317512024709767"><ele>453.33333333333337</ele><time>2026-04-20T08:09:03.996Z</time></trkpt><trkpt lat="45.69701639186621" lon="10.317565187975385"><ele>456.0</ele><time>2026-04-20T08:09:04.996Z</time></trkpt><trkpt lat="45.6969330316048" lon="10.31755167076623"><ele>458.66666666666663</ele><time>2026-04-20T08:09:06.996Z</time></trkpt><trkpt lat="45.69693096626183" lon="10.317400992122984"><ele>461.3333333333333</ele><time>2026-04-20T08:09:07.996Z</time></trkpt><trkpt lat="45.69700166662879" lon="10.31733215411477"><ele>464.0</ele><time>2026-04-20T08:09:09.001Z</time></trkpt><trkpt lat="45.69708306581139" lon="10.317241689892162"><ele>460.0</ele><time>2026-04-20T08:09:10.001Z</time></trkpt><trkpt lat="45.697167647177274" lon="10.31711184162935"><ele>456.0</ele><time>2026-04-20T08:09:11.001Z</time></trkpt><trkpt lat="45.69726699175047" lon="10.317000704833658"><ele>452.0</ele><time>2026-04-20T08:09:12.001Z</time></trkpt><trkpt lat="45.6973498878531" lon="10.316894098109444"><ele>448.0</ele><time>2026-04-20T08:09:13.001Z</time></trkpt><trkpt lat="45.697427504719215" lon="10.316779257059506"><ele>448.00000000000006</ele><time>2026-04-20T08:09:14.001Z</time></trkpt><trkpt lat="45.69751221762474" lon="10.316690668173175"><ele>448.0</ele><time>2026-04-20T08:09:15.001Z</time></trkpt><trkpt lat="45.69757080922948" lon="10.31660056602105"><ele>448.0</ele><time>2026-04-20T08:09:16.001Z</time></trkpt><trkpt lat="45.69761466478736" lon="10.316528627552575"><ele>448.0</ele><time>2026-04-20T08:09:17.001Z</time></trkpt><trkpt lat="45.69763532470997" lon="10.316426982064916"><ele>448.00000000000006</ele><time>2026-04-20T08:09:18.001Z</time></trkpt><trkpt lat="45.69761749348498" lon="10.316328474637523"><ele>448.0</ele><time>2026-04-20T08:09:19.001Z</time></trkpt><trkpt lat="45.69756585326196" lon="10.316247080817812"><ele>448.0</ele><time>2026-04-20T08:09:20.001Z</time></trkpt><trkpt lat="45.697487264480785" lon="10.3161931829917"><ele>447.99999999999994</ele><time>2026-04-20T08:09:21.001Z</time></trkpt><trkpt lat="45.69739921730424" lon="10.31624062673256"><ele>447.99999999999994</ele><time>2026-04-20T08:09:22.001Z</time></trkpt><trkpt lat="45.697325485468305" lon="10.316360847705548"><ele>448.0</ele><time>2026-04-20T08:09:23.001Z</time></trkpt><trkpt lat="45.69722074560304" lon="10.31646499912189"><ele>448.0</ele><time>2026-04-20T08:09:24.001Z</time></trkpt><trkpt lat="45.697128965319266" lon="10.316546821669778"><ele>448.0</ele><time>2026-04-20T08:09:25.001Z</time></trkpt><trkpt lat="45.69703842250223" lon="10.316667530446113"><ele>448.0</ele><time>2026-04-20T08:09:26.001Z</time></trkpt><trkpt lat="45.696927535812655" lon="10.316783274108738"><ele>448.0</ele><time>2026-04-20T08:09:27.001Z</time></trkpt><trkpt lat="45.69681741650014" lon="10.31689811033235"><ele>448.0</ele><time>2026-04-20T08:09:28.001Z</time></trkpt><trkpt lat="45.69671889475877" lon="10.316981886748938"><ele>446.0</ele><time>2026-04-20T08:09:29.001Z</time></trkpt><trkpt lat="45.69663152109616" lon="10.317079598304385"><ele>444.0</ele><time>2026-04-20T08:09:30.001Z</time></trkpt><trkpt lat="45.69655226567071" lon="10.317190670345083"><ele>442.0</ele><time>2026-04-20T08:09:31.001Z</time></trkpt><trkpt lat="45.69647064125128" lon="10.317315837632956"><ele>440.0</ele><time>2026-04-20T08:09:32.001Z</time></trkpt><trkpt lat="45.6963817940661" lon="10.317473178772113"><ele>439.75</ele><time>2026-04-20T08:09:33.001Z</time></trkpt><trkpt lat="45.696256472945464" lon="10.317608117026586"><ele>439.5</ele><time>2026-04-20T08:09:34.001Z</time></trkpt><trkpt lat="45.696174176513495" lon="10.317759185866167"><ele>439.25</ele><time>2026-04-20T08:09:35.001Z</time></trkpt><trkpt lat="45.69611433344257" lon="10.317866617777101"><ele>439.0</ele><time>2026-04-20T08:09:36.001Z</time></trkpt><trkpt lat="45.69605163346276" lon="10.317973229478266"><ele>438.6</ele><time>2026-04-20T08:09:37.001Z</time></trkpt><trkpt lat="45.69597759635892" lon="10.31806010642427"><ele>438.2</ele><time>2026-04-20T08:09:38.001Z</time></trkpt><trkpt lat="45.695883316977955" lon="10.318124537656589"><ele>437.80000000000007</ele><time>2026-04-20T08:09:39.001Z</time></trkpt><trkpt lat="45.695777137834654" lon="10.318180334858933"><ele>437.40000000000003</ele><time>2026-04-20T08:09:40.001Z</time></trkpt><trkpt lat="45.695665646900416" lon="10.318222740164597"><ele>437.0</ele><time>2026-04-20T08:09:41.001Z</time></trkpt><trkpt lat="45.6955674461637" lon="10.318245669326515"><ele>437.0</ele><time>2026-04-20T08:09:42.001Z</time></trkpt><trkpt lat="45.69547541470903" lon="10.318284695596759"><ele>437.00000000000006</ele><time>2026-04-20T08:09:43.001Z</time></trkpt><trkpt lat="45.695387353684694" lon="10.318325130865707"><ele>437.00000000000006</ele><time>2026-04-20T08:09:44.001Z</time></trkpt><trkpt lat="45.69531149722322" lon="10.318377362954243"><ele>437.0</ele><time>2026-04-20T08:09:45.001Z</time></trkpt><trkpt lat="45.69522905409731" lon="10.318448609466506"><ele>437.0</ele><time>2026-04-20T08:09:46.001Z</time></trkpt><trkpt lat="45.6951518814389" lon="10.318546302980941"><ele>435.8</ele><time>2026-04-20T08:09:47.001Z</time></trkpt><trkpt lat="45.69509916190624" lon="10.318636502609698"><ele>434.6</ele><time>2026-04-20T08:09:48.001Z</time></trkpt><trkpt lat="45.69503714861322" lon="10.318757712988718"><ele>433.40000000000003</ele><time>2026-04-20T08:09:49.001Z</time></trkpt><trkpt lat="45.69497078389414" lon="10.31889309016714"><ele>432.20000000000005</ele><time>2026-04-20T08:09:50.001Z</time></trkpt><trkpt lat="45.6949180846889" lon="10.31900913145139"><ele>431.0</ele><time>2026-04-20T08:09:51.001Z</time></trkpt><trkpt lat="45.694846056270734" lon="10.319106747376365"><ele>430.0</ele><time>2026-04-20T08:09:52.001Z</time></trkpt><trkpt lat="45.69479302444486" lon="10.31923259139844"><ele>429.0</ele><time>2026-04-20T08:09:53.001Z</time></trkpt><trkpt lat="45.69471162362638" lon="10.319350961584165"><ele>428.0</ele><time>2026-04-20T08:09:54.001Z</time></trkpt><trkpt lat="45.69460417965682" lon="10.319465824224283"><ele>427.0</ele><time>2026-04-20T08:09:55.001Z</time></trkpt><trkpt lat="45.69452474830741" lon="10.319577772765813"><ele>427.0</ele><time>2026-04-20T08:09:56.001Z</time></trkpt><trkpt lat="45.69447033196271" lon="10.319693435974074"><ele>427.00000000000006</ele><time>2026-04-20T08:09:57Z</time></trkpt><trkpt lat="45.694409014534166" lon="10.31980299224468"><ele>427.00000000000006</ele><time>2026-04-20T08:09:58Z</time></trkpt><trkpt lat="45.69437249373537" lon="10.319940975453763"><ele>427.0</ele><time>2026-04-20T08:09:59.001Z</time></trkpt><trkpt lat="45.69435976948608" lon="10.320091201160286"><ele>427.0</ele><time>2026-04-20T08:10:00.001Z</time></trkpt><trkpt lat="45.69438267449972" lon="10.320287432461223"><ele>426.5</ele><time>2026-04-20T08:10:01.001Z</time></trkpt><trkpt lat="45.69440123183714" lon="10.320476476120799"><ele>426.0</ele><time>2026-04-20T08:10:02.001Z</time></trkpt><trkpt lat="45.694419049156735" lon="10.320643121244878"><ele>425.5</ele><time>2026-04-20T08:10:03.001Z</time></trkpt><trkpt lat="45.69443186751811" lon="10.320823451252435"><ele>425.0</ele><time>2026-04-20T08:10:04.001Z</time></trkpt><trkpt lat="45.69444279500554" lon="10.320946714950473"><ele>424.99999999999994</ele><time>2026-04-20T08:10:05Z</time></trkpt><trkpt lat="45.69446035346986" lon="10.321055472219054"><ele>425.0</ele><time>2026-04-20T08:10:06.001Z</time></trkpt><trkpt lat="45.6944833162974" lon="10.321158500689268"><ele>425.0</ele><time>2026-04-20T08:10:07.001Z</time></trkpt><trkpt lat="45.69448104782007" lon="10.321299032211328"><ele>425.0</ele><time>2026-04-20T08:10:08Z</time></trkpt><trkpt lat="45.6944823221304" lon="10.321401693063011"><ele>424.99999999999994</ele><time>2026-04-20T08:10:09.001Z</time></trkpt><trkpt lat="45.69448903433514" lon="10.32150823860662"><ele>425.0</ele><time>2026-04-20T08:10:10.001Z</time></trkpt><trkpt lat="45.69449701660181" lon="10.321627990631828"><ele>424.2</ele><time>2026-04-20T08:10:11.001Z</time></trkpt><trkpt lat="45.694508730460264" lon="10.321763156267545"><ele>423.4</ele><time>2026-04-20T08:10:12.001Z</time></trkpt><trkpt lat="45.6945317536399" lon="10.321901420074601"><ele>422.6</ele><time>2026-04-20T08:10:13.001Z</time></trkpt><trkpt lat="45.69455570067775" lon="10.322071096830888"><ele>421.8</ele><time>2026-04-20T08:10:14.001Z</time></trkpt><trkpt lat="45.69459505206193" lon="10.322241167306316"><ele>421.0</ele><time>2026-04-20T08:10:15.001Z</time></trkpt><trkpt lat="45.69463992897379" lon="10.322433029140605"><ele>419.25</ele><time>2026-04-20T08:10:16.001Z</time></trkpt><trkpt lat="45.69468577276116" lon="10.322614131332292"><ele>417.5</ele><time>2026-04-20T08:10:17.001Z</time></trkpt><trkpt lat="45.69471792567153" lon="10.32281968217605"><ele>415.75</ele><time>2026-04-20T08:10:18.001Z</time></trkpt><trkpt lat="45.69476039521681" lon="10.323035892874316"><ele>414.0</ele><time>2026-04-20T08:10:19.001Z</time></trkpt><trkpt lat="45.69480140449144" lon="10.323249349234956"><ele>413.0</ele><time>2026-04-20T08:10:20.001Z</time></trkpt><trkpt lat="45.69485227861622" lon="10.32346836208573"><ele>412.0</ele><time>2026-04-20T08:10:21.001Z</time></trkpt><trkpt lat="45.69490089362055" lon="10.323685681549987"><ele>411.0</ele><time>2026-04-20T08:10:22.001Z</time></trkpt><trkpt lat="45.69495621707168" lon="10.323879407578207"><ele>409.66666666666663</ele><time>2026-04-20T08:10:23.001Z</time></trkpt><trkpt lat="45.69500782484831" lon="10.324094994617383"><ele>408.3333333333333</ele><time>2026-04-20T08:10:24.001Z</time></trkpt><trkpt lat="45.69505668131131" lon="10.32432155523471"><ele>407.0</ele><time>2026-04-20T08:10:25.001Z</time></trkpt><trkpt lat="45.69508209240882" lon="10.324558020577786"><ele>406.66666666666663</ele><time>2026-04-20T08:10:26.001Z</time></trkpt><trkpt lat="45.69512082986455" lon="10.324790506969888"><ele>406.33333333333337</ele><time>2026-04-20T08:10:27.001Z</time></trkpt><trkpt lat="45.6951430603365" lon="10.325011698884738"><ele>406.0</ele><time>2026-04-20T08:10:28.001Z</time></trkpt><trkpt lat="45.695182920164086" lon="10.325236462194749"><ele>406.0</ele><time>2026-04-20T08:10:29.001Z</time></trkpt><trkpt lat="45.69522293815095" lon="10.325466709032"><ele>406.0</ele><time>2026-04-20T08:10:30.001Z</time></trkpt><trkpt lat="45.69526115662985" lon="10.3256907700652"><ele>406.0</ele><time>2026-04-20T08:10:31.001Z</time></trkpt><trkpt lat="45.69529932678934" lon="10.325947686984836"><ele>407.33333333333337</ele><time>2026-04-20T08:10:32.001Z</time></trkpt><trkpt lat="45.69534667252171" lon="10.326204723428534"><ele>408.66666666666663</ele><time>2026-04-20T08:10:33.001Z</time></trkpt><trkpt lat="45.69539599147041" lon="10.326450080704873"><ele>410.0</ele><time>2026-04-20T08:10:34.001Z</time></trkpt><trkpt lat="45.695438662647874" lon="10.326704239353305"><ele>410.0</ele><time>2026-04-20T08:10:35.001Z</time></trkpt><trkpt lat="45.69548468471901" lon="10.326940171940937"><ele>410.0</ele><time>2026-04-20T08:10:36Z</time></trkpt><trkpt lat="45.695524931112224" lon="10.327165568914193"><ele>410.0</ele><time>2026-04-20T08:10:37Z</time></trkpt><trkpt lat="45.69557162106509" lon="10.327396710005535"><ele>409.0</ele><time>2026-04-20T08:10:38Z</time></trkpt><trkpt lat="45.69562947606405" lon="10.327639389974028"><ele>408.0</ele><time>2026-04-20T08:10:39Z</time></trkpt><trkpt lat="45.69569267266915" lon="10.327868799913505"><ele>407.0</ele><time>2026-04-20T08:10:40Z</time></trkpt><trkpt lat="45.695740847712614" lon="10.32811206379448"><ele>405.3333333333333</ele><time>2026-04-20T08:10:41Z</time></trkpt><trkpt lat="45.69577134318394" lon="10.328326204656646"><ele>403.66666666666663</ele><time>2026-04-20T08:10:42Z</time></trkpt><trkpt lat="45.6957774316793" lon="10.328549976182911"><ele>402.0</ele><time>2026-04-20T08:10:43Z</time></trkpt><trkpt lat="45.69575374713681" lon="10.328782961635449"><ele>401.66666666666663</ele><time>2026-04-20T08:10:44Z</time></trkpt><trkpt lat="45.69570427120854" lon="10.329019656615717"><ele>401.3333333333333</ele><time>2026-04-20T08:10:45Z</time></trkpt><trkpt lat="45.69566128863521" lon="10.329216660308202"><ele>401.0</ele><time>2026-04-20T08:10:46Z</time></trkpt><trkpt lat="45.695623329126114" lon="10.329403938547621"><ele>401.0</ele><time>2026-04-20T08:10:47Z</time></trkpt><trkpt lat="45.695585581690366" lon="10.32957170461935"><ele>401.0</ele><time>2026-04-20T08:10:48Z</time></trkpt><trkpt lat="45.695522688747005" lon="10.329737526090868"><ele>401.0</ele><time>2026-04-20T08:10:49Z</time></trkpt><trkpt lat="45.69555510104169" lon="10.329914910478427"><ele>401.0</ele><time>2026-04-20T08:10:50Z</time></trkpt><trkpt lat="45.69561155228402" lon="10.330075464262778"><ele>401.0</ele><time>2026-04-20T08:10:51Z</time></trkpt><trkpt lat="45.69567790882399" lon="10.33027225358177"><ele>401.0</ele><time>2026-04-20T08:10:52Z</time></trkpt><trkpt lat="45.69573991348844" lon="10.330487071730918"><ele>401.0</ele><time>2026-04-20T08:10:53Z</time></trkpt><trkpt lat="45.69578451594482" lon="10.330702108591169"><ele>398.0</ele><time>2026-04-20T08:10:54Z</time></trkpt><trkpt lat="45.6958476638893" lon="10.330901287872855"><ele>395.0</ele><time>2026-04-20T08:10:55Z</time></trkpt><trkpt lat="45.695918988718795" lon="10.331104400978985"><ele>392.0</ele><time>2026-04-20T08:10:56Z</time></trkpt><trkpt lat="45.69597108217003" lon="10.331316861240094"><ele>391.0</ele><time>2026-04-20T08:10:57Z</time></trkpt><trkpt lat="45.69604734308192" lon="10.331552039847733"><ele>390.0</ele><time>2026-04-20T08:10:58Z</time></trkpt><trkpt lat="45.696118965888964" lon="10.331772915166464"><ele>389.0</ele><time>2026-04-20T08:10:59Z</time></trkpt><trkpt lat="45.69619409755445" lon="10.331988222800815"><ele>389.66666666666663</ele><time>2026-04-20T08:11:00Z</time></trkpt><trkpt lat="45.69626655295411" lon="10.33223581614243"><ele>390.33333333333337</ele><time>2026-04-20T08:11:01Z</time></trkpt><trkpt lat="45.69635457246685" lon="10.332486118362267"><ele>391.0</ele><time>2026-04-20T08:11:02Z</time></trkpt><trkpt lat="45.69643796705559" lon="10.332722511245828"><ele>391.0</ele><time>2026-04-20T08:11:03Z</time></trkpt><trkpt lat="45.69652169674287" lon="10.332937439855245"><ele>391.0</ele><time>2026-04-20T08:11:04Z</time></trkpt><trkpt lat="45.69659848911614" lon="10.333156779712478"><ele>391.0</ele><time>2026-04-20T08:11:05Z</time></trkpt><trkpt lat="45.69666776291586" lon="10.333374435634672"><ele>389.33333333333337</ele><time>2026-04-20T08:11:06Z</time></trkpt><trkpt lat="45.6967357675101" lon="10.333592470617708"><ele>387.66666666666663</ele><time>2026-04-20T08:11:07Z</time></trkpt><trkpt lat="45.69680585374054" lon="10.333809205791088"><ele>386.0</ele><time>2026-04-20T08:11:08Z</time></trkpt><trkpt lat="45.69688107690475" lon="10.334049579646333"><ele>386.0</ele><time>2026-04-20T08:11:09Z</time></trkpt><trkpt lat="45.69696190989608" lon="10.334303851503446"><ele>386.0</ele><time>2026-04-20T08:11:10Z</time></trkpt><trkpt lat="45.697051553993" lon="10.334551505002104"><ele>386.0</ele><time>2026-04-20T08:11:11Z</time></trkpt><trkpt lat="45.69714054407203" lon="10.334785552050239"><ele>386.0</ele><time>2026-04-20T08:11:12Z</time></trkpt><trkpt lat="45.69722337952375" lon="10.335034321094225"><ele>386.0</ele><time>2026-04-20T08:11:13Z</time></trkpt><trkpt lat="45.69732360590672" lon="10.335293037931258"><ele>386.0</ele><time>2026-04-20T08:11:14Z</time></trkpt><trkpt lat="45.697408026906835" lon="10.33554760686204"><ele>383.3333333333333</ele><time>2026-04-20T08:11:15Z</time></trkpt><trkpt lat="45.697493168061584" lon="10.335801532263645"><ele>380.66666666666663</ele><time>2026-04-20T08:11:16Z</time></trkpt><trkpt lat="45.697579760229786" lon="10.336051928006887"><ele>378.0</ele><time>2026-04-20T08:11:17Z</time></trkpt><trkpt lat="45.697654194500984" lon="10.336287199880179"><ele>377.6666666666667</ele><time>2026-04-20T08:11:18Z</time></trkpt><trkpt lat="45.697706792589074" lon="10.3365395659663"><ele>377.33333333333337</ele><time>2026-04-20T08:11:19Z</time></trkpt><trkpt lat="45.697772613712765" lon="10.336788604472297"><ele>377.0</ele><time>2026-04-20T08:11:20Z</time></trkpt><trkpt lat="45.6978405326675" lon="10.337040581911507"><ele>379.0</ele><time>2026-04-20T08:11:21Z</time></trkpt><trkpt lat="45.697908454041446" lon="10.337295774057413"><ele>381.0</ele><time>2026-04-20T08:11:22Z</time></trkpt><trkpt lat="45.697977824658714" lon="10.33755403585155"><ele>383.0</ele><time>2026-04-20T08:11:23Z</time></trkpt><trkpt lat="45.69804290046961" lon="10.337795175440261"><ele>383.0</ele><time>2026-04-20T08:11:24Z</time></trkpt><trkpt lat="45.69809083248606" lon="10.338009767854887"><ele>383.0</ele><time>2026-04-20T08:11:25Z</time></trkpt><trkpt lat="45.69815691009164" lon="10.33821765695526"><ele>383.0</ele><time>2026-04-20T08:11:26Z</time></trkpt><trkpt lat="45.69824361866986" lon="10.338420640371673"><ele>382.0</ele><time>2026-04-20T08:11:27Z</time></trkpt><trkpt lat="45.69835720582789" lon="10.338614777083226"><ele>381.0</ele><time>2026-04-20T08:11:28Z</time></trkpt><trkpt lat="45.69846572760377" lon="10.338798095137541"><ele>380.0</ele><time>2026-04-20T08:11:29Z</time></trkpt><trkpt lat="45.698555759113034" lon="10.338983219730641"><ele>391.0</ele><time>2026-04-20T08:11:30Z</time></trkpt><trkpt lat="45.698602923269235" lon="10.339170773348412"><ele>402.0</ele><time>2026-04-20T08:11:31Z</time></trkpt><trkpt lat="45.69861175610656" lon="10.339380538323399"><ele>413.0</ele><time>2026-04-20T08:11:32Z</time></trkpt><trkpt lat="45.698589949891044" lon="10.339614089742778"><ele>402.0</ele><time>2026-04-20T08:11:33Z</time></trkpt><trkpt lat="45.69856675065142" lon="10.339831999584511"><ele>391.0</ele><time>2026-04-20T08:11:34Z</time></trkpt><trkpt lat="45.69852419278227" lon="10.340042470877087"><ele>380.0</ele><time>2026-04-20T08:11:35Z</time></trkpt><trkpt lat="45.698455217068634" lon="10.340270817480338"><ele>380.0</ele><time>2026-04-20T08:11:36Z</time></trkpt><trkpt lat="45.69838289995015" lon="10.340483989319374"><ele>380.0</ele><time>2026-04-20T08:11:37Z</time></trkpt><trkpt lat="45.69832077003786" lon="10.340687861504325"><ele>380.0</ele><time>2026-04-20T08:11:38Z</time></trkpt><trkpt lat="45.69829627047987" lon="10.340914403456411"><ele>379.75</ele><time>2026-04-20T08:11:39Z</time></trkpt><trkpt lat="45.69831262406049" lon="10.341098079396854"><ele>379.5</ele><time>2026-04-20T08:11:40Z</time></trkpt><trkpt lat="45.69835934066271" lon="10.341254540770217"><ele>379.25</ele><time>2026-04-20T08:11:41Z</time></trkpt><trkpt lat="45.69842685280029" lon="10.34141346133594"><ele>379.0</ele><time>2026-04-20T08:11:42Z</time></trkpt><trkpt lat="45.69854000662875" lon="10.341610115037328"><ele>381.66666666666663</ele><time>2026-04-20T08:11:43Z</time></trkpt><trkpt lat="45.698638324147666" lon="10.341837111751593"><ele>384.3333333333333</ele><time>2026-04-20T08:11:44Z</time></trkpt><trkpt lat="45.69872065020129" lon="10.342106618274592"><ele>387.0</ele><time>2026-04-20T08:11:45Z</time></trkpt><trkpt lat="45.698793669352334" lon="10.342348068870747"><ele>387.0</ele><time>2026-04-20T08:11:46Z</time></trkpt><trkpt lat="45.69883251139769" lon="10.342557857424563"><ele>387.0</ele><time>2026-04-20T08:11:47Z</time></trkpt><trkpt lat="45.69885510608563" lon="10.342771827238748"><ele>387.0</ele><time>2026-04-20T08:11:48Z</time></trkpt><trkpt lat="45.69886791523598" lon="10.343014150731928"><ele>388.33333333333337</ele><time>2026-04-20T08:11:49Z</time></trkpt><trkpt lat="45.69883998855313" lon="10.343236388806387"><ele>389.6666666666667</ele><time>2026-04-20T08:11:50Z</time></trkpt><trkpt lat="45.69879889087277" lon="10.343463146304014"><ele>391.0</ele><time>2026-04-20T08:11:51Z</time></trkpt><trkpt lat="45.698784727736836" lon="10.343694066608608"><ele>389.0</ele><time>2026-04-20T08:11:52Z</time></trkpt><trkpt lat="45.69880079241952" lon="10.343890869937916"><ele>387.0</ele><time>2026-04-20T08:11:53Z</time></trkpt><trkpt lat="45.69883615304031" lon="10.344075061521437"><ele>385.0</ele><time>2026-04-20T08:11:54Z</time></trkpt><trkpt lat="45.69889965695197" lon="10.344232881020508"><ele>383.0</ele><time>2026-04-20T08:11:55Z</time></trkpt><trkpt lat="45.698955075107655" lon="10.344382631255284"><ele>383.0</ele><time>2026-04-20T08:11:56Z</time></trkpt><trkpt lat="45.6989964674812" lon="10.344523743224757"><ele>383.0</ele><time>2026-04-20T08:11:57Z</time></trkpt><trkpt lat="45.69905693621923" lon="10.344637434054016"><ele>383.0</ele><time>2026-04-20T08:11:58Z</time></trkpt><trkpt lat="45.69909013509192" lon="10.344774423547939"><ele>383.0</ele><time>2026-04-20T08:11:59Z</time></trkpt><trkpt lat="45.69912243538063" lon="10.344916374486907"><ele>383.0</ele><time>2026-04-20T08:12:00Z</time></trkpt><trkpt lat="45.69912522641543" lon="10.345048462009851"><ele>379.25</ele><time>2026-04-20T08:12:01Z</time></trkpt><trkpt lat="45.699140184653984" lon="10.345179813202126"><ele>375.5</ele><time>2026-04-20T08:12:02Z</time></trkpt><trkpt lat="45.69919886897649" lon="10.345309830094015"><ele>371.75</ele><time>2026-04-20T08:12:03.001Z</time></trkpt><trkpt lat="45.6992721247385" lon="10.345439478529041"><ele>368.0</ele><time>2026-04-20T08:12:04.001Z</time></trkpt><trkpt lat="45.69934281330537" lon="10.345610075847857"><ele>365.6666666666667</ele><time>2026-04-20T08:12:05.001Z</time></trkpt><trkpt lat="45.699410181826124" lon="10.345802571378385"><ele>363.3333333333333</ele><time>2026-04-20T08:12:06Z</time></trkpt><trkpt lat="45.69950970211873" lon="10.346017643527329"><ele>361.0</ele><time>2026-04-20T08:12:07Z</time></trkpt><trkpt lat="45.699628406379375" lon="10.346230425516696"><ele>363.66666666666663</ele><time>2026-04-20T08:12:08.001Z</time></trkpt><trkpt lat="45.69976087524182" lon="10.34644544844314"><ele>366.3333333333333</ele><time>2026-04-20T08:12:09.001Z</time></trkpt><trkpt lat="45.699899442161254" lon="10.346654280751837"><ele>369.0</ele><time>2026-04-20T08:12:10.001Z</time></trkpt><trkpt lat="45.70002894553453" lon="10.346853589807244"><ele>369.0</ele><time>2026-04-20T08:12:11Z</time></trkpt><trkpt lat="45.700141348645914" lon="10.34704390052574"><ele>369.0</ele><time>2026-04-20T08:12:12Z</time></trkpt><trkpt lat="45.70023836892069" lon="10.347238243675154"><ele>369.0</ele><time>2026-04-20T08:12:13Z</time></trkpt><trkpt lat="45.700321097878685" lon="10.347444133579561"><ele>369.3333333333333</ele><time>2026-04-20T08:12:14Z</time></trkpt><trkpt lat="45.70038897207625" lon="10.34766538008141"><ele>369.66666666666663</ele><time>2026-04-20T08:12:15.001Z</time></trkpt><trkpt lat="45.70045966921627" lon="10.34790962149962"><ele>370.0</ele><time>2026-04-20T08:12:16.001Z</time></trkpt><trkpt lat="45.70054120910522" lon="10.34818953243082"><ele>370.0</ele><time>2026-04-20T08:12:17.001Z</time></trkpt><trkpt lat="45.70062835097742" lon="10.34848863673838"><ele>370.0</ele><time>2026-04-20T08:12:18.001Z</time></trkpt><trkpt lat="45.70072804229799" lon="10.34879708818427"><ele>366.3333333333333</ele><time>2026-04-20T08:12:19.001Z</time></trkpt><trkpt lat="45.70080245636983" lon="10.349105664660598"><ele>362.6666666666667</ele><time>2026-04-20T08:12:20.001Z</time></trkpt><trkpt lat="45.700893090868625" lon="10.349383248942832"><ele>359.0</ele><time>2026-04-20T08:12:21.001Z</time></trkpt><trkpt lat="45.700962821150085" lon="10.349664417108979"><ele>357.6666666666667</ele><time>2026-04-20T08:12:22.001Z</time></trkpt><trkpt lat="45.70105225004396" lon="10.349946589716359"><ele>356.3333333333333</ele><time>2026-04-20T08:12:23.001Z</time></trkpt><trkpt lat="45.701147329762854" lon="10.350223947734916"><ele>355.0</ele><time>2026-04-20T08:12:24.001Z</time></trkpt><trkpt lat="45.701262345758174" lon="10.350503685667556"><ele>359.3333333333333</ele><time>2026-04-20T08:12:25.001Z</time></trkpt><trkpt lat="45.70138516017505" lon="10.350765597729385"><ele>363.6666666666667</ele><time>2026-04-20T08:12:26.001Z</time></trkpt><trkpt lat="45.7014966566497" lon="10.351008460199314"><ele>368.0</ele><time>2026-04-20T08:12:27.001Z</time></trkpt><trkpt lat="45.70161606997099" lon="10.351255957818749"><ele>365.6666666666667</ele><time>2026-04-20T08:12:28.001Z</time></trkpt><trkpt lat="45.70173571111452" lon="10.351521646151204"><ele>363.3333333333333</ele><time>2026-04-20T08:12:29.001Z</time></trkpt><trkpt lat="45.7018466660695" lon="10.351780048235138"><ele>361.0</ele><time>2026-04-20T08:12:30.001Z</time></trkpt><trkpt lat="45.701951778159504" lon="10.352015469257559"><ele>359.0</ele><time>2026-04-20T08:12:31.001Z</time></trkpt><trkpt lat="45.702062525608554" lon="10.352248660531199"><ele>357.0</ele><time>2026-04-20T08:12:32.001Z</time></trkpt><trkpt lat="45.70218235061712" lon="10.352497276061163"><ele>355.0</ele><time>2026-04-20T08:12:33.001Z</time></trkpt><trkpt lat="45.70231397745279" lon="10.35272716816998"><ele>355.0</ele><time>2026-04-20T08:12:34Z</time></trkpt><trkpt lat="45.70245110720279" lon="10.352930153914258"><ele>355.0</ele><time>2026-04-20T08:12:35Z</time></trkpt><trkpt lat="45.702567867476105" lon="10.353110275075883"><ele>355.0</ele><time>2026-04-20T08:12:36Z</time></trkpt><trkpt lat="45.70278023405762" lon="10.353434174388214"><ele>361.3333333333333</ele><time>2026-04-20T08:12:38Z</time></trkpt><trkpt lat="45.702869212520866" lon="10.353593587259851"><ele>367.6666666666667</ele><time>2026-04-20T08:12:39Z</time></trkpt><trkpt lat="45.70294766421796" lon="10.35378177952577"><ele>374.0</ele><time>2026-04-20T08:12:40Z</time></trkpt><trkpt lat="45.70298377952084" lon="10.353998467415265"><ele>375.33333333333337</ele><time>2026-04-20T08:12:41Z</time></trkpt><trkpt lat="45.70298282271035" lon="10.354253347374435"><ele>376.6666666666667</ele><time>2026-04-20T08:12:42Z</time></trkpt><trkpt lat="45.70297619577043" lon="10.354522303488158"><ele>378.0</ele><time>2026-04-20T08:12:43Z</time></trkpt><trkpt lat="45.70298054694799" lon="10.354800978324349"><ele>374.3333333333333</ele><time>2026-04-20T08:12:44Z</time></trkpt><trkpt lat="45.70295528661501" lon="10.355103423238969"><ele>370.66666666666663</ele><time>2026-04-20T08:12:45Z</time></trkpt><trkpt lat="45.70292225137554" lon="10.355398916538032"><ele>367.0</ele><time>2026-04-20T08:12:46Z</time></trkpt><trkpt lat="45.70289395425627" lon="10.355692453347256"><ele>366.3333333333333</ele><time>2026-04-20T08:12:47Z</time></trkpt><trkpt lat="45.70286704703652" lon="10.355981664584334"><ele>365.6666666666667</ele><time>2026-04-20T08:12:48Z</time></trkpt><trkpt lat="45.702847971935086" lon="10.356259672368413"><ele>365.0</ele><time>2026-04-20T08:12:49Z</time></trkpt><trkpt lat="45.7028021762001" lon="10.356519405828578"><ele>359.0</ele><time>2026-04-20T08:12:50Z</time></trkpt><trkpt lat="45.70274168654911" lon="10.356780955180966"><ele>353.0</ele><time>2026-04-20T08:12:51Z</time></trkpt><trkpt lat="45.702656494603964" lon="10.357036805376705"><ele>347.0</ele><time>2026-04-20T08:12:52Z</time></trkpt><trkpt lat="45.702589221980546" lon="10.357246095287811"><ele>347.0</ele><time>2026-04-20T08:12:53Z</time></trkpt><trkpt lat="45.702545089833166" lon="10.357440612528935"><ele>347.0</ele><time>2026-04-20T08:12:54Z</time></trkpt><trkpt lat="45.702521473195844" lon="10.357675925626129"><ele>347.0</ele><time>2026-04-20T08:12:55Z</time></trkpt><trkpt lat="45.702555713176736" lon="10.357930366551138"><ele>345.6666666666667</ele><time>2026-04-20T08:12:56Z</time></trkpt><trkpt lat="45.7026105886911" lon="10.358223858179809"><ele>344.3333333333333</ele><time>2026-04-20T08:12:57Z</time></trkpt><trkpt lat="45.70268527079659" lon="10.358518559984368"><ele>343.0</ele><time>2026-04-20T08:12:58Z</time></trkpt><trkpt lat="45.70275505259034" lon="10.358827242394035"><ele>351.3333333333333</ele><time>2026-04-20T08:12:59Z</time></trkpt><trkpt lat="45.70280812129792" lon="10.359114893417399"><ele>359.6666666666667</ele><time>2026-04-20T08:13:00Z</time></trkpt><trkpt lat="45.70285595840712" lon="10.359345719988514"><ele>368.0</ele><time>2026-04-20T08:13:01Z</time></trkpt><trkpt lat="45.70288026327326" lon="10.359565607546328"><ele>367.0</ele><time>2026-04-20T08:13:02Z</time></trkpt><trkpt lat="45.702899144796774" lon="10.35975693334519"><ele>366.0</ele><time>2026-04-20T08:13:03Z</time></trkpt><trkpt lat="45.70291304968471" lon="10.359952624702524"><ele>365.0</ele><time>2026-04-20T08:13:04Z</time></trkpt><trkpt lat="45.70286440233289" lon="10.36018572828203"><ele>364.0</ele><time>2026-04-20T08:13:05Z</time></trkpt><trkpt lat="45.70275610438251" lon="10.360420471856981"><ele>352.5</ele><time>2026-04-20T08:13:06Z</time></trkpt><trkpt lat="45.702621815468696" lon="10.360670675857502"><ele>341.0</ele><time>2026-04-20T08:13:07Z</time></trkpt><trkpt lat="45.70247036130157" lon="10.360926418468312"><ele>341.0</ele><time>2026-04-20T08:13:08Z</time></trkpt><trkpt lat="45.702395022069105" lon="10.361225816094256"><ele>341.0</ele><time>2026-04-20T08:13:09Z</time></trkpt><trkpt lat="45.702336038998034" lon="10.361474238867933"><ele>341.0</ele><time>2026-04-20T08:13:10Z</time></trkpt><trkpt lat="45.70227855911912" lon="10.361721587477303"><ele>341.6666666666667</ele><time>2026-04-20T08:13:11Z</time></trkpt><trkpt lat="45.7022222741499" lon="10.361962487665869"><ele>342.3333333333333</ele><time>2026-04-20T08:13:12Z</time></trkpt><trkpt lat="45.702169554689405" lon="10.362175904280962"><ele>343.0</ele><time>2026-04-20T08:13:13Z</time></trkpt><trkpt lat="45.702105304726565" lon="10.36240878173295"><ele>340.3333333333333</ele><time>2026-04-20T08:13:14Z</time></trkpt><trkpt lat="45.70201034778356" lon="10.362633273964073"><ele>337.6666666666667</ele><time>2026-04-20T08:13:15Z</time></trkpt><trkpt lat="45.70190437801115" lon="10.36282546082816"><ele>335.0</ele><time>2026-04-20T08:13:16Z</time></trkpt><trkpt lat="45.70180738045603" lon="10.362988490692107"><ele>334.0</ele><time>2026-04-20T08:13:17Z</time></trkpt><trkpt lat="45.701715366731015" lon="10.363122082074458"><ele>333.0</ele><time>2026-04-20T08:13:18Z</time></trkpt><trkpt lat="45.70162375863224" lon="10.363248152315444"><ele>332.0</ele><time>2026-04-20T08:13:19Z</time></trkpt><trkpt lat="45.70154611583796" lon="10.363370413439494"><ele>331.0</ele><time>2026-04-20T08:13:20Z</time></trkpt><trkpt lat="45.70149287630245" lon="10.36351327697305"><ele>331.0</ele><time>2026-04-20T08:13:21Z</time></trkpt><trkpt lat="45.70144191088946" lon="10.363701330560604"><ele>331.0</ele><time>2026-04-20T08:13:22Z</time></trkpt><trkpt lat="45.701447829689066" lon="10.363922562726971"><ele>331.0</ele><time>2026-04-20T08:13:23Z</time></trkpt><trkpt lat="45.701472166381656" lon="10.364177509324936"><ele>332.5</ele><time>2026-04-20T08:13:24Z</time></trkpt><trkpt lat="45.701485052523424" lon="10.364390138861951"><ele>334.0</ele><time>2026-04-20T08:13:25Z</time></trkpt><trkpt lat="45.70146368372606" lon="10.3645985126662"><ele>335.5</ele><time>2026-04-20T08:13:26Z</time></trkpt><trkpt lat="45.70146690774048" lon="10.364763189874127"><ele>337.0</ele><time>2026-04-20T08:13:27Z</time></trkpt><trkpt lat="45.701469530007905" lon="10.364933633297431"><ele>337.5</ele><time>2026-04-20T08:13:28Z</time></trkpt><trkpt lat="45.70146625348545" lon="10.365103602093956"><ele>338.0</ele><time>2026-04-20T08:13:29Z</time></trkpt><trkpt lat="45.701451675962" lon="10.365276374990241"><ele>338.5</ele><time>2026-04-20T08:13:30Z</time></trkpt><trkpt lat="45.701425542766735" lon="10.365484996854594"><ele>339.0</ele><time>2026-04-20T08:13:31Z</time></trkpt><trkpt lat="45.70135047699559" lon="10.365713752116207"><ele>340.0</ele><time>2026-04-20T08:13:32Z</time></trkpt><trkpt lat="45.701277978248925" lon="10.365953854611998"><ele>341.0</ele><time>2026-04-20T08:13:33Z</time></trkpt><trkpt lat="45.70121097187051" lon="10.366175487231185"><ele>342.0</ele><time>2026-04-20T08:13:34Z</time></trkpt><trkpt lat="45.701163510723404" lon="10.366371336028548"><ele>342.6666666666667</ele><time>2026-04-20T08:13:35Z</time></trkpt><trkpt lat="45.70108742736261" lon="10.36658444612219"><ele>343.33333333333337</ele><time>2026-04-20T08:13:36Z</time></trkpt><trkpt lat="45.70103096351653" lon="10.366812682653972"><ele>344.0</ele><time>2026-04-20T08:13:37Z</time></trkpt><trkpt lat="45.70099783903569" lon="10.36705961421557"><ele>337.33333333333337</ele><time>2026-04-20T08:13:38Z</time></trkpt><trkpt lat="45.701009530022624" lon="10.367302962347189"><ele>330.6666666666667</ele><time>2026-04-20T08:13:39Z</time></trkpt><trkpt lat="45.701013994423334" lon="10.367520925274993"><ele>324.0</ele><time>2026-04-20T08:13:40Z</time></trkpt><trkpt lat="45.70103300019816" lon="10.367715935258365"><ele>324.0</ele><time>2026-04-20T08:13:41Z</time></trkpt><trkpt lat="45.701062885501045" lon="10.367914315319089"><ele>324.0</ele><time>2026-04-20T08:13:42Z</time></trkpt><trkpt lat="45.7011445150195" lon="10.368131229499975"><ele>324.0</ele><time>2026-04-20T08:13:43Z</time></trkpt><trkpt lat="45.70121765125754" lon="10.36829638457069"><ele>329.5</ele><time>2026-04-20T08:13:44Z</time></trkpt><trkpt lat="45.701292020028035" lon="10.36845695033015"><ele>335.0</ele><time>2026-04-20T08:13:45Z</time></trkpt><trkpt lat="45.70135757615062" lon="10.368633589203949"><ele>340.5</ele><time>2026-04-20T08:13:46Z</time></trkpt><trkpt lat="45.70139875509636" lon="10.368843825703175"><ele>346.0</ele><time>2026-04-20T08:13:47Z</time></trkpt><trkpt lat="45.70138861773737" lon="10.369079930365029"><ele>346.0</ele><time>2026-04-20T08:13:48Z</time></trkpt><trkpt lat="45.70135169665376" lon="10.369321606676731"><ele>346.0</ele><time>2026-04-20T08:13:49Z</time></trkpt><trkpt lat="45.701312885512486" lon="10.369566320284148"><ele>346.0</ele><time>2026-04-20T08:13:50Z</time></trkpt><trkpt lat="45.70127835410009" lon="10.369812695380753"><ele>347.3333333333333</ele><time>2026-04-20T08:13:51Z</time></trkpt><trkpt lat="45.70118739227485" lon="10.370039885391469"><ele>348.6666666666667</ele><time>2026-04-20T08:13:52Z</time></trkpt><trkpt lat="45.70109246992537" lon="10.370262840740093"><ele>350.0</ele><time>2026-04-20T08:13:53Z</time></trkpt><trkpt lat="45.70098008534204" lon="10.370430068423985"><ele>344.0</ele><time>2026-04-20T08:13:54Z</time></trkpt><trkpt lat="45.70089756136462" lon="10.370568447849784"><ele>338.0</ele><time>2026-04-20T08:13:55Z</time></trkpt><trkpt lat="45.70082776617078" lon="10.37066270869653"><ele>332.0</ele><time>2026-04-20T08:13:56Z</time></trkpt><trkpt lat="45.70075328615193" lon="10.370826259257838"><ele>326.0</ele><time>2026-04-20T08:13:57Z</time></trkpt><trkpt lat="45.70073004848578" lon="10.371073605485956"><ele>326.0</ele><time>2026-04-20T08:13:58Z</time></trkpt><trkpt lat="45.70077346750353" lon="10.371319484753641"><ele>326.0</ele><time>2026-04-20T08:13:59Z</time></trkpt><trkpt lat="45.700836508279906" lon="10.371593112827457"><ele>326.0</ele><time>2026-04-20T08:14:00Z</time></trkpt><trkpt lat="45.70090018823194" lon="10.371863470203124"><ele>324.6666666666667</ele><time>2026-04-20T08:14:01Z</time></trkpt><trkpt lat="45.70095570416939" lon="10.372106230714818"><ele>323.3333333333333</ele><time>2026-04-20T08:14:02Z</time></trkpt><trkpt lat="45.70100803561372" lon="10.37234144980697"><ele>322.0</ele><time>2026-04-20T08:14:03Z</time></trkpt><trkpt lat="45.70105737585784" lon="10.37260299972163"><ele>321.66666666666663</ele><time>2026-04-20T08:14:04Z</time></trkpt><trkpt lat="45.70107499404928" lon="10.372889738948144"><ele>321.3333333333333</ele><time>2026-04-20T08:14:05Z</time></trkpt><trkpt lat="45.70106415319648" lon="10.37316871460625"><ele>321.0</ele><time>2026-04-20T08:14:06Z</time></trkpt><trkpt lat="45.70102892071461" lon="10.373444715182877"><ele>321.0</ele><time>2026-04-20T08:14:07Z</time></trkpt><trkpt lat="45.70097336872244" lon="10.373734236956798"><ele>321.0</ele><time>2026-04-20T08:14:08.001Z</time></trkpt><trkpt lat="45.70091872101707" lon="10.373983523989601"><ele>321.0</ele><time>2026-04-20T08:14:09.001Z</time></trkpt><trkpt lat="45.70087842388791" lon="10.374237102878215"><ele>321.0</ele><time>2026-04-20T08:14:10.001Z</time></trkpt><trkpt lat="45.700842683818394" lon="10.374486397491728"><ele>321.0</ele><time>2026-04-20T08:14:11.001Z</time></trkpt><trkpt lat="45.700818443502364" lon="10.374736357940245"><ele>321.0</ele><time>2026-04-20T08:14:12.001Z</time></trkpt><trkpt lat="45.70082909287756" lon="10.374991201142707"><ele>321.0</ele><time>2026-04-20T08:14:13.001Z</time></trkpt><trkpt lat="45.700877682290155" lon="10.375241576510692"><ele>321.0</ele><time>2026-04-20T08:14:14Z</time></trkpt><trkpt lat="45.700944758008006" lon="10.375487383048453"><ele>321.0</ele><time>2026-04-20T08:14:15Z</time></trkpt><trkpt lat="45.701029410346486" lon="10.375723522234384"><ele>319.6666666666667</ele><time>2026-04-20T08:14:16Z</time></trkpt><trkpt lat="45.70112537999469" lon="10.375935459696223"><ele>318.33333333333337</ele><time>2026-04-20T08:14:17Z</time></trkpt><trkpt lat="45.70125427042499" lon="10.376149820122405"><ele>317.0</ele><time>2026-04-20T08:14:18.001Z</time></trkpt><trkpt lat="45.701401523789585" lon="10.376365844720853"><ele>317.0</ele><time>2026-04-20T08:14:19.001Z</time></trkpt><trkpt lat="45.70156049018904" lon="10.376606668965662"><ele>317.0</ele><time>2026-04-20T08:14:20Z</time></trkpt><trkpt lat="45.70170780789649" lon="10.376863585619459"><ele>317.0</ele><time>2026-04-20T08:14:21.001Z</time></trkpt><trkpt lat="45.70185032530894" lon="10.377091777917743"><ele>317.0</ele><time>2026-04-20T08:14:22.001Z</time></trkpt><trkpt lat="45.70198765334043" lon="10.377314178572691"><ele>317.0</ele><time>2026-04-20T08:14:23.001Z</time></trkpt><trkpt lat="45.702123472444036" lon="10.377521708598302"><ele>317.6666666666667</ele><time>2026-04-20T08:14:24.001Z</time></trkpt><trkpt lat="45.70226187607078" lon="10.377737117770225"><ele>318.3333333333333</ele><time>2026-04-20T08:14:25.001Z</time></trkpt><trkpt lat="45.702403702212536" lon="10.377959737408169"><ele>319.0</ele><time>2026-04-20T08:14:26.001Z</time></trkpt><trkpt lat="45.7025343210915" lon="10.378172373748875"><ele>317.3333333333333</ele><time>2026-04-20T08:14:27.001Z</time></trkpt><trkpt lat="45.70265415931124" lon="10.37836735685579"><ele>315.6666666666667</ele><time>2026-04-20T08:14:28.001Z</time></trkpt><trkpt lat="45.7027678638971" lon="10.378555163757149"><ele>314.0</ele><time>2026-04-20T08:14:29.001Z</time></trkpt><trkpt lat="45.70287906663141" lon="10.378749988733125"><ele>318.0</ele><time>2026-04-20T08:14:30.001Z</time></trkpt><trkpt lat="45.70296525750697" lon="10.378957486688549"><ele>322.0</ele><time>2026-04-20T08:14:31.001Z</time></trkpt><trkpt lat="45.70301775190757" lon="10.37919123428742"><ele>326.0</ele><time>2026-04-20T08:14:32.001Z</time></trkpt><trkpt lat="45.70307006517697" lon="10.379443447452937"><ele>323.0</ele><time>2026-04-20T08:14:33.001Z</time></trkpt><trkpt lat="45.70311006533961" lon="10.379698823048649"><ele>320.0</ele><time>2026-04-20T08:14:34.001Z</time></trkpt><trkpt lat="45.70315800806509" lon="10.379957255782259"><ele>317.0</ele><time>2026-04-20T08:14:35.001Z</time></trkpt><trkpt lat="45.70319466821165" lon="10.380197326749183"><ele>317.0</ele><time>2026-04-20T08:14:36.001Z</time></trkpt><trkpt lat="45.703229101812354" lon="10.380416531298348"><ele>317.0</ele><time>2026-04-20T08:14:37.001Z</time></trkpt><trkpt lat="45.70325559977879" lon="10.380641903526259"><ele>317.0</ele><time>2026-04-20T08:14:38.001Z</time></trkpt><trkpt lat="45.70325932795242" lon="10.380866868134758"><ele>316.33333333333337</ele><time>2026-04-20T08:14:39.001Z</time></trkpt><trkpt lat="45.70322478791926" lon="10.381107194934073"><ele>315.6666666666667</ele><time>2026-04-20T08:14:40.001Z</time></trkpt><trkpt lat="45.703141778060235" lon="10.381328106067862"><ele>315.0</ele><time>2026-04-20T08:14:41.001Z</time></trkpt><trkpt lat="45.70303064462336" lon="10.381542580289771"><ele>316.6666666666667</ele><time>2026-04-20T08:14:42.001Z</time></trkpt><trkpt lat="45.70291446161969" lon="10.381769630972547"><ele>318.33333333333337</ele><time>2026-04-20T08:14:43.001Z</time></trkpt><trkpt lat="45.702806020523724" lon="10.3820114051602"><ele>320.0</ele><time>2026-04-20T08:14:44.001Z</time></trkpt><trkpt lat="45.70272704154892" lon="10.382273734108834"><ele>320.0</ele><time>2026-04-20T08:14:45.001Z</time></trkpt><trkpt lat="45.70264641589469" lon="10.382527942126355"><ele>320.0</ele><time>2026-04-20T08:14:46.001Z</time></trkpt><trkpt lat="45.702553684257076" lon="10.382770264215074"><ele>320.0</ele><time>2026-04-20T08:14:47.001Z</time></trkpt><trkpt lat="45.702452826190495" lon="10.383014518181053"><ele>321.33333333333337</ele><time>2026-04-20T08:14:48.001Z</time></trkpt><trkpt lat="45.702347251496" lon="10.383201194532605"><ele>322.6666666666667</ele><time>2026-04-20T08:14:49.001Z</time></trkpt><trkpt lat="45.70223914160106" lon="10.383374832720156"><ele>324.0</ele><time>2026-04-20T08:14:50.001Z</time></trkpt><trkpt lat="45.702117932678036" lon="10.383532248586263"><ele>324.0</ele><time>2026-04-20T08:14:51.001Z</time></trkpt><trkpt lat="45.70195897835434" lon="10.383643666689286"><ele>324.0</ele><time>2026-04-20T08:14:52.001Z</time></trkpt><trkpt lat="45.70182732288597" lon="10.383755965627357"><ele>324.0</ele><time>2026-04-20T08:14:53.001Z</time></trkpt><trkpt lat="45.70173026594654" lon="10.383865574525084"><ele>321.0</ele><time>2026-04-20T08:14:54.001Z</time></trkpt><trkpt lat="45.70165386334276" lon="10.384022186035795"><ele>318.0</ele><time>2026-04-20T08:14:55.001Z</time></trkpt><trkpt lat="45.701612524241916" lon="10.384211091720873"><ele>315.0</ele><time>2026-04-20T08:14:56.001Z</time></trkpt><trkpt lat="45.7015915891751" lon="10.384423168071923"><ele>312.0</ele><time>2026-04-20T08:14:57.001Z</time></trkpt><trkpt lat="45.701608258996856" lon="10.384677332551615"><ele>312.0</ele><time>2026-04-20T08:14:58.001Z</time></trkpt><trkpt lat="45.70165162445848" lon="10.384938750254141"><ele>312.0</ele><time>2026-04-20T08:14:59.001Z</time></trkpt><trkpt lat="45.7017115020027" lon="10.385169949062162"><ele>312.0</ele><time>2026-04-20T08:15:00.001Z</time></trkpt><trkpt lat="45.701766229350106" lon="10.385390706059596"><ele>312.0</ele><time>2026-04-20T08:15:01.001Z</time></trkpt><trkpt lat="45.7018290555437" lon="10.385593279411566"><ele>312.0</ele><time>2026-04-20T08:15:02.001Z</time></trkpt><trkpt lat="45.70189180351136" lon="10.385796135868887"><ele>312.0</ele><time>2026-04-20T08:15:03.001Z</time></trkpt><trkpt lat="45.701932270427776" lon="10.385981143644786"><ele>312.0</ele><time>2026-04-20T08:15:04.001Z</time></trkpt><trkpt lat="45.70197936895917" lon="10.386133614482409"><ele>311.6</ele><time>2026-04-20T08:15:05.001Z</time></trkpt><trkpt lat="45.70201221631733" lon="10.386299106726534"><ele>311.2</ele><time>2026-04-20T08:15:06.001Z</time></trkpt><trkpt lat="45.70204378200597" lon="10.386416987193956"><ele>310.8</ele><time>2026-04-20T08:15:07.001Z</time></trkpt><trkpt lat="45.702068304312796" lon="10.38655569108989"><ele>310.4</ele><time>2026-04-20T08:15:09.001Z</time></trkpt><trkpt lat="45.7020537733407" lon="10.386667830159215"><ele>310.0</ele><time>2026-04-20T08:15:13.001Z</time></trkpt><trkpt lat="45.70204181580285" lon="10.386763042671499"><ele>309.8</ele><time>2026-04-20T08:15:15Z</time></trkpt><trkpt lat="45.70199431119632" lon="10.386919884888583"><ele>309.6</ele><time>2026-04-20T08:15:17Z</time></trkpt><trkpt lat="45.702048895373004" lon="10.387084268204061"><ele>309.4</ele><time>2026-04-20T08:15:19Z</time></trkpt><trkpt lat="45.702111671075855" lon="10.387106424381704"><ele>309.2</ele><time>2026-04-20T08:15:20Z</time></trkpt><trkpt lat="45.70218312771515" lon="10.387092773774903"><ele>309.0</ele><time>2026-04-20T08:15:21Z</time></trkpt><trkpt lat="45.70227319746721" lon="10.38704339011705"><ele>309.0</ele><time>2026-04-20T08:15:22Z</time></trkpt><trkpt lat="45.7023736949156" lon="10.38698952987256"><ele>309.0</ele><time>2026-04-20T08:15:23Z</time></trkpt><trkpt lat="45.702502960251685" lon="10.387014960950923"><ele>309.0</ele><time>2026-04-20T08:15:24Z</time></trkpt><trkpt lat="45.70261403293763" lon="10.38699860233284"><ele>309.0</ele><time>2026-04-20T08:15:25Z</time></trkpt><trkpt lat="45.702715511004975" lon="10.387013288059576"><ele>309.4</ele><time>2026-04-20T08:15:26Z</time></trkpt><trkpt lat="45.70281009484863" lon="10.387067544440985"><ele>309.79999999999995</ele><time>2026-04-20T08:15:27Z</time></trkpt><trkpt lat="45.70290368175691" lon="10.387146122950393"><ele>310.20000000000005</ele><time>2026-04-20T08:15:28Z</time></trkpt><trkpt lat="45.703000926516935" lon="10.387238379852214"><ele>310.6</ele><time>2026-04-20T08:15:29Z</time></trkpt><trkpt lat="45.70310017726302" lon="10.387339691882989"><ele>311.0</ele><time>2026-04-20T08:15:30Z</time></trkpt><trkpt lat="45.70319381192887" lon="10.387423681496744"><ele>310.0</ele><time>2026-04-20T08:15:31Z</time></trkpt><trkpt lat="45.703263187805405" lon="10.387519440313675"><ele>309.0</ele><time>2026-04-20T08:15:32Z</time></trkpt><trkpt lat="45.703362289161774" lon="10.387598898284686"><ele>308.0</ele><time>2026-04-20T08:15:33Z</time></trkpt><trkpt lat="45.70345563888768" lon="10.387708460904037"><ele>307.0</ele><time>2026-04-20T08:15:34Z</time></trkpt><trkpt lat="45.70355416551622" lon="10.387819840702775"><ele>308.0</ele><time>2026-04-20T08:15:35Z</time></trkpt><trkpt lat="45.70363552149725" lon="10.387948900506052"><ele>309.0</ele><time>2026-04-20T08:15:36Z</time></trkpt><trkpt lat="45.70364547437578" lon="10.388134533977626"><ele>310.0</ele><time>2026-04-20T08:15:37Z</time></trkpt><trkpt lat="45.70371772242268" lon="10.38829715516273"><ele>311.0</ele><time>2026-04-20T08:15:38Z</time></trkpt><trkpt lat="45.70380023574524" lon="10.38848288206277"><ele>311.0</ele><time>2026-04-20T08:15:39Z</time></trkpt><trkpt lat="45.70389316063676" lon="10.388692245562169"><ele>311.0</ele><time>2026-04-20T08:15:40Z</time></trkpt><trkpt lat="45.704009404098834" lon="10.388915764577067"><ele>311.0</ele><time>2026-04-20T08:15:41Z</time></trkpt><trkpt lat="45.704073859669805" lon="10.389148446446026"><ele>310.33333333333337</ele><time>2026-04-20T08:15:42Z</time></trkpt><trkpt lat="45.704137517003204" lon="10.389359494257265"><ele>309.6666666666667</ele><time>2026-04-20T08:15:43Z</time></trkpt><trkpt lat="45.70419437274069" lon="10.389564980501044"><ele>309.0</ele><time>2026-04-20T08:15:44Z</time></trkpt><trkpt lat="45.7042426426403" lon="10.389779837367271"><ele>309.0</ele><time>2026-04-20T08:15:45Z</time></trkpt><trkpt lat="45.70429753390277" lon="10.390001719614126"><ele>309.0</ele><time>2026-04-20T08:15:46Z</time></trkpt><trkpt lat="45.704357417976745" lon="10.390229460194112"><ele>309.0</ele><time>2026-04-20T08:15:47Z</time></trkpt><trkpt lat="45.704409054595715" lon="10.390457126778442"><ele>316.3333333333333</ele><time>2026-04-20T08:15:48Z</time></trkpt><trkpt lat="45.704453513809106" lon="10.39067628221931"><ele>323.66666666666663</ele><time>2026-04-20T08:15:49Z</time></trkpt><trkpt lat="45.704493793014656" lon="10.3908703496766"><ele>331.0</ele><time>2026-04-20T08:15:50Z</time></trkpt><trkpt lat="45.70454022008858" lon="10.391084298546419"><ele>331.0</ele><time>2026-04-20T08:15:51Z</time></trkpt><trkpt lat="45.70459670345365" lon="10.391330738249641"><ele>331.0</ele><time>2026-04-20T08:15:52Z</time></trkpt><trkpt lat="45.70466759778718" lon="10.391579649860846"><ele>331.0</ele><time>2026-04-20T08:15:53Z</time></trkpt><trkpt lat="45.704728845468004" lon="10.391835992368915"><ele>329.66666666666663</ele><time>2026-04-20T08:15:54Z</time></trkpt><trkpt lat="45.70478543766287" lon="10.392091857677295"><ele>328.3333333333333</ele><time>2026-04-20T08:15:55Z</time></trkpt><trkpt lat="45.70479536787038" lon="10.392355167090924"><ele>327.0</ele><time>2026-04-20T08:15:56Z</time></trkpt><trkpt lat="45.70484059739506" lon="10.392591602707082"><ele>325.6666666666667</ele><time>2026-04-20T08:15:57Z</time></trkpt><trkpt lat="45.70490013252528" lon="10.39283536419967"><ele>324.33333333333337</ele><time>2026-04-20T08:15:58Z</time></trkpt><trkpt lat="45.70494241895907" lon="10.393096382365092"><ele>323.0</ele><time>2026-04-20T08:15:59Z</time></trkpt><trkpt lat="45.70498795428854" lon="10.39335539871118"><ele>321.33333333333337</ele><time>2026-04-20T08:16:00Z</time></trkpt><trkpt lat="45.70503161915035" lon="10.393589237376549"><ele>319.6666666666667</ele><time>2026-04-20T08:16:01Z</time></trkpt><trkpt lat="45.705086199424905" lon="10.393827606753847"><ele>318.0</ele><time>2026-04-20T08:16:02Z</time></trkpt><trkpt lat="45.70509396163953" lon="10.394091581959977"><ele>315.3333333333333</ele><time>2026-04-20T08:16:03Z</time></trkpt><trkpt lat="45.70513496295511" lon="10.3943335566848"><ele>312.66666666666663</ele><time>2026-04-20T08:16:04Z</time></trkpt><trkpt lat="45.70518319458294" lon="10.394556322647878"><ele>310.0</ele><time>2026-04-20T08:16:05Z</time></trkpt><trkpt lat="45.705245585672834" lon="10.394785793057666"><ele>315.0</ele><time>2026-04-20T08:16:06Z</time></trkpt><trkpt lat="45.70531841335091" lon="10.395010423434979"><ele>320.0</ele><time>2026-04-20T08:16:07Z</time></trkpt><trkpt lat="45.70538979748394" lon="10.395217742797035"><ele>325.0</ele><time>2026-04-20T08:16:08Z</time></trkpt><trkpt lat="45.70547046786906" lon="10.395436794513008"><ele>323.0</ele><time>2026-04-20T08:16:09Z</time></trkpt><trkpt lat="45.70555366881217" lon="10.395650550851952"><ele>321.0</ele><time>2026-04-20T08:16:10Z</time></trkpt><trkpt lat="45.70562790463156" lon="10.395893443670996"><ele>319.0</ele><time>2026-04-20T08:16:11Z</time></trkpt><trkpt lat="45.70568626935852" lon="10.39615909189296"><ele>317.0</ele><time>2026-04-20T08:16:12Z</time></trkpt><trkpt lat="45.70574461792894" lon="10.396391670414122"><ele>315.0</ele><time>2026-04-20T08:16:13Z</time></trkpt><trkpt lat="45.70578969659299" lon="10.396639954984199"><ele>313.0</ele><time>2026-04-20T08:16:14Z</time></trkpt><trkpt lat="45.705838430232056" lon="10.396893319452525"><ele>313.0</ele><time>2026-04-20T08:16:15.001Z</time></trkpt><trkpt lat="45.705896665921635" lon="10.397151595431724"><ele>313.0</ele><time>2026-04-20T08:16:16.001Z</time></trkpt><trkpt lat="45.70594537934814" lon="10.397420156060866"><ele>313.0</ele><time>2026-04-20T08:16:17.001Z</time></trkpt><trkpt lat="45.705999649587746" lon="10.397684021349175"><ele>313.3333333333333</ele><time>2026-04-20T08:16:18.001Z</time></trkpt><trkpt lat="45.70604318663283" lon="10.397946965986224"><ele>313.6666666666667</ele><time>2026-04-20T08:16:19.001Z</time></trkpt><trkpt lat="45.70607107953349" lon="10.398210036286972"><ele>314.0</ele><time>2026-04-20T08:16:20Z</time></trkpt><trkpt lat="45.70611071254975" lon="10.39843483719708"><ele>316.33333333333337</ele><time>2026-04-20T08:16:21.001Z</time></trkpt><trkpt lat="45.70615814564824" lon="10.398654728130014"><ele>318.6666666666667</ele><time>2026-04-20T08:16:22.001Z</time></trkpt><trkpt lat="45.70622530616317" lon="10.398836282411837"><ele>321.0</ele><time>2026-04-20T08:16:23Z</time></trkpt><trkpt lat="45.70628450970604" lon="10.399035398685967"><ele>321.0</ele><time>2026-04-20T08:16:24.001Z</time></trkpt><trkpt lat="45.70634303126607" lon="10.399221234193112"><ele>321.0</ele><time>2026-04-20T08:16:25.001Z</time></trkpt><trkpt lat="45.70641414661076" lon="10.399390916179868"><ele>321.0</ele><time>2026-04-20T08:16:26.001Z</time></trkpt><trkpt lat="45.7064836594938" lon="10.399545285510884"><ele>321.0</ele><time>2026-04-20T08:16:27.001Z</time></trkpt><trkpt lat="45.7065419463439" lon="10.399696255719139"><ele>320.2</ele><time>2026-04-20T08:16:28.001Z</time></trkpt><trkpt lat="45.70660739973231" lon="10.399838626663504"><ele>319.40000000000003</ele><time>2026-04-20T08:16:29.001Z</time></trkpt><trkpt lat="45.706684834055665" lon="10.399970245270508"><ele>318.6</ele><time>2026-04-20T08:16:30.001Z</time></trkpt><trkpt lat="45.70674320336755" lon="10.400113989451555"><ele>317.8</ele><time>2026-04-20T08:16:31.001Z</time></trkpt><trkpt lat="45.706786860099236" lon="10.400224963837228"><ele>317.0</ele><time>2026-04-20T08:16:32.001Z</time></trkpt><trkpt lat="45.70683683947743" lon="10.400327762591019"><ele>317.0</ele><time>2026-04-20T08:16:33.001Z</time></trkpt><trkpt lat="45.70688728033313" lon="10.400434928521527"><ele>317.0</ele><time>2026-04-20T08:16:34.001Z</time></trkpt><trkpt lat="45.70693688482161" lon="10.400546193730534"><ele>317.0</ele><time>2026-04-20T08:16:35.001Z</time></trkpt><trkpt lat="45.70699743819025" lon="10.400657450057562"><ele>317.0</ele><time>2026-04-20T08:16:36.001Z</time></trkpt><trkpt lat="45.70706638214416" lon="10.400771995992915"><ele>317.0</ele><time>2026-04-20T08:16:37.001Z</time></trkpt><trkpt lat="45.70713096417552" lon="10.400894280784716"><ele>317.0</ele><time>2026-04-20T08:16:38.001Z</time></trkpt><trkpt lat="45.70719219780556" lon="10.400998883978703"><ele>317.0</ele><time>2026-04-20T08:16:39.001Z</time></trkpt><trkpt lat="45.7072538962678" lon="10.401107819268514"><ele>317.0</ele><time>2026-04-20T08:16:40.001Z</time></trkpt><trkpt lat="45.707332006651505" lon="10.401225306723422"><ele>317.0</ele><time>2026-04-20T08:16:41.001Z</time></trkpt><trkpt lat="45.70739912894589" lon="10.401340316941372"><ele>317.0</ele><time>2026-04-20T08:16:42.001Z</time></trkpt><trkpt lat="45.70746482917528" lon="10.401431905087088"><ele>316.4</ele><time>2026-04-20T08:16:43.001Z</time></trkpt><trkpt lat="45.70752287056904" lon="10.401537654287669"><ele>315.79999999999995</ele><time>2026-04-20T08:16:44.001Z</time></trkpt><trkpt lat="45.7075311435242" lon="10.401710294912315"><ele>315.2</ele><time>2026-04-20T08:16:45.001Z</time></trkpt><trkpt lat="45.70758669385038" lon="10.401819107908594"><ele>314.59999999999997</ele><time>2026-04-20T08:16:46.001Z</time></trkpt><trkpt lat="45.70764213135784" lon="10.401927761940273"><ele>314.0</ele><time>2026-04-20T08:16:47.001Z</time></trkpt><trkpt lat="45.707691711584744" lon="10.402028763395757"><ele>314.2</ele><time>2026-04-20T08:16:48.001Z</time></trkpt><trkpt lat="45.707789412579295" lon="10.402070857121137"><ele>314.4</ele><time>2026-04-20T08:16:49.001Z</time></trkpt><trkpt lat="45.707849352443205" lon="10.40218444733364"><ele>314.6</ele><time>2026-04-20T08:16:50.001Z</time></trkpt><trkpt lat="45.707924116066366" lon="10.402307308240166"><ele>314.8</ele><time>2026-04-20T08:16:51.001Z</time></trkpt><trkpt lat="45.70800355603783" lon="10.402440890056077"><ele>315.0</ele><time>2026-04-20T08:16:52Z</time></trkpt><trkpt lat="45.70798206112231" lon="10.40268634216129"><ele>315.0</ele><time>2026-04-20T08:16:53Z</time></trkpt><trkpt lat="45.70806013010828" lon="10.40287017300768"><ele>315.0</ele><time>2026-04-20T08:16:54Z</time></trkpt><trkpt lat="45.7082378483869" lon="10.40297233732822"><ele>315.0</ele><time>2026-04-20T08:16:55Z</time></trkpt><trkpt lat="45.70830154674349" lon="10.403149250751563"><ele>315.25</ele><time>2026-04-20T08:16:56Z</time></trkpt><trkpt lat="45.70836263102839" lon="10.403310179831278"><ele>315.5</ele><time>2026-04-20T08:16:57Z</time></trkpt><trkpt lat="45.70841339745065" lon="10.40345655493953"><ele>315.75</ele><time>2026-04-20T08:16:58Z</time></trkpt><trkpt lat="45.70840458063324" lon="10.40367282284678"><ele>316.0</ele><time>2026-04-20T08:16:59Z</time></trkpt><trkpt lat="45.70847530124802" lon="10.403838326019592"><ele>316.25</ele><time>2026-04-20T08:17:00Z</time></trkpt><trkpt lat="45.70855221058009" lon="10.404018312261611"><ele>316.5</ele><time>2026-04-20T08:17:01Z</time></trkpt><trkpt lat="45.70863409646043" lon="10.404210773006131"><ele>316.75</ele><time>2026-04-20T08:17:02Z</time></trkpt><trkpt lat="45.708707194215584" lon="10.404381196414253"><ele>317.0</ele><time>2026-04-20T08:17:03Z</time></trkpt><trkpt lat="45.70879990307371" lon="10.404547131142103"><ele>317.25</ele><time>2026-04-20T08:17:04Z</time></trkpt><trkpt lat="45.7088420251589" lon="10.404720510850881"><ele>317.5</ele><time>2026-04-20T08:17:05Z</time></trkpt><trkpt lat="45.708931932446504" lon="10.404864114282999"><ele>317.75</ele><time>2026-04-20T08:17:06Z</time></trkpt><trkpt lat="45.70902706756721" lon="10.404993259907803"><ele>318.0</ele><time>2026-04-20T08:17:07Z</time></trkpt><trkpt lat="45.7091282947657" lon="10.405106737181972"><ele>318.0</ele><time>2026-04-20T08:17:08Z</time></trkpt><trkpt lat="45.709227891824376" lon="10.405175617179701"><ele>318.0</ele><time>2026-04-20T08:17:09Z</time></trkpt><trkpt lat="45.709332333533354" lon="10.405228104188003"><ele>318.0</ele><time>2026-04-20T08:17:10Z</time></trkpt><trkpt lat="45.70942183459441" lon="10.405272887069405"><ele>318.0</ele><time>2026-04-20T08:17:11Z</time></trkpt><trkpt lat="45.709505982161794" lon="10.405281021492204"><ele>318.0</ele><time>2026-04-20T08:17:12Z</time></trkpt><trkpt lat="45.709619615996345" lon="10.405282280526185"><ele>318.0</ele><time>2026-04-20T08:17:14Z</time></trkpt><trkpt lat="45.709704575021505" lon="10.40533112402823"><ele>318.0</ele><time>2026-04-20T08:17:17Z</time></trkpt><trkpt lat="45.709792717152276" lon="10.405349331060625"><ele>318.0</ele><time>2026-04-20T08:17:20Z</time></trkpt><trkpt lat="45.7099433282358" lon="10.405381998232878"><ele>318.0</ele><time>2026-04-20T08:17:28Z</time></trkpt><trkpt lat="45.710009982811464" lon="10.405421633421893"><ele>318.0</ele><time>2026-04-20T08:17:30Z</time></trkpt><trkpt lat="45.71010333396712" lon="10.40547511839764"><ele>317.4</ele><time>2026-04-20T08:17:32Z</time></trkpt><trkpt lat="45.710191993462026" lon="10.405529681772682"><ele>316.8</ele><time>2026-04-20T08:17:34Z</time></trkpt><trkpt lat="45.710307020636684" lon="10.405591931105427"><ele>316.2</ele><time>2026-04-20T08:17:36Z</time></trkpt><trkpt lat="45.71037754260055" lon="10.40563387168606"><ele>315.6</ele><time>2026-04-20T08:17:37Z</time></trkpt><trkpt lat="45.71044986026068" lon="10.405675894224764"><ele>315.0</ele><time>2026-04-20T08:17:38Z</time></trkpt><trkpt lat="45.7105306802561" lon="10.405731323354084"><ele>316.2</ele><time>2026-04-20T08:17:39Z</time></trkpt><trkpt lat="45.710629952442304" lon="10.405801396451816"><ele>317.4</ele><time>2026-04-20T08:17:40Z</time></trkpt><trkpt lat="45.710724169581944" lon="10.40587554780051"><ele>318.6</ele><time>2026-04-20T08:17:41Z</time></trkpt><trkpt lat="45.71080302088024" lon="10.405959571807147"><ele>319.8</ele><time>2026-04-20T08:17:42Z</time></trkpt><trkpt lat="45.710878074975724" lon="10.406049074081093"><ele>321.0</ele><time>2026-04-20T08:17:43Z</time></trkpt><trkpt lat="45.710946893388254" lon="10.406140276772415"><ele>321.0</ele><time>2026-04-20T08:17:44Z</time></trkpt><trkpt lat="45.71101801643205" lon="10.406235017258519"><ele>321.0</ele><time>2026-04-20T08:17:45Z</time></trkpt><trkpt lat="45.71109322923161" lon="10.406333898295301"><ele>321.0</ele><time>2026-04-20T08:17:46Z</time></trkpt><trkpt lat="45.71115583630138" lon="10.40642937216376"><ele>321.0</ele><time>2026-04-20T08:17:47Z</time></trkpt><trkpt lat="45.7112424633763" lon="10.40652621697363"><ele>321.0</ele><time>2026-04-20T08:17:48Z</time></trkpt><trkpt lat="45.71133156416808" lon="10.40663151730052"><ele>321.20000000000005</ele><time>2026-04-20T08:17:49Z</time></trkpt><trkpt lat="45.71139974577179" lon="10.406755232411124"><ele>321.40000000000003</ele><time>2026-04-20T08:17:50Z</time></trkpt><trkpt lat="45.71146156451373" lon="10.406860918099673"><ele>321.6</ele><time>2026-04-20T08:17:51Z</time></trkpt><trkpt lat="45.71152997473312" lon="10.40698401930523"><ele>321.8</ele><time>2026-04-20T08:17:52Z</time></trkpt><trkpt lat="45.71159749447675" lon="10.407120164804542"><ele>322.0</ele><time>2026-04-20T08:17:53Z</time></trkpt><trkpt lat="45.71166959670399" lon="10.407278301526082"><ele>322.0</ele><time>2026-04-20T08:17:54Z</time></trkpt><trkpt lat="45.711744547437405" lon="10.40744546033049"><ele>322.0</ele><time>2026-04-20T08:17:55Z</time></trkpt><trkpt lat="45.71180995959391" lon="10.40761670434876"><ele>322.0</ele><time>2026-04-20T08:17:56Z</time></trkpt><trkpt lat="45.711877054488625" lon="10.407790346234975"><ele>322.0</ele><time>2026-04-20T08:17:57Z</time></trkpt><trkpt lat="45.711948789345215" lon="10.407971435760144"><ele>325.3333333333333</ele><time>2026-04-20T08:17:58Z</time></trkpt><trkpt lat="45.712026809293704" lon="10.40815563530091"><ele>328.6666666666667</ele><time>2026-04-20T08:17:59Z</time></trkpt><trkpt lat="45.71210396417892" lon="10.40834429743636"><ele>332.0</ele><time>2026-04-20T08:18:00Z</time></trkpt><trkpt lat="45.712159259126075" lon="10.408539940793268"><ele>332.0</ele><time>2026-04-20T08:18:01Z</time></trkpt><trkpt lat="45.71221434558775" lon="10.408735310526872"><ele>332.0</ele><time>2026-04-20T08:18:02Z</time></trkpt><trkpt lat="45.7122773105919" lon="10.408931943719242"><ele>332.0</ele><time>2026-04-20T08:18:03Z</time></trkpt><trkpt lat="45.71236702352257" lon="10.409156423145635"><ele>332.0</ele><time>2026-04-20T08:18:04Z</time></trkpt><trkpt lat="45.71246058304682" lon="10.409401207287678"><ele>332.0</ele><time>2026-04-20T08:18:05Z</time></trkpt><trkpt lat="45.71255673505644" lon="10.409638615439516"><ele>332.0</ele><time>2026-04-20T08:18:06Z</time></trkpt><trkpt lat="45.712650277341744" lon="10.409908802221832"><ele>334.6666666666667</ele><time>2026-04-20T08:18:07Z</time></trkpt><trkpt lat="45.71275010789671" lon="10.41019150544274"><ele>337.3333333333333</ele><time>2026-04-20T08:18:08Z</time></trkpt><trkpt lat="45.712837553068574" lon="10.410485576717734"><ele>340.0</ele><time>2026-04-20T08:18:09Z</time></trkpt><trkpt lat="45.71292221483169" lon="10.41077716893021"><ele>340.0</ele><time>2026-04-20T08:18:10Z</time></trkpt><trkpt lat="45.71300856134739" lon="10.411033722545618"><ele>340.0</ele><time>2026-04-20T08:18:11Z</time></trkpt><trkpt lat="45.71306742810008" lon="10.411283063432366"><ele>340.0</ele><time>2026-04-20T08:18:12Z</time></trkpt><trkpt lat="45.713134629354464" lon="10.411510350250927"><ele>337.66666666666663</ele><time>2026-04-20T08:18:13Z</time></trkpt><trkpt lat="45.7132214825149" lon="10.411695847447877"><ele>335.3333333333333</ele><time>2026-04-20T08:18:14Z</time></trkpt><trkpt lat="45.71335317257207" lon="10.411884519873093"><ele>333.0</ele><time>2026-04-20T08:18:15Z</time></trkpt><trkpt lat="45.71348570918928" lon="10.412057237363443"><ele>336.0</ele><time>2026-04-20T08:18:16Z</time></trkpt><trkpt lat="45.71364062478801" lon="10.412210218289795"><ele>339.0</ele><time>2026-04-20T08:18:17Z</time></trkpt><trkpt lat="45.71378800216034" lon="10.412326210629445"><ele>342.0</ele><time>2026-04-20T08:18:18Z</time></trkpt><trkpt lat="45.713964325426076" lon="10.41243755504824"><ele>342.0</ele><time>2026-04-20T08:18:19Z</time></trkpt><trkpt lat="45.71417225042556" lon="10.412560863673825"><ele>342.0</ele><time>2026-04-20T08:18:20.001Z</time></trkpt><trkpt lat="45.714360740112724" lon="10.41269126662055"><ele>342.0</ele><time>2026-04-20T08:18:21.001Z</time></trkpt><trkpt lat="45.71453667060593" lon="10.412820785641141"><ele>343.0</ele><time>2026-04-20T08:18:22.001Z</time></trkpt><trkpt lat="45.71471733730125" lon="10.412968777203583"><ele>344.0</ele><time>2026-04-20T08:18:23.001Z</time></trkpt><trkpt lat="45.71490293903903" lon="10.413114616847672"><ele>345.0</ele><time>2026-04-20T08:18:24Z</time></trkpt><trkpt lat="45.715068185876056" lon="10.413281277065375"><ele>345.0</ele><time>2026-04-20T08:18:25Z</time></trkpt><trkpt lat="45.71519973348778" lon="10.413477437548524"><ele>345.0</ele><time>2026-04-20T08:18:26Z</time></trkpt><trkpt lat="45.71531892059898" lon="10.41366704367202"><ele>345.0</ele><time>2026-04-20T08:18:27.001Z</time></trkpt><trkpt lat="45.71545277647193" lon="10.413865156957264"><ele>342.6666666666667</ele><time>2026-04-20T08:18:28.001Z</time></trkpt><trkpt lat="45.71561358054079" lon="10.414064521127937"><ele>340.33333333333337</ele><time>2026-04-20T08:18:29.001Z</time></trkpt><trkpt lat="45.71572643549074" lon="10.414232173822796"><ele>338.0</ele><time>2026-04-20T08:18:30.001Z</time></trkpt><trkpt lat="45.71583525350259" lon="10.41437996996835"><ele>338.0</ele><time>2026-04-20T08:18:31.001Z</time></trkpt><trkpt lat="45.71594602826536" lon="10.414537444560539"><ele>338.0</ele><time>2026-04-20T08:18:32Z</time></trkpt><trkpt lat="45.716053948569574" lon="10.414677958131032"><ele>338.0</ele><time>2026-04-20T08:18:33.001Z</time></trkpt><trkpt lat="45.71613984697913" lon="10.414875972603355"><ele>341.5</ele><time>2026-04-20T08:18:34.001Z</time></trkpt><trkpt lat="45.716250206214056" lon="10.4150103894232"><ele>345.0</ele><time>2026-04-20T08:18:35.001Z</time></trkpt><trkpt lat="45.71633927020813" lon="10.415154363895464"><ele>348.5</ele><time>2026-04-20T08:18:36.001Z</time></trkpt><trkpt lat="45.71639444219687" lon="10.4152638765772"><ele>352.0</ele><time>2026-04-20T08:18:37.001Z</time></trkpt><trkpt lat="45.71646746949492" lon="10.415370505896924"><ele>347.5</ele><time>2026-04-20T08:18:38.001Z</time></trkpt><trkpt lat="45.71653031905574" lon="10.415497939714934"><ele>343.0</ele><time>2026-04-20T08:18:39.001Z</time></trkpt><trkpt lat="45.71658725488447" lon="10.415647264783784"><ele>338.5</ele><time>2026-04-20T08:18:40.001Z</time></trkpt><trkpt lat="45.716713136004074" lon="10.415744161851821"><ele>334.0</ele><time>2026-04-20T08:18:41.001Z</time></trkpt><trkpt lat="45.716818570961856" lon="10.41591160019965"><ele>338.3333333333333</ele><time>2026-04-20T08:18:42.001Z</time></trkpt><trkpt lat="45.71693044940948" lon="10.416095062161041"><ele>342.6666666666667</ele><time>2026-04-20T08:18:43.001Z</time></trkpt><trkpt lat="45.71705395300782" lon="10.416295704604432"><ele>347.0</ele><time>2026-04-20T08:18:44.001Z</time></trkpt><trkpt lat="45.71718876548422" lon="10.416507958213428"><ele>347.0</ele><time>2026-04-20T08:18:45.001Z</time></trkpt><trkpt lat="45.717314350954695" lon="10.41670107067367"><ele>347.0</ele><time>2026-04-20T08:18:46.001Z</time></trkpt><trkpt lat="45.717450704924836" lon="10.416902681891258"><ele>347.0</ele><time>2026-04-20T08:18:47.001Z</time></trkpt><trkpt lat="45.71758886286545" lon="10.41710614996047"><ele>347.6666666666667</ele><time>2026-04-20T08:18:48.001Z</time></trkpt><trkpt lat="45.71771789579299" lon="10.41729437482722"><ele>348.3333333333333</ele><time>2026-04-20T08:18:49Z</time></trkpt><trkpt lat="45.7178595064359" lon="10.417500947238581"><ele>349.0</ele><time>2026-04-20T08:18:50Z</time></trkpt><trkpt lat="45.71798777919654" lon="10.417688063220512"><ele>349.0</ele><time>2026-04-20T08:18:51Z</time></trkpt><trkpt lat="45.71810815655907" lon="10.417863661910072"><ele>349.0</ele><time>2026-04-20T08:18:52Z</time></trkpt><trkpt lat="45.718241629138426" lon="10.418025510577857"><ele>349.0</ele><time>2026-04-20T08:18:53Z</time></trkpt><trkpt lat="45.71834689156672" lon="10.418211072699364"><ele>347.0</ele><time>2026-04-20T08:18:54Z</time></trkpt><trkpt lat="45.71847419553516" lon="10.418384158697098"><ele>345.0</ele><time>2026-04-20T08:18:55Z</time></trkpt><trkpt lat="45.718556964934336" lon="10.418580030983426"><ele>343.0</ele><time>2026-04-20T08:18:56Z</time></trkpt><trkpt lat="45.718694192552995" lon="10.418760342774691"><ele>339.3333333333333</ele><time>2026-04-20T08:18:57Z</time></trkpt><trkpt lat="45.71882198491213" lon="10.41893490475611"><ele>335.6666666666667</ele><time>2026-04-20T08:18:58Z</time></trkpt><trkpt lat="45.71895142567029" lon="10.41911722919481"><ele>332.0</ele><time>2026-04-20T08:18:59Z</time></trkpt><trkpt lat="45.719086569403096" lon="10.419304671085179"><ele>332.0</ele><time>2026-04-20T08:19:00Z</time></trkpt><trkpt lat="45.71921403167921" lon="10.419487531044924"><ele>332.0</ele><time>2026-04-20T08:19:01Z</time></trkpt><trkpt lat="45.71932816612336" lon="10.419671513926591"><ele>332.0</ele><time>2026-04-20T08:19:02Z</time></trkpt><trkpt lat="45.71943743510303" lon="10.41985222123755"><ele>333.0</ele><time>2026-04-20T08:19:03Z</time></trkpt><trkpt lat="45.71955179071781" lon="10.420011472439214"><ele>334.0</ele><time>2026-04-20T08:19:04Z</time></trkpt><trkpt lat="45.71967774170865" lon="10.420191849868049"><ele>335.0</ele><time>2026-04-20T08:19:05Z</time></trkpt><trkpt lat="45.71980602653589" lon="10.420369108011776"><ele>333.6666666666667</ele><time>2026-04-20T08:19:06Z</time></trkpt><trkpt lat="45.71993502548731" lon="10.420533774052455"><ele>332.3333333333333</ele><time>2026-04-20T08:19:07Z</time></trkpt><trkpt lat="45.7200556923672" lon="10.420705305872627"><ele>331.0</ele><time>2026-04-20T08:19:08Z</time></trkpt><trkpt lat="45.720187377178746" lon="10.420876329963397"><ele>330.3333333333333</ele><time>2026-04-20T08:19:09Z</time></trkpt><trkpt lat="45.720308515811915" lon="10.421053721009304"><ele>329.6666666666667</ele><time>2026-04-20T08:19:10Z</time></trkpt><trkpt lat="45.720426196006436" lon="10.421238194869282"><ele>329.0</ele><time>2026-04-20T08:19:11Z</time></trkpt><trkpt lat="45.72054257231132" lon="10.42144084900376"><ele>329.0</ele><time>2026-04-20T08:19:12Z</time></trkpt><trkpt lat="45.72069723826968" lon="10.421608700294648"><ele>329.0</ele><time>2026-04-20T08:19:13Z</time></trkpt><trkpt lat="45.720817979539326" lon="10.42181117107743"><ele>329.0</ele><time>2026-04-20T08:19:14Z</time></trkpt><trkpt lat="45.72093578977029" lon="10.422013129016953"><ele>328.0</ele><time>2026-04-20T08:19:15Z</time></trkpt><trkpt lat="45.721050842582656" lon="10.422245553033441"><ele>327.0</ele><time>2026-04-20T08:19:16Z</time></trkpt><trkpt lat="45.72114674537922" lon="10.422502609732165"><ele>326.0</ele><time>2026-04-20T08:19:17Z</time></trkpt><trkpt lat="45.72123847567757" lon="10.422785697263498"><ele>326.6666666666667</ele><time>2026-04-20T08:19:18Z</time></trkpt><trkpt lat="45.7213150687555" lon="10.423057788193658"><ele>327.3333333333333</ele><time>2026-04-20T08:19:19Z</time></trkpt><trkpt lat="45.72140639818365" lon="10.423304623764528"><ele>328.0</ele><time>2026-04-20T08:19:20Z</time></trkpt><trkpt lat="45.721511219632994" lon="10.423542229938798"><ele>328.0</ele><time>2026-04-20T08:19:21Z</time></trkpt><trkpt lat="45.721578508226784" lon="10.42378308772383"><ele>328.0</ele><time>2026-04-20T08:19:22Z</time></trkpt><trkpt lat="45.72166541564975" lon="10.423997714619961"><ele>328.0</ele><time>2026-04-20T08:19:23Z</time></trkpt><trkpt lat="45.721788078194216" lon="10.424182093026095"><ele>328.3333333333333</ele><time>2026-04-20T08:19:24Z</time></trkpt><trkpt lat="45.72191004048533" lon="10.424375314931158"><ele>328.6666666666667</ele><time>2026-04-20T08:19:25Z</time></trkpt><trkpt lat="45.72205092773034" lon="10.424562637735889"><ele>329.0</ele><time>2026-04-20T08:19:26Z</time></trkpt><trkpt lat="45.722200489102455" lon="10.42474353294542"><ele>329.0</ele><time>2026-04-20T08:19:27Z</time></trkpt><trkpt lat="45.72233841990538" lon="10.42493556947862"><ele>329.0</ele><time>2026-04-20T08:19:28Z</time></trkpt><trkpt lat="45.72245118518098" lon="10.425129185126279"><ele>329.0</ele><time>2026-04-20T08:19:29Z</time></trkpt><trkpt lat="45.72256045204932" lon="10.425339662957242"><ele>328.0</ele><time>2026-04-20T08:19:30Z</time></trkpt><trkpt lat="45.72267650294486" lon="10.425568926605726"><ele>327.0</ele><time>2026-04-20T08:19:31Z</time></trkpt><trkpt lat="45.72279149104645" lon="10.425803705760517"><ele>326.0</ele><time>2026-04-20T08:19:32Z</time></trkpt><trkpt lat="45.72290632541127" lon="10.426036470936934"><ele>328.0</ele><time>2026-04-20T08:19:33Z</time></trkpt><trkpt lat="45.72301840752433" lon="10.42626537602166"><ele>330.0</ele><time>2026-04-20T08:19:34Z</time></trkpt><trkpt lat="45.723138456988764" lon="10.426485926734337"><ele>332.0</ele><time>2026-04-20T08:19:35Z</time></trkpt><trkpt lat="45.723278128312316" lon="10.426689332776178"><ele>332.0</ele><time>2026-04-20T08:19:36Z</time></trkpt><trkpt lat="45.7234293073573" lon="10.4268829811871"><ele>332.0</ele><time>2026-04-20T08:19:37Z</time></trkpt><trkpt lat="45.72360234180842" lon="10.427072082068994"><ele>332.0</ele><time>2026-04-20T08:19:38Z</time></trkpt><trkpt lat="45.72376278515165" lon="10.427261440894473"><ele>332.6666666666667</ele><time>2026-04-20T08:19:39Z</time></trkpt><trkpt lat="45.72388875321729" lon="10.427444758238073"><ele>333.3333333333333</ele><time>2026-04-20T08:19:40Z</time></trkpt><trkpt lat="45.72400946219912" lon="10.42763917250462"><ele>334.0</ele><time>2026-04-20T08:19:41Z</time></trkpt><trkpt lat="45.72411913734291" lon="10.42784042365449"><ele>332.0</ele><time>2026-04-20T08:19:42Z</time></trkpt><trkpt lat="45.72427602112907" lon="10.428039596243853"><ele>330.0</ele><time>2026-04-20T08:19:43Z</time></trkpt><trkpt lat="45.724433162179686" lon="10.428237090701199"><ele>328.0</ele><time>2026-04-20T08:19:44Z</time></trkpt><trkpt lat="45.72454915820496" lon="10.428453057996204"><ele>330.0</ele><time>2026-04-20T08:19:45Z</time></trkpt><trkpt lat="45.7246648594541" lon="10.428670968738155"><ele>332.0</ele><time>2026-04-20T08:19:46Z</time></trkpt><trkpt lat="45.72477344795012" lon="10.428865578218604"><ele>334.0</ele><time>2026-04-20T08:19:47Z</time></trkpt><trkpt lat="45.72487760225526" lon="10.42907618394199"><ele>334.0</ele><time>2026-04-20T08:19:48Z</time></trkpt><trkpt lat="45.72499125705545" lon="10.429285633391396"><ele>334.0</ele><time>2026-04-20T08:19:49Z</time></trkpt><trkpt lat="45.72513713987555" lon="10.42950290661482"><ele>334.0</ele><time>2026-04-20T08:19:50Z</time></trkpt><trkpt lat="45.72529246132906" lon="10.429725588044253"><ele>334.0</ele><time>2026-04-20T08:19:51Z</time></trkpt><trkpt lat="45.725447866210914" lon="10.429947303875542"><ele>334.0</ele><time>2026-04-20T08:19:52Z</time></trkpt><trkpt lat="45.72558260264993" lon="10.430134219234573"><ele>334.0</ele><time>2026-04-20T08:19:53Z</time></trkpt><trkpt lat="45.725729688634715" lon="10.430310461687762"><ele>334.3333333333333</ele><time>2026-04-20T08:19:54Z</time></trkpt><trkpt lat="45.725874222154644" lon="10.430493251811265"><ele>334.6666666666667</ele><time>2026-04-20T08:19:55Z</time></trkpt><trkpt lat="45.726033555210385" lon="10.430682643936555"><ele>335.0</ele><time>2026-04-20T08:19:56Z</time></trkpt><trkpt lat="45.72618523664027" lon="10.430887562393387"><ele>335.0</ele><time>2026-04-20T08:19:57Z</time></trkpt><trkpt lat="45.726342021241315" lon="10.431092086052626"><ele>335.0</ele><time>2026-04-20T08:19:58Z</time></trkpt><trkpt lat="45.726501250667106" lon="10.43130086799451"><ele>335.0</ele><time>2026-04-20T08:19:59Z</time></trkpt><trkpt lat="45.72666093001589" lon="10.43149807568046"><ele>332.6666666666667</ele><time>2026-04-20T08:20:00Z</time></trkpt><trkpt lat="45.726818600454436" lon="10.431686695684828"><ele>330.3333333333333</ele><time>2026-04-20T08:20:01Z</time></trkpt><trkpt lat="45.72696461819632" lon="10.431866473980286"><ele>328.0</ele><time>2026-04-20T08:20:02Z</time></trkpt><trkpt lat="45.727119037814745" lon="10.432010178832224"><ele>328.75</ele><time>2026-04-20T08:20:03Z</time></trkpt><trkpt lat="45.727244837470074" lon="10.432148134954353"><ele>329.5</ele><time>2026-04-20T08:20:04Z</time></trkpt><trkpt lat="45.72736655327307" lon="10.432268814245472"><ele>330.25</ele><time>2026-04-20T08:20:05Z</time></trkpt><trkpt lat="45.72745751160164" lon="10.432378151941105"><ele>331.0</ele><time>2026-04-20T08:20:06Z</time></trkpt><trkpt lat="45.727557449683324" lon="10.432479693366115"><ele>331.0</ele><time>2026-04-20T08:20:07Z</time></trkpt><trkpt lat="45.72766783500565" lon="10.43255202813718"><ele>331.0</ele><time>2026-04-20T08:20:08Z</time></trkpt><trkpt lat="45.7277928006244" lon="10.432579541408728"><ele>331.0</ele><time>2026-04-20T08:20:09Z</time></trkpt><trkpt lat="45.72794676398026" lon="10.432556233410514"><ele>331.0</ele><time>2026-04-20T08:20:10Z</time></trkpt><trkpt lat="45.728107022672646" lon="10.432524616580958"><ele>332.75</ele><time>2026-04-20T08:20:11Z</time></trkpt><trkpt lat="45.72824694151628" lon="10.432495571409012"><ele>334.5</ele><time>2026-04-20T08:20:12Z</time></trkpt><trkpt lat="45.72836426153384" lon="10.432509143308215"><ele>336.25</ele><time>2026-04-20T08:20:13Z</time></trkpt><trkpt lat="45.728478934700334" lon="10.432564965615738"><ele>338.0</ele><time>2026-04-20T08:20:14Z</time></trkpt><trkpt lat="45.728608588973195" lon="10.43267696213891"><ele>338.6666666666667</ele><time>2026-04-20T08:20:15Z</time></trkpt><trkpt lat="45.72873523489866" lon="10.432825519680229"><ele>339.3333333333333</ele><time>2026-04-20T08:20:16Z</time></trkpt><trkpt lat="45.728860122616595" lon="10.43299813274055"><ele>340.0</ele><time>2026-04-20T08:20:17Z</time></trkpt><trkpt lat="45.72896663284736" lon="10.433179120698878"><ele>340.0</ele><time>2026-04-20T08:20:18Z</time></trkpt><trkpt lat="45.729053337478334" lon="10.43335216042093"><ele>340.0</ele><time>2026-04-20T08:20:19Z</time></trkpt><trkpt lat="45.72913479955845" lon="10.43353455707608"><ele>340.0</ele><time>2026-04-20T08:20:20Z</time></trkpt><trkpt lat="45.72921873219937" lon="10.433728052807206"><ele>339.66666666666663</ele><time>2026-04-20T08:20:21Z</time></trkpt><trkpt lat="45.72932780996728" lon="10.433891452106147"><ele>339.3333333333333</ele><time>2026-04-20T08:20:22Z</time></trkpt><trkpt lat="45.729436532710004" lon="10.434042626754193"><ele>339.0</ele><time>2026-04-20T08:20:23Z</time></trkpt><trkpt lat="45.72954781056396" lon="10.434179974345438"><ele>339.0</ele><time>2026-04-20T08:20:24Z</time></trkpt><trkpt lat="45.7296914158044" lon="10.43428439312404"><ele>339.0</ele><time>2026-04-20T08:20:25Z</time></trkpt><trkpt lat="45.72981861896787" lon="10.434349837095537"><ele>339.0</ele><time>2026-04-20T08:20:26Z</time></trkpt><trkpt lat="45.72993457923392" lon="10.43440829831869"><ele>339.0</ele><time>2026-04-20T08:20:27Z</time></trkpt><trkpt lat="45.73005425906368" lon="10.434462405536893"><ele>339.0</ele><time>2026-04-20T08:20:28Z</time></trkpt><trkpt lat="45.73018266980306" lon="10.434527589459702"><ele>339.0</ele><time>2026-04-20T08:20:29Z</time></trkpt><trkpt lat="45.73030469630303" lon="10.434592718714"><ele>339.0</ele><time>2026-04-20T08:20:30.001Z</time></trkpt><trkpt lat="45.730443022632805" lon="10.434624884718058"><ele>339.0</ele><time>2026-04-20T08:20:31.001Z</time></trkpt><trkpt lat="45.730595629163325" lon="10.43460731006376"><ele>339.6</ele><time>2026-04-20T08:20:32.001Z</time></trkpt><trkpt lat="45.73073458524804" lon="10.434558107116798"><ele>340.2</ele><time>2026-04-20T08:20:33Z</time></trkpt><trkpt lat="45.73084183795505" lon="10.434498983007868"><ele>340.8</ele><time>2026-04-20T08:20:34Z</time></trkpt><trkpt lat="45.73093622474446" lon="10.434449953266101"><ele>341.40000000000003</ele><time>2026-04-20T08:20:35.001Z</time></trkpt><trkpt lat="45.73101735567321" lon="10.434408411252113"><ele>342.0</ele><time>2026-04-20T08:20:36.001Z</time></trkpt><trkpt lat="45.73111350256354" lon="10.4343604783829"><ele>342.8</ele><time>2026-04-20T08:20:37.001Z</time></trkpt><trkpt lat="45.73120781938706" lon="10.434303423136914"><ele>343.6</ele><time>2026-04-20T08:20:38.001Z</time></trkpt><trkpt lat="45.73130041804819" lon="10.434250518605287"><ele>344.40000000000003</ele><time>2026-04-20T08:20:39Z</time></trkpt><trkpt lat="45.73140992574824" lon="10.434189887056979"><ele>345.20000000000005</ele><time>2026-04-20T08:20:40Z</time></trkpt><trkpt lat="45.73150879041981" lon="10.434135938644546"><ele>346.0</ele><time>2026-04-20T08:20:41Z</time></trkpt><trkpt lat="45.7315831528829" lon="10.434099843603303"><ele>346.0</ele><time>2026-04-20T08:20:42Z</time></trkpt><trkpt lat="45.731654401516515" lon="10.434058831214509"><ele>346.0</ele><time>2026-04-20T08:20:43Z</time></trkpt><trkpt lat="45.73171349504747" lon="10.434023097862218"><ele>346.0</ele><time>2026-04-20T08:20:44Z</time></trkpt><trkpt lat="45.73183598415017" lon="10.4339753103523"><ele>346.0</ele><time>2026-04-20T08:20:46Z</time></trkpt><trkpt lat="45.731899009165375" lon="10.433963111002553"><ele>346.0</ele><time>2026-04-20T08:20:47Z</time></trkpt><trkpt lat="45.73201639569652" lon="10.433942032679072"><ele>346.1428571428571</ele><time>2026-04-20T08:20:49Z</time></trkpt><trkpt lat="45.73207898167322" lon="10.433977756541138"><ele>346.28571428571433</ele><time>2026-04-20T08:20:50Z</time></trkpt><trkpt lat="45.73217220870232" lon="10.434021685723614"><ele>346.42857142857144</ele><time>2026-04-20T08:20:51Z</time></trkpt><trkpt lat="45.73225004548423" lon="10.434038331301794"><ele>346.57142857142856</ele><time>2026-04-20T08:20:52Z</time></trkpt><trkpt lat="45.73229461005542" lon="10.434107316852515"><ele>346.71428571428567</ele><time>2026-04-20T08:20:53Z</time></trkpt><trkpt lat="45.73236150899721" lon="10.434151219805416"><ele>346.8571428571429</ele><time>2026-04-20T08:20:54Z</time></trkpt><trkpt lat="45.73242136511318" lon="10.434189603865695"><ele>347.0</ele><time>2026-04-20T08:20:55Z</time></trkpt><trkpt lat="45.73248252342129" lon="10.434224606369202"><ele>347.0</ele><time>2026-04-20T08:20:56Z</time></trkpt><trkpt lat="45.73255540103589" lon="10.434254587384595"><ele>347.0</ele><time>2026-04-20T08:20:57Z</time></trkpt><trkpt lat="45.7326456744712" lon="10.434301882299938"><ele>347.0</ele><time>2026-04-20T08:20:58Z</time></trkpt><trkpt lat="45.73273863562736" lon="10.434332753882025"><ele>347.0</ele><time>2026-04-20T08:20:59Z</time></trkpt><trkpt lat="45.73282111820511" lon="10.434362176579357"><ele>347.0</ele><time>2026-04-20T08:21:00Z</time></trkpt><trkpt lat="45.73289594357068" lon="10.434387559861124"><ele>347.0</ele><time>2026-04-20T08:21:01Z</time></trkpt><trkpt lat="45.73296748604064" lon="10.434411021258274"><ele>346.40000000000003</ele><time>2026-04-20T08:21:02Z</time></trkpt><trkpt lat="45.73304715513999" lon="10.434447013733072"><ele>345.8</ele><time>2026-04-20T08:21:03Z</time></trkpt><trkpt lat="45.73311063538848" lon="10.43452892530939"><ele>345.2</ele><time>2026-04-20T08:21:04Z</time></trkpt><trkpt lat="45.733205192079616" lon="10.434577830823994"><ele>344.6</ele><time>2026-04-20T08:21:05Z</time></trkpt><trkpt lat="45.73329107830616" lon="10.434615272159624"><ele>344.0</ele><time>2026-04-20T08:21:06Z</time></trkpt><trkpt lat="45.73338848921762" lon="10.434642063045857"><ele>348.6666666666667</ele><time>2026-04-20T08:21:07Z</time></trkpt><trkpt lat="45.73351805362157" lon="10.434635899355316"><ele>353.3333333333333</ele><time>2026-04-20T08:21:08Z</time></trkpt><trkpt lat="45.73368098627799" lon="10.434606346502305"><ele>358.0</ele><time>2026-04-20T08:21:09Z</time></trkpt><trkpt lat="45.73385730175228" lon="10.434587691593043"><ele>360.3333333333333</ele><time>2026-04-20T08:21:10Z</time></trkpt><trkpt lat="45.734074685719214" lon="10.434567642988364"><ele>362.6666666666667</ele><time>2026-04-20T08:21:11Z</time></trkpt><trkpt lat="45.73425272895974" lon="10.434560290119016"><ele>365.0</ele><time>2026-04-20T08:21:12Z</time></trkpt><trkpt lat="45.734401410679624" lon="10.434560173654672"><ele>365.5</ele><time>2026-04-20T08:21:13Z</time></trkpt><trkpt lat="45.73453826279823" lon="10.434552370369897"><ele>366.0</ele><time>2026-04-20T08:21:14Z</time></trkpt><trkpt lat="45.73465489897818" lon="10.43451955797303"><ele>366.5</ele><time>2026-04-20T08:21:15Z</time></trkpt><trkpt lat="45.73476072908924" lon="10.434480346080791"><ele>367.0</ele><time>2026-04-20T08:21:16Z</time></trkpt><trkpt lat="45.73486417394642" lon="10.434441910918942"><ele>367.0</ele><time>2026-04-20T08:21:17Z</time></trkpt><trkpt lat="45.734984058975456" lon="10.434415353095467"><ele>367.0</ele><time>2026-04-20T08:21:18Z</time></trkpt><trkpt lat="45.7350828939458" lon="10.434421586116066"><ele>367.0</ele><time>2026-04-20T08:21:19Z</time></trkpt><trkpt lat="45.735190501481995" lon="10.434434241734863"><ele>367.0</ele><time>2026-04-20T08:21:20Z</time></trkpt><trkpt lat="45.73529634159025" lon="10.434475575488815"><ele>367.0</ele><time>2026-04-20T08:21:21Z</time></trkpt><trkpt lat="45.735398414371375" lon="10.434538988834483"><ele>364.5</ele><time>2026-04-20T08:21:22Z</time></trkpt><trkpt lat="45.73550256791673" lon="10.434611402102876"><ele>362.0</ele><time>2026-04-20T08:21:23Z</time></trkpt><trkpt lat="45.73560628754459" lon="10.43467600241865"><ele>359.5</ele><time>2026-04-20T08:21:24Z</time></trkpt><trkpt lat="45.73568251317769" lon="10.43479439560971"><ele>357.0</ele><time>2026-04-20T08:21:25Z</time></trkpt><trkpt lat="45.73581699596999" lon="10.434869760335724"><ele>357.0</ele><time>2026-04-20T08:21:26Z</time></trkpt><trkpt lat="45.73597877491842" lon="10.434976642787321"><ele>357.0</ele><time>2026-04-20T08:21:27Z</time></trkpt><trkpt lat="45.73613449543681" lon="10.435094571731852"><ele>357.0</ele><time>2026-04-20T08:21:28Z</time></trkpt><trkpt lat="45.736257295590036" lon="10.4351958044906"><ele>361.20000000000005</ele><time>2026-04-20T08:21:29Z</time></trkpt><trkpt lat="45.7363655956446" lon="10.43526352215288"><ele>365.4</ele><time>2026-04-20T08:21:30Z</time></trkpt><trkpt lat="45.73646212626361" lon="10.43532825147402"><ele>369.6</ele><time>2026-04-20T08:21:31Z</time></trkpt><trkpt lat="45.73655640144205" lon="10.435378244989703"><ele>373.79999999999995</ele><time>2026-04-20T08:21:32Z</time></trkpt><trkpt lat="45.736644845183235" lon="10.435411745827498"><ele>378.0</ele><time>2026-04-20T08:21:33Z</time></trkpt><trkpt lat="45.73673030662391" lon="10.435458072383001"><ele>378.4</ele><time>2026-04-20T08:21:34Z</time></trkpt><trkpt lat="45.73681542089899" lon="10.435524150505355"><ele>378.79999999999995</ele><time>2026-04-20T08:21:35Z</time></trkpt><trkpt lat="45.73690582299964" lon="10.435610064830753"><ele>379.2</ele><time>2026-04-20T08:21:36Z</time></trkpt><trkpt lat="45.737002148764795" lon="10.435702939673895"><ele>379.6</ele><time>2026-04-20T08:21:37Z</time></trkpt><trkpt lat="45.73709533672071" lon="10.435808762410753"><ele>380.0</ele><time>2026-04-20T08:21:38Z</time></trkpt><trkpt lat="45.73716547991904" lon="10.435911234299555"><ele>380.0</ele><time>2026-04-20T08:21:39Z</time></trkpt><trkpt lat="45.73721981807118" lon="10.436006188973693"><ele>380.0</ele><time>2026-04-20T08:21:40Z</time></trkpt><trkpt lat="45.7372709520239" lon="10.436085820575954"><ele>380.0</ele><time>2026-04-20T08:21:41Z</time></trkpt><trkpt lat="45.737320140938955" lon="10.43615909497086"><ele>380.0</ele><time>2026-04-20T08:21:42Z</time></trkpt><trkpt lat="45.7373799347055" lon="10.436218024268328"><ele>380.0</ele><time>2026-04-20T08:21:43Z</time></trkpt><trkpt lat="45.737444657867385" lon="10.436281116593607"><ele>380.0</ele><time>2026-04-20T08:21:44Z</time></trkpt><trkpt lat="45.73749984502493" lon="10.436329769489072"><ele>380.0</ele><time>2026-04-20T08:21:45Z</time></trkpt><trkpt lat="45.737570809499005" lon="10.436359604371924"><ele>381.1666666666667</ele><time>2026-04-20T08:21:46Z</time></trkpt><trkpt lat="45.73764826135056" lon="10.436379585440664"><ele>382.33333333333337</ele><time>2026-04-20T08:21:47Z</time></trkpt><trkpt lat="45.73772948877567" lon="10.436377007777311"><ele>383.5</ele><time>2026-04-20T08:21:48Z</time></trkpt><trkpt lat="45.73781961963271" lon="10.436366460800059"><ele>384.6666666666667</ele><time>2026-04-20T08:21:49Z</time></trkpt><trkpt lat="45.737895905815336" lon="10.436353100482263"><ele>385.8333333333333</ele><time>2026-04-20T08:21:50Z</time></trkpt><trkpt lat="45.7379697259107" lon="10.436362612923519"><ele>387.0</ele><time>2026-04-20T08:21:51Z</time></trkpt><trkpt lat="45.73805552708522" lon="10.436346626787687"><ele>387.0</ele><time>2026-04-20T08:21:52Z</time></trkpt><trkpt lat="45.73813589254729" lon="10.436403877845123"><ele>387.0</ele><time>2026-04-20T08:21:53Z</time></trkpt><trkpt lat="45.738202414105594" lon="10.436491397575933"><ele>387.0</ele><time>2026-04-20T08:21:54Z</time></trkpt><trkpt lat="45.73825495479211" lon="10.436562132778016"><ele>387.0</ele><time>2026-04-20T08:21:55Z</time></trkpt><trkpt lat="45.7382446326274" lon="10.436685805675815"><ele>387.0</ele><time>2026-04-20T08:21:56Z</time></trkpt><trkpt lat="45.73828619928622" lon="10.436755008036187"><ele>387.0</ele><time>2026-04-20T08:21:57Z</time></trkpt><trkpt lat="45.73835689768404" lon="10.436866895937012"><ele>387.0</ele><time>2026-04-20T08:21:59Z</time></trkpt><trkpt lat="45.738415425238685" lon="10.436973135266841"><ele>387.0</ele><time>2026-04-20T08:22:01Z</time></trkpt><trkpt lat="45.73847107761844" lon="10.437068970549891"><ele>387.0</ele><time>2026-04-20T08:22:03Z</time></trkpt><trkpt lat="45.738544128418994" lon="10.4371642737182"><ele>387.0</ele><time>2026-04-20T08:22:05Z</time></trkpt><trkpt lat="45.738626818096265" lon="10.437293535577583"><ele>387.0</ele><time>2026-04-20T08:22:07Z</time></trkpt><trkpt lat="45.73865285590574" lon="10.437391831450396"><ele>387.1666666666667</ele><time>2026-04-20T08:22:08Z</time></trkpt><trkpt lat="45.73867767876154" lon="10.43749120700333"><ele>387.33333333333337</ele><time>2026-04-20T08:22:09Z</time></trkpt><trkpt lat="45.73869559176186" lon="10.437591451942033"><ele>387.5</ele><time>2026-04-20T08:22:10Z</time></trkpt><trkpt lat="45.738718058100666" lon="10.43769422749606"><ele>387.6666666666667</ele><time>2026-04-20T08:22:11Z</time></trkpt><trkpt lat="45.73874133331138" lon="10.437828440082672"><ele>387.83333333333337</ele><time>2026-04-20T08:22:12Z</time></trkpt><trkpt lat="45.73876710073578" lon="10.437934713051673"><ele>388.0</ele><time>2026-04-20T08:22:13Z</time></trkpt><trkpt lat="45.73877541358708" lon="10.438027327173089"><ele>388.00000000000006</ele><time>2026-04-20T08:22:14Z</time></trkpt><trkpt lat="45.73877091543966" lon="10.438181109760302"><ele>388.0</ele><time>2026-04-20T08:22:16Z</time></trkpt><trkpt lat="45.73881189287722" lon="10.438253775563751"><ele>388.0</ele><time>2026-04-20T08:22:18Z</time></trkpt><trkpt lat="45.73882428565576" lon="10.438377581362989"><ele>388.0</ele><time>2026-04-20T08:22:21Z</time></trkpt><trkpt lat="45.73883189075712" lon="10.438491232763914"><ele>388.00000000000006</ele><time>2026-04-20T08:22:24Z</time></trkpt><trkpt lat="45.73885466052789" lon="10.438635942521888"><ele>388.0</ele><time>2026-04-20T08:22:26Z</time></trkpt><trkpt lat="45.73894090235744" lon="10.43870047051069"><ele>388.0</ele><time>2026-04-20T08:22:27Z</time></trkpt><trkpt lat="45.73898894352427" lon="10.438774936552608"><ele>388.0</ele><time>2026-04-20T08:22:28Z</time></trkpt><trkpt lat="45.739065754348495" lon="10.438900845632368"><ele>388.0</ele><time>2026-04-20T08:22:30Z</time></trkpt><trkpt lat="45.73905151250048" lon="10.439024690713495"><ele>388.0</ele><time>2026-04-20T08:22:31Z</time></trkpt><trkpt lat="45.73914821213609" lon="10.439085443611667"><ele>388.0</ele><time>2026-04-20T08:22:33.001Z</time></trkpt><trkpt lat="45.73921318387406" lon="10.43914115301097"><ele>386.79999999999995</ele><time>2026-04-20T08:22:34.001Z</time></trkpt><trkpt lat="45.73927489313437" lon="10.439198436686759"><ele>385.6</ele><time>2026-04-20T08:22:35.001Z</time></trkpt><trkpt lat="45.73932784533267" lon="10.43929001677375"><ele>384.4</ele><time>2026-04-20T08:22:36Z</time></trkpt><trkpt lat="45.73930678082486" lon="10.439447029912024"><ele>383.20000000000005</ele><time>2026-04-20T08:22:37Z</time></trkpt><trkpt lat="45.73933200741986" lon="10.439579339058794"><ele>382.0</ele><time>2026-04-20T08:22:38.001Z</time></trkpt><trkpt lat="45.73936036400238" lon="10.439751047753125"><ele>385.8</ele><time>2026-04-20T08:22:39Z</time></trkpt><trkpt lat="45.73938410850935" lon="10.43989482882397"><ele>389.6</ele><time>2026-04-20T08:22:40Z</time></trkpt><trkpt lat="45.73940307582912" lon="10.440009682398223"><ele>393.40000000000003</ele><time>2026-04-20T08:22:41Z</time></trkpt><trkpt lat="45.73941929129289" lon="10.440107872546518"><ele>397.20000000000005</ele><time>2026-04-20T08:22:42.001Z</time></trkpt><trkpt lat="45.73944391723695" lon="10.440261346218133"><ele>401.0</ele><time>2026-04-20T08:22:44.001Z</time></trkpt><trkpt lat="45.73946414888375" lon="10.440390249916486"><ele>400.4</ele><time>2026-04-20T08:22:46Z</time></trkpt><trkpt lat="45.73948454018039" lon="10.440524972553664"><ele>399.8</ele><time>2026-04-20T08:22:47Z</time></trkpt><trkpt lat="45.739502717452346" lon="10.440666841757379"><ele>399.2</ele><time>2026-04-20T08:22:48Z</time></trkpt><trkpt lat="45.73952182540829" lon="10.440816535260726"><ele>398.59999999999997</ele><time>2026-04-20T08:22:49Z</time></trkpt><trkpt lat="45.7395458142608" lon="10.440993285772148"><ele>398.0</ele><time>2026-04-20T08:22:50Z</time></trkpt><trkpt lat="45.73957202111148" lon="10.441181218163042"><ele>394.66666666666663</ele><time>2026-04-20T08:22:51Z</time></trkpt><trkpt lat="45.739617604695894" lon="10.441386790490354"><ele>391.33333333333337</ele><time>2026-04-20T08:22:52Z</time></trkpt><trkpt lat="45.73964149801229" lon="10.441633894648799"><ele>388.0</ele><time>2026-04-20T08:22:53Z</time></trkpt><trkpt lat="45.73967117051461" lon="10.44189800093015"><ele>385.0</ele><time>2026-04-20T08:22:54Z</time></trkpt><trkpt lat="45.73971753619364" lon="10.44217912450711"><ele>382.0</ele><time>2026-04-20T08:22:55Z</time></trkpt><trkpt lat="45.739751701523055" lon="10.442493666947207"><ele>379.0</ele><time>2026-04-20T08:22:56Z</time></trkpt><trkpt lat="45.739793375116136" lon="10.442797910560747"><ele>374.0</ele><time>2026-04-20T08:22:57Z</time></trkpt><trkpt lat="45.739829373417535" lon="10.443060720987102"><ele>369.0</ele><time>2026-04-20T08:22:58Z</time></trkpt><trkpt lat="45.73986520644289" lon="10.443289097879138"><ele>364.0</ele><time>2026-04-20T08:22:59Z</time></trkpt><trkpt lat="45.73987749786517" lon="10.443511147724017"><ele>364.0</ele><time>2026-04-20T08:23:00Z</time></trkpt><trkpt lat="45.739930555514604" lon="10.443732548760424"><ele>364.0</ele><time>2026-04-20T08:23:01Z</time></trkpt><trkpt lat="45.73994855513912" lon="10.443955994271189"><ele>364.0</ele><time>2026-04-20T08:23:02Z</time></trkpt><trkpt lat="45.739987021409135" lon="10.444130721437062"><ele>364.0</ele><time>2026-04-20T08:23:03Z</time></trkpt><trkpt lat="45.74001455976456" lon="10.444278767523917"><ele>362.6</ele><time>2026-04-20T08:23:04Z</time></trkpt><trkpt lat="45.74002187605509" lon="10.444409679531066"><ele>361.2</ele><time>2026-04-20T08:23:05Z</time></trkpt><trkpt lat="45.740021002800056" lon="10.444535205915903"><ele>359.8</ele><time>2026-04-20T08:23:06Z</time></trkpt><trkpt lat="45.73999607776274" lon="10.44467687546408"><ele>358.40000000000003</ele><time>2026-04-20T08:23:07Z</time></trkpt><trkpt lat="45.73996569458115" lon="10.444795212484317"><ele>357.0</ele><time>2026-04-20T08:23:08Z</time></trkpt><trkpt lat="45.73978776734044" lon="10.444659537880167"><ele>356.3333333333333</ele><time>2026-04-20T08:23:09Z</time></trkpt><trkpt lat="45.739627589489665" lon="10.444696741843464"><ele>355.66666666666663</ele><time>2026-04-20T08:23:10Z</time></trkpt><trkpt lat="45.73945751756133" lon="10.444744833598365"><ele>355.0</ele><time>2026-04-20T08:23:11Z</time></trkpt><trkpt lat="45.73928548866138" lon="10.444830128854642"><ele>355.0</ele><time>2026-04-20T08:23:12Z</time></trkpt><trkpt lat="45.73914107818024" lon="10.44498123743945"><ele>355.0</ele><time>2026-04-20T08:23:13Z</time></trkpt><trkpt lat="45.738982107349095" lon="10.445175061574442"><ele>355.0</ele><time>2026-04-20T08:23:14Z</time></trkpt><trkpt lat="45.7388486745582" lon="10.445354352969972"><ele>353.66666666666663</ele><time>2026-04-20T08:23:15Z</time></trkpt><trkpt lat="45.7386817520024" lon="10.445521204487967"><ele>352.3333333333333</ele><time>2026-04-20T08:23:16Z</time></trkpt><trkpt lat="45.73851663920838" lon="10.445692369734868"><ele>351.0</ele><time>2026-04-20T08:23:17Z</time></trkpt><trkpt lat="45.73834270132573" lon="10.445864135953139"><ele>351.0</ele><time>2026-04-20T08:23:18Z</time></trkpt><trkpt lat="45.73817892901825" lon="10.44601402698525"><ele>351.0</ele><time>2026-04-20T08:23:19Z</time></trkpt><trkpt lat="45.738003115319785" lon="10.446173904544278"><ele>351.0</ele><time>2026-04-20T08:23:20Z</time></trkpt><trkpt lat="45.73782862888822" lon="10.446347830390128"><ele>351.6666666666667</ele><time>2026-04-20T08:23:21Z</time></trkpt><trkpt lat="45.737654337749916" lon="10.446527343316413"><ele>352.33333333333337</ele><time>2026-04-20T08:23:22Z</time></trkpt><trkpt lat="45.73748400860372" lon="10.446703625287228"><ele>353.0</ele><time>2026-04-20T08:23:23Z</time></trkpt><trkpt lat="45.737327526070196" lon="10.446851245158717"><ele>353.0</ele><time>2026-04-20T08:23:24Z</time></trkpt><trkpt lat="45.737161103394925" lon="10.44697973697022"><ele>353.0</ele><time>2026-04-20T08:23:25Z</time></trkpt><trkpt lat="45.73698289218518" lon="10.447091587002765"><ele>353.0</ele><time>2026-04-20T08:23:26Z</time></trkpt><trkpt lat="45.73680301877082" lon="10.447197430764133"><ele>356.0</ele><time>2026-04-20T08:23:27Z</time></trkpt><trkpt lat="45.73662146890015" lon="10.447301742740324"><ele>359.0</ele><time>2026-04-20T08:23:28Z</time></trkpt><trkpt lat="45.73645417116921" lon="10.44739821214333"><ele>362.0</ele><time>2026-04-20T08:23:29Z</time></trkpt><trkpt lat="45.736285633091946" lon="10.447524959993896"><ele>362.0</ele><time>2026-04-20T08:23:30Z</time></trkpt><trkpt lat="45.73611419991226" lon="10.447628478259837"><ele>362.0</ele><time>2026-04-20T08:23:31Z</time></trkpt><trkpt lat="45.73594585676519" lon="10.447745130833097"><ele>362.0</ele><time>2026-04-20T08:23:32Z</time></trkpt><trkpt lat="45.73580517308667" lon="10.44789348404307"><ele>365.0</ele><time>2026-04-20T08:23:33Z</time></trkpt><trkpt lat="45.73565980585306" lon="10.448062122938104"><ele>368.0</ele><time>2026-04-20T08:23:34Z</time></trkpt><trkpt lat="45.73551933934155" lon="10.448221231726794"><ele>371.0</ele><time>2026-04-20T08:23:35Z</time></trkpt><trkpt lat="45.735397292853" lon="10.448385486196008"><ele>371.0</ele><time>2026-04-20T08:23:36Z</time></trkpt><trkpt lat="45.73530066054288" lon="10.44858431996699"><ele>371.0</ele><time>2026-04-20T08:23:37Z</time></trkpt><trkpt lat="45.735209456976506" lon="10.448794224257421"><ele>371.0</ele><time>2026-04-20T08:23:38Z</time></trkpt><trkpt lat="45.73511815624764" lon="10.448970202062888"><ele>368.0</ele><time>2026-04-20T08:23:39Z</time></trkpt><trkpt lat="45.73505264111885" lon="10.449124686650354"><ele>365.0</ele><time>2026-04-20T08:23:40Z</time></trkpt><trkpt lat="45.73499744620966" lon="10.449340191924021"><ele>362.0</ele><time>2026-04-20T08:23:41Z</time></trkpt><trkpt lat="45.73497154129309" lon="10.449580585194036"><ele>364.6666666666667</ele><time>2026-04-20T08:23:42Z</time></trkpt><trkpt lat="45.734955934136956" lon="10.449819920343058"><ele>367.3333333333333</ele><time>2026-04-20T08:23:43Z</time></trkpt><trkpt lat="45.73494531858963" lon="10.450041263455807"><ele>370.0</ele><time>2026-04-20T08:23:44Z</time></trkpt><trkpt lat="45.73497018036484" lon="10.450227675830865"><ele>370.0</ele><time>2026-04-20T08:23:45Z</time></trkpt><trkpt lat="45.73502449701165" lon="10.450422006607488"><ele>370.0</ele><time>2026-04-20T08:23:46Z</time></trkpt><trkpt lat="45.735108515271044" lon="10.450590522840171"><ele>370.0</ele><time>2026-04-20T08:23:47Z</time></trkpt><trkpt lat="45.73519585743486" lon="10.450736646316546"><ele>370.0</ele><time>2026-04-20T08:23:48Z</time></trkpt><trkpt lat="45.7352328730865" lon="10.451019466245937"><ele>372.3333333333333</ele><time>2026-04-20T08:23:49Z</time></trkpt><trkpt lat="45.73524279961192" lon="10.4512746623687"><ele>374.6666666666667</ele><time>2026-04-20T08:23:50Z</time></trkpt><trkpt lat="45.735207302691286" lon="10.451494639363077"><ele>377.0</ele><time>2026-04-20T08:23:51Z</time></trkpt><trkpt lat="45.73516056164732" lon="10.45174231354173"><ele>377.0</ele><time>2026-04-20T08:23:52Z</time></trkpt><trkpt lat="45.735083340900424" lon="10.451978025707461"><ele>377.0</ele><time>2026-04-20T08:23:53Z</time></trkpt><trkpt lat="45.73500848028228" lon="10.452219517894434"><ele>377.0</ele><time>2026-04-20T08:23:54Z</time></trkpt><trkpt lat="45.73492546369084" lon="10.452432246212663"><ele>380.0</ele><time>2026-04-20T08:23:55Z</time></trkpt><trkpt lat="45.73483509101292" lon="10.452635838993611"><ele>383.0</ele><time>2026-04-20T08:23:56Z</time></trkpt><trkpt lat="45.73473230100485" lon="10.452797385729317"><ele>386.0</ele><time>2026-04-20T08:23:57Z</time></trkpt><trkpt lat="45.73461897133323" lon="10.452924005245961"><ele>385.5</ele><time>2026-04-20T08:23:58Z</time></trkpt><trkpt lat="45.73449281053944" lon="10.45306764787833"><ele>385.0</ele><time>2026-04-20T08:23:59Z</time></trkpt><trkpt lat="45.734374685229206" lon="10.453158096029115"><ele>384.5</ele><time>2026-04-20T08:24:00Z</time></trkpt><trkpt lat="45.734257354337835" lon="10.4531963688781"><ele>384.0</ele><time>2026-04-20T08:24:01Z</time></trkpt><trkpt lat="45.73416365786229" lon="10.453314038481048"><ele>384.0</ele><time>2026-04-20T08:24:02Z</time></trkpt><trkpt lat="45.734098234972315" lon="10.453464987590179"><ele>384.0</ele><time>2026-04-20T08:24:03Z</time></trkpt><trkpt lat="45.73404705880006" lon="10.453646920756434"><ele>384.0</ele><time>2026-04-20T08:24:04Z</time></trkpt><trkpt lat="45.733982903055086" lon="10.453864849006623"><ele>384.0</ele><time>2026-04-20T08:24:05Z</time></trkpt><trkpt lat="45.733872983753706" lon="10.454046655523339"><ele>382.5</ele><time>2026-04-20T08:24:06Z</time></trkpt><trkpt lat="45.73379352081131" lon="10.454212603202805"><ele>381.0</ele><time>2026-04-20T08:24:07Z</time></trkpt><trkpt lat="45.733714744418265" lon="10.454350655443726"><ele>379.5</ele><time>2026-04-20T08:24:08Z</time></trkpt><trkpt lat="45.73361627403069" lon="10.454461612572672"><ele>378.0</ele><time>2026-04-20T08:24:09Z</time></trkpt><trkpt lat="45.7335432324022" lon="10.454587495506615"><ele>376.25</ele><time>2026-04-20T08:24:10Z</time></trkpt><trkpt lat="45.73348657344693" lon="10.454731941224733"><ele>374.5</ele><time>2026-04-20T08:24:11Z</time></trkpt><trkpt lat="45.73346930827149" lon="10.45489744305468"><ele>372.75</ele><time>2026-04-20T08:24:12Z</time></trkpt><trkpt lat="45.733491327272525" lon="10.45507410100684"><ele>371.0</ele><time>2026-04-20T08:24:13Z</time></trkpt><trkpt lat="45.73353632143139" lon="10.455254906802447"><ele>374.0</ele><time>2026-04-20T08:24:14Z</time></trkpt><trkpt lat="45.733610164438225" lon="10.455482693023018"><ele>377.0</ele><time>2026-04-20T08:24:15Z</time></trkpt><trkpt lat="45.73369869931392" lon="10.455754187837465"><ele>380.0</ele><time>2026-04-20T08:24:16Z</time></trkpt><trkpt lat="45.73380614677262" lon="10.45602064360246"><ele>380.0</ele><time>2026-04-20T08:24:17Z</time></trkpt><trkpt lat="45.73389804766878" lon="10.456275409315891"><ele>380.0</ele><time>2026-04-20T08:24:18Z</time></trkpt><trkpt lat="45.733981639306435" lon="10.456519809770947"><ele>380.0</ele><time>2026-04-20T08:24:19Z</time></trkpt><trkpt lat="45.73405205462723" lon="10.456736494540603"><ele>380.6666666666667</ele><time>2026-04-20T08:24:20Z</time></trkpt><trkpt lat="45.73412058233778" lon="10.45694908102793"><ele>381.3333333333333</ele><time>2026-04-20T08:24:21Z</time></trkpt><trkpt lat="45.73418568800542" lon="10.457134547361811"><ele>382.0</ele><time>2026-04-20T08:24:22Z</time></trkpt><trkpt lat="45.73425345972559" lon="10.457314856942999"><ele>382.0</ele><time>2026-04-20T08:24:23Z</time></trkpt><trkpt lat="45.73431037948895" lon="10.457484482064354"><ele>382.0</ele><time>2026-04-20T08:24:24Z</time></trkpt><trkpt lat="45.73435108250202" lon="10.457612023633033"><ele>382.0</ele><time>2026-04-20T08:24:25Z</time></trkpt><trkpt lat="45.73439462357911" lon="10.457737153942668"><ele>382.0</ele><time>2026-04-20T08:24:26Z</time></trkpt><trkpt lat="45.73443744767009" lon="10.457841552425569"><ele>382.0</ele><time>2026-04-20T08:24:27Z</time></trkpt><trkpt lat="45.73448348639336" lon="10.457946976428838"><ele>381.16666666666663</ele><time>2026-04-20T08:24:28Z</time></trkpt><trkpt lat="45.73453120193039" lon="10.458047069454935"><ele>380.3333333333333</ele><time>2026-04-20T08:24:29Z</time></trkpt><trkpt lat="45.73456329545452" lon="10.458140372759361"><ele>379.5</ele><time>2026-04-20T08:24:30Z</time></trkpt><trkpt lat="45.73459876254639" lon="10.458238038840591"><ele>378.6666666666667</ele><time>2026-04-20T08:24:31Z</time></trkpt><trkpt lat="45.73463833374947" lon="10.458341138600188"><ele>377.83333333333337</ele><time>2026-04-20T08:24:32Z</time></trkpt><trkpt lat="45.7346800203092" lon="10.458455307152644"><ele>377.0</ele><time>2026-04-20T08:24:33Z</time></trkpt><trkpt lat="45.734743267846234" lon="10.458575757411008"><ele>377.0</ele><time>2026-04-20T08:24:34Z</time></trkpt><trkpt lat="45.73480838794434" lon="10.458700469138115"><ele>377.0</ele><time>2026-04-20T08:24:35Z</time></trkpt><trkpt lat="45.73488961718971" lon="10.458842619378395"><ele>377.0</ele><time>2026-04-20T08:24:36Z</time></trkpt><trkpt lat="45.73498431934926" lon="10.459013922883415"><ele>377.0</ele><time>2026-04-20T08:24:37Z</time></trkpt><trkpt lat="45.735091931886984" lon="10.45919859019579"><ele>376.6666666666667</ele><time>2026-04-20T08:24:38.001Z</time></trkpt><trkpt lat="45.73521263068986" lon="10.459382129341716"><ele>376.3333333333333</ele><time>2026-04-20T08:24:39.001Z</time></trkpt><trkpt lat="45.7353362464991" lon="10.45956981038276"><ele>376.0</ele><time>2026-04-20T08:24:40.001Z</time></trkpt><trkpt lat="45.73544980391796" lon="10.459757464122795"><ele>376.0</ele><time>2026-04-20T08:24:41.001Z</time></trkpt><trkpt lat="45.73555795583189" lon="10.459962385442102"><ele>376.0</ele><time>2026-04-20T08:24:42.001Z</time></trkpt><trkpt lat="45.735650082192265" lon="10.46017656141681"><ele>376.0</ele><time>2026-04-20T08:24:43.001Z</time></trkpt><trkpt lat="45.73568562681202" lon="10.460401079214838"><ele>375.5</ele><time>2026-04-20T08:24:44.001Z</time></trkpt><trkpt lat="45.7357463873867" lon="10.460575698157559"><ele>375.0</ele><time>2026-04-20T08:24:45.001Z</time></trkpt><trkpt lat="45.735805794313464" lon="10.460758134915169"><ele>374.5</ele><time>2026-04-20T08:24:46.001Z</time></trkpt><trkpt lat="45.73588661206821" lon="10.460922837458092"><ele>374.0</ele><time>2026-04-20T08:24:47.001Z</time></trkpt><trkpt lat="45.73596671074683" lon="10.46108181465446"><ele>374.5</ele><time>2026-04-20T08:24:48.001Z</time></trkpt><trkpt lat="45.73606261091364" lon="10.461237802434907"><ele>375.0</ele><time>2026-04-20T08:24:49.001Z</time></trkpt><trkpt lat="45.736162882043345" lon="10.461399501318086"><ele>375.5</ele><time>2026-04-20T08:24:50.001Z</time></trkpt><trkpt lat="45.73625501959269" lon="10.461547293155837"><ele>376.0</ele><time>2026-04-20T08:24:51.001Z</time></trkpt><trkpt lat="45.7363501342241" lon="10.461689946035914"><ele>376.0</ele><time>2026-04-20T08:24:52.001Z</time></trkpt><trkpt lat="45.73644608663215" lon="10.46179769316447"><ele>376.0</ele><time>2026-04-20T08:24:53.001Z</time></trkpt><trkpt lat="45.7365484358913" lon="10.46187525777218"><ele>376.0</ele><time>2026-04-20T08:24:54.001Z</time></trkpt><trkpt lat="45.73666927820946" lon="10.461923294789912"><ele>376.0</ele><time>2026-04-20T08:24:55.001Z</time></trkpt><trkpt lat="45.73680924551844" lon="10.46193798767699"><ele>377.66666666666663</ele><time>2026-04-20T08:24:56.001Z</time></trkpt><trkpt lat="45.73697421030112" lon="10.461920682988339"><ele>379.3333333333333</ele><time>2026-04-20T08:24:57.001Z</time></trkpt><trkpt lat="45.737141730224785" lon="10.461905642838603"><ele>381.0</ele><time>2026-04-20T08:24:58.001Z</time></trkpt><trkpt lat="45.73730082374053" lon="10.461903147373345"><ele>381.0</ele><time>2026-04-20T08:24:59.001Z</time></trkpt><trkpt lat="45.73745554626256" lon="10.46192827224416"><ele>381.0</ele><time>2026-04-20T08:25:00.001Z</time></trkpt><trkpt lat="45.73760388958159" lon="10.46199670567351"><ele>381.0</ele><time>2026-04-20T08:25:01.001Z</time></trkpt><trkpt lat="45.73775558919486" lon="10.462079375827487"><ele>380.3333333333333</ele><time>2026-04-20T08:25:02.001Z</time></trkpt><trkpt lat="45.737907515903466" lon="10.462164986922996"><ele>379.66666666666663</ele><time>2026-04-20T08:25:03.001Z</time></trkpt><trkpt lat="45.73807551918156" lon="10.462252163917526"><ele>379.0</ele><time>2026-04-20T08:25:04.001Z</time></trkpt><trkpt lat="45.73824372231235" lon="10.462364814561615"><ele>379.0</ele><time>2026-04-20T08:25:05.001Z</time></trkpt><trkpt lat="45.73840644387866" lon="10.462507862222342"><ele>379.0</ele><time>2026-04-20T08:25:06.001Z</time></trkpt><trkpt lat="45.73853982370535" lon="10.462677407389728"><ele>379.0</ele><time>2026-04-20T08:25:07.001Z</time></trkpt><trkpt lat="45.738686662990425" lon="10.46281442613195"><ele>380.66666666666663</ele><time>2026-04-20T08:25:08.001Z</time></trkpt><trkpt lat="45.73881153729716" lon="10.463018094572886"><ele>382.3333333333333</ele><time>2026-04-20T08:25:09.001Z</time></trkpt><trkpt lat="45.73894104830654" lon="10.463200441523394"><ele>384.0</ele><time>2026-04-20T08:25:10.001Z</time></trkpt><trkpt lat="45.73908656785031" lon="10.463409406135879"><ele>384.0</ele><time>2026-04-20T08:25:11.001Z</time></trkpt><trkpt lat="45.739181060730374" lon="10.46363961069905"><ele>384.0</ele><time>2026-04-20T08:25:12.001Z</time></trkpt><trkpt lat="45.739255874895015" lon="10.463872533118458"><ele>384.0</ele><time>2026-04-20T08:25:13.001Z</time></trkpt><trkpt lat="45.739315089792164" lon="10.464113030000833"><ele>385.33333333333337</ele><time>2026-04-20T08:25:14.001Z</time></trkpt><trkpt lat="45.73936240475859" lon="10.46433739638287"><ele>386.6666666666667</ele><time>2026-04-20T08:25:15.001Z</time></trkpt><trkpt lat="45.73942660516809" lon="10.46456206118855"><ele>388.0</ele><time>2026-04-20T08:25:16.001Z</time></trkpt><trkpt lat="45.73951973210709" lon="10.464772399421731"><ele>388.0</ele><time>2026-04-20T08:25:17.001Z</time></trkpt><trkpt lat="45.73964114910523" lon="10.464963348890112"><ele>388.0</ele><time>2026-04-20T08:25:18.001Z</time></trkpt><trkpt lat="45.73977564855318" lon="10.46512949811284"><ele>388.0</ele><time>2026-04-20T08:25:19.001Z</time></trkpt><trkpt lat="45.739895410274805" lon="10.46532319830526"><ele>383.6666666666667</ele><time>2026-04-20T08:25:20.001Z</time></trkpt><trkpt lat="45.740004388792144" lon="10.465555802244426"><ele>379.33333333333337</ele><time>2026-04-20T08:25:21.001Z</time></trkpt><trkpt lat="45.74010348422327" lon="10.465812251659317"><ele>375.0</ele><time>2026-04-20T08:25:22.001Z</time></trkpt><trkpt lat="45.74019477213713" lon="10.466060181844904"><ele>380.0</ele><time>2026-04-20T08:25:23.001Z</time></trkpt><trkpt lat="45.740296306864536" lon="10.466295575276256"><ele>385.0</ele><time>2026-04-20T08:25:24.001Z</time></trkpt><trkpt lat="45.74037914877166" lon="10.466557740049517"><ele>390.0</ele><time>2026-04-20T08:25:25.001Z</time></trkpt><trkpt lat="45.740450493372194" lon="10.466833550207511"><ele>388.33333333333337</ele><time>2026-04-20T08:25:26.001Z</time></trkpt><trkpt lat="45.74049107638957" lon="10.467112456895357"><ele>386.6666666666667</ele><time>2026-04-20T08:25:27.001Z</time></trkpt><trkpt lat="45.74052948278789" lon="10.467389801789748"><ele>385.0</ele><time>2026-04-20T08:25:28.001Z</time></trkpt><trkpt lat="45.74057144109862" lon="10.467650435662062"><ele>385.0</ele><time>2026-04-20T08:25:29.001Z</time></trkpt><trkpt lat="45.74058440751181" lon="10.467880423978697"><ele>385.0</ele><time>2026-04-20T08:25:30.001Z</time></trkpt><trkpt lat="45.74063175992039" lon="10.468140121860433"><ele>385.0</ele><time>2026-04-20T08:25:31.001Z</time></trkpt><trkpt lat="45.740686402147595" lon="10.468392627959982"><ele>383.6666666666667</ele><time>2026-04-20T08:25:32.001Z</time></trkpt><trkpt lat="45.74076919674674" lon="10.468624317225274"><ele>382.33333333333337</ele><time>2026-04-20T08:25:33.001Z</time></trkpt><trkpt lat="45.740870551987896" lon="10.468845270374347"><ele>381.0</ele><time>2026-04-20T08:25:34.001Z</time></trkpt><trkpt lat="45.74101127240894" lon="10.469039634094642"><ele>382.66666666666663</ele><time>2026-04-20T08:25:35.001Z</time></trkpt><trkpt lat="45.741172461416205" lon="10.469210507656447"><ele>384.3333333333333</ele><time>2026-04-20T08:25:36.001Z</time></trkpt><trkpt lat="45.74135028801987" lon="10.469343095856388"><ele>386.0</ele><time>2026-04-20T08:25:37.001Z</time></trkpt><trkpt lat="45.7415253119357" lon="10.469466613186068"><ele>386.0</ele><time>2026-04-20T08:25:38.001Z</time></trkpt><trkpt lat="45.741700065291184" lon="10.46956829913917"><ele>386.0</ele><time>2026-04-20T08:25:39.001Z</time></trkpt><trkpt lat="45.741899029589554" lon="10.469657969624638"><ele>386.0</ele><time>2026-04-20T08:25:40.001Z</time></trkpt><trkpt lat="45.74209504484101" lon="10.469791935457067"><ele>387.66666666666663</ele><time>2026-04-20T08:25:41.001Z</time></trkpt><trkpt lat="45.742247344649556" lon="10.469980280931"><ele>389.33333333333337</ele><time>2026-04-20T08:25:42.001Z</time></trkpt><trkpt lat="45.74239728912856" lon="10.470178135370345"><ele>391.0</ele><time>2026-04-20T08:25:43.001Z</time></trkpt><trkpt lat="45.74250466516905" lon="10.470349308235601"><ele>388.4</ele><time>2026-04-20T08:25:44.001Z</time></trkpt><trkpt lat="45.74257755840362" lon="10.470476811287194"><ele>385.8</ele><time>2026-04-20T08:25:45.001Z</time></trkpt><trkpt lat="45.742637957959694" lon="10.470559774461645"><ele>383.2</ele><time>2026-04-20T08:25:46.001Z</time></trkpt><trkpt lat="45.74266843003985" lon="10.470720371578217"><ele>380.59999999999997</ele><time>2026-04-20T08:25:48.001Z</time></trkpt><trkpt lat="45.74272614909045" lon="10.47080887472892"><ele>378.0</ele><time>2026-04-20T08:25:51.001Z</time></trkpt><trkpt lat="45.74279579449168" lon="10.470916620697018"><ele>378.1666666666667</ele><time>2026-04-20T08:25:57.001Z</time></trkpt><trkpt lat="45.74284563754994" lon="10.470983733528293"><ele>378.3333333333333</ele><time>2026-04-20T08:25:58.001Z</time></trkpt><trkpt lat="45.74289117676829" lon="10.471060399175215"><ele>378.5</ele><time>2026-04-20T08:25:59.001Z</time></trkpt><trkpt lat="45.74293460050543" lon="10.47114313307898"><ele>378.66666666666663</ele><time>2026-04-20T08:26:00.001Z</time></trkpt><trkpt lat="45.74301455580827" lon="10.471210350127155"><ele>378.8333333333333</ele><time>2026-04-20T08:26:01.001Z</time></trkpt><trkpt lat="45.7430968455751" lon="10.471282491126292"><ele>379.0</ele><time>2026-04-20T08:26:02.001Z</time></trkpt><trkpt lat="45.74318293347517" lon="10.471376914203715"><ele>379.0</ele><time>2026-04-20T08:26:03.001Z</time></trkpt><trkpt lat="45.74326903368479" lon="10.471474988705952"><ele>379.0</ele><time>2026-04-20T08:26:04.001Z</time></trkpt><trkpt lat="45.74335931605742" lon="10.471575161418926"><ele>379.0</ele><time>2026-04-20T08:26:05.001Z</time></trkpt><trkpt lat="45.743464948987985" lon="10.47167351093461"><ele>379.0</ele><time>2026-04-20T08:26:06.001Z</time></trkpt><trkpt lat="45.74355297966979" lon="10.471762750184903"><ele>379.2</ele><time>2026-04-20T08:26:07.001Z</time></trkpt><trkpt lat="45.743659135664295" lon="10.471851784085569"><ele>379.4</ele><time>2026-04-20T08:26:08.001Z</time></trkpt><trkpt lat="45.743741606410396" lon="10.471946944317779"><ele>379.6</ele><time>2026-04-20T08:26:09.001Z</time></trkpt><trkpt lat="45.743821505625725" lon="10.472029062730217"><ele>379.8</ele><time>2026-04-20T08:26:10.001Z</time></trkpt><trkpt lat="45.743922221933225" lon="10.472117630521108"><ele>380.0</ele><time>2026-04-20T08:26:11.001Z</time></trkpt><trkpt lat="45.744027475827316" lon="10.472202141636844"><ele>380.0</ele><time>2026-04-20T08:26:12.001Z</time></trkpt><trkpt lat="45.744094720908066" lon="10.472325201014089"><ele>380.0</ele><time>2026-04-20T08:26:13.001Z</time></trkpt><trkpt lat="45.744164118043386" lon="10.472409426780068"><ele>380.0</ele><time>2026-04-20T08:26:14.001Z</time></trkpt><trkpt lat="45.74423334209044" lon="10.472477743422715"><ele>380.0</ele><time>2026-04-20T08:26:15.001Z</time></trkpt><trkpt lat="45.744312595558924" lon="10.47254787974797"><ele>380.0</ele><time>2026-04-20T08:26:16.001Z</time></trkpt><trkpt lat="45.74440283741863" lon="10.472620939937068"><ele>379.6</ele><time>2026-04-20T08:26:17.001Z</time></trkpt><trkpt lat="45.74450453241023" lon="10.472692562502159"><ele>379.2</ele><time>2026-04-20T08:26:18.001Z</time></trkpt><trkpt lat="45.744617423066146" lon="10.472768822518601"><ele>378.79999999999995</ele><time>2026-04-20T08:26:19.001Z</time></trkpt><trkpt lat="45.74471413887315" lon="10.472837362341261"><ele>378.4</ele><time>2026-04-20T08:26:20.001Z</time></trkpt><trkpt lat="45.744803226328614" lon="10.472910708349524"><ele>378.0</ele><time>2026-04-20T08:26:21.001Z</time></trkpt><trkpt lat="45.7448901684362" lon="10.472977700321614"><ele>378.0</ele><time>2026-04-20T08:26:22.001Z</time></trkpt><trkpt lat="45.74500079246193" lon="10.473045678059615"><ele>378.0</ele><time>2026-04-20T08:26:23.001Z</time></trkpt><trkpt lat="45.745116761001654" lon="10.473134926804574"><ele>378.0</ele><time>2026-04-20T08:26:24.001Z</time></trkpt><trkpt lat="45.745256395104875" lon="10.473214227655273"><ele>378.0</ele><time>2026-04-20T08:26:25.001Z</time></trkpt><trkpt lat="45.745396371112136" lon="10.473287678175526"><ele>383.33333333333337</ele><time>2026-04-20T08:26:26.001Z</time></trkpt><trkpt lat="45.745538954691426" lon="10.47336076828371"><ele>388.6666666666667</ele><time>2026-04-20T08:26:27.001Z</time></trkpt><trkpt lat="45.74566360598315" lon="10.473480725845146"><ele>394.0</ele><time>2026-04-20T08:26:28.001Z</time></trkpt><trkpt lat="45.74575770158097" lon="10.473646115027451"><ele>397.25</ele><time>2026-04-20T08:26:29.001Z</time></trkpt><trkpt lat="45.74586063115309" lon="10.473787205385271"><ele>400.5</ele><time>2026-04-20T08:26:30.001Z</time></trkpt><trkpt lat="45.74594003879163" lon="10.47395796107351"><ele>403.75</ele><time>2026-04-20T08:26:31.001Z</time></trkpt><trkpt lat="45.74602084976447" lon="10.474123277837387"><ele>407.0</ele><time>2026-04-20T08:26:32.001Z</time></trkpt><trkpt lat="45.74605716124818" lon="10.47430202956508"><ele>407.0</ele><time>2026-04-20T08:26:33.001Z</time></trkpt><trkpt lat="45.74612996132062" lon="10.474451868242"><ele>407.0</ele><time>2026-04-20T08:26:34.001Z</time></trkpt><trkpt lat="45.746200763384095" lon="10.474610278768937"><ele>407.0</ele><time>2026-04-20T08:26:35.001Z</time></trkpt><trkpt lat="45.74628413271143" lon="10.474755700699216"><ele>407.0</ele><time>2026-04-20T08:26:36.001Z</time></trkpt><trkpt lat="45.746364290730554" lon="10.474893962905957"><ele>401.3333333333333</ele><time>2026-04-20T08:26:37.001Z</time></trkpt><trkpt lat="45.746481603815376" lon="10.475043962103273"><ele>395.66666666666663</ele><time>2026-04-20T08:26:38.001Z</time></trkpt><trkpt lat="45.74659355658081" lon="10.475179819088627"><ele>390.0</ele><time>2026-04-20T08:26:39.001Z</time></trkpt><trkpt lat="45.746712554605935" lon="10.475315543325333"><ele>391.25</ele><time>2026-04-20T08:26:40.001Z</time></trkpt><trkpt lat="45.746829732129285" lon="10.47545201247013"><ele>392.5</ele><time>2026-04-20T08:26:41.001Z</time></trkpt><trkpt lat="45.7469281041985" lon="10.475557151867589"><ele>393.75</ele><time>2026-04-20T08:26:42.001Z</time></trkpt><trkpt lat="45.747039897663655" lon="10.475674597406707"><ele>395.0</ele><time>2026-04-20T08:26:43.001Z</time></trkpt><trkpt lat="45.74715655525386" lon="10.475797242562225"><ele>395.0</ele><time>2026-04-20T08:26:44Z</time></trkpt><trkpt lat="45.74728089837892" lon="10.475924637574582"><ele>395.0</ele><time>2026-04-20T08:26:45Z</time></trkpt><trkpt lat="45.74740095050587" lon="10.47605133093736"><ele>395.0</ele><time>2026-04-20T08:26:46Z</time></trkpt><trkpt lat="45.74752198260489" lon="10.476177807985215"><ele>394.66666666666663</ele><time>2026-04-20T08:26:47.001Z</time></trkpt><trkpt lat="45.74765017040379" lon="10.476309229154063"><ele>394.33333333333337</ele><time>2026-04-20T08:26:48.001Z</time></trkpt><trkpt lat="45.74777792275591" lon="10.476439028391301"><ele>394.0</ele><time>2026-04-20T08:26:49.001Z</time></trkpt><trkpt lat="45.74789334673395" lon="10.476570511338307"><ele>394.0</ele><time>2026-04-20T08:26:50.001Z</time></trkpt><trkpt lat="45.74800221465559" lon="10.476702826450982"><ele>394.0</ele><time>2026-04-20T08:26:51.001Z</time></trkpt><trkpt lat="45.74811420661193" lon="10.476826621146776"><ele>394.0</ele><time>2026-04-20T08:26:52.001Z</time></trkpt><trkpt lat="45.74823152374521" lon="10.476948234859929"><ele>394.0</ele><time>2026-04-20T08:26:53.001Z</time></trkpt><trkpt lat="45.74834078123324" lon="10.477065869099313"><ele>394.0</ele><time>2026-04-20T08:26:54.001Z</time></trkpt><trkpt lat="45.74846916429453" lon="10.477189487592188"><ele>394.0</ele><time>2026-04-20T08:26:55.001Z</time></trkpt><trkpt lat="45.74858396645559" lon="10.477317990111821"><ele>394.0</ele><time>2026-04-20T08:26:56.001Z</time></trkpt><trkpt lat="45.74869472373946" lon="10.477425510459081"><ele>394.0</ele><time>2026-04-20T08:26:57Z</time></trkpt><trkpt lat="45.74878220558015" lon="10.477526524398952"><ele>394.0</ele><time>2026-04-20T08:26:58Z</time></trkpt><trkpt lat="45.748887001227054" lon="10.477619109670089"><ele>394.0</ele><time>2026-04-20T08:26:59Z</time></trkpt><trkpt lat="45.74897778923485" lon="10.47771685969453"><ele>394.0</ele><time>2026-04-20T08:27:00Z</time></trkpt><trkpt lat="45.74906486993009" lon="10.477819998039552"><ele>394.0</ele><time>2026-04-20T08:27:01Z</time></trkpt><trkpt lat="45.74914968127128" lon="10.477917454182021"><ele>394.5</ele><time>2026-04-20T08:27:02Z</time></trkpt><trkpt lat="45.749231712063875" lon="10.478005812692672"><ele>395.0</ele><time>2026-04-20T08:27:03Z</time></trkpt><trkpt lat="45.74932403868319" lon="10.478112593723747"><ele>395.5</ele><time>2026-04-20T08:27:04Z</time></trkpt><trkpt lat="45.74943866331912" lon="10.478220931659502"><ele>396.0</ele><time>2026-04-20T08:27:05Z</time></trkpt><trkpt lat="45.74956732416481" lon="10.478354224198531"><ele>396.0</ele><time>2026-04-20T08:27:06Z</time></trkpt><trkpt lat="45.7497111201991" lon="10.478483338763562"><ele>396.0</ele><time>2026-04-20T08:27:07Z</time></trkpt><trkpt lat="45.749832326986756" lon="10.478595341232749"><ele>396.0</ele><time>2026-04-20T08:27:08Z</time></trkpt><trkpt lat="45.74998166514945" lon="10.478707888826836"><ele>395.33333333333337</ele><time>2026-04-20T08:27:09Z</time></trkpt><trkpt lat="45.75012378429209" lon="10.478812524797036"><ele>394.6666666666667</ele><time>2026-04-20T08:27:10Z</time></trkpt><trkpt lat="45.750271051269586" lon="10.478917961330094"><ele>394.0</ele><time>2026-04-20T08:27:11Z</time></trkpt><trkpt lat="45.75043210795327" lon="10.47901915734284"><ele>394.0</ele><time>2026-04-20T08:27:12Z</time></trkpt><trkpt lat="45.75060622289618" lon="10.479111722172368"><ele>394.0</ele><time>2026-04-20T08:27:13Z</time></trkpt><trkpt lat="45.75077414756238" lon="10.479218465595736"><ele>394.0</ele><time>2026-04-20T08:27:14Z</time></trkpt><trkpt lat="45.750948005001824" lon="10.479319912130778"><ele>396.0</ele><time>2026-04-20T08:27:15Z</time></trkpt><trkpt lat="45.751119243646464" lon="10.47941933430666"><ele>398.0</ele><time>2026-04-20T08:27:16Z</time></trkpt><trkpt lat="45.75128162554644" lon="10.479499339893056"><ele>400.0</ele><time>2026-04-20T08:27:17Z</time></trkpt><trkpt lat="45.7514502466225" lon="10.479572931231695"><ele>397.33333333333337</ele><time>2026-04-20T08:27:18Z</time></trkpt><trkpt lat="45.75162079894974" lon="10.479638958813247"><ele>394.66666666666663</ele><time>2026-04-20T08:27:19Z</time></trkpt><trkpt lat="45.75179640120477" lon="10.479724046503037"><ele>392.0</ele><time>2026-04-20T08:27:20Z</time></trkpt><trkpt lat="45.75196322073262" lon="10.479805713479626"><ele>392.0</ele><time>2026-04-20T08:27:21Z</time></trkpt><trkpt lat="45.752145936538554" lon="10.479912369148398"><ele>392.0</ele><time>2026-04-20T08:27:22Z</time></trkpt><trkpt lat="45.752333810789096" lon="10.47998708955693"><ele>392.0</ele><time>2026-04-20T08:27:23Z</time></trkpt><trkpt lat="45.75250169553747" lon="10.480084327617378"><ele>392.0</ele><time>2026-04-20T08:27:24Z</time></trkpt><trkpt lat="45.75267414581233" lon="10.480186486112233"><ele>392.0</ele><time>2026-04-20T08:27:25Z</time></trkpt><trkpt lat="45.752856566016234" lon="10.480265464061747"><ele>392.0</ele><time>2026-04-20T08:27:26Z</time></trkpt><trkpt lat="45.75302428256393" lon="10.48036794422657"><ele>391.0</ele><time>2026-04-20T08:27:27Z</time></trkpt><trkpt lat="45.753178696946016" lon="10.48046885599869"><ele>390.0</ele><time>2026-04-20T08:27:28Z</time></trkpt><trkpt lat="45.75333893389911" lon="10.48057302527149"><ele>389.0</ele><time>2026-04-20T08:27:29Z</time></trkpt><trkpt lat="45.75349352210076" lon="10.480679232362368"><ele>394.0</ele><time>2026-04-20T08:27:30Z</time></trkpt><trkpt lat="45.75365896490521" lon="10.480765948981842"><ele>399.0</ele><time>2026-04-20T08:27:31Z</time></trkpt><trkpt lat="45.753800635291704" lon="10.480851328732212"><ele>404.0</ele><time>2026-04-20T08:27:32Z</time></trkpt><trkpt lat="45.7539367524701" lon="10.480943078079166"><ele>404.0</ele><time>2026-04-20T08:27:33Z</time></trkpt><trkpt lat="45.75407887994309" lon="10.481016650270222"><ele>404.0</ele><time>2026-04-20T08:27:34Z</time></trkpt><trkpt lat="45.75422619143406" lon="10.481094016837885"><ele>404.0</ele><time>2026-04-20T08:27:35Z</time></trkpt><trkpt lat="45.754382342409016" lon="10.481195845839446"><ele>404.0</ele><time>2026-04-20T08:27:36Z</time></trkpt><trkpt lat="45.75451603319202" lon="10.481263603782331"><ele>404.0</ele><time>2026-04-20T08:27:37Z</time></trkpt><trkpt lat="45.75464758934074" lon="10.48133710253954"><ele>404.0</ele><time>2026-04-20T08:27:38Z</time></trkpt><trkpt lat="45.75478801892937" lon="10.48141091787475"><ele>404.0</ele><time>2026-04-20T08:27:39Z</time></trkpt><trkpt lat="45.754902091643274" lon="10.481553283507075"><ele>404.0</ele><time>2026-04-20T08:27:40Z</time></trkpt><trkpt lat="45.75500653010997" lon="10.48171957667882"><ele>404.0</ele><time>2026-04-20T08:27:41Z</time></trkpt><trkpt lat="45.75509423471799" lon="10.481911959867897"><ele>404.0</ele><time>2026-04-20T08:27:42Z</time></trkpt><trkpt lat="45.75517558795554" lon="10.482082677013636"><ele>410.3333333333333</ele><time>2026-04-20T08:27:43Z</time></trkpt><trkpt lat="45.755261802705" lon="10.48226359607197"><ele>416.66666666666663</ele><time>2026-04-20T08:27:44Z</time></trkpt><trkpt lat="45.75535023398387" lon="10.482449086161877"><ele>423.0</ele><time>2026-04-20T08:27:45Z</time></trkpt><trkpt lat="45.755442756322964" lon="10.482642578298279"><ele>423.0</ele><time>2026-04-20T08:27:46Z</time></trkpt><trkpt lat="45.7555288633407" lon="10.48282265467965"><ele>423.0</ele><time>2026-04-20T08:27:47Z</time></trkpt><trkpt lat="45.7556177297959" lon="10.483001096969412"><ele>423.0</ele><time>2026-04-20T08:27:48Z</time></trkpt><trkpt lat="45.75571951487496" lon="10.483193584504706"><ele>432.0</ele><time>2026-04-20T08:27:49.143Z</time></trkpt><trkpt lat="45.75609669733638" lon="10.483761657099752"><ele>424.75</ele><time>2026-04-20T08:27:52.845Z</time></trkpt><trkpt lat="45.75621762924704" lon="10.483882421533798"><ele>417.5</ele><time>2026-04-20T08:27:53.845Z</time></trkpt><trkpt lat="45.75634995003265" lon="10.483978325319454"><ele>410.25</ele><time>2026-04-20T08:27:54.845Z</time></trkpt><trkpt lat="45.75647539145031" lon="10.484088394662564"><ele>403.0</ele><time>2026-04-20T08:27:55.845Z</time></trkpt><trkpt lat="45.75659493352398" lon="10.48421380308885"><ele>403.0</ele><time>2026-04-20T08:27:56.845Z</time></trkpt><trkpt lat="45.75672434663525" lon="10.48431482278926"><ele>403.0</ele><time>2026-04-20T08:27:57.845Z</time></trkpt><trkpt lat="45.75686270684229" lon="10.484391099143222"><ele>403.0</ele><time>2026-04-20T08:27:58.845Z</time></trkpt><trkpt lat="45.756986812635866" lon="10.484507203313965"><ele>403.0</ele><time>2026-04-20T08:27:59.845Z</time></trkpt><trkpt lat="45.76250852147227" lon="10.49069474925773"><ele>402.0</ele><time>2026-04-20T08:28:47Z</time></trkpt><trkpt lat="45.76267103010947" lon="10.49081032503827"><ele>401.0</ele><time>2026-04-20T08:28:48Z</time></trkpt><trkpt lat="45.76282650977211" lon="10.490915780215001"><ele>400.0</ele><time>2026-04-20T08:28:49Z</time></trkpt><trkpt lat="45.76299049764138" lon="10.49101703213482"><ele>400.0</ele><time>2026-04-20T08:28:50Z</time></trkpt><trkpt lat="45.76312980280226" lon="10.491075600235277"><ele>400.0</ele><time>2026-04-20T08:28:51Z</time></trkpt><trkpt lat="45.763249934963504" lon="10.491146145750614"><ele>400.0</ele><time>2026-04-20T08:28:52Z</time></trkpt><trkpt lat="45.7633674415499" lon="10.491179682574845"><ele>400.0</ele><time>2026-04-20T08:28:53Z</time></trkpt><trkpt lat="45.76350183649747" lon="10.491247536460369"><ele>394.6666666666667</ele><time>2026-04-20T08:28:54Z</time></trkpt><trkpt lat="45.76364082654182" lon="10.491318659024698"><ele>389.33333333333337</ele><time>2026-04-20T08:28:55.001Z</time></trkpt><trkpt lat="45.76379242448735" lon="10.491380310668424"><ele>384.0</ele><time>2026-04-20T08:28:56.001Z</time></trkpt><trkpt lat="45.76394775109306" lon="10.491424934193384"><ele>384.0</ele><time>2026-04-20T08:28:57.001Z</time></trkpt><trkpt lat="45.764105768028465" lon="10.491467603409829"><ele>384.0</ele><time>2026-04-20T08:28:58.001Z</time></trkpt><trkpt lat="45.764221697579586" lon="10.491491023593197"><ele>384.0</ele><time>2026-04-20T08:28:59.001Z</time></trkpt><trkpt lat="45.76432940840289" lon="10.49151645111328"><ele>384.0</ele><time>2026-04-20T08:29:00.001Z</time></trkpt><trkpt lat="45.76448288953407" lon="10.491642813731747"><ele>386.0</ele><time>2026-04-20T08:29:03.001Z</time></trkpt><trkpt lat="45.76452722372982" lon="10.491715000736958"><ele>388.0</ele><time>2026-04-20T08:29:04.001Z</time></trkpt><trkpt lat="45.76459613477478" lon="10.49175663705212"><ele>390.0</ele><time>2026-04-20T08:29:05.001Z</time></trkpt><trkpt lat="45.76466263955251" lon="10.491764271656915"><ele>392.0</ele><time>2026-04-20T08:29:06.001Z</time></trkpt><trkpt lat="45.76478818162606" lon="10.491695815749274"><ele>394.0</ele><time>2026-04-20T08:29:07.001Z</time></trkpt><trkpt lat="45.764890703836485" lon="10.491633796887966"><ele>394.0</ele><time>2026-04-20T08:29:08.001Z</time></trkpt><trkpt lat="45.76500371275364" lon="10.491660897908725"><ele>394.0</ele><time>2026-04-20T08:29:09.001Z</time></trkpt><trkpt lat="45.765019750105694" lon="10.491839626782733"><ele>394.0</ele><time>2026-04-20T08:29:10.001Z</time></trkpt><trkpt lat="45.765143690068065" lon="10.491867853420324"><ele>394.0</ele><time>2026-04-20T08:29:11.001Z</time></trkpt><trkpt lat="45.765304443244986" lon="10.491901854533827"><ele>396.0</ele><time>2026-04-20T08:29:12.001Z</time></trkpt><trkpt lat="45.76543230439343" lon="10.491927332597378"><ele>398.0</ele><time>2026-04-20T08:29:13.001Z</time></trkpt><trkpt lat="45.76556097207779" lon="10.491957803359067"><ele>400.0</ele><time>2026-04-20T08:29:14.001Z</time></trkpt><trkpt lat="45.76569308838766" lon="10.491926455870521"><ele>402.0</ele><time>2026-04-20T08:29:15.001Z</time></trkpt><trkpt lat="45.76581192348969" lon="10.491928068593019"><ele>402.0</ele><time>2026-04-20T08:29:16.001Z</time></trkpt><trkpt lat="45.76595069053479" lon="10.491923730228924"><ele>402.0</ele><time>2026-04-20T08:29:17.001Z</time></trkpt><trkpt lat="45.766079106683335" lon="10.491952559174525"><ele>402.0</ele><time>2026-04-20T08:29:18.001Z</time></trkpt><trkpt lat="45.76620779037264" lon="10.491969911782316"><ele>402.0</ele><time>2026-04-20T08:29:19.001Z</time></trkpt><trkpt lat="45.76631375213859" lon="10.492050123274122"><ele>401.25</ele><time>2026-04-20T08:29:20.001Z</time></trkpt><trkpt lat="45.76641604990755" lon="10.492118717780285"><ele>400.5</ele><time>2026-04-20T08:29:21.001Z</time></trkpt><trkpt lat="45.76650757218132" lon="10.492178957892078"><ele>399.75</ele><time>2026-04-20T08:29:22.001Z</time></trkpt><trkpt lat="45.76661578443321" lon="10.4922507492827"><ele>399.0</ele><time>2026-04-20T08:29:23.001Z</time></trkpt><trkpt lat="45.76672582795385" lon="10.492336811309666"><ele>399.0</ele><time>2026-04-20T08:29:24.001Z</time></trkpt><trkpt lat="45.76681242258192" lon="10.49240765258679"><ele>399.0</ele><time>2026-04-20T08:29:25.001Z</time></trkpt><trkpt lat="45.76690121496634" lon="10.49247837288056"><ele>399.0</ele><time>2026-04-20T08:29:26.001Z</time></trkpt><trkpt lat="45.766990782680594" lon="10.492528011087607"><ele>399.0</ele><time>2026-04-20T08:29:27.001Z</time></trkpt><trkpt lat="45.76711116741932" lon="10.49255919430283"><ele>399.0</ele><time>2026-04-20T08:29:28.001Z</time></trkpt><trkpt lat="45.767215397766776" lon="10.49246758595851"><ele>400.2</ele><time>2026-04-20T08:29:29.001Z</time></trkpt><trkpt lat="45.767294333376725" lon="10.492518348356782"><ele>401.4</ele><time>2026-04-20T08:29:30.001Z</time></trkpt><trkpt lat="45.76738761264378" lon="10.49253326007806"><ele>402.6</ele><time>2026-04-20T08:29:31.001Z</time></trkpt><trkpt lat="45.76745734837501" lon="10.492592553628652"><ele>403.8</ele><time>2026-04-20T08:29:32.001Z</time></trkpt><trkpt lat="45.76751605945118" lon="10.492723197948449"><ele>405.0</ele><time>2026-04-20T08:29:33.001Z</time></trkpt><trkpt lat="45.76759559280825" lon="10.49280787132486"><ele>402.5</ele><time>2026-04-20T08:29:34Z</time></trkpt><trkpt lat="45.767693289037084" lon="10.49294100440936"><ele>400.0</ele><time>2026-04-20T08:29:35Z</time></trkpt><trkpt lat="45.76777421617191" lon="10.493067625448095"><ele>397.5</ele><time>2026-04-20T08:29:36Z</time></trkpt><trkpt lat="45.767848256276466" lon="10.493191640601431"><ele>395.0</ele><time>2026-04-20T08:29:37Z</time></trkpt><trkpt lat="45.76791558261679" lon="10.493305057155595"><ele>397.0</ele><time>2026-04-20T08:29:38Z</time></trkpt><trkpt lat="45.76801026438837" lon="10.493426594101468"><ele>399.0</ele><time>2026-04-20T08:29:39Z</time></trkpt><trkpt lat="45.76807048916621" lon="10.493592983222698"><ele>401.0</ele><time>2026-04-20T08:29:40Z</time></trkpt><trkpt lat="45.768166260825076" lon="10.493746476942505"><ele>403.0</ele><time>2026-04-20T08:29:41Z</time></trkpt><trkpt lat="45.768274268203015" lon="10.493887395390235"><ele>403.0</ele><time>2026-04-20T08:29:42Z</time></trkpt><trkpt lat="45.76836084302635" lon="10.4940224151246"><ele>403.0</ele><time>2026-04-20T08:29:43Z</time></trkpt><trkpt lat="45.76846860796503" lon="10.494162887590381"><ele>403.0</ele><time>2026-04-20T08:29:44Z</time></trkpt><trkpt lat="45.768553828864206" lon="10.494314832461033"><ele>403.0</ele><time>2026-04-20T08:29:45Z</time></trkpt><trkpt lat="45.76862264632689" lon="10.494476788468182"><ele>409.5</ele><time>2026-04-20T08:29:46Z</time></trkpt><trkpt lat="45.76865940151179" lon="10.494638136723436"><ele>416.0</ele><time>2026-04-20T08:29:47Z</time></trkpt><trkpt lat="45.76870682271891" lon="10.494812069414202"><ele>422.5</ele><time>2026-04-20T08:29:48Z</time></trkpt><trkpt lat="45.76874545056891" lon="10.494978570024399"><ele>429.0</ele><time>2026-04-20T08:29:49Z</time></trkpt><trkpt lat="45.76878138216743" lon="10.495134101206467"><ele>429.0</ele><time>2026-04-20T08:29:50Z</time></trkpt><trkpt lat="45.76879977125999" lon="10.495272094670648"><ele>429.0</ele><time>2026-04-20T08:29:51Z</time></trkpt><trkpt lat="45.76880572475959" lon="10.495426309566083"><ele>429.0</ele><time>2026-04-20T08:29:52Z</time></trkpt><trkpt lat="45.76879410702356" lon="10.495594182193411"><ele>429.0</ele><time>2026-04-20T08:29:53Z</time></trkpt><trkpt lat="45.7688226988526" lon="10.495768211865908"><ele>429.0</ele><time>2026-04-20T08:29:54Z</time></trkpt><trkpt lat="45.76884277654294" lon="10.495950086506971"><ele>425.75</ele><time>2026-04-20T08:29:55Z</time></trkpt><trkpt lat="45.768891445989446" lon="10.496124685188434"><ele>422.5</ele><time>2026-04-20T08:29:56Z</time></trkpt><trkpt lat="45.76896491005046" lon="10.496307062944352"><ele>419.25</ele><time>2026-04-20T08:29:57Z</time></trkpt><trkpt lat="45.769044580612764" lon="10.496502710977147"><ele>416.0</ele><time>2026-04-20T08:29:58Z</time></trkpt><trkpt lat="45.76912588576696" lon="10.49667151418323"><ele>415.0</ele><time>2026-04-20T08:29:59Z</time></trkpt><trkpt lat="45.76922680103429" lon="10.496807388937622"><ele>414.0</ele><time>2026-04-20T08:30:00Z</time></trkpt><trkpt lat="45.769360260082266" lon="10.496920067625165"><ele>413.0</ele><time>2026-04-20T08:30:01Z</time></trkpt><trkpt lat="45.76949506045176" lon="10.497016362669386"><ele>412.0</ele><time>2026-04-20T08:30:02Z</time></trkpt><trkpt lat="45.76962022640576" lon="10.49711944777848"><ele>412.0</ele><time>2026-04-20T08:30:03Z</time></trkpt><trkpt lat="45.76971716694773" lon="10.497260525090772"><ele>412.0</ele><time>2026-04-20T08:30:04Z</time></trkpt><trkpt lat="45.76980622770093" lon="10.497434716441782"><ele>412.0</ele><time>2026-04-20T08:30:05Z</time></trkpt><trkpt lat="45.769886414315145" lon="10.497594397685212"><ele>412.0</ele><time>2026-04-20T08:30:06Z</time></trkpt><trkpt lat="45.7699712751887" lon="10.497743346484079"><ele>412.0</ele><time>2026-04-20T08:30:07Z</time></trkpt><trkpt lat="45.770058851838726" lon="10.497906000598345"><ele>412.0</ele><time>2026-04-20T08:30:08Z</time></trkpt><trkpt lat="45.7701702913043" lon="10.498061742323495"><ele>412.0</ele><time>2026-04-20T08:30:09Z</time></trkpt><trkpt lat="45.77028757954413" lon="10.498212429518349"><ele>416.6666666666667</ele><time>2026-04-20T08:30:10Z</time></trkpt><trkpt lat="45.77042224201195" lon="10.498362078254624"><ele>421.33333333333337</ele><time>2026-04-20T08:30:11Z</time></trkpt><trkpt lat="45.77055312078525" lon="10.49850231472945"><ele>426.0</ele><time>2026-04-20T08:30:12Z</time></trkpt><trkpt lat="45.77067591600187" lon="10.498629533030941"><ele>425.25</ele><time>2026-04-20T08:30:13Z</time></trkpt><trkpt lat="45.77076363610405" lon="10.498753275970158"><ele>424.5</ele><time>2026-04-20T08:30:14Z</time></trkpt><trkpt lat="45.770902927183045" lon="10.498861421499088"><ele>423.75</ele><time>2026-04-20T08:30:15Z</time></trkpt><trkpt lat="45.771023662390895" lon="10.498993461592132"><ele>423.0</ele><time>2026-04-20T08:30:16Z</time></trkpt><trkpt lat="45.77114603094097" lon="10.499137072281089"><ele>423.0</ele><time>2026-04-20T08:30:17Z</time></trkpt><trkpt lat="45.77127004301852" lon="10.499273057498796"><ele>423.0</ele><time>2026-04-20T08:30:18Z</time></trkpt><trkpt lat="45.77141761151443" lon="10.49943236762446"><ele>423.0</ele><time>2026-04-20T08:30:19Z</time></trkpt><trkpt lat="45.771558524542804" lon="10.499595950032596"><ele>422.33333333333337</ele><time>2026-04-20T08:30:20Z</time></trkpt><trkpt lat="45.77168374666996" lon="10.499786350998761"><ele>421.6666666666667</ele><time>2026-04-20T08:30:21Z</time></trkpt><trkpt lat="45.771803369040875" lon="10.49995010482322"><ele>421.0</ele><time>2026-04-20T08:30:22Z</time></trkpt><trkpt lat="45.77191878686221" lon="10.50011019950249"><ele>421.0</ele><time>2026-04-20T08:30:23Z</time></trkpt><trkpt lat="45.77203258696956" lon="10.500255858025143"><ele>421.0</ele><time>2026-04-20T08:30:24Z</time></trkpt><trkpt lat="45.77216428377832" lon="10.500433581337171"><ele>421.0</ele><time>2026-04-20T08:30:25Z</time></trkpt><trkpt lat="45.77230012542371" lon="10.500628236339365"><ele>414.0</ele><time>2026-04-20T08:30:26Z</time></trkpt><trkpt lat="45.77241521622631" lon="10.5008159016704"><ele>407.0</ele><time>2026-04-20T08:30:27Z</time></trkpt><trkpt lat="45.77253726239643" lon="10.500979684378539"><ele>400.0</ele><time>2026-04-20T08:30:28Z</time></trkpt><trkpt lat="45.77265755037559" lon="10.50115633790709"><ele>400.33333333333337</ele><time>2026-04-20T08:30:29Z</time></trkpt><trkpt lat="45.77277941807921" lon="10.501329298190013"><ele>400.66666666666663</ele><time>2026-04-20T08:30:30Z</time></trkpt><trkpt lat="45.77290064739409" lon="10.501487901212263"><ele>401.0</ele><time>2026-04-20T08:30:31Z</time></trkpt><trkpt lat="45.773014998793975" lon="10.501618023979645"><ele>401.0</ele><time>2026-04-20T08:30:32Z</time></trkpt><trkpt lat="45.77313897548562" lon="10.501742103662393"><ele>401.0</ele><time>2026-04-20T08:30:33Z</time></trkpt><trkpt lat="45.77328824165269" lon="10.501876858283275"><ele>401.0</ele><time>2026-04-20T08:30:34Z</time></trkpt><trkpt lat="45.77344680573811" lon="10.50199298179084"><ele>396.3333333333333</ele><time>2026-04-20T08:30:35Z</time></trkpt><trkpt lat="45.77359710508004" lon="10.50209697593256"><ele>391.66666666666663</ele><time>2026-04-20T08:30:36Z</time></trkpt><trkpt lat="45.77373496621335" lon="10.502191059153823"><ele>387.0</ele><time>2026-04-20T08:30:37Z</time></trkpt><trkpt lat="45.77386768181458" lon="10.50224711421712"><ele>387.0</ele><time>2026-04-20T08:30:38Z</time></trkpt><trkpt lat="45.774006162441225" lon="10.502324165569082"><ele>387.0</ele><time>2026-04-20T08:30:39Z</time></trkpt><trkpt lat="45.77415634596329" lon="10.502405208044179"><ele>387.0</ele><time>2026-04-20T08:30:40Z</time></trkpt><trkpt lat="45.77429464294479" lon="10.50247510288135"><ele>390.66666666666663</ele><time>2026-04-20T08:30:41Z</time></trkpt><trkpt lat="45.77445966275099" lon="10.502473415815905"><ele>394.3333333333333</ele><time>2026-04-20T08:30:42Z</time></trkpt><trkpt lat="45.77461194559994" lon="10.50250302680841"><ele>398.0</ele><time>2026-04-20T08:30:43Z</time></trkpt><trkpt lat="45.77477012331375" lon="10.502552179002596"><ele>398.0</ele><time>2026-04-20T08:30:44Z</time></trkpt><trkpt lat="45.77492785937538" lon="10.502646802953763"><ele>398.0</ele><time>2026-04-20T08:30:45Z</time></trkpt><trkpt lat="45.775078371319374" lon="10.502750071415262"><ele>398.0</ele><time>2026-04-20T08:30:46Z</time></trkpt><trkpt lat="45.77522566599078" lon="10.502830022601591"><ele>394.0</ele><time>2026-04-20T08:30:47Z</time></trkpt><trkpt lat="45.77537436286564" lon="10.502909888754028"><ele>390.0</ele><time>2026-04-20T08:30:48Z</time></trkpt><trkpt lat="45.77551256602859" lon="10.503062751899911"><ele>386.0</ele><time>2026-04-20T08:30:49Z</time></trkpt><trkpt lat="45.77567257048566" lon="10.503211915040586"><ele>386.0</ele><time>2026-04-20T08:30:50Z</time></trkpt><trkpt lat="45.77581603834462" lon="10.50335251358634"><ele>386.0</ele><time>2026-04-20T08:30:51Z</time></trkpt><trkpt lat="45.775931965834715" lon="10.503466114154431"><ele>386.0</ele><time>2026-04-20T08:30:52Z</time></trkpt><trkpt lat="45.77605786873251" lon="10.503558242152666"><ele>389.0</ele><time>2026-04-20T08:30:53Z</time></trkpt><trkpt lat="45.77618951797031" lon="10.50366221020752"><ele>392.0</ele><time>2026-04-20T08:30:54Z</time></trkpt><trkpt lat="45.77626845988652" lon="10.50376149297031"><ele>395.0</ele><time>2026-04-20T08:30:55Z</time></trkpt><trkpt lat="45.776377953958296" lon="10.503847281111014"><ele>398.0</ele><time>2026-04-20T08:30:56Z</time></trkpt><trkpt lat="45.77650344914505" lon="10.50390228140768"><ele>394.66666666666663</ele><time>2026-04-20T08:30:57.001Z</time></trkpt><trkpt lat="45.776710053281214" lon="10.503790279136604"><ele>391.33333333333337</ele><time>2026-04-20T08:30:58Z</time></trkpt><trkpt lat="45.77686686765212" lon="10.503692103261836"><ele>388.0</ele><time>2026-04-20T08:30:59Z</time></trkpt><trkpt lat="45.7769587469333" lon="10.503609089014178"><ele>388.0</ele><time>2026-04-20T08:31:00.001Z</time></trkpt><trkpt lat="45.77707088728741" lon="10.503536163558504"><ele>388.0</ele><time>2026-04-20T08:31:01.001Z</time></trkpt><trkpt lat="45.77716645182999" lon="10.503452460645791"><ele>388.0</ele><time>2026-04-20T08:31:02.001Z</time></trkpt><trkpt lat="45.777294641573334" lon="10.503391071476038"><ele>388.0</ele><time>2026-04-20T08:31:03.001Z</time></trkpt><trkpt lat="45.777447383555085" lon="10.503342617680362"><ele>388.0</ele><time>2026-04-20T08:31:04.001Z</time></trkpt><trkpt lat="45.777605951004716" lon="10.503285995843518"><ele>388.0</ele><time>2026-04-20T08:31:05.001Z</time></trkpt><trkpt lat="45.77776320358993" lon="10.503234366487648"><ele>388.0</ele><time>2026-04-20T08:31:06Z</time></trkpt><trkpt lat="45.777900712191524" lon="10.503194602197187"><ele>387.75</ele><time>2026-04-20T08:31:07Z</time></trkpt><trkpt lat="45.77803531384561" lon="10.503166946151994"><ele>387.5</ele><time>2026-04-20T08:31:08Z</time></trkpt><trkpt lat="45.778180604706144" lon="10.503160855191055"><ele>387.25</ele><time>2026-04-20T08:31:09.001Z</time></trkpt><trkpt lat="45.77832927912163" lon="10.503185745015886"><ele>387.0</ele><time>2026-04-20T08:31:10Z</time></trkpt><trkpt lat="45.778477177829" lon="10.503234684992579"><ele>388.33333333333337</ele><time>2026-04-20T08:31:11Z</time></trkpt><trkpt lat="45.778630229224405" lon="10.503302128888691"><ele>389.6666666666667</ele><time>2026-04-20T08:31:12Z</time></trkpt><trkpt lat="45.77877142012257" lon="10.50338292134379"><ele>391.0</ele><time>2026-04-20T08:31:13Z</time></trkpt><trkpt lat="45.778908549585445" lon="10.503421824059512"><ele>391.0</ele><time>2026-04-20T08:31:14Z</time></trkpt><trkpt lat="45.77904031939653" lon="10.503449213165972"><ele>391.0</ele><time>2026-04-20T08:31:15Z</time></trkpt><trkpt lat="45.7791873676668" lon="10.503459791616844"><ele>391.0</ele><time>2026-04-20T08:31:16Z</time></trkpt><trkpt lat="45.77933647829766" lon="10.503441346138828"><ele>391.0</ele><time>2026-04-20T08:31:17Z</time></trkpt><trkpt lat="45.77949285493911" lon="10.50344013616841"><ele>391.0</ele><time>2026-04-20T08:31:18Z</time></trkpt><trkpt lat="45.77966427918945" lon="10.50340793282325"><ele>391.0</ele><time>2026-04-20T08:31:19Z</time></trkpt><trkpt lat="45.77984582179164" lon="10.503380127794493"><ele>391.0</ele><time>2026-04-20T08:31:20Z</time></trkpt><trkpt lat="45.78001781726587" lon="10.50333811296913"><ele>389.33333333333337</ele><time>2026-04-20T08:31:21Z</time></trkpt><trkpt lat="45.78018517351927" lon="10.50327340179112"><ele>387.66666666666663</ele><time>2026-04-20T08:31:22Z</time></trkpt><trkpt lat="45.780329677730116" lon="10.503211567615825"><ele>386.0</ele><time>2026-04-20T08:31:23Z</time></trkpt><trkpt lat="45.780453662776054" lon="10.503175754049709"><ele>386.0</ele><time>2026-04-20T08:31:24Z</time></trkpt><trkpt lat="45.78062567182502" lon="10.503178151403468"><ele>386.0</ele><time>2026-04-20T08:31:25Z</time></trkpt><trkpt lat="45.78078015167919" lon="10.5031716640199"><ele>386.0</ele><time>2026-04-20T08:31:26Z</time></trkpt><trkpt lat="45.780942247528124" lon="10.503168924811952"><ele>385.66666666666663</ele><time>2026-04-20T08:31:27Z</time></trkpt><trkpt lat="45.781090569759016" lon="10.503153441012754"><ele>385.33333333333337</ele><time>2026-04-20T08:31:28Z</time></trkpt><trkpt lat="45.78124635720934" lon="10.503118786507683"><ele>385.0</ele><time>2026-04-20T08:31:29Z</time></trkpt><trkpt lat="45.781409355607614" lon="10.503068312637653"><ele>385.0</ele><time>2026-04-20T08:31:30Z</time></trkpt><trkpt lat="45.781570262311504" lon="10.503002846567535"><ele>385.0</ele><time>2026-04-20T08:31:31Z</time></trkpt><trkpt lat="45.78172304345184" lon="10.502929001972939"><ele>385.0</ele><time>2026-04-20T08:31:32Z</time></trkpt><trkpt lat="45.78186686651091" lon="10.502853350402903"><ele>387.5</ele><time>2026-04-20T08:31:33Z</time></trkpt><trkpt lat="45.78199815809299" lon="10.502763334992169"><ele>390.0</ele><time>2026-04-20T08:31:34Z</time></trkpt><trkpt lat="45.78213431741621" lon="10.502683995838742"><ele>392.5</ele><time>2026-04-20T08:31:35Z</time></trkpt><trkpt lat="45.78227978016565" lon="10.502612023526082"><ele>395.0</ele><time>2026-04-20T08:31:36Z</time></trkpt><trkpt lat="45.78241441034768" lon="10.502506396545296"><ele>395.0</ele><time>2026-04-20T08:31:37Z</time></trkpt><trkpt lat="45.78256196216539" lon="10.502399086271671"><ele>395.0</ele><time>2026-04-20T08:31:38Z</time></trkpt><trkpt lat="45.782694549601345" lon="10.502319797546729"><ele>395.0</ele><time>2026-04-20T08:31:39Z</time></trkpt><trkpt lat="45.78283369200952" lon="10.50220937584629"><ele>394.3333333333333</ele><time>2026-04-20T08:31:40Z</time></trkpt><trkpt lat="45.78295573720352" lon="10.502078648036292"><ele>393.66666666666663</ele><time>2026-04-20T08:31:41Z</time></trkpt><trkpt lat="45.783094620233676" lon="10.50193337421135"><ele>393.0</ele><time>2026-04-20T08:31:42Z</time></trkpt><trkpt lat="45.783208254427926" lon="10.501828448206915"><ele>393.0</ele><time>2026-04-20T08:31:43Z</time></trkpt><trkpt lat="45.78330742534374" lon="10.501685889583893"><ele>393.0</ele><time>2026-04-20T08:31:44Z</time></trkpt><trkpt lat="45.78339359049221" lon="10.501512083966755"><ele>393.0</ele><time>2026-04-20T08:31:45Z</time></trkpt><trkpt lat="45.78345611072441" lon="10.501340965872204"><ele>393.0</ele><time>2026-04-20T08:31:46Z</time></trkpt><trkpt lat="45.78355481465231" lon="10.501198065089442"><ele>393.0</ele><time>2026-04-20T08:31:47Z</time></trkpt><trkpt lat="45.78364499715759" lon="10.501042979873056"><ele>393.0</ele><time>2026-04-20T08:31:48Z</time></trkpt><trkpt lat="45.78373973097038" lon="10.500916706519446"><ele>393.0</ele><time>2026-04-20T08:31:49Z</time></trkpt><trkpt lat="45.78384525866545" lon="10.500819395158457"><ele>393.0</ele><time>2026-04-20T08:31:50Z</time></trkpt><trkpt lat="45.783963097770965" lon="10.500710388361671"><ele>393.0</ele><time>2026-04-20T08:31:51Z</time></trkpt><trkpt lat="45.784079727638634" lon="10.500634637170043"><ele>393.0</ele><time>2026-04-20T08:31:52Z</time></trkpt><trkpt lat="45.78419878167509" lon="10.500573788799379"><ele>393.0</ele><time>2026-04-20T08:31:53Z</time></trkpt><trkpt lat="45.784312430574786" lon="10.500540519661794"><ele>393.0</ele><time>2026-04-20T08:31:54Z</time></trkpt><trkpt lat="45.78443609574105" lon="10.500570936794952"><ele>393.5</ele><time>2026-04-20T08:31:55Z</time></trkpt><trkpt lat="45.7845722991499" lon="10.500620357071904"><ele>394.0</ele><time>2026-04-20T08:31:56Z</time></trkpt><trkpt lat="45.78468385300801" lon="10.500686824899129"><ele>394.5</ele><time>2026-04-20T08:31:57Z</time></trkpt><trkpt lat="45.784816005542304" lon="10.500760703481127"><ele>395.0</ele><time>2026-04-20T08:31:58Z</time></trkpt><trkpt lat="45.78496468596416" lon="10.500853044211562"><ele>395.0</ele><time>2026-04-20T08:31:59Z</time></trkpt><trkpt lat="45.7851117313908" lon="10.500931643343169"><ele>395.0</ele><time>2026-04-20T08:32:00Z</time></trkpt><trkpt lat="45.785243528362" lon="10.5009813589536"><ele>395.0</ele><time>2026-04-20T08:32:01Z</time></trkpt><trkpt lat="45.785371078648545" lon="10.501041973029729"><ele>395.0</ele><time>2026-04-20T08:32:02Z</time></trkpt><trkpt lat="45.785515236332145" lon="10.501093778869802"><ele>397.0</ele><time>2026-04-20T08:32:03Z</time></trkpt><trkpt lat="45.78567333378111" lon="10.501095652313621"><ele>399.0</ele><time>2026-04-20T08:32:04Z</time></trkpt><trkpt lat="45.78583268866117" lon="10.501083081596509"><ele>401.0</ele><time>2026-04-20T08:32:05Z</time></trkpt><trkpt lat="45.78598504373596" lon="10.501068870976638"><ele>402.25</ele><time>2026-04-20T08:32:06Z</time></trkpt><trkpt lat="45.78612774412965" lon="10.501075183928933"><ele>403.5</ele><time>2026-04-20T08:32:07Z</time></trkpt><trkpt lat="45.78627673743143" lon="10.501070126005567"><ele>404.75</ele><time>2026-04-20T08:32:08Z</time></trkpt><trkpt lat="45.78642224779786" lon="10.501065186367013"><ele>406.0</ele><time>2026-04-20T08:32:09Z</time></trkpt><trkpt lat="45.78656802385389" lon="10.501059292129561"><ele>406.0</ele><time>2026-04-20T08:32:10Z</time></trkpt><trkpt lat="45.7867222369069" lon="10.501032085035064"><ele>406.0</ele><time>2026-04-20T08:32:11Z</time></trkpt><trkpt lat="45.786856697652276" lon="10.501036407526428"><ele>406.0</ele><time>2026-04-20T08:32:12Z</time></trkpt><trkpt lat="45.786997194454365" lon="10.501022513598516"><ele>406.0</ele><time>2026-04-20T08:32:13Z</time></trkpt><trkpt lat="45.78714141757271" lon="10.500985535944602"><ele>407.0</ele><time>2026-04-20T08:32:14Z</time></trkpt><trkpt lat="45.78728637557192" lon="10.500939225860106"><ele>408.0</ele><time>2026-04-20T08:32:15Z</time></trkpt><trkpt lat="45.78740756162598" lon="10.500903792682815"><ele>409.0</ele><time>2026-04-20T08:32:16Z</time></trkpt><trkpt lat="45.78753322982603" lon="10.500832398474847"><ele>410.0</ele><time>2026-04-20T08:32:17Z</time></trkpt><trkpt lat="45.787666240609745" lon="10.500765426576772"><ele>408.25</ele><time>2026-04-20T08:32:18Z</time></trkpt><trkpt lat="45.7878012502626" lon="10.500744090861"><ele>406.5</ele><time>2026-04-20T08:32:19Z</time></trkpt><trkpt lat="45.78794539613543" lon="10.500686223023216"><ele>404.75</ele><time>2026-04-20T08:32:20Z</time></trkpt><trkpt lat="45.78809120832548" lon="10.50062965796631"><ele>403.0</ele><time>2026-04-20T08:32:21Z</time></trkpt><trkpt lat="45.788232885956816" lon="10.50057600571614"><ele>403.0</ele><time>2026-04-20T08:32:22Z</time></trkpt><trkpt lat="45.78838194122319" lon="10.500529019568669"><ele>403.0</ele><time>2026-04-20T08:32:23Z</time></trkpt><trkpt lat="45.7885228614054" lon="10.500483522829208"><ele>403.0</ele><time>2026-04-20T08:32:24Z</time></trkpt><trkpt lat="45.788673411803266" lon="10.500435339859882"><ele>409.6666666666667</ele><time>2026-04-20T08:32:25Z</time></trkpt><trkpt lat="45.788827385658735" lon="10.500374345252274"><ele>416.33333333333337</ele><time>2026-04-20T08:32:26Z</time></trkpt><trkpt lat="45.788985978365425" lon="10.500317852424505"><ele>423.0</ele><time>2026-04-20T08:32:27Z</time></trkpt><trkpt lat="45.78913564860976" lon="10.500262729198365"><ele>423.0</ele><time>2026-04-20T08:32:28Z</time></trkpt><trkpt lat="45.789282392538574" lon="10.500195929897165"><ele>423.0</ele><time>2026-04-20T08:32:29Z</time></trkpt><trkpt lat="45.78943764787096" lon="10.500150343243735"><ele>423.0</ele><time>2026-04-20T08:32:30Z</time></trkpt><trkpt lat="45.78959706249042" lon="10.50010767513533"><ele>423.33333333333337</ele><time>2026-04-20T08:32:31Z</time></trkpt><trkpt lat="45.789776005626905" lon="10.50009189967573"><ele>423.6666666666667</ele><time>2026-04-20T08:32:32Z</time></trkpt><trkpt lat="45.78995327477124" lon="10.500078101755554"><ele>424.0</ele><time>2026-04-20T08:32:33Z</time></trkpt><trkpt lat="45.790105166268496" lon="10.500069772546924"><ele>425.0</ele><time>2026-04-20T08:32:34Z</time></trkpt><trkpt lat="45.79024192240617" lon="10.500064465997834"><ele>426.0</ele><time>2026-04-20T08:32:35Z</time></trkpt><trkpt lat="45.7903774661748" lon="10.500063089803623"><ele>427.0</ele><time>2026-04-20T08:32:36Z</time></trkpt><trkpt lat="45.79051744304214" lon="10.500063089807906"><ele>428.0</ele><time>2026-04-20T08:32:37Z</time></trkpt><trkpt lat="45.79065356926674" lon="10.500098844357495"><ele>428.0</ele><time>2026-04-20T08:32:38Z</time></trkpt><trkpt lat="45.790787242917744" lon="10.50014557218387"><ele>428.0</ele><time>2026-04-20T08:32:39Z</time></trkpt><trkpt lat="45.79090842748467" lon="10.500152125035807"><ele>428.0</ele><time>2026-04-20T08:32:40Z</time></trkpt><trkpt lat="45.79102603292368" lon="10.500185187645904"><ele>428.0</ele><time>2026-04-20T08:32:41Z</time></trkpt><trkpt lat="45.791161702282494" lon="10.50015598744385"><ele>428.2</ele><time>2026-04-20T08:32:42Z</time></trkpt><trkpt lat="45.79128085625173" lon="10.500107939708279"><ele>428.4</ele><time>2026-04-20T08:32:43Z</time></trkpt><trkpt lat="45.79138765466248" lon="10.5000345775447"><ele>428.59999999999997</ele><time>2026-04-20T08:32:44Z</time></trkpt><trkpt lat="45.79148556025395" lon="10.49995101617145"><ele>428.79999999999995</ele><time>2026-04-20T08:32:45Z</time></trkpt><trkpt lat="45.791560127929515" lon="10.499873999200142"><ele>429.0</ele><time>2026-04-20T08:32:46Z</time></trkpt><trkpt lat="45.79164115077835" lon="10.499798091409374"><ele>429.0</ele><time>2026-04-20T08:32:47Z</time></trkpt><trkpt lat="45.79173349212158" lon="10.49975019790442"><ele>429.0</ele><time>2026-04-20T08:32:48Z</time></trkpt><trkpt lat="45.79181539409416" lon="10.499708373680907"><ele>429.0</ele><time>2026-04-20T08:32:49Z</time></trkpt><trkpt lat="45.79189975072026" lon="10.499725673981104"><ele>429.0</ele><time>2026-04-20T08:32:50Z</time></trkpt><trkpt lat="45.79198319245408" lon="10.499812342971738"><ele>429.0</ele><time>2026-04-20T08:32:51Z</time></trkpt><trkpt lat="45.79208074029831" lon="10.499924100301357"><ele>427.25</ele><time>2026-04-20T08:32:52Z</time></trkpt><trkpt lat="45.792173263903486" lon="10.50006873488373"><ele>425.5</ele><time>2026-04-20T08:32:53Z</time></trkpt><trkpt lat="45.792272291578236" lon="10.500214484158532"><ele>423.75</ele><time>2026-04-20T08:32:54Z</time></trkpt><trkpt lat="45.79237583203028" lon="10.500340567069564"><ele>422.0</ele><time>2026-04-20T08:32:55Z</time></trkpt><trkpt lat="45.79249988817903" lon="10.50046220265498"><ele>422.0</ele><time>2026-04-20T08:32:56Z</time></trkpt><trkpt lat="45.79263316413116" lon="10.500565414845374"><ele>422.0</ele><time>2026-04-20T08:32:57Z</time></trkpt><trkpt lat="45.79276624540542" lon="10.500639621687053"><ele>422.0</ele><time>2026-04-20T08:32:58Z</time></trkpt><trkpt lat="45.79293198182369" lon="10.500688617886688"><ele>424.66666666666663</ele><time>2026-04-20T08:32:59Z</time></trkpt><trkpt lat="45.7931264028311" lon="10.500743946652886"><ele>427.33333333333337</ele><time>2026-04-20T08:33:00Z</time></trkpt><trkpt lat="45.79333350750034" lon="10.500804618653705"><ele>430.0</ele><time>2026-04-20T08:33:01Z</time></trkpt><trkpt lat="45.79354276244216" lon="10.500860650735403"><ele>433.33333333333337</ele><time>2026-04-20T08:33:02Z</time></trkpt><trkpt lat="45.79375684984781" lon="10.500931091730008"><ele>436.66666666666663</ele><time>2026-04-20T08:33:03Z</time></trkpt><trkpt lat="45.793955440602275" lon="10.500987303616094"><ele>440.0</ele><time>2026-04-20T08:33:04.001Z</time></trkpt><trkpt lat="45.79412754116988" lon="10.501033330769044"><ele>440.0</ele><time>2026-04-20T08:33:05.001Z</time></trkpt><trkpt lat="45.794285194718405" lon="10.501047323948583"><ele>440.0</ele><time>2026-04-20T08:33:06.001Z</time></trkpt><trkpt lat="45.79442741915118" lon="10.501072283963467"><ele>440.0</ele><time>2026-04-20T08:33:07Z</time></trkpt><trkpt lat="45.794571953526464" lon="10.50112655675917"><ele>437.25</ele><time>2026-04-20T08:33:08Z</time></trkpt><trkpt lat="45.79466011356436" lon="10.501211336751366"><ele>434.5</ele><time>2026-04-20T08:33:09.001Z</time></trkpt><trkpt lat="45.794806601306725" lon="10.50129467564029"><ele>431.75</ele><time>2026-04-20T08:33:10Z</time></trkpt><trkpt lat="45.79496019441843" lon="10.501370789930183"><ele>429.0</ele><time>2026-04-20T08:33:11Z</time></trkpt><trkpt lat="45.79512459632664" lon="10.501449088513647"><ele>434.66666666666663</ele><time>2026-04-20T08:33:12.001Z</time></trkpt><trkpt lat="45.79531279620909" lon="10.501527785053883"><ele>440.3333333333333</ele><time>2026-04-20T08:33:13.001Z</time></trkpt><trkpt lat="45.79547913745648" lon="10.501585016945809"><ele>446.0</ele><time>2026-04-20T08:33:14.001Z</time></trkpt><trkpt lat="45.79563136720526" lon="10.501609502698235"><ele>446.0</ele><time>2026-04-20T08:33:15.001Z</time></trkpt><trkpt lat="45.7957830410887" lon="10.501674005022167"><ele>446.0</ele><time>2026-04-20T08:33:16.001Z</time></trkpt><trkpt lat="45.79592805518505" lon="10.501745091523617"><ele>446.0</ele><time>2026-04-20T08:33:17.001Z</time></trkpt><trkpt lat="45.79605894779806" lon="10.501838402932094"><ele>451.4</ele><time>2026-04-20T08:33:18.001Z</time></trkpt><trkpt lat="45.796166959271666" lon="10.501898982466775"><ele>456.8</ele><time>2026-04-20T08:33:19.001Z</time></trkpt><trkpt lat="45.79627672641049" lon="10.50191462448872"><ele>462.19999999999993</ele><time>2026-04-20T08:33:20.001Z</time></trkpt><trkpt lat="45.796371351558115" lon="10.501929239333384"><ele>467.59999999999997</ele><time>2026-04-20T08:33:21.001Z</time></trkpt><trkpt lat="45.796460437718636" lon="10.501960627958733"><ele>473.0</ele><time>2026-04-20T08:33:22.001Z</time></trkpt><trkpt lat="45.79654992102418" lon="10.502016227306813"><ele>466.5</ele><time>2026-04-20T08:33:23.001Z</time></trkpt><trkpt lat="45.79662635506427" lon="10.502108960821866"><ele>460.0</ele><time>2026-04-20T08:33:24.001Z</time></trkpt><trkpt lat="45.79668726112147" lon="10.50226468503767"><ele>453.5</ele><time>2026-04-20T08:33:25.001Z</time></trkpt><trkpt lat="45.79674050525072" lon="10.50244755356128"><ele>447.0</ele><time>2026-04-20T08:33:26.001Z</time></trkpt><trkpt lat="45.79678151841685" lon="10.502601712949694"><ele>449.20000000000005</ele><time>2026-04-20T08:33:27.001Z</time></trkpt><trkpt lat="45.796836452051195" lon="10.502721635152554"><ele>451.40000000000003</ele><time>2026-04-20T08:33:28.001Z</time></trkpt><trkpt lat="45.7968995011138" lon="10.502840355712081"><ele>453.59999999999997</ele><time>2026-04-20T08:33:29.001Z</time></trkpt><trkpt lat="45.796978236279585" lon="10.502988399434198"><ele>455.79999999999995</ele><time>2026-04-20T08:33:30.001Z</time></trkpt><trkpt lat="45.79703453067837" lon="10.503131857112614"><ele>458.0</ele><time>2026-04-20T08:33:31.001Z</time></trkpt><trkpt lat="45.797086885100946" lon="10.503248949472164"><ele>458.0</ele><time>2026-04-20T08:33:32.001Z</time></trkpt><trkpt lat="45.79715006817196" lon="10.503349555861188"><ele>457.99999999999994</ele><time>2026-04-20T08:33:33.001Z</time></trkpt><trkpt lat="45.797247047448835" lon="10.503444258314508"><ele>457.99999999999994</ele><time>2026-04-20T08:33:34.001Z</time></trkpt><trkpt lat="45.79734538383271" lon="10.50349699977822"><ele>458.0</ele><time>2026-04-20T08:33:35.001Z</time></trkpt><trkpt lat="45.79745197956483" lon="10.503554070734824"><ele>458.0</ele><time>2026-04-20T08:33:36.001Z</time></trkpt><trkpt lat="45.79756452709001" lon="10.503599823758757"><ele>458.0</ele><time>2026-04-20T08:33:37.001Z</time></trkpt><trkpt lat="45.79766666990632" lon="10.503644770359003"><ele>457.99999999999994</ele><time>2026-04-20T08:33:38.001Z</time></trkpt><trkpt lat="45.79777329723591" lon="10.503703718668367"><ele>457.99999999999994</ele><time>2026-04-20T08:33:39.001Z</time></trkpt><trkpt lat="45.79787029696922" lon="10.503796343647833"><ele>458.0</ele><time>2026-04-20T08:33:40.001Z</time></trkpt><trkpt lat="45.797964652795514" lon="10.503854284194464"><ele>458.0</ele><time>2026-04-20T08:33:41.001Z</time></trkpt><trkpt lat="45.798061608255615" lon="10.503889328116886"><ele>455.2</ele><time>2026-04-20T08:33:42.001Z</time></trkpt><trkpt lat="45.79815664799036" lon="10.503904102836193"><ele>452.4</ele><time>2026-04-20T08:33:43.001Z</time></trkpt><trkpt lat="45.798268249464805" lon="10.503936183393218"><ele>449.59999999999997</ele><time>2026-04-20T08:33:44.001Z</time></trkpt><trkpt lat="45.79837754432591" lon="10.503995167783085"><ele>446.79999999999995</ele><time>2026-04-20T08:33:45.001Z</time></trkpt><trkpt lat="45.7984807494136" lon="10.504036478434516"><ele>444.0</ele><time>2026-04-20T08:33:46.001Z</time></trkpt><trkpt lat="45.798576996412095" lon="10.504056694317478"><ele>444.0</ele><time>2026-04-20T08:33:47.001Z</time></trkpt><trkpt lat="45.79866761677115" lon="10.50411851850786"><ele>444.0</ele><time>2026-04-20T08:33:48.001Z</time></trkpt><trkpt lat="45.79875613567499" lon="10.50418535050039"><ele>444.0</ele><time>2026-04-20T08:33:49.001Z</time></trkpt><trkpt lat="45.7988413262686" lon="10.50426269872935"><ele>444.0</ele><time>2026-04-20T08:33:50.001Z</time></trkpt><trkpt lat="45.798917955953485" lon="10.504333021906588"><ele>444.0</ele><time>2026-04-20T08:33:51.001Z</time></trkpt><trkpt lat="45.79899772254472" lon="10.504370563490053"><ele>444.0</ele><time>2026-04-20T08:33:52.001Z</time></trkpt><trkpt lat="45.79908579422257" lon="10.504347553481269"><ele>444.0</ele><time>2026-04-20T08:33:53.001Z</time></trkpt><trkpt lat="45.799163367880176" lon="10.504305454616429"><ele>444.0</ele><time>2026-04-20T08:33:54.001Z</time></trkpt><trkpt lat="45.799248143211" lon="10.50420518861215"><ele>444.0</ele><time>2026-04-20T08:33:55.001Z</time></trkpt><trkpt lat="45.7993040721091" lon="10.504120397824133"><ele>444.0</ele><time>2026-04-20T08:33:56.001Z</time></trkpt><trkpt lat="45.799354311926756" lon="10.504023955771647"><ele>444.0</ele><time>2026-04-20T08:33:57.001Z</time></trkpt><trkpt lat="45.799417145625675" lon="10.503944837468964"><ele>445.8333333333333</ele><time>2026-04-20T08:33:58.001Z</time></trkpt><trkpt lat="45.799473430632496" lon="10.50386888490725"><ele>447.66666666666663</ele><time>2026-04-20T08:33:59.001Z</time></trkpt><trkpt lat="45.79954033815691" lon="10.50380601809977"><ele>449.5</ele><time>2026-04-20T08:34:00.001Z</time></trkpt><trkpt lat="45.799618112731096" lon="10.503760808835667"><ele>451.3333333333333</ele><time>2026-04-20T08:34:01.001Z</time></trkpt><trkpt lat="45.799692937783796" lon="10.503747700569068"><ele>453.16666666666663</ele><time>2026-04-20T08:34:02.001Z</time></trkpt><trkpt lat="45.7997755800134" lon="10.50373941719147"><ele>455.0</ele><time>2026-04-20T08:34:03.001Z</time></trkpt><trkpt lat="45.79986082524503" lon="10.503721603115046"><ele>455.0</ele><time>2026-04-20T08:34:04.001Z</time></trkpt><trkpt lat="45.799967298086194" lon="10.503712608912025"><ele>455.0</ele><time>2026-04-20T08:34:05.001Z</time></trkpt><trkpt lat="45.8000825416226" lon="10.50374020998064"><ele>455.0</ele><time>2026-04-20T08:34:06.001Z</time></trkpt><trkpt lat="45.800186666545144" lon="10.503809342045903"><ele>455.0</ele><time>2026-04-20T08:34:07.001Z</time></trkpt><trkpt lat="45.80025577715959" lon="10.504005712032145"><ele>450.5</ele><time>2026-04-20T08:34:08Z</time></trkpt><trkpt lat="45.80036415601779" lon="10.504161985322794"><ele>446.0</ele><time>2026-04-20T08:34:09Z</time></trkpt><trkpt lat="45.80047092953999" lon="10.5042772947655"><ele>441.5</ele><time>2026-04-20T08:34:10Z</time></trkpt><trkpt lat="45.800587466070844" lon="10.50433893567789"><ele>437.0</ele><time>2026-04-20T08:34:11Z</time></trkpt><trkpt lat="45.800692437043836" lon="10.504386283847444"><ele>437.0</ele><time>2026-04-20T08:34:12Z</time></trkpt><trkpt lat="45.80079221607788" lon="10.504400876922617"><ele>437.00000000000006</ele><time>2026-04-20T08:34:13Z</time></trkpt><trkpt lat="45.80089162400494" lon="10.504418901292004"><ele>437.00000000000006</ele><time>2026-04-20T08:34:14Z</time></trkpt><trkpt lat="45.80097596487897" lon="10.504465648664146"><ele>437.0</ele><time>2026-04-20T08:34:15Z</time></trkpt><trkpt lat="45.801097328071215" lon="10.50453523173112"><ele>437.0</ele><time>2026-04-20T08:34:16Z</time></trkpt><trkpt lat="45.801175063279594" lon="10.504683732134717"><ele>433.8</ele><time>2026-04-20T08:34:17Z</time></trkpt><trkpt lat="45.80126426935277" lon="10.504752656709975"><ele>430.6</ele><time>2026-04-20T08:34:18Z</time></trkpt><trkpt lat="45.801375995020095" lon="10.504805032173456"><ele>427.40000000000003</ele><time>2026-04-20T08:34:19Z</time></trkpt><trkpt lat="45.801478803728735" lon="10.504817460608143"><ele>424.20000000000005</ele><time>2026-04-20T08:34:20Z</time></trkpt><trkpt lat="45.801570839821885" lon="10.504785594452484"><ele>421.0</ele><time>2026-04-20T08:34:21Z</time></trkpt><trkpt lat="45.80167652771335" lon="10.504795066233713"><ele>421.0</ele><time>2026-04-20T08:34:22Z</time></trkpt><trkpt lat="45.80178003914938" lon="10.504813048058685"><ele>421.0</ele><time>2026-04-20T08:34:23Z</time></trkpt><trkpt lat="45.80188262606401" lon="10.504881585414836"><ele>421.0</ele><time>2026-04-20T08:34:24Z</time></trkpt><trkpt lat="45.801946044121564" lon="10.50498990898871"><ele>421.0</ele><time>2026-04-20T08:34:25Z</time></trkpt><trkpt lat="45.80201720863121" lon="10.505100281374"><ele>421.0</ele><time>2026-04-20T08:34:26Z</time></trkpt><trkpt lat="45.802081254299836" lon="10.505201018924998"><ele>419.0</ele><time>2026-04-20T08:34:27Z</time></trkpt><trkpt lat="45.80214621763536" lon="10.505283364877787"><ele>417.0</ele><time>2026-04-20T08:34:28Z</time></trkpt><trkpt lat="45.802237385479316" lon="10.505361264602266"><ele>415.0</ele><time>2026-04-20T08:34:29Z</time></trkpt><trkpt lat="45.8023542877291" lon="10.505419807800932"><ele>413.0</ele><time>2026-04-20T08:34:30Z</time></trkpt><trkpt lat="45.80245523978532" lon="10.505454982533536"><ele>411.0</ele><time>2026-04-20T08:34:31Z</time></trkpt><trkpt lat="45.80253779013711" lon="10.505483883072396"><ele>411.0</ele><time>2026-04-20T08:34:32Z</time></trkpt><trkpt lat="45.80265121747114" lon="10.505522640136586"><ele>411.0</ele><time>2026-04-20T08:34:33Z</time></trkpt><trkpt lat="45.80275526503529" lon="10.50555379672731"><ele>411.0</ele><time>2026-04-20T08:34:34Z</time></trkpt><trkpt lat="45.80286983114258" lon="10.505597896216049"><ele>411.0</ele><time>2026-04-20T08:34:35Z</time></trkpt><trkpt lat="45.80298987702327" lon="10.505641349605042"><ele>413.25</ele><time>2026-04-20T08:34:36Z</time></trkpt><trkpt lat="45.803108402688984" lon="10.50568031454525"><ele>415.5</ele><time>2026-04-20T08:34:37Z</time></trkpt><trkpt lat="45.80323219621959" lon="10.505700584831139"><ele>417.75</ele><time>2026-04-20T08:34:38Z</time></trkpt><trkpt lat="45.803369599804455" lon="10.505736556553657"><ele>420.0</ele><time>2026-04-20T08:34:39Z</time></trkpt><trkpt lat="45.80350297318276" lon="10.50579907785439"><ele>425.5</ele><time>2026-04-20T08:34:40Z</time></trkpt><trkpt lat="45.803623079382" lon="10.505889631168206"><ele>431.0</ele><time>2026-04-20T08:34:41Z</time></trkpt><trkpt lat="45.80372579739887" lon="10.506013594018416"><ele>436.5</ele><time>2026-04-20T08:34:42Z</time></trkpt><trkpt lat="45.803806234486295" lon="10.506134631819435"><ele>442.0</ele><time>2026-04-20T08:34:43Z</time></trkpt><trkpt lat="45.80390428230703" lon="10.506242158417864"><ele>438.75</ele><time>2026-04-20T08:34:44Z</time></trkpt><trkpt lat="45.803993661379906" lon="10.50639021862054"><ele>435.5</ele><time>2026-04-20T08:34:45Z</time></trkpt><trkpt lat="45.80412902138434" lon="10.506465368234801"><ele>432.25</ele><time>2026-04-20T08:34:46Z</time></trkpt><trkpt lat="45.80424074463209" lon="10.50651198542227"><ele>429.0</ele><time>2026-04-20T08:34:47Z</time></trkpt><trkpt lat="45.80435005795335" lon="10.506555554875591"><ele>429.0</ele><time>2026-04-20T08:34:48Z</time></trkpt><trkpt lat="45.80448099647053" lon="10.506607564539106"><ele>429.0</ele><time>2026-04-20T08:34:49Z</time></trkpt><trkpt lat="45.80460778933499" lon="10.506654342988977"><ele>429.0</ele><time>2026-04-20T08:34:50Z</time></trkpt><trkpt lat="45.80473802490427" lon="10.506673219404345"><ele>429.0</ele><time>2026-04-20T08:34:51Z</time></trkpt><trkpt lat="45.804888855342206" lon="10.506724734416036"><ele>429.0</ele><time>2026-04-20T08:34:52Z</time></trkpt><trkpt lat="45.805003822996824" lon="10.506734375335263"><ele>429.0</ele><time>2026-04-20T08:34:53Z</time></trkpt><trkpt lat="45.80509747176315" lon="10.50673448042002"><ele>429.0</ele><time>2026-04-20T08:34:54Z</time></trkpt><trkpt lat="45.80518583786841" lon="10.506731423794715"><ele>429.0</ele><time>2026-04-20T08:34:55Z</time></trkpt><trkpt lat="45.80530593425597" lon="10.506724897895188"><ele>429.0</ele><time>2026-04-20T08:34:56Z</time></trkpt><trkpt lat="45.805412495918375" lon="10.506706358013126"><ele>430.0</ele><time>2026-04-20T08:34:57Z</time></trkpt><trkpt lat="45.805510926439624" lon="10.506674772775819"><ele>431.0</ele><time>2026-04-20T08:34:58Z</time></trkpt><trkpt lat="45.80560211890147" lon="10.50663636935572"><ele>432.0</ele><time>2026-04-20T08:34:59Z</time></trkpt><trkpt lat="45.80570335087891" lon="10.506621409440736"><ele>433.0</ele><time>2026-04-20T08:35:00Z</time></trkpt><trkpt lat="45.80582067165205" lon="10.506640000849918"><ele>434.0</ele><time>2026-04-20T08:35:01Z</time></trkpt><trkpt lat="45.805944597393314" lon="10.50669030189934"><ele>438.5</ele><time>2026-04-20T08:35:02Z</time></trkpt><trkpt lat="45.80607902865158" lon="10.506760868965696"><ele>443.0</ele><time>2026-04-20T08:35:03Z</time></trkpt><trkpt lat="45.80619110093295" lon="10.506846804338753"><ele>447.5</ele><time>2026-04-20T08:35:04Z</time></trkpt><trkpt lat="45.806304537202045" lon="10.506948998628728"><ele>452.0</ele><time>2026-04-20T08:35:05Z</time></trkpt><trkpt lat="45.806417563183395" lon="10.507056561778926"><ele>452.5</ele><time>2026-04-20T08:35:06Z</time></trkpt><trkpt lat="45.80652481577358" lon="10.507165561016546"><ele>453.0</ele><time>2026-04-20T08:35:07Z</time></trkpt><trkpt lat="45.8066339276876" lon="10.507276904293482"><ele>453.5</ele><time>2026-04-20T08:35:08Z</time></trkpt><trkpt lat="45.80674859146478" lon="10.507383944123879"><ele>454.0</ele><time>2026-04-20T08:35:09.001Z</time></trkpt><trkpt lat="45.80687000673835" lon="10.507453143263948"><ele>454.0</ele><time>2026-04-20T08:35:10Z</time></trkpt><trkpt lat="45.806986309264055" lon="10.507484699412938"><ele>454.0</ele><time>2026-04-20T08:35:11Z</time></trkpt><trkpt lat="45.80706251186952" lon="10.50757503207846"><ele>454.0</ele><time>2026-04-20T08:35:12.001Z</time></trkpt><trkpt lat="45.80716686424123" lon="10.507619779556203"><ele>454.0</ele><time>2026-04-20T08:35:13.001Z</time></trkpt><trkpt lat="45.807261335782385" lon="10.507655103074422"><ele>454.0</ele><time>2026-04-20T08:35:14.001Z</time></trkpt><trkpt lat="45.80735101068788" lon="10.507705047671973"><ele>454.0</ele><time>2026-04-20T08:35:15.001Z</time></trkpt><trkpt lat="45.807433198268384" lon="10.50778559253368"><ele>454.0</ele><time>2026-04-20T08:35:16Z</time></trkpt><trkpt lat="45.80749933689688" lon="10.50790103133509"><ele>454.0</ele><time>2026-04-20T08:35:17Z</time></trkpt><trkpt lat="45.80752772629266" lon="10.508050800653116"><ele>454.0</ele><time>2026-04-20T08:35:18Z</time></trkpt><trkpt lat="45.8075489912495" lon="10.508200554982492"><ele>454.0</ele><time>2026-04-20T08:35:19.001Z</time></trkpt><trkpt lat="45.80755999158781" lon="10.508320161955773"><ele>451.5</ele><time>2026-04-20T08:35:20.001Z</time></trkpt><trkpt lat="45.80760968026002" lon="10.508452469835191"><ele>449.0</ele><time>2026-04-20T08:35:21.001Z</time></trkpt><trkpt lat="45.80769477101806" lon="10.50856913318938"><ele>446.5</ele><time>2026-04-20T08:35:22.001Z</time></trkpt><trkpt lat="45.80780388097147" lon="10.508664374622176"><ele>444.0</ele><time>2026-04-20T08:35:23.001Z</time></trkpt><trkpt lat="45.80791766536995" lon="10.508756557485606"><ele>444.0</ele><time>2026-04-20T08:35:24.001Z</time></trkpt><trkpt lat="45.807977813220305" lon="10.508881258573707"><ele>444.0</ele><time>2026-04-20T08:35:25.001Z</time></trkpt><trkpt lat="45.80806945915906" lon="10.508977594946607"><ele>444.0</ele><time>2026-04-20T08:35:26.001Z</time></trkpt><trkpt lat="45.80816516030157" lon="10.509074533369636"><ele>444.0</ele><time>2026-04-20T08:35:27.001Z</time></trkpt><trkpt lat="45.80825948695969" lon="10.509174666706283"><ele>444.0</ele><time>2026-04-20T08:35:28.001Z</time></trkpt><trkpt lat="45.80834562072488" lon="10.509256439555237"><ele>444.0</ele><time>2026-04-20T08:35:29.001Z</time></trkpt><trkpt lat="45.808444831560095" lon="10.509348664263554"><ele>444.0</ele><time>2026-04-20T08:35:30.001Z</time></trkpt><trkpt lat="45.80853654599882" lon="10.50943565378037"><ele>444.0</ele><time>2026-04-20T08:35:31.001Z</time></trkpt><trkpt lat="45.808623189884194" lon="10.509518728909745"><ele>444.0</ele><time>2026-04-20T08:35:32.001Z</time></trkpt><trkpt lat="45.80870015110075" lon="10.509613104883906"><ele>444.5</ele><time>2026-04-20T08:35:33.001Z</time></trkpt><trkpt lat="45.80878609174045" lon="10.50972395844124"><ele>445.0</ele><time>2026-04-20T08:35:34.001Z</time></trkpt><trkpt lat="45.8088811611036" lon="10.509848838751273"><ele>445.5</ele><time>2026-04-20T08:35:35.001Z</time></trkpt><trkpt lat="45.80897354151078" lon="10.509984331720531"><ele>446.0</ele><time>2026-04-20T08:35:36.001Z</time></trkpt><trkpt lat="45.809024035335696" lon="10.510145240367185"><ele>446.0</ele><time>2026-04-20T08:35:37.001Z</time></trkpt><trkpt lat="45.809107485329996" lon="10.510269546347333"><ele>446.0</ele><time>2026-04-20T08:35:38.001Z</time></trkpt><trkpt lat="45.80918128657395" lon="10.510386379400808"><ele>446.0</ele><time>2026-04-20T08:35:39.001Z</time></trkpt><trkpt lat="45.80925893854872" lon="10.51050432494375"><ele>446.0</ele><time>2026-04-20T08:35:40.001Z</time></trkpt><trkpt lat="45.80933656112957" lon="10.51063156781326"><ele>448.25</ele><time>2026-04-20T08:35:41.001Z</time></trkpt><trkpt lat="45.809419078853594" lon="10.510753368491974"><ele>450.5</ele><time>2026-04-20T08:35:42.001Z</time></trkpt><trkpt lat="45.80949388336333" lon="10.510875006474375"><ele>452.75</ele><time>2026-04-20T08:35:43.001Z</time></trkpt><trkpt lat="45.80957391440071" lon="10.511000999732662"><ele>455.0</ele><time>2026-04-20T08:35:44.001Z</time></trkpt><trkpt lat="45.8096531299056" lon="10.511122607139683"><ele>450.75</ele><time>2026-04-20T08:35:45.001Z</time></trkpt><trkpt lat="45.80971651540176" lon="10.511250048971833"><ele>446.5</ele><time>2026-04-20T08:35:46.001Z</time></trkpt><trkpt lat="45.809788815973526" lon="10.51138718021823"><ele>442.25</ele><time>2026-04-20T08:35:47.001Z</time></trkpt><trkpt lat="45.80987283687037" lon="10.51153684904923"><ele>438.0</ele><time>2026-04-20T08:35:48.001Z</time></trkpt><trkpt lat="45.80995782495514" lon="10.51168627814746"><ele>438.0</ele><time>2026-04-20T08:35:49.001Z</time></trkpt><trkpt lat="45.810038017967756" lon="10.511831661388792"><ele>438.0</ele><time>2026-04-20T08:35:50.001Z</time></trkpt><trkpt lat="45.810110269467465" lon="10.511965575181907"><ele>438.0</ele><time>2026-04-20T08:35:51.001Z</time></trkpt><trkpt lat="45.81017232779852" lon="10.512109569767334"><ele>438.0</ele><time>2026-04-20T08:35:52.001Z</time></trkpt><trkpt lat="45.81024432518796" lon="10.512257335878623"><ele>438.0</ele><time>2026-04-20T08:35:53.001Z</time></trkpt><trkpt lat="45.810327744788275" lon="10.512408190019734"><ele>438.0</ele><time>2026-04-20T08:35:54.001Z</time></trkpt><trkpt lat="45.81041720312681" lon="10.512563922266104"><ele>438.0</ele><time>2026-04-20T08:35:55.001Z</time></trkpt><trkpt lat="45.81051433315467" lon="10.512703339623645"><ele>438.0</ele><time>2026-04-20T08:35:56.001Z</time></trkpt><trkpt lat="45.8106368573828" lon="10.512834505243385"><ele>438.75</ele><time>2026-04-20T08:35:57.001Z</time></trkpt><trkpt lat="45.810754741663125" lon="10.512954287300031"><ele>439.5</ele><time>2026-04-20T08:35:58.001Z</time></trkpt><trkpt lat="45.810875072951006" lon="10.51304827707329"><ele>440.25</ele><time>2026-04-20T08:35:59.001Z</time></trkpt><trkpt lat="45.81098332413515" lon="10.513138944471363"><ele>441.0</ele><time>2026-04-20T08:36:00.001Z</time></trkpt><trkpt lat="45.81110602504848" lon="10.513260985703926"><ele>441.0</ele><time>2026-04-20T08:36:01.001Z</time></trkpt><trkpt lat="45.81121555255147" lon="10.513409032714769"><ele>441.0</ele><time>2026-04-20T08:36:02.001Z</time></trkpt><trkpt lat="45.81131606484352" lon="10.513579210816232"><ele>441.0</ele><time>2026-04-20T08:36:03.001Z</time></trkpt><trkpt lat="45.81140768530462" lon="10.51374735376286"><ele>437.5</ele><time>2026-04-20T08:36:04.001Z</time></trkpt><trkpt lat="45.81149941076331" lon="10.513917701121692"><ele>434.0</ele><time>2026-04-20T08:36:05.001Z</time></trkpt><trkpt lat="45.81158274556593" lon="10.514070940221988"><ele>430.5</ele><time>2026-04-20T08:36:06.001Z</time></trkpt><trkpt lat="45.81166592522116" lon="10.514221440265185"><ele>427.0</ele><time>2026-04-20T08:36:07.001Z</time></trkpt><trkpt lat="45.81175250602622" lon="10.514357121301636"><ele>427.75</ele><time>2026-04-20T08:36:08.001Z</time></trkpt><trkpt lat="45.81186308911247" lon="10.514476594340445"><ele>428.5</ele><time>2026-04-20T08:36:09.001Z</time></trkpt><trkpt lat="45.81199077369212" lon="10.514568835701503"><ele>429.25</ele><time>2026-04-20T08:36:10.001Z</time></trkpt><trkpt lat="45.81209230259645" lon="10.51466390948654"><ele>430.0</ele><time>2026-04-20T08:36:11.001Z</time></trkpt><trkpt lat="45.81219463220342" lon="10.514745175984618"><ele>430.0</ele><time>2026-04-20T08:36:12.001Z</time></trkpt><trkpt lat="45.81230760439812" lon="10.514837629191632"><ele>430.0</ele><time>2026-04-20T08:36:13.001Z</time></trkpt><trkpt lat="45.81242081386938" lon="10.514930319649107"><ele>430.0</ele><time>2026-04-20T08:36:14.001Z</time></trkpt><trkpt lat="45.81253040332296" lon="10.515021980311403"><ele>430.0</ele><time>2026-04-20T08:36:15.001Z</time></trkpt><trkpt lat="45.81265454524268" lon="10.515126454579756"><ele>431.75</ele><time>2026-04-20T08:36:16.001Z</time></trkpt><trkpt lat="45.8127536399502" lon="10.515266134638795"><ele>433.5</ele><time>2026-04-20T08:36:17.001Z</time></trkpt><trkpt lat="45.81283333278862" lon="10.515421950376952"><ele>435.25</ele><time>2026-04-20T08:36:18.001Z</time></trkpt><trkpt lat="45.81290284125964" lon="10.515576729021431"><ele>437.0</ele><time>2026-04-20T08:36:19.001Z</time></trkpt><trkpt lat="45.81297399020069" lon="10.515735160569477"><ele>437.0</ele><time>2026-04-20T08:36:20.001Z</time></trkpt><trkpt lat="45.81304534876393" lon="10.515894538557555"><ele>437.0</ele><time>2026-04-20T08:36:21.001Z</time></trkpt><trkpt lat="45.81313830041608" lon="10.516058503576838"><ele>437.0</ele><time>2026-04-20T08:36:22.001Z</time></trkpt><trkpt lat="45.813211757595646" lon="10.516225767998217"><ele>437.0</ele><time>2026-04-20T08:36:23.001Z</time></trkpt><trkpt lat="45.81328596454422" lon="10.516376021181916"><ele>438.0</ele><time>2026-04-20T08:36:24.001Z</time></trkpt><trkpt lat="45.813366014982265" lon="10.516515613487003"><ele>439.0</ele><time>2026-04-20T08:36:25.001Z</time></trkpt><trkpt lat="45.81345923855174" lon="10.516658248654405"><ele>440.0</ele><time>2026-04-20T08:36:26.001Z</time></trkpt><trkpt lat="45.81356328319657" lon="10.516792701309639"><ele>441.0</ele><time>2026-04-20T08:36:27.001Z</time></trkpt><trkpt lat="45.81367014268232" lon="10.51692920187132"><ele>441.0</ele><time>2026-04-20T08:36:28.001Z</time></trkpt><trkpt lat="45.8137697222236" lon="10.517066797691331"><ele>441.0</ele><time>2026-04-20T08:36:29.001Z</time></trkpt><trkpt lat="45.813869036943274" lon="10.517184920249166"><ele>441.0</ele><time>2026-04-20T08:36:30.001Z</time></trkpt><trkpt lat="45.813969863152145" lon="10.51729411878113"><ele>441.0</ele><time>2026-04-20T08:36:31.001Z</time></trkpt><trkpt lat="45.8140625335697" lon="10.517389255871832"><ele>441.0</ele><time>2026-04-20T08:36:32.001Z</time></trkpt><trkpt lat="45.81416020319814" lon="10.517490810562848"><ele>441.0</ele><time>2026-04-20T08:36:33.001Z</time></trkpt><trkpt lat="45.814263347105644" lon="10.517601385391995"><ele>441.0</ele><time>2026-04-20T08:36:34.001Z</time></trkpt><trkpt lat="45.814377919117355" lon="10.517725248273635"><ele>441.0</ele><time>2026-04-20T08:36:35.001Z</time></trkpt><trkpt lat="45.81447198792409" lon="10.5178325486213"><ele>435.5</ele><time>2026-04-20T08:36:36.001Z</time></trkpt><trkpt lat="45.81456924655564" lon="10.517937961446629"><ele>430.0</ele><time>2026-04-20T08:36:37.001Z</time></trkpt><trkpt lat="45.81466192466912" lon="10.518054395552955"><ele>424.5</ele><time>2026-04-20T08:36:38.001Z</time></trkpt><trkpt lat="45.814762574028194" lon="10.518212280004454"><ele>419.0</ele><time>2026-04-20T08:36:39.001Z</time></trkpt><trkpt lat="45.8148533707424" lon="10.518391118325125"><ele>419.0</ele><time>2026-04-20T08:36:40.001Z</time></trkpt><trkpt lat="45.814900995497695" lon="10.518567164722446"><ele>419.0</ele><time>2026-04-20T08:36:41.001Z</time></trkpt><trkpt lat="45.8149671209009" lon="10.518716740901896"><ele>419.0</ele><time>2026-04-20T08:36:42.001Z</time></trkpt><trkpt lat="45.81504836685015" lon="10.518839284468097"><ele>419.0</ele><time>2026-04-20T08:36:43.001Z</time></trkpt><trkpt lat="45.81515582504411" lon="10.518935863481175"><ele>416.0</ele><time>2026-04-20T08:36:44.001Z</time></trkpt><trkpt lat="45.815274938748864" lon="10.519011203846048"><ele>413.0</ele><time>2026-04-20T08:36:45.001Z</time></trkpt><trkpt lat="45.81539617410269" lon="10.51907072062127"><ele>410.0</ele><time>2026-04-20T08:36:46.001Z</time></trkpt><trkpt lat="45.81550438749762" lon="10.519130861695293"><ele>407.0</ele><time>2026-04-20T08:36:47.001Z</time></trkpt><trkpt lat="45.81560198576662" lon="10.519189407383726"><ele>407.0</ele><time>2026-04-20T08:36:48.001Z</time></trkpt><trkpt lat="45.81571110736328" lon="10.519255424659859"><ele>407.0</ele><time>2026-04-20T08:36:49.001Z</time></trkpt><trkpt lat="45.81580860264745" lon="10.519305415140906"><ele>407.0</ele><time>2026-04-20T08:36:50.001Z</time></trkpt><trkpt lat="45.815931554194066" lon="10.519367092765133"><ele>407.0</ele><time>2026-04-20T08:36:51.001Z</time></trkpt><trkpt lat="45.81606625836835" lon="10.519420126391394"><ele>405.0</ele><time>2026-04-20T08:36:52.001Z</time></trkpt><trkpt lat="45.816195502543074" lon="10.519491223882438"><ele>403.0</ele><time>2026-04-20T08:36:53.001Z</time></trkpt><trkpt lat="45.81632906872108" lon="10.519568922728366"><ele>401.0</ele><time>2026-04-20T08:36:54.001Z</time></trkpt><trkpt lat="45.81644769937581" lon="10.519654661081637"><ele>399.0</ele><time>2026-04-20T08:36:55.001Z</time></trkpt><trkpt lat="45.816571703438754" lon="10.519760944945846"><ele>399.0</ele><time>2026-04-20T08:36:56.001Z</time></trkpt><trkpt lat="45.8166733516591" lon="10.519935585719256"><ele>399.0</ele><time>2026-04-20T08:36:57.001Z</time></trkpt><trkpt lat="45.81680123338576" lon="10.520149207347945"><ele>399.0</ele><time>2026-04-20T08:36:58.001Z</time></trkpt><trkpt lat="45.81693500461957" lon="10.520373245847999"><ele>401.0</ele><time>2026-04-20T08:36:59.001Z</time></trkpt><trkpt lat="45.8170741133575" lon="10.520605623953701"><ele>403.0</ele><time>2026-04-20T08:37:00.001Z</time></trkpt><trkpt lat="45.8172079562576" lon="10.520829504619421"><ele>405.0</ele><time>2026-04-20T08:37:01.001Z</time></trkpt><trkpt lat="45.81733175801556" lon="10.521036618737368"><ele>403.0</ele><time>2026-04-20T08:37:02.001Z</time></trkpt><trkpt lat="45.81746013349127" lon="10.521251139333728"><ele>401.0</ele><time>2026-04-20T08:37:03.001Z</time></trkpt><trkpt lat="45.81758772595579" lon="10.521462071949095"><ele>399.0</ele><time>2026-04-20T08:37:04.001Z</time></trkpt><trkpt lat="45.81769881729157" lon="10.521647220120682"><ele>399.0</ele><time>2026-04-20T08:37:05.001Z</time></trkpt><trkpt lat="45.817786189278856" lon="10.521797125550489"><ele>399.0</ele><time>2026-04-20T08:37:06.001Z</time></trkpt><trkpt lat="45.81788350496418" lon="10.52196020640514"><ele>399.0</ele><time>2026-04-20T08:37:07.001Z</time></trkpt><trkpt lat="45.817984368770055" lon="10.522129310051179"><ele>399.0</ele><time>2026-04-20T08:37:08.001Z</time></trkpt><trkpt lat="45.81807875265492" lon="10.522276547173606"><ele>402.33333333333337</ele><time>2026-04-20T08:37:09.001Z</time></trkpt><trkpt lat="45.81820386637379" lon="10.522422639977275"><ele>405.6666666666667</ele><time>2026-04-20T08:37:10.001Z</time></trkpt><trkpt lat="45.81836913525486" lon="10.52254817214101"><ele>409.0</ele><time>2026-04-20T08:37:11.001Z</time></trkpt><trkpt lat="45.818517281308296" lon="10.522681275724418"><ele>409.0</ele><time>2026-04-20T08:37:12.001Z</time></trkpt><trkpt lat="45.81863639466615" lon="10.522790639571209"><ele>409.0</ele><time>2026-04-20T08:37:13.001Z</time></trkpt><trkpt lat="45.818741759779314" lon="10.52295540316424"><ele>409.0</ele><time>2026-04-20T08:37:14.001Z</time></trkpt><trkpt lat="45.818854545245415" lon="10.523110763960359"><ele>401.0</ele><time>2026-04-20T08:37:15.001Z</time></trkpt><trkpt lat="45.81896881711832" lon="10.523277748337332"><ele>393.0</ele><time>2026-04-20T08:37:16.001Z</time></trkpt><trkpt lat="45.81907611915466" lon="10.523475590255014"><ele>385.0</ele><time>2026-04-20T08:37:17.001Z</time></trkpt><trkpt lat="45.81918811079557" lon="10.523654892954637"><ele>386.6666666666667</ele><time>2026-04-20T08:37:18.001Z</time></trkpt><trkpt lat="45.819295311649824" lon="10.523840929780675"><ele>388.33333333333337</ele><time>2026-04-20T08:37:19.001Z</time></trkpt><trkpt lat="45.819404461383904" lon="10.524029837998388"><ele>390.0</ele><time>2026-04-20T08:37:20.001Z</time></trkpt><trkpt lat="45.81951558114761" lon="10.52422215587085"><ele>390.0</ele><time>2026-04-20T08:37:21.001Z</time></trkpt><trkpt lat="45.81961888917919" lon="10.524401070257108"><ele>390.0</ele><time>2026-04-20T08:37:22Z</time></trkpt><trkpt lat="45.81972578027178" lon="10.524586230355439"><ele>390.0</ele><time>2026-04-20T08:37:23Z</time></trkpt><trkpt lat="45.819835299240324" lon="10.52477594270642"><ele>385.6666666666667</ele><time>2026-04-20T08:37:24.001Z</time></trkpt><trkpt lat="45.81993806480232" lon="10.524955002444678"><ele>381.33333333333337</ele><time>2026-04-20T08:37:25.001Z</time></trkpt><trkpt lat="45.8200418922106" lon="10.525134662321731"><ele>377.0</ele><time>2026-04-20T08:37:26.001Z</time></trkpt><trkpt lat="45.82014888003326" lon="10.525319791016445"><ele>380.0</ele><time>2026-04-20T08:37:27.001Z</time></trkpt><trkpt lat="45.82025739297371" lon="10.525508348252895"><ele>383.0</ele><time>2026-04-20T08:37:28.001Z</time></trkpt><trkpt lat="45.820352618014745" lon="10.525673811257558"><ele>386.0</ele><time>2026-04-20T08:37:29.001Z</time></trkpt><trkpt lat="45.8204467334152" lon="10.52583734608853"><ele>386.0</ele><time>2026-04-20T08:37:30.001Z</time></trkpt><trkpt lat="45.820518093019" lon="10.525961340589646"><ele>386.0</ele><time>2026-04-20T08:37:31.001Z</time></trkpt><trkpt lat="45.82061101647715" lon="10.526122804345215"><ele>386.0</ele><time>2026-04-20T08:37:32.001Z</time></trkpt><trkpt lat="45.82070658618309" lon="10.526288867110646"><ele>386.0</ele><time>2026-04-20T08:37:33.001Z</time></trkpt><trkpt lat="45.820795591904535" lon="10.526444509532498"><ele>384.0</ele><time>2026-04-20T08:37:34.001Z</time></trkpt><trkpt lat="45.82088924453203" lon="10.526574425034624"><ele>382.0</ele><time>2026-04-20T08:37:35.001Z</time></trkpt><trkpt lat="45.820967033133336" lon="10.526740333513013"><ele>380.0</ele><time>2026-04-20T08:37:36.001Z</time></trkpt><trkpt lat="45.82105706347934" lon="10.526891351111011"><ele>378.0</ele><time>2026-04-20T08:37:37.001Z</time></trkpt><trkpt lat="45.8211599997958" lon="10.527019285434617"><ele>379.25</ele><time>2026-04-20T08:37:38.001Z</time></trkpt><trkpt lat="45.8212557549406" lon="10.527164095245293"><ele>380.5</ele><time>2026-04-20T08:37:39.001Z</time></trkpt><trkpt lat="45.82137404735684" lon="10.527300276535275"><ele>381.75</ele><time>2026-04-20T08:37:40.001Z</time></trkpt><trkpt lat="45.82147317920827" lon="10.527417516079247"><ele>383.0</ele><time>2026-04-20T08:37:41.001Z</time></trkpt><trkpt lat="45.82158959546789" lon="10.527556637742068"><ele>383.0</ele><time>2026-04-20T08:37:42.001Z</time></trkpt><trkpt lat="45.82166439232405" lon="10.527716612377453"><ele>383.0</ele><time>2026-04-20T08:37:43.001Z</time></trkpt><trkpt lat="45.82178899384633" lon="10.527850262539351"><ele>383.0</ele><time>2026-04-20T08:37:44.001Z</time></trkpt><trkpt lat="45.82192989425876" lon="10.527983398181204"><ele>381.6666666666667</ele><time>2026-04-20T08:37:45.001Z</time></trkpt><trkpt lat="45.82206672101916" lon="10.528103739583004"><ele>380.3333333333333</ele><time>2026-04-20T08:37:46.001Z</time></trkpt><trkpt lat="45.8221997158275" lon="10.528216388259453"><ele>379.0</ele><time>2026-04-20T08:37:47.001Z</time></trkpt><trkpt lat="45.82233238044055" lon="10.528323869564545"><ele>379.0</ele><time>2026-04-20T08:37:48.001Z</time></trkpt><trkpt lat="45.822473102400515" lon="10.528438336958958"><ele>379.0</ele><time>2026-04-20T08:37:49.001Z</time></trkpt><trkpt lat="45.82261771967244" lon="10.528548047172603"><ele>379.0</ele><time>2026-04-20T08:37:50.001Z</time></trkpt><trkpt lat="45.822735828279185" lon="10.528647752362367"><ele>379.75</ele><time>2026-04-20T08:37:51.001Z</time></trkpt><trkpt lat="45.822855635550866" lon="10.528737521260046"><ele>380.5</ele><time>2026-04-20T08:37:52.001Z</time></trkpt><trkpt lat="45.822986283190026" lon="10.528831444162789"><ele>381.25</ele><time>2026-04-20T08:37:53.001Z</time></trkpt><trkpt lat="45.8231211245218" lon="10.528911035172362"><ele>382.0</ele><time>2026-04-20T08:37:54.001Z</time></trkpt><trkpt lat="45.823261545080335" lon="10.52899514943084"><ele>382.0</ele><time>2026-04-20T08:37:55.001Z</time></trkpt><trkpt lat="45.82339281623216" lon="10.529094085885301"><ele>382.0</ele><time>2026-04-20T08:37:56.001Z</time></trkpt><trkpt lat="45.82355546064602" lon="10.529187307946795"><ele>382.0</ele><time>2026-04-20T08:37:57.001Z</time></trkpt><trkpt lat="45.82372466884128" lon="10.529303023442516"><ele>383.0</ele><time>2026-04-20T08:37:58.001Z</time></trkpt><trkpt lat="45.82387291903442" lon="10.529420475724358"><ele>384.0</ele><time>2026-04-20T08:37:59.001Z</time></trkpt><trkpt lat="45.82400257436917" lon="10.5295349304607"><ele>385.0</ele><time>2026-04-20T08:38:00.001Z</time></trkpt><trkpt lat="45.824137175276455" lon="10.529633771383196"><ele>385.0</ele><time>2026-04-20T08:38:01.001Z</time></trkpt><trkpt lat="45.82426393783101" lon="10.529716164428825"><ele>385.0</ele><time>2026-04-20T08:38:02.001Z</time></trkpt><trkpt lat="45.82441220486504" lon="10.529795291938644"><ele>385.0</ele><time>2026-04-20T08:38:03.001Z</time></trkpt><trkpt lat="45.824552829181705" lon="10.52984594046888"><ele>385.0</ele><time>2026-04-20T08:38:04.001Z</time></trkpt><trkpt lat="45.824683304536165" lon="10.529894617276655"><ele>385.25</ele><time>2026-04-20T08:38:05.001Z</time></trkpt><trkpt lat="45.8248130752332" lon="10.529969330437106"><ele>385.5</ele><time>2026-04-20T08:38:06.001Z</time></trkpt><trkpt lat="45.824911522441774" lon="10.530052216445013"><ele>385.75</ele><time>2026-04-20T08:38:07.001Z</time></trkpt><trkpt lat="45.82502004579356" lon="10.53012387446166"><ele>386.0</ele><time>2026-04-20T08:38:08.001Z</time></trkpt><trkpt lat="45.82507724124719" lon="10.530232976170447"><ele>385.99999999999994</ele><time>2026-04-20T08:38:09.001Z</time></trkpt><trkpt lat="45.825105866851956" lon="10.53033963034968"><ele>386.0</ele><time>2026-04-20T08:38:10.001Z</time></trkpt><trkpt lat="45.825161953884894" lon="10.530417177625965"><ele>386.0</ele><time>2026-04-20T08:38:11.001Z</time></trkpt><trkpt lat="45.82522537453582" lon="10.53052685925028"><ele>386.0</ele><time>2026-04-20T08:38:12.001Z</time></trkpt><trkpt lat="45.82526831747645" lon="10.530598469551544"><ele>385.99999999999994</ele><time>2026-04-20T08:38:13.001Z</time></trkpt><trkpt lat="45.82533495744105" lon="10.530715157670725"><ele>386.0</ele><time>2026-04-20T08:38:15.001Z</time></trkpt><trkpt lat="45.825252034582896" lon="10.530958142094605"><ele>385.25</ele><time>2026-04-20T08:38:18.001Z</time></trkpt><trkpt lat="45.82515079601994" lon="10.531093560902947"><ele>384.5</ele><time>2026-04-20T08:38:20.001Z</time></trkpt><trkpt lat="45.82506368477102" lon="10.531203641662808"><ele>383.75</ele><time>2026-04-20T08:38:21.001Z</time></trkpt><trkpt lat="45.82498496509391" lon="10.531322021233567"><ele>383.0</ele><time>2026-04-20T08:38:22.001Z</time></trkpt><trkpt lat="45.8248934066793" lon="10.531454926737318"><ele>383.0</ele><time>2026-04-20T08:38:23.001Z</time></trkpt><trkpt lat="45.824792172970696" lon="10.531588648012116"><ele>383.0</ele><time>2026-04-20T08:38:24.001Z</time></trkpt><trkpt lat="45.82468511585742" lon="10.53171691398405"><ele>383.0</ele><time>2026-04-20T08:38:25Z</time></trkpt><trkpt lat="45.824568257675345" lon="10.531868486134178"><ele>383.0</ele><time>2026-04-20T08:38:26Z</time></trkpt><trkpt lat="45.82444550610084" lon="10.532025302129354"><ele>382.5</ele><time>2026-04-20T08:38:27Z</time></trkpt><trkpt lat="45.824326142298034" lon="10.53215388919722"><ele>382.0</ele><time>2026-04-20T08:38:28Z</time></trkpt><trkpt lat="45.82422314341847" lon="10.532279216154105"><ele>381.5</ele><time>2026-04-20T08:38:29Z</time></trkpt><trkpt lat="45.82412408126627" lon="10.532427177903017"><ele>381.0</ele><time>2026-04-20T08:38:30Z</time></trkpt><trkpt lat="45.824055003235664" lon="10.532614941384624"><ele>381.0</ele><time>2026-04-20T08:38:31Z</time></trkpt><trkpt lat="45.82398433290432" lon="10.532796716933188"><ele>381.0</ele><time>2026-04-20T08:38:32Z</time></trkpt><trkpt lat="45.823918873881865" lon="10.532995252322259"><ele>381.0</ele><time>2026-04-20T08:38:33Z</time></trkpt><trkpt lat="45.823853042257" lon="10.533187724348826"><ele>381.0</ele><time>2026-04-20T08:38:34Z</time></trkpt><trkpt lat="45.823769149480846" lon="10.53337614633966"><ele>381.0</ele><time>2026-04-20T08:38:35Z</time></trkpt><trkpt lat="45.82372118402665" lon="10.533605264953282"><ele>381.0</ele><time>2026-04-20T08:38:36Z</time></trkpt><trkpt lat="45.823678907006034" lon="10.533812680283853"><ele>381.0</ele><time>2026-04-20T08:38:37Z</time></trkpt><trkpt lat="45.82363308468645" lon="10.534042123457139"><ele>380.6666666666667</ele><time>2026-04-20T08:38:38Z</time></trkpt><trkpt lat="45.823585239838955" lon="10.53426856310553"><ele>380.33333333333337</ele><time>2026-04-20T08:38:39Z</time></trkpt><trkpt lat="45.823535318194416" lon="10.53450094216857"><ele>380.0</ele><time>2026-04-20T08:38:40Z</time></trkpt><trkpt lat="45.823486900787564" lon="10.534723683202895"><ele>380.0</ele><time>2026-04-20T08:38:41Z</time></trkpt><trkpt lat="45.82343254677234" lon="10.53496189640706"><ele>380.0</ele><time>2026-04-20T08:38:42Z</time></trkpt><trkpt lat="45.82337631419714" lon="10.535196371406718"><ele>380.0</ele><time>2026-04-20T08:38:43Z</time></trkpt><trkpt lat="45.823319975271964" lon="10.535416371465633"><ele>379.75</ele><time>2026-04-20T08:38:44Z</time></trkpt><trkpt lat="45.82326256545811" lon="10.535613449216926"><ele>379.5</ele><time>2026-04-20T08:38:45Z</time></trkpt><trkpt lat="45.823198253893956" lon="10.5357949160396"><ele>379.25</ele><time>2026-04-20T08:38:46Z</time></trkpt><trkpt lat="45.823112572839165" lon="10.535983184548652"><ele>379.0</ele><time>2026-04-20T08:38:47Z</time></trkpt><trkpt lat="45.82301019564246" lon="10.536136890552273"><ele>379.0</ele><time>2026-04-20T08:38:48Z</time></trkpt><trkpt lat="45.82290342580213" lon="10.536316574194153"><ele>379.0</ele><time>2026-04-20T08:38:49Z</time></trkpt><trkpt lat="45.82277288695918" lon="10.536475380303894"><ele>379.0</ele><time>2026-04-20T08:38:50Z</time></trkpt><trkpt lat="45.82261421462794" lon="10.536599214501706"><ele>379.0</ele><time>2026-04-20T08:38:51Z</time></trkpt><trkpt lat="45.822462656369005" lon="10.536735001755481"><ele>379.0</ele><time>2026-04-20T08:38:52Z</time></trkpt><trkpt lat="45.822332436698154" lon="10.536879492037118"><ele>379.0</ele><time>2026-04-20T08:38:53Z</time></trkpt><trkpt lat="45.82219144070734" lon="10.536979011088892"><ele>378.3333333333333</ele><time>2026-04-20T08:38:54Z</time></trkpt><trkpt lat="45.82206405581215" lon="10.537102074950628"><ele>377.6666666666667</ele><time>2026-04-20T08:38:55Z</time></trkpt><trkpt lat="45.82194988763705" lon="10.537224498568419"><ele>377.0</ele><time>2026-04-20T08:38:56Z</time></trkpt><trkpt lat="45.821834110196605" lon="10.537370400986655"><ele>376.6666666666667</ele><time>2026-04-20T08:38:57Z</time></trkpt><trkpt lat="45.82172635220583" lon="10.537526010396437"><ele>376.3333333333333</ele><time>2026-04-20T08:38:58Z</time></trkpt><trkpt lat="45.821624322153774" lon="10.537695264743457"><ele>376.0</ele><time>2026-04-20T08:38:59Z</time></trkpt><trkpt lat="45.821522991533996" lon="10.537886332805847"><ele>376.0</ele><time>2026-04-20T08:39:00Z</time></trkpt><trkpt lat="45.82142383652671" lon="10.538076562425605"><ele>376.0</ele><time>2026-04-20T08:39:01Z</time></trkpt><trkpt lat="45.82133666794016" lon="10.538294804271613"><ele>376.0</ele><time>2026-04-20T08:39:02Z</time></trkpt><trkpt lat="45.82125960464747" lon="10.538488701510667"><ele>376.0</ele><time>2026-04-20T08:39:03Z</time></trkpt><trkpt lat="45.82118807856923" lon="10.538669552632545"><ele>376.0</ele><time>2026-04-20T08:39:04Z</time></trkpt><trkpt lat="45.82112045357547" lon="10.538841606372658"><ele>376.0</ele><time>2026-04-20T08:39:05Z</time></trkpt><trkpt lat="45.82104696917889" lon="10.53903456215012"><ele>376.0</ele><time>2026-04-20T08:39:06Z</time></trkpt><trkpt lat="45.82095512930414" lon="10.539231206521627"><ele>375.75</ele><time>2026-04-20T08:39:07Z</time></trkpt><trkpt lat="45.82086095002237" lon="10.539435649855099"><ele>375.5</ele><time>2026-04-20T08:39:08Z</time></trkpt><trkpt lat="45.82078644930308" lon="10.53959926581122"><ele>375.25</ele><time>2026-04-20T08:39:09Z</time></trkpt><trkpt lat="45.82072188120885" lon="10.5397234738269"><ele>375.0</ele><time>2026-04-20T08:39:10Z</time></trkpt><trkpt lat="45.820671701996005" lon="10.539820911463295"><ele>375.5</ele><time>2026-04-20T08:39:11Z</time></trkpt><trkpt lat="45.820611068601245" lon="10.539911203251995"><ele>376.0</ele><time>2026-04-20T08:39:12Z</time></trkpt><trkpt lat="45.82054447133734" lon="10.540030198810467"><ele>376.5</ele><time>2026-04-20T08:39:13Z</time></trkpt><trkpt lat="45.820450042626085" lon="10.540137335925465"><ele>377.0</ele><time>2026-04-20T08:39:14Z</time></trkpt><trkpt lat="45.820333259760986" lon="10.540252193775677"><ele>377.0</ele><time>2026-04-20T08:39:15Z</time></trkpt><trkpt lat="45.820186697077816" lon="10.5403625316022"><ele>377.0</ele><time>2026-04-20T08:39:16Z</time></trkpt><trkpt lat="45.82002510407481" lon="10.540468767741878"><ele>377.0</ele><time>2026-04-20T08:39:17Z</time></trkpt><trkpt lat="45.819854479796334" lon="10.540574552849007"><ele>377.0</ele><time>2026-04-20T08:39:18Z</time></trkpt><trkpt lat="45.81970679237922" lon="10.540681051838815"><ele>377.0</ele><time>2026-04-20T08:39:19Z</time></trkpt><trkpt lat="45.81958094394246" lon="10.540787348620913"><ele>377.0</ele><time>2026-04-20T08:39:20Z</time></trkpt><trkpt lat="45.81946451949082" lon="10.540934963175637"><ele>377.0</ele><time>2026-04-20T08:39:21.001Z</time></trkpt><trkpt lat="45.819360909152685" lon="10.541123478293926"><ele>377.0</ele><time>2026-04-20T08:39:22.001Z</time></trkpt><trkpt lat="45.819261170536656" lon="10.541332418402868"><ele>377.0</ele><time>2026-04-20T08:39:23.001Z</time></trkpt><trkpt lat="45.81916213097058" lon="10.541546418641865"><ele>376.33333333333337</ele><time>2026-04-20T08:39:24.001Z</time></trkpt><trkpt lat="45.81907164791548" lon="10.54176857052077"><ele>375.6666666666667</ele><time>2026-04-20T08:39:25.001Z</time></trkpt><trkpt lat="45.81897659710297" lon="10.541992060454987"><ele>375.0</ele><time>2026-04-20T08:39:26.001Z</time></trkpt><trkpt lat="45.81888319125668" lon="10.54219803777855"><ele>375.0</ele><time>2026-04-20T08:39:27.001Z</time></trkpt><trkpt lat="45.81876616161097" lon="10.542413084128722"><ele>375.0</ele><time>2026-04-20T08:39:28.001Z</time></trkpt><trkpt lat="45.8186331967504" lon="10.542635407602923"><ele>375.0</ele><time>2026-04-20T08:39:29.001Z</time></trkpt><trkpt lat="45.8184880185911" lon="10.542848903808952"><ele>374.3333333333333</ele><time>2026-04-20T08:39:30.001Z</time></trkpt><trkpt lat="45.81834858553133" lon="10.543065294778549"><ele>373.66666666666663</ele><time>2026-04-20T08:39:31.001Z</time></trkpt><trkpt lat="45.81821742088618" lon="10.543296030273588"><ele>373.0</ele><time>2026-04-20T08:39:32.001Z</time></trkpt><trkpt lat="45.81808624057688" lon="10.543518237847548"><ele>372.3333333333333</ele><time>2026-04-20T08:39:33.001Z</time></trkpt><trkpt lat="45.81796454062548" lon="10.543764541273376"><ele>371.6666666666667</ele><time>2026-04-20T08:39:34.001Z</time></trkpt><trkpt lat="45.81784809717541" lon="10.543993623710401"><ele>371.0</ele><time>2026-04-20T08:39:35.001Z</time></trkpt><trkpt lat="45.817750795990655" lon="10.544226603211701"><ele>371.0</ele><time>2026-04-20T08:39:36.001Z</time></trkpt><trkpt lat="45.81755423906367" lon="10.54452633694686"><ele>371.0</ele><time>2026-04-20T08:39:38.001Z</time></trkpt><trkpt lat="45.81746909057784" lon="10.544747226904478"><ele>371.0</ele><time>2026-04-20T08:39:39.001Z</time></trkpt><trkpt lat="45.81737286598508" lon="10.544943629232154"><ele>371.0</ele><time>2026-04-20T08:39:40.001Z</time></trkpt><trkpt lat="45.81728143476792" lon="10.545157607804942"><ele>371.0</ele><time>2026-04-20T08:39:41.001Z</time></trkpt><trkpt lat="45.81718506965243" lon="10.545314401100653"><ele>371.6666666666667</ele><time>2026-04-20T08:39:42.001Z</time></trkpt><trkpt lat="45.81711165449631" lon="10.5455069546493"><ele>372.3333333333333</ele><time>2026-04-20T08:39:43.001Z</time></trkpt><trkpt lat="45.8170468882414" lon="10.545700124034152"><ele>373.0</ele><time>2026-04-20T08:39:44.001Z</time></trkpt><trkpt lat="45.81701538668736" lon="10.545923057001549"><ele>373.0</ele><time>2026-04-20T08:39:45.001Z</time></trkpt><trkpt lat="45.817003025249036" lon="10.546178275025655"><ele>373.0</ele><time>2026-04-20T08:39:46.001Z</time></trkpt><trkpt lat="45.8169948171117" lon="10.546463345359712"><ele>373.0</ele><time>2026-04-20T08:39:47.001Z</time></trkpt><trkpt lat="45.816987097257524" lon="10.546773537372037"><ele>373.3333333333333</ele><time>2026-04-20T08:39:48.001Z</time></trkpt><trkpt lat="45.816981200600395" lon="10.547053793343153"><ele>373.6666666666667</ele><time>2026-04-20T08:39:49.001Z</time></trkpt><trkpt lat="45.81697991021252" lon="10.547278285567305"><ele>374.0</ele><time>2026-04-20T08:39:50.001Z</time></trkpt><trkpt lat="45.81697051175645" lon="10.547466710519135"><ele>374.0</ele><time>2026-04-20T08:39:51.001Z</time></trkpt><trkpt lat="45.8169572309278" lon="10.54764080604705"><ele>374.0</ele><time>2026-04-20T08:39:52.001Z</time></trkpt><trkpt lat="45.81693738710131" lon="10.547793804712601"><ele>374.0</ele><time>2026-04-20T08:39:53.001Z</time></trkpt><trkpt lat="45.81690187198552" lon="10.54793309881765"><ele>374.0</ele><time>2026-04-20T08:39:54.001Z</time></trkpt><trkpt lat="45.816878795221065" lon="10.548026969358785"><ele>374.0</ele><time>2026-04-20T08:39:55.001Z</time></trkpt><trkpt lat="45.816952361872765" lon="10.54814262993025"><ele>375.0</ele><time>2026-04-20T08:39:57.001Z</time></trkpt><trkpt lat="45.8170375952608" lon="10.548217973978527"><ele>376.0</ele><time>2026-04-20T08:39:58.001Z</time></trkpt><trkpt lat="45.81712956657924" lon="10.548336432078193"><ele>377.0</ele><time>2026-04-20T08:39:59.001Z</time></trkpt><trkpt lat="45.81723884554034" lon="10.548460278873684"><ele>378.0</ele><time>2026-04-20T08:40:00.001Z</time></trkpt><trkpt lat="45.817347195354664" lon="10.548617410529188"><ele>378.0</ele><time>2026-04-20T08:40:01.001Z</time></trkpt><trkpt lat="45.817459147897594" lon="10.548790885720447"><ele>378.0</ele><time>2026-04-20T08:40:02.001Z</time></trkpt><trkpt lat="45.817567336033335" lon="10.548979381874133"><ele>378.0</ele><time>2026-04-20T08:40:03.001Z</time></trkpt><trkpt lat="45.817666333896796" lon="10.549181416848166"><ele>378.0</ele><time>2026-04-20T08:40:04.001Z</time></trkpt><trkpt lat="45.817764213853586" lon="10.549399771002294"><ele>378.0</ele><time>2026-04-20T08:40:05.001Z</time></trkpt><trkpt lat="45.81784709992816" lon="10.5496338000993"><ele>378.0</ele><time>2026-04-20T08:40:06.001Z</time></trkpt><trkpt lat="45.81790595316527" lon="10.54988342598791"><ele>379.6666666666667</ele><time>2026-04-20T08:40:07.001Z</time></trkpt><trkpt lat="45.81798266160402" lon="10.550119115708988"><ele>381.33333333333337</ele><time>2026-04-20T08:40:08.001Z</time></trkpt><trkpt lat="45.81807385192599" lon="10.550327686041745"><ele>383.0</ele><time>2026-04-20T08:40:09.001Z</time></trkpt><trkpt lat="45.81819271583797" lon="10.550508080260428"><ele>381.6666666666667</ele><time>2026-04-20T08:40:10.001Z</time></trkpt><trkpt lat="45.81833931484597" lon="10.550658630530249"><ele>380.3333333333333</ele><time>2026-04-20T08:40:11.001Z</time></trkpt><trkpt lat="45.81850939868276" lon="10.550755983000967"><ele>379.0</ele><time>2026-04-20T08:40:12.001Z</time></trkpt><trkpt lat="45.818686679163946" lon="10.550839965190752"><ele>379.0</ele><time>2026-04-20T08:40:13.001Z</time></trkpt><trkpt lat="45.81886831594924" lon="10.550950923801144"><ele>379.0</ele><time>2026-04-20T08:40:14.001Z</time></trkpt><trkpt lat="45.81903680258528" lon="10.551066237402903"><ele>379.0</ele><time>2026-04-20T08:40:15.001Z</time></trkpt><trkpt lat="45.81922726105987" lon="10.551183893507071"><ele>381.0</ele><time>2026-04-20T08:40:16.001Z</time></trkpt><trkpt lat="45.81939271066995" lon="10.551300937293163"><ele>383.0</ele><time>2026-04-20T08:40:17.001Z</time></trkpt><trkpt lat="45.81953293481505" lon="10.551424920587962"><ele>385.0</ele><time>2026-04-20T08:40:18.001Z</time></trkpt><trkpt lat="45.81968215544222" lon="10.551581894043913"><ele>385.0</ele><time>2026-04-20T08:40:19.001Z</time></trkpt><trkpt lat="45.81984981194978" lon="10.551764164790916"><ele>385.0</ele><time>2026-04-20T08:40:20.001Z</time></trkpt><trkpt lat="45.820023155838214" lon="10.551955864946654"><ele>385.0</ele><time>2026-04-20T08:40:21.001Z</time></trkpt><trkpt lat="45.820198456960604" lon="10.552135834698726"><ele>384.33333333333337</ele><time>2026-04-20T08:40:22.001Z</time></trkpt><trkpt lat="45.820379071421506" lon="10.552315125012838"><ele>383.6666666666667</ele><time>2026-04-20T08:40:23.001Z</time></trkpt><trkpt lat="45.8205406240656" lon="10.552490192658222"><ele>383.0</ele><time>2026-04-20T08:40:24.001Z</time></trkpt><trkpt lat="45.82069831824733" lon="10.552649391621477"><ele>383.0</ele><time>2026-04-20T08:40:25.001Z</time></trkpt><trkpt lat="45.82085279960054" lon="10.552829558172535"><ele>383.0</ele><time>2026-04-20T08:40:26.001Z</time></trkpt><trkpt lat="45.821021573591665" lon="10.55292807167422"><ele>383.0</ele><time>2026-04-20T08:40:27.001Z</time></trkpt><trkpt lat="45.821194931540944" lon="10.553028426546389"><ele>385.0</ele><time>2026-04-20T08:40:28.001Z</time></trkpt><trkpt lat="45.82136506976917" lon="10.55311100731935"><ele>387.0</ele><time>2026-04-20T08:40:29.001Z</time></trkpt><trkpt lat="45.82153731739002" lon="10.553215483151002"><ele>389.0</ele><time>2026-04-20T08:40:30.001Z</time></trkpt><trkpt lat="45.82174213238385" lon="10.553340649651801"><ele>391.66666666666663</ele><time>2026-04-20T08:40:31.001Z</time></trkpt><trkpt lat="45.82190372807786" lon="10.55345908269754"><ele>394.33333333333337</ele><time>2026-04-20T08:40:32.001Z</time></trkpt><trkpt lat="45.8220385759033" lon="10.553614377461251"><ele>397.0</ele><time>2026-04-20T08:40:33.001Z</time></trkpt><trkpt lat="45.82218898413051" lon="10.553740936277327"><ele>397.0</ele><time>2026-04-20T08:40:34.001Z</time></trkpt><trkpt lat="45.82234707825305" lon="10.553840053332745"><ele>397.0</ele><time>2026-04-20T08:40:35.001Z</time></trkpt><trkpt lat="45.82252229676829" lon="10.553931878672161"><ele>397.0</ele><time>2026-04-20T08:40:36.001Z</time></trkpt><trkpt lat="45.82269062641068" lon="10.5540292784288"><ele>391.6666666666667</ele><time>2026-04-20T08:40:37.001Z</time></trkpt><trkpt lat="45.822843244546554" lon="10.554123784135681"><ele>386.33333333333337</ele><time>2026-04-20T08:40:38.001Z</time></trkpt><trkpt lat="45.822984019449436" lon="10.554236368799243"><ele>381.0</ele><time>2026-04-20T08:40:39.001Z</time></trkpt><trkpt lat="45.823097658951234" lon="10.554404659852244"><ele>384.0</ele><time>2026-04-20T08:40:40.001Z</time></trkpt><trkpt lat="45.82316740997469" lon="10.55461277452807"><ele>387.0</ele><time>2026-04-20T08:40:41.001Z</time></trkpt><trkpt lat="45.82324208806082" lon="10.55483627391051"><ele>390.0</ele><time>2026-04-20T08:40:42.001Z</time></trkpt><trkpt lat="45.82331555870102" lon="10.555045749119552"><ele>390.0</ele><time>2026-04-20T08:40:43.001Z</time></trkpt><trkpt lat="45.82340850529377" lon="10.555237002698938"><ele>390.0</ele><time>2026-04-20T08:40:44.001Z</time></trkpt><trkpt lat="45.823528108896504" lon="10.555417349644122"><ele>390.0</ele><time>2026-04-20T08:40:45.001Z</time></trkpt><trkpt lat="45.823662203621375" lon="10.555558760614662"><ele>389.0</ele><time>2026-04-20T08:40:46.001Z</time></trkpt><trkpt lat="45.82380826947897" lon="10.555653331947953"><ele>388.0</ele><time>2026-04-20T08:40:47.001Z</time></trkpt><trkpt lat="45.82397868564658" lon="10.55572887559146"><ele>387.0</ele><time>2026-04-20T08:40:48.001Z</time></trkpt><trkpt lat="45.82417271251135" lon="10.555830810747691"><ele>387.33333333333337</ele><time>2026-04-20T08:40:49.001Z</time></trkpt><trkpt lat="45.82435850585671" lon="10.555922710796246"><ele>387.6666666666667</ele><time>2026-04-20T08:40:50.001Z</time></trkpt><trkpt lat="45.824551683477274" lon="10.556096036840222"><ele>388.0</ele><time>2026-04-20T08:40:51.001Z</time></trkpt><trkpt lat="45.824715758059504" lon="10.556278158601101"><ele>388.0</ele><time>2026-04-20T08:40:52.001Z</time></trkpt><trkpt lat="45.82487385045765" lon="10.556466841141726"><ele>388.0</ele><time>2026-04-20T08:40:53.001Z</time></trkpt><trkpt lat="45.82500112790464" lon="10.556632862398297"><ele>388.0</ele><time>2026-04-20T08:40:54.001Z</time></trkpt><trkpt lat="45.82514196314251" lon="10.55676156284375"><ele>386.6666666666667</ele><time>2026-04-20T08:40:55.001Z</time></trkpt><trkpt lat="45.825284286112975" lon="10.556864512932734"><ele>385.33333333333337</ele><time>2026-04-20T08:40:56.001Z</time></trkpt><trkpt lat="45.8254614113642" lon="10.556924822404623"><ele>384.0</ele><time>2026-04-20T08:40:57.001Z</time></trkpt><trkpt lat="45.825648426211906" lon="10.55695038643558"><ele>384.0</ele><time>2026-04-20T08:40:58.001Z</time></trkpt><trkpt lat="45.82585749574418" lon="10.556964477771443"><ele>384.0</ele><time>2026-04-20T08:40:59.001Z</time></trkpt><trkpt lat="45.82607522254965" lon="10.556973268738519"><ele>384.0</ele><time>2026-04-20T08:41:00.001Z</time></trkpt><trkpt lat="45.82629896402915" lon="10.556970782785102"><ele>383.6666666666667</ele><time>2026-04-20T08:41:01.001Z</time></trkpt><trkpt lat="45.82649029238161" lon="10.557000187244682"><ele>383.33333333333337</ele><time>2026-04-20T08:41:02.001Z</time></trkpt><trkpt lat="45.82666936762821" lon="10.557020398624624"><ele>383.0</ele><time>2026-04-20T08:41:03.001Z</time></trkpt><trkpt lat="45.82682412066602" lon="10.55710115828339"><ele>383.0</ele><time>2026-04-20T08:41:04.001Z</time></trkpt><trkpt lat="45.826998377092536" lon="10.557189394795651"><ele>383.0</ele><time>2026-04-20T08:41:05.001Z</time></trkpt><trkpt lat="45.82717616201843" lon="10.557317091993518"><ele>383.0</ele><time>2026-04-20T08:41:06.001Z</time></trkpt><trkpt lat="45.82737415650898" lon="10.557492600311955"><ele>383.0</ele><time>2026-04-20T08:41:07.001Z</time></trkpt><trkpt lat="45.827559725103384" lon="10.55766674685193"><ele>383.0</ele><time>2026-04-20T08:41:08.001Z</time></trkpt><trkpt lat="45.827735809046494" lon="10.557860695642177"><ele>383.0</ele><time>2026-04-20T08:41:09.001Z</time></trkpt><trkpt lat="45.82791239554296" lon="10.558048728111494"><ele>382.6666666666667</ele><time>2026-04-20T08:41:10.001Z</time></trkpt><trkpt lat="45.82809847666163" lon="10.558232868005192"><ele>382.3333333333333</ele><time>2026-04-20T08:41:11.001Z</time></trkpt><trkpt lat="45.828278516892475" lon="10.55842157062879"><ele>382.0</ele><time>2026-04-20T08:41:12.001Z</time></trkpt><trkpt lat="45.82846503115082" lon="10.558611291211033"><ele>383.0</ele><time>2026-04-20T08:41:13.001Z</time></trkpt><trkpt lat="45.82865289318621" lon="10.558800440526296"><ele>384.0</ele><time>2026-04-20T08:41:14.001Z</time></trkpt><trkpt lat="45.82883336325912" lon="10.55898531249439"><ele>384.0</ele><time>2026-04-20T08:41:15.001Z</time></trkpt><trkpt lat="45.8289960246099" lon="10.559148618488933"><ele>384.0</ele><time>2026-04-20T08:41:16.001Z</time></trkpt><trkpt lat="45.8291607405327" lon="10.559299542751162"><ele>384.0</ele><time>2026-04-20T08:41:17.001Z</time></trkpt><trkpt lat="45.82931697755889" lon="10.559428595113006"><ele>383.3333333333333</ele><time>2026-04-20T08:41:18.001Z</time></trkpt><trkpt lat="45.82945454790333" lon="10.559578281675309"><ele>382.66666666666663</ele><time>2026-04-20T08:41:19.001Z</time></trkpt><trkpt lat="45.82956884576917" lon="10.55975527245399"><ele>382.0</ele><time>2026-04-20T08:41:20.001Z</time></trkpt><trkpt lat="45.82969432957021" lon="10.559953917329352"><ele>382.0</ele><time>2026-04-20T08:41:21.001Z</time></trkpt><trkpt lat="45.829810822574544" lon="10.560163328528938"><ele>382.0</ele><time>2026-04-20T08:41:22.001Z</time></trkpt><trkpt lat="45.82989730535762" lon="10.560354643981954"><ele>382.0</ele><time>2026-04-20T08:41:23.001Z</time></trkpt><trkpt lat="45.83001210013657" lon="10.560542398804914"><ele>381.3333333333333</ele><time>2026-04-20T08:41:24.001Z</time></trkpt><trkpt lat="45.830131096010504" lon="10.560718632261887"><ele>380.6666666666667</ele><time>2026-04-20T08:41:25.001Z</time></trkpt><trkpt lat="45.83026666607656" lon="10.560878753959068"><ele>380.0</ele><time>2026-04-20T08:41:26.001Z</time></trkpt><trkpt lat="45.83041579288271" lon="10.561048278652516"><ele>382.0</ele><time>2026-04-20T08:41:27.001Z</time></trkpt><trkpt lat="45.83053050580301" lon="10.561233250208051"><ele>384.0</ele><time>2026-04-20T08:41:28.001Z</time></trkpt><trkpt lat="45.8306366539472" lon="10.561424706671446"><ele>386.0</ele><time>2026-04-20T08:41:29.001Z</time></trkpt><trkpt lat="45.830737856326245" lon="10.561649603854129"><ele>386.0</ele><time>2026-04-20T08:41:30.001Z</time></trkpt><trkpt lat="45.83082175556758" lon="10.561883107021467"><ele>386.0</ele><time>2026-04-20T08:41:31Z</time></trkpt><trkpt lat="45.83090039871654" lon="10.56208634119523"><ele>386.0</ele><time>2026-04-20T08:41:32Z</time></trkpt><trkpt lat="45.83103469156084" lon="10.56228116640596"><ele>385.0</ele><time>2026-04-20T08:41:33Z</time></trkpt><trkpt lat="45.8311687291103" lon="10.562452330808101"><ele>384.0</ele><time>2026-04-20T08:41:34.001Z</time></trkpt><trkpt lat="45.83130326124606" lon="10.562578419057486"><ele>383.0</ele><time>2026-04-20T08:41:35.001Z</time></trkpt><trkpt lat="45.831447399506914" lon="10.562682898159347"><ele>383.0</ele><time>2026-04-20T08:41:36.001Z</time></trkpt><trkpt lat="45.831617355159366" lon="10.562770938234044"><ele>383.0</ele><time>2026-04-20T08:41:37Z</time></trkpt><trkpt lat="45.83178417191619" lon="10.562866459183645"><ele>383.0</ele><time>2026-04-20T08:41:38Z</time></trkpt><trkpt lat="45.83194743638851" lon="10.562978645797108"><ele>383.6666666666667</ele><time>2026-04-20T08:41:39.001Z</time></trkpt><trkpt lat="45.83210258992529" lon="10.563101502008054"><ele>384.33333333333337</ele><time>2026-04-20T08:41:40.001Z</time></trkpt><trkpt lat="45.832264986555785" lon="10.563255833090231"><ele>385.0</ele><time>2026-04-20T08:41:41.001Z</time></trkpt><trkpt lat="45.83243688511234" lon="10.563427713120612"><ele>385.0</ele><time>2026-04-20T08:41:42.001Z</time></trkpt><trkpt lat="45.83261008975585" lon="10.563611680757463"><ele>385.0</ele><time>2026-04-20T08:41:43.001Z</time></trkpt><trkpt lat="45.83278188923938" lon="10.563760133008124"><ele>385.0</ele><time>2026-04-20T08:41:44.001Z</time></trkpt><trkpt lat="45.83294480743721" lon="10.563922414521237"><ele>384.6666666666667</ele><time>2026-04-20T08:41:45.001Z</time></trkpt><trkpt lat="45.83312734486085" lon="10.564034356861194"><ele>384.33333333333337</ele><time>2026-04-20T08:41:46Z</time></trkpt><trkpt lat="45.83332704885423" lon="10.56410529233533"><ele>384.0</ele><time>2026-04-20T08:41:47Z</time></trkpt><trkpt lat="45.83348281863296" lon="10.564175412154407"><ele>383.3333333333333</ele><time>2026-04-20T08:41:48Z</time></trkpt><trkpt lat="45.8336503127912" lon="10.564212999718588"><ele>382.66666666666663</ele><time>2026-04-20T08:41:49Z</time></trkpt><trkpt lat="45.83382366769192" lon="10.564206597991864"><ele>382.0</ele><time>2026-04-20T08:41:50Z</time></trkpt><trkpt lat="45.83398320538293" lon="10.564192011838989"><ele>382.0</ele><time>2026-04-20T08:41:51Z</time></trkpt><trkpt lat="45.834153118288256" lon="10.564192329824657"><ele>382.0</ele><time>2026-04-20T08:41:52Z</time></trkpt><trkpt lat="45.83433097389584" lon="10.564212235903062"><ele>382.0</ele><time>2026-04-20T08:41:53Z</time></trkpt><trkpt lat="45.83450947403188" lon="10.564324765241947"><ele>383.0</ele><time>2026-04-20T08:41:54Z</time></trkpt><trkpt lat="45.83467567512221" lon="10.564468060485556"><ele>384.0</ele><time>2026-04-20T08:41:55Z</time></trkpt><trkpt lat="45.83483867330996" lon="10.56461643254407"><ele>385.0</ele><time>2026-04-20T08:41:56Z</time></trkpt><trkpt lat="45.83500399861886" lon="10.564743441450949"><ele>384.33333333333337</ele><time>2026-04-20T08:41:57Z</time></trkpt><trkpt lat="45.835182698581875" lon="10.56490766974866"><ele>383.6666666666667</ele><time>2026-04-20T08:41:58Z</time></trkpt><trkpt lat="45.835364546201724" lon="10.56504352522966"><ele>383.0</ele><time>2026-04-20T08:41:59Z</time></trkpt><trkpt lat="45.83554305986956" lon="10.565137851104247"><ele>383.0</ele><time>2026-04-20T08:42:00Z</time></trkpt><trkpt lat="45.8357136879021" lon="10.565236534945184"><ele>383.0</ele><time>2026-04-20T08:42:01Z</time></trkpt><trkpt lat="45.83590881466549" lon="10.565312521540848"><ele>383.0</ele><time>2026-04-20T08:42:02Z</time></trkpt><trkpt lat="45.836114352231725" lon="10.565376095757328"><ele>384.6666666666667</ele><time>2026-04-20T08:42:03Z</time></trkpt><trkpt lat="45.83631120503448" lon="10.565446743272998"><ele>386.33333333333337</ele><time>2026-04-20T08:42:04Z</time></trkpt><trkpt lat="45.83651650674861" lon="10.565499451531576"><ele>388.0</ele><time>2026-04-20T08:42:05Z</time></trkpt><trkpt lat="45.83669965977329" lon="10.56552325991723"><ele>387.33333333333337</ele><time>2026-04-20T08:42:06Z</time></trkpt><trkpt lat="45.836899761580085" lon="10.565572135991962"><ele>386.66666666666663</ele><time>2026-04-20T08:42:07Z</time></trkpt><trkpt lat="45.83706310604186" lon="10.565605973328065"><ele>386.0</ele><time>2026-04-20T08:42:08Z</time></trkpt><trkpt lat="45.8372004162722" lon="10.565621905298414"><ele>386.0</ele><time>2026-04-20T08:42:09Z</time></trkpt><trkpt lat="45.83730275125376" lon="10.56561679047806"><ele>386.0</ele><time>2026-04-20T08:42:10Z</time></trkpt><trkpt lat="45.837394163833004" lon="10.565574411905954"><ele>386.0</ele><time>2026-04-20T08:42:11Z</time></trkpt><trkpt lat="45.83748351723686" lon="10.565469748954078"><ele>386.0</ele><time>2026-04-20T08:42:12Z</time></trkpt><trkpt lat="45.83753958988513" lon="10.565346908928301"><ele>386.0</ele><time>2026-04-20T08:42:13Z</time></trkpt><trkpt lat="45.8376345123672" lon="10.5652762284144"><ele>386.0</ele><time>2026-04-20T08:42:14Z</time></trkpt><trkpt lat="45.83775138984933" lon="10.565277839461244"><ele>386.0</ele><time>2026-04-20T08:42:15Z</time></trkpt><trkpt lat="45.83788308029035" lon="10.565337578711118"><ele>386.0</ele><time>2026-04-20T08:42:16Z</time></trkpt><trkpt lat="45.83804242547083" lon="10.565425150385865"><ele>386.0</ele><time>2026-04-20T08:42:17Z</time></trkpt><trkpt lat="45.83820490272776" lon="10.565511595355833"><ele>385.66666666666663</ele><time>2026-04-20T08:42:18Z</time></trkpt><trkpt lat="45.83838273778097" lon="10.565606523683336"><ele>385.33333333333337</ele><time>2026-04-20T08:42:19Z</time></trkpt><trkpt lat="45.83857470620911" lon="10.56570899534069"><ele>385.0</ele><time>2026-04-20T08:42:20Z</time></trkpt><trkpt lat="45.838759756068924" lon="10.565809002780528"><ele>384.6666666666667</ele><time>2026-04-20T08:42:21Z</time></trkpt><trkpt lat="45.83894405879657" lon="10.565908418773452"><ele>384.33333333333337</ele><time>2026-04-20T08:42:22Z</time></trkpt><trkpt lat="45.839101488190416" lon="10.566019977913898"><ele>384.0</ele><time>2026-04-20T08:42:23Z</time></trkpt><trkpt lat="45.83928208210529" lon="10.566116514506216"><ele>384.33333333333337</ele><time>2026-04-20T08:42:24Z</time></trkpt><trkpt lat="45.83946580357115" lon="10.566217647377808"><ele>384.6666666666667</ele><time>2026-04-20T08:42:25Z</time></trkpt><trkpt lat="45.83964013245078" lon="10.56630703569659"><ele>385.0</ele><time>2026-04-20T08:42:26Z</time></trkpt><trkpt lat="45.839817964532045" lon="10.566394664710696"><ele>385.0</ele><time>2026-04-20T08:42:27Z</time></trkpt><trkpt lat="45.84000495189117" lon="10.566484519786414"><ele>385.0</ele><time>2026-04-20T08:42:28Z</time></trkpt><trkpt lat="45.84018261369738" lon="10.566578986818504"><ele>385.0</ele><time>2026-04-20T08:42:29Z</time></trkpt><trkpt lat="45.84033042033808" lon="10.566673098164953"><ele>385.33333333333337</ele><time>2026-04-20T08:42:30Z</time></trkpt><trkpt lat="45.840491826183396" lon="10.566755356971164"><ele>385.66666666666663</ele><time>2026-04-20T08:42:31Z</time></trkpt><trkpt lat="45.84065197655471" lon="10.566833437777175"><ele>386.0</ele><time>2026-04-20T08:42:32Z</time></trkpt><trkpt lat="45.84080747788619" lon="10.566918003635408"><ele>386.0</ele><time>2026-04-20T08:42:33Z</time></trkpt><trkpt lat="45.840959306386054" lon="10.56702451688733"><ele>386.0</ele><time>2026-04-20T08:42:34Z</time></trkpt><trkpt lat="45.841115714385886" lon="10.5671541544101"><ele>386.0</ele><time>2026-04-20T08:42:35Z</time></trkpt><trkpt lat="45.84129283314974" lon="10.567299162786124"><ele>386.5</ele><time>2026-04-20T08:42:36Z</time></trkpt><trkpt lat="45.84162721679886" lon="10.567656130600307"><ele>387.0</ele><time>2026-04-20T08:42:38Z</time></trkpt><trkpt lat="45.84177785479142" lon="10.567801792499653"><ele>386.66666666666663</ele><time>2026-04-20T08:42:39Z</time></trkpt><trkpt lat="45.841914577346365" lon="10.567949392564753"><ele>386.3333333333333</ele><time>2026-04-20T08:42:40Z</time></trkpt><trkpt lat="45.84203413028673" lon="10.568125127312447"><ele>386.0</ele><time>2026-04-20T08:42:41Z</time></trkpt><trkpt lat="45.842182284892225" lon="10.568294215162341"><ele>386.0</ele><time>2026-04-20T08:42:42Z</time></trkpt><trkpt lat="45.842315578531185" lon="10.56849460939495"><ele>386.0</ele><time>2026-04-20T08:42:43Z</time></trkpt><trkpt lat="45.84246480081076" lon="10.568683281815588"><ele>386.0</ele><time>2026-04-20T08:42:44Z</time></trkpt><trkpt lat="45.842599771795435" lon="10.56886557888129"><ele>386.0</ele><time>2026-04-20T08:42:45Z</time></trkpt><trkpt lat="45.84274291538374" lon="10.569051847716379"><ele>386.0</ele><time>2026-04-20T08:42:46Z</time></trkpt><trkpt lat="45.8428899649864" lon="10.569242965764248"><ele>386.0</ele><time>2026-04-20T08:42:47Z</time></trkpt><trkpt lat="45.84302250937302" lon="10.569425054373282"><ele>387.66666666666663</ele><time>2026-04-20T08:42:48Z</time></trkpt><trkpt lat="45.84315463578405" lon="10.569611039802632"><ele>389.33333333333337</ele><time>2026-04-20T08:42:49Z</time></trkpt><trkpt lat="45.843278094024605" lon="10.569811783412526"><ele>391.0</ele><time>2026-04-20T08:42:50Z</time></trkpt><trkpt lat="45.84338222240412" lon="10.570034518501531"><ele>389.6666666666667</ele><time>2026-04-20T08:42:51Z</time></trkpt><trkpt lat="45.84348142428272" lon="10.57027151448567"><ele>388.33333333333337</ele><time>2026-04-20T08:42:52Z</time></trkpt><trkpt lat="45.843589028717844" lon="10.570511967188583"><ele>387.0</ele><time>2026-04-20T08:42:53Z</time></trkpt><trkpt lat="45.84367644014791" lon="10.5707643326664"><ele>387.0</ele><time>2026-04-20T08:42:54Z</time></trkpt><trkpt lat="45.843802229388345" lon="10.571032458063904"><ele>387.0</ele><time>2026-04-20T08:42:55Z</time></trkpt><trkpt lat="45.84387464403426" lon="10.571311118213666"><ele>387.0</ele><time>2026-04-20T08:42:56Z</time></trkpt><trkpt lat="45.84398744246578" lon="10.571585800244401"><ele>387.0</ele><time>2026-04-20T08:42:57Z</time></trkpt><trkpt lat="45.84406086882684" lon="10.57183853766763"><ele>387.0</ele><time>2026-04-20T08:42:58Z</time></trkpt><trkpt lat="45.84415000273087" lon="10.572069920578139"><ele>387.0</ele><time>2026-04-20T08:42:59Z</time></trkpt><trkpt lat="45.84423689808175" lon="10.5722998698549"><ele>386.66666666666663</ele><time>2026-04-20T08:43:00Z</time></trkpt><trkpt lat="45.84433572902561" lon="10.57251881671751"><ele>386.3333333333333</ele><time>2026-04-20T08:43:01Z</time></trkpt><trkpt lat="45.84444926294059" lon="10.572723443867647"><ele>386.0</ele><time>2026-04-20T08:43:02Z</time></trkpt><trkpt lat="45.844594701629795" lon="10.572916385628442"><ele>386.0</ele><time>2026-04-20T08:43:03Z</time></trkpt><trkpt lat="45.844753035373024" lon="10.573079193937772"><ele>386.0</ele><time>2026-04-20T08:43:04Z</time></trkpt><trkpt lat="45.84490310704828" lon="10.573233320625464"><ele>386.0</ele><time>2026-04-20T08:43:05Z</time></trkpt><trkpt lat="45.84503831534954" lon="10.573381414170157"><ele>386.0</ele><time>2026-04-20T08:43:06Z</time></trkpt><trkpt lat="45.8451849315007" lon="10.57353735985594"><ele>386.0</ele><time>2026-04-20T08:43:07Z</time></trkpt><trkpt lat="45.84535396259089" lon="10.573689749443906"><ele>386.0</ele><time>2026-04-20T08:43:08Z</time></trkpt><trkpt lat="45.84550782801348" lon="10.573850258848474"><ele>386.0</ele><time>2026-04-20T08:43:09Z</time></trkpt><trkpt lat="45.84566701725422" lon="10.574019818576986"><ele>386.0</ele><time>2026-04-20T08:43:10Z</time></trkpt><trkpt lat="45.845818246648804" lon="10.57418628880055"><ele>386.0</ele><time>2026-04-20T08:43:11Z</time></trkpt><trkpt lat="45.84596101089174" lon="10.57432919105427"><ele>386.3333333333333</ele><time>2026-04-20T08:43:12Z</time></trkpt><trkpt lat="45.84611426991468" lon="10.574475253012965"><ele>386.66666666666663</ele><time>2026-04-20T08:43:13Z</time></trkpt><trkpt lat="45.84626828671969" lon="10.574614059158508"><ele>387.0</ele><time>2026-04-20T08:43:14Z</time></trkpt><trkpt lat="45.846411978882614" lon="10.57474425183669"><ele>387.0</ele><time>2026-04-20T08:43:15Z</time></trkpt><trkpt lat="45.84653924691071" lon="10.574865593822752"><ele>387.0</ele><time>2026-04-20T08:43:16Z</time></trkpt><trkpt lat="45.84664275601005" lon="10.5749902337096"><ele>387.0</ele><time>2026-04-20T08:43:17Z</time></trkpt><trkpt lat="45.84677134369642" lon="10.575140867041958"><ele>387.33333333333337</ele><time>2026-04-20T08:43:18Z</time></trkpt><trkpt lat="45.846871515007706" lon="10.575326133958228"><ele>387.6666666666667</ele><time>2026-04-20T08:43:19Z</time></trkpt><trkpt lat="45.84696473882545" lon="10.575517150098788"><ele>388.0</ele><time>2026-04-20T08:43:20Z</time></trkpt><trkpt lat="45.84703605425078" lon="10.575695493601406"><ele>388.25</ele><time>2026-04-20T08:43:21Z</time></trkpt><trkpt lat="45.847109647472806" lon="10.575862509114284"><ele>388.5</ele><time>2026-04-20T08:43:22Z</time></trkpt><trkpt lat="45.847190051980505" lon="10.576051020937369"><ele>388.75</ele><time>2026-04-20T08:43:23Z</time></trkpt><trkpt lat="45.847239510039316" lon="10.576257413323006"><ele>389.0</ele><time>2026-04-20T08:43:24Z</time></trkpt><trkpt lat="45.84731776928605" lon="10.576454640998126"><ele>389.0</ele><time>2026-04-20T08:43:25Z</time></trkpt><trkpt lat="45.84739980141222" lon="10.576647025194152"><ele>389.0</ele><time>2026-04-20T08:43:26Z</time></trkpt><trkpt lat="45.84750377609194" lon="10.576842070345261"><ele>389.0</ele><time>2026-04-20T08:43:27Z</time></trkpt><trkpt lat="45.84758972837404" lon="10.577032326735361"><ele>389.25</ele><time>2026-04-20T08:43:28Z</time></trkpt><trkpt lat="45.84764628570792" lon="10.577235240971794"><ele>389.5</ele><time>2026-04-20T08:43:29Z</time></trkpt><trkpt lat="45.847711451971534" lon="10.577436002258366"><ele>389.75</ele><time>2026-04-20T08:43:30Z</time></trkpt><trkpt lat="45.84775245993474" lon="10.57762740971541"><ele>390.0</ele><time>2026-04-20T08:43:31Z</time></trkpt><trkpt lat="45.847783250918866" lon="10.577808000599296"><ele>390.5</ele><time>2026-04-20T08:43:32Z</time></trkpt><trkpt lat="45.8478209301308" lon="10.5779672002268"><ele>391.0</ele><time>2026-04-20T08:43:33.001Z</time></trkpt><trkpt lat="45.84783526374077" lon="10.578120170834083"><ele>391.5</ele><time>2026-04-20T08:43:34.001Z</time></trkpt><trkpt lat="45.84787131171273" lon="10.578266349591038"><ele>392.0</ele><time>2026-04-20T08:43:35.001Z</time></trkpt><trkpt lat="45.84793092842688" lon="10.578414491804027"><ele>392.0</ele><time>2026-04-20T08:43:36Z</time></trkpt><trkpt lat="45.847982133429696" lon="10.578530109521838"><ele>392.0</ele><time>2026-04-20T08:43:37.001Z</time></trkpt><trkpt lat="45.848053018191564" lon="10.578611979862478"><ele>392.0</ele><time>2026-04-20T08:43:38.001Z</time></trkpt><trkpt lat="45.84812469684089" lon="10.578729922994345"><ele>392.0</ele><time>2026-04-20T08:43:39.001Z</time></trkpt><trkpt lat="45.8481882463931" lon="10.578844749095492"><ele>392.0</ele><time>2026-04-20T08:43:40Z</time></trkpt><trkpt lat="45.84823096436559" lon="10.578943552397872"><ele>392.40000000000003</ele><time>2026-04-20T08:43:41Z</time></trkpt><trkpt lat="45.848265705202635" lon="10.579083347573935"><ele>392.8</ele><time>2026-04-20T08:43:43.001Z</time></trkpt><trkpt lat="45.84826855371804" lon="10.579216842463962"><ele>393.2</ele><time>2026-04-20T08:43:45.001Z</time></trkpt><trkpt lat="45.8482409314895" lon="10.579336066362542"><ele>393.6</ele><time>2026-04-20T08:43:46.001Z</time></trkpt><trkpt lat="45.848190588090524" lon="10.579471647997082"><ele>394.0</ele><time>2026-04-20T08:43:47.001Z</time></trkpt><trkpt lat="45.84812673211529" lon="10.57961996097526"><ele>394.25</ele><time>2026-04-20T08:43:48.001Z</time></trkpt><trkpt lat="45.848061887685645" lon="10.579794391679764"><ele>394.5</ele><time>2026-04-20T08:43:49.001Z</time></trkpt><trkpt lat="45.84799265118119" lon="10.579974669046285"><ele>394.75</ele><time>2026-04-20T08:43:50.001Z</time></trkpt><trkpt lat="45.8479718931689" lon="10.580147066168589"><ele>395.0</ele><time>2026-04-20T08:43:51.001Z</time></trkpt><trkpt lat="45.84793634149651" lon="10.580322927217166"><ele>396.0</ele><time>2026-04-20T08:43:52.001Z</time></trkpt><trkpt lat="45.84790167759716" lon="10.580476203761412"><ele>397.0</ele><time>2026-04-20T08:43:53.001Z</time></trkpt><trkpt lat="45.84787413377813" lon="10.580650352679628"><ele>398.0</ele><time>2026-04-20T08:43:54.001Z</time></trkpt><trkpt lat="45.847828139951446" lon="10.580813168321463"><ele>399.0</ele><time>2026-04-20T08:43:55.001Z</time></trkpt><trkpt lat="45.84779029197898" lon="10.580980643652326"><ele>399.0</ele><time>2026-04-20T08:43:56.001Z</time></trkpt><trkpt lat="45.84773851204377" lon="10.581113590552318"><ele>399.0</ele><time>2026-04-20T08:43:57.001Z</time></trkpt><trkpt lat="45.84767101158159" lon="10.581240447321637"><ele>399.0</ele><time>2026-04-20T08:43:58.001Z</time></trkpt><trkpt lat="45.847581540548646" lon="10.581352672029519"><ele>399.0</ele><time>2026-04-20T08:43:59Z</time></trkpt><trkpt lat="45.8474735511314" lon="10.581508172059818"><ele>398.75</ele><time>2026-04-20T08:44:00Z</time></trkpt><trkpt lat="45.84736810611662" lon="10.58162768718582"><ele>398.5</ele><time>2026-04-20T08:44:01Z</time></trkpt><trkpt lat="45.84722400134027" lon="10.58170802162373"><ele>398.25</ele><time>2026-04-20T08:44:02Z</time></trkpt><trkpt lat="45.84709455499406" lon="10.581830454121278"><ele>398.0</ele><time>2026-04-20T08:44:03Z</time></trkpt><trkpt lat="45.84699719122553" lon="10.581959161843127"><ele>397.5</ele><time>2026-04-20T08:44:04Z</time></trkpt><trkpt lat="45.846904577349164" lon="10.582070894908052"><ele>397.0</ele><time>2026-04-20T08:44:05Z</time></trkpt><trkpt lat="45.846793313228964" lon="10.582161015129756"><ele>396.5</ele><time>2026-04-20T08:44:06Z</time></trkpt><trkpt lat="45.84665646917717" lon="10.58220940028262"><ele>396.0</ele><time>2026-04-20T08:44:07Z</time></trkpt><trkpt lat="45.84651970364503" lon="10.582320934410046"><ele>396.0</ele><time>2026-04-20T08:44:08Z</time></trkpt><trkpt lat="45.84635747665423" lon="10.582410609157034"><ele>396.0</ele><time>2026-04-20T08:44:09Z</time></trkpt><trkpt lat="45.84618548264569" lon="10.582460693593378"><ele>396.0</ele><time>2026-04-20T08:44:10Z</time></trkpt><trkpt lat="45.84600734544662" lon="10.582545535851908"><ele>395.33333333333337</ele><time>2026-04-20T08:44:11Z</time></trkpt><trkpt lat="45.84583489235669" lon="10.582618665675609"><ele>394.6666666666667</ele><time>2026-04-20T08:44:12Z</time></trkpt><trkpt lat="45.84564062254671" lon="10.582692633846541"><ele>394.0</ele><time>2026-04-20T08:44:13Z</time></trkpt><trkpt lat="45.84545286715646" lon="10.582777500992663"><ele>394.33333333333337</ele><time>2026-04-20T08:44:14Z</time></trkpt><trkpt lat="45.84525611118063" lon="10.582894574729435"><ele>394.66666666666663</ele><time>2026-04-20T08:44:15Z</time></trkpt><trkpt lat="45.845053525469666" lon="10.58300467227475"><ele>395.0</ele><time>2026-04-20T08:44:16Z</time></trkpt><trkpt lat="45.8448419156475" lon="10.583074816126594"><ele>395.0</ele><time>2026-04-20T08:44:17Z</time></trkpt><trkpt lat="45.844652700932464" lon="10.58314144770235"><ele>395.0</ele><time>2026-04-20T08:44:18Z</time></trkpt><trkpt lat="45.84445915399627" lon="10.583237717551437"><ele>395.0</ele><time>2026-04-20T08:44:19Z</time></trkpt><trkpt lat="45.844271168852416" lon="10.583325427293556"><ele>395.66666666666663</ele><time>2026-04-20T08:44:20Z</time></trkpt><trkpt lat="45.84407066262783" lon="10.583418223303305"><ele>396.33333333333337</ele><time>2026-04-20T08:44:21Z</time></trkpt><trkpt lat="45.84388223690675" lon="10.583496828091976"><ele>397.0</ele><time>2026-04-20T08:44:22Z</time></trkpt><trkpt lat="45.84368543960138" lon="10.583603036636068"><ele>399.0</ele><time>2026-04-20T08:44:23Z</time></trkpt><trkpt lat="45.84346095867862" lon="10.583706877734071"><ele>401.0</ele><time>2026-04-20T08:44:24Z</time></trkpt><trkpt lat="45.84324636414948" lon="10.583816447524173"><ele>401.0</ele><time>2026-04-20T08:44:25Z</time></trkpt><trkpt lat="45.84304979266428" lon="10.583899648747975"><ele>401.0</ele><time>2026-04-20T08:44:26Z</time></trkpt><trkpt lat="45.842850051207705" lon="10.584002666625754"><ele>401.0</ele><time>2026-04-20T08:44:27Z</time></trkpt><trkpt lat="45.84269585598665" lon="10.584098187481676"><ele>400.3333333333333</ele><time>2026-04-20T08:44:28Z</time></trkpt><trkpt lat="45.842550561940484" lon="10.584193636572202"><ele>399.66666666666663</ele><time>2026-04-20T08:44:29Z</time></trkpt><trkpt lat="45.84238489834273" lon="10.584296305441535"><ele>399.0</ele><time>2026-04-20T08:44:30Z</time></trkpt><trkpt lat="45.84224464929264" lon="10.584340719334364"><ele>399.0</ele><time>2026-04-20T08:44:31Z</time></trkpt><trkpt lat="45.84209045389667" lon="10.584349238516026"><ele>399.0</ele><time>2026-04-20T08:44:32Z</time></trkpt><trkpt lat="45.8419216031092" lon="10.584329114206112"><ele>399.0</ele><time>2026-04-20T08:44:33Z</time></trkpt><trkpt lat="45.841759365174454" lon="10.584312091038248"><ele>400.5</ele><time>2026-04-20T08:44:34Z</time></trkpt><trkpt lat="45.84161824733833" lon="10.584255543654537"><ele>402.0</ele><time>2026-04-20T08:44:35Z</time></trkpt><trkpt lat="45.84148180048827" lon="10.584168287484502"><ele>403.5</ele><time>2026-04-20T08:44:36Z</time></trkpt><trkpt lat="45.84136801195531" lon="10.58408810982868"><ele>405.0</ele><time>2026-04-20T08:44:37Z</time></trkpt><trkpt lat="45.84125730929448" lon="10.583934372420696"><ele>405.0</ele><time>2026-04-20T08:44:38Z</time></trkpt><trkpt lat="45.841196966175815" lon="10.583757086908642"><ele>405.0</ele><time>2026-04-20T08:44:39Z</time></trkpt><trkpt lat="45.84114637710961" lon="10.583555009573386"><ele>405.0</ele><time>2026-04-20T08:44:40Z</time></trkpt><trkpt lat="45.84111012805851" lon="10.58333824659385"><ele>405.0</ele><time>2026-04-20T08:44:41Z</time></trkpt><trkpt lat="45.84110754599563" lon="10.583118807485889"><ele>404.75</ele><time>2026-04-20T08:44:42Z</time></trkpt><trkpt lat="45.84112374909991" lon="10.582881269883803"><ele>404.5</ele><time>2026-04-20T08:44:43Z</time></trkpt><trkpt lat="45.841132791850605" lon="10.582687219912676"><ele>404.25</ele><time>2026-04-20T08:44:44Z</time></trkpt><trkpt lat="45.84116066916072" lon="10.582528247838445"><ele>404.0</ele><time>2026-04-20T08:44:45Z</time></trkpt><trkpt lat="45.841176117768754" lon="10.582377879185906"><ele>403.66666666666663</ele><time>2026-04-20T08:44:46Z</time></trkpt><trkpt lat="45.84116867076101" lon="10.582257550426062"><ele>403.3333333333333</ele><time>2026-04-20T08:44:47Z</time></trkpt><trkpt lat="45.84117565264191" lon="10.582141253044917"><ele>403.0</ele><time>2026-04-20T08:44:49Z</time></trkpt><trkpt lat="45.84112083865219" lon="10.582063128170578"><ele>402.66666666666663</ele><time>2026-04-20T08:44:50Z</time></trkpt><trkpt lat="45.84103098782907" lon="10.582074230499277"><ele>402.3333333333333</ele><time>2026-04-20T08:44:51Z</time></trkpt><trkpt lat="45.840984274663064" lon="10.582200345420008"><ele>402.0</ele><time>2026-04-20T08:44:53Z</time></trkpt><trkpt lat="45.840930272018134" lon="10.582481237665892"><ele>410.66666666666663</ele><time>2026-04-20T08:44:55Z</time></trkpt><trkpt lat="45.84087993218227" lon="10.582749933887948"><ele>419.3333333333333</ele><time>2026-04-20T08:44:56Z</time></trkpt><trkpt lat="45.84080797657493" lon="10.582991961544002"><ele>428.0</ele><time>2026-04-20T08:44:57Z</time></trkpt><trkpt lat="45.84075270965629" lon="10.583241989406028"><ele>428.0</ele><time>2026-04-20T08:44:58Z</time></trkpt><trkpt lat="45.840712168593896" lon="10.583546304974172"><ele>428.0</ele><time>2026-04-20T08:44:59Z</time></trkpt><trkpt lat="45.84067482072171" lon="10.583851708181156"><ele>428.0</ele><time>2026-04-20T08:45:00Z</time></trkpt><trkpt lat="45.84066641537517" lon="10.584158708870403"><ele>428.3333333333333</ele><time>2026-04-20T08:45:01Z</time></trkpt><trkpt lat="45.840627895242555" lon="10.584445574202464"><ele>428.66666666666663</ele><time>2026-04-20T08:45:02Z</time></trkpt><trkpt lat="45.84060199558523" lon="10.584720040446468"><ele>429.0</ele><time>2026-04-20T08:45:03Z</time></trkpt><trkpt lat="45.840582618534796" lon="10.584991587666604"><ele>431.0</ele><time>2026-04-20T08:45:04Z</time></trkpt><trkpt lat="45.840563034099205" lon="10.585220874478907"><ele>433.0</ele><time>2026-04-20T08:45:05Z</time></trkpt><trkpt lat="45.84055708625702" lon="10.585424144221705"><ele>435.0</ele><time>2026-04-20T08:45:06Z</time></trkpt><trkpt lat="45.84057263177593" lon="10.585658953289945"><ele>436.66666666666663</ele><time>2026-04-20T08:45:07Z</time></trkpt><trkpt lat="45.840597789579476" lon="10.585909087385623"><ele>438.3333333333333</ele><time>2026-04-20T08:45:08Z</time></trkpt><trkpt lat="45.840607153533185" lon="10.586139193945264"><ele>440.0</ele><time>2026-04-20T08:45:09Z</time></trkpt><trkpt lat="45.84060951024005" lon="10.586353833548378"><ele>440.6</ele><time>2026-04-20T08:45:10Z</time></trkpt><trkpt lat="45.84061004774093" lon="10.586498901498633"><ele>441.2</ele><time>2026-04-20T08:45:11Z</time></trkpt><trkpt lat="45.840616917722066" lon="10.586677245762855"><ele>441.79999999999995</ele><time>2026-04-20T08:45:12Z</time></trkpt><trkpt lat="45.84070491310288" lon="10.586806671804712"><ele>442.4</ele><time>2026-04-20T08:45:13Z</time></trkpt><trkpt lat="45.84071172669269" lon="10.58693707266794"><ele>443.0</ele><time>2026-04-20T08:45:14Z</time></trkpt><trkpt lat="45.84070099571561" lon="10.587138327238668"><ele>443.0</ele><time>2026-04-20T08:45:16Z</time></trkpt><trkpt lat="45.84059707404744" lon="10.587241361277998"><ele>443.0</ele><time>2026-04-20T08:45:18Z</time></trkpt><trkpt lat="45.84054624431746" lon="10.58707310253527"><ele>443.0</ele><time>2026-04-20T08:45:19Z</time></trkpt><trkpt lat="45.8405639923498" lon="10.586836992546079"><ele>443.0</ele><time>2026-04-20T08:45:20Z</time></trkpt><trkpt lat="45.84054972088462" lon="10.58669203445779"><ele>443.0</ele><time>2026-04-20T08:45:21Z</time></trkpt><trkpt lat="45.84053723740211" lon="10.586543978280135"><ele>442.99999999999994</ele><time>2026-04-20T08:45:22Z</time></trkpt><trkpt lat="45.84051202111136" lon="10.586342547077834"><ele>442.99999999999994</ele><time>2026-04-20T08:45:23Z</time></trkpt><trkpt lat="45.84049369184643" lon="10.586242354269473"><ele>443.0</ele><time>2026-04-20T08:45:24Z</time></trkpt><trkpt lat="45.84042846075944" lon="10.586134410753917"><ele>443.0</ele><time>2026-04-20T08:45:26Z</time></trkpt><trkpt lat="45.84034142281835" lon="10.586123237713236"><ele>443.0</ele><time>2026-04-20T08:45:28Z</time></trkpt><trkpt lat="45.84035666351028" lon="10.586237330283119"><ele>443.0</ele><time>2026-04-20T08:45:29Z</time></trkpt><trkpt lat="45.8403604758731" lon="10.586421217592562"><ele>443.0</ele><time>2026-04-20T08:45:30Z</time></trkpt><trkpt lat="45.84034999257039" lon="10.586581799392896"><ele>443.0</ele><time>2026-04-20T08:45:31Z</time></trkpt><trkpt lat="45.840341802582465" lon="10.586781207377586"><ele>445.0</ele><time>2026-04-20T08:45:32Z</time></trkpt><trkpt lat="45.840365363055305" lon="10.587154503885872"><ele>447.0</ele><time>2026-04-20T08:45:33Z</time></trkpt><trkpt lat="45.8404073009336" lon="10.587396960755806"><ele>449.0</ele><time>2026-04-20T08:45:34Z</time></trkpt><trkpt lat="45.840477027353124" lon="10.587641930209909"><ele>450.66666666666663</ele><time>2026-04-20T08:45:35Z</time></trkpt><trkpt lat="45.84056166289107" lon="10.587902623105066"><ele>452.33333333333337</ele><time>2026-04-20T08:45:36Z</time></trkpt><trkpt lat="45.840585665140814" lon="10.58816593675743"><ele>454.0</ele><time>2026-04-20T08:45:37Z</time></trkpt><trkpt lat="45.84060342619841" lon="10.588407134903209"><ele>454.0</ele><time>2026-04-20T08:45:38Z</time></trkpt><trkpt lat="45.8405724741204" lon="10.588640157503145"><ele>454.0</ele><time>2026-04-20T08:45:39.001Z</time></trkpt><trkpt lat="45.84056216832703" lon="10.588861439887381"><ele>454.0</ele><time>2026-04-20T08:45:40.001Z</time></trkpt><trkpt lat="45.84052278590836" lon="10.58905867401295"><ele>456.0</ele><time>2026-04-20T08:45:41.001Z</time></trkpt><trkpt lat="45.840450219157724" lon="10.589267753832312"><ele>458.0</ele><time>2026-04-20T08:45:42.001Z</time></trkpt><trkpt lat="45.84036729402805" lon="10.5894953590011"><ele>460.0</ele><time>2026-04-20T08:45:43.001Z</time></trkpt><trkpt lat="45.8402968670962" lon="10.589679091246309"><ele>460.25</ele><time>2026-04-20T08:45:44.001Z</time></trkpt><trkpt lat="45.84017317364691" lon="10.589801838765583"><ele>460.5</ele><time>2026-04-20T08:45:45.001Z</time></trkpt><trkpt lat="45.84009473941019" lon="10.589939562628237"><ele>460.75</ele><time>2026-04-20T08:45:46.001Z</time></trkpt><trkpt lat="45.840010956421175" lon="10.590032874972687"><ele>461.0</ele><time>2026-04-20T08:45:47.001Z</time></trkpt><trkpt lat="45.84001952489144" lon="10.590198301431077"><ele>460.25</ele><time>2026-04-20T08:45:48.001Z</time></trkpt><trkpt lat="45.84003100545086" lon="10.590346757537263"><ele>459.5</ele><time>2026-04-20T08:45:49.001Z</time></trkpt><trkpt lat="45.84012448002443" lon="10.590459729756859"><ele>458.75</ele><time>2026-04-20T08:45:50.001Z</time></trkpt><trkpt lat="45.84019118583576" lon="10.590602783502128"><ele>458.0</ele><time>2026-04-20T08:45:51Z</time></trkpt><trkpt lat="45.840256379129315" lon="10.590759023028058"><ele>458.0</ele><time>2026-04-20T08:45:52.001Z</time></trkpt><trkpt lat="45.84031110034244" lon="10.590963059943105"><ele>458.0</ele><time>2026-04-20T08:45:53.001Z</time></trkpt><trkpt lat="45.84032379297985" lon="10.59112716459038"><ele>458.0</ele><time>2026-04-20T08:45:54.001Z</time></trkpt><trkpt lat="45.84024040638244" lon="10.591344906524338"><ele>458.0</ele><time>2026-04-20T08:45:55.001Z</time></trkpt><trkpt lat="45.840202601049256" lon="10.59156085230975"><ele>459.66666666666663</ele><time>2026-04-20T08:45:56.001Z</time></trkpt><trkpt lat="45.840228937980285" lon="10.591760182033509"><ele>461.33333333333337</ele><time>2026-04-20T08:45:57.001Z</time></trkpt><trkpt lat="45.84026216217386" lon="10.59196345836204"><ele>463.0</ele><time>2026-04-20T08:45:58.001Z</time></trkpt><trkpt lat="45.840317410849195" lon="10.592213755299715"><ele>466.0</ele><time>2026-04-20T08:45:59.001Z</time></trkpt><trkpt lat="45.84035296736211" lon="10.59244498622805"><ele>469.0</ele><time>2026-04-20T08:46:00.001Z</time></trkpt><trkpt lat="45.84035922396744" lon="10.592732118367433"><ele>472.0</ele><time>2026-04-20T08:46:01.001Z</time></trkpt><trkpt lat="45.840351881540606" lon="10.592999018778308"><ele>474.33333333333337</ele><time>2026-04-20T08:46:02.001Z</time></trkpt><trkpt lat="45.840345018749886" lon="10.593265856818078"><ele>476.66666666666663</ele><time>2026-04-20T08:46:03.001Z</time></trkpt><trkpt lat="45.840359162637036" lon="10.593523553673762"><ele>479.0</ele><time>2026-04-20T08:46:04.001Z</time></trkpt><trkpt lat="45.840400385111636" lon="10.593791078575547"><ele>482.3333333333333</ele><time>2026-04-20T08:46:05.001Z</time></trkpt><trkpt lat="45.84041453708881" lon="10.594080473781538"><ele>485.66666666666663</ele><time>2026-04-20T08:46:06.001Z</time></trkpt><trkpt lat="45.840462911561374" lon="10.594337782067687"><ele>489.0</ele><time>2026-04-20T08:46:07.001Z</time></trkpt><trkpt lat="45.84049843719002" lon="10.594562872149982"><ele>495.5</ele><time>2026-04-20T08:46:08.001Z</time></trkpt><trkpt lat="45.840532419883004" lon="10.594764732741568"><ele>502.0</ele><time>2026-04-20T08:46:09.001Z</time></trkpt><trkpt lat="45.84056141730722" lon="10.594934592228944"><ele>508.5</ele><time>2026-04-20T08:46:10.001Z</time></trkpt><trkpt lat="45.84059111659608" lon="10.595103782633968"><ele>515.0</ele><time>2026-04-20T08:46:11.001Z</time></trkpt><trkpt lat="45.840620627207215" lon="10.59526002272651"><ele>521.2</ele><time>2026-04-20T08:46:12.001Z</time></trkpt><trkpt lat="45.840644717284384" lon="10.595366018317238"><ele>527.4</ele><time>2026-04-20T08:46:13.001Z</time></trkpt><trkpt lat="45.84071002345288" lon="10.595515127714922"><ele>533.6</ele><time>2026-04-20T08:46:15.001Z</time></trkpt><trkpt lat="45.840766124217026" lon="10.595574777473693"><ele>539.8</ele><time>2026-04-20T08:46:16.001Z</time></trkpt><trkpt lat="45.840873304447186" lon="10.595588492372226"><ele>546.0</ele><time>2026-04-20T08:46:17.001Z</time></trkpt><trkpt lat="45.84098792682924" lon="10.595567003646492"><ele>551.0</ele><time>2026-04-20T08:46:18.001Z</time></trkpt><trkpt lat="45.8411750586657" lon="10.595429495581286"><ele>556.0</ele><time>2026-04-20T08:46:19.001Z</time></trkpt><trkpt lat="45.84130296329419" lon="10.595351898378262"><ele>561.0</ele><time>2026-04-20T08:46:20.001Z</time></trkpt><trkpt lat="45.84139670254221" lon="10.595273636975811"><ele>550.3333333333334</ele><time>2026-04-20T08:46:21.001Z</time></trkpt><trkpt lat="45.841462597301124" lon="10.595159477846634"><ele>539.6666666666667</ele><time>2026-04-20T08:46:22.001Z</time></trkpt><trkpt lat="45.84150047525395" lon="10.594963725496456"><ele>529.0</ele><time>2026-04-20T08:46:23.001Z</time></trkpt><trkpt lat="45.84158969646183" lon="10.594698830088698"><ele>529.0</ele><time>2026-04-20T08:46:24.001Z</time></trkpt><trkpt lat="45.84164214290473" lon="10.59457411022679"><ele>529.0</ele><time>2026-04-20T08:46:25.001Z</time></trkpt><trkpt lat="45.84180887593896" lon="10.594472949767383"><ele>529.0</ele><time>2026-04-20T08:46:26.001Z</time></trkpt><trkpt lat="45.84194457094098" lon="10.59428035094743"><ele>518.5</ele><time>2026-04-20T08:46:27Z</time></trkpt><trkpt lat="45.842063693960725" lon="10.594120740140378"><ele>508.0</ele><time>2026-04-20T08:46:28Z</time></trkpt><trkpt lat="45.842217593138116" lon="10.594126147649805"><ele>497.5</ele><time>2026-04-20T08:46:29Z</time></trkpt><trkpt lat="45.84233900799004" lon="10.594147777052143"><ele>487.0</ele><time>2026-04-20T08:46:30Z</time></trkpt><trkpt lat="45.84244619433959" lon="10.594281014752697"><ele>487.0</ele><time>2026-04-20T08:46:31Z</time></trkpt><trkpt lat="45.84261793499559" lon="10.594446485759033"><ele>487.0</ele><time>2026-04-20T08:46:32Z</time></trkpt><trkpt lat="45.84274371399239" lon="10.594561841576946"><ele>487.0</ele><time>2026-04-20T08:46:33Z</time></trkpt><trkpt lat="45.84283492382803" lon="10.594642563201564"><ele>493.0</ele><time>2026-04-20T08:46:34Z</time></trkpt><trkpt lat="45.842885734628666" lon="10.594699743344187"><ele>499.00000000000006</ele><time>2026-04-20T08:46:35Z</time></trkpt><trkpt lat="45.84294189728375" lon="10.594757606754316"><ele>505.00000000000006</ele><time>2026-04-20T08:46:36Z</time></trkpt><trkpt lat="45.84287275697242" lon="10.59478243873566"><ele>511.0</ele><time>2026-04-20T08:46:40Z</time></trkpt><trkpt lat="45.84276830032368" lon="10.59462769963772"><ele>517.0</ele><time>2026-04-20T08:46:42Z</time></trkpt><trkpt lat="45.84265185846884" lon="10.59456012768889"><ele>509.5</ele><time>2026-04-20T08:46:43Z</time></trkpt><trkpt lat="45.84255350613285" lon="10.594451935931646"><ele>502.0</ele><time>2026-04-20T08:46:44Z</time></trkpt><trkpt lat="45.842437114547685" lon="10.594360210597848"><ele>494.5</ele><time>2026-04-20T08:46:45Z</time></trkpt><trkpt lat="45.842335206774294" lon="10.594323650705075"><ele>487.0</ele><time>2026-04-20T08:46:46Z</time></trkpt><trkpt lat="45.84223982969179" lon="10.594308307392954"><ele>487.0</ele><time>2026-04-20T08:46:47Z</time></trkpt><trkpt lat="45.84215994654933" lon="10.59433120841816"><ele>487.00000000000006</ele><time>2026-04-20T08:46:48Z</time></trkpt><trkpt lat="45.84207317090217" lon="10.594373494353002"><ele>487.00000000000006</ele><time>2026-04-20T08:46:50Z</time></trkpt><trkpt lat="45.84208451007406" lon="10.594539196507728"><ele>487.0</ele><time>2026-04-20T08:46:51Z</time></trkpt><trkpt lat="45.84218081103804" lon="10.594579450655774"><ele>487.0</ele><time>2026-04-20T08:46:52Z</time></trkpt><trkpt lat="45.84228152667562" lon="10.59461655544772"><ele>494.5</ele><time>2026-04-20T08:46:53Z</time></trkpt><trkpt lat="45.842416572890194" lon="10.59461154193546"><ele>502.0</ele><time>2026-04-20T08:46:54Z</time></trkpt><trkpt lat="45.842529453365245" lon="10.594737892224897"><ele>509.5</ele><time>2026-04-20T08:46:55Z</time></trkpt><trkpt lat="45.84261820160199" lon="10.594887503863138"><ele>517.0</ele><time>2026-04-20T08:46:56Z</time></trkpt><trkpt lat="45.84266716978456" lon="10.595076853259377"><ele>517.0</ele><time>2026-04-20T08:46:57Z</time></trkpt><trkpt lat="45.84269598737801" lon="10.595308875610508"><ele>517.0</ele><time>2026-04-20T08:46:58Z</time></trkpt><trkpt lat="45.84276172284284" lon="10.595519193626878"><ele>517.0</ele><time>2026-04-20T08:46:59Z</time></trkpt><trkpt lat="45.842829507579786" lon="10.59567025050058"><ele>520.8000000000001</ele><time>2026-04-20T08:47:00Z</time></trkpt><trkpt lat="45.84287054611722" lon="10.595785333708639"><ele>524.6</ele><time>2026-04-20T08:47:01Z</time></trkpt><trkpt lat="45.84288873779186" lon="10.595901618096425"><ele>528.4000000000001</ele><time>2026-04-20T08:47:02Z</time></trkpt><trkpt lat="45.84293827583092" lon="10.596027417921706"><ele>532.2</ele><time>2026-04-20T08:47:03Z</time></trkpt><trkpt lat="45.84296394116786" lon="10.596195279770383"><ele>536.0</ele><time>2026-04-20T08:47:04Z</time></trkpt><trkpt lat="45.84296868948703" lon="10.596381757551393"><ele>538.5</ele><time>2026-04-20T08:47:05Z</time></trkpt><trkpt lat="45.84300266942873" lon="10.596587034935482"><ele>541.0</ele><time>2026-04-20T08:47:06Z</time></trkpt><trkpt lat="45.84306020495522" lon="10.596776014418358"><ele>543.5</ele><time>2026-04-20T08:47:07Z</time></trkpt><trkpt lat="45.84312876150275" lon="10.596927840951757"><ele>546.0</ele><time>2026-04-20T08:47:08Z</time></trkpt><trkpt lat="45.8431987853018" lon="10.597054444908455"><ele>548.0</ele><time>2026-04-20T08:47:09Z</time></trkpt><trkpt lat="45.843298371100204" lon="10.597138445141825"><ele>550.0</ele><time>2026-04-20T08:47:10Z</time></trkpt><trkpt lat="45.843425231922154" lon="10.59721781605499"><ele>552.0</ele><time>2026-04-20T08:47:11Z</time></trkpt><trkpt lat="45.84359277912777" lon="10.597343163960062"><ele>554.0</ele><time>2026-04-20T08:47:12Z</time></trkpt><trkpt lat="45.843738264828936" lon="10.597479176066715"><ele>554.0</ele><time>2026-04-20T08:47:13Z</time></trkpt><trkpt lat="45.843904920637684" lon="10.597634556028854"><ele>554.0</ele><time>2026-04-20T08:47:14Z</time></trkpt><trkpt lat="45.84406947184671" lon="10.59783514305309"><ele>554.0</ele><time>2026-04-20T08:47:15Z</time></trkpt><trkpt lat="45.844214827089026" lon="10.597987731997748"><ele>557.6666666666666</ele><time>2026-04-20T08:47:16Z</time></trkpt><trkpt lat="45.8443314651841" lon="10.598147651626245"><ele>561.3333333333334</ele><time>2026-04-20T08:47:17Z</time></trkpt><trkpt lat="45.84443651076128" lon="10.598274075815919"><ele>565.0</ele><time>2026-04-20T08:47:18Z</time></trkpt><trkpt lat="45.844570919942065" lon="10.598380375618865"><ele>565.0</ele><time>2026-04-20T08:47:19Z</time></trkpt><trkpt lat="45.84459963989133" lon="10.598590214033935"><ele>565.0</ele><time>2026-04-20T08:47:20Z</time></trkpt><trkpt lat="45.844662988622986" lon="10.598817781513754"><ele>565.0</ele><time>2026-04-20T08:47:21Z</time></trkpt><trkpt lat="45.84472552762709" lon="10.598977076019592"><ele>565.0</ele><time>2026-04-20T08:47:22Z</time></trkpt><trkpt lat="45.84479325918941" lon="10.599158869762366"><ele>564.6</ele><time>2026-04-20T08:47:23Z</time></trkpt><trkpt lat="45.8448820004405" lon="10.599321816555566"><ele>564.2</ele><time>2026-04-20T08:47:24Z</time></trkpt><trkpt lat="45.84499941920587" lon="10.599412166533487"><ele>563.8</ele><time>2026-04-20T08:47:25Z</time></trkpt><trkpt lat="45.845051513232015" lon="10.599511638887556"><ele>563.4</ele><time>2026-04-20T08:47:26Z</time></trkpt><trkpt lat="45.845096955592545" lon="10.599585116493703"><ele>563.0</ele><time>2026-04-20T08:47:27Z</time></trkpt><trkpt lat="45.845167678106115" lon="10.59965761058722"><ele>567.0</ele><time>2026-04-20T08:47:28Z</time></trkpt><trkpt lat="45.845179313674734" lon="10.599774923115028"><ele>571.0</ele><time>2026-04-20T08:47:29Z</time></trkpt><trkpt lat="45.84518028846927" lon="10.599883017699058"><ele>575.0</ele><time>2026-04-20T08:47:30Z</time></trkpt><trkpt lat="45.84516970273543" lon="10.60001021246049"><ele>579.0</ele><time>2026-04-20T08:47:31Z</time></trkpt><trkpt lat="45.84517142941692" lon="10.600160150255974"><ele>583.0</ele><time>2026-04-20T08:47:32Z</time></trkpt><trkpt lat="45.84517290463845" lon="10.600280573757416"><ele>587.0</ele><time>2026-04-20T08:47:33Z</time></trkpt><trkpt lat="45.84517449882581" lon="10.600410709462231"><ele>587.0</ele><time>2026-04-20T08:47:34Z</time></trkpt><trkpt lat="45.84517859811716" lon="10.60055770188284"><ele>587.0</ele><time>2026-04-20T08:47:35Z</time></trkpt><trkpt lat="45.845157786137136" lon="10.600699360964805"><ele>587.0</ele><time>2026-04-20T08:47:36Z</time></trkpt><trkpt lat="45.84513700742591" lon="10.600848713970674"><ele>587.0</ele><time>2026-04-20T08:47:37Z</time></trkpt><trkpt lat="45.84515293642147" lon="10.600999012437006"><ele>587.0</ele><time>2026-04-20T08:47:38Z</time></trkpt><trkpt lat="45.84517214283977" lon="10.601126384933776"><ele>586.0</ele><time>2026-04-20T08:47:39Z</time></trkpt><trkpt lat="45.845206093122115" lon="10.60128666101936"><ele>585.0</ele><time>2026-04-20T08:47:40Z</time></trkpt><trkpt lat="45.84523034260968" lon="10.60140503322204"><ele>584.0</ele><time>2026-04-20T08:47:41Z</time></trkpt><trkpt lat="45.845281945950134" lon="10.601572266546448"><ele>583.0</ele><time>2026-04-20T08:47:43Z</time></trkpt><trkpt lat="45.84527280064611" lon="10.601761522750293"><ele>583.0</ele><time>2026-04-20T08:47:45.001Z</time></trkpt><trkpt lat="45.84523515167349" lon="10.601857887788249"><ele>583.0</ele><time>2026-04-20T08:47:46.001Z</time></trkpt><trkpt lat="45.84519071916744" lon="10.601947917285454"><ele>583.0</ele><time>2026-04-20T08:47:47.001Z</time></trkpt><trkpt lat="45.8451211140957" lon="10.602046523246086"><ele>583.0</ele><time>2026-04-20T08:47:48.001Z</time></trkpt><trkpt lat="45.845050104882745" lon="10.602140788824572"><ele>583.0</ele><time>2026-04-20T08:47:49.001Z</time></trkpt><trkpt lat="45.844990187919734" lon="10.602242891268956"><ele>583.0</ele><time>2026-04-20T08:47:50.001Z</time></trkpt><trkpt lat="45.844949215835484" lon="10.602364752800906"><ele>582.6</ele><time>2026-04-20T08:47:51.001Z</time></trkpt><trkpt lat="45.84493321743949" lon="10.602547446170394"><ele>582.1999999999999</ele><time>2026-04-20T08:47:52.001Z</time></trkpt><trkpt lat="45.84493301116061" lon="10.602673872582292"><ele>581.8</ele><time>2026-04-20T08:47:53.001Z</time></trkpt><trkpt lat="45.84493793409526" lon="10.602770947935426"><ele>581.4</ele><time>2026-04-20T08:47:54.001Z</time></trkpt><trkpt lat="45.8449243107814" lon="10.602956125957652"><ele>581.0</ele><time>2026-04-20T08:47:55.001Z</time></trkpt><trkpt lat="45.844948063852215" lon="10.603138598780749"><ele>583.4</ele><time>2026-04-20T08:47:56.001Z</time></trkpt><trkpt lat="45.844961404810306" lon="10.603295272952773"><ele>585.8</ele><time>2026-04-20T08:47:57.001Z</time></trkpt><trkpt lat="45.844981721154646" lon="10.603429082840366"><ele>588.1999999999999</ele><time>2026-04-20T08:47:58Z</time></trkpt><trkpt lat="45.84500073340648" lon="10.603571595015866"><ele>590.6</ele><time>2026-04-20T08:47:59Z</time></trkpt><trkpt lat="45.845009023471704" lon="10.603720008275541"><ele>593.0</ele><time>2026-04-20T08:48:00Z</time></trkpt><trkpt lat="45.84504410466261" lon="10.60384904517924"><ele>596.6</ele><time>2026-04-20T08:48:01Z</time></trkpt><trkpt lat="45.84504368883512" lon="10.603969310752017"><ele>600.1999999999999</ele><time>2026-04-20T08:48:02Z</time></trkpt><trkpt lat="45.84505651349542" lon="10.604103683271786"><ele>603.8</ele><time>2026-04-20T08:48:03Z</time></trkpt><trkpt lat="45.84508848277895" lon="10.60427216762941"><ele>607.4</ele><time>2026-04-20T08:48:04Z</time></trkpt><trkpt lat="45.84514907491886" lon="10.604394378815291"><ele>611.0</ele><time>2026-04-20T08:48:05Z</time></trkpt><trkpt lat="45.84519454478536" lon="10.604480651872295"><ele>610.2</ele><time>2026-04-20T08:48:06Z</time></trkpt><trkpt lat="45.845221360370395" lon="10.604605590313456"><ele>609.4000000000001</ele><time>2026-04-20T08:48:08Z</time></trkpt><trkpt lat="45.84517898754303" lon="10.604735491936589"><ele>608.6</ele><time>2026-04-20T08:48:10Z</time></trkpt><trkpt lat="45.84515034368988" lon="10.60486386164933"><ele>607.8000000000001</ele><time>2026-04-20T08:48:11Z</time></trkpt><trkpt lat="45.84511844072442" lon="10.605027666237879"><ele>607.0</ele><time>2026-04-20T08:48:12Z</time></trkpt><trkpt lat="45.84510711395324" lon="10.605245624311525"><ele>613.0</ele><time>2026-04-20T08:48:13Z</time></trkpt><trkpt lat="45.845120394165114" lon="10.605466239775721"><ele>619.0</ele><time>2026-04-20T08:48:14Z</time></trkpt><trkpt lat="45.84514100207772" lon="10.60568399011307"><ele>625.0</ele><time>2026-04-20T08:48:15Z</time></trkpt><trkpt lat="45.845163255745355" lon="10.605909428320876"><ele>625.0</ele><time>2026-04-20T08:48:16Z</time></trkpt><trkpt lat="45.84518536874042" lon="10.60615644894002"><ele>625.0</ele><time>2026-04-20T08:48:17Z</time></trkpt><trkpt lat="45.84520837417889" lon="10.606402056495591"><ele>625.0</ele><time>2026-04-20T08:48:18Z</time></trkpt><trkpt lat="45.84523380489999" lon="10.606681828016836"><ele>625.0</ele><time>2026-04-20T08:48:19Z</time></trkpt><trkpt lat="45.845260113185134" lon="10.60698112491515"><ele>625.0</ele><time>2026-04-20T08:48:20Z</time></trkpt><trkpt lat="45.84528171574575" lon="10.607222630812064"><ele>625.0</ele><time>2026-04-20T08:48:21Z</time></trkpt><trkpt lat="45.845300764097445" lon="10.607427446844353"><ele>625.0</ele><time>2026-04-20T08:48:22Z</time></trkpt><trkpt lat="45.84532279096339" lon="10.607632040692527"><ele>625.0</ele><time>2026-04-20T08:48:23Z</time></trkpt><trkpt lat="45.84531961141939" lon="10.607869211223502"><ele>625.0</ele><time>2026-04-20T08:48:24Z</time></trkpt><trkpt lat="45.845257018408745" lon="10.608111337284837"><ele>610.0</ele><time>2026-04-20T08:48:25Z</time></trkpt><trkpt lat="45.84517250859427" lon="10.608344925906335"><ele>595.0</ele><time>2026-04-20T08:48:26Z</time></trkpt><trkpt lat="45.845073777988304" lon="10.608533250828753"><ele>580.0</ele><time>2026-04-20T08:48:27Z</time></trkpt><trkpt lat="45.84497293756567" lon="10.608668252604632"><ele>580.0</ele><time>2026-04-20T08:48:28Z</time></trkpt><trkpt lat="45.844886966169994" lon="10.608780266430784"><ele>580.0</ele><time>2026-04-20T08:48:29Z</time></trkpt><trkpt lat="45.84480858195179" lon="10.608879596841167"><ele>580.0</ele><time>2026-04-20T08:48:30Z</time></trkpt><trkpt lat="45.844737626287525" lon="10.60903198896268"><ele>580.0</ele><time>2026-04-20T08:48:31Z</time></trkpt><trkpt lat="45.84470372218037" lon="10.60923697044141"><ele>580.0</ele><time>2026-04-20T08:48:32Z</time></trkpt><trkpt lat="45.84472273641177" lon="10.609449287723578"><ele>580.0</ele><time>2026-04-20T08:48:33Z</time></trkpt><trkpt lat="45.8447490693861" lon="10.60966788362814"><ele>580.0</ele><time>2026-04-20T08:48:34Z</time></trkpt><trkpt lat="45.84473419440084" lon="10.609896612107447"><ele>586.0</ele><time>2026-04-20T08:48:35Z</time></trkpt><trkpt lat="45.84470396987057" lon="10.610145084953867"><ele>592.0</ele><time>2026-04-20T08:48:36Z</time></trkpt><trkpt lat="45.84468159699618" lon="10.610403986045053"><ele>598.0</ele><time>2026-04-20T08:48:37Z</time></trkpt><trkpt lat="45.84467702255989" lon="10.610652971065843"><ele>601.0</ele><time>2026-04-20T08:48:38Z</time></trkpt><trkpt lat="45.84468040062079" lon="10.610882112244846"><ele>604.0</ele><time>2026-04-20T08:48:39Z</time></trkpt><trkpt lat="45.844678124700685" lon="10.61109274915185"><ele>607.0</ele><time>2026-04-20T08:48:40Z</time></trkpt><trkpt lat="45.844654340657534" lon="10.611322843068866"><ele>614.0</ele><time>2026-04-20T08:48:41Z</time></trkpt><trkpt lat="45.84460156867582" lon="10.611573173164807"><ele>621.0</ele><time>2026-04-20T08:48:42Z</time></trkpt><trkpt lat="45.84451959943172" lon="10.611828999830024"><ele>628.0</ele><time>2026-04-20T08:48:43Z</time></trkpt><trkpt lat="45.84442678199293" lon="10.612036706933457"><ele>625.3333333333334</ele><time>2026-04-20T08:48:44Z</time></trkpt><trkpt lat="45.844318720995155" lon="10.612227763087471"><ele>622.6666666666666</ele><time>2026-04-20T08:48:45Z</time></trkpt><trkpt lat="45.84421164599888" lon="10.612404126901373"><ele>620.0</ele><time>2026-04-20T08:48:46Z</time></trkpt><trkpt lat="45.84410433683931" lon="10.612615615366181"><ele>620.0</ele><time>2026-04-20T08:48:47Z</time></trkpt><trkpt lat="45.84402707898145" lon="10.61281907270607"><ele>620.0</ele><time>2026-04-20T08:48:48Z</time></trkpt><trkpt lat="45.84395399277615" lon="10.613010300863516"><ele>620.0</ele><time>2026-04-20T08:48:49Z</time></trkpt><trkpt lat="45.843889179335186" lon="10.613200071978378"><ele>620.0</ele><time>2026-04-20T08:48:50Z</time></trkpt><trkpt lat="45.84409837245362" lon="10.613610444880303"><ele>620.0</ele><time>2026-04-20T08:48:51Z</time></trkpt><trkpt lat="45.84411413519574" lon="10.613860524995994"><ele>620.0</ele><time>2026-04-20T08:48:52Z</time></trkpt><trkpt lat="45.844114172254656" lon="10.614148655840209"><ele>620.0</ele><time>2026-04-20T08:48:53Z</time></trkpt><trkpt lat="45.844078133691504" lon="10.614404689691721"><ele>620.0</ele><time>2026-04-20T08:48:54Z</time></trkpt><trkpt lat="45.844034744797355" lon="10.614692102122767"><ele>620.0</ele><time>2026-04-20T08:48:55Z</time></trkpt><trkpt lat="45.84402843644786" lon="10.615010007935371"><ele>620.0</ele><time>2026-04-20T08:48:56Z</time></trkpt><trkpt lat="45.84396871239212" lon="10.615320592444204"><ele>620.0</ele><time>2026-04-20T08:48:57Z</time></trkpt><trkpt lat="45.843907447130476" lon="10.615594990283894"><ele>620.0</ele><time>2026-04-20T08:48:58Z</time></trkpt><trkpt lat="45.8438581411844" lon="10.615900228607025"><ele>620.0</ele><time>2026-04-20T08:48:59Z</time></trkpt><trkpt lat="45.8438153241544" lon="10.6161798956035"><ele>620.0</ele><time>2026-04-20T08:49:00Z</time></trkpt><trkpt lat="45.8437640514753" lon="10.61647156913935"><ele>620.0</ele><time>2026-04-20T08:49:01Z</time></trkpt><trkpt lat="45.84373876726016" lon="10.616790405533216"><ele>620.0</ele><time>2026-04-20T08:49:02Z</time></trkpt><trkpt lat="45.84372293008104" lon="10.61710113997458"><ele>620.0</ele><time>2026-04-20T08:49:03Z</time></trkpt><trkpt lat="45.84367751948991" lon="10.6174240831082"><ele>620.0</ele><time>2026-04-20T08:49:04Z</time></trkpt><trkpt lat="45.84362676229004" lon="10.617720607529433"><ele>620.0</ele><time>2026-04-20T08:49:05Z</time></trkpt><trkpt lat="45.84357641198759" lon="10.618002656899026"><ele>620.0</ele><time>2026-04-20T08:49:06Z</time></trkpt><trkpt lat="45.843519046778056" lon="10.618292528880342"><ele>619.3333333333333</ele><time>2026-04-20T08:49:07Z</time></trkpt><trkpt lat="45.843477033878926" lon="10.618563303303045"><ele>618.6666666666666</ele><time>2026-04-20T08:49:08Z</time></trkpt><trkpt lat="45.84342308007276" lon="10.618815663755719"><ele>618.0</ele><time>2026-04-20T08:49:09Z</time></trkpt><trkpt lat="45.84339853071762" lon="10.619034437859101"><ele>618.0</ele><time>2026-04-20T08:49:10Z</time></trkpt><trkpt lat="45.843366157538235" lon="10.619257333460668"><ele>618.0</ele><time>2026-04-20T08:49:11Z</time></trkpt><trkpt lat="45.84335397000506" lon="10.61950386750153"><ele>618.0</ele><time>2026-04-20T08:49:12Z</time></trkpt><trkpt lat="45.84338474945033" lon="10.619713277628653"><ele>618.1999999999999</ele><time>2026-04-20T08:49:13Z</time></trkpt><trkpt lat="45.84341105966383" lon="10.619886571613769"><ele>618.4</ele><time>2026-04-20T08:49:14Z</time></trkpt><trkpt lat="45.84340750126683" lon="10.62004489569848"><ele>618.5999999999999</ele><time>2026-04-20T08:49:15Z</time></trkpt><trkpt lat="45.843389709911825" lon="10.6201818505244"><ele>618.8</ele><time>2026-04-20T08:49:16Z</time></trkpt><trkpt lat="45.84333428600993" lon="10.620299236799521"><ele>619.0</ele><time>2026-04-20T08:49:17Z</time></trkpt><trkpt lat="45.84326564681996" lon="10.620375400458833"><ele>619.0</ele><time>2026-04-20T08:49:18Z</time></trkpt><trkpt lat="45.843182206548875" lon="10.620434587019014"><ele>619.0</ele><time>2026-04-20T08:49:19Z</time></trkpt><trkpt lat="45.84307066921082" lon="10.620334978326376"><ele>619.0</ele><time>2026-04-20T08:49:21Z</time></trkpt><trkpt lat="45.84302124526621" lon="10.620213974751499"><ele>619.0</ele><time>2026-04-20T08:49:22Z</time></trkpt><trkpt lat="45.842975929976596" lon="10.620099467607027"><ele>619.0</ele><time>2026-04-20T08:49:23Z</time></trkpt><trkpt lat="45.84295475690154" lon="10.620013468133703"><ele>619.0</ele><time>2026-04-20T08:49:24Z</time></trkpt><trkpt lat="45.842926806273965" lon="10.620121860005206"><ele>619.0</ele><time>2026-04-20T08:49:28Z</time></trkpt><trkpt lat="45.842995037456866" lon="10.620233714048723"><ele>619.0</ele><time>2026-04-20T08:49:29Z</time></trkpt><trkpt lat="45.84304975690765" lon="10.620438787071265"><ele>619.0</ele><time>2026-04-20T08:49:30Z</time></trkpt><trkpt lat="45.843108037674156" lon="10.620664264318735"><ele>619.0</ele><time>2026-04-20T08:49:31Z</time></trkpt><trkpt lat="45.843157237863615" lon="10.620895845204057"><ele>619.0</ele><time>2026-04-20T08:49:32Z</time></trkpt><trkpt lat="45.843203232905545" lon="10.621091283697755"><ele>619.0</ele><time>2026-04-20T08:49:33Z</time></trkpt><trkpt lat="45.84326149868034" lon="10.621245644019602"><ele>619.0</ele><time>2026-04-20T08:49:34Z</time></trkpt><trkpt lat="45.84331482261517" lon="10.62135536469347"><ele>622.0</ele><time>2026-04-20T08:49:35Z</time></trkpt><trkpt lat="45.84338497942491" lon="10.6214091713018"><ele>625.0</ele><time>2026-04-20T08:49:36Z</time></trkpt><trkpt lat="45.84346980472988" lon="10.621404203719731"><ele>628.0</ele><time>2026-04-20T08:49:37Z</time></trkpt><trkpt lat="45.84355135186372" lon="10.621344709782312"><ele>631.0</ele><time>2026-04-20T08:49:38Z</time></trkpt><trkpt lat="45.843618475501195" lon="10.621264051873103"><ele>634.0</ele><time>2026-04-20T08:49:39Z</time></trkpt><trkpt lat="45.84367851398824" lon="10.621224900535001"><ele>637.0</ele><time>2026-04-20T08:49:40Z</time></trkpt><trkpt lat="45.84378641206335" lon="10.621236636639004"><ele>637.75</ele><time>2026-04-20T08:49:41Z</time></trkpt><trkpt lat="45.84391049175866" lon="10.62130704945826"><ele>638.5</ele><time>2026-04-20T08:49:42Z</time></trkpt><trkpt lat="45.843982939029736" lon="10.621356218769504"><ele>639.25</ele><time>2026-04-20T08:49:43Z</time></trkpt><trkpt lat="45.84405752517894" lon="10.621544798703681"><ele>640.0</ele><time>2026-04-20T08:49:44Z</time></trkpt><trkpt lat="45.84411699670904" lon="10.621752867558051"><ele>640.0</ele><time>2026-04-20T08:49:45Z</time></trkpt><trkpt lat="45.84420103404385" lon="10.621980019108756"><ele>640.0</ele><time>2026-04-20T08:49:46Z</time></trkpt><trkpt lat="45.84428934544219" lon="10.62218097272327"><ele>640.0</ele><time>2026-04-20T08:49:47Z</time></trkpt><trkpt lat="45.84442206403109" lon="10.622353649927883"><ele>641.0</ele><time>2026-04-20T08:49:48Z</time></trkpt><trkpt lat="45.84456618397134" lon="10.622503149177401"><ele>642.0</ele><time>2026-04-20T08:49:49Z</time></trkpt><trkpt lat="45.84471565074809" lon="10.622646925507189"><ele>643.0</ele><time>2026-04-20T08:49:50Z</time></trkpt><trkpt lat="45.84487622500984" lon="10.622792487383924"><ele>646.0</ele><time>2026-04-20T08:49:51.001Z</time></trkpt><trkpt lat="45.84504901343638" lon="10.622929865277023"><ele>649.0</ele><time>2026-04-20T08:49:52Z</time></trkpt><trkpt lat="45.845221854519885" lon="10.623047888277034"><ele>652.0</ele><time>2026-04-20T08:49:53Z</time></trkpt><trkpt lat="45.845399368934444" lon="10.623173337174066"><ele>652.0</ele><time>2026-04-20T08:49:54.001Z</time></trkpt><trkpt lat="45.84557684900122" lon="10.623296919648382"><ele>652.0</ele><time>2026-04-20T08:49:55.001Z</time></trkpt><trkpt lat="45.84574445013168" lon="10.623438017720071"><ele>652.0</ele><time>2026-04-20T08:49:56.001Z</time></trkpt><trkpt lat="45.84590775004743" lon="10.62354127197098"><ele>658.75</ele><time>2026-04-20T08:49:57.001Z</time></trkpt><trkpt lat="45.84605595347004" lon="10.623599474753696"><ele>665.5</ele><time>2026-04-20T08:49:58.001Z</time></trkpt><trkpt lat="45.84620365263578" lon="10.623646027519614"><ele>672.25</ele><time>2026-04-20T08:49:59.001Z</time></trkpt><trkpt lat="45.84630694328984" lon="10.623758760557447"><ele>679.0</ele><time>2026-04-20T08:50:00.001Z</time></trkpt><trkpt lat="45.84635362664608" lon="10.62388917581285"><ele>679.0</ele><time>2026-04-20T08:50:01Z</time></trkpt><trkpt lat="45.84640486197834" lon="10.623997823776286"><ele>679.0</ele><time>2026-04-20T08:50:02Z</time></trkpt><trkpt lat="45.846442785477926" lon="10.624087067500227"><ele>679.0</ele><time>2026-04-20T08:50:03.001Z</time></trkpt><trkpt lat="45.8464333716318" lon="10.624238886072373"><ele>679.0</ele><time>2026-04-20T08:50:05Z</time></trkpt><trkpt lat="45.8463680148084" lon="10.62428956095287"><ele>679.0</ele><time>2026-04-20T08:50:06Z</time></trkpt><trkpt lat="45.846298512380855" lon="10.624273811050061"><ele>679.0</ele><time>2026-04-20T08:50:07Z</time></trkpt><trkpt lat="45.84623158263746" lon="10.624187990163929"><ele>679.0</ele><time>2026-04-20T08:50:08Z</time></trkpt><trkpt lat="45.84618123620526" lon="10.624035225084578"><ele>679.0</ele><time>2026-04-20T08:50:09Z</time></trkpt><trkpt lat="45.84617472580794" lon="10.623880989377032"><ele>679.0</ele><time>2026-04-20T08:50:10Z</time></trkpt><trkpt lat="45.84616321567387" lon="10.623779996913317"><ele>679.0</ele><time>2026-04-20T08:50:11Z</time></trkpt><trkpt lat="45.84610640460874" lon="10.623710708931833"><ele>679.0</ele><time>2026-04-20T08:50:13Z</time></trkpt><trkpt lat="45.84608688294293" lon="10.623839246909805"><ele>679.0</ele><time>2026-04-20T08:50:15Z</time></trkpt><trkpt lat="45.846171419511975" lon="10.623942585142423"><ele>679.0</ele><time>2026-04-20T08:50:16Z</time></trkpt><trkpt lat="45.84626314088107" lon="10.62407991926912"><ele>679.0</ele><time>2026-04-20T08:50:17Z</time></trkpt><trkpt lat="45.84635613590265" lon="10.624243969788637"><ele>679.0</ele><time>2026-04-20T08:50:18Z</time></trkpt><trkpt lat="45.84643424299733" lon="10.62444451807492"><ele>677.0</ele><time>2026-04-20T08:50:19Z</time></trkpt><trkpt lat="45.84650400693296" lon="10.624680884489537"><ele>675.0</ele><time>2026-04-20T08:50:20Z</time></trkpt><trkpt lat="45.84655696359487" lon="10.62492015508234"><ele>673.0</ele><time>2026-04-20T08:50:21Z</time></trkpt><trkpt lat="45.846628111160015" lon="10.62515281109585"><ele>670.6666666666667</ele><time>2026-04-20T08:50:22Z</time></trkpt><trkpt lat="45.846694706332286" lon="10.62536106190027"><ele>668.3333333333334</ele><time>2026-04-20T08:50:23Z</time></trkpt><trkpt lat="45.8467900897779" lon="10.625551880116276"><ele>666.0</ele><time>2026-04-20T08:50:24Z</time></trkpt><trkpt lat="45.84690516448974" lon="10.625728590971722"><ele>666.0</ele><time>2026-04-20T08:50:25Z</time></trkpt><trkpt lat="45.84701774589768" lon="10.625872712149805"><ele>666.0</ele><time>2026-04-20T08:50:26Z</time></trkpt><trkpt lat="45.84711476564428" lon="10.626018610772888"><ele>666.0</ele><time>2026-04-20T08:50:27Z</time></trkpt><trkpt lat="45.84721262895908" lon="10.626199108449526"><ele>669.75</ele><time>2026-04-20T08:50:28Z</time></trkpt><trkpt lat="45.847301020170605" lon="10.626372518496671"><ele>673.5</ele><time>2026-04-20T08:50:29Z</time></trkpt><trkpt lat="45.84741301141173" lon="10.626502070086676"><ele>677.25</ele><time>2026-04-20T08:50:30Z</time></trkpt><trkpt lat="45.847544124656075" lon="10.626596960114595"><ele>681.0</ele><time>2026-04-20T08:50:31Z</time></trkpt><trkpt lat="45.847680122153015" lon="10.626651231064747"><ele>686.75</ele><time>2026-04-20T08:50:32Z</time></trkpt><trkpt lat="45.84778808361337" lon="10.626733323058787"><ele>692.5</ele><time>2026-04-20T08:50:33Z</time></trkpt><trkpt lat="45.8479157306425" lon="10.626829434655084"><ele>698.25</ele><time>2026-04-20T08:50:34Z</time></trkpt><trkpt lat="45.848013102631896" lon="10.62698513032252"><ele>704.0</ele><time>2026-04-20T08:50:35Z</time></trkpt><trkpt lat="45.84807164722582" lon="10.62718347167286"><ele>704.0</ele><time>2026-04-20T08:50:36Z</time></trkpt><trkpt lat="45.84812083079382" lon="10.627341271915078"><ele>704.0</ele><time>2026-04-20T08:50:37Z</time></trkpt><trkpt lat="45.84817425217651" lon="10.627490878075657"><ele>704.0</ele><time>2026-04-20T08:50:38Z</time></trkpt><trkpt lat="45.848182713684245" lon="10.627675790516413"><ele>704.0</ele><time>2026-04-20T08:50:39Z</time></trkpt><trkpt lat="45.84818500831323" lon="10.627903412899633"><ele>703.3333333333333</ele><time>2026-04-20T08:50:40Z</time></trkpt><trkpt lat="45.848176694353796" lon="10.628157775731443"><ele>702.6666666666666</ele><time>2026-04-20T08:50:41Z</time></trkpt><trkpt lat="45.84819342154536" lon="10.62841811742511"><ele>702.0</ele><time>2026-04-20T08:50:42Z</time></trkpt><trkpt lat="45.848227965587526" lon="10.6286853705441"><ele>702.0</ele><time>2026-04-20T08:50:43Z</time></trkpt><trkpt lat="45.84826418862846" lon="10.628961332416347"><ele>702.0</ele><time>2026-04-20T08:50:44Z</time></trkpt><trkpt lat="45.84830910705047" lon="10.629240420174993"><ele>702.0</ele><time>2026-04-20T08:50:45Z</time></trkpt><trkpt lat="45.848348338084506" lon="10.629519942299545"><ele>703.3333333333334</ele><time>2026-04-20T08:50:46Z</time></trkpt><trkpt lat="45.84839380604123" lon="10.629780618709937"><ele>704.6666666666667</ele><time>2026-04-20T08:50:47Z</time></trkpt><trkpt lat="45.84842469325001" lon="10.630058671740093"><ele>706.0</ele><time>2026-04-20T08:50:48Z</time></trkpt><trkpt lat="45.84844657747744" lon="10.630333924801628"><ele>714.6666666666667</ele><time>2026-04-20T08:50:49Z</time></trkpt><trkpt lat="45.848471312815896" lon="10.630594284815565"><ele>723.3333333333334</ele><time>2026-04-20T08:50:50Z</time></trkpt><trkpt lat="45.84854951856295" lon="10.630856994547031"><ele>732.0</ele><time>2026-04-20T08:50:51Z</time></trkpt><trkpt lat="45.84865467587478" lon="10.63109661249375"><ele>720.3333333333334</ele><time>2026-04-20T08:50:52Z</time></trkpt><trkpt lat="45.84874830500939" lon="10.631334556529959"><ele>708.6666666666667</ele><time>2026-04-20T08:50:53Z</time></trkpt><trkpt lat="45.84886775296222" lon="10.631564139572143"><ele>697.0</ele><time>2026-04-20T08:50:54Z</time></trkpt><trkpt lat="45.84899923975973" lon="10.631809163276916"><ele>699.6666666666667</ele><time>2026-04-20T08:50:55Z</time></trkpt><trkpt lat="45.84916705783509" lon="10.632031639362571"><ele>702.3333333333334</ele><time>2026-04-20T08:50:56Z</time></trkpt><trkpt lat="45.84933702604387" lon="10.632231662920669"><ele>705.0</ele><time>2026-04-20T08:50:57Z</time></trkpt><trkpt lat="45.849521363523124" lon="10.632440307742751"><ele>705.0</ele><time>2026-04-20T08:50:58Z</time></trkpt><trkpt lat="45.849687686668126" lon="10.632646033761375"><ele>705.0</ele><time>2026-04-20T08:50:59Z</time></trkpt><trkpt lat="45.84983501831491" lon="10.632852527368756"><ele>705.0</ele><time>2026-04-20T08:51:00Z</time></trkpt><trkpt lat="45.85000611312801" lon="10.633046001540356"><ele>705.0</ele><time>2026-04-20T08:51:01Z</time></trkpt><trkpt lat="45.85017422892923" lon="10.633245044271536"><ele>705.0</ele><time>2026-04-20T08:51:02Z</time></trkpt><trkpt lat="45.85033718495421" lon="10.633418349151475"><ele>705.0</ele><time>2026-04-20T08:51:03Z</time></trkpt><trkpt lat="45.85049018234923" lon="10.633567552442004"><ele>705.6666666666666</ele><time>2026-04-20T08:51:04Z</time></trkpt><trkpt lat="45.85062436963395" lon="10.633699645168088"><ele>706.3333333333333</ele><time>2026-04-20T08:51:05Z</time></trkpt><trkpt lat="45.850779005450136" lon="10.633840595936608"><ele>707.0</ele><time>2026-04-20T08:51:06Z</time></trkpt><trkpt lat="45.850942406980856" lon="10.63391477009148"><ele>708.5</ele><time>2026-04-20T08:51:07Z</time></trkpt><trkpt lat="45.8510705607839" lon="10.633951603924842"><ele>710.0</ele><time>2026-04-20T08:51:08Z</time></trkpt><trkpt lat="45.85118730105106" lon="10.63399976901608"><ele>711.5</ele><time>2026-04-20T08:51:09Z</time></trkpt><trkpt lat="45.85130459669672" lon="10.634092496229057"><ele>713.0</ele><time>2026-04-20T08:51:10Z</time></trkpt><trkpt lat="45.85140702149629" lon="10.634206764069797"><ele>713.0</ele><time>2026-04-20T08:51:11Z</time></trkpt><trkpt lat="45.85147234791832" lon="10.634409818040332"><ele>713.0</ele><time>2026-04-20T08:51:12Z</time></trkpt><trkpt lat="45.85154632501275" lon="10.63463870152437"><ele>713.0</ele><time>2026-04-20T08:51:13Z</time></trkpt><trkpt lat="45.851650065881785" lon="10.634814705187146"><ele>712.6666666666666</ele><time>2026-04-20T08:51:14Z</time></trkpt><trkpt lat="45.85178100672662" lon="10.634964137623761"><ele>712.3333333333334</ele><time>2026-04-20T08:51:15Z</time></trkpt><trkpt lat="45.8519404937107" lon="10.635077409063433"><ele>712.0</ele><time>2026-04-20T08:51:16Z</time></trkpt><trkpt lat="45.85209986405182" lon="10.635148920018544"><ele>712.0</ele><time>2026-04-20T08:51:17Z</time></trkpt><trkpt lat="45.85227088172236" lon="10.635204290457786"><ele>712.0</ele><time>2026-04-20T08:51:18Z</time></trkpt><trkpt lat="45.85245964070118" lon="10.63528802115715"><ele>712.0</ele><time>2026-04-20T08:51:19Z</time></trkpt><trkpt lat="45.85260344587966" lon="10.635437198972483"><ele>711.0</ele><time>2026-04-20T08:51:20Z</time></trkpt><trkpt lat="45.85275696433227" lon="10.635641687651304"><ele>710.0</ele><time>2026-04-20T08:51:21Z</time></trkpt><trkpt lat="45.85289023026708" lon="10.635861570703886"><ele>709.0</ele><time>2026-04-20T08:51:22Z</time></trkpt><trkpt lat="45.853022441509744" lon="10.63604823789919"><ele>711.6666666666667</ele><time>2026-04-20T08:51:23Z</time></trkpt><trkpt lat="45.85317268706076" lon="10.636170136329751"><ele>714.3333333333334</ele><time>2026-04-20T08:51:24Z</time></trkpt><trkpt lat="45.85335247255133" lon="10.636251054043123"><ele>717.0</ele><time>2026-04-20T08:51:25Z</time></trkpt><trkpt lat="45.85353888788275" lon="10.636306377322986"><ele>717.0</ele><time>2026-04-20T08:51:26Z</time></trkpt><trkpt lat="45.85373191434948" lon="10.63636063020766"><ele>717.0</ele><time>2026-04-20T08:51:27Z</time></trkpt><trkpt lat="45.85392555729457" lon="10.636443476034003"><ele>717.0</ele><time>2026-04-20T08:51:28Z</time></trkpt><trkpt lat="45.854093811425166" lon="10.636558999170733"><ele>717.0</ele><time>2026-04-20T08:51:29Z</time></trkpt><trkpt lat="45.85428392072625" lon="10.636695948923515"><ele>717.0</ele><time>2026-04-20T08:51:30Z</time></trkpt><trkpt lat="45.854448103178676" lon="10.636838908646222"><ele>717.0</ele><time>2026-04-20T08:51:31Z</time></trkpt><trkpt lat="45.85460325359058" lon="10.63694312016632"><ele>717.0</ele><time>2026-04-20T08:51:32Z</time></trkpt><trkpt lat="45.85475700175361" lon="10.637003727566382"><ele>717.0</ele><time>2026-04-20T08:51:33Z</time></trkpt><trkpt lat="45.854937341378786" lon="10.636996417729025"><ele>717.0</ele><time>2026-04-20T08:51:34Z</time></trkpt><trkpt lat="45.85514989308374" lon="10.636910961770372"><ele>717.0</ele><time>2026-04-20T08:51:35Z</time></trkpt><trkpt lat="45.85530815479033" lon="10.63683057283227"><ele>717.0</ele><time>2026-04-20T08:51:36Z</time></trkpt><trkpt lat="45.8554751446403" lon="10.636788828918796"><ele>717.0</ele><time>2026-04-20T08:51:37Z</time></trkpt><trkpt lat="45.85562303447562" lon="10.636833056596"><ele>717.0</ele><time>2026-04-20T08:51:38Z</time></trkpt><trkpt lat="45.855804642677334" lon="10.636865304881251"><ele>717.0</ele><time>2026-04-20T08:51:39Z</time></trkpt><trkpt lat="45.85602069503057" lon="10.636893519083456"><ele>717.0</ele><time>2026-04-20T08:51:40Z</time></trkpt><trkpt lat="45.85621239292257" lon="10.636942333392966"><ele>732.3333333333334</ele><time>2026-04-20T08:51:41Z</time></trkpt><trkpt lat="45.85642665019834" lon="10.636987558758992"><ele>747.6666666666667</ele><time>2026-04-20T08:51:42Z</time></trkpt><trkpt lat="45.85661811234905" lon="10.63702382812871"><ele>763.0</ele><time>2026-04-20T08:51:43Z</time></trkpt><trkpt lat="45.85681037052223" lon="10.637055717093032"><ele>763.0</ele><time>2026-04-20T08:51:44Z</time></trkpt><trkpt lat="45.85701160199718" lon="10.637067427335332"><ele>763.0</ele><time>2026-04-20T08:51:45Z</time></trkpt><trkpt lat="45.85721336196586" lon="10.637129459743093"><ele>763.0</ele><time>2026-04-20T08:51:46Z</time></trkpt><trkpt lat="45.857432026690404" lon="10.637168785984338"><ele>763.0</ele><time>2026-04-20T08:51:47Z</time></trkpt><trkpt lat="45.857605479367365" lon="10.637320040895029"><ele>763.0</ele><time>2026-04-20T08:51:48Z</time></trkpt><trkpt lat="45.857774395872745" lon="10.63745097780179"><ele>763.0</ele><time>2026-04-20T08:51:49Z</time></trkpt><trkpt lat="45.85794095248241" lon="10.637524493159656"><ele>750.6666666666667</ele><time>2026-04-20T08:51:50Z</time></trkpt><trkpt lat="45.858081115452514" lon="10.637586288472187"><ele>738.3333333333334</ele><time>2026-04-20T08:51:51Z</time></trkpt><trkpt lat="45.85821929682929" lon="10.637627336807142"><ele>726.0</ele><time>2026-04-20T08:51:52Z</time></trkpt><trkpt lat="45.858390675711725" lon="10.637646348771261"><ele>724.6666666666666</ele><time>2026-04-20T08:51:53Z</time></trkpt><trkpt lat="45.85859533343164" lon="10.637678654186752"><ele>723.3333333333333</ele><time>2026-04-20T08:51:54Z</time></trkpt><trkpt lat="45.858793284002125" lon="10.637723918061376"><ele>722.0</ele><time>2026-04-20T08:51:55Z</time></trkpt><trkpt lat="45.85895844498082" lon="10.637856383211814"><ele>722.0</ele><time>2026-04-20T08:51:56Z</time></trkpt><trkpt lat="45.85915774503724" lon="10.637974915573727"><ele>722.0</ele><time>2026-04-20T08:51:57.001Z</time></trkpt><trkpt lat="45.85934037903407" lon="10.638168586526556"><ele>722.0</ele><time>2026-04-20T08:51:58.001Z</time></trkpt><trkpt lat="45.859537196611356" lon="10.638365179679662"><ele>724.5</ele><time>2026-04-20T08:51:59.001Z</time></trkpt><trkpt lat="45.85969581375688" lon="10.638621822769855"><ele>727.0</ele><time>2026-04-20T08:52:00.001Z</time></trkpt><trkpt lat="45.85984431180253" lon="10.638904741459681"><ele>727.0</ele><time>2026-04-20T08:52:01.001Z</time></trkpt><trkpt lat="45.860000301295" lon="10.639179677244734"><ele>727.0</ele><time>2026-04-20T08:52:02.001Z</time></trkpt><trkpt lat="45.860191302197045" lon="10.639428473979802"><ele>731.0</ele><time>2026-04-20T08:52:03.001Z</time></trkpt><trkpt lat="45.860373365593176" lon="10.639681752940772"><ele>735.0</ele><time>2026-04-20T08:52:04.001Z</time></trkpt><trkpt lat="45.86055541445358" lon="10.639921673276742"><ele>735.0</ele><time>2026-04-20T08:52:05.001Z</time></trkpt><trkpt lat="45.86072248867551" lon="10.640173027123673"><ele>735.0</ele><time>2026-04-20T08:52:06.001Z</time></trkpt><trkpt lat="45.86087664077027" lon="10.640436129110329"><ele>743.5</ele><time>2026-04-20T08:52:07Z</time></trkpt><trkpt lat="45.86105540788051" lon="10.640652549089095"><ele>752.0</ele><time>2026-04-20T08:52:08Z</time></trkpt><trkpt lat="45.861225532489264" lon="10.640861764752469"><ele>752.0</ele><time>2026-04-20T08:52:09.001Z</time></trkpt><trkpt lat="45.86139247821467" lon="10.641072835197209"><ele>752.0</ele><time>2026-04-20T08:52:10.001Z</time></trkpt><trkpt lat="45.86152685333224" lon="10.64127834716063"><ele>752.0</ele><time>2026-04-20T08:52:11.001Z</time></trkpt><trkpt lat="45.861707399162995" lon="10.641496956556502"><ele>748.6666666666666</ele><time>2026-04-20T08:52:12.001Z</time></trkpt><trkpt lat="45.86186938186984" lon="10.64171725616718"><ele>745.3333333333334</ele><time>2026-04-20T08:52:13.001Z</time></trkpt><trkpt lat="45.86203494079375" lon="10.641933534335053"><ele>742.0</ele><time>2026-04-20T08:52:14.001Z</time></trkpt><trkpt lat="45.862201758318896" lon="10.642147909711566"><ele>742.0</ele><time>2026-04-20T08:52:15.001Z</time></trkpt><trkpt lat="45.86238312307263" lon="10.642348078109267"><ele>742.0</ele><time>2026-04-20T08:52:16.001Z</time></trkpt><trkpt lat="45.86253223838057" lon="10.642524738681711"><ele>742.0</ele><time>2026-04-20T08:52:17.001Z</time></trkpt><trkpt lat="45.8627011074714" lon="10.642712920396763"><ele>749.0</ele><time>2026-04-20T08:52:18.001Z</time></trkpt><trkpt lat="45.86284098531987" lon="10.642929765896156"><ele>756.0</ele><time>2026-04-20T08:52:19.001Z</time></trkpt><trkpt lat="45.862972418180384" lon="10.64316810363604"><ele>763.0</ele><time>2026-04-20T08:52:20.001Z</time></trkpt><trkpt lat="45.86310628750114" lon="10.643475608751123"><ele>754.3333333333334</ele><time>2026-04-20T08:52:21.001Z</time></trkpt><trkpt lat="45.863212675252925" lon="10.643744441398974"><ele>745.6666666666666</ele><time>2026-04-20T08:52:22.001Z</time></trkpt><trkpt lat="45.863321405032266" lon="10.643992895693351"><ele>737.0</ele><time>2026-04-20T08:52:23Z</time></trkpt><trkpt lat="45.86344224735706" lon="10.644223366955226"><ele>739.3333333333333</ele><time>2026-04-20T08:52:24Z</time></trkpt><trkpt lat="45.86358158662208" lon="10.64443891345207"><ele>741.6666666666666</ele><time>2026-04-20T08:52:25Z</time></trkpt><trkpt lat="45.86375036721714" lon="10.64464201479712"><ele>744.0</ele><time>2026-04-20T08:52:26Z</time></trkpt><trkpt lat="45.863927709638205" lon="10.64488377036697"><ele>744.0</ele><time>2026-04-20T08:52:27Z</time></trkpt><trkpt lat="45.86409015146107" lon="10.645087899556719"><ele>744.0</ele><time>2026-04-20T08:52:28Z</time></trkpt><trkpt lat="45.86425578503587" lon="10.645267723618844"><ele>744.0</ele><time>2026-04-20T08:52:29Z</time></trkpt><trkpt lat="45.86437182368186" lon="10.645477939695175"><ele>741.6666666666666</ele><time>2026-04-20T08:52:30Z</time></trkpt><trkpt lat="45.864549780934325" lon="10.645674126592203"><ele>739.3333333333333</ele><time>2026-04-20T08:52:31Z</time></trkpt><trkpt lat="45.8647333133642" lon="10.645837563692133"><ele>737.0</ele><time>2026-04-20T08:52:32Z</time></trkpt><trkpt lat="45.864928899433515" lon="10.645980751427789"><ele>732.6666666666666</ele><time>2026-04-20T08:52:33Z</time></trkpt><trkpt lat="45.86513292251166" lon="10.646109234892942"><ele>728.3333333333334</ele><time>2026-04-20T08:52:34Z</time></trkpt><trkpt lat="45.86532654854348" lon="10.646199978563661"><ele>724.0</ele><time>2026-04-20T08:52:35Z</time></trkpt><trkpt lat="45.86551625133694" lon="10.64627069477872"><ele>724.0</ele><time>2026-04-20T08:52:36Z</time></trkpt><trkpt lat="45.86568595922921" lon="10.646308532530849"><ele>724.0</ele><time>2026-04-20T08:52:37Z</time></trkpt><trkpt lat="45.86585667634694" lon="10.646348456453154"><ele>724.0</ele><time>2026-04-20T08:52:38Z</time></trkpt><trkpt lat="45.86601265400163" lon="10.646372019322943"><ele>727.3333333333334</ele><time>2026-04-20T08:52:39Z</time></trkpt><trkpt lat="45.86616716956879" lon="10.646414110317004"><ele>730.6666666666666</ele><time>2026-04-20T08:52:40Z</time></trkpt><trkpt lat="45.86633836150746" lon="10.646498316603465"><ele>734.0</ele><time>2026-04-20T08:52:41Z</time></trkpt><trkpt lat="45.86648253920543" lon="10.646605966614116"><ele>734.0</ele><time>2026-04-20T08:52:42Z</time></trkpt><trkpt lat="45.86661501325153" lon="10.646738756318623"><ele>734.0</ele><time>2026-04-20T08:52:43Z</time></trkpt><trkpt lat="45.86675856597841" lon="10.64690259876634"><ele>734.0</ele><time>2026-04-20T08:52:44Z</time></trkpt><trkpt lat="45.866898042321424" lon="10.647063225517156"><ele>732.6666666666666</ele><time>2026-04-20T08:52:45Z</time></trkpt><trkpt lat="45.8670498290363" lon="10.647238033835889"><ele>731.3333333333334</ele><time>2026-04-20T08:52:46Z</time></trkpt><trkpt lat="45.8672051836816" lon="10.647416951232232"><ele>730.0</ele><time>2026-04-20T08:52:47Z</time></trkpt><trkpt lat="45.867355126596664" lon="10.647588011440526"><ele>730.0</ele><time>2026-04-20T08:52:48Z</time></trkpt><trkpt lat="45.86749836226947" lon="10.64775945901669"><ele>730.0</ele><time>2026-04-20T08:52:49Z</time></trkpt><trkpt lat="45.8676391135502" lon="10.647928631907405"><ele>730.0</ele><time>2026-04-20T08:52:50Z</time></trkpt><trkpt lat="45.86779672324102" lon="10.64811038637538"><ele>730.6666666666667</ele><time>2026-04-20T08:52:51Z</time></trkpt><trkpt lat="45.8679563930703" lon="10.648268725288826"><ele>731.3333333333334</ele><time>2026-04-20T08:52:52Z</time></trkpt><trkpt lat="45.868112367861514" lon="10.64840199229163"><ele>732.0</ele><time>2026-04-20T08:52:53Z</time></trkpt><trkpt lat="45.868296551460695" lon="10.648515897643145"><ele>730.3333333333334</ele><time>2026-04-20T08:52:54Z</time></trkpt><trkpt lat="45.868489113883506" lon="10.648626599928916"><ele>728.6666666666667</ele><time>2026-04-20T08:52:55Z</time></trkpt><trkpt lat="45.868680968040884" lon="10.648745847374647"><ele>727.0</ele><time>2026-04-20T08:52:56Z</time></trkpt><trkpt lat="45.8688784635349" lon="10.64885971384979"><ele>727.0</ele><time>2026-04-20T08:52:57Z</time></trkpt><trkpt lat="45.869064431722286" lon="10.648962701965528"><ele>727.0</ele><time>2026-04-20T08:52:58Z</time></trkpt><trkpt lat="45.86924668543919" lon="10.649049214866816"><ele>727.0</ele><time>2026-04-20T08:52:59Z</time></trkpt><trkpt lat="45.86945236595387" lon="10.649119602149298"><ele>727.3333333333334</ele><time>2026-04-20T08:53:00Z</time></trkpt><trkpt lat="45.86964367047242" lon="10.649172746987439"><ele>727.6666666666666</ele><time>2026-04-20T08:53:01Z</time></trkpt><trkpt lat="45.86985515888576" lon="10.649212908046682"><ele>728.0</ele><time>2026-04-20T08:53:02Z</time></trkpt><trkpt lat="45.87006587819528" lon="10.649247993837749"><ele>728.3333333333333</ele><time>2026-04-20T08:53:03Z</time></trkpt><trkpt lat="45.8702617151906" lon="10.649288366404633"><ele>728.6666666666666</ele><time>2026-04-20T08:53:04Z</time></trkpt><trkpt lat="45.87046157689812" lon="10.649345790120497"><ele>729.0</ele><time>2026-04-20T08:53:05Z</time></trkpt><trkpt lat="45.87062634759507" lon="10.649461919774907"><ele>729.0</ele><time>2026-04-20T08:53:06Z</time></trkpt><trkpt lat="45.870770812416694" lon="10.649634656468267"><ele>729.0</ele><time>2026-04-20T08:53:07Z</time></trkpt><trkpt lat="45.870896296217026" lon="10.649852315640368"><ele>729.0</ele><time>2026-04-20T08:53:08Z</time></trkpt><trkpt lat="45.870987973010884" lon="10.650096113259949"><ele>731.6666666666666</ele><time>2026-04-20T08:53:09Z</time></trkpt><trkpt lat="45.87104502024071" lon="10.65036479199119"><ele>734.3333333333333</ele><time>2026-04-20T08:53:10Z</time></trkpt><trkpt lat="45.87112470266518" lon="10.65060411821521"><ele>737.0</ele><time>2026-04-20T08:53:11Z</time></trkpt><trkpt lat="45.87123287182061" lon="10.650827050879059"><ele>737.0</ele><time>2026-04-20T08:53:12Z</time></trkpt><trkpt lat="45.87136890333936" lon="10.651018844386902"><ele>737.0</ele><time>2026-04-20T08:53:13Z</time></trkpt><trkpt lat="45.8715332975775" lon="10.651171408044615"><ele>737.0</ele><time>2026-04-20T08:53:14Z</time></trkpt><trkpt lat="45.87172086823356" lon="10.651264737381856"><ele>737.0</ele><time>2026-04-20T08:53:15Z</time></trkpt><trkpt lat="45.87186272218436" lon="10.6513291069354"><ele>737.0</ele><time>2026-04-20T08:53:16Z</time></trkpt><trkpt lat="45.87200718968757" lon="10.651433889594673"><ele>737.0</ele><time>2026-04-20T08:53:17Z</time></trkpt><trkpt lat="45.872136257211984" lon="10.651581290897655"><ele>737.0</ele><time>2026-04-20T08:53:18Z</time></trkpt><trkpt lat="45.872252986350595" lon="10.651804762508574"><ele>737.0</ele><time>2026-04-20T08:53:19Z</time></trkpt><trkpt lat="45.87238959864399" lon="10.652042504243285"><ele>737.0</ele><time>2026-04-20T08:53:20Z</time></trkpt><trkpt lat="45.87250820358454" lon="10.652301208426056"><ele>737.6666666666666</ele><time>2026-04-20T08:53:21Z</time></trkpt><trkpt lat="45.87262979761244" lon="10.652565116889907"><ele>738.3333333333334</ele><time>2026-04-20T08:53:22Z</time></trkpt><trkpt lat="45.87272972914761" lon="10.652812964826053"><ele>739.0</ele><time>2026-04-20T08:53:23Z</time></trkpt><trkpt lat="45.87281183954454" lon="10.653039989353099"><ele>739.0</ele><time>2026-04-20T08:53:24Z</time></trkpt><trkpt lat="45.87291947494301" lon="10.653266448733724"><ele>739.0</ele><time>2026-04-20T08:53:25Z</time></trkpt><trkpt lat="45.87304230283271" lon="10.653464844522603"><ele>739.0</ele><time>2026-04-20T08:53:26Z</time></trkpt><trkpt lat="45.873197642672366" lon="10.653637548142097"><ele>741.0</ele><time>2026-04-20T08:53:27Z</time></trkpt><trkpt lat="45.87334029573855" lon="10.653811608956127"><ele>743.0</ele><time>2026-04-20T08:53:28Z</time></trkpt><trkpt lat="45.873454751788906" lon="10.654005347915886"><ele>745.0</ele><time>2026-04-20T08:53:29Z</time></trkpt><trkpt lat="45.87353631429381" lon="10.65420668609451"><ele>742.6666666666667</ele><time>2026-04-20T08:53:30Z</time></trkpt><trkpt lat="45.87361384701619" lon="10.654457662289836"><ele>740.3333333333334</ele><time>2026-04-20T08:53:31Z</time></trkpt><trkpt lat="45.87367338990036" lon="10.654738867477077"><ele>738.0</ele><time>2026-04-20T08:53:32Z</time></trkpt><trkpt lat="45.87374044138827" lon="10.655010598432792"><ele>738.0</ele><time>2026-04-20T08:53:33Z</time></trkpt><trkpt lat="45.8738005751867" lon="10.65527136637529"><ele>738.0</ele><time>2026-04-20T08:53:34Z</time></trkpt><trkpt lat="45.87384753081853" lon="10.655526013654326"><ele>738.0</ele><time>2026-04-20T08:53:35Z</time></trkpt><trkpt lat="45.8739388094252" lon="10.655771054090245"><ele>737.6666666666666</ele><time>2026-04-20T08:53:36Z</time></trkpt><trkpt lat="45.87403450262314" lon="10.656013399768907"><ele>737.3333333333333</ele><time>2026-04-20T08:53:37Z</time></trkpt><trkpt lat="45.874164053917326" lon="10.656222924803581"><ele>737.0</ele><time>2026-04-20T08:53:38Z</time></trkpt><trkpt lat="45.874322684615834" lon="10.656431109004105"><ele>737.0</ele><time>2026-04-20T08:53:39Z</time></trkpt><trkpt lat="45.87449832011362" lon="10.6566418159061"><ele>737.0</ele><time>2026-04-20T08:53:40Z</time></trkpt><trkpt lat="45.87468240816606" lon="10.656857377004682"><ele>735.6666666666666</ele><time>2026-04-20T08:53:41Z</time></trkpt><trkpt lat="45.87482450273572" lon="10.657072464620942"><ele>734.3333333333334</ele><time>2026-04-20T08:53:42Z</time></trkpt><trkpt lat="45.874962175734645" lon="10.657256739718353"><ele>733.0</ele><time>2026-04-20T08:53:43Z</time></trkpt><trkpt lat="45.875091942994985" lon="10.657466720278883"><ele>733.0</ele><time>2026-04-20T08:53:44Z</time></trkpt><trkpt lat="45.875251725668576" lon="10.657678950574498"><ele>733.0</ele><time>2026-04-20T08:53:45Z</time></trkpt><trkpt lat="45.875390560900165" lon="10.657871920231537"><ele>733.0</ele><time>2026-04-20T08:53:46Z</time></trkpt><trkpt lat="45.87551248082094" lon="10.658081267491879"><ele>733.0</ele><time>2026-04-20T08:53:47Z</time></trkpt><trkpt lat="45.87565570731422" lon="10.658310815172017"><ele>733.0</ele><time>2026-04-20T08:53:48Z</time></trkpt><trkpt lat="45.87578363648465" lon="10.658559314081472"><ele>733.0</ele><time>2026-04-20T08:53:49Z</time></trkpt><trkpt lat="45.87591002537438" lon="10.658837586220834"><ele>736.5</ele><time>2026-04-20T08:53:50Z</time></trkpt><trkpt lat="45.87604958793203" lon="10.65912515571249"><ele>740.0</ele><time>2026-04-20T08:53:51Z</time></trkpt><trkpt lat="45.87618109051152" lon="10.659421200937517"><ele>739.0</ele><time>2026-04-20T08:53:52Z</time></trkpt><trkpt lat="45.87629666366954" lon="10.659718303403116"><ele>738.0</ele><time>2026-04-20T08:53:53Z</time></trkpt><trkpt lat="45.876458138870895" lon="10.660008488015002"><ele>738.0</ele><time>2026-04-20T08:53:54Z</time></trkpt><trkpt lat="45.87660305329472" lon="10.66029900555814"><ele>738.0</ele><time>2026-04-20T08:53:55Z</time></trkpt><trkpt lat="45.87674249281827" lon="10.660606371101881"><ele>743.5</ele><time>2026-04-20T08:53:56Z</time></trkpt><trkpt lat="45.87687768549472" lon="10.660909645427116"><ele>749.0</ele><time>2026-04-20T08:53:57Z</time></trkpt><trkpt lat="45.877005828786174" lon="10.661197106047396"><ele>749.0</ele><time>2026-04-20T08:53:58Z</time></trkpt><trkpt lat="45.877130914527285" lon="10.661439477113412"><ele>749.0</ele><time>2026-04-20T08:53:59Z</time></trkpt><trkpt lat="45.877239165195675" lon="10.661683979640328"><ele>749.0</ele><time>2026-04-20T08:54:00Z</time></trkpt><trkpt lat="45.877352933634796" lon="10.661937397168675"><ele>747.3333333333333</ele><time>2026-04-20T08:54:01Z</time></trkpt><trkpt lat="45.877493512355294" lon="10.662152472479509"><ele>745.6666666666666</ele><time>2026-04-20T08:54:02Z</time></trkpt><trkpt lat="45.877654362360936" lon="10.662353254314876"><ele>744.0</ele><time>2026-04-20T08:54:03.001Z</time></trkpt><trkpt lat="45.87784425357428" lon="10.662538788338145"><ele>743.5</ele><time>2026-04-20T08:54:04.001Z</time></trkpt><trkpt lat="45.87801220589855" lon="10.662765887185001"><ele>743.0</ele><time>2026-04-20T08:54:05.001Z</time></trkpt><trkpt lat="45.87819240984778" lon="10.662957074636722"><ele>743.0</ele><time>2026-04-20T08:54:06Z</time></trkpt><trkpt lat="45.878362859470975" lon="10.663179270595464"><ele>743.0</ele><time>2026-04-20T08:54:07.001Z</time></trkpt><trkpt lat="45.87852338444971" lon="10.663340935949345"><ele>743.0</ele><time>2026-04-20T08:54:08.001Z</time></trkpt><trkpt lat="45.87866350695125" lon="10.663508591736727"><ele>741.3333333333333</ele><time>2026-04-20T08:54:09.001Z</time></trkpt><trkpt lat="45.87877508045998" lon="10.663674881244127"><ele>739.6666666666666</ele><time>2026-04-20T08:54:10.001Z</time></trkpt><trkpt lat="45.87886754142052" lon="10.663805780124983"><ele>738.0</ele><time>2026-04-20T08:54:11.001Z</time></trkpt><trkpt lat="45.87901643954655" lon="10.663925606094047"><ele>738.0</ele><time>2026-04-20T08:54:12.001Z</time></trkpt><trkpt lat="45.87919942583002" lon="10.663992167707484"><ele>738.0</ele><time>2026-04-20T08:54:13.001Z</time></trkpt><trkpt lat="45.879398481443204" lon="10.664044145389584"><ele>738.0</ele><time>2026-04-20T08:54:14.001Z</time></trkpt><trkpt lat="45.87962790148623" lon="10.664125857302555"><ele>742.0</ele><time>2026-04-20T08:54:15.001Z</time></trkpt><trkpt lat="45.87984333179202" lon="10.664153911664615"><ele>746.0</ele><time>2026-04-20T08:54:16Z</time></trkpt><trkpt lat="45.88008916177838" lon="10.664208617004785"><ele>747.3333333333333</ele><time>2026-04-20T08:54:17Z</time></trkpt><trkpt lat="45.880300863428225" lon="10.664254289537174"><ele>748.6666666666666</ele><time>2026-04-20T08:54:18Z</time></trkpt><trkpt lat="45.88047013530459" lon="10.664339692512987"><ele>750.0</ele><time>2026-04-20T08:54:19Z</time></trkpt><trkpt lat="45.88067864710595" lon="10.66443485239567"><ele>749.3333333333334</ele><time>2026-04-20T08:54:20Z</time></trkpt><trkpt lat="45.88086649087502" lon="10.664580048495775"><ele>748.6666666666667</ele><time>2026-04-20T08:54:21Z</time></trkpt><trkpt lat="45.88105482379955" lon="10.664753374098366"><ele>748.0</ele><time>2026-04-20T08:54:22Z</time></trkpt><trkpt lat="45.88121880882958" lon="10.66495481588793"><ele>748.0</ele><time>2026-04-20T08:54:23Z</time></trkpt><trkpt lat="45.88140867513537" lon="10.665127346651232"><ele>748.0</ele><time>2026-04-20T08:54:24Z</time></trkpt><trkpt lat="45.881603159597006" lon="10.665304447841022"><ele>749.6666666666667</ele><time>2026-04-20T08:54:25Z</time></trkpt><trkpt lat="45.88176684096304" lon="10.665463473234686"><ele>751.3333333333334</ele><time>2026-04-20T08:54:26Z</time></trkpt><trkpt lat="45.88192541635636" lon="10.665616901515588"><ele>753.0</ele><time>2026-04-20T08:54:27Z</time></trkpt><trkpt lat="45.882086925315946" lon="10.66576699282468"><ele>753.0</ele><time>2026-04-20T08:54:28Z</time></trkpt><trkpt lat="45.882256652283864" lon="10.665920820565635"><ele>753.0</ele><time>2026-04-20T08:54:29Z</time></trkpt><trkpt lat="45.882448311520015" lon="10.666057604218267"><ele>753.0</ele><time>2026-04-20T08:54:30Z</time></trkpt><trkpt lat="45.88262753949806" lon="10.666175262859399"><ele>751.3333333333334</ele><time>2026-04-20T08:54:31Z</time></trkpt><trkpt lat="45.88279334924706" lon="10.666282740828896"><ele>749.6666666666667</ele><time>2026-04-20T08:54:32Z</time></trkpt><trkpt lat="45.88295314901579" lon="10.66639710612211"><ele>748.0</ele><time>2026-04-20T08:54:33Z</time></trkpt><trkpt lat="45.8831182139322" lon="10.666503192508397"><ele>748.0</ele><time>2026-04-20T08:54:34Z</time></trkpt><trkpt lat="45.88328063094712" lon="10.666618129320788"><ele>748.0</ele><time>2026-04-20T08:54:35Z</time></trkpt><trkpt lat="45.88345451769845" lon="10.666723091765666"><ele>748.0</ele><time>2026-04-20T08:54:36Z</time></trkpt><trkpt lat="45.883628719270426" lon="10.666838640098254"><ele>748.0</ele><time>2026-04-20T08:54:37Z</time></trkpt><trkpt lat="45.88381163595799" lon="10.6669652827494"><ele>748.0</ele><time>2026-04-20T08:54:38Z</time></trkpt><trkpt lat="45.883992315134684" lon="10.667090678931492"><ele>748.0</ele><time>2026-04-20T08:54:39Z</time></trkpt><trkpt lat="45.884156470988906" lon="10.667238969720733"><ele>746.0</ele><time>2026-04-20T08:54:40Z</time></trkpt><trkpt lat="45.88432094124354" lon="10.667371180005002"><ele>744.0</ele><time>2026-04-20T08:54:41Z</time></trkpt><trkpt lat="45.88448320173975" lon="10.667512172068832"><ele>742.0</ele><time>2026-04-20T08:54:42Z</time></trkpt><trkpt lat="45.88465077956502" lon="10.667645459841113"><ele>742.3333333333334</ele><time>2026-04-20T08:54:43Z</time></trkpt><trkpt lat="45.8848284693752" lon="10.667777033107164"><ele>742.6666666666666</ele><time>2026-04-20T08:54:44Z</time></trkpt><trkpt lat="45.884994533337576" lon="10.667907615499987"><ele>743.0</ele><time>2026-04-20T08:54:45Z</time></trkpt><trkpt lat="45.885151948284346" lon="10.668049257444949"><ele>743.0</ele><time>2026-04-20T08:54:46Z</time></trkpt><trkpt lat="45.88531527259117" lon="10.668201234853194"><ele>743.0</ele><time>2026-04-20T08:54:47Z</time></trkpt><trkpt lat="45.88549150303994" lon="10.668340271172946"><ele>743.0</ele><time>2026-04-20T08:54:48Z</time></trkpt><trkpt lat="45.88567149157105" lon="10.668511870123039"><ele>743.0</ele><time>2026-04-20T08:54:49Z</time></trkpt><trkpt lat="45.88583350267547" lon="10.668651824502648"><ele>743.0</ele><time>2026-04-20T08:54:50Z</time></trkpt><trkpt lat="45.8859879315612" lon="10.668785293690313"><ele>743.0</ele><time>2026-04-20T08:54:51Z</time></trkpt><trkpt lat="45.88613091813615" lon="10.668910808623695"><ele>743.0</ele><time>2026-04-20T08:54:52Z</time></trkpt><trkpt lat="45.88629812903659" lon="10.669059786693403"><ele>743.0</ele><time>2026-04-20T08:54:53Z</time></trkpt><trkpt lat="45.88646087153316" lon="10.669204430431892"><ele>743.0</ele><time>2026-04-20T08:54:54Z</time></trkpt><trkpt lat="45.88662086619557" lon="10.669344478753185"><ele>743.6666666666666</ele><time>2026-04-20T08:54:55Z</time></trkpt><trkpt lat="45.886778170609475" lon="10.669498114289489"><ele>744.3333333333334</ele><time>2026-04-20T08:54:56Z</time></trkpt><trkpt lat="45.8869387625744" lon="10.669646688069772"><ele>745.0</ele><time>2026-04-20T08:54:57Z</time></trkpt><trkpt lat="45.887078321925515" lon="10.669789113499483"><ele>745.0</ele><time>2026-04-20T08:54:58Z</time></trkpt><trkpt lat="45.88723205438805" lon="10.669926696196933"><ele>745.0</ele><time>2026-04-20T08:54:59Z</time></trkpt><trkpt lat="45.88738172193294" lon="10.670064769583972"><ele>745.0</ele><time>2026-04-20T08:55:00Z</time></trkpt><trkpt lat="45.887507019306334" lon="10.67021584396183"><ele>746.3333333333334</ele><time>2026-04-20T08:55:01Z</time></trkpt><trkpt lat="45.88766201707914" lon="10.670364849834252"><ele>747.6666666666666</ele><time>2026-04-20T08:55:02Z</time></trkpt><trkpt lat="45.88780397394543" lon="10.670529760166076"><ele>749.0</ele><time>2026-04-20T08:55:03Z</time></trkpt><trkpt lat="45.8879305860192" lon="10.670682592447132"><ele>749.0</ele><time>2026-04-20T08:55:04Z</time></trkpt><trkpt lat="45.8880425638376" lon="10.67082634278963"><ele>749.0</ele><time>2026-04-20T08:55:05Z</time></trkpt><trkpt lat="45.88814327555089" lon="10.67097752617103"><ele>749.0</ele><time>2026-04-20T08:55:06Z</time></trkpt><trkpt lat="45.88824195220641" lon="10.671118647469184"><ele>749.0</ele><time>2026-04-20T08:55:07Z</time></trkpt><trkpt lat="45.88833861953581" lon="10.671259955592681"><ele>748.6666666666666</ele><time>2026-04-20T08:55:08Z</time></trkpt><trkpt lat="45.88840858948156" lon="10.671363082679324"><ele>748.3333333333333</ele><time>2026-04-20T08:55:09Z</time></trkpt><trkpt lat="45.88844641651121" lon="10.671464205170766"><ele>748.0</ele><time>2026-04-20T08:55:10Z</time></trkpt><trkpt lat="45.88850233351338" lon="10.671551344460749"><ele>747.6666666666666</ele><time>2026-04-20T08:55:11Z</time></trkpt><trkpt lat="45.88857228975812" lon="10.671639210305443"><ele>747.3333333333334</ele><time>2026-04-20T08:55:12Z</time></trkpt><trkpt lat="45.88864310258056" lon="10.671724038744237"><ele>747.0</ele><time>2026-04-20T08:55:13Z</time></trkpt><trkpt lat="45.888730254251826" lon="10.671853287885853"><ele>746.3333333333334</ele><time>2026-04-20T08:55:14Z</time></trkpt><trkpt lat="45.88882154880481" lon="10.67201811135684"><ele>745.6666666666667</ele><time>2026-04-20T08:55:15Z</time></trkpt><trkpt lat="45.88889969111756" lon="10.67220963949556"><ele>745.0</ele><time>2026-04-20T08:55:16Z</time></trkpt><trkpt lat="45.88897738034463" lon="10.672415363160354"><ele>745.0</ele><time>2026-04-20T08:55:17Z</time></trkpt><trkpt lat="45.8890556523666" lon="10.672624553958002"><ele>745.0</ele><time>2026-04-20T08:55:18Z</time></trkpt><trkpt lat="45.88913179589329" lon="10.67284616073808"><ele>745.0</ele><time>2026-04-20T08:55:19Z</time></trkpt><trkpt lat="45.88921898299397" lon="10.673086313560002"><ele>745.3333333333334</ele><time>2026-04-20T08:55:20Z</time></trkpt><trkpt lat="45.889298583652014" lon="10.67333290349652"><ele>745.6666666666666</ele><time>2026-04-20T08:55:21Z</time></trkpt><trkpt lat="45.889389681650364" lon="10.673583584553342"><ele>746.0</ele><time>2026-04-20T08:55:22Z</time></trkpt><trkpt lat="45.889470263172825" lon="10.673810890608038"><ele>745.0</ele><time>2026-04-20T08:55:23Z</time></trkpt><trkpt lat="45.88956872596761" lon="10.67401788718602"><ele>744.0</ele><time>2026-04-20T08:55:24Z</time></trkpt><trkpt lat="45.88970041718884" lon="10.674207190207667"><ele>743.0</ele><time>2026-04-20T08:55:25Z</time></trkpt><trkpt lat="45.88982262093048" lon="10.674350659557074"><ele>742.6666666666666</ele><time>2026-04-20T08:55:26Z</time></trkpt><trkpt lat="45.88995353225157" lon="10.674492524212303"><ele>742.3333333333334</ele><time>2026-04-20T08:55:27Z</time></trkpt><trkpt lat="45.890127869862255" lon="10.674642091490439"><ele>742.0</ele><time>2026-04-20T08:55:28Z</time></trkpt><trkpt lat="45.890311802992365" lon="10.674794017278886"><ele>741.3333333333334</ele><time>2026-04-20T08:55:29Z</time></trkpt><trkpt lat="45.890506346487975" lon="10.674939241980272"><ele>740.6666666666666</ele><time>2026-04-20T08:55:30Z</time></trkpt><trkpt lat="45.890705190896355" lon="10.67507844432259"><ele>740.0</ele><time>2026-04-20T08:55:31Z</time></trkpt><trkpt lat="45.890861327066084" lon="10.675228093148538"><ele>740.3333333333333</ele><time>2026-04-20T08:55:32Z</time></trkpt><trkpt lat="45.8910340005343" lon="10.675346491018994"><ele>740.6666666666666</ele><time>2026-04-20T08:55:33Z</time></trkpt><trkpt lat="45.89119468640487" lon="10.675471160334027"><ele>741.0</ele><time>2026-04-20T08:55:34Z</time></trkpt><trkpt lat="45.89134865566987" lon="10.675599228874063"><ele>741.0</ele><time>2026-04-20T08:55:35Z</time></trkpt><trkpt lat="45.89151855775564" lon="10.675754543213568"><ele>741.0</ele><time>2026-04-20T08:55:36Z</time></trkpt><trkpt lat="45.89166681176831" lon="10.675929177595403"><ele>741.0</ele><time>2026-04-20T08:55:37Z</time></trkpt><trkpt lat="45.89177559459569" lon="10.676146082939404"><ele>743.0</ele><time>2026-04-20T08:55:38Z</time></trkpt><trkpt lat="45.89192200217871" lon="10.676375105052518"><ele>745.0</ele><time>2026-04-20T08:55:39Z</time></trkpt><trkpt lat="45.89201952936337" lon="10.676596720623802"><ele>747.0</ele><time>2026-04-20T08:55:40Z</time></trkpt><trkpt lat="45.89211617183434" lon="10.676835067623353"><ele>744.3333333333334</ele><time>2026-04-20T08:55:41Z</time></trkpt><trkpt lat="45.89221700936454" lon="10.677072852497124"><ele>741.6666666666667</ele><time>2026-04-20T08:55:42Z</time></trkpt><trkpt lat="45.89229270826937" lon="10.67731445997556"><ele>739.0</ele><time>2026-04-20T08:55:43Z</time></trkpt><trkpt lat="45.89236131291044" lon="10.677565227578748"><ele>737.3333333333334</ele><time>2026-04-20T08:55:44Z</time></trkpt><trkpt lat="45.89243157304164" lon="10.677830816329946"><ele>735.6666666666666</ele><time>2026-04-20T08:55:45Z</time></trkpt><trkpt lat="45.89246281100645" lon="10.678115373620873"><ele>734.0</ele><time>2026-04-20T08:55:46Z</time></trkpt><trkpt lat="45.89249967639035" lon="10.67839325104224"><ele>734.3333333333333</ele><time>2026-04-20T08:55:47Z</time></trkpt><trkpt lat="45.89250782078762" lon="10.678678663175745"><ele>734.6666666666666</ele><time>2026-04-20T08:55:48Z</time></trkpt><trkpt lat="45.892504696229096" lon="10.678963105732189"><ele>735.0</ele><time>2026-04-20T08:55:49Z</time></trkpt><trkpt lat="45.89251161976142" lon="10.679218033478193"><ele>735.3333333333334</ele><time>2026-04-20T08:55:50Z</time></trkpt><trkpt lat="45.89252822441021" lon="10.679456830717909"><ele>735.6666666666667</ele><time>2026-04-20T08:55:51Z</time></trkpt><trkpt lat="45.892567127326394" lon="10.679713492984854"><ele>736.0</ele><time>2026-04-20T08:55:52Z</time></trkpt><trkpt lat="45.89262766017992" lon="10.679971329560226"><ele>736.0</ele><time>2026-04-20T08:55:53Z</time></trkpt><trkpt lat="45.89269330367627" lon="10.680230160292503"><ele>736.0</ele><time>2026-04-20T08:55:54Z</time></trkpt><trkpt lat="45.89276793095336" lon="10.680477554592594"><ele>736.0</ele><time>2026-04-20T08:55:55Z</time></trkpt><trkpt lat="45.892832645326905" lon="10.680710483380189"><ele>736.0</ele><time>2026-04-20T08:55:56Z</time></trkpt><trkpt lat="45.89291591635311" lon="10.680952662827004"><ele>736.0</ele><time>2026-04-20T08:55:57Z</time></trkpt><trkpt lat="45.89298218911062" lon="10.68119458939129"><ele>736.0</ele><time>2026-04-20T08:55:58Z</time></trkpt><trkpt lat="45.89305203056405" lon="10.681420123713972"><ele>735.6666666666667</ele><time>2026-04-20T08:55:59Z</time></trkpt><trkpt lat="45.89308269758111" lon="10.68161977704647"><ele>735.3333333333334</ele><time>2026-04-20T08:56:00Z</time></trkpt><trkpt lat="45.89313075345842" lon="10.6818242931431"><ele>735.0</ele><time>2026-04-20T08:56:01Z</time></trkpt><trkpt lat="45.8931571550145" lon="10.682048280244205"><ele>735.0</ele><time>2026-04-20T08:56:02Z</time></trkpt><trkpt lat="45.89316710922574" lon="10.68229571656742"><ele>735.0</ele><time>2026-04-20T08:56:03Z</time></trkpt><trkpt lat="45.89315978091778" lon="10.682568994116384"><ele>735.0</ele><time>2026-04-20T08:56:04Z</time></trkpt><trkpt lat="45.893159184882975" lon="10.682858283124153"><ele>734.6666666666666</ele><time>2026-04-20T08:56:05Z</time></trkpt><trkpt lat="45.893150741785476" lon="10.683143667669189"><ele>734.3333333333333</ele><time>2026-04-20T08:56:06Z</time></trkpt><trkpt lat="45.89314883545621" lon="10.68343154710776"><ele>734.0</ele><time>2026-04-20T08:56:07Z</time></trkpt><trkpt lat="45.89310559433557" lon="10.683718790249184"><ele>732.3333333333333</ele><time>2026-04-20T08:56:08Z</time></trkpt><trkpt lat="45.893048835864306" lon="10.684001877425967"><ele>730.6666666666666</ele><time>2026-04-20T08:56:09Z</time></trkpt><trkpt lat="45.8929900948548" lon="10.684299086066748"><ele>729.0</ele><time>2026-04-20T08:56:10Z</time></trkpt><trkpt lat="45.8929090246326" lon="10.684592684259558"><ele>729.0</ele><time>2026-04-20T08:56:11Z</time></trkpt><trkpt lat="45.89283360623661" lon="10.68488474624784"><ele>729.0</ele><time>2026-04-20T08:56:12Z</time></trkpt><trkpt lat="45.89275791664021" lon="10.68517948241997"><ele>729.0</ele><time>2026-04-20T08:56:13Z</time></trkpt><trkpt lat="45.892688449920826" lon="10.685468091107133"><ele>728.6666666666666</ele><time>2026-04-20T08:56:14Z</time></trkpt><trkpt lat="45.892611621906475" lon="10.685743133239043"><ele>728.3333333333333</ele><time>2026-04-20T08:56:15Z</time></trkpt><trkpt lat="45.89251182948068" lon="10.686034245126624"><ele>728.0</ele><time>2026-04-20T08:56:16Z</time></trkpt><trkpt lat="45.89242315141282" lon="10.68633030746131"><ele>726.3333333333333</ele><time>2026-04-20T08:56:17Z</time></trkpt><trkpt lat="45.892357512843354" lon="10.686594097674213"><ele>724.6666666666666</ele><time>2026-04-20T08:56:18Z</time></trkpt><trkpt lat="45.89230511345789" lon="10.686860594338683"><ele>723.0</ele><time>2026-04-20T08:56:19Z</time></trkpt><trkpt lat="45.89224568689529" lon="10.687151889302903"><ele>722.0</ele><time>2026-04-20T08:56:20Z</time></trkpt><trkpt lat="45.89221301610705" lon="10.687458020905142"><ele>721.0</ele><time>2026-04-20T08:56:21Z</time></trkpt><trkpt lat="45.89219285923001" lon="10.687756871916331"><ele>720.0</ele><time>2026-04-20T08:56:22Z</time></trkpt><trkpt lat="45.89221189836348" lon="10.688073519845334"><ele>719.6666666666666</ele><time>2026-04-20T08:56:23Z</time></trkpt><trkpt lat="45.89220173815415" lon="10.68838293730748"><ele>719.3333333333333</ele><time>2026-04-20T08:56:24Z</time></trkpt><trkpt lat="45.89221289527412" lon="10.68871448675252"><ele>719.0</ele><time>2026-04-20T08:56:25Z</time></trkpt><trkpt lat="45.89222557943375" lon="10.689019827956567"><ele>719.0</ele><time>2026-04-20T08:56:26Z</time></trkpt><trkpt lat="45.892236830951624" lon="10.689363740648142"><ele>719.0</ele><time>2026-04-20T08:56:27Z</time></trkpt><trkpt lat="45.892257564619975" lon="10.689703746174962"><ele>718.6666666666666</ele><time>2026-04-20T08:56:28Z</time></trkpt><trkpt lat="45.892263339957594" lon="10.690003021652451"><ele>718.3333333333334</ele><time>2026-04-20T08:56:29Z</time></trkpt><trkpt lat="45.892273333970216" lon="10.690280005544318"><ele>718.0</ele><time>2026-04-20T08:56:30Z</time></trkpt><trkpt lat="45.892303642294685" lon="10.69054495162001"><ele>718.0</ele><time>2026-04-20T08:56:31Z</time></trkpt><trkpt lat="45.8923123922246" lon="10.690834115987228"><ele>718.0</ele><time>2026-04-20T08:56:32Z</time></trkpt><trkpt lat="45.892329704876595" lon="10.691102601332133"><ele>718.0</ele><time>2026-04-20T08:56:33Z</time></trkpt><trkpt lat="45.89233789951689" lon="10.69136590997572"><ele>716.6666666666667</ele><time>2026-04-20T08:56:34Z</time></trkpt><trkpt lat="45.89234602774467" lon="10.691627124088802"><ele>715.3333333333334</ele><time>2026-04-20T08:56:35Z</time></trkpt><trkpt lat="45.892353794103435" lon="10.691923706432128"><ele>714.0</ele><time>2026-04-20T08:56:36Z</time></trkpt><trkpt lat="45.89238695900247" lon="10.692196248620425"><ele>714.0</ele><time>2026-04-20T08:56:37Z</time></trkpt><trkpt lat="45.89241185437928" lon="10.69247462335876"><ele>714.0</ele><time>2026-04-20T08:56:38Z</time></trkpt><trkpt lat="45.89243725850501" lon="10.69274754038361"><ele>714.0</ele><time>2026-04-20T08:56:39Z</time></trkpt><trkpt lat="45.892454134062696" lon="10.692993530742225"><ele>717.0</ele><time>2026-04-20T08:56:40Z</time></trkpt><trkpt lat="45.892452338247224" lon="10.693250251391847"><ele>720.0</ele><time>2026-04-20T08:56:41Z</time></trkpt><trkpt lat="45.89243761831017" lon="10.693537316977606"><ele>723.0</ele><time>2026-04-20T08:56:42Z</time></trkpt><trkpt lat="45.89240025170181" lon="10.6937981069996"><ele>725.3333333333334</ele><time>2026-04-20T08:56:43Z</time></trkpt><trkpt lat="45.892336353292634" lon="10.69405678032756"><ele>727.6666666666667</ele><time>2026-04-20T08:56:44Z</time></trkpt><trkpt lat="45.89225612154839" lon="10.694295036570503"><ele>730.0</ele><time>2026-04-20T08:56:45Z</time></trkpt><trkpt lat="45.892170884325616" lon="10.694503728377066"><ele>733.6666666666667</ele><time>2026-04-20T08:56:46Z</time></trkpt><trkpt lat="45.892087288938775" lon="10.694713541444766"><ele>737.3333333333334</ele><time>2026-04-20T08:56:47Z</time></trkpt><trkpt lat="45.892016510267545" lon="10.6949509341265"><ele>741.0</ele><time>2026-04-20T08:56:48Z</time></trkpt><trkpt lat="45.891975406794096" lon="10.695223747652406"><ele>744.6666666666666</ele><time>2026-04-20T08:56:49Z</time></trkpt><trkpt lat="45.89194577171387" lon="10.695500800252908"><ele>748.3333333333333</ele><time>2026-04-20T08:56:50Z</time></trkpt><trkpt lat="45.89191049913766" lon="10.69576245240584"><ele>752.0</ele><time>2026-04-20T08:56:51Z</time></trkpt><trkpt lat="45.89189087721443" lon="10.69603876174492"><ele>752.3333333333333</ele><time>2026-04-20T08:56:52Z</time></trkpt><trkpt lat="45.8918964264354" lon="10.696310111473686"><ele>752.6666666666666</ele><time>2026-04-20T08:56:53Z</time></trkpt><trkpt lat="45.89190493804146" lon="10.696584859725771"><ele>753.0</ele><time>2026-04-20T08:56:54Z</time></trkpt><trkpt lat="45.891981973873904" lon="10.69691364853533"><ele>750.6666666666666</ele><time>2026-04-20T08:56:55Z</time></trkpt><trkpt lat="45.89204469753902" lon="10.697243245882465"><ele>748.3333333333333</ele><time>2026-04-20T08:56:56Z</time></trkpt><trkpt lat="45.892100773370764" lon="10.697532740613372"><ele>746.0</ele><time>2026-04-20T08:56:57Z</time></trkpt><trkpt lat="45.89218751535952" lon="10.697828945679507"><ele>740.6666666666666</ele><time>2026-04-20T08:56:58Z</time></trkpt><trkpt lat="45.892236538208486" lon="10.698092939464361"><ele>735.3333333333334</ele><time>2026-04-20T08:56:59Z</time></trkpt><trkpt lat="45.892305897558856" lon="10.69836754486287"><ele>730.0</ele><time>2026-04-20T08:57:00Z</time></trkpt><trkpt lat="45.892373965732325" lon="10.698630676605859"><ele>726.6666666666667</ele><time>2026-04-20T08:57:01Z</time></trkpt><trkpt lat="45.89244137245196" lon="10.698893981007894"><ele>723.3333333333334</ele><time>2026-04-20T08:57:02Z</time></trkpt><trkpt lat="45.89250424909382" lon="10.699175634672253"><ele>720.0</ele><time>2026-04-20T08:57:03Z</time></trkpt><trkpt lat="45.89253800049259" lon="10.699483659306376"><ele>716.5</ele><time>2026-04-20T08:57:04Z</time></trkpt><trkpt lat="45.892555806592306" lon="10.699816045279796"><ele>713.0</ele><time>2026-04-20T08:57:05Z</time></trkpt><trkpt lat="45.89258772454288" lon="10.700156834715179"><ele>731.5</ele><time>2026-04-20T08:57:06Z</time></trkpt><trkpt lat="45.89262650945171" lon="10.700521330310433"><ele>750.0</ele><time>2026-04-20T08:57:07Z</time></trkpt><trkpt lat="45.8926568774545" lon="10.700863682389212"><ele>738.0</ele><time>2026-04-20T08:57:08Z</time></trkpt><trkpt lat="45.89267347177876" lon="10.70118830092274"><ele>726.0</ele><time>2026-04-20T08:57:09Z</time></trkpt><trkpt lat="45.892704878604114" lon="10.701509515772148"><ele>726.0</ele><time>2026-04-20T08:57:10Z</time></trkpt><trkpt lat="45.892723989804026" lon="10.701880473871029"><ele>726.0</ele><time>2026-04-20T08:57:11Z</time></trkpt><trkpt lat="45.89275161468038" lon="10.70222209352597"><ele>714.0</ele><time>2026-04-20T08:57:12Z</time></trkpt><trkpt lat="45.892774250044354" lon="10.702580064615386"><ele>702.0</ele><time>2026-04-20T08:57:13Z</time></trkpt><trkpt lat="45.8928140793876" lon="10.702959919665824"><ele>699.5</ele><time>2026-04-20T08:57:14Z</time></trkpt><trkpt lat="45.89283544372322" lon="10.703360754900134"><ele>697.0</ele><time>2026-04-20T08:57:15Z</time></trkpt><trkpt lat="45.89285737982887" lon="10.703774940832592"><ele>697.0</ele><time>2026-04-20T08:57:16Z</time></trkpt><trkpt lat="45.89289061518253" lon="10.704185755518958"><ele>697.0</ele><time>2026-04-20T08:57:17Z</time></trkpt><trkpt lat="45.89293552131749" lon="10.704583978195894"><ele>697.0</ele><time>2026-04-20T08:57:18Z</time></trkpt><trkpt lat="45.89297560262399" lon="10.705015492021642"><ele>697.0</ele><time>2026-04-20T08:57:19Z</time></trkpt><trkpt lat="45.89302538721211" lon="10.70543162056705"><ele>697.0</ele><time>2026-04-20T08:57:20Z</time></trkpt><trkpt lat="45.89305382662616" lon="10.705834917255038"><ele>697.0</ele><time>2026-04-20T08:57:21Z</time></trkpt><trkpt lat="45.89306483957597" lon="10.706220057302545"><ele>697.0</ele><time>2026-04-20T08:57:22Z</time></trkpt><trkpt lat="45.893110234004666" lon="10.706570335125352"><ele>697.0</ele><time>2026-04-20T08:57:23Z</time></trkpt><trkpt lat="45.89312288991242" lon="10.70690864449798"><ele>696.0</ele><time>2026-04-20T08:57:24Z</time></trkpt><trkpt lat="45.89315780096862" lon="10.707184231896616"><ele>695.0</ele><time>2026-04-20T08:57:25Z</time></trkpt><trkpt lat="45.893187962850114" lon="10.70743446079639"><ele>694.0</ele><time>2026-04-20T08:57:26Z</time></trkpt><trkpt lat="45.89319719143482" lon="10.707656260821626"><ele>693.75</ele><time>2026-04-20T08:57:27Z</time></trkpt><trkpt lat="45.89321842824638" lon="10.707838429992224"><ele>693.5</ele><time>2026-04-20T08:57:28Z</time></trkpt><trkpt lat="45.89326331933011" lon="10.708030558109655"><ele>693.25</ele><time>2026-04-20T08:57:29Z</time></trkpt><trkpt lat="45.89328500445452" lon="10.708247695868891"><ele>693.0</ele><time>2026-04-20T08:57:30Z</time></trkpt><trkpt lat="45.89333422478841" lon="10.70845662601029"><ele>693.0</ele><time>2026-04-20T08:57:31Z</time></trkpt><trkpt lat="45.893406691689634" lon="10.708695941170083"><ele>693.0</ele><time>2026-04-20T08:57:32Z</time></trkpt><trkpt lat="45.893495987038236" lon="10.708938940510023"><ele>693.0</ele><time>2026-04-20T08:57:33Z</time></trkpt><trkpt lat="45.89359786000172" lon="10.709171593051922"><ele>693.0</ele><time>2026-04-20T08:57:34Z</time></trkpt><trkpt lat="45.89370061492438" lon="10.70939616010421"><ele>693.0</ele><time>2026-04-20T08:57:35Z</time></trkpt><trkpt lat="45.89380035678323" lon="10.709613750924719"><ele>693.0</ele><time>2026-04-20T08:57:36Z</time></trkpt><trkpt lat="45.89390304113885" lon="10.709812864097358"><ele>693.0</ele><time>2026-04-20T08:57:37Z</time></trkpt><trkpt lat="45.89400215285589" lon="10.710044662349356"><ele>693.0</ele><time>2026-04-20T08:57:38Z</time></trkpt><trkpt lat="45.89409453717773" lon="10.710261571398547"><ele>693.0</ele><time>2026-04-20T08:57:39Z</time></trkpt><trkpt lat="45.894183782036414" lon="10.710493198837618"><ele>691.6666666666666</ele><time>2026-04-20T08:57:40Z</time></trkpt><trkpt lat="45.894293193586975" lon="10.710723533180328"><ele>690.3333333333333</ele><time>2026-04-20T08:57:41Z</time></trkpt><trkpt lat="45.89440032527395" lon="10.71095738706725"><ele>689.0</ele><time>2026-04-20T08:57:42Z</time></trkpt><trkpt lat="45.894509834456834" lon="10.71118928499331"><ele>688.0</ele><time>2026-04-20T08:57:43Z</time></trkpt><trkpt lat="45.89462224539593" lon="10.71141677322839"><ele>687.0</ele><time>2026-04-20T08:57:44Z</time></trkpt><trkpt lat="45.89473536032648" lon="10.711648511627937"><ele>686.0</ele><time>2026-04-20T08:57:45Z</time></trkpt><trkpt lat="45.894839715876586" lon="10.711886649305995"><ele>686.3333333333333</ele><time>2026-04-20T08:57:46Z</time></trkpt><trkpt lat="45.89494246678559" lon="10.712104677505492"><ele>686.6666666666666</ele><time>2026-04-20T08:57:47Z</time></trkpt><trkpt lat="45.895037458376656" lon="10.712315667744855"><ele>687.0</ele><time>2026-04-20T08:57:48Z</time></trkpt><trkpt lat="45.895118112153966" lon="10.712548906978604"><ele>684.6666666666666</ele><time>2026-04-20T08:57:49Z</time></trkpt><trkpt lat="45.89518390043879" lon="10.71279447989583"><ele>682.3333333333333</ele><time>2026-04-20T08:57:50Z</time></trkpt><trkpt lat="45.89525042403261" lon="10.713057319492941"><ele>680.0</ele><time>2026-04-20T08:57:51Z</time></trkpt><trkpt lat="45.89528900735968" lon="10.713314823130162"><ele>680.0</ele><time>2026-04-20T08:57:52Z</time></trkpt><trkpt lat="45.89531240734237" lon="10.713558837187025"><ele>680.0</ele><time>2026-04-20T08:57:53Z</time></trkpt><trkpt lat="45.895340661359974" lon="10.713810949396521"><ele>680.0</ele><time>2026-04-20T08:57:54Z</time></trkpt><trkpt lat="45.895348382596545" lon="10.714047350629478"><ele>681.6666666666666</ele><time>2026-04-20T08:57:55Z</time></trkpt><trkpt lat="45.89535641634633" lon="10.71428113677072"><ele>683.3333333333334</ele><time>2026-04-20T08:57:56Z</time></trkpt><trkpt lat="45.895352709831386" lon="10.71451329933228"><ele>685.0</ele><time>2026-04-20T08:57:57Z</time></trkpt><trkpt lat="45.89535050367032" lon="10.714746035813286"><ele>686.6666666666667</ele><time>2026-04-20T08:57:58Z</time></trkpt><trkpt lat="45.895319781258046" lon="10.714973435506362"><ele>688.3333333333334</ele><time>2026-04-20T08:57:59Z</time></trkpt><trkpt lat="45.895316031276195" lon="10.715196236023619"><ele>690.0</ele><time>2026-04-20T08:58:00Z</time></trkpt><trkpt lat="45.895290552289914" lon="10.715431570873182"><ele>691.0</ele><time>2026-04-20T08:58:01Z</time></trkpt><trkpt lat="45.89527382491577" lon="10.715649202800845"><ele>692.0</ele><time>2026-04-20T08:58:02Z</time></trkpt><trkpt lat="45.89527087151506" lon="10.715875708595487"><ele>693.0</ele><time>2026-04-20T08:58:03Z</time></trkpt><trkpt lat="45.895263647728974" lon="10.716115187984954"><ele>693.0</ele><time>2026-04-20T08:58:04Z</time></trkpt><trkpt lat="45.89526289672138" lon="10.716375034041405"><ele>693.0</ele><time>2026-04-20T08:58:05Z</time></trkpt><trkpt lat="45.895230136019585" lon="10.716607856183261"><ele>693.0</ele><time>2026-04-20T08:58:06Z</time></trkpt><trkpt lat="45.89522244422032" lon="10.716849396430788"><ele>693.3333333333334</ele><time>2026-04-20T08:58:07Z</time></trkpt><trkpt lat="45.89521076388335" lon="10.717064381897124"><ele>693.6666666666667</ele><time>2026-04-20T08:58:08Z</time></trkpt><trkpt lat="45.895207653395616" lon="10.717296918976094"><ele>694.0</ele><time>2026-04-20T08:58:09Z</time></trkpt><trkpt lat="45.89518759167968" lon="10.717507188853448"><ele>694.0</ele><time>2026-04-20T08:58:10Z</time></trkpt><trkpt lat="45.89517190378233" lon="10.717752416430772"><ele>694.0</ele><time>2026-04-20T08:58:11Z</time></trkpt><trkpt lat="45.89515406871097" lon="10.718030299684749"><ele>694.0</ele><time>2026-04-20T08:58:12Z</time></trkpt><trkpt lat="45.89513389894264" lon="10.718287165620005"><ele>694.0</ele><time>2026-04-20T08:58:13Z</time></trkpt><trkpt lat="45.895119942029105" lon="10.718516328024174"><ele>694.0</ele><time>2026-04-20T08:58:14Z</time></trkpt><trkpt lat="45.89512572854999" lon="10.71874385659313"><ele>694.0</ele><time>2026-04-20T08:58:15Z</time></trkpt><trkpt lat="45.8951205338563" lon="10.718965720066748"><ele>695.0</ele><time>2026-04-20T08:58:16Z</time></trkpt><trkpt lat="45.895094600138556" lon="10.719196323139126"><ele>696.0</ele><time>2026-04-20T08:58:17Z</time></trkpt><trkpt lat="45.89508630367819" lon="10.719408044506666"><ele>697.0</ele><time>2026-04-20T08:58:18Z</time></trkpt><trkpt lat="45.89506474631662" lon="10.719607781798844"><ele>694.6666666666667</ele><time>2026-04-20T08:58:19Z</time></trkpt><trkpt lat="45.89501475899396" lon="10.719812155363654"><ele>692.3333333333334</ele><time>2026-04-20T08:58:20Z</time></trkpt><trkpt lat="45.89497900989875" lon="10.720031634877033"><ele>690.0</ele><time>2026-04-20T08:58:21Z</time></trkpt><trkpt lat="45.894913717275244" lon="10.7202498127586"><ele>689.6666666666666</ele><time>2026-04-20T08:58:22Z</time></trkpt><trkpt lat="45.89484806841182" lon="10.720478886388127"><ele>689.3333333333333</ele><time>2026-04-20T08:58:23Z</time></trkpt><trkpt lat="45.894761888548146" lon="10.720705586530743"><ele>689.0</ele><time>2026-04-20T08:58:24Z</time></trkpt><trkpt lat="45.89466116050066" lon="10.720946719111536"><ele>688.3333333333333</ele><time>2026-04-20T08:58:25Z</time></trkpt><trkpt lat="45.89455791546244" lon="10.721201905904204"><ele>687.6666666666666</ele><time>2026-04-20T08:58:26Z</time></trkpt><trkpt lat="45.89447165777534" lon="10.721481650991096"><ele>687.0</ele><time>2026-04-20T08:58:27Z</time></trkpt><trkpt lat="45.89438236902962" lon="10.721720810891293"><ele>688.0</ele><time>2026-04-20T08:58:28Z</time></trkpt><trkpt lat="45.894284814836155" lon="10.721964670549752"><ele>689.0</ele><time>2026-04-20T08:58:29Z</time></trkpt><trkpt lat="45.8941925218934" lon="10.722223313662575"><ele>690.0</ele><time>2026-04-20T08:58:30Z</time></trkpt><trkpt lat="45.89409669531298" lon="10.722469763818458"><ele>687.0</ele><time>2026-04-20T08:58:31Z</time></trkpt><trkpt lat="45.8939906727035" lon="10.722698874032453"><ele>684.0</ele><time>2026-04-20T08:58:32Z</time></trkpt><trkpt lat="45.89387429924555" lon="10.722906106261942"><ele>681.0</ele><time>2026-04-20T08:58:33Z</time></trkpt><trkpt lat="45.89373732517167" lon="10.72311815018206"><ele>680.6666666666666</ele><time>2026-04-20T08:58:34Z</time></trkpt><trkpt lat="45.89359022363794" lon="10.72334220920701"><ele>680.3333333333333</ele><time>2026-04-20T08:58:35Z</time></trkpt><trkpt lat="45.89345001908545" lon="10.723545723926708"><ele>680.0</ele><time>2026-04-20T08:58:36Z</time></trkpt><trkpt lat="45.89331672948047" lon="10.723720185946581"><ele>678.0</ele><time>2026-04-20T08:58:37Z</time></trkpt><trkpt lat="45.89319113873877" lon="10.723885121769598"><ele>676.0</ele><time>2026-04-20T08:58:38Z</time></trkpt><trkpt lat="45.89308097254334" lon="10.72405166537198"><ele>674.0</ele><time>2026-04-20T08:58:39Z</time></trkpt><trkpt lat="45.89297781551557" lon="10.724207654548062"><ele>674.0</ele><time>2026-04-20T08:58:40Z</time></trkpt><trkpt lat="45.892877688253606" lon="10.724342695757814"><ele>674.0</ele><time>2026-04-20T08:58:41Z</time></trkpt><trkpt lat="45.89277207541279" lon="10.724500169270451"><ele>674.0</ele><time>2026-04-20T08:58:42Z</time></trkpt><trkpt lat="45.89266568918839" lon="10.72464089214163"><ele>674.0</ele><time>2026-04-20T08:58:43Z</time></trkpt><trkpt lat="45.892581757840624" lon="10.724751423462095"><ele>673.0</ele><time>2026-04-20T08:58:44Z</time></trkpt><trkpt lat="45.892516054452166" lon="10.724827555378061"><ele>672.0</ele><time>2026-04-20T08:58:45Z</time></trkpt><trkpt lat="45.89245229951855" lon="10.724867798917986"><ele>671.0</ele><time>2026-04-20T08:58:47Z</time></trkpt><trkpt lat="45.892391930739464" lon="10.724913044984008"><ele>670.0</ele><time>2026-04-20T08:59:07Z</time></trkpt><trkpt lat="45.89235359363802" lon="10.72500717786825"><ele>669.0</ele><time>2026-04-20T08:59:09Z</time></trkpt><trkpt lat="45.892272597674165" lon="10.725112533352165"><ele>668.0</ele><time>2026-04-20T08:59:12Z</time></trkpt><trkpt lat="45.89240652618969" lon="10.724787111981936"><ele>667.5</ele><time>2026-04-20T08:59:24Z</time></trkpt><trkpt lat="45.892260266851125" lon="10.725271492904474"><ele>667.0</ele><time>2026-04-20T08:59:25Z</time></trkpt><trkpt lat="45.89273569338162" lon="10.725087776530035"><ele>668.0</ele><time>2026-04-20T08:59:26Z</time></trkpt><trkpt lat="45.89284566229496" lon="10.725009593987057"><ele>669.0</ele><time>2026-04-20T08:59:27Z</time></trkpt><trkpt lat="45.892917225426935" lon="10.725009359581811"><ele>670.0</ele><time>2026-04-20T08:59:28Z</time></trkpt><trkpt lat="45.89285097297166" lon="10.725085027421816"><ele>671.0</ele><time>2026-04-20T08:59:31Z</time></trkpt><trkpt lat="45.892917987066554" lon="10.725064836545227"><ele>672.0</ele><time>2026-04-20T08:59:32Z</time></trkpt><trkpt lat="45.89344196702337" lon="10.724358415404552"><ele>674.0</ele><time>2026-04-20T08:59:34Z</time></trkpt><trkpt lat="45.89354167608701" lon="10.72442919144605"><ele>676.0</ele><time>2026-04-20T08:59:35Z</time></trkpt><trkpt lat="45.89365221328839" lon="10.724475197914332"><ele>678.0</ele><time>2026-04-20T08:59:36Z</time></trkpt><trkpt lat="45.89376831032768" lon="10.72452945473787"><ele>680.0</ele><time>2026-04-20T08:59:37Z</time></trkpt><trkpt lat="45.893878758100385" lon="10.724577452593525"><ele>680.0</ele><time>2026-04-20T08:59:38Z</time></trkpt><trkpt lat="45.894001677050966" lon="10.724634341996756"><ele>680.0</ele><time>2026-04-20T08:59:39Z</time></trkpt><trkpt lat="45.89408918459074" lon="10.724714792164953"><ele>680.0</ele><time>2026-04-20T08:59:40Z</time></trkpt><trkpt lat="45.89417315447445" lon="10.724812025928241"><ele>680.0</ele><time>2026-04-20T08:59:41Z</time></trkpt><trkpt lat="45.89422948976979" lon="10.724937984665248"><ele>680.0</ele><time>2026-04-20T08:59:42Z</time></trkpt><trkpt lat="45.89427668612031" lon="10.725066935085586"><ele>681.8333333333333</ele><time>2026-04-20T08:59:43Z</time></trkpt><trkpt lat="45.894329387213936" lon="10.725139928191071"><ele>683.6666666666666</ele><time>2026-04-20T08:59:44Z</time></trkpt><trkpt lat="45.89435427595129" lon="10.725244168187313"><ele>685.5</ele><time>2026-04-20T08:59:45Z</time></trkpt><trkpt lat="45.89440418214605" lon="10.725313227926645"><ele>687.3333333333334</ele><time>2026-04-20T08:59:46Z</time></trkpt><trkpt lat="45.894494669749385" lon="10.725317118473939"><ele>689.1666666666667</ele><time>2026-04-20T08:59:47Z</time></trkpt><trkpt lat="45.89458272114013" lon="10.725250335626002"><ele>691.0</ele><time>2026-04-20T08:59:48Z</time></trkpt><trkpt lat="45.89462923687368" lon="10.72511127521565"><ele>691.0</ele><time>2026-04-20T08:59:49Z</time></trkpt><trkpt lat="45.89466862093047" lon="10.724974053918215"><ele>691.0</ele><time>2026-04-20T08:59:50Z</time></trkpt><trkpt lat="45.894623269303366" lon="10.724861775023424"><ele>691.0</ele><time>2026-04-20T08:59:51Z</time></trkpt><trkpt lat="45.89455932537188" lon="10.724758906312326"><ele>691.0</ele><time>2026-04-20T08:59:52Z</time></trkpt><trkpt lat="45.894502886463" lon="10.724677003672031"><ele>691.0</ele><time>2026-04-20T08:59:53Z</time></trkpt><trkpt lat="45.894464030249125" lon="10.724596031356151"><ele>691.0</ele><time>2026-04-20T08:59:54Z</time></trkpt><trkpt lat="45.89443546484045" lon="10.724502727201175"><ele>691.8</ele><time>2026-04-20T08:59:55Z</time></trkpt><trkpt lat="45.89447343258611" lon="10.724382723456873"><ele>692.5999999999999</ele><time>2026-04-20T08:59:56Z</time></trkpt><trkpt lat="45.89455088377398" lon="10.724313259368571"><ele>693.4</ele><time>2026-04-20T08:59:57Z</time></trkpt><trkpt lat="45.89462563915036" lon="10.724283248789838"><ele>694.2</ele><time>2026-04-20T08:59:58Z</time></trkpt><trkpt lat="45.89470565218944" lon="10.72424019882191"><ele>695.0</ele><time>2026-04-20T08:59:59Z</time></trkpt><trkpt lat="45.89483039798039" lon="10.724231890654735"><ele>695.0</ele><time>2026-04-20T09:00:00Z</time></trkpt><trkpt lat="45.894961975376035" lon="10.724237900012968"><ele>695.0</ele><time>2026-04-20T09:00:01Z</time></trkpt><trkpt lat="45.89509425928098" lon="10.72425353967458"><ele>695.0</ele><time>2026-04-20T09:00:02Z</time></trkpt><trkpt lat="45.895243765917385" lon="10.724260435087876"><ele>695.0</ele><time>2026-04-20T09:00:03Z</time></trkpt><trkpt lat="45.89533892621743" lon="10.724327961072055"><ele>696.8</ele><time>2026-04-20T09:00:04Z</time></trkpt><trkpt lat="45.895421481049645" lon="10.724457541243918"><ele>698.6</ele><time>2026-04-20T09:00:05Z</time></trkpt><trkpt lat="45.89549016788623" lon="10.724568868011707"><ele>700.4000000000001</ele><time>2026-04-20T09:00:06Z</time></trkpt><trkpt lat="45.895533176450016" lon="10.724722588250366"><ele>702.2</ele><time>2026-04-20T09:00:07Z</time></trkpt><trkpt lat="45.895539055366456" lon="10.724862450706862"><ele>704.0</ele><time>2026-04-20T09:00:08Z</time></trkpt><trkpt lat="45.89552324917851" lon="10.724983913304708"><ele>704.0</ele><time>2026-04-20T09:00:09Z</time></trkpt><trkpt lat="45.8955090468035" lon="10.72515232812346"><ele>704.0</ele><time>2026-04-20T09:00:10Z</time></trkpt><trkpt lat="45.89549139409498" lon="10.725405641003658"><ele>704.0</ele><time>2026-04-20T09:00:11Z</time></trkpt><trkpt lat="45.89546429244995" lon="10.725743464656981"><ele>707.0</ele><time>2026-04-20T09:00:12Z</time></trkpt><trkpt lat="45.89542633648149" lon="10.72600703224262"><ele>710.0</ele><time>2026-04-20T09:00:13Z</time></trkpt><trkpt lat="45.895364097199504" lon="10.726248539525074"><ele>713.0</ele><time>2026-04-20T09:00:14Z</time></trkpt><trkpt lat="45.89531505230326" lon="10.7264367227995"><ele>715.0</ele><time>2026-04-20T09:00:16Z</time></trkpt><trkpt lat="45.895275161363465" lon="10.726615279824214"><ele>717.0</ele><time>2026-04-20T09:00:17Z</time></trkpt><trkpt lat="45.89536111602049" lon="10.72669383921494"><ele>719.0</ele><time>2026-04-20T09:00:19Z</time></trkpt><trkpt lat="45.89543679757626" lon="10.726798245837232"><ele>721.0</ele><time>2026-04-20T09:00:20Z</time></trkpt><trkpt lat="45.89556891411372" lon="10.726650948079776"><ele>721.0</ele><time>2026-04-20T09:00:21Z</time></trkpt><trkpt lat="45.89550352525901" lon="10.726754165182095"><ele>721.0</ele><time>2026-04-20T09:00:22Z</time></trkpt><trkpt lat="45.895615649514006" lon="10.726566781548692"><ele>721.0</ele><time>2026-04-20T09:00:23Z</time></trkpt><trkpt lat="45.89570467227753" lon="10.726422315926499"><ele>721.0</ele><time>2026-04-20T09:00:24Z</time></trkpt><trkpt lat="45.895788089032834" lon="10.726295125616057"><ele>721.0</ele><time>2026-04-20T09:00:25Z</time></trkpt><trkpt lat="45.89590278037941" lon="10.72612202895128"><ele>721.0</ele><time>2026-04-20T09:00:26Z</time></trkpt><trkpt lat="45.89600693611506" lon="10.725963206511905"><ele>721.0</ele><time>2026-04-20T09:00:27Z</time></trkpt><trkpt lat="45.89611722751061" lon="10.725791541392509"><ele>723.0</ele><time>2026-04-20T09:00:28Z</time></trkpt><trkpt lat="45.89624859847617" lon="10.725613269707566"><ele>725.0</ele><time>2026-04-20T09:00:29Z</time></trkpt><trkpt lat="45.89638573978287" lon="10.725494069422604"><ele>727.0</ele><time>2026-04-20T09:00:30Z</time></trkpt><trkpt lat="45.89653019076223" lon="10.725418500056985"><ele>727.0</ele><time>2026-04-20T09:00:31Z</time></trkpt><trkpt lat="45.896677160118394" lon="10.725377581394428"><ele>727.0</ele><time>2026-04-20T09:00:32Z</time></trkpt><trkpt lat="45.89681455002755" lon="10.725342246063795"><ele>727.0</ele><time>2026-04-20T09:00:33Z</time></trkpt><trkpt lat="45.89693685830828" lon="10.725309018372126"><ele>727.0</ele><time>2026-04-20T09:00:34Z</time></trkpt><trkpt lat="45.897078954275685" lon="10.725270060464792"><ele>727.25</ele><time>2026-04-20T09:00:35Z</time></trkpt><trkpt lat="45.89719743569235" lon="10.725237576831505"><ele>727.5</ele><time>2026-04-20T09:00:36Z</time></trkpt><trkpt lat="45.89736802031608" lon="10.725191685624553"><ele>727.75</ele><time>2026-04-20T09:00:37Z</time></trkpt><trkpt lat="45.897494803301385" lon="10.725157818697419"><ele>728.0</ele><time>2026-04-20T09:00:38Z</time></trkpt><trkpt lat="45.897622967487735" lon="10.725123582808706"><ele>729.25</ele><time>2026-04-20T09:00:39Z</time></trkpt><trkpt lat="45.89775018534616" lon="10.725089956259367"><ele>730.5</ele><time>2026-04-20T09:00:40Z</time></trkpt><trkpt lat="45.89787191489069" lon="10.72506908225825"><ele>731.75</ele><time>2026-04-20T09:00:41Z</time></trkpt><trkpt lat="45.89796724709896" lon="10.72504618476434"><ele>733.0</ele><time>2026-04-20T09:00:42Z</time></trkpt><trkpt lat="45.89808897705983" lon="10.725017847723958"><ele>733.0</ele><time>2026-04-20T09:00:43Z</time></trkpt><trkpt lat="45.898220659738385" lon="10.724966252393978"><ele>733.0</ele><time>2026-04-20T09:00:44Z</time></trkpt><trkpt lat="45.89835697310131" lon="10.72492782588759"><ele>733.0</ele><time>2026-04-20T09:00:45Z</time></trkpt><trkpt lat="45.898485851557446" lon="10.724892247548384"><ele>733.0</ele><time>2026-04-20T09:00:46Z</time></trkpt><trkpt lat="45.898615969029315" lon="10.724856693863028"><ele>734.75</ele><time>2026-04-20T09:00:47Z</time></trkpt><trkpt lat="45.89873555177054" lon="10.724825254216292"><ele>736.5</ele><time>2026-04-20T09:00:48Z</time></trkpt><trkpt lat="45.8988574302804" lon="10.724793211052395"><ele>738.25</ele><time>2026-04-20T09:00:49Z</time></trkpt><trkpt lat="45.89898804162205" lon="10.72475743130668"><ele>740.0</ele><time>2026-04-20T09:00:50Z</time></trkpt><trkpt lat="45.89910701756467" lon="10.724747430748241"><ele>740.0</ele><time>2026-04-20T09:00:51Z</time></trkpt><trkpt lat="45.89921805179894" lon="10.72467354753178"><ele>740.0</ele><time>2026-04-20T09:00:52Z</time></trkpt><trkpt lat="45.899302887459186" lon="10.724653583467774"><ele>740.0</ele><time>2026-04-20T09:00:53Z</time></trkpt><trkpt lat="45.899379431743306" lon="10.724629944401817"><ele>740.0</ele><time>2026-04-20T09:00:54Z</time></trkpt><trkpt lat="45.89949082137421" lon="10.724644939369679"><ele>740.0</ele><time>2026-04-20T09:00:56Z</time></trkpt><trkpt lat="45.8995669192704" lon="10.724694667753967"><ele>739.4</ele><time>2026-04-20T09:00:57Z</time></trkpt><trkpt lat="45.89957757061743" lon="10.7248732405361"><ele>738.8</ele><time>2026-04-20T09:00:58Z</time></trkpt><trkpt lat="45.89964878111338" lon="10.724944111366794"><ele>738.2</ele><time>2026-04-20T09:00:59Z</time></trkpt><trkpt lat="45.89969681146844" lon="10.725022959964614"><ele>737.6</ele><time>2026-04-20T09:01:00Z</time></trkpt><trkpt lat="45.899772373218084" lon="10.72506828485739"><ele>737.0</ele><time>2026-04-20T09:01:01Z</time></trkpt><trkpt lat="45.89986758811122" lon="10.725137400745615"><ele>737.0</ele><time>2026-04-20T09:01:02Z</time></trkpt><trkpt lat="45.89996111543851" lon="10.725205156921422"><ele>737.0</ele><time>2026-04-20T09:01:03Z</time></trkpt><trkpt lat="45.900050033287485" lon="10.725281723752758"><ele>737.0</ele><time>2026-04-20T09:01:04Z</time></trkpt><trkpt lat="45.900155292130506" lon="10.725378174852949"><ele>737.0</ele><time>2026-04-20T09:01:05Z</time></trkpt><trkpt lat="45.900251562644655" lon="10.72547266312677"><ele>737.0</ele><time>2026-04-20T09:01:06Z</time></trkpt><trkpt lat="45.900344657894756" lon="10.72557133913096"><ele>737.0</ele><time>2026-04-20T09:01:07Z</time></trkpt><trkpt lat="45.90044394598447" lon="10.725671021038162"><ele>737.0</ele><time>2026-04-20T09:01:08Z</time></trkpt><trkpt lat="45.900574819873825" lon="10.725722419765503"><ele>737.0</ele><time>2026-04-20T09:01:09Z</time></trkpt><trkpt lat="45.90069642440265" lon="10.72575790997839"><ele>737.0</ele><time>2026-04-20T09:01:10Z</time></trkpt><trkpt lat="45.90080268596109" lon="10.725820082747322"><ele>737.0</ele><time>2026-04-20T09:01:11Z</time></trkpt><trkpt lat="45.900916887585886" lon="10.725904821585967"><ele>737.0</ele><time>2026-04-20T09:01:12Z</time></trkpt><trkpt lat="45.90100614066885" lon="10.726051048026259"><ele>737.0</ele><time>2026-04-20T09:01:13Z</time></trkpt><trkpt lat="45.90112395366348" lon="10.726140152899095"><ele>739.3333333333333</ele><time>2026-04-20T09:01:14Z</time></trkpt><trkpt lat="45.90124264398965" lon="10.726255693561278"><ele>741.6666666666666</ele><time>2026-04-20T09:01:15Z</time></trkpt><trkpt lat="45.901373996693735" lon="10.726371834841336"><ele>744.0</ele><time>2026-04-20T09:01:16Z</time></trkpt><trkpt lat="45.9015170301188" lon="10.726505926611182"><ele>744.0</ele><time>2026-04-20T09:01:17Z</time></trkpt><trkpt lat="45.901644111700016" lon="10.726653318445052"><ele>744.0</ele><time>2026-04-20T09:01:18Z</time></trkpt><trkpt lat="45.90177200619735" lon="10.72681683506598"><ele>744.0</ele><time>2026-04-20T09:01:19Z</time></trkpt><trkpt lat="45.90188560980892" lon="10.726965652763875"><ele>743.3333333333334</ele><time>2026-04-20T09:01:20Z</time></trkpt><trkpt lat="45.902010083414126" lon="10.727106497573267"><ele>742.6666666666667</ele><time>2026-04-20T09:01:21Z</time></trkpt><trkpt lat="45.90213116984234" lon="10.727247842590469"><ele>742.0</ele><time>2026-04-20T09:01:22Z</time></trkpt><trkpt lat="45.90226227896875" lon="10.727401969243981"><ele>742.0</ele><time>2026-04-20T09:01:23Z</time></trkpt><trkpt lat="45.90236201710689" lon="10.727602966166613"><ele>742.0</ele><time>2026-04-20T09:01:24Z</time></trkpt><trkpt lat="45.9024683977597" lon="10.727793588321349"><ele>742.0</ele><time>2026-04-20T09:01:25Z</time></trkpt><trkpt lat="45.9025736705123" lon="10.727981991366825"><ele>742.3333333333334</ele><time>2026-04-20T09:01:26Z</time></trkpt><trkpt lat="45.90268101843526" lon="10.728172933375701"><ele>742.6666666666666</ele><time>2026-04-20T09:01:27Z</time></trkpt><trkpt lat="45.90279934310983" lon="10.728336044408469"><ele>743.0</ele><time>2026-04-20T09:01:28Z</time></trkpt><trkpt lat="45.90291170890848" lon="10.728493687902752"><ele>746.5</ele><time>2026-04-20T09:01:29Z</time></trkpt><trkpt lat="45.903015953522875" lon="10.72863991254443"><ele>750.0</ele><time>2026-04-20T09:01:30Z</time></trkpt><trkpt lat="45.90312993061667" lon="10.728783996023118"><ele>753.5</ele><time>2026-04-20T09:01:31Z</time></trkpt><trkpt lat="45.90323809769651" lon="10.728877365467566"><ele>757.0</ele><time>2026-04-20T09:01:32Z</time></trkpt><trkpt lat="45.90334277979355" lon="10.72898337026453"><ele>756.25</ele><time>2026-04-20T09:01:33Z</time></trkpt><trkpt lat="45.903469971554735" lon="10.729084928976548"><ele>755.5</ele><time>2026-04-20T09:01:34Z</time></trkpt><trkpt lat="45.90359004813096" lon="10.729157119702059"><ele>754.75</ele><time>2026-04-20T09:01:35Z</time></trkpt><trkpt lat="45.90373042670351" lon="10.729238168669166"><ele>754.0</ele><time>2026-04-20T09:01:36Z</time></trkpt><trkpt lat="45.903860644179964" lon="10.729332979563978"><ele>754.0</ele><time>2026-04-20T09:01:37Z</time></trkpt><trkpt lat="45.9039640144403" lon="10.729388173707049"><ele>754.0</ele><time>2026-04-20T09:01:38Z</time></trkpt><trkpt lat="45.90406112131178" lon="10.729451940224365"><ele>754.0</ele><time>2026-04-20T09:01:39Z</time></trkpt><trkpt lat="45.90417090281213" lon="10.729499437570292"><ele>754.0</ele><time>2026-04-20T09:01:40Z</time></trkpt><trkpt lat="45.90429860466636" lon="10.729546416263954"><ele>755.2</ele><time>2026-04-20T09:01:41Z</time></trkpt><trkpt lat="45.90441380640986" lon="10.729584840854503"><ele>756.4000000000001</ele><time>2026-04-20T09:01:42Z</time></trkpt><trkpt lat="45.90451814722616" lon="10.729611156753203"><ele>757.6</ele><time>2026-04-20T09:01:43Z</time></trkpt><trkpt lat="45.90461848401052" lon="10.729652159632433"><ele>758.8</ele><time>2026-04-20T09:01:44Z</time></trkpt><trkpt lat="45.904728362065896" lon="10.729712107709956"><ele>760.0</ele><time>2026-04-20T09:01:45Z</time></trkpt><trkpt lat="45.9048408979003" lon="10.729795241903968"><ele>760.0</ele><time>2026-04-20T09:01:46Z</time></trkpt><trkpt lat="45.90494250810839" lon="10.729865192664539"><ele>760.0</ele><time>2026-04-20T09:01:47Z</time></trkpt><trkpt lat="45.90504499854624" lon="10.729916970483364"><ele>760.0</ele><time>2026-04-20T09:01:48Z</time></trkpt><trkpt lat="45.90515658893759" lon="10.7299165911505"><ele>760.0</ele><time>2026-04-20T09:01:49Z</time></trkpt><trkpt lat="45.905285539323856" lon="10.729880905524391"><ele>760.75</ele><time>2026-04-20T09:01:50Z</time></trkpt><trkpt lat="45.905405165896205" lon="10.729799594774665"><ele>761.5</ele><time>2026-04-20T09:01:51Z</time></trkpt><trkpt lat="45.90549450573445" lon="10.729723443268977"><ele>762.25</ele><time>2026-04-20T09:01:52Z</time></trkpt><trkpt lat="45.905588697382726" lon="10.729658743051415"><ele>763.0</ele><time>2026-04-20T09:01:53Z</time></trkpt><trkpt lat="45.9057229228331" lon="10.729492601811693"><ele>763.25</ele><time>2026-04-20T09:01:55Z</time></trkpt><trkpt lat="45.90581502959046" lon="10.729333108364141"><ele>763.5</ele><time>2026-04-20T09:01:56Z</time></trkpt><trkpt lat="45.9059017665876" lon="10.729176867033358"><ele>763.75</ele><time>2026-04-20T09:01:57Z</time></trkpt><trkpt lat="45.90597374456012" lon="10.729082227884136"><ele>764.0</ele><time>2026-04-20T09:01:58Z</time></trkpt><trkpt lat="45.906015310008364" lon="10.728984520875706"><ele>764.0</ele><time>2026-04-20T09:01:59Z</time></trkpt><trkpt lat="45.906088963464" lon="10.728907355189152"><ele>764.0</ele><time>2026-04-20T09:02:00Z</time></trkpt><trkpt lat="45.90615933907862" lon="10.728902811993576"><ele>764.0</ele><time>2026-04-20T09:02:01Z</time></trkpt><trkpt lat="45.90628943530577" lon="10.728840717682615"><ele>764.0</ele><time>2026-04-20T09:02:02Z</time></trkpt><trkpt lat="45.90637927647629" lon="10.728757110580972"><ele>764.0</ele><time>2026-04-20T09:02:03Z</time></trkpt><trkpt lat="45.90647031983889" lon="10.728683837409589"><ele>764.0</ele><time>2026-04-20T09:02:04Z</time></trkpt><trkpt lat="45.90655854391571" lon="10.728672878232972"><ele>764.0</ele><time>2026-04-20T09:02:05Z</time></trkpt><trkpt lat="45.90667783159684" lon="10.728660045341055"><ele>764.0</ele><time>2026-04-20T09:02:06Z</time></trkpt><trkpt lat="45.90680860729209" lon="10.728629936816905"><ele>764.0</ele><time>2026-04-20T09:02:07Z</time></trkpt><trkpt lat="45.90695515861791" lon="10.728576613619138"><ele>763.5</ele><time>2026-04-20T09:02:08Z</time></trkpt><trkpt lat="45.90707496019176" lon="10.728565803968925"><ele>763.0</ele><time>2026-04-20T09:02:09Z</time></trkpt><trkpt lat="45.907222979990344" lon="10.728515171397756"><ele>762.5</ele><time>2026-04-20T09:02:10Z</time></trkpt><trkpt lat="45.907378829973105" lon="10.728454206022784"><ele>762.0</ele><time>2026-04-20T09:02:11Z</time></trkpt><trkpt lat="45.90752517971907" lon="10.728421469265179"><ele>763.0</ele><time>2026-04-20T09:02:12Z</time></trkpt><trkpt lat="45.90768788104952" lon="10.728315611036612"><ele>764.0</ele><time>2026-04-20T09:02:13Z</time></trkpt><trkpt lat="45.907849409605056" lon="10.728255115071645"><ele>765.0</ele><time>2026-04-20T09:02:14Z</time></trkpt><trkpt lat="45.908013676982236" lon="10.728194939928004"><ele>765.0</ele><time>2026-04-20T09:02:15Z</time></trkpt><trkpt lat="45.90814654233649" lon="10.72814653111284"><ele>765.0</ele><time>2026-04-20T09:02:16Z</time></trkpt><trkpt lat="45.908301528325666" lon="10.728088480256636"><ele>765.0</ele><time>2026-04-20T09:02:17Z</time></trkpt><trkpt lat="45.908437659788824" lon="10.728036555246916"><ele>765.0</ele><time>2026-04-20T09:02:18Z</time></trkpt><trkpt lat="45.90858441825088" lon="10.727980538111067"><ele>765.25</ele><time>2026-04-20T09:02:19Z</time></trkpt><trkpt lat="45.90872320324666" lon="10.727919967426011"><ele>765.5</ele><time>2026-04-20T09:02:20Z</time></trkpt><trkpt lat="45.908846803465465" lon="10.72783875795827"><ele>765.75</ele><time>2026-04-20T09:02:21Z</time></trkpt><trkpt lat="45.90895063827147" lon="10.72773832835375"><ele>766.0</ele><time>2026-04-20T09:02:22Z</time></trkpt><trkpt lat="45.909074105813346" lon="10.727595941438713"><ele>765.5</ele><time>2026-04-20T09:02:23Z</time></trkpt><trkpt lat="45.90919614388397" lon="10.727459179567907"><ele>765.0</ele><time>2026-04-20T09:02:24Z</time></trkpt><trkpt lat="45.90931866319652" lon="10.72732338879747"><ele>764.5</ele><time>2026-04-20T09:02:25Z</time></trkpt><trkpt lat="45.90942115156601" lon="10.727209798748383"><ele>764.0</ele><time>2026-04-20T09:02:26Z</time></trkpt><trkpt lat="45.909534385964456" lon="10.727082772764923"><ele>765.0</ele><time>2026-04-20T09:02:27Z</time></trkpt><trkpt lat="45.909632090069785" lon="10.72697057971812"><ele>766.0</ele><time>2026-04-20T09:02:28Z</time></trkpt><trkpt lat="45.909735885132676" lon="10.726843639513865"><ele>767.0</ele><time>2026-04-20T09:02:29Z</time></trkpt><trkpt lat="45.90982796511996" lon="10.72672614580874"><ele>768.0</ele><time>2026-04-20T09:02:30Z</time></trkpt><trkpt lat="45.90993616415116" lon="10.726604670500867"><ele>768.5999999999999</ele><time>2026-04-20T09:02:31Z</time></trkpt><trkpt lat="45.9100322536146" lon="10.726499020192007"><ele>769.1999999999999</ele><time>2026-04-20T09:02:32Z</time></trkpt><trkpt lat="45.91012389953526" lon="10.72642147839691"><ele>769.8</ele><time>2026-04-20T09:02:33Z</time></trkpt><trkpt lat="45.91019245546736" lon="10.726355952956634"><ele>770.4</ele><time>2026-04-20T09:02:34Z</time></trkpt><trkpt lat="45.91026566245264" lon="10.72628406591674"><ele>771.0</ele><time>2026-04-20T09:02:35Z</time></trkpt><trkpt lat="45.910355379307056" lon="10.726273877071737"><ele>772.25</ele><time>2026-04-20T09:02:36Z</time></trkpt><trkpt lat="45.91044729280117" lon="10.7262635209559"><ele>773.5</ele><time>2026-04-20T09:02:37Z</time></trkpt><trkpt lat="45.91055218030623" lon="10.726275782335357"><ele>774.75</ele><time>2026-04-20T09:02:38Z</time></trkpt><trkpt lat="45.91072213539149" lon="10.726291240710232"><ele>776.0</ele><time>2026-04-20T09:02:39Z</time></trkpt><trkpt lat="45.91087437275118" lon="10.726324461825614"><ele>778.0</ele><time>2026-04-20T09:02:40Z</time></trkpt><trkpt lat="45.911010842510315" lon="10.726353021802112"><ele>780.0</ele><time>2026-04-20T09:02:41Z</time></trkpt><trkpt lat="45.91113242395534" lon="10.726366842456114"><ele>782.0</ele><time>2026-04-20T09:02:42Z</time></trkpt><trkpt lat="45.91123683673943" lon="10.726392282231338"><ele>784.0</ele><time>2026-04-20T09:02:43Z</time></trkpt><trkpt lat="45.91135087380611" lon="10.726367660130654"><ele>784.0</ele><time>2026-04-20T09:02:44Z</time></trkpt><trkpt lat="45.91147485706297" lon="10.726315554209664"><ele>784.0</ele><time>2026-04-20T09:02:45Z</time></trkpt><trkpt lat="45.911614359092276" lon="10.726266201966428"><ele>784.0</ele><time>2026-04-20T09:02:46Z</time></trkpt><trkpt lat="45.911748013327816" lon="10.72623790213292"><ele>784.0</ele><time>2026-04-20T09:02:47Z</time></trkpt><trkpt lat="45.91186138361226" lon="10.726224678236917"><ele>785.5</ele><time>2026-04-20T09:02:48Z</time></trkpt><trkpt lat="45.9119843472948" lon="10.726242094280062"><ele>787.0</ele><time>2026-04-20T09:02:50Z</time></trkpt><trkpt lat="45.91209830234963" lon="10.726198616105048"><ele>788.5</ele><time>2026-04-20T09:02:51Z</time></trkpt><trkpt lat="45.91219947147085" lon="10.726171761287736"><ele>790.0</ele><time>2026-04-20T09:02:52Z</time></trkpt><trkpt lat="45.91233335067358" lon="10.726210680681755"><ele>790.0</ele><time>2026-04-20T09:02:53Z</time></trkpt><trkpt lat="45.91239389732319" lon="10.726299831552437"><ele>790.0</ele><time>2026-04-20T09:02:54Z</time></trkpt><trkpt lat="45.91248676255114" lon="10.726369705392168"><ele>790.0</ele><time>2026-04-20T09:02:55Z</time></trkpt><trkpt lat="45.9125795271284" lon="10.72646498646665"><ele>790.0</ele><time>2026-04-20T09:02:56Z</time></trkpt><trkpt lat="45.91266388541057" lon="10.726493105729698"><ele>790.0</ele><time>2026-04-20T09:02:57Z</time></trkpt><trkpt lat="45.91277651497377" lon="10.726468596084366"><ele>790.8</ele><time>2026-04-20T09:02:58Z</time></trkpt><trkpt lat="45.91286265805659" lon="10.726467718497869"><ele>791.6</ele><time>2026-04-20T09:02:59Z</time></trkpt><trkpt lat="45.91296544833427" lon="10.726510174204574"><ele>792.4000000000001</ele><time>2026-04-20T09:03:00Z</time></trkpt><trkpt lat="45.913065275055686" lon="10.726516326664735"><ele>793.2</ele><time>2026-04-20T09:03:01Z</time></trkpt><trkpt lat="45.91316109945825" lon="10.726517181268505"><ele>794.0</ele><time>2026-04-20T09:03:02Z</time></trkpt><trkpt lat="45.91329175390343" lon="10.726497671147484"><ele>794.0</ele><time>2026-04-20T09:03:03Z</time></trkpt><trkpt lat="45.91335729559059" lon="10.726445834042575"><ele>794.0</ele><time>2026-04-20T09:03:04Z</time></trkpt><trkpt lat="45.91342648093155" lon="10.726430246474118"><ele>794.0</ele><time>2026-04-20T09:03:05Z</time></trkpt><trkpt lat="45.913541763049665" lon="10.726410154710967"><ele>794.0</ele><time>2026-04-20T09:03:06Z</time></trkpt><trkpt lat="45.91367853782503" lon="10.726363419329456"><ele>794.0</ele><time>2026-04-20T09:03:07Z</time></trkpt><trkpt lat="45.91384273367613" lon="10.726296647789562"><ele>793.5</ele><time>2026-04-20T09:03:08Z</time></trkpt><trkpt lat="45.91400640249936" lon="10.72612855958254"><ele>793.0</ele><time>2026-04-20T09:03:09Z</time></trkpt><trkpt lat="45.914091200815555" lon="10.726115156573929"><ele>792.5</ele><time>2026-04-20T09:03:10Z</time></trkpt><trkpt lat="45.9141893125912" lon="10.726083674583258"><ele>792.0</ele><time>2026-04-20T09:03:11Z</time></trkpt><trkpt lat="45.91428806298676" lon="10.726076202267306"><ele>792.0</ele><time>2026-04-20T09:03:12Z</time></trkpt><trkpt lat="45.91439060540582" lon="10.72606857833503"><ele>792.0</ele><time>2026-04-20T09:03:13Z</time></trkpt><trkpt lat="45.914487576876475" lon="10.726038668273361"><ele>792.0</ele><time>2026-04-20T09:03:14Z</time></trkpt><trkpt lat="45.914587361675494" lon="10.725992627953005"><ele>792.0</ele><time>2026-04-20T09:03:15Z</time></trkpt><trkpt lat="45.91469899319755" lon="10.725967276476101"><ele>792.0</ele><time>2026-04-20T09:03:16Z</time></trkpt><trkpt lat="45.91485598286603" lon="10.725985542262713"><ele>794.0</ele><time>2026-04-20T09:03:17Z</time></trkpt><trkpt lat="45.915001165522305" lon="10.726012423489367"><ele>796.0</ele><time>2026-04-20T09:03:18Z</time></trkpt><trkpt lat="45.91516954084756" lon="10.726060800360086"><ele>798.0</ele><time>2026-04-20T09:03:19Z</time></trkpt><trkpt lat="45.91533084760527" lon="10.726119129474505"><ele>798.0</ele><time>2026-04-20T09:03:20Z</time></trkpt><trkpt lat="45.91549712954147" lon="10.726192680689005"><ele>798.0</ele><time>2026-04-20T09:03:21Z</time></trkpt><trkpt lat="45.915687167882815" lon="10.726279925256726"><ele>798.0</ele><time>2026-04-20T09:03:22Z</time></trkpt><trkpt lat="45.91585013862575" lon="10.7263438461349"><ele>806.3333333333333</ele><time>2026-04-20T09:03:23Z</time></trkpt><trkpt lat="45.91599936925778" lon="10.726430183884831"><ele>814.6666666666666</ele><time>2026-04-20T09:03:24Z</time></trkpt><trkpt lat="45.916108315297826" lon="10.726559996212021"><ele>823.0</ele><time>2026-04-20T09:03:25Z</time></trkpt><trkpt lat="45.91623825984038" lon="10.726682923145729"><ele>823.0</ele><time>2026-04-20T09:03:26Z</time></trkpt><trkpt lat="45.91640264509658" lon="10.726767194273704"><ele>823.0</ele><time>2026-04-20T09:03:27Z</time></trkpt><trkpt lat="45.91655392905441" lon="10.726891861342743"><ele>823.0</ele><time>2026-04-20T09:03:28Z</time></trkpt><trkpt lat="45.91668901503501" lon="10.727019705457662"><ele>820.0</ele><time>2026-04-20T09:03:29Z</time></trkpt><trkpt lat="45.916856989016026" lon="10.727111519837083"><ele>817.0</ele><time>2026-04-20T09:03:30Z</time></trkpt><trkpt lat="45.91702701058786" lon="10.727213679107104"><ele>814.0</ele><time>2026-04-20T09:03:31Z</time></trkpt><trkpt lat="45.917207725901925" lon="10.727278294597522"><ele>814.0</ele><time>2026-04-20T09:03:32Z</time></trkpt><trkpt lat="45.917386570907716" lon="10.727337944222233"><ele>814.0</ele><time>2026-04-20T09:03:33Z</time></trkpt><trkpt lat="45.917560428133235" lon="10.727406746042915"><ele>814.0</ele><time>2026-04-20T09:03:34Z</time></trkpt><trkpt lat="45.91772042352196" lon="10.727456062075184"><ele>814.25</ele><time>2026-04-20T09:03:35Z</time></trkpt><trkpt lat="45.91783201640259" lon="10.727576974269006"><ele>814.5</ele><time>2026-04-20T09:03:36Z</time></trkpt><trkpt lat="45.9179383797833" lon="10.727715427502996"><ele>814.75</ele><time>2026-04-20T09:03:37Z</time></trkpt><trkpt lat="45.91803854341789" lon="10.727883166147361"><ele>815.0</ele><time>2026-04-20T09:03:38Z</time></trkpt><trkpt lat="45.9181187713135" lon="10.728060572778851"><ele>815.0</ele><time>2026-04-20T09:03:39Z</time></trkpt><trkpt lat="45.91819971037372" lon="10.728307381746845"><ele>815.0</ele><time>2026-04-20T09:03:40Z</time></trkpt><trkpt lat="45.91829020627746" lon="10.728459236401598"><ele>815.0</ele><time>2026-04-20T09:03:41Z</time></trkpt><trkpt lat="45.91838807740308" lon="10.72856383657533"><ele>816.25</ele><time>2026-04-20T09:03:42Z</time></trkpt><trkpt lat="45.91850739890935" lon="10.728630011891314"><ele>817.5</ele><time>2026-04-20T09:03:43Z</time></trkpt><trkpt lat="45.91866602855553" lon="10.728710742967312"><ele>818.75</ele><time>2026-04-20T09:03:44Z</time></trkpt><trkpt lat="45.91879825005186" lon="10.728776764424381"><ele>820.0</ele><time>2026-04-20T09:03:45Z</time></trkpt><trkpt lat="45.918928246076085" lon="10.7288313611284"><ele>820.0</ele><time>2026-04-20T09:03:46Z</time></trkpt><trkpt lat="45.919094305916744" lon="10.728875932383454"><ele>820.0</ele><time>2026-04-20T09:03:47Z</time></trkpt><trkpt lat="45.91929909577203" lon="10.72891345170767"><ele>820.0</ele><time>2026-04-20T09:03:48Z</time></trkpt><trkpt lat="45.919489144945274" lon="10.728942749038472"><ele>822.6666666666666</ele><time>2026-04-20T09:03:49Z</time></trkpt><trkpt lat="45.91968010432861" lon="10.72894021964662"><ele>825.3333333333333</ele><time>2026-04-20T09:03:50Z</time></trkpt><trkpt lat="45.9198221357598" lon="10.728961216983821"><ele>828.0</ele><time>2026-04-20T09:03:51Z</time></trkpt><trkpt lat="45.91996885069504" lon="10.728973730058978"><ele>830.0</ele><time>2026-04-20T09:03:52Z</time></trkpt><trkpt lat="45.920110860511315" lon="10.729016675490447"><ele>832.0</ele><time>2026-04-20T09:03:53Z</time></trkpt><trkpt lat="45.92024559225756" lon="10.729065056902517"><ele>834.0</ele><time>2026-04-20T09:03:54Z</time></trkpt><trkpt lat="45.92039087097624" lon="10.729130275323701"><ele>836.0</ele><time>2026-04-20T09:03:55Z</time></trkpt><trkpt lat="45.920509102801766" lon="10.729221757539351"><ele>836.0</ele><time>2026-04-20T09:03:56Z</time></trkpt><trkpt lat="45.92061353318736" lon="10.729299568217241"><ele>836.0</ele><time>2026-04-20T09:03:57Z</time></trkpt><trkpt lat="45.920737088581824" lon="10.729388872736441"><ele>836.0</ele><time>2026-04-20T09:03:58Z</time></trkpt><trkpt lat="45.92085837410564" lon="10.729482493744149"><ele>836.0</ele><time>2026-04-20T09:03:59Z</time></trkpt><trkpt lat="45.92096181723009" lon="10.729558309375216"><ele>836.75</ele><time>2026-04-20T09:04:00Z</time></trkpt><trkpt lat="45.92107217744903" lon="10.729626810421307"><ele>837.5</ele><time>2026-04-20T09:04:01Z</time></trkpt><trkpt lat="45.921183349274685" lon="10.729703587312937"><ele>838.25</ele><time>2026-04-20T09:04:02Z</time></trkpt><trkpt lat="45.921278200372335" lon="10.729743124944298"><ele>839.0</ele><time>2026-04-20T09:04:03Z</time></trkpt><trkpt lat="45.92141648362317" lon="10.729771668889263"><ele>839.0</ele><time>2026-04-20T09:04:04Z</time></trkpt><trkpt lat="45.92156805331299" lon="10.729850050979444"><ele>839.0</ele><time>2026-04-20T09:04:05Z</time></trkpt><trkpt lat="45.92169895841102" lon="10.729904895170781"><ele>839.0</ele><time>2026-04-20T09:04:06Z</time></trkpt><trkpt lat="45.92183950376969" lon="10.729959126369947"><ele>839.0</ele><time>2026-04-20T09:04:07Z</time></trkpt><trkpt lat="45.92199492482349" lon="10.729993842342397"><ele>838.25</ele><time>2026-04-20T09:04:08Z</time></trkpt><trkpt lat="45.92213187669077" lon="10.730043299343532"><ele>837.5</ele><time>2026-04-20T09:04:09Z</time></trkpt><trkpt lat="45.92227559293398" lon="10.730051629057249"><ele>836.75</ele><time>2026-04-20T09:04:10Z</time></trkpt><trkpt lat="45.92243293393703" lon="10.730083308863149"><ele>836.0</ele><time>2026-04-20T09:04:11Z</time></trkpt><trkpt lat="45.92258572697719" lon="10.73013490254199"><ele>835.0</ele><time>2026-04-20T09:04:12Z</time></trkpt><trkpt lat="45.92273889501905" lon="10.73014504997946"><ele>834.0</ele><time>2026-04-20T09:04:13Z</time></trkpt><trkpt lat="45.92287205988468" lon="10.730181839449996"><ele>833.0</ele><time>2026-04-20T09:04:14Z</time></trkpt><trkpt lat="45.922989021615734" lon="10.73019254540181"><ele>832.0</ele><time>2026-04-20T09:04:15Z</time></trkpt><trkpt lat="45.923150132931305" lon="10.73019443319313"><ele>832.0</ele><time>2026-04-20T09:04:16Z</time></trkpt><trkpt lat="45.9233273939203" lon="10.730218903298967"><ele>832.0</ele><time>2026-04-20T09:04:17Z</time></trkpt><trkpt lat="45.92347627220607" lon="10.730268063586438"><ele>832.0</ele><time>2026-04-20T09:04:18Z</time></trkpt><trkpt lat="45.92363934912641" lon="10.730334333493648"><ele>834.0</ele><time>2026-04-20T09:04:19Z</time></trkpt><trkpt lat="45.92386257595564" lon="10.730348031769454"><ele>836.0</ele><time>2026-04-20T09:04:20Z</time></trkpt><trkpt lat="45.92404559991858" lon="10.730369302614028"><ele>838.0</ele><time>2026-04-20T09:04:21Z</time></trkpt><trkpt lat="45.92422529570263" lon="10.7303882552672"><ele>838.75</ele><time>2026-04-20T09:04:22Z</time></trkpt><trkpt lat="45.92437022868936" lon="10.730436768762848"><ele>839.5</ele><time>2026-04-20T09:04:23Z</time></trkpt><trkpt lat="45.9245135348074" lon="10.73046614150264"><ele>840.25</ele><time>2026-04-20T09:04:24Z</time></trkpt><trkpt lat="45.92465989930484" lon="10.730496173184742"><ele>841.0</ele><time>2026-04-20T09:04:25Z</time></trkpt><trkpt lat="45.92479761293751" lon="10.73052442984709"><ele>841.0</ele><time>2026-04-20T09:04:26Z</time></trkpt><trkpt lat="45.92492096311256" lon="10.730549739344202"><ele>841.0</ele><time>2026-04-20T09:04:27Z</time></trkpt><trkpt lat="45.925062087760736" lon="10.73057868881375"><ele>841.0</ele><time>2026-04-20T09:04:28Z</time></trkpt><trkpt lat="45.92520848531491" lon="10.730603244439433"><ele>841.0</ele><time>2026-04-20T09:04:29Z</time></trkpt><trkpt lat="45.925322562889775" lon="10.73061821764875"><ele>841.75</ele><time>2026-04-20T09:04:30Z</time></trkpt><trkpt lat="45.92542943217515" lon="10.730595501401885"><ele>842.5</ele><time>2026-04-20T09:04:31Z</time></trkpt><trkpt lat="45.9255624039336" lon="10.730586901658551"><ele>843.25</ele><time>2026-04-20T09:04:32Z</time></trkpt><trkpt lat="45.92570507580733" lon="10.730569343205559"><ele>844.0</ele><time>2026-04-20T09:04:33Z</time></trkpt><trkpt lat="45.92583943426711" lon="10.730545896277155"><ele>845.25</ele><time>2026-04-20T09:04:34Z</time></trkpt><trkpt lat="45.925961779374745" lon="10.73055010125232"><ele>846.5</ele><time>2026-04-20T09:04:35Z</time></trkpt><trkpt lat="45.92607874259643" lon="10.730556217122825"><ele>847.75</ele><time>2026-04-20T09:04:36Z</time></trkpt><trkpt lat="45.92619755010232" lon="10.730571598140589"><ele>849.0</ele><time>2026-04-20T09:04:37Z</time></trkpt><trkpt lat="45.926323861564086" lon="10.73060057005385"><ele>849.0</ele><time>2026-04-20T09:04:38Z</time></trkpt><trkpt lat="45.92646499115079" lon="10.730633914279034"><ele>849.0</ele><time>2026-04-20T09:04:39Z</time></trkpt><trkpt lat="45.92660628227544" lon="10.730671484265978"><ele>849.0</ele><time>2026-04-20T09:04:40Z</time></trkpt><trkpt lat="45.92674041931915" lon="10.730714116863668"><ele>849.0</ele><time>2026-04-20T09:04:41Z</time></trkpt><trkpt lat="45.92684659701946" lon="10.730750657970228"><ele>851.25</ele><time>2026-04-20T09:04:42Z</time></trkpt><trkpt lat="45.9269695986166" lon="10.730798964621576"><ele>853.5</ele><time>2026-04-20T09:04:43Z</time></trkpt><trkpt lat="45.92709260571697" lon="10.73084933412425"><ele>855.75</ele><time>2026-04-20T09:04:44Z</time></trkpt><trkpt lat="45.927215748698735" lon="10.730875961483132"><ele>858.0</ele><time>2026-04-20T09:04:45Z</time></trkpt><trkpt lat="45.927321558740104" lon="10.730943924389601"><ele>858.0</ele><time>2026-04-20T09:04:46Z</time></trkpt><trkpt lat="45.92743009142363" lon="10.730991639530586"><ele>858.0</ele><time>2026-04-20T09:04:47Z</time></trkpt><trkpt lat="45.92754050584501" lon="10.73102194584114"><ele>858.0</ele><time>2026-04-20T09:04:48Z</time></trkpt><trkpt lat="45.927662230615475" lon="10.731042054924435"><ele>858.0</ele><time>2026-04-20T09:04:49Z</time></trkpt><trkpt lat="45.92779350033673" lon="10.731061432518201"><ele>858.75</ele><time>2026-04-20T09:04:50Z</time></trkpt><trkpt lat="45.927909687369976" lon="10.73109897432442"><ele>859.5</ele><time>2026-04-20T09:04:51Z</time></trkpt><trkpt lat="45.92802849380719" lon="10.73116310533705"><ele>860.25</ele><time>2026-04-20T09:04:52Z</time></trkpt><trkpt lat="45.92815524987744" lon="10.731245714662428"><ele>861.0</ele><time>2026-04-20T09:04:53Z</time></trkpt><trkpt lat="45.928296633029966" lon="10.731344703745513"><ele>870.3333333333333</ele><time>2026-04-20T09:04:54Z</time></trkpt><trkpt lat="45.928439647247636" lon="10.731461610799132"><ele>879.6666666666666</ele><time>2026-04-20T09:04:55Z</time></trkpt><trkpt lat="45.92856624891938" lon="10.731605591965526"><ele>889.0</ele><time>2026-04-20T09:04:56Z</time></trkpt><trkpt lat="45.92868539417327" lon="10.731742041130932"><ele>889.0</ele><time>2026-04-20T09:04:57Z</time></trkpt><trkpt lat="45.928800781520124" lon="10.73186121618711"><ele>889.0</ele><time>2026-04-20T09:04:58Z</time></trkpt><trkpt lat="45.92891338790577" lon="10.731964665417769"><ele>889.0</ele><time>2026-04-20T09:04:59Z</time></trkpt><trkpt lat="45.92903878668212" lon="10.7320752380323"><ele>889.0</ele><time>2026-04-20T09:05:00Z</time></trkpt><trkpt lat="45.929155034517166" lon="10.732174644339263"><ele>885.6666666666666</ele><time>2026-04-20T09:05:01Z</time></trkpt><trkpt lat="45.9292817558208" lon="10.732268099379208"><ele>882.3333333333333</ele><time>2026-04-20T09:05:02Z</time></trkpt><trkpt lat="45.929425261633924" lon="10.732361167012312"><ele>879.0</ele><time>2026-04-20T09:05:03Z</time></trkpt><trkpt lat="45.929590469075514" lon="10.73245181878366"><ele>879.0</ele><time>2026-04-20T09:05:04Z</time></trkpt><trkpt lat="45.929722171513376" lon="10.732519835466922"><ele>879.0</ele><time>2026-04-20T09:05:05Z</time></trkpt><trkpt lat="45.929861455411114" lon="10.73259316107258"><ele>879.0</ele><time>2026-04-20T09:05:06Z</time></trkpt><trkpt lat="45.93000153952106" lon="10.732680187707505"><ele>879.0</ele><time>2026-04-20T09:05:07Z</time></trkpt><trkpt lat="45.93013358721964" lon="10.732791824151638"><ele>878.3333333333333</ele><time>2026-04-20T09:05:08Z</time></trkpt><trkpt lat="45.93026899856583" lon="10.73291945970452"><ele>877.6666666666666</ele><time>2026-04-20T09:05:09Z</time></trkpt><trkpt lat="45.930389252727046" lon="10.73304019781278"><ele>877.0</ele><time>2026-04-20T09:05:10Z</time></trkpt><trkpt lat="45.930508463930785" lon="10.733162504602317"><ele>877.0</ele><time>2026-04-20T09:05:11Z</time></trkpt><trkpt lat="45.930627449069036" lon="10.733282870548376"><ele>877.0</ele><time>2026-04-20T09:05:12Z</time></trkpt><trkpt lat="45.930758204698336" lon="10.733412071075309"><ele>877.0</ele><time>2026-04-20T09:05:13Z</time></trkpt><trkpt lat="45.93087372743835" lon="10.733537904822596"><ele>877.0</ele><time>2026-04-20T09:05:14Z</time></trkpt><trkpt lat="45.930981386872524" lon="10.733614531349907"><ele>880.0</ele><time>2026-04-20T09:05:15Z</time></trkpt><trkpt lat="45.93110755700195" lon="10.733665513908"><ele>883.0</ele><time>2026-04-20T09:05:16Z</time></trkpt><trkpt lat="45.931241796512715" lon="10.733717187630297"><ele>886.0</ele><time>2026-04-20T09:05:17Z</time></trkpt><trkpt lat="45.93137090289206" lon="10.73375226522987"><ele>889.0</ele><time>2026-04-20T09:05:18Z</time></trkpt><trkpt lat="45.93151801213436" lon="10.733792235734867"><ele>889.0</ele><time>2026-04-20T09:05:19Z</time></trkpt><trkpt lat="45.931658116170055" lon="10.733837136880435"><ele>889.0</ele><time>2026-04-20T09:05:20Z</time></trkpt><trkpt lat="45.93180906364424" lon="10.733911267291909"><ele>889.0</ele><time>2026-04-20T09:05:21Z</time></trkpt><trkpt lat="45.931970652586564" lon="10.734016551796023"><ele>893.5</ele><time>2026-04-20T09:05:22Z</time></trkpt><trkpt lat="45.93210355473889" lon="10.734110438647507"><ele>898.0</ele><time>2026-04-20T09:05:23Z</time></trkpt><trkpt lat="45.932208955861576" lon="10.734187581978073"><ele>902.5</ele><time>2026-04-20T09:05:24Z</time></trkpt><trkpt lat="45.93232966163794" lon="10.734263431500034"><ele>907.0</ele><time>2026-04-20T09:05:25Z</time></trkpt><trkpt lat="45.932481206075046" lon="10.73433121683188"><ele>908.6666666666666</ele><time>2026-04-20T09:05:26Z</time></trkpt><trkpt lat="45.93263327731168" lon="10.734367376095282"><ele>910.3333333333333</ele><time>2026-04-20T09:05:27Z</time></trkpt><trkpt lat="45.93280154858628" lon="10.734406218051168"><ele>912.0</ele><time>2026-04-20T09:05:28Z</time></trkpt><trkpt lat="45.932952304144465" lon="10.734443285747403"><ele>909.75</ele><time>2026-04-20T09:05:29Z</time></trkpt><trkpt lat="45.93308888102845" lon="10.734480564464551"><ele>907.5</ele><time>2026-04-20T09:05:30Z</time></trkpt><trkpt lat="45.933216671310724" lon="10.734534764592002"><ele>905.25</ele><time>2026-04-20T09:05:31Z</time></trkpt><trkpt lat="45.93336053462569" lon="10.734596185722822"><ele>903.0</ele><time>2026-04-20T09:05:32Z</time></trkpt><trkpt lat="45.9335090097676" lon="10.734671098258028"><ele>903.0</ele><time>2026-04-20T09:05:33Z</time></trkpt><trkpt lat="45.933596746760514" lon="10.734743182042306"><ele>903.0</ele><time>2026-04-20T09:05:34Z</time></trkpt><trkpt lat="45.9337361026229" lon="10.73483504820073"><ele>903.0</ele><time>2026-04-20T09:05:35Z</time></trkpt><trkpt lat="45.933860930175236" lon="10.734915589352953"><ele>903.0</ele><time>2026-04-20T09:05:36Z</time></trkpt><trkpt lat="45.9339961860712" lon="10.734984325001156"><ele>903.0</ele><time>2026-04-20T09:05:37Z</time></trkpt><trkpt lat="45.93413032402394" lon="10.735036184674824"><ele>903.0</ele><time>2026-04-20T09:05:38Z</time></trkpt><trkpt lat="45.93428132342212" lon="10.735077169404509"><ele>903.0</ele><time>2026-04-20T09:05:39Z</time></trkpt><trkpt lat="45.934427296380406" lon="10.735098091339687"><ele>903.0</ele><time>2026-04-20T09:05:40Z</time></trkpt><trkpt lat="45.9345242530355" lon="10.735114603499632"><ele>905.0</ele><time>2026-04-20T09:05:41Z</time></trkpt><trkpt lat="45.934622951838044" lon="10.735125260469854"><ele>907.0</ele><time>2026-04-20T09:05:42Z</time></trkpt><trkpt lat="45.9347144480141" lon="10.73513832134837"><ele>909.0</ele><time>2026-04-20T09:05:43Z</time></trkpt><trkpt lat="45.93487584853491" lon="10.735112498667576"><ele>911.0</ele><time>2026-04-20T09:05:44Z</time></trkpt><trkpt lat="45.93499676859893" lon="10.735111188288348"><ele>909.25</ele><time>2026-04-20T09:05:45Z</time></trkpt><trkpt lat="45.93512005320196" lon="10.735124517870021"><ele>907.5</ele><time>2026-04-20T09:05:46Z</time></trkpt><trkpt lat="45.93520900052689" lon="10.735164726118331"><ele>905.75</ele><time>2026-04-20T09:05:47Z</time></trkpt><trkpt lat="45.935329512453514" lon="10.735236835646814"><ele>904.0</ele><time>2026-04-20T09:05:48Z</time></trkpt><trkpt lat="45.93543973942893" lon="10.735356184219853"><ele>904.0</ele><time>2026-04-20T09:05:49Z</time></trkpt><trkpt lat="45.935554709083206" lon="10.735494343917162"><ele>904.0</ele><time>2026-04-20T09:05:50Z</time></trkpt><trkpt lat="45.935666443344275" lon="10.73564008789838"><ele>904.0</ele><time>2026-04-20T09:05:51Z</time></trkpt><trkpt lat="45.93575691933782" lon="10.735770479054455"><ele>904.0</ele><time>2026-04-20T09:05:52Z</time></trkpt><trkpt lat="45.93586427049146" lon="10.735938787200318"><ele>904.3333333333333</ele><time>2026-04-20T09:05:53Z</time></trkpt><trkpt lat="45.93596828136031" lon="10.736102912785631"><ele>904.6666666666667</ele><time>2026-04-20T09:05:54Z</time></trkpt><trkpt lat="45.9360787999517" lon="10.73627730733561"><ele>905.0</ele><time>2026-04-20T09:05:55Z</time></trkpt><trkpt lat="45.93618197023459" lon="10.736440106524825"><ele>905.0</ele><time>2026-04-20T09:05:56Z</time></trkpt><trkpt lat="45.9362969910029" lon="10.736579368784236"><ele>905.0</ele><time>2026-04-20T09:05:57Z</time></trkpt><trkpt lat="45.93638250195557" lon="10.736719720486601"><ele>905.0</ele><time>2026-04-20T09:05:58Z</time></trkpt><trkpt lat="45.93646473788339" lon="10.736855156081912"><ele>905.0</ele><time>2026-04-20T09:05:59Z</time></trkpt><trkpt lat="45.93655420354341" lon="10.737000524500028"><ele>906.25</ele><time>2026-04-20T09:06:00Z</time></trkpt><trkpt lat="45.936654411848814" lon="10.737155047033742"><ele>907.5</ele><time>2026-04-20T09:06:01Z</time></trkpt><trkpt lat="45.936753865540254" lon="10.737305641656697"><ele>908.75</ele><time>2026-04-20T09:06:02Z</time></trkpt><trkpt lat="45.93684873682654" lon="10.737449050183363"><ele>910.0</ele><time>2026-04-20T09:06:03Z</time></trkpt><trkpt lat="45.93694987441434" lon="10.73759515893644"><ele>912.0</ele><time>2026-04-20T09:06:04Z</time></trkpt><trkpt lat="45.93705283345328" lon="10.737725824758762"><ele>914.0</ele><time>2026-04-20T09:06:05Z</time></trkpt><trkpt lat="45.93715700003674" lon="10.737844663215057"><ele>916.0</ele><time>2026-04-20T09:06:06Z</time></trkpt><trkpt lat="45.93725615225097" lon="10.737957589130007"><ele>918.0</ele><time>2026-04-20T09:06:07Z</time></trkpt><trkpt lat="45.93737752193208" lon="10.73802197196229"><ele>918.0</ele><time>2026-04-20T09:06:08Z</time></trkpt><trkpt lat="45.93750777185792" lon="10.738118966291854"><ele>918.0</ele><time>2026-04-20T09:06:09Z</time></trkpt><trkpt lat="45.93760060752163" lon="10.73823820621473"><ele>918.0</ele><time>2026-04-20T09:06:10Z</time></trkpt><trkpt lat="45.93769413276328" lon="10.738389739763479"><ele>918.0</ele><time>2026-04-20T09:06:11Z</time></trkpt><trkpt lat="45.93780535144107" lon="10.738522035407442"><ele>922.0</ele><time>2026-04-20T09:06:12Z</time></trkpt><trkpt lat="45.937967157590215" lon="10.73867742953428"><ele>926.0</ele><time>2026-04-20T09:06:13Z</time></trkpt><trkpt lat="45.938126384712426" lon="10.738824845787315"><ele>930.0</ele><time>2026-04-20T09:06:14Z</time></trkpt><trkpt lat="45.938252379708075" lon="10.738958924862605"><ele>936.6666666666667</ele><time>2026-04-20T09:06:15Z</time></trkpt><trkpt lat="45.93839872169087" lon="10.739115616693736"><ele>943.3333333333334</ele><time>2026-04-20T09:06:16Z</time></trkpt><trkpt lat="45.93853843147797" lon="10.739254969507877"><ele>950.0</ele><time>2026-04-20T09:06:17Z</time></trkpt><trkpt lat="45.93867191495346" lon="10.739369366384622"><ele>946.5</ele><time>2026-04-20T09:06:18Z</time></trkpt><trkpt lat="45.93879749574569" lon="10.739481268439999"><ele>943.0</ele><time>2026-04-20T09:06:19Z</time></trkpt><trkpt lat="45.938923050822346" lon="10.739596969573828"><ele>939.5</ele><time>2026-04-20T09:06:20Z</time></trkpt><trkpt lat="45.938962615614265" lon="10.739711563784706"><ele>936.0</ele><time>2026-04-20T09:06:21Z</time></trkpt><trkpt lat="45.939035935810736" lon="10.739888259969131"><ele>936.0</ele><time>2026-04-20T09:06:22Z</time></trkpt><trkpt lat="45.93910344228803" lon="10.740035425148687"><ele>936.0</ele><time>2026-04-20T09:06:23Z</time></trkpt><trkpt lat="45.93916751472228" lon="10.740186417136568"><ele>936.0</ele><time>2026-04-20T09:06:24Z</time></trkpt><trkpt lat="45.939269021383865" lon="10.740322669768707"><ele>936.0</ele><time>2026-04-20T09:06:25Z</time></trkpt><trkpt lat="45.939349678300864" lon="10.740452191380776"><ele>941.6666666666667</ele><time>2026-04-20T09:06:26Z</time></trkpt><trkpt lat="45.93944703498134" lon="10.740577914867735"><ele>947.3333333333334</ele><time>2026-04-20T09:06:27Z</time></trkpt><trkpt lat="45.93958220059681" lon="10.740696457187742"><ele>953.0</ele><time>2026-04-20T09:06:28Z</time></trkpt><trkpt lat="45.93974539851676" lon="10.740787243364538"><ele>953.0</ele><time>2026-04-20T09:06:29Z</time></trkpt><trkpt lat="45.93987646624543" lon="10.740952246045152"><ele>953.0</ele><time>2026-04-20T09:06:30.143Z</time></trkpt><trkpt lat="45.94004755425942" lon="10.741041255634267"><ele>953.0</ele><time>2026-04-20T09:06:31.143Z</time></trkpt><trkpt lat="45.9401976385836" lon="10.741141537852604"><ele>954.0</ele><time>2026-04-20T09:06:32.144Z</time></trkpt><trkpt lat="45.94031629700819" lon="10.741282104415593"><ele>955.0</ele><time>2026-04-20T09:06:33.144Z</time></trkpt><trkpt lat="45.940331723935714" lon="10.741088524391833"><ele>956.0</ele><time>2026-04-20T09:06:34.141Z</time></trkpt><trkpt lat="45.94039502331408" lon="10.741004332211098"><ele>957.0</ele><time>2026-04-20T09:06:35.141Z</time></trkpt><trkpt lat="45.940499598750826" lon="10.741066395073746"><ele>957.0</ele><time>2026-04-20T09:06:36.143Z</time></trkpt><trkpt lat="45.940585931900955" lon="10.741115154967861"><ele>957.0</ele><time>2026-04-20T09:06:37.143Z</time></trkpt><trkpt lat="45.94073733004407" lon="10.741196838315032"><ele>957.0</ele><time>2026-04-20T09:06:38.143Z</time></trkpt><trkpt lat="45.940924339970614" lon="10.741308248482966"><ele>967.5</ele><time>2026-04-20T09:06:39.143Z</time></trkpt><trkpt lat="45.94130247296355" lon="10.741508854970375"><ele>978.0</ele><time>2026-04-20T09:06:40.143Z</time></trkpt><trkpt lat="45.94150873589055" lon="10.741610224268037"><ele>974.0</ele><time>2026-04-20T09:06:41.144Z</time></trkpt><trkpt lat="45.94172663455591" lon="10.74167975119083"><ele>970.0</ele><time>2026-04-20T09:06:42.144Z</time></trkpt><trkpt lat="45.941847001717235" lon="10.741800554807497"><ele>966.0</ele><time>2026-04-20T09:06:43.143Z</time></trkpt><trkpt lat="45.94199107224636" lon="10.74189342279393"><ele>966.0</ele><time>2026-04-20T09:06:44.144Z</time></trkpt><trkpt lat="45.94214851790774" lon="10.741870118892413"><ele>966.0</ele><time>2026-04-20T09:06:45.144Z</time></trkpt><trkpt lat="45.94229873833912" lon="10.741889848535166"><ele>966.0</ele><time>2026-04-20T09:06:46.147Z</time></trkpt><trkpt lat="45.9424602437501" lon="10.741913646740807"><ele>969.75</ele><time>2026-04-20T09:06:47.143Z</time></trkpt><trkpt lat="45.94256991413006" lon="10.741957301570999"><ele>973.5</ele><time>2026-04-20T09:06:48.143Z</time></trkpt><trkpt lat="45.94268867480416" lon="10.742044083337131"><ele>977.25</ele><time>2026-04-20T09:06:49.143Z</time></trkpt><trkpt lat="45.942806784140785" lon="10.742114455714061"><ele>981.0</ele><time>2026-04-20T09:06:50.143Z</time></trkpt><trkpt lat="45.942940971885065" lon="10.742176087275993"><ele>981.0</ele><time>2026-04-20T09:06:51.143Z</time></trkpt><trkpt lat="45.9430463589597" lon="10.74223884880248"><ele>981.0</ele><time>2026-04-20T09:06:52.143Z</time></trkpt><trkpt lat="45.94324206674889" lon="10.742344248819277"><ele>981.0</ele><time>2026-04-20T09:06:53.144Z</time></trkpt><trkpt lat="45.943396338310116" lon="10.742521033409247"><ele>978.5</ele><time>2026-04-20T09:06:54.143Z</time></trkpt><trkpt lat="45.94351533642713" lon="10.742648777209634"><ele>976.0</ele><time>2026-04-20T09:06:56.143Z</time></trkpt><trkpt lat="45.94357591364819" lon="10.742684259803697"><ele>973.5</ele><time>2026-04-20T09:06:57.146Z</time></trkpt><trkpt lat="45.94369260800082" lon="10.742734829963936"><ele>971.0</ele><time>2026-04-20T09:07:00.144Z</time></trkpt><trkpt lat="45.94382909261517" lon="10.742649585045205"><ele>975.4</ele><time>2026-04-20T09:07:04Z</time></trkpt><trkpt lat="45.94390783098801" lon="10.74259669166767"><ele>979.8</ele><time>2026-04-20T09:07:06Z</time></trkpt><trkpt lat="45.94399500622597" lon="10.74253143434156"><ele>984.1999999999999</ele><time>2026-04-20T09:07:08Z</time></trkpt><trkpt lat="45.944080634861216" lon="10.742488617719419"><ele>988.5999999999999</ele><time>2026-04-20T09:07:09Z</time></trkpt><trkpt lat="45.94420243773654" lon="10.742556142415651"><ele>993.0</ele><time>2026-04-20T09:07:11Z</time></trkpt><trkpt lat="45.944285907388455" lon="10.74264435534475"><ele>991.6666666666666</ele><time>2026-04-20T09:07:12Z</time></trkpt><trkpt lat="45.944334028105885" lon="10.742723356146945"><ele>990.3333333333333</ele><time>2026-04-20T09:07:13Z</time></trkpt><trkpt lat="45.94442177877531" lon="10.742858679647803"><ele>989.0</ele><time>2026-04-20T09:07:23Z</time></trkpt><trkpt lat="45.94435827863961" lon="10.742847175047505"><ele>987.6666666666666</ele><time>2026-04-20T09:08:38Z</time></trkpt><trkpt lat="45.94436609050196" lon="10.742746401859765"><ele>986.3333333333333</ele><time>2026-04-20T09:09:30Z</time></trkpt><trkpt lat="45.94430564819826" lon="10.74268712373912"><ele>985.0</ele><time>2026-04-20T09:11:06Z</time></trkpt><trkpt lat="45.94424546026676" lon="10.742660010120288"><ele>986.6</ele><time>2026-04-20T09:11:25Z</time></trkpt><trkpt lat="45.94417482096516" lon="10.742633772803442"><ele>988.2</ele><time>2026-04-20T09:11:28Z</time></trkpt><trkpt lat="45.94409616715869" lon="10.742642877250587"><ele>989.8</ele><time>2026-04-20T09:11:35Z</time></trkpt><trkpt lat="45.94397193091585" lon="10.742630646760508"><ele>991.4</ele><time>2026-04-20T09:11:37Z</time></trkpt><trkpt lat="45.94388985891139" lon="10.742624978395636"><ele>993.0</ele><time>2026-04-20T09:11:38Z</time></trkpt><trkpt lat="45.943739155734434" lon="10.742633806446463"><ele>993.0</ele><time>2026-04-20T09:11:40Z</time></trkpt><trkpt lat="45.94367112990474" lon="10.742642540393996"><ele>993.0</ele><time>2026-04-20T09:11:41Z</time></trkpt><trkpt lat="45.9436078383892" lon="10.742646101109964"><ele>993.0</ele><time>2026-04-20T09:11:42Z</time></trkpt><trkpt lat="45.94354058865359" lon="10.742630549094816"><ele>993.0</ele><time>2026-04-20T09:11:43Z</time></trkpt><trkpt lat="45.94347939603246" lon="10.74259750812315"><ele>993.0</ele><time>2026-04-20T09:11:44Z</time></trkpt><trkpt lat="45.94341229062838" lon="10.742538254586671"><ele>993.0</ele><time>2026-04-20T09:11:45Z</time></trkpt><trkpt lat="45.94331826155414" lon="10.742420395529864"><ele>990.5999999999999</ele><time>2026-04-20T09:11:47Z</time></trkpt><trkpt lat="45.94325100209874" lon="10.742346318935228"><ele>988.1999999999999</ele><time>2026-04-20T09:11:48Z</time></trkpt><trkpt lat="45.94318352907489" lon="10.74231439059812"><ele>985.8</ele><time>2026-04-20T09:11:49Z</time></trkpt><trkpt lat="45.94306480291245" lon="10.742369974519905"><ele>983.4</ele><time>2026-04-20T09:11:50Z</time></trkpt><trkpt lat="45.94297545027045" lon="10.742410025039243"><ele>981.0</ele><time>2026-04-20T09:11:51Z</time></trkpt><trkpt lat="45.94289475673845" lon="10.742450264841448"><ele>981.0</ele><time>2026-04-20T09:11:52Z</time></trkpt><trkpt lat="45.94278036623241" lon="10.74247202912644"><ele>980.9999999999999</ele><time>2026-04-20T09:11:53Z</time></trkpt><trkpt lat="45.9426837404854" lon="10.742480915361165"><ele>980.9999999999999</ele><time>2026-04-20T09:11:54Z</time></trkpt><trkpt lat="45.9426190453549" lon="10.742446429186034"><ele>981.0</ele><time>2026-04-20T09:11:55Z</time></trkpt><trkpt lat="45.942553497471366" lon="10.742402516941107"><ele>981.0</ele><time>2026-04-20T09:11:56Z</time></trkpt><trkpt lat="45.94244436487071" lon="10.742384946891313"><ele>977.25</ele><time>2026-04-20T09:11:57Z</time></trkpt><trkpt lat="45.9423069138009" lon="10.74238316504384"><ele>973.5</ele><time>2026-04-20T09:11:58Z</time></trkpt><trkpt lat="45.94217652489161" lon="10.742336048495337"><ele>969.75</ele><time>2026-04-20T09:11:59Z</time></trkpt><trkpt lat="45.94204495204009" lon="10.74231274282678"><ele>966.0</ele><time>2026-04-20T09:12:00Z</time></trkpt><trkpt lat="45.941919784155004" lon="10.74230052565996"><ele>966.0</ele><time>2026-04-20T09:12:01Z</time></trkpt><trkpt lat="45.94181723551727" lon="10.742306360998747"><ele>965.9999999999999</ele><time>2026-04-20T09:12:02Z</time></trkpt><trkpt lat="45.941765093346675" lon="10.74221452755834"><ele>965.9999999999999</ele><time>2026-04-20T09:12:03Z</time></trkpt><trkpt lat="45.94168878692548" lon="10.742197049549205"><ele>966.0</ele><time>2026-04-20T09:12:04Z</time></trkpt><trkpt lat="45.94159548627887" lon="10.742180950410015"><ele>966.0</ele><time>2026-04-20T09:12:05Z</time></trkpt><trkpt lat="45.9414896585528" lon="10.742182898940818"><ele>963.5</ele><time>2026-04-20T09:12:06Z</time></trkpt><trkpt lat="45.94139802793628" lon="10.74218077851234"><ele>961.0</ele><time>2026-04-20T09:12:07Z</time></trkpt><trkpt lat="45.94129358216271" lon="10.742152726726301"><ele>958.5</ele><time>2026-04-20T09:12:08Z</time></trkpt><trkpt lat="45.941183040268804" lon="10.742044212555628"><ele>956.0</ele><time>2026-04-20T09:12:09Z</time></trkpt><trkpt lat="45.941050526587716" lon="10.74191020236356"><ele>956.25</ele><time>2026-04-20T09:12:10Z</time></trkpt><trkpt lat="45.94090912148657" lon="10.741851928114615"><ele>956.5</ele><time>2026-04-20T09:12:11Z</time></trkpt><trkpt lat="45.940804309720185" lon="10.74174889649774"><ele>956.75</ele><time>2026-04-20T09:12:12Z</time></trkpt><trkpt lat="45.94068177406675" lon="10.74165111417928"><ele>957.0</ele><time>2026-04-20T09:12:13Z</time></trkpt><trkpt lat="45.94057882918721" lon="10.741537565429729"><ele>957.0</ele><time>2026-04-20T09:12:14Z</time></trkpt><trkpt lat="45.94039817991604" lon="10.7414691898739"><ele>957.0</ele><time>2026-04-20T09:12:15Z</time></trkpt><trkpt lat="45.9402424624286" lon="10.74134778203514"><ele>957.0</ele><time>2026-04-20T09:12:16Z</time></trkpt><trkpt lat="45.940124271581915" lon="10.741206330961612"><ele>955.6666666666667</ele><time>2026-04-20T09:12:17Z</time></trkpt><trkpt lat="45.940018933006165" lon="10.741001774942058"><ele>954.3333333333334</ele><time>2026-04-20T09:12:18Z</time></trkpt><trkpt lat="45.939898122119956" lon="10.740838823743788"><ele>953.0</ele><time>2026-04-20T09:12:19Z</time></trkpt><trkpt lat="45.939779323851425" lon="10.740693154389305"><ele>953.0</ele><time>2026-04-20T09:12:20Z</time></trkpt><trkpt lat="45.93963786257967" lon="10.740566234073167"><ele>953.0</ele><time>2026-04-20T09:12:21Z</time></trkpt><trkpt lat="45.939494880101144" lon="10.740529534114824"><ele>953.0</ele><time>2026-04-20T09:12:22Z</time></trkpt><trkpt lat="45.93937551834133" lon="10.740456573109906"><ele>953.0</ele><time>2026-04-20T09:12:23Z</time></trkpt><trkpt lat="45.93929604040613" lon="10.740396236705008"><ele>953.0</ele><time>2026-04-20T09:12:24Z</time></trkpt><trkpt lat="45.93922002849149" lon="10.74027943723286"><ele>953.0</ele><time>2026-04-20T09:12:25Z</time></trkpt><trkpt lat="45.93919155067161" lon="10.740109031701317"><ele>953.0</ele><time>2026-04-20T09:12:26Z</time></trkpt><trkpt lat="45.93911270062147" lon="10.739957825091762"><ele>953.0</ele><time>2026-04-20T09:12:27Z</time></trkpt><trkpt lat="45.939029368165905" lon="10.73981129595937"><ele>952.0</ele><time>2026-04-20T09:12:28Z</time></trkpt><trkpt lat="45.93897364848877" lon="10.739643799918499"><ele>951.0</ele><time>2026-04-20T09:12:29Z</time></trkpt><trkpt lat="45.938881472985756" lon="10.73950492587332"><ele>950.0</ele><time>2026-04-20T09:12:30Z</time></trkpt><trkpt lat="45.93871105028143" lon="10.739328303332142"><ele>950.0</ele><time>2026-04-20T09:12:31.143Z</time></trkpt><trkpt lat="45.938589965981066" lon="10.73917738679896"><ele>950.0</ele><time>2026-04-20T09:12:32.143Z</time></trkpt><trkpt lat="45.93851202299133" lon="10.739040711776974"><ele>950.0</ele><time>2026-04-20T09:12:33Z</time></trkpt><trkpt lat="45.93841204656503" lon="10.73893077527396"><ele>950.0</ele><time>2026-04-20T09:12:34Z</time></trkpt><trkpt lat="45.93831739818646" lon="10.738774795422765"><ele>946.3333333333334</ele><time>2026-04-20T09:12:35Z</time></trkpt><trkpt lat="45.93819774704878" lon="10.738650289791012"><ele>942.6666666666667</ele><time>2026-04-20T09:12:36Z</time></trkpt><trkpt lat="45.93796677491241" lon="10.738423733456372"><ele>939.0</ele><time>2026-04-20T09:12:38Z</time></trkpt><trkpt lat="45.93785597856808" lon="10.738329835726995"><ele>939.0</ele><time>2026-04-20T09:12:39Z</time></trkpt><trkpt lat="45.93770735236424" lon="10.738240193128894"><ele>939.0</ele><time>2026-04-20T09:12:40Z</time></trkpt><trkpt lat="45.93756618593941" lon="10.73815373857097"><ele>939.0</ele><time>2026-04-20T09:12:41Z</time></trkpt><trkpt lat="45.93739958032901" lon="10.738097040690818"><ele>932.0</ele><time>2026-04-20T09:12:42Z</time></trkpt><trkpt lat="45.93724076843147" lon="10.738045434576618"><ele>925.0</ele><time>2026-04-20T09:12:43Z</time></trkpt><trkpt lat="45.93708439858657" lon="10.738059135504828"><ele>918.0</ele><time>2026-04-20T09:12:44Z</time></trkpt><trkpt lat="45.93692857979551" lon="10.738066024111747"><ele>918.0</ele><time>2026-04-20T09:12:45Z</time></trkpt><trkpt lat="45.9368405347636" lon="10.737988235890457"><ele>918.0</ele><time>2026-04-20T09:12:46Z</time></trkpt><trkpt lat="45.93680068515664" lon="10.73783885099645"><ele>918.0</ele><time>2026-04-20T09:12:47Z</time></trkpt><trkpt lat="45.93668086325838" lon="10.737715572693125"><ele>918.0</ele><time>2026-04-20T09:12:48.143Z</time></trkpt><trkpt lat="45.9366001683745" lon="10.737506572459191"><ele>916.0</ele><time>2026-04-20T09:12:49.147Z</time></trkpt><trkpt lat="45.936565490689134" lon="10.737370224688124"><ele>914.0</ele><time>2026-04-20T09:12:50Z</time></trkpt><trkpt lat="45.93657994780604" lon="10.737178182250197"><ele>912.0</ele><time>2026-04-20T09:12:51Z</time></trkpt><trkpt lat="45.93657842734874" lon="10.736935868190752"><ele>910.0</ele><time>2026-04-20T09:12:52Z</time></trkpt><trkpt lat="45.9364456335669" lon="10.736813380749755"><ele>908.75</ele><time>2026-04-20T09:12:53Z</time></trkpt><trkpt lat="45.936293534182894" lon="10.73670917095335"><ele>907.5</ele><time>2026-04-20T09:12:54Z</time></trkpt><trkpt lat="45.93616539451309" lon="10.736582081316744"><ele>906.25</ele><time>2026-04-20T09:12:55Z</time></trkpt><trkpt lat="45.936111745783364" lon="10.736448945754994"><ele>905.0</ele><time>2026-04-20T09:12:56Z</time></trkpt><trkpt lat="45.936073563932176" lon="10.736292620019588"><ele>905.0</ele><time>2026-04-20T09:12:57Z</time></trkpt><trkpt lat="45.935990119189896" lon="10.736092417751316"><ele>905.0</ele><time>2026-04-20T09:12:58Z</time></trkpt><trkpt lat="45.93590533219234" lon="10.735900753159743"><ele>905.0</ele><time>2026-04-20T09:12:59Z</time></trkpt><trkpt lat="45.93580216724778" lon="10.735740451420167"><ele>904.6666666666667</ele><time>2026-04-20T09:13:00Z</time></trkpt><trkpt lat="45.93571366194681" lon="10.73558293799139"><ele>904.3333333333333</ele><time>2026-04-20T09:13:01Z</time></trkpt><trkpt lat="45.935568436831616" lon="10.735425122581356"><ele>904.0</ele><time>2026-04-20T09:13:02Z</time></trkpt><trkpt lat="45.93545763417675" lon="10.735315639461485"><ele>904.0</ele><time>2026-04-20T09:13:03Z</time></trkpt><trkpt lat="45.935359735731986" lon="10.735224406938643"><ele>904.0</ele><time>2026-04-20T09:13:04Z</time></trkpt><trkpt lat="45.935274433944926" lon="10.73511752078283"><ele>904.0</ele><time>2026-04-20T09:13:05Z</time></trkpt><trkpt lat="45.93518581742421" lon="10.73506027005156"><ele>904.0</ele><time>2026-04-20T09:13:06Z</time></trkpt><trkpt lat="45.935061196195434" lon="10.735073109082528"><ele>905.4000000000001</ele><time>2026-04-20T09:13:07Z</time></trkpt><trkpt lat="45.934915083818595" lon="10.735050162288688"><ele>906.8000000000001</ele><time>2026-04-20T09:13:08Z</time></trkpt><trkpt lat="45.9347889487225" lon="10.73506037660798"><ele>908.1999999999999</ele><time>2026-04-20T09:13:09Z</time></trkpt><trkpt lat="45.93470487060215" lon="10.735054872443598"><ele>909.5999999999999</ele><time>2026-04-20T09:13:10Z</time></trkpt><trkpt lat="45.934620023489714" lon="10.735042082987295"><ele>911.0</ele><time>2026-04-20T09:13:11Z</time></trkpt><trkpt lat="45.93453855917326" lon="10.735028129995174"><ele>911.0</ele><time>2026-04-20T09:13:12Z</time></trkpt><trkpt lat="45.93442069699267" lon="10.735019499312186"><ele>911.0</ele><time>2026-04-20T09:13:13Z</time></trkpt><trkpt lat="45.93428344590559" lon="10.734995084556642"><ele>911.0</ele><time>2026-04-20T09:13:14Z</time></trkpt><trkpt lat="45.934165726695944" lon="10.734963689690025"><ele>911.0</ele><time>2026-04-20T09:13:15Z</time></trkpt><trkpt lat="45.934068326626516" lon="10.734925010587768"><ele>909.0</ele><time>2026-04-20T09:13:16Z</time></trkpt><trkpt lat="45.93395333110009" lon="10.734864244549499"><ele>907.0</ele><time>2026-04-20T09:13:17Z</time></trkpt><trkpt lat="45.9338357738941" lon="10.734791343307283"><ele>905.0</ele><time>2026-04-20T09:13:18Z</time></trkpt><trkpt lat="45.93371718613835" lon="10.734711389663296"><ele>903.0</ele><time>2026-04-20T09:13:19Z</time></trkpt><trkpt lat="45.9335946651786" lon="10.734620954941434"><ele>903.0</ele><time>2026-04-20T09:13:20Z</time></trkpt><trkpt lat="45.93346135265517" lon="10.73456870828831"><ele>903.0</ele><time>2026-04-20T09:13:21Z</time></trkpt><trkpt lat="45.9333258940269" lon="10.734495353739351"><ele>903.0</ele><time>2026-04-20T09:13:22Z</time></trkpt><trkpt lat="45.93308615453515" lon="10.73442453044424"><ele>906.0</ele><time>2026-04-20T09:13:23Z</time></trkpt><trkpt lat="45.93291802311121" lon="10.734375999835214"><ele>909.0</ele><time>2026-04-20T09:13:24Z</time></trkpt><trkpt lat="45.93276080562201" lon="10.734312394760092"><ele>912.0</ele><time>2026-04-20T09:13:25Z</time></trkpt><trkpt lat="45.932606893674624" lon="10.734266423398132"><ele>910.75</ele><time>2026-04-20T09:13:26Z</time></trkpt><trkpt lat="45.93248678680668" lon="10.734220070051773"><ele>909.5</ele><time>2026-04-20T09:13:27Z</time></trkpt><trkpt lat="45.93235463256322" lon="10.734174995097952"><ele>908.25</ele><time>2026-04-20T09:13:28Z</time></trkpt><trkpt lat="45.93221060928661" lon="10.734059061621284"><ele>907.0</ele><time>2026-04-20T09:13:29Z</time></trkpt><trkpt lat="45.93208405256838" lon="10.733989244418497"><ele>907.0</ele><time>2026-04-20T09:13:30Z</time></trkpt><trkpt lat="45.93195426400649" lon="10.733903337243156"><ele>907.0</ele><time>2026-04-20T09:13:31Z</time></trkpt><trkpt lat="45.93181267936382" lon="10.733823464162754"><ele>907.0</ele><time>2026-04-20T09:13:32Z</time></trkpt><trkpt lat="45.931671447542236" lon="10.733761634815325"><ele>907.0</ele><time>2026-04-20T09:13:33Z</time></trkpt><trkpt lat="45.93152335954668" lon="10.73371882661817"><ele>903.6666666666666</ele><time>2026-04-20T09:13:34Z</time></trkpt><trkpt lat="45.93136941538954" lon="10.733679801981287"><ele>900.3333333333333</ele><time>2026-04-20T09:13:35Z</time></trkpt><trkpt lat="45.93117017532911" lon="10.733592395519269"><ele>897.0</ele><time>2026-04-20T09:13:36Z</time></trkpt><trkpt lat="45.93104449949862" lon="10.733544884318773"><ele>897.0</ele><time>2026-04-20T09:13:37Z</time></trkpt><trkpt lat="45.93094936865861" lon="10.733511796571916"><ele>897.0</ele><time>2026-04-20T09:13:38Z</time></trkpt><trkpt lat="45.930834518933544" lon="10.733397865555778"><ele>897.0</ele><time>2026-04-20T09:13:39Z</time></trkpt><trkpt lat="45.93069602498764" lon="10.73329316320155"><ele>897.0</ele><time>2026-04-20T09:13:40Z</time></trkpt><trkpt lat="45.930585799050725" lon="10.733155684004856"><ele>890.3333333333333</ele><time>2026-04-20T09:13:41Z</time></trkpt><trkpt lat="45.93045302106561" lon="10.73301363142898"><ele>883.6666666666666</ele><time>2026-04-20T09:13:42Z</time></trkpt><trkpt lat="45.93030886112463" lon="10.732891655924258"><ele>877.0</ele><time>2026-04-20T09:13:43Z</time></trkpt><trkpt lat="45.930187202104364" lon="10.732756413170884"><ele>877.5</ele><time>2026-04-20T09:13:44Z</time></trkpt><trkpt lat="45.93006938339342" lon="10.732650780338975"><ele>878.0</ele><time>2026-04-20T09:13:45Z</time></trkpt><trkpt lat="45.929931150675216" lon="10.732555180712092"><ele>878.5</ele><time>2026-04-20T09:13:46Z</time></trkpt><trkpt lat="45.929787695044304" lon="10.732477275777718"><ele>879.0</ele><time>2026-04-20T09:13:47Z</time></trkpt><trkpt lat="45.92965782537033" lon="10.732431021574849"><ele>879.0</ele><time>2026-04-20T09:13:48Z</time></trkpt><trkpt lat="45.92953927408539" lon="10.732351407719802"><ele>879.0</ele><time>2026-04-20T09:13:49Z</time></trkpt><trkpt lat="45.92944147893785" lon="10.732269223785048"><ele>879.0</ele><time>2026-04-20T09:13:50Z</time></trkpt><trkpt lat="45.92933664158536" lon="10.732200381794577"><ele>879.0</ele><time>2026-04-20T09:13:51Z</time></trkpt><trkpt lat="45.929240710684034" lon="10.732131940529458"><ele>877.25</ele><time>2026-04-20T09:13:52Z</time></trkpt><trkpt lat="45.929140373266335" lon="10.732028398349515"><ele>875.5</ele><time>2026-04-20T09:13:53Z</time></trkpt><trkpt lat="45.9290167120215" lon="10.731944497830394"><ele>873.75</ele><time>2026-04-20T09:13:54Z</time></trkpt><trkpt lat="45.928900113953574" lon="10.731844962962192"><ele>872.0</ele><time>2026-04-20T09:13:55Z</time></trkpt><trkpt lat="45.92879254208633" lon="10.73173312256375"><ele>869.25</ele><time>2026-04-20T09:13:56Z</time></trkpt><trkpt lat="45.92869313508735" lon="10.731622492292598"><ele>866.5</ele><time>2026-04-20T09:13:57Z</time></trkpt><trkpt lat="45.92858920356144" lon="10.731500026314466"><ele>863.75</ele><time>2026-04-20T09:13:58Z</time></trkpt><trkpt lat="45.92848026055913" lon="10.73137243459944"><ele>861.0</ele><time>2026-04-20T09:13:59Z</time></trkpt><trkpt lat="45.928369753440556" lon="10.731263736550593"><ele>861.0</ele><time>2026-04-20T09:14:00Z</time></trkpt><trkpt lat="45.92823695829725" lon="10.731199498768556"><ele>861.0</ele><time>2026-04-20T09:14:01Z</time></trkpt><trkpt lat="45.92812569904751" lon="10.731131353794218"><ele>861.0</ele><time>2026-04-20T09:14:02Z</time></trkpt><trkpt lat="45.92801031447271" lon="10.731062856175619"><ele>861.0</ele><time>2026-04-20T09:14:03Z</time></trkpt><trkpt lat="45.927891656083126" lon="10.731005645047448"><ele>860.25</ele><time>2026-04-20T09:14:04Z</time></trkpt><trkpt lat="45.927752847447366" lon="10.730975426850504"><ele>859.5</ele><time>2026-04-20T09:14:05Z</time></trkpt><trkpt lat="45.92760893988417" lon="10.730972214010807"><ele>858.75</ele><time>2026-04-20T09:14:06Z</time></trkpt><trkpt lat="45.927469656909985" lon="10.730927833436809"><ele>858.0</ele><time>2026-04-20T09:14:07Z</time></trkpt><trkpt lat="45.927323406089336" lon="10.730869434264916"><ele>858.0</ele><time>2026-04-20T09:14:08Z</time></trkpt><trkpt lat="45.92718047608868" lon="10.730813157516655"><ele>858.0</ele><time>2026-04-20T09:14:09Z</time></trkpt><trkpt lat="45.92703847824142" lon="10.730755500010146"><ele>858.0</ele><time>2026-04-20T09:14:10Z</time></trkpt><trkpt lat="45.92689232298728" lon="10.730696507714226"><ele>858.0</ele><time>2026-04-20T09:14:11Z</time></trkpt><trkpt lat="45.92675135862205" lon="10.730633305827926"><ele>855.75</ele><time>2026-04-20T09:14:12Z</time></trkpt><trkpt lat="45.92661165149058" lon="10.730586528705398"><ele>853.5</ele><time>2026-04-20T09:14:13Z</time></trkpt><trkpt lat="45.926469737677564" lon="10.730559403977397"><ele>851.25</ele><time>2026-04-20T09:14:14Z</time></trkpt><trkpt lat="45.92631602542955" lon="10.7305377284147"><ele>849.0</ele><time>2026-04-20T09:14:15Z</time></trkpt><trkpt lat="45.92615850968671" lon="10.730529321277674"><ele>849.0</ele><time>2026-04-20T09:14:16Z</time></trkpt><trkpt lat="45.92600723609098" lon="10.730526855593727"><ele>849.0</ele><time>2026-04-20T09:14:17Z</time></trkpt><trkpt lat="45.92583574050851" lon="10.730516994696629"><ele>849.0</ele><time>2026-04-20T09:14:18Z</time></trkpt><trkpt lat="45.92566932859441" lon="10.73055840035367"><ele>847.3333333333333</ele><time>2026-04-20T09:14:19Z</time></trkpt><trkpt lat="45.92550922875148" lon="10.730561904276946"><ele>845.6666666666666</ele><time>2026-04-20T09:14:20Z</time></trkpt><trkpt lat="45.925349172659025" lon="10.73056217084459"><ele>844.0</ele><time>2026-04-20T09:14:21Z</time></trkpt><trkpt lat="45.92517435287571" lon="10.730542033177057"><ele>843.0</ele><time>2026-04-20T09:14:22Z</time></trkpt><trkpt lat="45.92500584921774" lon="10.73051656703423"><ele>842.0</ele><time>2026-04-20T09:14:23Z</time></trkpt><trkpt lat="45.92483374945146" lon="10.730479900607534"><ele>841.0</ele><time>2026-04-20T09:14:24Z</time></trkpt><trkpt lat="45.92466949901257" lon="10.730448970447839"><ele>841.0</ele><time>2026-04-20T09:14:25Z</time></trkpt><trkpt lat="45.92450253041502" lon="10.730415783231953"><ele>841.0</ele><time>2026-04-20T09:14:26Z</time></trkpt><trkpt lat="45.92433997643364" lon="10.730381878817436"><ele>841.0</ele><time>2026-04-20T09:14:27Z</time></trkpt><trkpt lat="45.92417612463563" lon="10.730357443285373"><ele>840.0</ele><time>2026-04-20T09:14:28Z</time></trkpt><trkpt lat="45.923992402270684" lon="10.73033066780598"><ele>839.0</ele><time>2026-04-20T09:14:29Z</time></trkpt><trkpt lat="45.92380753593577" lon="10.730289883685742"><ele>838.0</ele><time>2026-04-20T09:14:30Z</time></trkpt><trkpt lat="45.92363868704635" lon="10.730258504763334"><ele>837.0</ele><time>2026-04-20T09:14:31Z</time></trkpt><trkpt lat="45.923461399677805" lon="10.730209843047321"><ele>836.0</ele><time>2026-04-20T09:14:32Z</time></trkpt><trkpt lat="45.92330005175347" lon="10.730180292368159"><ele>835.0</ele><time>2026-04-20T09:14:33Z</time></trkpt><trkpt lat="45.92314965130467" lon="10.730152746720966"><ele>834.0</ele><time>2026-04-20T09:14:34Z</time></trkpt><trkpt lat="45.92298581201342" lon="10.730122739781052"><ele>833.0</ele><time>2026-04-20T09:14:35Z</time></trkpt><trkpt lat="45.92282762744499" lon="10.730090720051358"><ele>832.0</ele><time>2026-04-20T09:14:36Z</time></trkpt><trkpt lat="45.922675350952126" lon="10.730059977495177"><ele>833.0</ele><time>2026-04-20T09:14:37Z</time></trkpt><trkpt lat="45.922518266271744" lon="10.730028264241215"><ele>834.0</ele><time>2026-04-20T09:14:38Z</time></trkpt><trkpt lat="45.92236979176396" lon="10.729998355486527"><ele>835.0</ele><time>2026-04-20T09:14:39Z</time></trkpt><trkpt lat="45.92223396486547" lon="10.729971182839758"><ele>836.0</ele><time>2026-04-20T09:14:40Z</time></trkpt><trkpt lat="45.92208072893068" lon="10.729945540426172"><ele>836.0</ele><time>2026-04-20T09:14:41Z</time></trkpt><trkpt lat="45.92192644184473" lon="10.729917223966797"><ele>836.0</ele><time>2026-04-20T09:14:42Z</time></trkpt><trkpt lat="45.92176940223552" lon="10.729886310502947"><ele>836.0</ele><time>2026-04-20T09:14:43Z</time></trkpt><trkpt lat="45.921612525439826" lon="10.729804221810753"><ele>837.0</ele><time>2026-04-20T09:14:44Z</time></trkpt><trkpt lat="45.92145198861418" lon="10.729743775811178"><ele>838.0</ele><time>2026-04-20T09:14:45Z</time></trkpt><trkpt lat="45.921301315889394" lon="10.729687804668647"><ele>839.0</ele><time>2026-04-20T09:14:46Z</time></trkpt><trkpt lat="45.921163872562595" lon="10.72963543249588"><ele>839.0</ele><time>2026-04-20T09:14:47Z</time></trkpt><trkpt lat="45.92103722383118" lon="10.729560746208255"><ele>839.0</ele><time>2026-04-20T09:14:48Z</time></trkpt><trkpt lat="45.92090097850637" lon="10.729460367608121"><ele>839.0</ele><time>2026-04-20T09:14:49Z</time></trkpt><trkpt lat="45.92077661211319" lon="10.729364025396551"><ele>839.0</ele><time>2026-04-20T09:14:50Z</time></trkpt><trkpt lat="45.92065397994829" lon="10.72930008622026"><ele>838.25</ele><time>2026-04-20T09:14:51Z</time></trkpt><trkpt lat="45.92054597566679" lon="10.729184740615596"><ele>837.5</ele><time>2026-04-20T09:14:52Z</time></trkpt><trkpt lat="45.920431375275975" lon="10.729096925826958"><ele>836.75</ele><time>2026-04-20T09:14:53Z</time></trkpt><trkpt lat="45.92030962195971" lon="10.72902350541839"><ele>836.0</ele><time>2026-04-20T09:14:54Z</time></trkpt><trkpt lat="45.92016149323369" lon="10.72895813613867"><ele>834.0</ele><time>2026-04-20T09:14:55Z</time></trkpt><trkpt lat="45.920027427239454" lon="10.728920442248667"><ele>832.0</ele><time>2026-04-20T09:14:56Z</time></trkpt><trkpt lat="45.91989627111932" lon="10.728900524953644"><ele>830.0</ele><time>2026-04-20T09:14:57Z</time></trkpt><trkpt lat="45.919767746883586" lon="10.728880311571245"><ele>828.0</ele><time>2026-04-20T09:14:58Z</time></trkpt><trkpt lat="45.919638492627925" lon="10.72885918195351"><ele>828.0</ele><time>2026-04-20T09:14:59Z</time></trkpt><trkpt lat="45.91947742076964" lon="10.728847944178986"><ele>828.0</ele><time>2026-04-20T09:15:00Z</time></trkpt><trkpt lat="45.91930795793327" lon="10.72882488354119"><ele>828.0</ele><time>2026-04-20T09:15:01Z</time></trkpt><trkpt lat="45.919150115547396" lon="10.728784167524244"><ele>825.3333333333333</ele><time>2026-04-20T09:15:02Z</time></trkpt><trkpt lat="45.918984583372946" lon="10.728757141621424"><ele>822.6666666666666</ele><time>2026-04-20T09:15:03Z</time></trkpt><trkpt lat="45.91881574811194" lon="10.728711595050985"><ele>820.0</ele><time>2026-04-20T09:15:04Z</time></trkpt><trkpt lat="45.9186682480192" lon="10.728635092165353"><ele>818.3333333333333</ele><time>2026-04-20T09:15:05Z</time></trkpt><trkpt lat="45.918512809933915" lon="10.728534201135353"><ele>816.6666666666667</ele><time>2026-04-20T09:15:06Z</time></trkpt><trkpt lat="45.91835682048897" lon="10.728443998280063"><ele>815.0</ele><time>2026-04-20T09:15:07Z</time></trkpt><trkpt lat="45.91823860649803" lon="10.728333782395655"><ele>815.0</ele><time>2026-04-20T09:15:08Z</time></trkpt><trkpt lat="45.918116584452015" lon="10.728216278194022"><ele>815.0</ele><time>2026-04-20T09:15:09Z</time></trkpt><trkpt lat="45.91802082251095" lon="10.728072202060687"><ele>815.0</ele><time>2026-04-20T09:15:10Z</time></trkpt><trkpt lat="45.91793074239979" lon="10.727944795695981"><ele>815.0</ele><time>2026-04-20T09:15:11Z</time></trkpt><trkpt lat="45.91784791883551" lon="10.727816615656753"><ele>814.75</ele><time>2026-04-20T09:15:12Z</time></trkpt><trkpt lat="45.917771823735876" lon="10.72768940049313"><ele>814.5</ele><time>2026-04-20T09:15:13Z</time></trkpt><trkpt lat="45.917661770356915" lon="10.727587624024714"><ele>814.25</ele><time>2026-04-20T09:15:14Z</time></trkpt><trkpt lat="45.91753221314014" lon="10.727491259634753"><ele>814.0</ele><time>2026-04-20T09:15:15Z</time></trkpt><trkpt lat="45.917388563805005" lon="10.727401209340044"><ele>814.0</ele><time>2026-04-20T09:15:16Z</time></trkpt><trkpt lat="45.91719212515867" lon="10.727309474907848"><ele>814.0</ele><time>2026-04-20T09:15:17Z</time></trkpt><trkpt lat="45.91702171378285" lon="10.727217997225875"><ele>814.0</ele><time>2026-04-20T09:15:18Z</time></trkpt><trkpt lat="45.91686067124175" lon="10.727119215245647"><ele>817.0</ele><time>2026-04-20T09:15:19Z</time></trkpt><trkpt lat="45.916712375503955" lon="10.726998714299613"><ele>820.0</ele><time>2026-04-20T09:15:20Z</time></trkpt><trkpt lat="45.91654857924552" lon="10.726880558302797"><ele>823.0</ele><time>2026-04-20T09:15:21Z</time></trkpt><trkpt lat="45.91638653509333" lon="10.726779966905898"><ele>823.0</ele><time>2026-04-20T09:15:22Z</time></trkpt><trkpt lat="45.91622708616654" lon="10.726677788689143"><ele>823.0</ele><time>2026-04-20T09:15:23Z</time></trkpt><trkpt lat="45.9160765996367" lon="10.726595046830623"><ele>823.0</ele><time>2026-04-20T09:15:24Z</time></trkpt><trkpt lat="45.91593427754821" lon="10.726496009547532"><ele>814.6666666666666</ele><time>2026-04-20T09:15:25Z</time></trkpt><trkpt lat="45.915789289165254" lon="10.726400913669197"><ele>806.3333333333333</ele><time>2026-04-20T09:15:26Z</time></trkpt><trkpt lat="45.91563561906666" lon="10.726300324873149"><ele>798.0</ele><time>2026-04-20T09:15:27Z</time></trkpt><trkpt lat="45.915467756019424" lon="10.726235456993365"><ele>798.0</ele><time>2026-04-20T09:15:28Z</time></trkpt><trkpt lat="45.9153173310191" lon="10.726177637025136"><ele>798.0</ele><time>2026-04-20T09:15:29Z</time></trkpt><trkpt lat="45.91517586040972" lon="10.72611491128671"><ele>798.0</ele><time>2026-04-20T09:15:30Z</time></trkpt><trkpt lat="45.91502279139932" lon="10.726063009341955"><ele>799.3333333333333</ele><time>2026-04-20T09:15:31Z</time></trkpt><trkpt lat="45.914865893195156" lon="10.726035764590197"><ele>800.6666666666666</ele><time>2026-04-20T09:15:32Z</time></trkpt><trkpt lat="45.914703938780825" lon="10.726028294438212"><ele>802.0</ele><time>2026-04-20T09:15:33Z</time></trkpt><trkpt lat="45.914561539280975" lon="10.726027826670173"><ele>802.0</ele><time>2026-04-20T09:15:34Z</time></trkpt><trkpt lat="45.9144318451458" lon="10.726031318411147"><ele>802.0</ele><time>2026-04-20T09:15:35Z</time></trkpt><trkpt lat="45.91429612162089" lon="10.726068070276172"><ele>802.0</ele><time>2026-04-20T09:15:36Z</time></trkpt><trkpt lat="45.91418651000433" lon="10.726116902296956"><ele>802.0</ele><time>2026-04-20T09:15:37Z</time></trkpt><trkpt lat="45.914067296924955" lon="10.726157705204933"><ele>799.0</ele><time>2026-04-20T09:15:38Z</time></trkpt><trkpt lat="45.91394760210094" lon="10.726190662691748"><ele>796.0</ele><time>2026-04-20T09:15:39Z</time></trkpt><trkpt lat="45.91382054916307" lon="10.726244075856311"><ele>793.0</ele><time>2026-04-20T09:15:40Z</time></trkpt><trkpt lat="45.91370966522148" lon="10.726288448356058"><ele>790.0</ele><time>2026-04-20T09:15:41Z</time></trkpt><trkpt lat="45.913610976350014" lon="10.726313603897427"><ele>790.0</ele><time>2026-04-20T09:15:42Z</time></trkpt><trkpt lat="45.91350949548971" lon="10.72632259216631"><ele>790.0</ele><time>2026-04-20T09:15:43Z</time></trkpt><trkpt lat="45.913414597942676" lon="10.726361396945508"><ele>790.0</ele><time>2026-04-20T09:15:44Z</time></trkpt><trkpt lat="45.91331515896334" lon="10.726381981109862"><ele>790.0</ele><time>2026-04-20T09:15:45Z</time></trkpt><trkpt lat="45.91320767781699" lon="10.726406928108677"><ele>790.0</ele><time>2026-04-20T09:15:46Z</time></trkpt><trkpt lat="45.913099322787396" lon="10.726421813506512"><ele>791.0</ele><time>2026-04-20T09:15:47Z</time></trkpt><trkpt lat="45.91299741437237" lon="10.72642181351285"><ele>792.0</ele><time>2026-04-20T09:15:48Z</time></trkpt><trkpt lat="45.91288967174956" lon="10.72640229063789"><ele>793.0</ele><time>2026-04-20T09:15:49Z</time></trkpt><trkpt lat="45.91277646060961" lon="10.72641322439057"><ele>794.0</ele><time>2026-04-20T09:15:50Z</time></trkpt><trkpt lat="45.91265056704025" lon="10.726415472941884"><ele>793.2</ele><time>2026-04-20T09:15:51Z</time></trkpt><trkpt lat="45.91254545392025" lon="10.726379148352395"><ele>792.4000000000001</ele><time>2026-04-20T09:15:52Z</time></trkpt><trkpt lat="45.91244548510363" lon="10.726342601232147"><ele>791.6</ele><time>2026-04-20T09:15:53Z</time></trkpt><trkpt lat="45.91234993772438" lon="10.72626652398342"><ele>790.8</ele><time>2026-04-20T09:15:54Z</time></trkpt><trkpt lat="45.91226571178931" lon="10.726244375323718"><ele>790.0</ele><time>2026-04-20T09:15:55Z</time></trkpt><trkpt lat="45.91217137388148" lon="10.726224242970162"><ele>790.0</ele><time>2026-04-20T09:15:56Z</time></trkpt><trkpt lat="45.9120604093052" lon="10.726198573233"><ele>790.0</ele><time>2026-04-20T09:15:57Z</time></trkpt><trkpt lat="45.91195630228502" lon="10.726179111709971"><ele>790.0</ele><time>2026-04-20T09:15:58Z</time></trkpt><trkpt lat="45.91185646484709" lon="10.726175069049981"><ele>790.0</ele><time>2026-04-20T09:15:59Z</time></trkpt><trkpt lat="45.91174549975298" lon="10.726178682916148"><ele>790.0</ele><time>2026-04-20T09:16:00Z</time></trkpt><trkpt lat="45.91162165595445" lon="10.726201190941627"><ele>788.5</ele><time>2026-04-20T09:16:01Z</time></trkpt><trkpt lat="45.91149080297585" lon="10.726244182627134"><ele>787.0</ele><time>2026-04-20T09:16:02Z</time></trkpt><trkpt lat="45.91136289578121" lon="10.726294515820179"><ele>785.5</ele><time>2026-04-20T09:16:03Z</time></trkpt><trkpt lat="45.91124005152241" lon="10.726313844771505"><ele>784.0</ele><time>2026-04-20T09:16:04Z</time></trkpt><trkpt lat="45.911126743187964" lon="10.726327050503954"><ele>784.0</ele><time>2026-04-20T09:16:05Z</time></trkpt><trkpt lat="45.91100967279725" lon="10.726325101796585"><ele>784.0</ele><time>2026-04-20T09:16:06Z</time></trkpt><trkpt lat="45.91087930566854" lon="10.726278637478938"><ele>784.0</ele><time>2026-04-20T09:16:07Z</time></trkpt><trkpt lat="45.91073500168198" lon="10.726245011231457"><ele>784.0</ele><time>2026-04-20T09:16:08Z</time></trkpt><trkpt lat="45.91059513450145" lon="10.726246717796851"><ele>782.4000000000001</ele><time>2026-04-20T09:16:09Z</time></trkpt><trkpt lat="45.910482134775876" lon="10.726229645847912"><ele>780.8</ele><time>2026-04-20T09:16:10Z</time></trkpt><trkpt lat="45.91036231114599" lon="10.726214890690557"><ele>779.2</ele><time>2026-04-20T09:16:11Z</time></trkpt><trkpt lat="45.91026192764496" lon="10.726223000411368"><ele>777.5999999999999</ele><time>2026-04-20T09:16:12Z</time></trkpt><trkpt lat="45.9101667779681" lon="10.726253995373202"><ele>776.0</ele><time>2026-04-20T09:16:13Z</time></trkpt><trkpt lat="45.91006651839722" lon="10.726323852858501"><ele>774.75</ele><time>2026-04-20T09:16:14Z</time></trkpt><trkpt lat="45.90997384443907" lon="10.726458899728284"><ele>773.5</ele><time>2026-04-20T09:16:15Z</time></trkpt><trkpt lat="45.90986252863273" lon="10.726583977440603"><ele>772.25</ele><time>2026-04-20T09:16:16Z</time></trkpt><trkpt lat="45.90975218666187" lon="10.726695847842043"><ele>771.0</ele><time>2026-04-20T09:16:17Z</time></trkpt><trkpt lat="45.90963096153266" lon="10.72683191093997"><ele>770.0</ele><time>2026-04-20T09:16:18Z</time></trkpt><trkpt lat="45.90950052611929" lon="10.726977402887353"><ele>769.0</ele><time>2026-04-20T09:16:19Z</time></trkpt><trkpt lat="45.90938411565782" lon="10.727122171986899"><ele>768.0</ele><time>2026-04-20T09:16:20Z</time></trkpt><trkpt lat="45.909262410427765" lon="10.727287374111915"><ele>766.6666666666666</ele><time>2026-04-20T09:16:21Z</time></trkpt><trkpt lat="45.909140831100096" lon="10.727419587927576"><ele>765.3333333333333</ele><time>2026-04-20T09:16:22Z</time></trkpt><trkpt lat="45.90901613742465" lon="10.727553788925317"><ele>764.0</ele><time>2026-04-20T09:16:23Z</time></trkpt><trkpt lat="45.90890100311486" lon="10.727698135696933"><ele>764.6666666666666</ele><time>2026-04-20T09:16:24Z</time></trkpt><trkpt lat="45.90877812525489" lon="10.727826949046278"><ele>765.3333333333334</ele><time>2026-04-20T09:16:25Z</time></trkpt><trkpt lat="45.908642112006405" lon="10.727907657509071"><ele>766.0</ele><time>2026-04-20T09:16:26Z</time></trkpt><trkpt lat="45.90848787607193" lon="10.727943374072714"><ele>765.6666666666667</ele><time>2026-04-20T09:16:27Z</time></trkpt><trkpt lat="45.908332179496675" lon="10.728002802892275"><ele>765.3333333333334</ele><time>2026-04-20T09:16:28Z</time></trkpt><trkpt lat="45.90818777750161" lon="10.72805648398201"><ele>765.0</ele><time>2026-04-20T09:16:29Z</time></trkpt><trkpt lat="45.90803538613588" lon="10.728113608357116"><ele>765.0</ele><time>2026-04-20T09:16:30Z</time></trkpt><trkpt lat="45.90787780941311" lon="10.728170647424442"><ele>765.0</ele><time>2026-04-20T09:16:31Z</time></trkpt><trkpt lat="45.90771686848638" lon="10.728230832107887"><ele>765.0</ele><time>2026-04-20T09:16:32Z</time></trkpt><trkpt lat="45.90756122689724" lon="10.728291017742437"><ele>764.0</ele><time>2026-04-20T09:16:33Z</time></trkpt><trkpt lat="45.907403098702744" lon="10.728356759986998"><ele>763.0</ele><time>2026-04-20T09:16:34Z</time></trkpt><trkpt lat="45.90726009577565" lon="10.728409474698383"><ele>762.0</ele><time>2026-04-20T09:16:35Z</time></trkpt><trkpt lat="45.907124728931564" lon="10.728517409005802"><ele>762.0</ele><time>2026-04-20T09:16:36Z</time></trkpt><trkpt lat="45.906990986915034" lon="10.728536309565756"><ele>762.0</ele><time>2026-04-20T09:16:37Z</time></trkpt><trkpt lat="45.9068617873682" lon="10.728575925916676"><ele>762.0</ele><time>2026-04-20T09:16:38Z</time></trkpt><trkpt lat="45.9067600840322" lon="10.72860372237537"><ele>762.0</ele><time>2026-04-20T09:16:39Z</time></trkpt><trkpt lat="45.90665439755558" lon="10.728613523834252"><ele>762.3333333333334</ele><time>2026-04-20T09:16:40Z</time></trkpt><trkpt lat="45.906562182357085" lon="10.728614421281328"><ele>762.6666666666666</ele><time>2026-04-20T09:16:41Z</time></trkpt><trkpt lat="45.90648362724515" lon="10.728604097560797"><ele>763.0</ele><time>2026-04-20T09:16:42Z</time></trkpt><trkpt lat="45.90639663867864" lon="10.7286341477558"><ele>763.3333333333333</ele><time>2026-04-20T09:16:43Z</time></trkpt><trkpt lat="45.906333867064575" lon="10.72871179977557"><ele>763.6666666666666</ele><time>2026-04-20T09:16:44Z</time></trkpt><trkpt lat="45.90625698542561" lon="10.72877939178709"><ele>764.0</ele><time>2026-04-20T09:16:45Z</time></trkpt><trkpt lat="45.90618009144035" lon="10.728819879146949"><ele>764.0</ele><time>2026-04-20T09:16:46Z</time></trkpt><trkpt lat="45.90610905436906" lon="10.728846642141376"><ele>764.0</ele><time>2026-04-20T09:16:47Z</time></trkpt><trkpt lat="45.90602909835266" lon="10.728890108698286"><ele>764.0</ele><time>2026-04-20T09:16:48Z</time></trkpt><trkpt lat="45.90593481641887" lon="10.72897440400782"><ele>764.0</ele><time>2026-04-20T09:16:49Z</time></trkpt><trkpt lat="45.90586971251357" lon="10.729088225138087"><ele>764.0</ele><time>2026-04-20T09:16:50Z</time></trkpt><trkpt lat="45.90579781202831" lon="10.729206891780192"><ele>763.75</ele><time>2026-04-20T09:16:51Z</time></trkpt><trkpt lat="45.90572379365943" lon="10.729334666215879"><ele>763.5</ele><time>2026-04-20T09:16:52Z</time></trkpt><trkpt lat="45.9056389994885" lon="10.729478322927472"><ele>763.25</ele><time>2026-04-20T09:16:53Z</time></trkpt><trkpt lat="45.905527105858035" lon="10.72959529740715"><ele>763.0</ele><time>2026-04-20T09:16:54Z</time></trkpt><trkpt lat="45.90545906810317" lon="10.729642033029883"><ele>763.0</ele><time>2026-04-20T09:16:55Z</time></trkpt><trkpt lat="45.9053614871634" lon="10.729710653777738"><ele>763.0</ele><time>2026-04-20T09:16:56Z</time></trkpt><trkpt lat="45.90521295730407" lon="10.729803278287473"><ele>763.0</ele><time>2026-04-20T09:16:57Z</time></trkpt><trkpt lat="45.90505902985369" lon="10.729821807389262"><ele>763.0</ele><time>2026-04-20T09:16:58Z</time></trkpt><trkpt lat="45.9049084564439" lon="10.729778237666673"><ele>762.25</ele><time>2026-04-20T09:16:59Z</time></trkpt><trkpt lat="45.904783288131824" lon="10.729672021475718"><ele>761.5</ele><time>2026-04-20T09:17:00Z</time></trkpt><trkpt lat="45.9046430590507" lon="10.729605498732543"><ele>760.75</ele><time>2026-04-20T09:17:01Z</time></trkpt><trkpt lat="45.9045076197724" lon="10.729539704290156"><ele>760.0</ele><time>2026-04-20T09:17:02Z</time></trkpt><trkpt lat="45.904380793241906" lon="10.729507713685916"><ele>760.6666666666667</ele><time>2026-04-20T09:17:03Z</time></trkpt><trkpt lat="45.90423990062063" lon="10.729461096281302"><ele>761.3333333333334</ele><time>2026-04-20T09:17:04Z</time></trkpt><trkpt lat="45.90409064159203" lon="10.729380939840704"><ele>762.0</ele><time>2026-04-20T09:17:05Z</time></trkpt><trkpt lat="45.90392375425908" lon="10.729312175069508"><ele>759.3333333333334</ele><time>2026-04-20T09:17:06Z</time></trkpt><trkpt lat="45.90378035306591" lon="10.729238085390188"><ele>756.6666666666667</ele><time>2026-04-20T09:17:07Z</time></trkpt><trkpt lat="45.903635689196285" lon="10.729137146247322"><ele>754.0</ele><time>2026-04-20T09:17:08Z</time></trkpt><trkpt lat="45.903486146422" lon="10.729024445816606"><ele>755.0</ele><time>2026-04-20T09:17:09Z</time></trkpt><trkpt lat="45.90332037619402" lon="10.728901031087688"><ele>756.0</ele><time>2026-04-20T09:17:10Z</time></trkpt><trkpt lat="45.903186687159575" lon="10.728767548463491"><ele>757.0</ele><time>2026-04-20T09:17:11Z</time></trkpt><trkpt lat="45.90304715573333" lon="10.728604369224911"><ele>752.3333333333334</ele><time>2026-04-20T09:17:12Z</time></trkpt><trkpt lat="45.90292259630172" lon="10.728451585124988"><ele>747.6666666666666</ele><time>2026-04-20T09:17:13Z</time></trkpt><trkpt lat="45.90279036083572" lon="10.728276661557334"><ele>743.0</ele><time>2026-04-20T09:17:14Z</time></trkpt><trkpt lat="45.90266975278541" lon="10.728076881159527"><ele>742.6666666666666</ele><time>2026-04-20T09:17:15Z</time></trkpt><trkpt lat="45.90252936143955" lon="10.727896610202707"><ele>742.3333333333334</ele><time>2026-04-20T09:17:16Z</time></trkpt><trkpt lat="45.90241706090913" lon="10.727701262157428"><ele>742.0</ele><time>2026-04-20T09:17:17Z</time></trkpt><trkpt lat="45.902319181799704" lon="10.727531637249854"><ele>742.0</ele><time>2026-04-20T09:17:18Z</time></trkpt><trkpt lat="45.90219396606703" lon="10.727343785223681"><ele>742.0</ele><time>2026-04-20T09:17:19Z</time></trkpt><trkpt lat="45.902069368303174" lon="10.727111833610197"><ele>742.0</ele><time>2026-04-20T09:17:20Z</time></trkpt><trkpt lat="45.90192122832701" lon="10.726936453201505"><ele>742.6666666666667</ele><time>2026-04-20T09:17:21Z</time></trkpt><trkpt lat="45.90177186173138" lon="10.72675914527476"><ele>743.3333333333334</ele><time>2026-04-20T09:17:22Z</time></trkpt><trkpt lat="45.90163105896791" lon="10.72658950329134"><ele>744.0</ele><time>2026-04-20T09:17:23Z</time></trkpt><trkpt lat="45.901491979256676" lon="10.726428365753817"><ele>744.0</ele><time>2026-04-20T09:17:24Z</time></trkpt><trkpt lat="45.90133702070322" lon="10.726268750231084"><ele>744.0</ele><time>2026-04-20T09:17:25Z</time></trkpt><trkpt lat="45.901183684229686" lon="10.726135121946875"><ele>744.0</ele><time>2026-04-20T09:17:26Z</time></trkpt><trkpt lat="45.901018586896065" lon="10.725998384564045"><ele>741.6666666666666</ele><time>2026-04-20T09:17:27Z</time></trkpt><trkpt lat="45.90087984678743" lon="10.725885998000267"><ele>739.3333333333333</ele><time>2026-04-20T09:17:28Z</time></trkpt><trkpt lat="45.90073184712094" lon="10.725776180468872"><ele>737.0</ele><time>2026-04-20T09:17:29Z</time></trkpt><trkpt lat="45.900599021062995" lon="10.7256659200063"><ele>737.0</ele><time>2026-04-20T09:17:30Z</time></trkpt><trkpt lat="45.90047327053042" lon="10.725567216378673"><ele>737.0</ele><time>2026-04-20T09:17:31Z</time></trkpt><trkpt lat="45.900350424117725" lon="10.725496823151895"><ele>737.0</ele><time>2026-04-20T09:17:32Z</time></trkpt><trkpt lat="45.90023012294084" lon="10.725398104617009"><ele>737.0</ele><time>2026-04-20T09:17:33Z</time></trkpt><trkpt lat="45.90010860114049" lon="10.725290149548634"><ele>737.0</ele><time>2026-04-20T09:17:34Z</time></trkpt><trkpt lat="45.89999524331465" lon="10.72518566465888"><ele>737.0</ele><time>2026-04-20T09:17:35Z</time></trkpt><trkpt lat="45.89987327519555" lon="10.725083588760127"><ele>737.0</ele><time>2026-04-20T09:17:36Z</time></trkpt><trkpt lat="45.8997637302564" lon="10.724977698398318"><ele>737.0</ele><time>2026-04-20T09:17:37Z</time></trkpt><trkpt lat="45.89967655686071" lon="10.724891532659614"><ele>737.0</ele><time>2026-04-20T09:17:38Z</time></trkpt><trkpt lat="45.89959394063617" lon="10.724811373501286"><ele>737.0</ele><time>2026-04-20T09:17:39Z</time></trkpt><trkpt lat="45.8995307670669" lon="10.724721835664944"><ele>737.0</ele><time>2026-04-20T09:17:40Z</time></trkpt><trkpt lat="45.899476265651835" lon="10.724641665151857"><ele>737.0</ele><time>2026-04-20T09:17:41Z</time></trkpt><trkpt lat="45.8994197911" lon="10.724565116929883"><ele>737.0</ele><time>2026-04-20T09:17:43Z</time></trkpt><trkpt lat="45.89936795137627" lon="10.724497422353444"><ele>737.0</ele><time>2026-04-20T09:17:47Z</time></trkpt><trkpt lat="45.899288568238724" lon="10.724541615633855"><ele>737.0</ele><time>2026-04-20T09:17:49Z</time></trkpt><trkpt lat="45.899350794206605" lon="10.724511389609946"><ele>737.0</ele><time>2026-04-20T09:17:52Z</time></trkpt><trkpt lat="45.89925057098739" lon="10.72452241260487"><ele>737.0</ele><time>2026-04-20T09:17:54Z</time></trkpt><trkpt lat="45.89916741246796" lon="10.724541381201979"><ele>737.0</ele><time>2026-04-20T09:17:59Z</time></trkpt><trkpt lat="45.89904773446849" lon="10.724570759546953"><ele>737.0</ele><time>2026-04-20T09:18:01Z</time></trkpt><trkpt lat="45.89892909813251" lon="10.724603859350685"><ele>738.0</ele><time>2026-04-20T09:18:02Z</time></trkpt><trkpt lat="45.898770074415395" lon="10.724646539045425"><ele>739.0</ele><time>2026-04-20T09:18:03Z</time></trkpt><trkpt lat="45.89859883536195" lon="10.724691559636886"><ele>740.0</ele><time>2026-04-20T09:18:04Z</time></trkpt><trkpt lat="45.89843080702903" lon="10.724735736409198"><ele>737.6666666666666</ele><time>2026-04-20T09:18:05Z</time></trkpt><trkpt lat="45.89827887942988" lon="10.724779462415082"><ele>735.3333333333334</ele><time>2026-04-20T09:18:06Z</time></trkpt><trkpt lat="45.898119053434414" lon="10.724823584311245"><ele>733.0</ele><time>2026-04-20T09:18:07Z</time></trkpt><trkpt lat="45.89794789165269" lon="10.724868332907088"><ele>733.0</ele><time>2026-04-20T09:18:08Z</time></trkpt><trkpt lat="45.89777844957391" lon="10.724912885042869"><ele>733.0</ele><time>2026-04-20T09:18:09Z</time></trkpt><trkpt lat="45.89759361752729" lon="10.724961694463069"><ele>733.0</ele><time>2026-04-20T09:18:10Z</time></trkpt><trkpt lat="45.89740393658567" lon="10.725012362954123"><ele>731.3333333333334</ele><time>2026-04-20T09:18:11Z</time></trkpt><trkpt lat="45.897220239034304" lon="10.725061433120898"><ele>729.6666666666666</ele><time>2026-04-20T09:18:12Z</time></trkpt><trkpt lat="45.897050507492985" lon="10.725107978596062"><ele>728.0</ele><time>2026-04-20T09:18:13Z</time></trkpt><trkpt lat="45.896882897642335" lon="10.72515393868986"><ele>727.75</ele><time>2026-04-20T09:18:14Z</time></trkpt><trkpt lat="45.89673731972572" lon="10.725192595681937"><ele>727.5</ele><time>2026-04-20T09:18:15Z</time></trkpt><trkpt lat="45.89660093912338" lon="10.725227671366934"><ele>727.25</ele><time>2026-04-20T09:18:16Z</time></trkpt><trkpt lat="45.89647138029251" lon="10.725268510763094"><ele>727.0</ele><time>2026-04-20T09:18:17Z</time></trkpt><trkpt lat="45.89634949689673" lon="10.725334870164362"><ele>727.0</ele><time>2026-04-20T09:18:18Z</time></trkpt><trkpt lat="45.896218282144176" lon="10.725435566655449"><ele>727.0</ele><time>2026-04-20T09:18:19Z</time></trkpt><trkpt lat="45.89610490628816" lon="10.725572188177633"><ele>727.0</ele><time>2026-04-20T09:18:20Z</time></trkpt><trkpt lat="45.89599793766482" lon="10.72572999068678"><ele>725.5</ele><time>2026-04-20T09:18:21Z</time></trkpt><trkpt lat="45.89589361221745" lon="10.725892993595858"><ele>724.0</ele><time>2026-04-20T09:18:22Z</time></trkpt><trkpt lat="45.89579205585879" lon="10.726046675132098"><ele>722.5</ele><time>2026-04-20T09:18:23Z</time></trkpt><trkpt lat="45.8957208442357" lon="10.726154229129149"><ele>721.0</ele><time>2026-04-20T09:18:24Z</time></trkpt><trkpt lat="45.895658756260154" lon="10.72624793507192"><ele>721.0</ele><time>2026-04-20T09:18:25Z</time></trkpt><trkpt lat="45.89559739539147" lon="10.726342643202054"><ele>721.0</ele><time>2026-04-20T09:18:26Z</time></trkpt><trkpt lat="45.89553112426353" lon="10.726443116848376"><ele>721.0</ele><time>2026-04-20T09:18:27Z</time></trkpt><trkpt lat="45.89543116835724" lon="10.726446706139567"><ele>721.0</ele><time>2026-04-20T09:18:28Z</time></trkpt><trkpt lat="45.89532662392528" lon="10.726376784510013"><ele>721.0</ele><time>2026-04-20T09:18:30Z</time></trkpt><trkpt lat="45.89542374134915" lon="10.726161084753148"><ele>718.3333333333334</ele><time>2026-04-20T09:18:32Z</time></trkpt><trkpt lat="45.895472265325104" lon="10.725947768592377"><ele>715.6666666666666</ele><time>2026-04-20T09:18:33Z</time></trkpt><trkpt lat="45.89550049686086" lon="10.725717295629316"><ele>713.0</ele><time>2026-04-20T09:18:34Z</time></trkpt><trkpt lat="45.89551800149394" lon="10.725503833998006"><ele>713.0</ele><time>2026-04-20T09:18:35Z</time></trkpt><trkpt lat="45.895531598137275" lon="10.725308725008974"><ele>713.0</ele><time>2026-04-20T09:18:36Z</time></trkpt><trkpt lat="45.895532024782675" lon="10.72512014236292"><ele>713.0</ele><time>2026-04-20T09:18:37Z</time></trkpt><trkpt lat="45.8955483715667" lon="10.724952695495363"><ele>713.0</ele><time>2026-04-20T09:18:38Z</time></trkpt><trkpt lat="45.89556103025261" lon="10.724797120033415"><ele>710.75</ele><time>2026-04-20T09:18:39Z</time></trkpt><trkpt lat="45.895547219597766" lon="10.72465878320569"><ele>708.5</ele><time>2026-04-20T09:18:40Z</time></trkpt><trkpt lat="45.89550201181617" lon="10.724509822248914"><ele>706.25</ele><time>2026-04-20T09:18:41Z</time></trkpt><trkpt lat="45.89542093621002" lon="10.724369425057416"><ele>704.0</ele><time>2026-04-20T09:18:42Z</time></trkpt><trkpt lat="45.89532211130987" lon="10.724259371760521"><ele>703.75</ele><time>2026-04-20T09:18:43Z</time></trkpt><trkpt lat="45.895202669733436" lon="10.724203194114644"><ele>703.5</ele><time>2026-04-20T09:18:44Z</time></trkpt><trkpt lat="45.8950706386217" lon="10.724187825296204"><ele>703.25</ele><time>2026-04-20T09:18:45Z</time></trkpt><trkpt lat="45.89493099989714" lon="10.72419937744187"><ele>703.0</ele><time>2026-04-20T09:18:46Z</time></trkpt><trkpt lat="45.89477517903827" lon="10.724196136309782"><ele>701.4</ele><time>2026-04-20T09:18:47Z</time></trkpt><trkpt lat="45.894639635914466" lon="10.724186703402168"><ele>699.8</ele><time>2026-04-20T09:18:48Z</time></trkpt><trkpt lat="45.89453911197904" lon="10.724197268266941"><ele>698.2</ele><time>2026-04-20T09:18:49Z</time></trkpt><trkpt lat="45.89444862517674" lon="10.7242306459729"><ele>696.6</ele><time>2026-04-20T09:18:50Z</time></trkpt><trkpt lat="45.894392775493245" lon="10.724307357669224"><ele>695.0</ele><time>2026-04-20T09:18:51Z</time></trkpt><trkpt lat="45.894384578815036" lon="10.724405100050626"><ele>694.2</ele><time>2026-04-20T09:18:52Z</time></trkpt><trkpt lat="45.894391591836595" lon="10.724519321128156"><ele>693.4</ele><time>2026-04-20T09:18:53Z</time></trkpt><trkpt lat="45.89445964716738" lon="10.724647335433852"><ele>692.5999999999999</ele><time>2026-04-20T09:18:54Z</time></trkpt><trkpt lat="45.894544262724416" lon="10.724753418961864"><ele>691.8</ele><time>2026-04-20T09:18:55Z</time></trkpt><trkpt lat="45.894612832711935" lon="10.724859855454802"><ele>691.0</ele><time>2026-04-20T09:18:56Z</time></trkpt><trkpt lat="45.894635985317734" lon="10.724969296079616"><ele>691.0</ele><time>2026-04-20T09:18:57Z</time></trkpt><trkpt lat="45.89461450141188" lon="10.725080919922055"><ele>691.0</ele><time>2026-04-20T09:18:58Z</time></trkpt><trkpt lat="45.894558948763354" lon="10.725180066882137"><ele>691.0</ele><time>2026-04-20T09:18:59Z</time></trkpt><trkpt lat="45.89450616111118" lon="10.725237090862585"><ele>691.0</ele><time>2026-04-20T09:19:00Z</time></trkpt><trkpt lat="45.894418109083425" lon="10.725218401871679"><ele>691.0</ele><time>2026-04-20T09:19:01Z</time></trkpt><trkpt lat="45.8943400193064" lon="10.725150324755244"><ele>691.0</ele><time>2026-04-20T09:19:02Z</time></trkpt><trkpt lat="45.89429677335511" lon="10.725003161260418"><ele>687.3333333333334</ele><time>2026-04-20T09:19:03Z</time></trkpt><trkpt lat="45.89422135801056" lon="10.724837846174333"><ele>683.6666666666666</ele><time>2026-04-20T09:19:04Z</time></trkpt><trkpt lat="45.8941243519702" lon="10.724662970597752"><ele>680.0</ele><time>2026-04-20T09:19:05Z</time></trkpt><trkpt lat="45.89398517980106" lon="10.724543273277051"><ele>680.0</ele><time>2026-04-20T09:19:06Z</time></trkpt><trkpt lat="45.89383504866632" lon="10.724459132556207"><ele>680.0</ele><time>2026-04-20T09:19:07Z</time></trkpt><trkpt lat="45.89368324640386" lon="10.724376569781219"><ele>680.0</ele><time>2026-04-20T09:19:08Z</time></trkpt><trkpt lat="45.89352596240025" lon="10.724290932002667"><ele>678.8</ele><time>2026-04-20T09:19:09Z</time></trkpt><trkpt lat="45.89338620538918" lon="10.72421161897391"><ele>677.6</ele><time>2026-04-20T09:19:10Z</time></trkpt><trkpt lat="45.89329015982825" lon="10.724157112231152"><ele>676.4000000000001</ele><time>2026-04-20T09:19:11Z</time></trkpt><trkpt lat="45.89322881945725" lon="10.724118383439826"><ele>675.2</ele><time>2026-04-20T09:19:12Z</time></trkpt><trkpt lat="45.89317267503676" lon="10.724046717704605"><ele>674.0</ele><time>2026-04-20T09:19:14Z</time></trkpt><trkpt lat="45.89312291881362" lon="10.723972012879564"><ele>674.0</ele><time>2026-04-20T09:19:20Z</time></trkpt><trkpt lat="45.89304132585189" lon="10.724017777042098"><ele>674.0</ele><time>2026-04-20T09:19:36Z</time></trkpt><trkpt lat="45.89298013334604" lon="10.724107666686889"><ele>674.0</ele><time>2026-04-20T09:19:37Z</time></trkpt><trkpt lat="45.892903103198464" lon="10.724213035545755"><ele>674.0</ele><time>2026-04-20T09:19:38Z</time></trkpt><trkpt lat="45.89280890745849" lon="10.72433859529191"><ele>674.0</ele><time>2026-04-20T09:19:39Z</time></trkpt><trkpt lat="45.89269195866261" lon="10.724472929897004"><ele>672.0</ele><time>2026-04-20T09:19:40Z</time></trkpt><trkpt lat="45.89257052435824" lon="10.724621496330327"><ele>670.0</ele><time>2026-04-20T09:19:41Z</time></trkpt><trkpt lat="45.892440854605056" lon="10.724798465087353"><ele>668.0</ele><time>2026-04-20T09:19:42Z</time></trkpt><trkpt lat="45.89229956070414" lon="10.724998280771324"><ele>668.0</ele><time>2026-04-20T09:19:43Z</time></trkpt><trkpt lat="45.8921582880898" lon="10.7252128843418"><ele>668.0</ele><time>2026-04-20T09:19:44Z</time></trkpt><trkpt lat="45.89199561414742" lon="10.725429643970429"><ele>668.0</ele><time>2026-04-20T09:19:45Z</time></trkpt><trkpt lat="45.89192146225656" lon="10.725572271631748"><ele>667.0</ele><time>2026-04-20T09:19:46Z</time></trkpt><trkpt lat="45.892538497673236" lon="10.725409076870447"><ele>667.0</ele><time>2026-04-20T09:19:47Z</time></trkpt><trkpt lat="45.89239194497253" lon="10.725417365953943"><ele>667.0</ele><time>2026-04-20T09:19:50.142Z</time></trkpt><trkpt lat="45.8920206378636" lon="10.725442516971366"><ele>667.0</ele><time>2026-04-20T09:19:51Z</time></trkpt><trkpt lat="45.891939760523194" lon="10.725555515593388"><ele>667.0</ele><time>2026-04-20T09:19:52Z</time></trkpt><trkpt lat="45.891692537234285" lon="10.725892754426866"><ele>666.5</ele><time>2026-04-20T09:19:53Z</time></trkpt><trkpt lat="45.8914165079779" lon="10.726272572233913"><ele>666.0</ele><time>2026-04-20T09:19:54Z</time></trkpt><trkpt lat="45.89115677400964" lon="10.72662778702697"><ele>665.5</ele><time>2026-04-20T09:19:55Z</time></trkpt><trkpt lat="45.890917224822964" lon="10.726967801807774"><ele>665.0</ele><time>2026-04-20T09:19:56Z</time></trkpt><trkpt lat="45.89071321179516" lon="10.727267241559542"><ele>665.0</ele><time>2026-04-20T09:19:57Z</time></trkpt><trkpt lat="45.89054298826049" lon="10.727520267462722"><ele>665.0</ele><time>2026-04-20T09:19:58Z</time></trkpt><trkpt lat="45.890415760980865" lon="10.727729362687588"><ele>665.0</ele><time>2026-04-20T09:19:59Z</time></trkpt><trkpt lat="45.89028102633184" lon="10.727945176345237"><ele>665.0</ele><time>2026-04-20T09:20:00Z</time></trkpt><trkpt lat="45.890154509581215" lon="10.728133344204544"><ele>665.0</ele><time>2026-04-20T09:20:01Z</time></trkpt><trkpt lat="45.89003408392415" lon="10.728330276989782"><ele>665.0</ele><time>2026-04-20T09:20:02Z</time></trkpt><trkpt lat="45.88992517478884" lon="10.728479563864127"><ele>664.75</ele><time>2026-04-20T09:20:03Z</time></trkpt><trkpt lat="45.88982821755888" lon="10.728618257422134"><ele>664.5</ele><time>2026-04-20T09:20:04Z</time></trkpt><trkpt lat="45.88975411372854" lon="10.728769737927497"><ele>664.25</ele><time>2026-04-20T09:20:05Z</time></trkpt><trkpt lat="45.889687306875295" lon="10.728915725368152"><ele>664.0</ele><time>2026-04-20T09:20:06Z</time></trkpt><trkpt lat="45.88980820672505" lon="10.728631531749354"><ele>664.0</ele><time>2026-04-20T09:20:07.144Z</time></trkpt><trkpt lat="45.88988278727034" lon="10.72862886766018"><ele>664.0</ele><time>2026-04-20T09:20:21Z</time></trkpt><trkpt lat="45.889902477296424" lon="10.728723602115373"><ele>664.0</ele><time>2026-04-20T09:21:30Z</time></trkpt><trkpt lat="45.8898468054873" lon="10.728793285580826"><ele>664.0</ele><time>2026-04-20T09:22:26Z</time></trkpt><trkpt lat="45.88975508112045" lon="10.728883272184705"><ele>664.0</ele><time>2026-04-20T09:22:28Z</time></trkpt><trkpt lat="45.88969012024838" lon="10.728978673690015"><ele>664.0</ele><time>2026-04-20T09:22:29Z</time></trkpt><trkpt lat="45.88961882420499" lon="10.729076189321185"><ele>664.0</ele><time>2026-04-20T09:22:30Z</time></trkpt><trkpt lat="45.889503878549434" lon="10.729168553242992"><ele>664.0</ele><time>2026-04-20T09:22:31Z</time></trkpt><trkpt lat="45.889466010292736" lon="10.729250992585406"><ele>664.0</ele><time>2026-04-20T09:22:32Z</time></trkpt><trkpt lat="45.88939986757377" lon="10.729394986775327"><ele>664.0</ele><time>2026-04-20T09:22:33Z</time></trkpt><trkpt lat="45.88932521958193" lon="10.72957644072086"><ele>663.0</ele><time>2026-04-20T09:22:34Z</time></trkpt><trkpt lat="45.88923948589903" lon="10.729785810684124"><ele>662.0</ele><time>2026-04-20T09:22:35Z</time></trkpt><trkpt lat="45.8891734971482" lon="10.729953525492688"><ele>661.0</ele><time>2026-04-20T09:22:36Z</time></trkpt><trkpt lat="45.88908169760863" lon="10.730117532817712"><ele>661.25</ele><time>2026-04-20T09:22:37Z</time></trkpt><trkpt lat="45.88901354174529" lon="10.730274905463231"><ele>661.5</ele><time>2026-04-20T09:22:38Z</time></trkpt><trkpt lat="45.888938767871345" lon="10.730505538837964"><ele>661.75</ele><time>2026-04-20T09:22:39Z</time></trkpt><trkpt lat="45.8888769408501" lon="10.730664890181455"><ele>662.0</ele><time>2026-04-20T09:22:40Z</time></trkpt><trkpt lat="45.8888325774467" lon="10.730778786544727"><ele>662.0</ele><time>2026-04-20T09:22:41Z</time></trkpt><trkpt lat="45.88877093850689" lon="10.730865508147003"><ele>662.0</ele><time>2026-04-20T09:22:42Z</time></trkpt><trkpt lat="45.88866597888693" lon="10.731006049044908"><ele>662.0</ele><time>2026-04-20T09:22:43Z</time></trkpt><trkpt lat="45.88857255072905" lon="10.731143356195311"><ele>662.0</ele><time>2026-04-20T09:22:44Z</time></trkpt><trkpt lat="45.888521119537366" lon="10.731289076951223"><ele>662.25</ele><time>2026-04-20T09:22:45Z</time></trkpt><trkpt lat="45.88848277477637" lon="10.731469343764267"><ele>662.5</ele><time>2026-04-20T09:22:46Z</time></trkpt><trkpt lat="45.888477631656315" lon="10.731678015723382"><ele>662.75</ele><time>2026-04-20T09:22:47Z</time></trkpt><trkpt lat="45.888441523728716" lon="10.731815885092646"><ele>663.0</ele><time>2026-04-20T09:22:48Z</time></trkpt><trkpt lat="45.888371923662596" lon="10.731994991216864"><ele>662.0</ele><time>2026-04-20T09:22:49Z</time></trkpt><trkpt lat="45.888300802528335" lon="10.732156879500044"><ele>661.0</ele><time>2026-04-20T09:22:50Z</time></trkpt><trkpt lat="45.888243320540354" lon="10.7322902541818"><ele>660.0</ele><time>2026-04-20T09:22:51Z</time></trkpt><trkpt lat="45.88816896906113" lon="10.73244412197293"><ele>659.0</ele><time>2026-04-20T09:22:52Z</time></trkpt><trkpt lat="45.88809671415179" lon="10.732614311823824"><ele>659.0</ele><time>2026-04-20T09:22:53Z</time></trkpt><trkpt lat="45.888016106000286" lon="10.732767739562295"><ele>659.0</ele><time>2026-04-20T09:22:54Z</time></trkpt><trkpt lat="45.88794026826619" lon="10.732942791400069"><ele>659.0</ele><time>2026-04-20T09:22:55Z</time></trkpt><trkpt lat="45.88786012678788" lon="10.733109899150268"><ele>659.0</ele><time>2026-04-20T09:22:56Z</time></trkpt><trkpt lat="45.887798689244086" lon="10.73326314239422"><ele>659.0</ele><time>2026-04-20T09:22:57Z</time></trkpt><trkpt lat="45.88770956389733" lon="10.733464349354783"><ele>659.0</ele><time>2026-04-20T09:22:58Z</time></trkpt><trkpt lat="45.88763730846331" lon="10.733662710061484"><ele>659.0</ele><time>2026-04-20T09:22:59Z</time></trkpt><trkpt lat="45.887554555860135" lon="10.733848726926302"><ele>659.5</ele><time>2026-04-20T09:23:00Z</time></trkpt><trkpt lat="45.88748931334377" lon="10.734020120273668"><ele>660.0</ele><time>2026-04-20T09:23:01Z</time></trkpt><trkpt lat="45.887405219724684" lon="10.734212328847823"><ele>660.5</ele><time>2026-04-20T09:23:02Z</time></trkpt><trkpt lat="45.88733698151769" lon="10.734390680816594"><ele>661.0</ele><time>2026-04-20T09:23:03Z</time></trkpt><trkpt lat="45.88725851367977" lon="10.734572111172172"><ele>661.0</ele><time>2026-04-20T09:23:04Z</time></trkpt><trkpt lat="45.88718247352021" lon="10.734744556880042"><ele>661.0</ele><time>2026-04-20T09:23:05Z</time></trkpt><trkpt lat="45.887103547228115" lon="10.734939248341082"><ele>661.0</ele><time>2026-04-20T09:23:06Z</time></trkpt><trkpt lat="45.88700910932262" lon="10.735130478809868"><ele>662.0</ele><time>2026-04-20T09:23:07Z</time></trkpt><trkpt lat="45.886910728929465" lon="10.735316191319043"><ele>663.0</ele><time>2026-04-20T09:23:08Z</time></trkpt><trkpt lat="45.88682457466171" lon="10.735497263411743"><ele>664.0</ele><time>2026-04-20T09:23:09Z</time></trkpt><trkpt lat="45.886741943291895" lon="10.735696441846974"><ele>664.0</ele><time>2026-04-20T09:23:10Z</time></trkpt><trkpt lat="45.88667447799523" lon="10.73587138325904"><ele>664.0</ele><time>2026-04-20T09:23:11Z</time></trkpt><trkpt lat="45.88658835243846" lon="10.73607115373218"><ele>664.0</ele><time>2026-04-20T09:23:12Z</time></trkpt><trkpt lat="45.88654154674194" lon="10.736230752932569"><ele>664.0</ele><time>2026-04-20T09:23:13Z</time></trkpt><trkpt lat="45.886478470538286" lon="10.736422739742537"><ele>670.6666666666667</ele><time>2026-04-20T09:23:14Z</time></trkpt><trkpt lat="45.88641008308597" lon="10.736606692622155"><ele>677.3333333333334</ele><time>2026-04-20T09:23:15Z</time></trkpt><trkpt lat="45.88634152828831" lon="10.736801154703837"><ele>684.0</ele><time>2026-04-20T09:23:16Z</time></trkpt><trkpt lat="45.88624255275274" lon="10.736970125701397"><ele>689.5</ele><time>2026-04-20T09:23:17Z</time></trkpt><trkpt lat="45.88620438867866" lon="10.737134010209108"><ele>695.0</ele><time>2026-04-20T09:23:18Z</time></trkpt><trkpt lat="45.886115565201834" lon="10.737336252351415"><ele>700.5</ele><time>2026-04-20T09:23:19Z</time></trkpt><trkpt lat="45.886051401636514" lon="10.737541053371215"><ele>706.0</ele><time>2026-04-20T09:23:20Z</time></trkpt><trkpt lat="45.88597822405121" lon="10.737720920414203"><ele>694.75</ele><time>2026-04-20T09:23:21Z</time></trkpt><trkpt lat="45.88589043748562" lon="10.73790220550516"><ele>683.5</ele><time>2026-04-20T09:23:22Z</time></trkpt><trkpt lat="45.88583937031019" lon="10.738069393018995"><ele>672.25</ele><time>2026-04-20T09:23:23Z</time></trkpt><trkpt lat="45.88584551611108" lon="10.738273092253436"><ele>661.0</ele><time>2026-04-20T09:23:24Z</time></trkpt><trkpt lat="45.88589088126865" lon="10.738501988044954"><ele>661.3333333333334</ele><time>2026-04-20T09:23:25Z</time></trkpt><trkpt lat="45.88590501725994" lon="10.738719865916133"><ele>661.6666666666666</ele><time>2026-04-20T09:23:26Z</time></trkpt><trkpt lat="45.885904195794076" lon="10.738947423569938"><ele>662.0</ele><time>2026-04-20T09:23:27Z</time></trkpt><trkpt lat="45.885931835917965" lon="10.739193481967114"><ele>680.0</ele><time>2026-04-20T09:23:28Z</time></trkpt><trkpt lat="45.885976037588044" lon="10.739418790658272"><ele>698.0</ele><time>2026-04-20T09:23:29Z</time></trkpt><trkpt lat="45.88602516732046" lon="10.739637911991158"><ele>716.0</ele><time>2026-04-20T09:23:30Z</time></trkpt><trkpt lat="45.88605267735137" lon="10.73985652455016"><ele>716.0</ele><time>2026-04-20T09:23:31Z</time></trkpt><trkpt lat="45.886096543764886" lon="10.740122049609615"><ele>716.0</ele><time>2026-04-20T09:23:32Z</time></trkpt><trkpt lat="45.88611615970875" lon="10.740367180954738"><ele>716.0</ele><time>2026-04-20T09:23:33Z</time></trkpt><trkpt lat="45.886123713396564" lon="10.740598547972246"><ele>716.6666666666666</ele><time>2026-04-20T09:23:34Z</time></trkpt><trkpt lat="45.88610689901102" lon="10.740823166459005"><ele>717.3333333333334</ele><time>2026-04-20T09:23:35Z</time></trkpt><trkpt lat="45.88607031421361" lon="10.741068167691619"><ele>718.0</ele><time>2026-04-20T09:23:36Z</time></trkpt><trkpt lat="45.88601078211387" lon="10.741311040805535"><ele>718.0</ele><time>2026-04-20T09:23:37Z</time></trkpt><trkpt lat="45.88596718627022" lon="10.741528191395396"><ele>718.0</ele><time>2026-04-20T09:23:38Z</time></trkpt><trkpt lat="45.88592485935481" lon="10.741769621978609"><ele>718.0</ele><time>2026-04-20T09:23:39Z</time></trkpt><trkpt lat="45.88588761078166" lon="10.74193229035598"><ele>711.75</ele><time>2026-04-20T09:23:40Z</time></trkpt><trkpt lat="45.88586345676095" lon="10.742055485606235"><ele>705.5</ele><time>2026-04-20T09:23:41Z</time></trkpt><trkpt lat="45.88582395095467" lon="10.742253838259064"><ele>699.25</ele><time>2026-04-20T09:23:42Z</time></trkpt><trkpt lat="45.885777309782604" lon="10.742528390106779"><ele>693.0</ele><time>2026-04-20T09:23:43Z</time></trkpt><trkpt lat="45.885661497590306" lon="10.742759308046443"><ele>693.0</ele><time>2026-04-20T09:23:44Z</time></trkpt><trkpt lat="45.88553216323411" lon="10.742917021416163"><ele>693.0</ele><time>2026-04-20T09:23:45Z</time></trkpt><trkpt lat="45.88539880034822" lon="10.743022867819272"><ele>693.0</ele><time>2026-04-20T09:23:46Z</time></trkpt><trkpt lat="45.88528867982645" lon="10.74314889911077"><ele>693.0</ele><time>2026-04-20T09:23:47Z</time></trkpt><trkpt lat="45.885202118412984" lon="10.743261067136539"><ele>693.0</ele><time>2026-04-20T09:23:48Z</time></trkpt><trkpt lat="45.88512796659955" lon="10.743405989342317"><ele>693.0</ele><time>2026-04-20T09:23:49Z</time></trkpt><trkpt lat="45.88507936449299" lon="10.743548056814328"><ele>693.0</ele><time>2026-04-20T09:23:50Z</time></trkpt><trkpt lat="45.885034963509625" lon="10.743702916133717"><ele>697.5</ele><time>2026-04-20T09:23:51Z</time></trkpt><trkpt lat="45.88504435388694" lon="10.743890240841303"><ele>702.0</ele><time>2026-04-20T09:23:52Z</time></trkpt><trkpt lat="45.885060803211424" lon="10.744074135978584"><ele>706.5</ele><time>2026-04-20T09:23:53Z</time></trkpt><trkpt lat="45.88512343331024" lon="10.744206094837482"><ele>711.0</ele><time>2026-04-20T09:23:54Z</time></trkpt><trkpt lat="45.88515880840399" lon="10.74438278437531"><ele>714.25</ele><time>2026-04-20T09:23:55Z</time></trkpt><trkpt lat="45.88516224202678" lon="10.744579639106982"><ele>717.5</ele><time>2026-04-20T09:23:56Z</time></trkpt><trkpt lat="45.88514605431915" lon="10.744802669863681"><ele>720.75</ele><time>2026-04-20T09:23:57Z</time></trkpt><trkpt lat="45.88510786066647" lon="10.745015406550456"><ele>724.0</ele><time>2026-04-20T09:23:58Z</time></trkpt><trkpt lat="45.88505897630369" lon="10.745205265258853"><ele>706.3333333333334</ele><time>2026-04-20T09:23:59Z</time></trkpt><trkpt lat="45.884985360104174" lon="10.745391933994867"><ele>688.6666666666666</ele><time>2026-04-20T09:24:00Z</time></trkpt><trkpt lat="45.88489996622811" lon="10.74557694116668"><ele>671.0</ele><time>2026-04-20T09:24:01Z</time></trkpt><trkpt lat="45.884810659751835" lon="10.74577519562132"><ele>671.0</ele><time>2026-04-20T09:24:02Z</time></trkpt><trkpt lat="45.88471866453313" lon="10.745979418437793"><ele>671.0</ele><time>2026-04-20T09:24:03Z</time></trkpt><trkpt lat="45.88463496558505" lon="10.746164926308122"><ele>671.0</ele><time>2026-04-20T09:24:04Z</time></trkpt><trkpt lat="45.8845582959621" lon="10.746333592395052"><ele>670.75</ele><time>2026-04-20T09:24:05Z</time></trkpt><trkpt lat="45.88447270765013" lon="10.746518052438827"><ele>670.5</ele><time>2026-04-20T09:24:06Z</time></trkpt><trkpt lat="45.8843910784194" lon="10.74665857678015"><ele>670.25</ele><time>2026-04-20T09:24:07Z</time></trkpt><trkpt lat="45.88431041296158" lon="10.746790735304417"><ele>670.0</ele><time>2026-04-20T09:24:08Z</time></trkpt><trkpt lat="45.88424126772976" lon="10.746887264816284"><ele>670.0</ele><time>2026-04-20T09:24:09Z</time></trkpt><trkpt lat="45.8841910797838" lon="10.74695398107431"><ele>670.0</ele><time>2026-04-20T09:24:10Z</time></trkpt><trkpt lat="45.88413840814553" lon="10.74705231556473"><ele>670.0</ele><time>2026-04-20T09:24:11Z</time></trkpt><trkpt lat="45.88407476895465" lon="10.747091946600074"><ele>670.0</ele><time>2026-04-20T09:24:12Z</time></trkpt><trkpt lat="45.88395958944633" lon="10.74721504020487"><ele>670.0</ele><time>2026-04-20T09:24:14Z</time></trkpt><trkpt lat="45.88391510627811" lon="10.747293599605076"><ele>670.0</ele><time>2026-04-20T09:24:15Z</time></trkpt><trkpt lat="45.883859450873956" lon="10.747371160758524"><ele>670.0</ele><time>2026-04-20T09:24:16Z</time></trkpt><trkpt lat="45.88380144538262" lon="10.747433959337027"><ele>670.0</ele><time>2026-04-20T09:24:17Z</time></trkpt><trkpt lat="45.883737378826694" lon="10.747518340308774"><ele>670.0</ele><time>2026-04-20T09:24:18Z</time></trkpt><trkpt lat="45.88367138523222" lon="10.747647580612215"><ele>670.0</ele><time>2026-04-20T09:24:19Z</time></trkpt><trkpt lat="45.88360516797092" lon="10.747774984845854"><ele>670.0</ele><time>2026-04-20T09:24:20Z</time></trkpt><trkpt lat="45.88353630289294" lon="10.747921353966692"><ele>668.5</ele><time>2026-04-20T09:24:21Z</time></trkpt><trkpt lat="45.88346268226114" lon="10.748082731871921"><ele>667.0</ele><time>2026-04-20T09:24:22Z</time></trkpt><trkpt lat="45.883396784519995" lon="10.748260216001047"><ele>665.5</ele><time>2026-04-20T09:24:23Z</time></trkpt><trkpt lat="45.88331593550238" lon="10.748401175659454"><ele>664.0</ele><time>2026-04-20T09:24:24Z</time></trkpt><trkpt lat="45.88322145063552" lon="10.748502069602702"><ele>668.2</ele><time>2026-04-20T09:24:25Z</time></trkpt><trkpt lat="45.883124786218914" lon="10.748574673679807"><ele>672.4000000000001</ele><time>2026-04-20T09:24:26Z</time></trkpt><trkpt lat="45.883048166914364" lon="10.74864002677992"><ele>676.6</ele><time>2026-04-20T09:24:27Z</time></trkpt><trkpt lat="45.882961416895796" lon="10.748747203144715"><ele>680.8</ele><time>2026-04-20T09:24:28Z</time></trkpt><trkpt lat="45.88289132474811" lon="10.748898276166239"><ele>685.0</ele><time>2026-04-20T09:24:29Z</time></trkpt><trkpt lat="45.88285461661294" lon="10.749015079710041"><ele>685.0</ele><time>2026-04-20T09:24:30Z</time></trkpt><trkpt lat="45.88282775617523" lon="10.749111083578175"><ele>685.0</ele><time>2026-04-20T09:24:31Z</time></trkpt><trkpt lat="45.882785295598914" lon="10.749250253408269"><ele>685.0</ele><time>2026-04-20T09:24:33Z</time></trkpt><trkpt lat="45.88274894039525" lon="10.749344776667789"><ele>685.0</ele><time>2026-04-20T09:24:34Z</time></trkpt><trkpt lat="45.882704516957816" lon="10.749429187207209"><ele>685.0</ele><time>2026-04-20T09:24:35Z</time></trkpt><trkpt lat="45.88263101525511" lon="10.749533983203964"><ele>685.0</ele><time>2026-04-20T09:24:36Z</time></trkpt><trkpt lat="45.88256326735996" lon="10.749589980586496"><ele>681.6</ele><time>2026-04-20T09:24:37Z</time></trkpt><trkpt lat="45.882481243084364" lon="10.749627673099575"><ele>678.2</ele><time>2026-04-20T09:24:38Z</time></trkpt><trkpt lat="45.88240063771674" lon="10.749652286266805"><ele>674.8</ele><time>2026-04-20T09:24:39Z</time></trkpt><trkpt lat="45.88232525384673" lon="10.749664510485495"><ele>671.4</ele><time>2026-04-20T09:24:40Z</time></trkpt><trkpt lat="45.88218375289992" lon="10.749636313239046"><ele>668.0</ele><time>2026-04-20T09:24:42Z</time></trkpt><trkpt lat="45.882078023217666" lon="10.749621319512995"><ele>668.0</ele><time>2026-04-20T09:24:43Z</time></trkpt><trkpt lat="45.88198494195348" lon="10.749599365193808"><ele>668.0</ele><time>2026-04-20T09:24:44Z</time></trkpt><trkpt lat="45.881879965867576" lon="10.749634838679684"><ele>668.0</ele><time>2026-04-20T09:24:45Z</time></trkpt><trkpt lat="45.88179266328225" lon="10.749700781619362"><ele>668.0</ele><time>2026-04-20T09:24:46Z</time></trkpt><trkpt lat="45.88169958435654" lon="10.749741352212055"><ele>668.0</ele><time>2026-04-20T09:24:47Z</time></trkpt><trkpt lat="45.881633294804274" lon="10.74983452321242"><ele>667.2</ele><time>2026-04-20T09:24:48Z</time></trkpt><trkpt lat="45.88155936448738" lon="10.749913993869647"><ele>666.4</ele><time>2026-04-20T09:24:49Z</time></trkpt><trkpt lat="45.881479212204155" lon="10.750003437987669"><ele>665.6</ele><time>2026-04-20T09:24:50Z</time></trkpt><trkpt lat="45.88139288339752" lon="10.750101080490424"><ele>664.8000000000001</ele><time>2026-04-20T09:24:51Z</time></trkpt><trkpt lat="45.88129518447955" lon="10.75021157970614"><ele>664.0</ele><time>2026-04-20T09:24:52Z</time></trkpt><trkpt lat="45.88120708011916" lon="10.750313081246935"><ele>664.0</ele><time>2026-04-20T09:24:53Z</time></trkpt><trkpt lat="45.88110942893982" lon="10.750425250102957"><ele>664.0</ele><time>2026-04-20T09:24:54Z</time></trkpt><trkpt lat="45.88101776085952" lon="10.750531164594285"><ele>664.0</ele><time>2026-04-20T09:24:55Z</time></trkpt><trkpt lat="45.88092603085334" lon="10.75063948291802"><ele>664.0</ele><time>2026-04-20T09:24:56Z</time></trkpt><trkpt lat="45.880836031844666" lon="10.750755130112209"><ele>662.5</ele><time>2026-04-20T09:24:57Z</time></trkpt><trkpt lat="45.88073482938145" lon="10.750892476078945"><ele>661.0</ele><time>2026-04-20T09:24:58Z</time></trkpt><trkpt lat="45.88063962912299" lon="10.751030742991201"><ele>659.5</ele><time>2026-04-20T09:24:59Z</time></trkpt><trkpt lat="45.88056934661041" lon="10.75113477730884"><ele>658.0</ele><time>2026-04-20T09:25:00Z</time></trkpt><trkpt lat="45.880489499644845" lon="10.751273376038101"><ele>658.0</ele><time>2026-04-20T09:25:01Z</time></trkpt><trkpt lat="45.88038311890805" lon="10.751373344820507"><ele>658.0</ele><time>2026-04-20T09:25:02Z</time></trkpt><trkpt lat="45.88029067754121" lon="10.751503131805748"><ele>658.0</ele><time>2026-04-20T09:25:03Z</time></trkpt><trkpt lat="45.880204824129464" lon="10.751653663167183"><ele>658.0</ele><time>2026-04-20T09:25:04Z</time></trkpt><trkpt lat="45.88015404656682" lon="10.751832966435007"><ele>658.4</ele><time>2026-04-20T09:25:05Z</time></trkpt><trkpt lat="45.880139439021306" lon="10.752029415182356"><ele>658.8</ele><time>2026-04-20T09:25:06Z</time></trkpt><trkpt lat="45.88014133933828" lon="10.752178285054015"><ele>659.2</ele><time>2026-04-20T09:25:07Z</time></trkpt><trkpt lat="45.8801423622457" lon="10.752305606257467"><ele>659.6</ele><time>2026-04-20T09:25:08Z</time></trkpt><trkpt lat="45.88015515876078" lon="10.752460367472848"><ele>660.0</ele><time>2026-04-20T09:25:09Z</time></trkpt><trkpt lat="45.880163175784254" lon="10.752614296395551"><ele>661.75</ele><time>2026-04-20T09:25:10Z</time></trkpt><trkpt lat="45.8801677230338" lon="10.752825471705195"><ele>663.5</ele><time>2026-04-20T09:25:11Z</time></trkpt><trkpt lat="45.880189645849995" lon="10.753005521050373"><ele>665.25</ele><time>2026-04-20T09:25:12Z</time></trkpt><trkpt lat="45.88016557992834" lon="10.753192098782334"><ele>667.0</ele><time>2026-04-20T09:25:13Z</time></trkpt><trkpt lat="45.88013393605588" lon="10.75339827368223"><ele>665.25</ele><time>2026-04-20T09:25:14Z</time></trkpt><trkpt lat="45.88011117983473" lon="10.753599734897897"><ele>663.5</ele><time>2026-04-20T09:25:15Z</time></trkpt><trkpt lat="45.880073092704066" lon="10.753800814883476"><ele>661.75</ele><time>2026-04-20T09:25:16Z</time></trkpt><trkpt lat="45.88003293565171" lon="10.753995417609485"><ele>660.0</ele><time>2026-04-20T09:25:17Z</time></trkpt><trkpt lat="45.880000433996116" lon="10.754188149047327"><ele>660.0</ele><time>2026-04-20T09:25:18Z</time></trkpt><trkpt lat="45.879985958354446" lon="10.754365298515896"><ele>660.0</ele><time>2026-04-20T09:25:19Z</time></trkpt><trkpt lat="45.87997887691287" lon="10.754540574448974"><ele>660.0</ele><time>2026-04-20T09:25:20Z</time></trkpt><trkpt lat="45.8799836857576" lon="10.754715269775724"><ele>660.0</ele><time>2026-04-20T09:25:21Z</time></trkpt><trkpt lat="45.87999680620814" lon="10.754890236937253"><ele>658.8</ele><time>2026-04-20T09:25:22Z</time></trkpt><trkpt lat="45.88006221844703" lon="10.75500435302714"><ele>657.6</ele><time>2026-04-20T09:25:23Z</time></trkpt><trkpt lat="45.88014777117662" lon="10.755098157338484"><ele>656.4000000000001</ele><time>2026-04-20T09:25:24Z</time></trkpt><trkpt lat="45.88023964597858" lon="10.75518964790438"><ele>655.2</ele><time>2026-04-20T09:25:25Z</time></trkpt><trkpt lat="45.88031900779565" lon="10.755313979965276"><ele>654.0</ele><time>2026-04-20T09:25:26Z</time></trkpt><trkpt lat="45.88041526598637" lon="10.755421187014434"><ele>657.0</ele><time>2026-04-20T09:25:27Z</time></trkpt><trkpt lat="45.88049752363765" lon="10.755549676055043"><ele>660.0</ele><time>2026-04-20T09:25:28Z</time></trkpt><trkpt lat="45.880574156399085" lon="10.75568754698431"><ele>663.0</ele><time>2026-04-20T09:25:29Z</time></trkpt><trkpt lat="45.880653224216765" lon="10.755833071091516"><ele>666.0</ele><time>2026-04-20T09:25:30Z</time></trkpt><trkpt lat="45.88072118905477" lon="10.756000143214276"><ele>664.75</ele><time>2026-04-20T09:25:31Z</time></trkpt><trkpt lat="45.88077445546724" lon="10.756163638973884"><ele>663.5</ele><time>2026-04-20T09:25:32Z</time></trkpt><trkpt lat="45.8808069317936" lon="10.756355270070651"><ele>662.25</ele><time>2026-04-20T09:25:33Z</time></trkpt><trkpt lat="45.88083569406761" lon="10.756557861118951"><ele>661.0</ele><time>2026-04-20T09:25:34Z</time></trkpt><trkpt lat="45.880852891111736" lon="10.756761537604564"><ele>661.75</ele><time>2026-04-20T09:25:35Z</time></trkpt><trkpt lat="45.88084676375031" lon="10.756969508815988"><ele>662.5</ele><time>2026-04-20T09:25:36Z</time></trkpt><trkpt lat="45.88083591047741" lon="10.757186701319727"><ele>663.25</ele><time>2026-04-20T09:25:37Z</time></trkpt><trkpt lat="45.88083104667691" lon="10.757364581112517"><ele>664.0</ele><time>2026-04-20T09:25:38Z</time></trkpt><trkpt lat="45.8808281845333" lon="10.757528727757048"><ele>664.0</ele><time>2026-04-20T09:25:39Z</time></trkpt><trkpt lat="45.8808245218886" lon="10.757693349424564"><ele>664.0</ele><time>2026-04-20T09:25:40Z</time></trkpt><trkpt lat="45.88077267221315" lon="10.757863283728502"><ele>664.0</ele><time>2026-04-20T09:25:41Z</time></trkpt><trkpt lat="45.880710981347086" lon="10.75801690756816"><ele>664.0</ele><time>2026-04-20T09:25:42Z</time></trkpt><trkpt lat="45.88064336257355" lon="10.758150914841837"><ele>664.6</ele><time>2026-04-20T09:25:43Z</time></trkpt><trkpt lat="45.88056683988487" lon="10.758295171620775"><ele>665.2</ele><time>2026-04-20T09:25:44Z</time></trkpt><trkpt lat="45.880520109285946" lon="10.758441033690929"><ele>665.8000000000001</ele><time>2026-04-20T09:25:45Z</time></trkpt><trkpt lat="45.88047307263639" lon="10.758565812958553"><ele>666.4000000000001</ele><time>2026-04-20T09:25:46Z</time></trkpt><trkpt lat="45.88044095854647" lon="10.758716390457858"><ele>667.0</ele><time>2026-04-20T09:25:47Z</time></trkpt><trkpt lat="45.8804150356957" lon="10.758897754851912"><ele>673.75</ele><time>2026-04-20T09:25:48Z</time></trkpt><trkpt lat="45.880397918057064" lon="10.759073324704293"><ele>680.5</ele><time>2026-04-20T09:25:49Z</time></trkpt><trkpt lat="45.88038439606901" lon="10.759265632256254"><ele>687.25</ele><time>2026-04-20T09:25:50Z</time></trkpt><trkpt lat="45.88036267144137" lon="10.759439165037845"><ele>694.0</ele><time>2026-04-20T09:25:51Z</time></trkpt><trkpt lat="45.88032798064298" lon="10.759613477982093"><ele>697.5</ele><time>2026-04-20T09:25:52Z</time></trkpt><trkpt lat="45.88028089401015" lon="10.759806031731037"><ele>701.0</ele><time>2026-04-20T09:25:53Z</time></trkpt><trkpt lat="45.88026314799083" lon="10.760011029695013"><ele>704.5</ele><time>2026-04-20T09:25:54Z</time></trkpt><trkpt lat="45.880216693150786" lon="10.760203313337923"><ele>708.0</ele><time>2026-04-20T09:25:55Z</time></trkpt><trkpt lat="45.880171591721904" lon="10.760382048903683"><ele>714.0</ele><time>2026-04-20T09:25:56Z</time></trkpt><trkpt lat="45.880120708886466" lon="10.760554218141587"><ele>720.0</ele><time>2026-04-20T09:25:57Z</time></trkpt><trkpt lat="45.880002238551874" lon="10.760671548657172"><ele>726.0</ele><time>2026-04-20T09:25:58Z</time></trkpt><trkpt lat="45.879939358604645" lon="10.760756735469862"><ele>732.0</ele><time>2026-04-20T09:25:59Z</time></trkpt><trkpt lat="45.87987307246045" lon="10.760836969741355"><ele>738.0</ele><time>2026-04-20T09:26:00Z</time></trkpt><trkpt lat="45.87981708848338" lon="10.760903433097452"><ele>732.1666666666666</ele><time>2026-04-20T09:26:01Z</time></trkpt><trkpt lat="45.87975785408711" lon="10.760971487396464"><ele>726.3333333333334</ele><time>2026-04-20T09:26:02Z</time></trkpt><trkpt lat="45.87966526132438" lon="10.761077275569727"><ele>720.5</ele><time>2026-04-20T09:26:04Z</time></trkpt><trkpt lat="45.87960858421897" lon="10.761138403238197"><ele>714.6666666666667</ele><time>2026-04-20T09:26:05Z</time></trkpt><trkpt lat="45.87953099232626" lon="10.76122490375279"><ele>708.8333333333334</ele><time>2026-04-20T09:26:06Z</time></trkpt><trkpt lat="45.87946914537514" lon="10.761300486592013"><ele>703.0</ele><time>2026-04-20T09:26:07Z</time></trkpt><trkpt lat="45.87938821502079" lon="10.761449326442257"><ele>703.0</ele><time>2026-04-20T09:26:09Z</time></trkpt><trkpt lat="45.87936013186959" lon="10.761534944876143"><ele>703.0</ele><time>2026-04-20T09:26:10Z</time></trkpt><trkpt lat="45.87935729134838" lon="10.761647135973332"><ele>703.0</ele><time>2026-04-20T09:26:11Z</time></trkpt><trkpt lat="45.87935733730936" lon="10.761738483027173"><ele>703.0</ele><time>2026-04-20T09:26:12Z</time></trkpt><trkpt lat="45.87936799318369" lon="10.761884007607538"><ele>703.0</ele><time>2026-04-20T09:26:14Z</time></trkpt><trkpt lat="45.87937436564786" lon="10.761977972527196"><ele>703.0</ele><time>2026-04-20T09:26:15Z</time></trkpt><trkpt lat="45.87936710448225" lon="10.762088362295694"><ele>703.6666666666667</ele><time>2026-04-20T09:26:16Z</time></trkpt><trkpt lat="45.87936309479" lon="10.762206713989642"><ele>704.3333333333334</ele><time>2026-04-20T09:26:17Z</time></trkpt><trkpt lat="45.87934592607558" lon="10.762315119968124"><ele>705.0</ele><time>2026-04-20T09:26:18Z</time></trkpt><trkpt lat="45.87931828824842" lon="10.762416958069144"><ele>705.6666666666666</ele><time>2026-04-20T09:26:19Z</time></trkpt><trkpt lat="45.87928565037493" lon="10.762502831480752"><ele>706.3333333333333</ele><time>2026-04-20T09:26:20Z</time></trkpt><trkpt lat="45.879203503673075" lon="10.762626991052342"><ele>707.0</ele><time>2026-04-20T09:26:22Z</time></trkpt><trkpt lat="45.87912710884112" lon="10.762704344658102"><ele>709.2</ele><time>2026-04-20T09:26:23Z</time></trkpt><trkpt lat="45.879052913259954" lon="10.76273298621364"><ele>711.4000000000001</ele><time>2026-04-20T09:26:24Z</time></trkpt><trkpt lat="45.87888634561966" lon="10.76279115641166"><ele>713.5999999999999</ele><time>2026-04-20T09:26:26Z</time></trkpt><trkpt lat="45.878802327508915" lon="10.762823083254405"><ele>715.8</ele><time>2026-04-20T09:26:27Z</time></trkpt><trkpt lat="45.87872864087696" lon="10.762850985281247"><ele>718.0</ele><time>2026-04-20T09:26:29Z</time></trkpt><trkpt lat="45.878625337246206" lon="10.762890102666308"><ele>718.0</ele><time>2026-04-20T09:26:31Z</time></trkpt><trkpt lat="45.87854854345994" lon="10.762964201803598"><ele>718.0</ele><time>2026-04-20T09:26:33Z</time></trkpt><trkpt lat="45.87843901047952" lon="10.76296065785306"><ele>718.0</ele><time>2026-04-20T09:26:35Z</time></trkpt><trkpt lat="45.87833700205784" lon="10.762999284765982"><ele>718.0</ele><time>2026-04-20T09:26:37Z</time></trkpt><trkpt lat="45.87826004673924" lon="10.76302672440733"><ele>718.0</ele><time>2026-04-20T09:26:39Z</time></trkpt><trkpt lat="45.878191757455554" lon="10.763051107851885"><ele>700.5</ele><time>2026-04-20T09:26:41Z</time></trkpt><trkpt lat="45.87811176614605" lon="10.763082265420662"><ele>683.0</ele><time>2026-04-20T09:26:43Z</time></trkpt><trkpt lat="45.878023080239586" lon="10.763140765339426"><ele>665.5</ele><time>2026-04-20T09:26:45Z</time></trkpt><trkpt lat="45.87795286268148" lon="10.763346753709543"><ele>648.0</ele><time>2026-04-20T09:26:47Z</time></trkpt><trkpt lat="45.87800600826752" lon="10.76357802295451"><ele>648.0</ele><time>2026-04-20T09:26:48Z</time></trkpt><trkpt lat="45.87812921528827" lon="10.763662224906392"><ele>648.0</ele><time>2026-04-20T09:26:49Z</time></trkpt><trkpt lat="45.87821762356453" lon="10.763712005715345"><ele>648.0</ele><time>2026-04-20T09:26:50Z</time></trkpt><trkpt lat="45.87832954410797" lon="10.763815855935457"><ele>648.0</ele><time>2026-04-20T09:26:51Z</time></trkpt><trkpt lat="45.87844127990575" lon="10.763920770249245"><ele>659.5999999999999</ele><time>2026-04-20T09:26:52Z</time></trkpt><trkpt lat="45.87853728168082" lon="10.764006977906735"><ele>671.1999999999999</ele><time>2026-04-20T09:26:53Z</time></trkpt><trkpt lat="45.878625314157155" lon="10.764081438218298"><ele>682.8</ele><time>2026-04-20T09:26:54Z</time></trkpt><trkpt lat="45.8787259072113" lon="10.764156783343546"><ele>694.4</ele><time>2026-04-20T09:26:55Z</time></trkpt><trkpt lat="45.878830931799214" lon="10.764235936853407"><ele>706.0</ele><time>2026-04-20T09:26:56Z</time></trkpt><trkpt lat="45.87893190988235" lon="10.764321517754892"><ele>706.0</ele><time>2026-04-20T09:26:57Z</time></trkpt><trkpt lat="45.87901502146431" lon="10.764425285710637"><ele>706.0</ele><time>2026-04-20T09:26:58Z</time></trkpt><trkpt lat="45.8790775373985" lon="10.764550157585427"><ele>706.0</ele><time>2026-04-20T09:26:59Z</time></trkpt><trkpt lat="45.87912807177804" lon="10.764699095859902"><ele>706.0</ele><time>2026-04-20T09:27:00Z</time></trkpt><trkpt lat="45.87913827908843" lon="10.76484248491976"><ele>706.0</ele><time>2026-04-20T09:27:01Z</time></trkpt><trkpt lat="45.87913143287121" lon="10.764942353784477"><ele>706.0</ele><time>2026-04-20T09:27:02Z</time></trkpt><trkpt lat="45.87912746017076" lon="10.765092247784382"><ele>706.0</ele><time>2026-04-20T09:27:03Z</time></trkpt><trkpt lat="45.879039279908646" lon="10.765196271017295"><ele>706.0</ele><time>2026-04-20T09:27:04Z</time></trkpt><trkpt lat="45.878899682094605" lon="10.765515305710693"><ele>706.0</ele><time>2026-04-20T09:27:05Z</time></trkpt><trkpt lat="45.87886307780589" lon="10.7657295851021"><ele>706.0</ele><time>2026-04-20T09:27:06Z</time></trkpt><trkpt lat="45.87883983961516" lon="10.765923597484411"><ele>706.0</ele><time>2026-04-20T09:27:07Z</time></trkpt><trkpt lat="45.87882018196592" lon="10.766103679126836"><ele>706.0</ele><time>2026-04-20T09:27:08Z</time></trkpt><trkpt lat="45.878807496721706" lon="10.766219886128999"><ele>706.0</ele><time>2026-04-20T09:27:09Z</time></trkpt><trkpt lat="45.87879496813844" lon="10.766334875634595"><ele>706.0</ele><time>2026-04-20T09:27:10Z</time></trkpt><trkpt lat="45.8787700944168" lon="10.766506216831582"><ele>706.0</ele><time>2026-04-20T09:27:11Z</time></trkpt><trkpt lat="45.878746227025005" lon="10.766613657861528"><ele>706.0</ele><time>2026-04-20T09:27:12Z</time></trkpt><trkpt lat="45.878707363921635" lon="10.76671197138082"><ele>706.0</ele><time>2026-04-20T09:27:13Z</time></trkpt><trkpt lat="45.87864696807786" lon="10.766819435474526"><ele>706.0</ele><time>2026-04-20T09:27:14Z</time></trkpt><trkpt lat="45.87857525218497" lon="10.766941950509178"><ele>706.0</ele><time>2026-04-20T09:27:15Z</time></trkpt><trkpt lat="45.878490837071354" lon="10.767075243161555"><ele>706.0</ele><time>2026-04-20T09:27:16Z</time></trkpt><trkpt lat="45.878430479726774" lon="10.767187767574644"><ele>706.0</ele><time>2026-04-20T09:27:17Z</time></trkpt><trkpt lat="45.878349102923174" lon="10.767290810934265"><ele>706.0</ele><time>2026-04-20T09:27:18Z</time></trkpt><trkpt lat="45.87831896314562" lon="10.76739519557436"><ele>706.0</ele><time>2026-04-20T09:27:19Z</time></trkpt><trkpt lat="45.878285694503916" lon="10.767517093292701"><ele>706.0</ele><time>2026-04-20T09:27:20Z</time></trkpt><trkpt lat="45.878290678163545" lon="10.767623302525811"><ele>706.0</ele><time>2026-04-20T09:27:21Z</time></trkpt><trkpt lat="45.878236301748544" lon="10.767731533759392"><ele>706.0</ele><time>2026-04-20T09:27:23Z</time></trkpt><trkpt lat="45.8781805253935" lon="10.767863224087131"><ele>706.0</ele><time>2026-04-20T09:27:25Z</time></trkpt><trkpt lat="45.878100525404065" lon="10.76797571450439"><ele>706.0</ele><time>2026-04-20T09:27:27Z</time></trkpt><trkpt lat="45.87805591079309" lon="10.768099544343833"><ele>706.0</ele><time>2026-04-20T09:27:28Z</time></trkpt><trkpt lat="45.87797764810385" lon="10.768213616650845"><ele>706.0</ele><time>2026-04-20T09:27:29Z</time></trkpt><trkpt lat="45.87791491999356" lon="10.768271720633148"><ele>706.0</ele><time>2026-04-20T09:27:30Z</time></trkpt><trkpt lat="45.87784133855428" lon="10.768326661665196"><ele>706.0</ele><time>2026-04-20T09:27:31Z</time></trkpt><trkpt lat="45.87765218194638" lon="10.768201010713389"><ele>706.0</ele><time>2026-04-20T09:27:32Z</time></trkpt><trkpt lat="45.87751031564982" lon="10.768296889626152"><ele>706.0</ele><time>2026-04-20T09:27:33Z</time></trkpt><trkpt lat="45.877453841001625" lon="10.768415614359542"><ele>706.0</ele><time>2026-04-20T09:27:34Z</time></trkpt><trkpt lat="45.8773438699583" lon="10.768524421623429"><ele>706.0</ele><time>2026-04-20T09:27:35Z</time></trkpt><trkpt lat="45.87723612177488" lon="10.768666314190495"><ele>706.0</ele><time>2026-04-20T09:27:36Z</time></trkpt><trkpt lat="45.87712507860607" lon="10.768771069712905"><ele>706.0</ele><time>2026-04-20T09:27:37Z</time></trkpt><trkpt lat="45.87698865547011" lon="10.768840565610574"><ele>706.0</ele><time>2026-04-20T09:27:38Z</time></trkpt><trkpt lat="45.87685814181809" lon="10.768912394728998"><ele>706.0</ele><time>2026-04-20T09:27:39Z</time></trkpt><trkpt lat="45.87674482225267" lon="10.768910550533413"><ele>706.0</ele><time>2026-04-20T09:27:40Z</time></trkpt><trkpt lat="45.87663096278755" lon="10.768878621165781"><ele>706.0</ele><time>2026-04-20T09:27:41Z</time></trkpt><trkpt lat="45.87648584754285" lon="10.768891500711474"><ele>706.0</ele><time>2026-04-20T09:27:42Z</time></trkpt><trkpt lat="45.876365086056765" lon="10.768782031475853"><ele>706.0</ele><time>2026-04-20T09:27:43Z</time></trkpt><trkpt lat="45.876227742311364" lon="10.768654283539142"><ele>706.0</ele><time>2026-04-20T09:27:44Z</time></trkpt><trkpt lat="45.87608474586084" lon="10.768544159280689"><ele>706.0</ele><time>2026-04-20T09:27:45Z</time></trkpt><trkpt lat="45.87594963882499" lon="10.768415655517636"><ele>706.0</ele><time>2026-04-20T09:27:46Z</time></trkpt><trkpt lat="45.875902826775594" lon="10.768205639760975"><ele>691.5</ele><time>2026-04-20T09:27:47Z</time></trkpt><trkpt lat="45.8758148783535" lon="10.768066495778667"><ele>677.0</ele><time>2026-04-20T09:27:48Z</time></trkpt><trkpt lat="45.8757117756844" lon="10.767915265376157"><ele>662.5</ele><time>2026-04-20T09:27:49Z</time></trkpt><trkpt lat="45.87561614090532" lon="10.76776826074921"><ele>648.0</ele><time>2026-04-20T09:27:50Z</time></trkpt><trkpt lat="45.87557349354068" lon="10.76760082453092"><ele>648.0</ele><time>2026-04-20T09:27:51Z</time></trkpt><trkpt lat="45.875497839389595" lon="10.767411298897592"><ele>648.0</ele><time>2026-04-20T09:27:52Z</time></trkpt><trkpt lat="45.87542311495935" lon="10.7672254979773"><ele>648.0</ele><time>2026-04-20T09:27:53Z</time></trkpt><trkpt lat="45.8753741449478" lon="10.767016363964345"><ele>648.0</ele><time>2026-04-20T09:27:54Z</time></trkpt><trkpt lat="45.87532045789479" lon="10.766813529005995"><ele>648.0</ele><time>2026-04-20T09:27:55Z</time></trkpt><trkpt lat="45.87529906149664" lon="10.766618200633767"><ele>648.0</ele><time>2026-04-20T09:27:56Z</time></trkpt><trkpt lat="45.875235091758114" lon="10.766446019406937"><ele>648.0</ele><time>2026-04-20T09:27:57Z</time></trkpt><trkpt lat="45.875146299764275" lon="10.766271834141097"><ele>648.0</ele><time>2026-04-20T09:27:58Z</time></trkpt><trkpt lat="45.87505401251707" lon="10.76617726655332"><ele>648.0</ele><time>2026-04-20T09:27:59Z</time></trkpt><trkpt lat="45.874953034590405" lon="10.766112827570911"><ele>648.0</ele><time>2026-04-20T09:28:00Z</time></trkpt><trkpt lat="45.87482372655909" lon="10.766049145211168"><ele>648.0</ele><time>2026-04-20T09:28:01Z</time></trkpt><trkpt lat="45.87470318501321" lon="10.766042605555155"><ele>648.0</ele><time>2026-04-20T09:28:02Z</time></trkpt><trkpt lat="45.874598324246456" lon="10.766046102618558"><ele>648.0</ele><time>2026-04-20T09:28:03Z</time></trkpt><trkpt lat="45.87451001819422" lon="10.76606926117886"><ele>648.0</ele><time>2026-04-20T09:28:04Z</time></trkpt><trkpt lat="45.87442742150935" lon="10.766088066831992"><ele>648.0</ele><time>2026-04-20T09:28:05Z</time></trkpt><trkpt lat="45.87434476194057" lon="10.766147351354409"><ele>648.0</ele><time>2026-04-20T09:28:07Z</time></trkpt><trkpt lat="45.87428309242985" lon="10.76612405049208"><ele>648.0</ele><time>2026-04-20T09:28:10Z</time></trkpt><trkpt lat="45.87421528892852" lon="10.766144028020607"><ele>648.0</ele><time>2026-04-20T09:28:36Z</time></trkpt><trkpt lat="45.874163875670895" lon="10.766234245087523"><ele>648.0</ele><time>2026-04-20T09:29:21Z</time></trkpt><trkpt lat="45.874054347955095" lon="10.76629527057821"><ele>648.0</ele><time>2026-04-20T09:29:24Z</time></trkpt><trkpt lat="45.87396878591475" lon="10.766396837392902"><ele>648.0</ele><time>2026-04-20T09:29:26Z</time></trkpt><trkpt lat="45.87386895674699" lon="10.76653535414151"><ele>648.0</ele><time>2026-04-20T09:29:28Z</time></trkpt><trkpt lat="45.873807679770835" lon="10.766590236123328"><ele>648.0</ele><time>2026-04-20T09:29:29Z</time></trkpt><trkpt lat="45.873754778496334" lon="10.766671279904303"><ele>648.0</ele><time>2026-04-20T09:29:30Z</time></trkpt><trkpt lat="45.87370177491456" lon="10.76676011978178"><ele>648.0</ele><time>2026-04-20T09:29:31Z</time></trkpt><trkpt lat="45.87362900953514" lon="10.766798736015438"><ele>648.0</ele><time>2026-04-20T09:29:32Z</time></trkpt><trkpt lat="45.87356028820202" lon="10.766821205664465"><ele>648.0</ele><time>2026-04-20T09:29:33Z</time></trkpt><trkpt lat="45.87348684614134" lon="10.766794594612836"><ele>648.0</ele><time>2026-04-20T09:29:34Z</time></trkpt><trkpt lat="45.873423334361874" lon="10.766721869202467"><ele>648.0</ele><time>2026-04-20T09:29:35Z</time></trkpt><trkpt lat="45.87339657241042" lon="10.766614497947332"><ele>648.0</ele><time>2026-04-20T09:29:36Z</time></trkpt><trkpt lat="45.87344279540375" lon="10.766444935512249"><ele>648.0</ele><time>2026-04-20T09:29:38Z</time></trkpt><trkpt lat="45.87347878155327" lon="10.76629320883276"><ele>648.0</ele><time>2026-04-20T09:29:40Z</time></trkpt><trkpt lat="45.87350707008292" lon="10.766208156694546"><ele>648.0</ele><time>2026-04-20T09:29:41Z</time></trkpt><trkpt lat="45.87355574623508" lon="10.766110085703325"><ele>648.0</ele><time>2026-04-20T09:29:42Z</time></trkpt><trkpt lat="45.87356391084696" lon="10.765962028153083"><ele>648.0</ele><time>2026-04-20T09:29:43Z</time></trkpt><trkpt lat="45.87356009794433" lon="10.765798896683863"><ele>648.0</ele><time>2026-04-20T09:29:44Z</time></trkpt><trkpt lat="45.87356027470404" lon="10.765500333923168"><ele>648.0</ele><time>2026-04-20T09:29:45Z</time></trkpt><trkpt lat="45.87363264239459" lon="10.765357765532388"><ele>648.0</ele><time>2026-04-20T09:29:46Z</time></trkpt><trkpt lat="45.87366200430815" lon="10.765252901094586"><ele>648.0</ele><time>2026-04-20T09:29:47Z</time></trkpt><trkpt lat="45.873721862805645" lon="10.76512292303396"><ele>648.0</ele><time>2026-04-20T09:29:48Z</time></trkpt><trkpt lat="45.873754232903856" lon="10.76501683984478"><ele>648.0</ele><time>2026-04-20T09:29:49Z</time></trkpt><trkpt lat="45.87377411239211" lon="10.764887717404974"><ele>648.0</ele><time>2026-04-20T09:29:50Z</time></trkpt><trkpt lat="45.87375711508633" lon="10.764760314545955"><ele>648.0</ele><time>2026-04-20T09:29:51Z</time></trkpt><trkpt lat="45.87372950353094" lon="10.764639428065937"><ele>648.0</ele><time>2026-04-20T09:29:52Z</time></trkpt><trkpt lat="45.873666399869826" lon="10.764613058054806"><ele>648.0</ele><time>2026-04-20T09:29:53Z</time></trkpt><trkpt lat="45.87364075553334" lon="10.764516778195173"><ele>648.0</ele><time>2026-04-20T09:29:55Z</time></trkpt><trkpt lat="45.873582536128424" lon="10.764413560042959"><ele>648.0</ele><time>2026-04-20T09:30:10Z</time></trkpt><trkpt lat="45.87353101000837" lon="10.764476929010273"><ele>648.0</ele><time>2026-04-20T09:32:01Z</time></trkpt></trkseg><trkseg><trkpt lat="45.87357921332352" lon="10.76440689961995"><ele>648.0</ele><time>2026-04-20T09:45:42Z</time></trkpt><trkpt lat="45.87356968418772" lon="10.76455533092011"><ele>648.0</ele><time>2026-04-20T09:46:18Z</time></trkpt><trkpt lat="45.87362557010581" lon="10.764641309292218"><ele>648.0</ele><time>2026-04-20T09:46:20Z</time></trkpt><trkpt lat="45.8736986621385" lon="10.764733790908457"><ele>648.0</ele><time>2026-04-20T09:46:22Z</time></trkpt><trkpt lat="45.873738384579404" lon="10.76485099161808"><ele>648.0</ele><time>2026-04-20T09:46:24Z</time></trkpt><trkpt lat="45.873765277523184" lon="10.76501905752152"><ele>648.0</ele><time>2026-04-20T09:46:26Z</time></trkpt><trkpt lat="45.87376865482123" lon="10.765138807782524"><ele>648.0</ele><time>2026-04-20T09:46:27Z</time></trkpt><trkpt lat="45.87374646782208" lon="10.765271916900414"><ele>648.0</ele><time>2026-04-20T09:46:28Z</time></trkpt><trkpt lat="45.87370137884795" lon="10.765402456360135"><ele>648.0</ele><time>2026-04-20T09:46:29Z</time></trkpt><trkpt lat="45.87365832763007" lon="10.765489849031487"><ele>648.0</ele><time>2026-04-20T09:46:30Z</time></trkpt><trkpt lat="45.87362448063124" lon="10.765578472479152"><ele>648.0</ele><time>2026-04-20T09:46:31Z</time></trkpt><trkpt lat="45.87359266637786" lon="10.765697569685265"><ele>648.0</ele><time>2026-04-20T09:46:32Z</time></trkpt><trkpt lat="45.87356209632462" lon="10.765832710942828"><ele>648.0</ele><time>2026-04-20T09:46:33Z</time></trkpt><trkpt lat="45.87353978445497" lon="10.765966787641482"><ele>648.0</ele><time>2026-04-20T09:46:34Z</time></trkpt><trkpt lat="45.873505408758305" lon="10.766102900989845"><ele>648.0</ele><time>2026-04-20T09:46:35Z</time></trkpt><trkpt lat="45.87347237941066" lon="10.766265038989983"><ele>648.0</ele><time>2026-04-20T09:46:36Z</time></trkpt><trkpt lat="45.873421109259134" lon="10.766405251476701"><ele>648.0</ele><time>2026-04-20T09:46:37Z</time></trkpt><trkpt lat="45.87336528253424" lon="10.76650158961663"><ele>648.0</ele><time>2026-04-20T09:46:38Z</time></trkpt><trkpt lat="45.87330589914279" lon="10.766584405095658"><ele>648.0</ele><time>2026-04-20T09:46:39Z</time></trkpt><trkpt lat="45.873262274443036" lon="10.766659311926121"><ele>648.0</ele><time>2026-04-20T09:46:40Z</time></trkpt><trkpt lat="45.87327130207295" lon="10.766797599943528"><ele>648.0</ele><time>2026-04-20T09:46:42Z</time></trkpt><trkpt lat="45.873300525145275" lon="10.766884017102484"><ele>648.0</ele><time>2026-04-20T09:46:43Z</time></trkpt><trkpt lat="45.873333190665036" lon="10.766964053947893"><ele>648.0</ele><time>2026-04-20T09:46:44Z</time></trkpt><trkpt lat="45.87335913166788" lon="10.767050872355153"><ele>648.0</ele><time>2026-04-20T09:46:45Z</time></trkpt><trkpt lat="45.87333367149558" lon="10.7671381143817"><ele>648.0</ele><time>2026-04-20T09:46:46Z</time></trkpt><trkpt lat="45.87326457534224" lon="10.76726258969715"><ele>648.0</ele><time>2026-04-20T09:46:47Z</time></trkpt><trkpt lat="45.87320707263703" lon="10.767372110457028"><ele>648.0</ele><time>2026-04-20T09:46:48Z</time></trkpt><trkpt lat="45.87314977143064" lon="10.76749407411867"><ele>648.0</ele><time>2026-04-20T09:46:49Z</time></trkpt><trkpt lat="45.87309509836701" lon="10.767633724056815"><ele>648.0</ele><time>2026-04-20T09:46:50Z</time></trkpt><trkpt lat="45.873036077786125" lon="10.767785293805362"><ele>648.0</ele><time>2026-04-20T09:46:51Z</time></trkpt><trkpt lat="45.872974269122125" lon="10.76792597473411"><ele>648.0</ele><time>2026-04-20T09:46:52Z</time></trkpt><trkpt lat="45.87290797975969" lon="10.768058261854003"><ele>648.0</ele><time>2026-04-20T09:46:53Z</time></trkpt><trkpt lat="45.8728350320946" lon="10.768212297216218"><ele>665.25</ele><time>2026-04-20T09:46:54Z</time></trkpt><trkpt lat="45.872767093851756" lon="10.768377089592073"><ele>682.5</ele><time>2026-04-20T09:46:55Z</time></trkpt><trkpt lat="45.872711851615605" lon="10.768542760099617"><ele>699.75</ele><time>2026-04-20T09:46:56Z</time></trkpt><trkpt lat="45.872671156560955" lon="10.768704579259923"><ele>717.0</ele><time>2026-04-20T09:46:57Z</time></trkpt><trkpt lat="45.872628396698346" lon="10.76891690742875"><ele>717.0</ele><time>2026-04-20T09:46:58Z</time></trkpt><trkpt lat="45.87259431153858" lon="10.769124019643955"><ele>717.0</ele><time>2026-04-20T09:46:59Z</time></trkpt><trkpt lat="45.8725565231024" lon="10.769342503243934"><ele>717.0</ele><time>2026-04-20T09:47:00Z</time></trkpt><trkpt lat="45.872516980711275" lon="10.769520592755464"><ele>717.0</ele><time>2026-04-20T09:47:01Z</time></trkpt><trkpt lat="45.872473555161896" lon="10.769694796423515"><ele>717.0</ele><time>2026-04-20T09:47:02Z</time></trkpt><trkpt lat="45.872428134425114" lon="10.769871269788622"><ele>717.0</ele><time>2026-04-20T09:47:03Z</time></trkpt><trkpt lat="45.87239081660436" lon="10.770033391477941"><ele>717.0</ele><time>2026-04-20T09:47:04Z</time></trkpt><trkpt lat="45.87233519909867" lon="10.770204165182404"><ele>717.0</ele><time>2026-04-20T09:47:05Z</time></trkpt><trkpt lat="45.872296719996044" lon="10.770370823309255"><ele>717.0</ele><time>2026-04-20T09:47:06Z</time></trkpt><trkpt lat="45.872252467967385" lon="10.77055316779278"><ele>717.0</ele><time>2026-04-20T09:47:07Z</time></trkpt><trkpt lat="45.872198129428845" lon="10.77074862894236"><ele>717.0</ele><time>2026-04-20T09:47:08Z</time></trkpt><trkpt lat="45.8721385399439" lon="10.770937096351544"><ele>717.0</ele><time>2026-04-20T09:47:09Z</time></trkpt><trkpt lat="45.872090617411644" lon="10.771111495090992"><ele>717.0</ele><time>2026-04-20T09:47:10Z</time></trkpt><trkpt lat="45.87203779398442" lon="10.77128458321403"><ele>717.0</ele><time>2026-04-20T09:47:11Z</time></trkpt><trkpt lat="45.87198071389749" lon="10.771466784901664"><ele>717.0</ele><time>2026-04-20T09:47:12Z</time></trkpt><trkpt lat="45.8719137491642" lon="10.77164642602081"><ele>717.0</ele><time>2026-04-20T09:47:13Z</time></trkpt><trkpt lat="45.87185230814339" lon="10.77182732702074"><ele>717.0</ele><time>2026-04-20T09:47:14Z</time></trkpt><trkpt lat="45.87180086795602" lon="10.772014587296816"><ele>717.0</ele><time>2026-04-20T09:47:15Z</time></trkpt><trkpt lat="45.871749989464945" lon="10.77222707802238"><ele>717.0</ele><time>2026-04-20T09:47:16Z</time></trkpt><trkpt lat="45.87168994191367" lon="10.77242238859726"><ele>717.0</ele><time>2026-04-20T09:47:17Z</time></trkpt><trkpt lat="45.87163365629771" lon="10.772581539645877"><ele>717.0</ele><time>2026-04-20T09:47:18Z</time></trkpt><trkpt lat="45.87159339411006" lon="10.77272771700205"><ele>717.0</ele><time>2026-04-20T09:47:19Z</time></trkpt><trkpt lat="45.871552254752636" lon="10.772878144730553"><ele>717.0</ele><time>2026-04-20T09:47:20Z</time></trkpt><trkpt lat="45.87150914257983" lon="10.77302147521053"><ele>717.0</ele><time>2026-04-20T09:47:21Z</time></trkpt><trkpt lat="45.8714679823919" lon="10.773149653991453"><ele>717.0</ele><time>2026-04-20T09:47:22Z</time></trkpt><trkpt lat="45.87144488377222" lon="10.773286088510346"><ele>717.0</ele><time>2026-04-20T09:47:23Z</time></trkpt><trkpt lat="45.87145026290866" lon="10.773416645496162"><ele>717.0</ele><time>2026-04-20T09:47:24Z</time></trkpt><trkpt lat="45.87146865588572" lon="10.773560217122697"><ele>717.0</ele><time>2026-04-20T09:47:25Z</time></trkpt><trkpt lat="45.87150220074706" lon="10.773692651748995"><ele>717.0</ele><time>2026-04-20T09:47:26Z</time></trkpt><trkpt lat="45.87154312585889" lon="10.773831083739692"><ele>717.0</ele><time>2026-04-20T09:47:27Z</time></trkpt><trkpt lat="45.871589945243336" lon="10.773986172805733"><ele>717.0</ele><time>2026-04-20T09:47:28Z</time></trkpt><trkpt lat="45.87162882445705" lon="10.774115131415885"><ele>717.0</ele><time>2026-04-20T09:47:29Z</time></trkpt><trkpt lat="45.8716612385014" lon="10.774240603478214"><ele>717.0</ele><time>2026-04-20T09:47:30Z</time></trkpt><trkpt lat="45.871706985059866" lon="10.774374169431026"><ele>717.0</ele><time>2026-04-20T09:47:31Z</time></trkpt><trkpt lat="45.87174495527685" lon="10.774536505203145"><ele>717.0</ele><time>2026-04-20T09:47:32Z</time></trkpt><trkpt lat="45.871780921947696" lon="10.77468992994302"><ele>706.0</ele><time>2026-04-20T09:47:33Z</time></trkpt><trkpt lat="45.87179588496999" lon="10.774805336443675"><ele>695.0</ele><time>2026-04-20T09:47:34Z</time></trkpt><trkpt lat="45.871829844606474" lon="10.77495513462929"><ele>684.0</ele><time>2026-04-20T09:47:35Z</time></trkpt><trkpt lat="45.87185431178111" lon="10.77511750924254"><ele>673.0</ele><time>2026-04-20T09:47:36Z</time></trkpt><trkpt lat="45.871891348459485" lon="10.775253758684938"><ele>662.0</ele><time>2026-04-20T09:47:37Z</time></trkpt><trkpt lat="45.8719352856006" lon="10.775379646812384"><ele>662.0</ele><time>2026-04-20T09:47:38Z</time></trkpt><trkpt lat="45.87195454654874" lon="10.775524566307771"><ele>662.0</ele><time>2026-04-20T09:47:39Z</time></trkpt><trkpt lat="45.871970779728485" lon="10.775676802147858"><ele>662.0</ele><time>2026-04-20T09:47:40Z</time></trkpt><trkpt lat="45.87203190914533" lon="10.775851049874456"><ele>662.0</ele><time>2026-04-20T09:47:41Z</time></trkpt><trkpt lat="45.872015598368655" lon="10.77605562192354"><ele>663.0</ele><time>2026-04-20T09:47:42Z</time></trkpt><trkpt lat="45.872024036484554" lon="10.7762784745104"><ele>664.0</ele><time>2026-04-20T09:47:43Z</time></trkpt><trkpt lat="45.87203502973266" lon="10.776489282657181"><ele>665.0</ele><time>2026-04-20T09:47:44Z</time></trkpt><trkpt lat="45.87200400038382" lon="10.776701410178863"><ele>663.75</ele><time>2026-04-20T09:47:45Z</time></trkpt><trkpt lat="45.87201341914886" lon="10.776898645972809"><ele>662.5</ele><time>2026-04-20T09:47:46Z</time></trkpt><trkpt lat="45.87202101059812" lon="10.777096067839413"><ele>661.25</ele><time>2026-04-20T09:47:47Z</time></trkpt><trkpt lat="45.87201199769528" lon="10.777293908149144"><ele>660.0</ele><time>2026-04-20T09:47:48Z</time></trkpt><trkpt lat="45.87205166556375" lon="10.777501215019223"><ele>656.75</ele><time>2026-04-20T09:47:49Z</time></trkpt><trkpt lat="45.87203534006068" lon="10.77771406371578"><ele>653.5</ele><time>2026-04-20T09:47:50Z</time></trkpt><trkpt lat="45.87201195331016" lon="10.777906919049832"><ele>650.25</ele><time>2026-04-20T09:47:51Z</time></trkpt><trkpt lat="45.871989470264836" lon="10.778087603192397"><ele>647.0</ele><time>2026-04-20T09:47:52Z</time></trkpt><trkpt lat="45.87195346048185" lon="10.778267018987004"><ele>647.0</ele><time>2026-04-20T09:47:53Z</time></trkpt><trkpt lat="45.871899991459344" lon="10.778451113235752"><ele>647.0</ele><time>2026-04-20T09:47:54Z</time></trkpt><trkpt lat="45.87184564662206" lon="10.778624607854336"><ele>647.0</ele><time>2026-04-20T09:47:55Z</time></trkpt><trkpt lat="45.871806428395615" lon="10.778787978673652"><ele>647.0</ele><time>2026-04-20T09:47:56Z</time></trkpt><trkpt lat="45.87177385838216" lon="10.778922189073024"><ele>641.5</ele><time>2026-04-20T09:47:57Z</time></trkpt><trkpt lat="45.871758927773875" lon="10.779041785888085"><ele>636.0</ele><time>2026-04-20T09:47:58Z</time></trkpt><trkpt lat="45.871666892172286" lon="10.779095911384381"><ele>630.5</ele><time>2026-04-20T09:48:00Z</time></trkpt><trkpt lat="45.87161985791824" lon="10.77901916876833"><ele>625.0</ele><time>2026-04-20T09:48:01Z</time></trkpt><trkpt lat="45.871598458404186" lon="10.778885947289545"><ele>619.5</ele><time>2026-04-20T09:48:02Z</time></trkpt><trkpt lat="45.87160653159737" lon="10.778749416865528"><ele>614.0</ele><time>2026-04-20T09:48:03Z</time></trkpt><trkpt lat="45.871639965003176" lon="10.778616841328473"><ele>620.6</ele><time>2026-04-20T09:48:04Z</time></trkpt><trkpt lat="45.87166439088997" lon="10.778484141019764"><ele>627.2</ele><time>2026-04-20T09:48:05Z</time></trkpt><trkpt lat="45.87170003019603" lon="10.778355808932067"><ele>633.8000000000001</ele><time>2026-04-20T09:48:06Z</time></trkpt><trkpt lat="45.8717490603107" lon="10.778208807276267"><ele>640.4</ele><time>2026-04-20T09:48:07Z</time></trkpt><trkpt lat="45.87178337199544" lon="10.778086637961772"><ele>647.0</ele><time>2026-04-20T09:48:08Z</time></trkpt><trkpt lat="45.871779349382614" lon="10.777978273778126"><ele>647.0</ele><time>2026-04-20T09:48:09Z</time></trkpt><trkpt lat="45.871746113599045" lon="10.777869791169834"><ele>647.0</ele><time>2026-04-20T09:48:10Z</time></trkpt><trkpt lat="45.87167877519586" lon="10.777783400676094"><ele>647.0</ele><time>2026-04-20T09:48:11Z</time></trkpt><trkpt lat="45.87156564947281" lon="10.777779815511764"><ele>647.0</ele><time>2026-04-20T09:48:12Z</time></trkpt><trkpt lat="45.87146556410015" lon="10.777816185500695"><ele>647.0</ele><time>2026-04-20T09:48:13Z</time></trkpt><trkpt lat="45.87139920172264" lon="10.777942037370723"><ele>636.0</ele><time>2026-04-20T09:48:14Z</time></trkpt><trkpt lat="45.87138303075502" lon="10.77815592558029"><ele>625.0</ele><time>2026-04-20T09:48:15Z</time></trkpt><trkpt lat="45.87135192020754" lon="10.778391763324498"><ele>614.0</ele><time>2026-04-20T09:48:16Z</time></trkpt><trkpt lat="45.87133788093494" lon="10.778622843142271"><ele>614.0</ele><time>2026-04-20T09:48:17Z</time></trkpt><trkpt lat="45.871290967199826" lon="10.778833885578635"><ele>614.0</ele><time>2026-04-20T09:48:18Z</time></trkpt><trkpt lat="45.8712396460141" lon="10.779045596199708"><ele>614.0</ele><time>2026-04-20T09:48:19Z</time></trkpt><trkpt lat="45.871195386396984" lon="10.779276655170857"><ele>615.6666666666666</ele><time>2026-04-20T09:48:20Z</time></trkpt><trkpt lat="45.87114935618252" lon="10.77951489115061"><ele>617.3333333333334</ele><time>2026-04-20T09:48:21Z</time></trkpt><trkpt lat="45.87110178469362" lon="10.779754551063565"><ele>619.0</ele><time>2026-04-20T09:48:22Z</time></trkpt><trkpt lat="45.871053071864985" lon="10.779969398027763"><ele>624.3333333333334</ele><time>2026-04-20T09:48:23Z</time></trkpt><trkpt lat="45.87100928503678" lon="10.780201785971762"><ele>629.6666666666666</ele><time>2026-04-20T09:48:24Z</time></trkpt><trkpt lat="45.87096119523048" lon="10.780422698226259"><ele>635.0</ele><time>2026-04-20T09:48:25Z</time></trkpt><trkpt lat="45.87092567166714" lon="10.780656536065905"><ele>620.6666666666666</ele><time>2026-04-20T09:48:26Z</time></trkpt><trkpt lat="45.87090034614702" lon="10.780885296149146"><ele>606.3333333333334</ele><time>2026-04-20T09:48:27Z</time></trkpt><trkpt lat="45.87088450366233" lon="10.781131001761345"><ele>592.0</ele><time>2026-04-20T09:48:28Z</time></trkpt><trkpt lat="45.87088177339091" lon="10.781362481100489"><ele>592.0</ele><time>2026-04-20T09:48:29Z</time></trkpt><trkpt lat="45.870870678016054" lon="10.781575295158712"><ele>592.0</ele><time>2026-04-20T09:48:30Z</time></trkpt><trkpt lat="45.87082769919117" lon="10.781768924339959"><ele>592.0</ele><time>2026-04-20T09:48:31Z</time></trkpt><trkpt lat="45.8707204017483" lon="10.781942703661699"><ele>592.0</ele><time>2026-04-20T09:48:32Z</time></trkpt><trkpt lat="45.870605078133806" lon="10.782136494280769"><ele>592.0</ele><time>2026-04-20T09:48:33Z</time></trkpt><trkpt lat="45.870495655473896" lon="10.782326106171427"><ele>592.0</ele><time>2026-04-20T09:48:34Z</time></trkpt><trkpt lat="45.87039649242398" lon="10.782496046797252"><ele>592.0</ele><time>2026-04-20T09:48:35Z</time></trkpt><trkpt lat="45.87030664773903" lon="10.782702907399097"><ele>592.0</ele><time>2026-04-20T09:48:36Z</time></trkpt><trkpt lat="45.87023718963873" lon="10.782905783305907"><ele>592.0</ele><time>2026-04-20T09:48:37Z</time></trkpt><trkpt lat="45.87016149794136" lon="10.783137410172635"><ele>586.3333333333334</ele><time>2026-04-20T09:48:38Z</time></trkpt><trkpt lat="45.870092933540526" lon="10.783353398858054"><ele>580.6666666666666</ele><time>2026-04-20T09:48:39Z</time></trkpt><trkpt lat="45.870025627436064" lon="10.783574584722583"><ele>575.0</ele><time>2026-04-20T09:48:40Z</time></trkpt><trkpt lat="45.869952475828114" lon="10.783816824151293"><ele>575.0</ele><time>2026-04-20T09:48:41Z</time></trkpt><trkpt lat="45.86988468845023" lon="10.784053055681792"><ele>575.0</ele><time>2026-04-20T09:48:42Z</time></trkpt><trkpt lat="45.86981855174445" lon="10.784293022593456"><ele>575.0</ele><time>2026-04-20T09:48:43Z</time></trkpt><trkpt lat="45.8697573027561" lon="10.784514174491802"><ele>581.0</ele><time>2026-04-20T09:48:44Z</time></trkpt><trkpt lat="45.86968830799718" lon="10.78474155424675"><ele>587.0</ele><time>2026-04-20T09:48:45Z</time></trkpt><trkpt lat="45.86961725087447" lon="10.784959257447069"><ele>593.0</ele><time>2026-04-20T09:48:46Z</time></trkpt><trkpt lat="45.86953622528107" lon="10.785173761429418"><ele>597.0</ele><time>2026-04-20T09:48:47Z</time></trkpt><trkpt lat="45.86945470698182" lon="10.785390131136227"><ele>601.0</ele><time>2026-04-20T09:48:48Z</time></trkpt><trkpt lat="45.86937540047902" lon="10.785607761163185"><ele>605.0</ele><time>2026-04-20T09:48:49Z</time></trkpt><trkpt lat="45.869301621739034" lon="10.785824041253754"><ele>595.6666666666666</ele><time>2026-04-20T09:48:50Z</time></trkpt><trkpt lat="45.869244921401595" lon="10.786066721440749"><ele>586.3333333333334</ele><time>2026-04-20T09:48:51Z</time></trkpt><trkpt lat="45.869241848571654" lon="10.78632149549615"><ele>577.0</ele><time>2026-04-20T09:48:52Z</time></trkpt><trkpt lat="45.8691996069488" lon="10.786567156524258"><ele>577.0</ele><time>2026-04-20T09:48:53Z</time></trkpt><trkpt lat="45.86914278339513" lon="10.786799175759434"><ele>577.0</ele><time>2026-04-20T09:48:54Z</time></trkpt><trkpt lat="45.86906513965931" lon="10.787051550187343"><ele>577.0</ele><time>2026-04-20T09:48:55Z</time></trkpt><trkpt lat="45.868981168568" lon="10.787295723486835"><ele>583.6666666666667</ele><time>2026-04-20T09:48:56Z</time></trkpt><trkpt lat="45.86889454869138" lon="10.787549027191606"><ele>590.3333333333334</ele><time>2026-04-20T09:48:57Z</time></trkpt><trkpt lat="45.868812177417155" lon="10.787801279082728"><ele>597.0</ele><time>2026-04-20T09:48:58Z</time></trkpt><trkpt lat="45.86874124774364" lon="10.788063826748608"><ele>597.0</ele><time>2026-04-20T09:48:59Z</time></trkpt><trkpt lat="45.86868383617803" lon="10.78833520307303"><ele>597.0</ele><time>2026-04-20T09:49:00Z</time></trkpt><trkpt lat="45.868630119179514" lon="10.78859602435366"><ele>597.0</ele><time>2026-04-20T09:49:01Z</time></trkpt><trkpt lat="45.86857758443003" lon="10.788836814317854"><ele>594.3333333333334</ele><time>2026-04-20T09:49:02Z</time></trkpt><trkpt lat="45.86852540896892" lon="10.789075334197967"><ele>591.6666666666667</ele><time>2026-04-20T09:49:03Z</time></trkpt><trkpt lat="45.8684787427934" lon="10.789333804110228"><ele>589.0</ele><time>2026-04-20T09:49:04Z</time></trkpt><trkpt lat="45.868457040261085" lon="10.789603015646206"><ele>576.6666666666667</ele><time>2026-04-20T09:49:05Z</time></trkpt><trkpt lat="45.868436182830216" lon="10.789876873662868"><ele>564.3333333333334</ele><time>2026-04-20T09:49:06Z</time></trkpt><trkpt lat="45.86841373186009" lon="10.790133511739144"><ele>552.0</ele><time>2026-04-20T09:49:07Z</time></trkpt><trkpt lat="45.86837095714066" lon="10.790375445693376"><ele>552.0</ele><time>2026-04-20T09:49:08Z</time></trkpt><trkpt lat="45.868316155716165" lon="10.79059969507394"><ele>552.0</ele><time>2026-04-20T09:49:09Z</time></trkpt><trkpt lat="45.86826033396415" lon="10.790809125168686"><ele>552.0</ele><time>2026-04-20T09:49:10Z</time></trkpt><trkpt lat="45.86820488521978" lon="10.791014539509513"><ele>551.8000000000001</ele><time>2026-04-20T09:49:11Z</time></trkpt><trkpt lat="45.86815615851221" lon="10.79119984130278"><ele>551.6</ele><time>2026-04-20T09:49:12Z</time></trkpt><trkpt lat="45.86812124461681" lon="10.79135737958399"><ele>551.4000000000001</ele><time>2026-04-20T09:49:13Z</time></trkpt><trkpt lat="45.868099827467375" lon="10.79149922186393"><ele>551.2</ele><time>2026-04-20T09:49:14Z</time></trkpt><trkpt lat="45.868094475260634" lon="10.791621013243896"><ele>551.0</ele><time>2026-04-20T09:49:15Z</time></trkpt><trkpt lat="45.86808220291955" lon="10.791768117124946"><ele>551.0</ele><time>2026-04-20T09:49:17Z</time></trkpt><trkpt lat="45.86802236136698" lon="10.791854156544504"><ele>551.0</ele><time>2026-04-20T09:49:19Z</time></trkpt><trkpt lat="45.86796203694407" lon="10.791761890986004"><ele>551.0</ele><time>2026-04-20T09:49:21Z</time></trkpt><trkpt lat="45.86796594349343" lon="10.791623813013198"><ele>551.0</ele><time>2026-04-20T09:49:22Z</time></trkpt><trkpt lat="45.867993868053645" lon="10.791470112277807"><ele>551.0</ele><time>2026-04-20T09:49:23Z</time></trkpt><trkpt lat="45.86801223742448" lon="10.791302641888192"><ele>551.0</ele><time>2026-04-20T09:49:24Z</time></trkpt><trkpt lat="45.86803573152151" lon="10.791136174241638"><ele>551.0</ele><time>2026-04-20T09:49:25Z</time></trkpt><trkpt lat="45.868041554023385" lon="10.791001964505682"><ele>551.0</ele><time>2026-04-20T09:49:26Z</time></trkpt><trkpt lat="45.867996568719995" lon="10.790884475854268"><ele>551.0</ele><time>2026-04-20T09:49:27Z</time></trkpt><trkpt lat="45.867925163672915" lon="10.790736560857876"><ele>551.0</ele><time>2026-04-20T09:49:28Z</time></trkpt><trkpt lat="45.86780171498387" lon="10.790634097720517"><ele>551.25</ele><time>2026-04-20T09:49:29Z</time></trkpt><trkpt lat="45.867678282144475" lon="10.79055201668932"><ele>551.5</ele><time>2026-04-20T09:49:30Z</time></trkpt><trkpt lat="45.86753898919064" lon="10.790493507265982"><ele>551.75</ele><time>2026-04-20T09:49:31Z</time></trkpt><trkpt lat="45.867398252362094" lon="10.790446163965157"><ele>552.0</ele><time>2026-04-20T09:49:32Z</time></trkpt><trkpt lat="45.86728548086149" lon="10.790408253833203"><ele>552.0</ele><time>2026-04-20T09:49:33Z</time></trkpt><trkpt lat="45.86718926855727" lon="10.790381445826998"><ele>552.0</ele><time>2026-04-20T09:49:34Z</time></trkpt><trkpt lat="45.86710424457629" lon="10.790394761677348"><ele>552.0</ele><time>2026-04-20T09:49:35Z</time></trkpt><trkpt lat="45.86703196222763" lon="10.790428081594623"><ele>552.0</ele><time>2026-04-20T09:49:36Z</time></trkpt><trkpt lat="45.86699884795979" lon="10.790505985371999"><ele>552.0</ele><time>2026-04-20T09:49:37Z</time></trkpt><trkpt lat="45.86699550152356" lon="10.790626611084987"><ele>552.0</ele><time>2026-04-20T09:49:38Z</time></trkpt><trkpt lat="45.86704192926319" lon="10.790763517956917"><ele>537.6666666666666</ele><time>2026-04-20T09:49:39Z</time></trkpt><trkpt lat="45.86713611477961" lon="10.790928541283705"><ele>523.3333333333333</ele><time>2026-04-20T09:49:40Z</time></trkpt><trkpt lat="45.86723011026275" lon="10.79112955141056"><ele>509.0</ele><time>2026-04-20T09:49:41Z</time></trkpt><trkpt lat="45.86730515555096" lon="10.791326036232956"><ele>509.0</ele><time>2026-04-20T09:49:42Z</time></trkpt><trkpt lat="45.86734436206083" lon="10.791516437095483"><ele>509.0</ele><time>2026-04-20T09:49:43Z</time></trkpt><trkpt lat="45.8673318488841" lon="10.791726591375976"><ele>509.0</ele><time>2026-04-20T09:49:44Z</time></trkpt><trkpt lat="45.86731650469189" lon="10.79194700281341"><ele>509.0</ele><time>2026-04-20T09:49:45Z</time></trkpt><trkpt lat="45.867277008687026" lon="10.792169776843858"><ele>511.0</ele><time>2026-04-20T09:49:46Z</time></trkpt><trkpt lat="45.86722814413816" lon="10.792361424776848"><ele>513.0</ele><time>2026-04-20T09:49:47Z</time></trkpt><trkpt lat="45.86713607517962" lon="10.792530524464347"><ele>515.0</ele><time>2026-04-20T09:49:48Z</time></trkpt><trkpt lat="45.8670219824841" lon="10.7926867190945"><ele>517.0</ele><time>2026-04-20T09:49:49Z</time></trkpt><trkpt lat="45.866909092985956" lon="10.792817603015276"><ele>517.0</ele><time>2026-04-20T09:49:50Z</time></trkpt><trkpt lat="45.86682142787457" lon="10.792944596648965"><ele>517.0</ele><time>2026-04-20T09:49:51Z</time></trkpt><trkpt lat="45.86675564504685" lon="10.793111563893174"><ele>517.0</ele><time>2026-04-20T09:49:52Z</time></trkpt><trkpt lat="45.86669857302595" lon="10.793322974011192"><ele>517.0</ele><time>2026-04-20T09:49:53Z</time></trkpt><trkpt lat="45.86662215040632" lon="10.793550512124712"><ele>508.6666666666667</ele><time>2026-04-20T09:49:54Z</time></trkpt><trkpt lat="45.86652650072941" lon="10.793770904085909"><ele>500.33333333333337</ele><time>2026-04-20T09:49:55Z</time></trkpt><trkpt lat="45.86642838360609" lon="10.793992223865803"><ele>492.0</ele><time>2026-04-20T09:49:56Z</time></trkpt><trkpt lat="45.86634144353768" lon="10.794187282026801"><ele>492.25</ele><time>2026-04-20T09:49:57Z</time></trkpt><trkpt lat="45.86626865529197" lon="10.794372824574127"><ele>492.5</ele><time>2026-04-20T09:49:58Z</time></trkpt><trkpt lat="45.86621927087529" lon="10.794554757098123"><ele>492.75</ele><time>2026-04-20T09:49:59Z</time></trkpt><trkpt lat="45.86618969674495" lon="10.794743780979374"><ele>493.0</ele><time>2026-04-20T09:50:00Z</time></trkpt><trkpt lat="45.866192298671386" lon="10.79494108616908"><ele>493.0</ele><time>2026-04-20T09:50:01Z</time></trkpt><trkpt lat="45.86621918568163" lon="10.795164278824146"><ele>493.0</ele><time>2026-04-20T09:50:02Z</time></trkpt><trkpt lat="45.86626051376664" lon="10.795409253605015"><ele>493.0</ele><time>2026-04-20T09:50:03Z</time></trkpt><trkpt lat="45.86629942188271" lon="10.795649002227655"><ele>495.0</ele><time>2026-04-20T09:50:04Z</time></trkpt><trkpt lat="45.86633591784213" lon="10.795864890532588"><ele>497.0</ele><time>2026-04-20T09:50:05Z</time></trkpt><trkpt lat="45.86637341855265" lon="10.796067795746861"><ele>499.0</ele><time>2026-04-20T09:50:06Z</time></trkpt><trkpt lat="45.86640294139961" lon="10.796227583685656"><ele>501.0</ele><time>2026-04-20T09:50:07Z</time></trkpt><trkpt lat="45.866430392735175" lon="10.796365737371245"><ele>501.0</ele><time>2026-04-20T09:50:08Z</time></trkpt><trkpt lat="45.86645438301247" lon="10.796483769634918"><ele>501.0</ele><time>2026-04-20T09:50:09Z</time></trkpt><trkpt lat="45.86646136419732" lon="10.79657388463591"><ele>501.0</ele><time>2026-04-20T09:50:10Z</time></trkpt><trkpt lat="45.866429548595576" lon="10.796651947588918"><ele>501.0</ele><time>2026-04-20T09:50:11Z</time></trkpt><trkpt lat="45.86637079357391" lon="10.796689076642714"><ele>501.0</ele><time>2026-04-20T09:50:12Z</time></trkpt><trkpt lat="45.86630122982203" lon="10.796628744294912"><ele>501.0</ele><time>2026-04-20T09:50:13Z</time></trkpt><trkpt lat="45.8662598164973" lon="10.796471428297176"><ele>501.0</ele><time>2026-04-20T09:50:14Z</time></trkpt><trkpt lat="45.86623243248626" lon="10.796294677770504"><ele>501.0</ele><time>2026-04-20T09:50:15Z</time></trkpt><trkpt lat="45.86618917616677" lon="10.796122938011667"><ele>501.0</ele><time>2026-04-20T09:50:16Z</time></trkpt><trkpt lat="45.86612816631089" lon="10.79594246604214"><ele>501.0</ele><time>2026-04-20T09:50:17Z</time></trkpt><trkpt lat="45.86607369015656" lon="10.795831963708928"><ele>501.6</ele><time>2026-04-20T09:50:18Z</time></trkpt><trkpt lat="45.86601696007915" lon="10.795733331660395"><ele>502.20000000000005</ele><time>2026-04-20T09:50:19Z</time></trkpt><trkpt lat="45.86592469829357" lon="10.795605033962774"><ele>502.79999999999995</ele><time>2026-04-20T09:50:21Z</time></trkpt><trkpt lat="45.865847683705084" lon="10.795608848078711"><ele>503.4</ele><time>2026-04-20T09:50:22Z</time></trkpt><trkpt lat="45.86576536622523" lon="10.795672724793107"><ele>504.0</ele><time>2026-04-20T09:50:23Z</time></trkpt><trkpt lat="45.86577104340168" lon="10.795846646746512"><ele>503.25</ele><time>2026-04-20T09:50:24Z</time></trkpt><trkpt lat="45.865809834819295" lon="10.79603822950399"><ele>502.5</ele><time>2026-04-20T09:50:25Z</time></trkpt><trkpt lat="45.86586846238291" lon="10.796213317515454"><ele>501.75</ele><time>2026-04-20T09:50:26Z</time></trkpt><trkpt lat="45.86591882891889" lon="10.796389933393922"><ele>501.0</ele><time>2026-04-20T09:50:27Z</time></trkpt><trkpt lat="45.86595718589783" lon="10.796593110066164"><ele>501.0</ele><time>2026-04-20T09:50:28Z</time></trkpt><trkpt lat="45.86597432811765" lon="10.796827553501146"><ele>501.0</ele><time>2026-04-20T09:50:29Z</time></trkpt><trkpt lat="45.86590178386865" lon="10.797050698906379"><ele>501.0</ele><time>2026-04-20T09:50:30Z</time></trkpt><trkpt lat="45.86583688637728" lon="10.797311924096492"><ele>504.66666666666663</ele><time>2026-04-20T09:50:31Z</time></trkpt><trkpt lat="45.86578496436855" lon="10.797552337203875"><ele>508.3333333333333</ele><time>2026-04-20T09:50:32Z</time></trkpt><trkpt lat="45.86574240813761" lon="10.797799144905488"><ele>512.0</ele><time>2026-04-20T09:50:33Z</time></trkpt><trkpt lat="45.86570367008757" lon="10.79804521182126"><ele>512.0</ele><time>2026-04-20T09:50:34Z</time></trkpt><trkpt lat="45.86567075939497" lon="10.798306423458778"><ele>512.0</ele><time>2026-04-20T09:50:35Z</time></trkpt><trkpt lat="45.86562532991098" lon="10.79855238856231"><ele>512.0</ele><time>2026-04-20T09:50:36Z</time></trkpt><trkpt lat="45.86557967930722" lon="10.79878044986459"><ele>510.3333333333333</ele><time>2026-04-20T09:50:37Z</time></trkpt><trkpt lat="45.86554940701092" lon="10.798987846178251"><ele>508.66666666666663</ele><time>2026-04-20T09:50:38Z</time></trkpt><trkpt lat="45.86554462400626" lon="10.799230829058525"><ele>507.0</ele><time>2026-04-20T09:50:39Z</time></trkpt><trkpt lat="45.86555741505188" lon="10.799469634236955"><ele>507.0</ele><time>2026-04-20T09:50:40Z</time></trkpt><trkpt lat="45.86557734724237" lon="10.799675228648207"><ele>507.0</ele><time>2026-04-20T09:50:41Z</time></trkpt><trkpt lat="45.865609526498204" lon="10.799884273384368"><ele>507.0</ele><time>2026-04-20T09:50:42Z</time></trkpt><trkpt lat="45.865626822345824" lon="10.800116614480949"><ele>503.25</ele><time>2026-04-20T09:50:43Z</time></trkpt><trkpt lat="45.86563741114725" lon="10.800322227387019"><ele>499.5</ele><time>2026-04-20T09:50:44Z</time></trkpt><trkpt lat="45.86563227433815" lon="10.800526144791563"><ele>495.75</ele><time>2026-04-20T09:50:45Z</time></trkpt><trkpt lat="45.865601212055104" lon="10.800752744526445"><ele>492.0</ele><time>2026-04-20T09:50:46Z</time></trkpt><trkpt lat="45.86557496305639" lon="10.800971382138792"><ele>492.0</ele><time>2026-04-20T09:50:47Z</time></trkpt><trkpt lat="45.86555828061474" lon="10.801186199933655"><ele>492.0</ele><time>2026-04-20T09:50:48Z</time></trkpt><trkpt lat="45.86554542761955" lon="10.801378704602449"><ele>492.0</ele><time>2026-04-20T09:50:49Z</time></trkpt><trkpt lat="45.865545857785136" lon="10.801586696480662"><ele>492.0</ele><time>2026-04-20T09:50:50Z</time></trkpt><trkpt lat="45.865558146123654" lon="10.801773408840832"><ele>492.0</ele><time>2026-04-20T09:50:51Z</time></trkpt><trkpt lat="45.86556711975034" lon="10.80193465638243"><ele>492.0</ele><time>2026-04-20T09:50:52Z</time></trkpt><trkpt lat="45.86556917613508" lon="10.802125664628901"><ele>492.0</ele><time>2026-04-20T09:50:53Z</time></trkpt><trkpt lat="45.86549483478759" lon="10.802319544843016"><ele>492.0</ele><time>2026-04-20T09:50:54Z</time></trkpt><trkpt lat="45.8654132522815" lon="10.802510892501395"><ele>492.0</ele><time>2026-04-20T09:50:55Z</time></trkpt><trkpt lat="45.86533483641683" lon="10.802698647063533"><ele>492.0</ele><time>2026-04-20T09:50:56Z</time></trkpt><trkpt lat="45.86527199935325" lon="10.802885268427724"><ele>492.0</ele><time>2026-04-20T09:50:57Z</time></trkpt><trkpt lat="45.865203600583726" lon="10.803042771474958"><ele>492.0</ele><time>2026-04-20T09:50:58Z</time></trkpt><trkpt lat="45.86514394668102" lon="10.803233241374349"><ele>492.0</ele><time>2026-04-20T09:50:59Z</time></trkpt><trkpt lat="45.86508324701387" lon="10.803403595242129"><ele>492.0</ele><time>2026-04-20T09:51:00Z</time></trkpt><trkpt lat="45.8650340124036" lon="10.803554379463211"><ele>492.0</ele><time>2026-04-20T09:51:01Z</time></trkpt><trkpt lat="45.864985146907465" lon="10.803706934809403"><ele>492.0</ele><time>2026-04-20T09:51:02Z</time></trkpt><trkpt lat="45.86494790519315" lon="10.803842322162875"><ele>492.0</ele><time>2026-04-20T09:51:03Z</time></trkpt><trkpt lat="45.86491242769911" lon="10.80399143484038"><ele>492.0</ele><time>2026-04-20T09:51:04Z</time></trkpt><trkpt lat="45.8649059721545" lon="10.804160207727874"><ele>492.0</ele><time>2026-04-20T09:51:05Z</time></trkpt><trkpt lat="45.86490424050688" lon="10.804345708771658"><ele>492.0</ele><time>2026-04-20T09:51:06Z</time></trkpt><trkpt lat="45.86490447796379" lon="10.8045086489359"><ele>492.0</ele><time>2026-04-20T09:51:07Z</time></trkpt><trkpt lat="45.86490918795902" lon="10.804683549193179"><ele>492.0</ele><time>2026-04-20T09:51:08Z</time></trkpt><trkpt lat="45.864925275695605" lon="10.804870179650157"><ele>492.0</ele><time>2026-04-20T09:51:09Z</time></trkpt><trkpt lat="45.864956946879424" lon="10.80505552052961"><ele>492.0</ele><time>2026-04-20T09:51:10Z</time></trkpt><trkpt lat="45.86499289308192" lon="10.805240904444599"><ele>492.0</ele><time>2026-04-20T09:51:11Z</time></trkpt><trkpt lat="45.86501380631147" lon="10.805422191915364"><ele>492.0</ele><time>2026-04-20T09:51:12Z</time></trkpt><trkpt lat="45.865048872529044" lon="10.805628220692654"><ele>492.0</ele><time>2026-04-20T09:51:13Z</time></trkpt><trkpt lat="45.865053727066986" lon="10.805850549193897"><ele>492.0</ele><time>2026-04-20T09:51:14Z</time></trkpt><trkpt lat="45.86505498536504" lon="10.806041695015145"><ele>492.0</ele><time>2026-04-20T09:51:15Z</time></trkpt><trkpt lat="45.86506301771438" lon="10.806224556617943"><ele>492.0</ele><time>2026-04-20T09:51:16Z</time></trkpt><trkpt lat="45.86506867936659" lon="10.80641785951025"><ele>492.0</ele><time>2026-04-20T09:51:17Z</time></trkpt><trkpt lat="45.86508960439799" lon="10.806618929421798"><ele>492.0</ele><time>2026-04-20T09:51:18Z</time></trkpt><trkpt lat="45.86510368906918" lon="10.806821023917255"><ele>492.0</ele><time>2026-04-20T09:51:19Z</time></trkpt><trkpt lat="45.8651162861205" lon="10.807022986658797"><ele>492.0</ele><time>2026-04-20T09:51:20Z</time></trkpt><trkpt lat="45.86512289295424" lon="10.807222537707588"><ele>492.0</ele><time>2026-04-20T09:51:21Z</time></trkpt><trkpt lat="45.86514939529171" lon="10.807443214915068"><ele>492.0</ele><time>2026-04-20T09:51:22Z</time></trkpt><trkpt lat="45.86516308900312" lon="10.80764991544608"><ele>492.0</ele><time>2026-04-20T09:51:23Z</time></trkpt><trkpt lat="45.86513047446313" lon="10.807860127024478"><ele>492.0</ele><time>2026-04-20T09:51:24Z</time></trkpt><trkpt lat="45.86507174768515" lon="10.808059302423846"><ele>492.0</ele><time>2026-04-20T09:51:25Z</time></trkpt><trkpt lat="45.864991863785136" lon="10.80825666786961"><ele>492.0</ele><time>2026-04-20T09:51:26Z</time></trkpt><trkpt lat="45.86491426862131" lon="10.80844177815616"><ele>492.0</ele><time>2026-04-20T09:51:27Z</time></trkpt><trkpt lat="45.86487455391933" lon="10.808645210045533"><ele>492.0</ele><time>2026-04-20T09:51:28Z</time></trkpt><trkpt lat="45.86485035915487" lon="10.808842628155551"><ele>492.0</ele><time>2026-04-20T09:51:29Z</time></trkpt><trkpt lat="45.86481823249593" lon="10.80904147748735"><ele>492.0</ele><time>2026-04-20T09:51:30Z</time></trkpt><trkpt lat="45.86476534792781" lon="10.80925418931319"><ele>492.0</ele><time>2026-04-20T09:51:31Z</time></trkpt><trkpt lat="45.86469143396734" lon="10.80944314283674"><ele>492.0</ele><time>2026-04-20T09:51:32Z</time></trkpt><trkpt lat="45.86461000083621" lon="10.809615453062086"><ele>492.0</ele><time>2026-04-20T09:51:33Z</time></trkpt><trkpt lat="45.86454308945143" lon="10.809793051439481"><ele>492.0</ele><time>2026-04-20T09:51:34Z</time></trkpt><trkpt lat="45.86449891655404" lon="10.80999028665739"><ele>492.0</ele><time>2026-04-20T09:51:35Z</time></trkpt><trkpt lat="45.864470398943126" lon="10.810193610155402"><ele>492.0</ele><time>2026-04-20T09:51:36Z</time></trkpt><trkpt lat="45.86446857618851" lon="10.810407748035832"><ele>468.33333333333337</ele><time>2026-04-20T09:51:37Z</time></trkpt><trkpt lat="45.864483658308934" lon="10.81064474038503"><ele>444.6666666666667</ele><time>2026-04-20T09:51:38Z</time></trkpt><trkpt lat="45.86450409257744" lon="10.810876771106974"><ele>421.0</ele><time>2026-04-20T09:51:39Z</time></trkpt><trkpt lat="45.864535862713254" lon="10.811086343533423"><ele>421.0</ele><time>2026-04-20T09:51:40Z</time></trkpt><trkpt lat="45.86456662301149" lon="10.811294202105264"><ele>421.0</ele><time>2026-04-20T09:51:41Z</time></trkpt><trkpt lat="45.86459086524439" lon="10.811511865598243"><ele>421.0</ele><time>2026-04-20T09:51:42Z</time></trkpt><trkpt lat="45.86458648498023" lon="10.811765785492577"><ele>421.33333333333337</ele><time>2026-04-20T09:51:43Z</time></trkpt><trkpt lat="45.86455996241845" lon="10.812001277573874"><ele>421.66666666666663</ele><time>2026-04-20T09:51:44Z</time></trkpt><trkpt lat="45.864494961665365" lon="10.812222307347117"><ele>422.0</ele><time>2026-04-20T09:51:45Z</time></trkpt><trkpt lat="45.86447095751663" lon="10.812430141417812"><ele>422.0</ele><time>2026-04-20T09:51:46Z</time></trkpt><trkpt lat="45.864438421984346" lon="10.812651461828278"><ele>422.0</ele><time>2026-04-20T09:51:47Z</time></trkpt><trkpt lat="45.864414924647555" lon="10.812848268493394"><ele>422.0</ele><time>2026-04-20T09:51:48Z</time></trkpt><trkpt lat="45.86442290902296" lon="10.813062016474072"><ele>422.0</ele><time>2026-04-20T09:51:49Z</time></trkpt><trkpt lat="45.86445899702422" lon="10.813294894515906"><ele>416.0</ele><time>2026-04-20T09:51:50Z</time></trkpt><trkpt lat="45.864505494312155" lon="10.813545552361633"><ele>410.0</ele><time>2026-04-20T09:51:51Z</time></trkpt><trkpt lat="45.86456519268254" lon="10.813781986466475"><ele>404.0</ele><time>2026-04-20T09:51:52Z</time></trkpt><trkpt lat="45.86459876421323" lon="10.81403819173111"><ele>404.0</ele><time>2026-04-20T09:51:53Z</time></trkpt><trkpt lat="45.86463769476843" lon="10.814279396966711"><ele>404.0</ele><time>2026-04-20T09:51:54Z</time></trkpt><trkpt lat="45.864660143251804" lon="10.81449062140384"><ele>404.0</ele><time>2026-04-20T09:51:55Z</time></trkpt><trkpt lat="45.86466652109075" lon="10.814699354227233"><ele>404.0</ele><time>2026-04-20T09:51:56Z</time></trkpt><trkpt lat="45.86463669410028" lon="10.814920171025495"><ele>404.0</ele><time>2026-04-20T09:51:57Z</time></trkpt><trkpt lat="45.86457363003519" lon="10.815140933292515"><ele>404.0</ele><time>2026-04-20T09:51:58Z</time></trkpt><trkpt lat="45.86450160086054" lon="10.815342735038794"><ele>404.0</ele><time>2026-04-20T09:51:59Z</time></trkpt><trkpt lat="45.864447339073884" lon="10.81552709400765"><ele>404.0</ele><time>2026-04-20T09:52:00Z</time></trkpt><trkpt lat="45.86443254829137" lon="10.815705169998695"><ele>404.0</ele><time>2026-04-20T09:52:01Z</time></trkpt><trkpt lat="45.86448458016269" lon="10.815885462519583"><ele>404.0</ele><time>2026-04-20T09:52:02Z</time></trkpt><trkpt lat="45.864535873377875" lon="10.816109236258109"><ele>404.0</ele><time>2026-04-20T09:52:03Z</time></trkpt><trkpt lat="45.86461275027261" lon="10.816343428498348"><ele>404.0</ele><time>2026-04-20T09:52:04Z</time></trkpt><trkpt lat="45.864686204052184" lon="10.81655151059028"><ele>404.0</ele><time>2026-04-20T09:52:05Z</time></trkpt><trkpt lat="45.86474976484057" lon="10.816757489253538"><ele>404.0</ele><time>2026-04-20T09:52:06Z</time></trkpt><trkpt lat="45.864818981938726" lon="10.816981443159515"><ele>404.0</ele><time>2026-04-20T09:52:07Z</time></trkpt><trkpt lat="45.86489590265637" lon="10.817202406989278"><ele>404.0</ele><time>2026-04-20T09:52:08Z</time></trkpt><trkpt lat="45.864955309670904" lon="10.817392814835026"><ele>414.0</ele><time>2026-04-20T09:52:09Z</time></trkpt><trkpt lat="45.86502449179839" lon="10.817591616726244"><ele>424.0</ele><time>2026-04-20T09:52:10Z</time></trkpt><trkpt lat="45.86508988599467" lon="10.817805549991892"><ele>434.0</ele><time>2026-04-20T09:52:11Z</time></trkpt><trkpt lat="45.86515669977217" lon="10.817994265548181"><ele>434.0</ele><time>2026-04-20T09:52:12Z</time></trkpt><trkpt lat="45.865238954860864" lon="10.818171735324308"><ele>434.0</ele><time>2026-04-20T09:52:13Z</time></trkpt><trkpt lat="45.86534352949586" lon="10.818322732999414"><ele>434.0</ele><time>2026-04-20T09:52:14Z</time></trkpt><trkpt lat="45.86546584950226" lon="10.818460154998565"><ele>422.3333333333333</ele><time>2026-04-20T09:52:15Z</time></trkpt><trkpt lat="45.86561741711593" lon="10.81855255644271"><ele>410.66666666666663</ele><time>2026-04-20T09:52:16Z</time></trkpt><trkpt lat="45.86580235322096" lon="10.81862024416776"><ele>399.0</ele><time>2026-04-20T09:52:17Z</time></trkpt><trkpt lat="45.86599347118126" lon="10.81868494570911"><ele>399.0</ele><time>2026-04-20T09:52:18Z</time></trkpt><trkpt lat="45.86615877091714" lon="10.818766313209633"><ele>399.0</ele><time>2026-04-20T09:52:19Z</time></trkpt><trkpt lat="45.866321527532705" lon="10.818853305094153"><ele>399.0</ele><time>2026-04-20T09:52:20Z</time></trkpt><trkpt lat="45.866507500129764" lon="10.81892837490412"><ele>399.0</ele><time>2026-04-20T09:52:21Z</time></trkpt><trkpt lat="45.86668711391299" lon="10.819011462124047"><ele>399.0</ele><time>2026-04-20T09:52:22Z</time></trkpt><trkpt lat="45.86871681629619" lon="10.819805272145985"><ele>399.0</ele><time>2026-04-20T09:52:27.557Z</time></trkpt><trkpt lat="45.86932023809491" lon="10.820071288795077"><ele>852.0</ele><time>2026-04-20T09:52:28.56Z</time></trkpt><trkpt lat="45.8699208862932" lon="10.820336161026491"><ele>914.0</ele><time>2026-04-20T09:52:29.558Z</time></trkpt><trkpt lat="45.87052541842373" lon="10.820602745983926"><ele>914.0</ele><time>2026-04-20T09:52:30.562Z</time></trkpt><trkpt lat="45.87112729202805" lon="10.820868158591601"><ele>914.0</ele><time>2026-04-20T09:52:31.562Z</time></trkpt><trkpt lat="45.8717290013265" lon="10.82113349874412"><ele>914.0</ele><time>2026-04-20T09:52:32.562Z</time></trkpt><trkpt lat="45.87232895972718" lon="10.82139806679043"><ele>538.0</ele><time>2026-04-20T09:52:33.558Z</time></trkpt><trkpt lat="45.8726354" lon="10.8215332"><ele>162.0</ele><time>2026-04-20T09:52:34.561Z</time></trkpt><trkpt lat="45.90216436181588" lon="10.834198858658697"><ele>124.0</ele><time>2026-04-20T09:56:11.691Z</time></trkpt><trkpt lat="45.900653200220674" lon="10.834499845239451"><ele>124.0</ele><time>2026-04-20T09:56:23.999Z</time></trkpt><trkpt lat="45.900347497361665" lon="10.834563882361108"><ele>124.0</ele><time>2026-04-20T09:56:24.999Z</time></trkpt><trkpt lat="45.90020691367671" lon="10.834490232759851"><ele>123.66666666666667</ele><time>2026-04-20T09:56:25.999Z</time></trkpt><trkpt lat="45.90007240492535" lon="10.834425048552413"><ele>123.33333333333334</ele><time>2026-04-20T09:56:26.999Z</time></trkpt><trkpt lat="45.8999192054882" lon="10.834400812612607"><ele>123.0</ele><time>2026-04-20T09:56:27.999Z</time></trkpt><trkpt lat="45.899762291911976" lon="10.834414120485897"><ele>123.0</ele><time>2026-04-20T09:56:29Z</time></trkpt><trkpt lat="45.8996290433749" lon="10.834436355930466"><ele>123.0</ele><time>2026-04-20T09:56:29.999Z</time></trkpt><trkpt lat="45.89950359658695" lon="10.834443261235297"><ele>123.0</ele><time>2026-04-20T09:56:30.999Z</time></trkpt><trkpt lat="45.89936945712831" lon="10.834423596363987"><ele>123.0</ele><time>2026-04-20T09:56:31.999Z</time></trkpt><trkpt lat="45.899250554019524" lon="10.834356893293673"><ele>128.75</ele><time>2026-04-20T09:56:32.999Z</time></trkpt><trkpt lat="45.899129787786975" lon="10.83426361524147"><ele>134.5</ele><time>2026-04-20T09:56:33.999Z</time></trkpt><trkpt lat="45.899002753771796" lon="10.83417090628413"><ele>140.25</ele><time>2026-04-20T09:56:34.999Z</time></trkpt><trkpt lat="45.898875007676985" lon="10.834114989174576"><ele>146.0</ele><time>2026-04-20T09:56:35.999Z</time></trkpt><trkpt lat="45.8987515680694" lon="10.834106103809846"><ele>146.0</ele><time>2026-04-20T09:56:36.999Z</time></trkpt><trkpt lat="45.898636900317626" lon="10.834162827203976"><ele>146.0</ele><time>2026-04-20T09:56:37.999Z</time></trkpt><trkpt lat="45.89853243575472" lon="10.83423667284213"><ele>146.0</ele><time>2026-04-20T09:56:38.999Z</time></trkpt><trkpt lat="45.89844669802911" lon="10.834334221112044"><ele>146.0</ele><time>2026-04-20T09:56:39.999Z</time></trkpt><trkpt lat="45.89837340051891" lon="10.834418644242657"><ele>146.0</ele><time>2026-04-20T09:56:40.999Z</time></trkpt><trkpt lat="45.89830144273007" lon="10.834515815942824"><ele>142.0</ele><time>2026-04-20T09:56:41.999Z</time></trkpt><trkpt lat="45.89826919660807" lon="10.834608903411754"><ele>138.0</ele><time>2026-04-20T09:56:42.999Z</time></trkpt><trkpt lat="45.89818953152273" lon="10.834706563728341"><ele>134.0</ele><time>2026-04-20T09:56:43.999Z</time></trkpt><trkpt lat="45.898106290692695" lon="10.834786961394975"><ele>130.0</ele><time>2026-04-20T09:56:44.999Z</time></trkpt><trkpt lat="45.8979974559343" lon="10.834861758543827"><ele>126.0</ele><time>2026-04-20T09:56:45.999Z</time></trkpt><trkpt lat="45.897873136497736" lon="10.834921526469033"><ele>126.0</ele><time>2026-04-20T09:56:46.999Z</time></trkpt><trkpt lat="45.89774665917281" lon="10.834968724830643"><ele>126.0</ele><time>2026-04-20T09:56:47.999Z</time></trkpt><trkpt lat="45.897632581561105" lon="10.835019337974996"><ele>126.0</ele><time>2026-04-20T09:56:48.999Z</time></trkpt><trkpt lat="45.897523408759355" lon="10.835069951049523"><ele>126.0</ele><time>2026-04-20T09:56:49.999Z</time></trkpt><trkpt lat="45.89740573510087" lon="10.835102389755576"><ele>127.0</ele><time>2026-04-20T09:56:50.999Z</time></trkpt><trkpt lat="45.897308642475835" lon="10.835136265691343"><ele>128.0</ele><time>2026-04-20T09:56:51.999Z</time></trkpt><trkpt lat="45.89718989604866" lon="10.835183718024366"><ele>129.0</ele><time>2026-04-20T09:56:52.999Z</time></trkpt><trkpt lat="45.89707465788073" lon="10.835241915318061"><ele>130.0</ele><time>2026-04-20T09:56:53.999Z</time></trkpt><trkpt lat="45.89696757613496" lon="10.835323718573864"><ele>125.5</ele><time>2026-04-20T09:56:54.999Z</time></trkpt><trkpt lat="45.89687061236857" lon="10.835422132439035"><ele>121.0</ele><time>2026-04-20T09:56:55.999Z</time></trkpt><trkpt lat="45.89679202894746" lon="10.835532853691372"><ele>116.5</ele><time>2026-04-20T09:56:56.999Z</time></trkpt><trkpt lat="45.89671829547298" lon="10.835674518310798"><ele>112.0</ele><time>2026-04-20T09:56:57.999Z</time></trkpt><trkpt lat="45.896647876" lon="10.83583653817044"><ele>110.5</ele><time>2026-04-20T09:56:58.999Z</time></trkpt><trkpt lat="45.896599111329" lon="10.836036322257675"><ele>109.0</ele><time>2026-04-20T09:56:59.999Z</time></trkpt><trkpt lat="45.89657512463784" lon="10.836236196515637"><ele>107.5</ele><time>2026-04-20T09:57:00.999Z</time></trkpt><trkpt lat="45.896558442915605" lon="10.836432491492113"><ele>106.0</ele><time>2026-04-20T09:57:01.999Z</time></trkpt><trkpt lat="45.89654864528582" lon="10.836633832191445"><ele>105.25</ele><time>2026-04-20T09:57:02.999Z</time></trkpt><trkpt lat="45.89652954269373" lon="10.836806639634444"><ele>104.5</ele><time>2026-04-20T09:57:03.999Z</time></trkpt><trkpt lat="45.89651091447221" lon="10.836974319072928"><ele>103.75</ele><time>2026-04-20T09:57:04.999Z</time></trkpt><trkpt lat="45.89647669929738" lon="10.837130965069987"><ele>103.0</ele><time>2026-04-20T09:57:05.999Z</time></trkpt><trkpt lat="45.8964376760573" lon="10.837273994363184"><ele>103.00000000000001</ele><time>2026-04-20T09:57:06.999Z</time></trkpt><trkpt lat="45.89639076033058" lon="10.837395114060566"><ele>103.0</ele><time>2026-04-20T09:57:07.999Z</time></trkpt><trkpt lat="45.89634602314494" lon="10.837495893517568"><ele>103.0</ele><time>2026-04-20T09:57:08.999Z</time></trkpt><trkpt lat="45.89631060265379" lon="10.837630361029095"><ele>103.0</ele><time>2026-04-20T09:57:10.999Z</time></trkpt><trkpt lat="45.89629884712748" lon="10.837732293070767"><ele>103.00000000000001</ele><time>2026-04-20T09:57:14.999Z</time></trkpt><trkpt lat="45.89630092014437" lon="10.837847060380286"><ele>103.0</ele><time>2026-04-20T09:57:16.999Z</time></trkpt><trkpt lat="45.8962936342977" lon="10.837939497854292"><ele>103.00000000000001</ele><time>2026-04-20T09:57:17.999Z</time></trkpt><trkpt lat="45.89625245824" lon="10.838013608137777"><ele>103.0</ele><time>2026-04-20T09:57:18.999Z</time></trkpt><trkpt lat="45.89619688689407" lon="10.83806690924456"><ele>103.0</ele><time>2026-04-20T09:57:19.999Z</time></trkpt><trkpt lat="45.896112262278685" lon="10.838089914886956"><ele>103.0</ele><time>2026-04-20T09:57:20.999Z</time></trkpt><trkpt lat="45.89602186022802" lon="10.838120577718284"><ele>103.00000000000001</ele><time>2026-04-20T09:57:21.999Z</time></trkpt><trkpt lat="45.89591442019919" lon="10.838173875188083"><ele>103.0</ele><time>2026-04-20T09:57:22.999Z</time></trkpt><trkpt lat="45.89579737385075" lon="10.838212970781186"><ele>103.0</ele><time>2026-04-20T09:57:23.999Z</time></trkpt><trkpt lat="45.89567113516318" lon="10.838264912663698"><ele>103.0</ele><time>2026-04-20T09:57:24.999Z</time></trkpt><trkpt lat="45.895547337494435" lon="10.838311989249364"><ele>103.0</ele><time>2026-04-20T09:57:25.999Z</time></trkpt><trkpt lat="45.89540840661624" lon="10.838364166566647"><ele>103.0</ele><time>2026-04-20T09:57:26.999Z</time></trkpt><trkpt lat="45.89525583089045" lon="10.83840031461685"><ele>103.0</ele><time>2026-04-20T09:57:27.999Z</time></trkpt><trkpt lat="45.89509454397924" lon="10.838417853833558"><ele>103.0</ele><time>2026-04-20T09:57:28.999Z</time></trkpt><trkpt lat="45.89492895031597" lon="10.83840995866884"><ele>103.0</ele><time>2026-04-20T09:57:29.999Z</time></trkpt><trkpt lat="45.89476624133078" lon="10.838365335660592"><ele>102.5</ele><time>2026-04-20T09:57:30.999Z</time></trkpt><trkpt lat="45.89461368068782" lon="10.838333247694923"><ele>102.0</ele><time>2026-04-20T09:57:31.999Z</time></trkpt><trkpt lat="45.89447494649838" lon="10.838304026298902"><ele>101.5</ele><time>2026-04-20T09:57:32.999Z</time></trkpt><trkpt lat="45.89434442852492" lon="10.838289085547718"><ele>101.0</ele><time>2026-04-20T09:57:33.999Z</time></trkpt><trkpt lat="45.89420309913662" lon="10.838260672356741"><ele>100.0</ele><time>2026-04-20T09:57:34.999Z</time></trkpt><trkpt lat="45.894051808691685" lon="10.838210536287828"><ele>99.0</ele><time>2026-04-20T09:57:35.999Z</time></trkpt><trkpt lat="45.89391097545824" lon="10.838160414908062"><ele>98.0</ele><time>2026-04-20T09:57:36.999Z</time></trkpt><trkpt lat="45.89377128259708" lon="10.838100248232895"><ele>97.0</ele><time>2026-04-20T09:57:37.999Z</time></trkpt><trkpt lat="45.89364066927694" lon="10.838031178036267"><ele>97.0</ele><time>2026-04-20T09:57:38.999Z</time></trkpt><trkpt lat="45.89351187092696" lon="10.837949054186065"><ele>97.0</ele><time>2026-04-20T09:57:39.999Z</time></trkpt><trkpt lat="45.89339398841487" lon="10.837859250214969"><ele>97.0</ele><time>2026-04-20T09:57:40.999Z</time></trkpt><trkpt lat="45.89328369506214" lon="10.837764230821476"><ele>97.0</ele><time>2026-04-20T09:57:41.999Z</time></trkpt><trkpt lat="45.89316862893206" lon="10.837657328075085"><ele>96.0</ele><time>2026-04-20T09:57:42.999Z</time></trkpt><trkpt lat="45.893057504929864" lon="10.837548821426385"><ele>95.0</ele><time>2026-04-20T09:57:43.999Z</time></trkpt><trkpt lat="45.89293233408547" lon="10.837423383152833"><ele>94.0</ele><time>2026-04-20T09:57:45.138Z</time></trkpt><trkpt lat="45.89232160699508" lon="10.836817145403908"><ele>95.66666666666666</ele><time>2026-04-20T09:57:47.999Z</time></trkpt><trkpt lat="45.89217497204383" lon="10.836669119362561"><ele>97.33333333333333</ele><time>2026-04-20T09:57:48.999Z</time></trkpt><trkpt lat="45.892014528938134" lon="10.836508325205148"><ele>99.0</ele><time>2026-04-20T09:57:49.999Z</time></trkpt><trkpt lat="45.89185944498588" lon="10.836352901359364"><ele>102.0</ele><time>2026-04-20T09:57:50.999Z</time></trkpt><trkpt lat="45.891708447362475" lon="10.836201574139489"><ele>105.0</ele><time>2026-04-20T09:57:51.999Z</time></trkpt><trkpt lat="45.89040424041754" lon="10.835199358073654"><ele>117.33333333333334</ele><time>2026-04-20T09:58:00.561Z</time></trkpt><trkpt lat="45.89022059134688" lon="10.835177157139638"><ele>129.66666666666669</ele><time>2026-04-20T09:58:01.559Z</time></trkpt><trkpt lat="45.89003772889989" lon="10.835150958890328"><ele>142.0</ele><time>2026-04-20T09:58:02.562Z</time></trkpt><trkpt lat="45.88985515218996" lon="10.835144718055567"><ele>142.0</ele><time>2026-04-20T09:58:03.559Z</time></trkpt><trkpt lat="45.88967215656949" lon="10.835161880370258"><ele>142.0</ele><time>2026-04-20T09:58:04.56Z</time></trkpt><trkpt lat="45.889490390765886" lon="10.835197463698538"><ele>142.0</ele><time>2026-04-20T09:58:05.561Z</time></trkpt><trkpt lat="45.889312858331564" lon="10.835257094974274"><ele>144.33333333333334</ele><time>2026-04-20T09:58:06.557Z</time></trkpt><trkpt lat="45.88913198237294" lon="10.835306939410119"><ele>146.66666666666666</ele><time>2026-04-20T09:58:07.559Z</time></trkpt><trkpt lat="45.88895938107697" lon="10.835398244674828"><ele>149.0</ele><time>2026-04-20T09:58:08.559Z</time></trkpt><trkpt lat="45.88879186006599" lon="10.835510349813424"><ele>149.0</ele><time>2026-04-20T09:58:09.561Z</time></trkpt><trkpt lat="45.888637056649685" lon="10.835660033244364"><ele>149.0</ele><time>2026-04-20T09:58:10.557Z</time></trkpt><trkpt lat="45.888485369388704" lon="10.835811038864048"><ele>149.0</ele><time>2026-04-20T09:58:11.559Z</time></trkpt><trkpt lat="45.88834910221948" lon="10.835995732793009"><ele>142.33333333333331</ele><time>2026-04-20T09:58:12.561Z</time></trkpt><trkpt lat="45.888215844146906" lon="10.836176040361766"><ele>135.66666666666666</ele><time>2026-04-20T09:58:13.559Z</time></trkpt><trkpt lat="45.888099085711154" lon="10.836384295983049"><ele>129.0</ele><time>2026-04-20T09:58:14.562Z</time></trkpt><trkpt lat="45.88800649117033" lon="10.836616080764289"><ele>120.66666666666666</ele><time>2026-04-20T09:58:15.561Z</time></trkpt><trkpt lat="45.88791084187947" lon="10.836839819433825"><ele>112.33333333333333</ele><time>2026-04-20T09:58:16.561Z</time></trkpt><trkpt lat="45.887813993780995" lon="10.837062395783528"><ele>104.0</ele><time>2026-04-20T09:58:17.561Z</time></trkpt><trkpt lat="45.88771421389627" lon="10.837281919495645"><ele>104.0</ele><time>2026-04-20T09:58:18.559Z</time></trkpt><trkpt lat="45.88760369958919" lon="10.837491938625156"><ele>104.0</ele><time>2026-04-20T09:58:19.561Z</time></trkpt><trkpt lat="45.8875285" lon="10.837619"><ele>104.0</ele><time>2026-04-20T09:58:20.561Z</time></trkpt><trkpt lat="45.88726150361568" lon="10.837770588565494"><ele>98.0</ele><time>2026-04-20T09:58:26.999Z</time></trkpt><trkpt lat="45.887119535015096" lon="10.837859739736915"><ele>92.0</ele><time>2026-04-20T09:58:27.999Z</time></trkpt><trkpt lat="45.88697982240223" lon="10.837792143583233"><ele>86.0</ele><time>2026-04-20T09:58:28.999Z</time></trkpt><trkpt lat="45.88681765972142" lon="10.837793056004628"><ele>86.0</ele><time>2026-04-20T09:58:29.999Z</time></trkpt><trkpt lat="45.88668009440674" lon="10.837786402184642"><ele>86.0</ele><time>2026-04-20T09:58:30.999Z</time></trkpt><trkpt lat="45.886561883851755" lon="10.837815938109097"><ele>86.0</ele><time>2026-04-20T09:58:31.999Z</time></trkpt><trkpt lat="45.88643318725078" lon="10.837840655936708"><ele>86.0</ele><time>2026-04-20T09:58:32.999Z</time></trkpt><trkpt lat="45.886319972050416" lon="10.83780232132785"><ele>86.0</ele><time>2026-04-20T09:58:33.999Z</time></trkpt><trkpt lat="45.88619497054669" lon="10.837808815231488"><ele>86.0</ele><time>2026-04-20T09:58:34.999Z</time></trkpt><trkpt lat="45.88607266804896" lon="10.837823360911015"><ele>86.0</ele><time>2026-04-20T09:58:35.999Z</time></trkpt><trkpt lat="45.8859550657931" lon="10.837828202130353"><ele>86.0</ele><time>2026-04-20T09:58:36.999Z</time></trkpt><trkpt lat="45.88582423655866" lon="10.837822517732203"><ele>85.25</ele><time>2026-04-20T09:58:37.999Z</time></trkpt><trkpt lat="45.88567712760205" lon="10.837835022773836"><ele>84.5</ele><time>2026-04-20T09:58:38.999Z</time></trkpt><trkpt lat="45.88553297874096" lon="10.837839581805458"><ele>83.75</ele><time>2026-04-20T09:58:39.999Z</time></trkpt><trkpt lat="45.88539060002823" lon="10.837855401076178"><ele>83.0</ele><time>2026-04-20T09:58:40.999Z</time></trkpt><trkpt lat="45.88523911619717" lon="10.837877277666129"><ele>83.0</ele><time>2026-04-20T09:58:41.999Z</time></trkpt><trkpt lat="45.88510064301178" lon="10.837892373130922"><ele>83.0</ele><time>2026-04-20T09:58:42.999Z</time></trkpt><trkpt lat="45.88497005976749" lon="10.837904176801297"><ele>83.0</ele><time>2026-04-20T09:58:43.999Z</time></trkpt><trkpt lat="45.88485518430955" lon="10.837907213869345"><ele>83.0</ele><time>2026-04-20T09:58:44.999Z</time></trkpt><trkpt lat="45.88474983747007" lon="10.837918352552654"><ele>81.75</ele><time>2026-04-20T09:58:45.999Z</time></trkpt><trkpt lat="45.884639619218355" lon="10.83795099591548"><ele>80.5</ele><time>2026-04-20T09:58:46.999Z</time></trkpt><trkpt lat="45.88451254850958" lon="10.838002966539804"><ele>79.25</ele><time>2026-04-20T09:58:47.999Z</time></trkpt><trkpt lat="45.884404561588376" lon="10.838079029529874"><ele>78.0</ele><time>2026-04-20T09:58:48.999Z</time></trkpt><trkpt lat="45.884317433831235" lon="10.838183802285753"><ele>77.5</ele><time>2026-04-20T09:58:49.999Z</time></trkpt><trkpt lat="45.88421311959286" lon="10.838264011691106"><ele>77.0</ele><time>2026-04-20T09:58:50.999Z</time></trkpt><trkpt lat="45.884101134415616" lon="10.838367128208954"><ele>76.5</ele><time>2026-04-20T09:58:51.999Z</time></trkpt><trkpt lat="45.88399005249657" lon="10.83845393658539"><ele>76.0</ele><time>2026-04-20T09:58:52.999Z</time></trkpt><trkpt lat="45.88389285021469" lon="10.838530055229269"><ele>74.6</ele><time>2026-04-20T09:58:53.999Z</time></trkpt><trkpt lat="45.88379805507056" lon="10.838583330094337"><ele>73.19999999999999</ele><time>2026-04-20T09:58:54.999Z</time></trkpt><trkpt lat="45.883688926416504" lon="10.83860978591988"><ele>71.80000000000001</ele><time>2026-04-20T09:58:55.999Z</time></trkpt><trkpt lat="45.883577104450026" lon="10.838586762002237"><ele>70.4</ele><time>2026-04-20T09:58:56.999Z</time></trkpt><trkpt lat="45.88347417257514" lon="10.838553193025987"><ele>69.0</ele><time>2026-04-20T09:58:57.999Z</time></trkpt><trkpt lat="45.88338206939336" lon="10.838525203233479"><ele>68.4</ele><time>2026-04-20T09:58:58.999Z</time></trkpt><trkpt lat="45.88328029018158" lon="10.838498463664871"><ele>67.80000000000001</ele><time>2026-04-20T09:58:59.999Z</time></trkpt><trkpt lat="45.88318908368692" lon="10.838459234266955"><ele>67.19999999999999</ele><time>2026-04-20T09:59:00.999Z</time></trkpt><trkpt lat="45.883110031902426" lon="10.838446957919938"><ele>66.6</ele><time>2026-04-20T09:59:01.999Z</time></trkpt><trkpt lat="45.88302709498615" lon="10.83841333638456"><ele>66.0</ele><time>2026-04-20T09:59:02.999Z</time></trkpt><trkpt lat="45.882947428494795" lon="10.838369703551269"><ele>67.75</ele><time>2026-04-20T09:59:03.999Z</time></trkpt><trkpt lat="45.88284434876063" lon="10.838354319116247"><ele>69.5</ele><time>2026-04-20T09:59:04.999Z</time></trkpt><trkpt lat="45.882753039309726" lon="10.83826263701064"><ele>71.25</ele><time>2026-04-20T09:59:05.999Z</time></trkpt><trkpt lat="45.88264032558892" lon="10.838232984357525"><ele>73.0</ele><time>2026-04-20T09:59:06.999Z</time></trkpt><trkpt lat="45.88251760491913" lon="10.83821368128131"><ele>73.0</ele><time>2026-04-20T09:59:07.999Z</time></trkpt><trkpt lat="45.882405541923255" lon="10.838195650921794"><ele>73.0</ele><time>2026-04-20T09:59:08.999Z</time></trkpt><trkpt lat="45.882304522541965" lon="10.838168250220537"><ele>73.0</ele><time>2026-04-20T09:59:09.999Z</time></trkpt><trkpt lat="45.882178403166186" lon="10.83814484364944"><ele>73.0</ele><time>2026-04-20T09:59:10.999Z</time></trkpt><trkpt lat="45.882046401704656" lon="10.838147918593311"><ele>73.0</ele><time>2026-04-20T09:59:11.999Z</time></trkpt><trkpt lat="45.881917811994406" lon="10.83813654324294"><ele>73.0</ele><time>2026-04-20T09:59:12.999Z</time></trkpt><trkpt lat="45.88178368436502" lon="10.838123384070697"><ele>73.0</ele><time>2026-04-20T09:59:13.999Z</time></trkpt><trkpt lat="45.881652010659856" lon="10.83809234871778"><ele>73.0</ele><time>2026-04-20T09:59:14.999Z</time></trkpt><trkpt lat="45.88153240813829" lon="10.838058519874588"><ele>74.66666666666666</ele><time>2026-04-20T09:59:15.999Z</time></trkpt><trkpt lat="45.88138181487087" lon="10.838051488138492"><ele>76.33333333333333</ele><time>2026-04-20T09:59:16.999Z</time></trkpt><trkpt lat="45.88124236846823" lon="10.838014423239114"><ele>78.0</ele><time>2026-04-20T09:59:17.999Z</time></trkpt><trkpt lat="45.881083728406715" lon="10.837995570146434"><ele>78.0</ele><time>2026-04-20T09:59:18.999Z</time></trkpt><trkpt lat="45.88093647284396" lon="10.83797326270576"><ele>78.0</ele><time>2026-04-20T09:59:19.999Z</time></trkpt><trkpt lat="45.88078356352419" lon="10.837951409715"><ele>78.0</ele><time>2026-04-20T09:59:20.999Z</time></trkpt><trkpt lat="45.8806404708646" lon="10.837924072622872"><ele>78.0</ele><time>2026-04-20T09:59:21.999Z</time></trkpt><trkpt lat="45.880489461322895" lon="10.837896674464856"><ele>75.0</ele><time>2026-04-20T09:59:22.999Z</time></trkpt><trkpt lat="45.88033687192323" lon="10.837852934868769"><ele>72.0</ele><time>2026-04-20T09:59:23.999Z</time></trkpt><trkpt lat="45.88018102180522" lon="10.837828662705101"><ele>69.0</ele><time>2026-04-20T09:59:24.999Z</time></trkpt><trkpt lat="45.880040931273946" lon="10.837779408265588"><ele>68.5</ele><time>2026-04-20T09:59:25.999Z</time></trkpt><trkpt lat="45.87990303026575" lon="10.83774532770433"><ele>68.0</ele><time>2026-04-20T09:59:26.999Z</time></trkpt><trkpt lat="45.87974800533285" lon="10.837721988646079"><ele>67.5</ele><time>2026-04-20T09:59:27.999Z</time></trkpt><trkpt lat="45.879606526837556" lon="10.837683395164195"><ele>67.0</ele><time>2026-04-20T09:59:28.999Z</time></trkpt><trkpt lat="45.87944925803388" lon="10.837658755666432"><ele>80.33333333333333</ele><time>2026-04-20T09:59:29.999Z</time></trkpt><trkpt lat="45.879291679505165" lon="10.837621937127055"><ele>93.66666666666666</ele><time>2026-04-20T09:59:30.999Z</time></trkpt><trkpt lat="45.879134086740784" lon="10.837580002121685"><ele>107.0</ele><time>2026-04-20T09:59:31.999Z</time></trkpt><trkpt lat="45.878977746668745" lon="10.83754147522194"><ele>107.0</ele><time>2026-04-20T09:59:32.999Z</time></trkpt><trkpt lat="45.87881592385843" lon="10.837488684144429"><ele>107.0</ele><time>2026-04-20T09:59:33.999Z</time></trkpt><trkpt lat="45.87863818527054" lon="10.837437465367382"><ele>107.0</ele><time>2026-04-20T09:59:34.999Z</time></trkpt><trkpt lat="45.8784667170998" lon="10.837387517623343"><ele>107.0</ele><time>2026-04-20T09:59:35.999Z</time></trkpt><trkpt lat="45.87692038903008" lon="10.836803955715427"><ele>107.0</ele><time>2026-04-20T09:59:39.557Z</time></trkpt><trkpt lat="45.87648479060465" lon="10.836633291097005"><ele>107.0</ele><time>2026-04-20T09:59:40.561Z</time></trkpt><trkpt lat="45.876052168980074" lon="10.836463703721595"><ele>107.0</ele><time>2026-04-20T09:59:41.558Z</time></trkpt><trkpt lat="45.87561712169397" lon="10.83629514261624"><ele>107.0</ele><time>2026-04-20T09:59:42.56Z</time></trkpt><trkpt lat="45.875183981577685" lon="10.836127691020357"><ele>107.0</ele><time>2026-04-20T09:59:43.558Z</time></trkpt><trkpt lat="45.874743798199205" lon="10.835984141923824"><ele>62.0</ele><time>2026-04-20T09:59:44.561Z</time></trkpt><trkpt lat="45.85926752668476" lon="10.832789225267524"><ele>87.0</ele><time>2026-04-20T10:01:29.999Z</time></trkpt><trkpt lat="45.85916902485316" lon="10.832600649125295"><ele>112.0</ele><time>2026-04-20T10:01:30.999Z</time></trkpt><trkpt lat="45.85872611512448" lon="10.83243832147364"><ele>112.0</ele><time>2026-04-20T10:01:31.999Z</time></trkpt><trkpt lat="45.85856466727021" lon="10.832559589477707"><ele>112.0</ele><time>2026-04-20T10:01:32.999Z</time></trkpt><trkpt lat="45.85839263126517" lon="10.832715491139767"><ele>112.0</ele><time>2026-04-20T10:01:33.999Z</time></trkpt><trkpt lat="45.85825902073709" lon="10.832791537534476"><ele>99.5</ele><time>2026-04-20T10:01:34.999Z</time></trkpt><trkpt lat="45.8581287580179" lon="10.832842447969"><ele>87.0</ele><time>2026-04-20T10:01:35.999Z</time></trkpt><trkpt lat="45.857990684610755" lon="10.832899521992324"><ele>74.5</ele><time>2026-04-20T10:01:36.999Z</time></trkpt><trkpt lat="45.857839770788615" lon="10.832910779353512"><ele>62.0</ele><time>2026-04-20T10:01:37.999Z</time></trkpt><trkpt lat="45.857698137307715" lon="10.832943329749382"><ele>62.0</ele><time>2026-04-20T10:01:38.999Z</time></trkpt><trkpt lat="45.857556753506316" lon="10.83297720419805"><ele>62.0</ele><time>2026-04-20T10:01:39.999Z</time></trkpt><trkpt lat="45.857371951437564" lon="10.833016664064246"><ele>62.0</ele><time>2026-04-20T10:01:40.999Z</time></trkpt><trkpt lat="45.85722109074636" lon="10.833056497339646"><ele>62.0</ele><time>2026-04-20T10:01:41.999Z</time></trkpt><trkpt lat="45.8570567050279" lon="10.833110496774701"><ele>62.0</ele><time>2026-04-20T10:01:42.999Z</time></trkpt><trkpt lat="45.85689342518395" lon="10.833171669245493"><ele>62.0</ele><time>2026-04-20T10:01:43.999Z</time></trkpt><trkpt lat="45.85674065865902" lon="10.833211355054695"><ele>117.0</ele><time>2026-04-20T10:01:44.999Z</time></trkpt><trkpt lat="45.85658798817005" lon="10.833251343508882"><ele>172.0</ele><time>2026-04-20T10:01:45.999Z</time></trkpt><trkpt lat="45.85643520777609" lon="10.833290529347682"><ele>227.0</ele><time>2026-04-20T10:01:46.999Z</time></trkpt><trkpt lat="45.85631086450151" lon="10.833409038243659"><ele>155.0</ele><time>2026-04-20T10:01:47.999Z</time></trkpt><trkpt lat="45.85616031059847" lon="10.833519076435117"><ele>83.0</ele><time>2026-04-20T10:01:49.139Z</time></trkpt><trkpt lat="45.85474002415156" lon="10.83410295403917"><ele>83.0</ele><time>2026-04-20T10:01:52.557Z</time></trkpt><trkpt lat="45.85430544530589" lon="10.833772880952491"><ele>102.0</ele><time>2026-04-20T10:01:53.559Z</time></trkpt><trkpt lat="45.8539083666214" lon="10.833466324329217"><ele>102.0</ele><time>2026-04-20T10:01:54.561Z</time></trkpt><trkpt lat="45.85350149846085" lon="10.833191227673538"><ele>76.0</ele><time>2026-04-20T10:01:55.56Z</time></trkpt><trkpt lat="45.85308384688272" lon="10.83294905991402"><ele>76.0</ele><time>2026-04-20T10:01:56.561Z</time></trkpt><trkpt lat="45.85267302913227" lon="10.832686527957403"><ele>86.5</ele><time>2026-04-20T10:01:57.561Z</time></trkpt><trkpt lat="45.8524051" lon="10.8325195"><ele>97.0</ele><time>2026-04-20T10:01:58.558Z</time></trkpt><trkpt lat="45.84890502283864" lon="10.830937671301458"><ele>97.0</ele><time>2026-04-20T10:02:31.999Z</time></trkpt><trkpt lat="45.84872491546858" lon="10.830862938447765"><ele>97.0</ele><time>2026-04-20T10:02:32.999Z</time></trkpt><trkpt lat="45.84856082299473" lon="10.830760392893879"><ele>97.0</ele><time>2026-04-20T10:02:33.999Z</time></trkpt><trkpt lat="45.84839595426112" lon="10.830653271311549"><ele>89.33333333333334</ele><time>2026-04-20T10:02:34.999Z</time></trkpt><trkpt lat="45.84823827815537" lon="10.83057778876345"><ele>81.66666666666667</ele><time>2026-04-20T10:02:35.999Z</time></trkpt><trkpt lat="45.84806142186385" lon="10.830519579245722"><ele>74.0</ele><time>2026-04-20T10:02:36.999Z</time></trkpt><trkpt lat="45.847875765263744" lon="10.830524044374632"><ele>74.0</ele><time>2026-04-20T10:02:37.999Z</time></trkpt><trkpt lat="45.847694694126126" lon="10.830481253650545"><ele>74.0</ele><time>2026-04-20T10:02:38.999Z</time></trkpt><trkpt lat="45.84751284762747" lon="10.830484096529618"><ele>74.0</ele><time>2026-04-20T10:02:39.999Z</time></trkpt><trkpt lat="45.84732008346774" lon="10.830444898365272"><ele>72.0</ele><time>2026-04-20T10:02:40.999Z</time></trkpt><trkpt lat="45.847148865586014" lon="10.83042566661506"><ele>70.0</ele><time>2026-04-20T10:02:41.999Z</time></trkpt><trkpt lat="45.84718529246688" lon="10.830322663060214"><ele>68.0</ele><time>2026-04-20T10:02:42.999Z</time></trkpt><trkpt lat="45.84699537807418" lon="10.83028640029222"><ele>66.0</ele><time>2026-04-20T10:02:43.999Z</time></trkpt><trkpt lat="45.84679579840886" lon="10.83022441029755"><ele>65.66666666666667</ele><time>2026-04-20T10:02:44.999Z</time></trkpt><trkpt lat="45.846622791659584" lon="10.830167182199547"><ele>65.33333333333334</ele><time>2026-04-20T10:02:45.999Z</time></trkpt><trkpt lat="45.84647074103457" lon="10.830113578009428"><ele>65.0</ele><time>2026-04-20T10:02:46.999Z</time></trkpt><trkpt lat="45.84634413805372" lon="10.830067051612792"><ele>69.0</ele><time>2026-04-20T10:02:47.999Z</time></trkpt><trkpt lat="45.84617735966434" lon="10.829989037640715"><ele>73.0</ele><time>2026-04-20T10:02:48.999Z</time></trkpt><trkpt lat="45.846000014186856" lon="10.829832612320399"><ele>77.0</ele><time>2026-04-20T10:02:49.999Z</time></trkpt><trkpt lat="45.84587439864692" lon="10.82964388599505"><ele>77.0</ele><time>2026-04-20T10:02:50.999Z</time></trkpt><trkpt lat="45.845790655432005" lon="10.82949597685446"><ele>77.0</ele><time>2026-04-20T10:02:51.999Z</time></trkpt><trkpt lat="45.84570143139367" lon="10.829335551222087"><ele>77.0</ele><time>2026-04-20T10:02:52.999Z</time></trkpt><trkpt lat="45.84558787043729" lon="10.829127379551718"><ele>87.66666666666667</ele><time>2026-04-20T10:02:53.999Z</time></trkpt><trkpt lat="45.845467807337585" lon="10.828918214332324"><ele>98.33333333333334</ele><time>2026-04-20T10:02:54.999Z</time></trkpt><trkpt lat="45.84536763877638" lon="10.828781967303449"><ele>109.0</ele><time>2026-04-20T10:02:55.999Z</time></trkpt><trkpt lat="45.84524590474436" lon="10.828647909148803"><ele>100.66666666666667</ele><time>2026-04-20T10:02:56.999Z</time></trkpt><trkpt lat="45.8451104831355" lon="10.828529096658531"><ele>92.33333333333334</ele><time>2026-04-20T10:02:57.999Z</time></trkpt><trkpt lat="45.84498103143855" lon="10.82841973791581"><ele>84.0</ele><time>2026-04-20T10:02:58.999Z</time></trkpt><trkpt lat="45.84485178014938" lon="10.828311591616718"><ele>84.0</ele><time>2026-04-20T10:02:59.999Z</time></trkpt><trkpt lat="45.84472815595082" lon="10.828204393797593"><ele>84.0</ele><time>2026-04-20T10:03:00.999Z</time></trkpt><trkpt lat="45.84457493599194" lon="10.828056988217938"><ele>84.0</ele><time>2026-04-20T10:03:01.999Z</time></trkpt><trkpt lat="45.844447247935584" lon="10.827902879757218"><ele>84.0</ele><time>2026-04-20T10:03:02.999Z</time></trkpt><trkpt lat="45.844334939130455" lon="10.827738801010577"><ele>84.0</ele><time>2026-04-20T10:03:03.999Z</time></trkpt><trkpt lat="45.84424998391378" lon="10.827581455844566"><ele>84.0</ele><time>2026-04-20T10:03:04.999Z</time></trkpt><trkpt lat="45.84413777734651" lon="10.827451689341581"><ele>84.0</ele><time>2026-04-20T10:03:05.999Z</time></trkpt><trkpt lat="45.84402577465767" lon="10.827311147250697"><ele>84.33333333333333</ele><time>2026-04-20T10:03:06.999Z</time></trkpt><trkpt lat="45.843906265144945" lon="10.827165094392274"><ele>84.66666666666666</ele><time>2026-04-20T10:03:07.999Z</time></trkpt><trkpt lat="45.84376466647702" lon="10.827016527466668"><ele>85.0</ele><time>2026-04-20T10:03:08.999Z</time></trkpt><trkpt lat="45.84359513919643" lon="10.826879071371048"><ele>87.66666666666666</ele><time>2026-04-20T10:03:09.999Z</time></trkpt><trkpt lat="45.84341897650086" lon="10.826760863162802"><ele>90.33333333333333</ele><time>2026-04-20T10:03:10.999Z</time></trkpt><trkpt lat="45.84321634969638" lon="10.826670181209458"><ele>93.0</ele><time>2026-04-20T10:03:11.999Z</time></trkpt><trkpt lat="45.84306694643799" lon="10.826570220511721"><ele>93.0</ele><time>2026-04-20T10:03:12.999Z</time></trkpt><trkpt lat="45.84291229804606" lon="10.826483033357695"><ele>93.0</ele><time>2026-04-20T10:03:13.999Z</time></trkpt><trkpt lat="45.84274467460712" lon="10.826433083016349"><ele>93.0</ele><time>2026-04-20T10:03:14.999Z</time></trkpt><trkpt lat="45.84256707260369" lon="10.82638077261248"><ele>86.0</ele><time>2026-04-20T10:03:15.999Z</time></trkpt><trkpt lat="45.842387253801185" lon="10.826326539681755"><ele>79.0</ele><time>2026-04-20T10:03:16.999Z</time></trkpt><trkpt lat="45.84223103158124" lon="10.826251545969548"><ele>72.0</ele><time>2026-04-20T10:03:17.999Z</time></trkpt><trkpt lat="45.84211196226035" lon="10.826161734795322"><ele>72.0</ele><time>2026-04-20T10:03:18.999Z</time></trkpt><trkpt lat="45.84197797126859" lon="10.826046418216231"><ele>72.0</ele><time>2026-04-20T10:03:19.999Z</time></trkpt><trkpt lat="45.84181840132627" lon="10.825941814674646"><ele>72.0</ele><time>2026-04-20T10:03:20.999Z</time></trkpt><trkpt lat="45.84165461899771" lon="10.825868861870779"><ele>78.66666666666667</ele><time>2026-04-20T10:03:21.999Z</time></trkpt><trkpt lat="45.84148182178792" lon="10.825826880641596"><ele>85.33333333333334</ele><time>2026-04-20T10:03:22.999Z</time></trkpt><trkpt lat="45.84130569950428" lon="10.82580064650672"><ele>92.0</ele><time>2026-04-20T10:03:23.999Z</time></trkpt><trkpt lat="45.841121513766886" lon="10.825749347854678"><ele>89.0</ele><time>2026-04-20T10:03:24.999Z</time></trkpt><trkpt lat="45.84095830888596" lon="10.825741499799806"><ele>86.0</ele><time>2026-04-20T10:03:25.999Z</time></trkpt><trkpt lat="45.840796275519715" lon="10.825678386592372"><ele>83.0</ele><time>2026-04-20T10:03:26.999Z</time></trkpt><trkpt lat="45.84063988307382" lon="10.825663604145571"><ele>83.0</ele><time>2026-04-20T10:03:27.999Z</time></trkpt><trkpt lat="45.840521728423575" lon="10.825700413705386"><ele>83.0</ele><time>2026-04-20T10:03:28.999Z</time></trkpt><trkpt lat="45.84033532512881" lon="10.825766291049893"><ele>83.0</ele><time>2026-04-20T10:03:29.999Z</time></trkpt><trkpt lat="45.840136636643685" lon="10.82585470332233"><ele>83.0</ele><time>2026-04-20T10:03:30.999Z</time></trkpt><trkpt lat="45.83995468211682" lon="10.82591725370367"><ele>83.0</ele><time>2026-04-20T10:03:31.999Z</time></trkpt><trkpt lat="45.83976598594597" lon="10.82595409464366"><ele>83.0</ele><time>2026-04-20T10:03:32.999Z</time></trkpt><trkpt lat="45.839578937350716" lon="10.825955551618101"><ele>83.0</ele><time>2026-04-20T10:03:33.999Z</time></trkpt><trkpt lat="45.83941966652267" lon="10.825928549661326"><ele>83.0</ele><time>2026-04-20T10:03:34.999Z</time></trkpt><trkpt lat="45.839265556541335" lon="10.825920253784263"><ele>83.0</ele><time>2026-04-20T10:03:35.999Z</time></trkpt><trkpt lat="45.83910317108667" lon="10.825909374275419"><ele>87.0</ele><time>2026-04-20T10:03:36.999Z</time></trkpt><trkpt lat="45.83894143019201" lon="10.825900449316217"><ele>91.0</ele><time>2026-04-20T10:03:37.999Z</time></trkpt><trkpt lat="45.83878281614697" lon="10.825889059153463"><ele>95.0</ele><time>2026-04-20T10:03:38.999Z</time></trkpt><trkpt lat="45.83862458963983" lon="10.825834289635203"><ele>84.0</ele><time>2026-04-20T10:03:39.999Z</time></trkpt><trkpt lat="45.83845930258715" lon="10.825790623867508"><ele>73.0</ele><time>2026-04-20T10:03:40.999Z</time></trkpt><trkpt lat="45.83827782226683" lon="10.825740002013015"><ele>62.0</ele><time>2026-04-20T10:03:41.999Z</time></trkpt><trkpt lat="45.83810980878564" lon="10.825709756338794"><ele>62.0</ele><time>2026-04-20T10:03:42.999Z</time></trkpt><trkpt lat="45.83794871598311" lon="10.825657616618509"><ele>62.0</ele><time>2026-04-20T10:03:43.999Z</time></trkpt><trkpt lat="45.83783199398988" lon="10.825560388819381"><ele>62.0</ele><time>2026-04-20T10:03:44.999Z</time></trkpt><trkpt lat="45.837668082436124" lon="10.825494020598477"><ele>62.0</ele><time>2026-04-20T10:03:45.999Z</time></trkpt><trkpt lat="45.83749828343097" lon="10.825436838576602"><ele>62.0</ele><time>2026-04-20T10:03:46.999Z</time></trkpt><trkpt lat="45.83734173608146" lon="10.825378021742491"><ele>62.0</ele><time>2026-04-20T10:03:47.999Z</time></trkpt><trkpt lat="45.83718639660851" lon="10.825316722417334"><ele>62.0</ele><time>2026-04-20T10:03:48.999Z</time></trkpt><trkpt lat="45.83703210749085" lon="10.825254995852571"><ele>62.0</ele><time>2026-04-20T10:03:49.999Z</time></trkpt><trkpt lat="45.83687556578218" lon="10.82519569571346"><ele>62.0</ele><time>2026-04-20T10:03:50.999Z</time></trkpt><trkpt lat="45.83671627332321" lon="10.825127924874696"><ele>102.66666666666667</ele><time>2026-04-20T10:03:51.999Z</time></trkpt><trkpt lat="45.836565719449084" lon="10.825058130234673"><ele>143.33333333333334</ele><time>2026-04-20T10:03:52.999Z</time></trkpt><trkpt lat="45.83639567647918" lon="10.825034902358428"><ele>184.0</ele><time>2026-04-20T10:03:54.139Z</time></trkpt><trkpt lat="45.83625826692369" lon="10.825026888558382"><ele>184.0</ele><time>2026-04-20T10:03:55.136Z</time></trkpt><trkpt lat="45.836104843476434" lon="10.825030803474592"><ele>184.0</ele><time>2026-04-20T10:03:56.137Z</time></trkpt><trkpt lat="45.835963719009314" lon="10.82504883637251"><ele>184.0</ele><time>2026-04-20T10:03:57.138Z</time></trkpt><trkpt lat="45.83581888491498" lon="10.825064785069364"><ele>184.0</ele><time>2026-04-20T10:03:58.137Z</time></trkpt><trkpt lat="45.83565935241233" lon="10.82508342939011"><ele>191.75</ele><time>2026-04-20T10:03:59.14Z</time></trkpt><trkpt lat="45.835525662353234" lon="10.825104439813868"><ele>199.5</ele><time>2026-04-20T10:04:00.136Z</time></trkpt><trkpt lat="45.83538566903823" lon="10.825131912322151"><ele>207.25</ele><time>2026-04-20T10:04:01.138Z</time></trkpt><trkpt lat="45.835257794969436" lon="10.825161945784773"><ele>215.0</ele><time>2026-04-20T10:04:02.137Z</time></trkpt><trkpt lat="45.8351196005775" lon="10.825193454126783"><ele>62.0</ele><time>2026-04-20T10:04:03.137Z</time></trkpt><trkpt lat="45.83418815881042" lon="10.825336176772492"><ele>62.0</ele><time>2026-04-20T10:04:06.999Z</time></trkpt><trkpt lat="45.834019495753765" lon="10.825359244002302"><ele>62.0</ele><time>2026-04-20T10:04:07.999Z</time></trkpt><trkpt lat="45.83373570085194" lon="10.825324216302612"><ele>62.0</ele><time>2026-04-20T10:04:08.999Z</time></trkpt><trkpt lat="45.83351804125312" lon="10.825255541777338"><ele>62.0</ele><time>2026-04-20T10:04:09.999Z</time></trkpt><trkpt lat="45.83333772857839" lon="10.82523265259395"><ele>62.0</ele><time>2026-04-20T10:04:10.999Z</time></trkpt><trkpt lat="45.8331502475531" lon="10.825218523020038"><ele>63.0</ele><time>2026-04-20T10:04:11.999Z</time></trkpt><trkpt lat="45.832985938412996" lon="10.825163587702795"><ele>64.0</ele><time>2026-04-20T10:04:12.999Z</time></trkpt><trkpt lat="45.832819877363825" lon="10.825097991177286"><ele>65.0</ele><time>2026-04-20T10:04:13.999Z</time></trkpt><trkpt lat="45.83266651329663" lon="10.824993953185857"><ele>73.0</ele><time>2026-04-20T10:04:14.999Z</time></trkpt><trkpt lat="45.83250280310097" lon="10.824897055357873"><ele>81.0</ele><time>2026-04-20T10:04:15.999Z</time></trkpt><trkpt lat="45.83234128723079" lon="10.824813221798317"><ele>89.0</ele><time>2026-04-20T10:04:16.999Z</time></trkpt><trkpt lat="45.83220278823821" lon="10.824725264222055"><ele>89.0</ele><time>2026-04-20T10:04:17.999Z</time></trkpt><trkpt lat="45.832065136048634" lon="10.824592382215515"><ele>89.0</ele><time>2026-04-20T10:04:18.999Z</time></trkpt><trkpt lat="45.83193056139545" lon="10.82443699422394"><ele>89.0</ele><time>2026-04-20T10:04:19.999Z</time></trkpt><trkpt lat="45.83181251136255" lon="10.824262558874844"><ele>89.33333333333334</ele><time>2026-04-20T10:04:20.999Z</time></trkpt><trkpt lat="45.83167946926927" lon="10.824073301771268"><ele>89.66666666666667</ele><time>2026-04-20T10:04:21.999Z</time></trkpt><trkpt lat="45.83154508218556" lon="10.82387029729946"><ele>90.0</ele><time>2026-04-20T10:04:22.999Z</time></trkpt><trkpt lat="45.831490671333896" lon="10.823661105732889"><ele>100.33333333333334</ele><time>2026-04-20T10:04:23.999Z</time></trkpt><trkpt lat="45.831374277074225" lon="10.823465347754212"><ele>110.66666666666667</ele><time>2026-04-20T10:04:24.999Z</time></trkpt><trkpt lat="45.83123367345852" lon="10.823280494539803"><ele>121.0</ele><time>2026-04-20T10:04:25.999Z</time></trkpt><trkpt lat="45.83108291362783" lon="10.82311075764074"><ele>110.33333333333334</ele><time>2026-04-20T10:04:26.999Z</time></trkpt><trkpt lat="45.830908789126745" lon="10.822964667515365"><ele>99.66666666666667</ele><time>2026-04-20T10:04:27.999Z</time></trkpt><trkpt lat="45.830723708967824" lon="10.822863567129982"><ele>89.0</ele><time>2026-04-20T10:04:28.999Z</time></trkpt><trkpt lat="45.83050571067723" lon="10.822760407617654"><ele>89.0</ele><time>2026-04-20T10:04:29.999Z</time></trkpt><trkpt lat="45.83031285170644" lon="10.822693529499645"><ele>89.0</ele><time>2026-04-20T10:04:30.999Z</time></trkpt><trkpt lat="45.83011838816858" lon="10.822576378333174"><ele>89.0</ele><time>2026-04-20T10:04:31.999Z</time></trkpt><trkpt lat="45.82994645492506" lon="10.822481779815195"><ele>95.0</ele><time>2026-04-20T10:04:32.999Z</time></trkpt><trkpt lat="45.82979132343756" lon="10.822392119158252"><ele>101.0</ele><time>2026-04-20T10:04:33.999Z</time></trkpt><trkpt lat="45.82964796667776" lon="10.822311167163555"><ele>107.0</ele><time>2026-04-20T10:04:34.999Z</time></trkpt><trkpt lat="45.82952135791186" lon="10.82224224999671"><ele>107.0</ele><time>2026-04-20T10:04:35.999Z</time></trkpt><trkpt lat="45.82939342559817" lon="10.822156703591695"><ele>107.0</ele><time>2026-04-20T10:04:36.999Z</time></trkpt><trkpt lat="45.82925905248254" lon="10.822092791397003"><ele>107.0</ele><time>2026-04-20T10:04:37.999Z</time></trkpt><trkpt lat="45.829169904894066" lon="10.821937837182865"><ele>107.0</ele><time>2026-04-20T10:04:38.999Z</time></trkpt><trkpt lat="45.82906900084635" lon="10.821799016106436"><ele>108.66666666666666</ele><time>2026-04-20T10:04:39.999Z</time></trkpt><trkpt lat="45.82896402798918" lon="10.82165540019716"><ele>110.33333333333334</ele><time>2026-04-20T10:04:40.999Z</time></trkpt><trkpt lat="45.82882752210128" lon="10.821473696007645"><ele>112.0</ele><time>2026-04-20T10:04:41.999Z</time></trkpt><trkpt lat="45.82866077406537" lon="10.82128151866126"><ele>112.0</ele><time>2026-04-20T10:04:42.999Z</time></trkpt><trkpt lat="45.828487212821486" lon="10.821102554286062"><ele>112.0</ele><time>2026-04-20T10:04:43.999Z</time></trkpt><trkpt lat="45.82834270584384" lon="10.82094312950527"><ele>112.0</ele><time>2026-04-20T10:04:44.999Z</time></trkpt><trkpt lat="45.82822711128958" lon="10.820786963038708"><ele>108.33333333333334</ele><time>2026-04-20T10:04:45.999Z</time></trkpt><trkpt lat="45.828116354474446" lon="10.82060738783201"><ele>104.66666666666666</ele><time>2026-04-20T10:04:46.999Z</time></trkpt><trkpt lat="45.828026173524066" lon="10.820431090650157"><ele>101.0</ele><time>2026-04-20T10:04:47.999Z</time></trkpt><trkpt lat="45.82794034357972" lon="10.820236410888619"><ele>109.0</ele><time>2026-04-20T10:04:48.999Z</time></trkpt><trkpt lat="45.82787038001096" lon="10.820045694570332"><ele>117.0</ele><time>2026-04-20T10:04:49.999Z</time></trkpt><trkpt lat="45.82781946126443" lon="10.819842342518983"><ele>125.0</ele><time>2026-04-20T10:04:50.999Z</time></trkpt><trkpt lat="45.827771529870596" lon="10.819614785452895"><ele>125.0</ele><time>2026-04-20T10:04:51.999Z</time></trkpt><trkpt lat="45.827734359743474" lon="10.819360819375976"><ele>125.0</ele><time>2026-04-20T10:04:52.999Z</time></trkpt><trkpt lat="45.82771657156022" lon="10.819095690303932"><ele>125.0</ele><time>2026-04-20T10:04:53.999Z</time></trkpt><trkpt lat="45.827675795406314" lon="10.818851348626197"><ele>128.66666666666666</ele><time>2026-04-20T10:04:54.999Z</time></trkpt><trkpt lat="45.82769360634547" lon="10.818610794550466"><ele>132.33333333333334</ele><time>2026-04-20T10:04:55.999Z</time></trkpt><trkpt lat="45.82772148132239" lon="10.818382262323494"><ele>136.0</ele><time>2026-04-20T10:04:56.999Z</time></trkpt><trkpt lat="45.827730365133625" lon="10.81815231735066"><ele>138.0</ele><time>2026-04-20T10:04:57.999Z</time></trkpt><trkpt lat="45.82773110850493" lon="10.81790286962565"><ele>140.0</ele><time>2026-04-20T10:04:58.998Z</time></trkpt><trkpt lat="45.82772198593727" lon="10.817657720515248"><ele>142.0</ele><time>2026-04-20T10:04:59.998Z</time></trkpt><trkpt lat="45.82769037905563" lon="10.817399506030545"><ele>137.66666666666669</ele><time>2026-04-20T10:05:00.995Z</time></trkpt><trkpt lat="45.82764262287845" lon="10.817184112103321"><ele>133.33333333333334</ele><time>2026-04-20T10:05:01.995Z</time></trkpt><trkpt lat="45.827565638836276" lon="10.816973971543016"><ele>129.0</ele><time>2026-04-20T10:05:02.995Z</time></trkpt><trkpt lat="45.827467208840666" lon="10.81676569530827"><ele>129.0</ele><time>2026-04-20T10:05:03.995Z</time></trkpt><trkpt lat="45.827348274423166" lon="10.81655975176208"><ele>129.0</ele><time>2026-04-20T10:05:04.995Z</time></trkpt><trkpt lat="45.82722086573577" lon="10.816361298000738"><ele>129.0</ele><time>2026-04-20T10:05:05.995Z</time></trkpt><trkpt lat="45.82707137550719" lon="10.816156631596792"><ele>124.33333333333334</ele><time>2026-04-20T10:05:06.995Z</time></trkpt><trkpt lat="45.82691807113283" lon="10.815983548811541"><ele>119.66666666666667</ele><time>2026-04-20T10:05:07.995Z</time></trkpt><trkpt lat="45.826768180394176" lon="10.815870406017073"><ele>115.0</ele><time>2026-04-20T10:05:08.995Z</time></trkpt><trkpt lat="45.826602289599286" lon="10.815769728007224"><ele>115.0</ele><time>2026-04-20T10:05:09.995Z</time></trkpt><trkpt lat="45.82645477089107" lon="10.815605737424415"><ele>115.0</ele><time>2026-04-20T10:05:10.995Z</time></trkpt><trkpt lat="45.82632249495962" lon="10.815476766761133"><ele>115.0</ele><time>2026-04-20T10:05:11.995Z</time></trkpt><trkpt lat="45.826199412829325" lon="10.815335512714785"><ele>115.0</ele><time>2026-04-20T10:05:12.995Z</time></trkpt><trkpt lat="45.82608521744706" lon="10.815165437012944"><ele>115.0</ele><time>2026-04-20T10:05:13.995Z</time></trkpt><trkpt lat="45.825987621755914" lon="10.814968279826626"><ele>115.0</ele><time>2026-04-20T10:05:14.995Z</time></trkpt><trkpt lat="45.825899357977804" lon="10.814751292759052"><ele>112.0</ele><time>2026-04-20T10:05:15.995Z</time></trkpt><trkpt lat="45.82582400498524" lon="10.814563701190679"><ele>109.0</ele><time>2026-04-20T10:05:16.995Z</time></trkpt><trkpt lat="45.82572952770298" lon="10.814371278797317"><ele>106.0</ele><time>2026-04-20T10:05:17.995Z</time></trkpt><trkpt lat="45.825642920680295" lon="10.814195755700831"><ele>113.33333333333334</ele><time>2026-04-20T10:05:18.995Z</time></trkpt><trkpt lat="45.82553358732159" lon="10.814034594729758"><ele>120.66666666666666</ele><time>2026-04-20T10:05:19.995Z</time></trkpt><trkpt lat="45.82540528806989" lon="10.813877060921945"><ele>128.0</ele><time>2026-04-20T10:05:20.995Z</time></trkpt><trkpt lat="45.82527480332985" lon="10.813713163115326"><ele>125.66666666666666</ele><time>2026-04-20T10:05:21.995Z</time></trkpt><trkpt lat="45.825132423712006" lon="10.813550158402954"><ele>123.33333333333334</ele><time>2026-04-20T10:05:22.995Z</time></trkpt><trkpt lat="45.82500513193554" lon="10.813375585581975"><ele>121.0</ele><time>2026-04-20T10:05:23.995Z</time></trkpt><trkpt lat="45.82489375199005" lon="10.813199245199876"><ele>121.0</ele><time>2026-04-20T10:05:24.995Z</time></trkpt><trkpt lat="45.824797388747676" lon="10.81301380557208"><ele>121.0</ele><time>2026-04-20T10:05:25.995Z</time></trkpt><trkpt lat="45.82471688759361" lon="10.812830509574642"><ele>121.0</ele><time>2026-04-20T10:05:26.995Z</time></trkpt><trkpt lat="45.82466185755906" lon="10.812643782034465"><ele>123.66666666666667</ele><time>2026-04-20T10:05:27.995Z</time></trkpt><trkpt lat="45.824612501480566" lon="10.812414053006014"><ele>126.33333333333334</ele><time>2026-04-20T10:05:28.995Z</time></trkpt><trkpt lat="45.82456040053965" lon="10.812186277306862"><ele>129.0</ele><time>2026-04-20T10:05:29.995Z</time></trkpt><trkpt lat="45.82451098214089" lon="10.811970229258645"><ele>131.0</ele><time>2026-04-20T10:05:30.995Z</time></trkpt><trkpt lat="45.82446400436248" lon="10.811761548840147"><ele>133.0</ele><time>2026-04-20T10:05:31.995Z</time></trkpt><trkpt lat="45.82441842998855" lon="10.811556386062344"><ele>135.0</ele><time>2026-04-20T10:05:32.995Z</time></trkpt><trkpt lat="45.824371358886665" lon="10.81134547749263"><ele>135.0</ele><time>2026-04-20T10:05:33.995Z</time></trkpt><trkpt lat="45.82432614048801" lon="10.811146527418906"><ele>135.0</ele><time>2026-04-20T10:05:34.995Z</time></trkpt><trkpt lat="45.824277042772465" lon="10.81092144773798"><ele>135.0</ele><time>2026-04-20T10:05:35.995Z</time></trkpt><trkpt lat="45.8242415624265" lon="10.81069719602851"><ele>128.25</ele><time>2026-04-20T10:05:36.995Z</time></trkpt><trkpt lat="45.82422094413317" lon="10.810493095345961"><ele>121.5</ele><time>2026-04-20T10:05:37.995Z</time></trkpt><trkpt lat="45.824213315605924" lon="10.810277439476463"><ele>114.75</ele><time>2026-04-20T10:05:38.995Z</time></trkpt><trkpt lat="45.824218860047495" lon="10.810066448254318"><ele>108.0</ele><time>2026-04-20T10:05:39.995Z</time></trkpt><trkpt lat="45.8242330407314" lon="10.809872194875574"><ele>108.0</ele><time>2026-04-20T10:05:40.995Z</time></trkpt><trkpt lat="45.82424882844301" lon="10.809662893762702"><ele>108.0</ele><time>2026-04-20T10:05:41.995Z</time></trkpt><trkpt lat="45.82423583547434" lon="10.809434648384933"><ele>108.0</ele><time>2026-04-20T10:05:42.995Z</time></trkpt><trkpt lat="45.82419253583873" lon="10.809228086066334"><ele>112.0</ele><time>2026-04-20T10:05:43.995Z</time></trkpt><trkpt lat="45.82413398655632" lon="10.80904421116985"><ele>116.0</ele><time>2026-04-20T10:05:44.995Z</time></trkpt><trkpt lat="45.82405143839226" lon="10.808875892259035"><ele>120.0</ele><time>2026-04-20T10:05:45.995Z</time></trkpt><trkpt lat="45.82392230799217" lon="10.808728653683325"><ele>124.0</ele><time>2026-04-20T10:05:46.995Z</time></trkpt><trkpt lat="45.82380665467798" lon="10.808549810828548"><ele>117.75</ele><time>2026-04-20T10:05:47.994Z</time></trkpt><trkpt lat="45.82371291579442" lon="10.808409851099828"><ele>111.5</ele><time>2026-04-20T10:05:48.994Z</time></trkpt><trkpt lat="45.82359165779239" lon="10.808268131101478"><ele>105.25</ele><time>2026-04-20T10:05:49.995Z</time></trkpt><trkpt lat="45.82349279293004" lon="10.808132193153389"><ele>99.0</ele><time>2026-04-20T10:05:50.995Z</time></trkpt><trkpt lat="45.8233860644929" lon="10.808013100258027"><ele>99.0</ele><time>2026-04-20T10:05:51.995Z</time></trkpt><trkpt lat="45.82331387013838" lon="10.807823491612163"><ele>99.0</ele><time>2026-04-20T10:05:52.995Z</time></trkpt><trkpt lat="45.82325654185811" lon="10.807650691920474"><ele>99.0</ele><time>2026-04-20T10:05:53.995Z</time></trkpt><trkpt lat="45.82316079299121" lon="10.807305934700619"><ele>111.0</ele><time>2026-04-20T10:05:54.995Z</time></trkpt><trkpt lat="45.82316303763584" lon="10.807085574933584"><ele>123.0</ele><time>2026-04-20T10:05:55.995Z</time></trkpt><trkpt lat="45.82308137209104" lon="10.80689252918306"><ele>135.0</ele><time>2026-04-20T10:05:56.995Z</time></trkpt><trkpt lat="45.82303499818783" lon="10.806682599968122"><ele>146.66666666666666</ele><time>2026-04-20T10:05:57.995Z</time></trkpt><trkpt lat="45.82298971249013" lon="10.806470901918441"><ele>158.33333333333331</ele><time>2026-04-20T10:05:58.995Z</time></trkpt><trkpt lat="45.82294680665662" lon="10.806262653378232"><ele>170.0</ele><time>2026-04-20T10:05:59.994Z</time></trkpt><trkpt lat="45.82290397919745" lon="10.806054785259887"><ele>177.0</ele><time>2026-04-20T10:06:00.994Z</time></trkpt><trkpt lat="45.822858057641476" lon="10.8058348369735"><ele>184.0</ele><time>2026-04-20T10:06:01.994Z</time></trkpt><trkpt lat="45.82279230401673" lon="10.805545225061646"><ele>191.0</ele><time>2026-04-20T10:06:02.994Z</time></trkpt><trkpt lat="45.82271069205412" lon="10.805295239966322"><ele>167.33333333333331</ele><time>2026-04-20T10:06:03.994Z</time></trkpt><trkpt lat="45.8226406117837" lon="10.805109635569787"><ele>143.66666666666666</ele><time>2026-04-20T10:06:04.994Z</time></trkpt><trkpt lat="45.82255876933328" lon="10.804907220606662"><ele>120.0</ele><time>2026-04-20T10:06:05.994Z</time></trkpt><trkpt lat="45.82247341349044" lon="10.804707792831275"><ele>120.0</ele><time>2026-04-20T10:06:06.994Z</time></trkpt><trkpt lat="45.82234511642796" lon="10.804545652916087"><ele>120.0</ele><time>2026-04-20T10:06:07.994Z</time></trkpt><trkpt lat="45.82227538064285" lon="10.804347499879434"><ele>120.0</ele><time>2026-04-20T10:06:08.994Z</time></trkpt><trkpt lat="45.822191964020504" lon="10.804202851014225"><ele>124.25</ele><time>2026-04-20T10:06:09.994Z</time></trkpt><trkpt lat="45.82214757899158" lon="10.80408325959547"><ele>128.5</ele><time>2026-04-20T10:06:10.994Z</time></trkpt><trkpt lat="45.82208124848968" lon="10.803902624067417"><ele>132.75</ele><time>2026-04-20T10:06:11.994Z</time></trkpt><trkpt lat="45.82200609183148" lon="10.803701398261483"><ele>137.0</ele><time>2026-04-20T10:06:12.994Z</time></trkpt><trkpt lat="45.82195230071079" lon="10.803556896591594"><ele>138.25</ele><time>2026-04-20T10:06:13.994Z</time></trkpt><trkpt lat="45.8218941112163" lon="10.803399870874115"><ele>139.5</ele><time>2026-04-20T10:06:14.994Z</time></trkpt><trkpt lat="45.82183176748193" lon="10.803231635321513"><ele>140.75</ele><time>2026-04-20T10:06:15.994Z</time></trkpt><trkpt lat="45.82178086346334" lon="10.803087585902272"><ele>142.0</ele><time>2026-04-20T10:06:16.994Z</time></trkpt><trkpt lat="45.82173318572211" lon="10.80291809353968"><ele>135.0</ele><time>2026-04-20T10:06:17.994Z</time></trkpt><trkpt lat="45.821701544324696" lon="10.802765306209908"><ele>128.0</ele><time>2026-04-20T10:06:18.994Z</time></trkpt><trkpt lat="45.82167514596502" lon="10.802583847258978"><ele>121.0</ele><time>2026-04-20T10:06:19.994Z</time></trkpt><trkpt lat="45.82166228181442" lon="10.80239612591296"><ele>114.0</ele><time>2026-04-20T10:06:20.994Z</time></trkpt><trkpt lat="45.821661992858644" lon="10.802213275884816"><ele>114.0</ele><time>2026-04-20T10:06:21.994Z</time></trkpt><trkpt lat="45.821671322478394" lon="10.802040834117586"><ele>114.0</ele><time>2026-04-20T10:06:22.994Z</time></trkpt><trkpt lat="45.8216837805121" lon="10.801880687418254"><ele>114.0</ele><time>2026-04-20T10:06:23.994Z</time></trkpt><trkpt lat="45.821695580407436" lon="10.801730880719779"><ele>114.0</ele><time>2026-04-20T10:06:24.994Z</time></trkpt><trkpt lat="45.82169736978837" lon="10.801585491046216"><ele>114.0</ele><time>2026-04-20T10:06:25.994Z</time></trkpt><trkpt lat="45.82169219600329" lon="10.80143518447046"><ele>113.80000000000001</ele><time>2026-04-20T10:06:26.994Z</time></trkpt><trkpt lat="45.82168011509278" lon="10.8012828955176"><ele>113.60000000000001</ele><time>2026-04-20T10:06:27.994Z</time></trkpt><trkpt lat="45.82166395788919" lon="10.801156645514968"><ele>113.4</ele><time>2026-04-20T10:06:28.994Z</time></trkpt><trkpt lat="45.82163432519865" lon="10.801013810231128"><ele>113.2</ele><time>2026-04-20T10:06:29.994Z</time></trkpt><trkpt lat="45.82159866937751" lon="10.800874894188143"><ele>113.0</ele><time>2026-04-20T10:06:30.994Z</time></trkpt><trkpt lat="45.82155692319816" lon="10.800738568966974"><ele>113.0</ele><time>2026-04-20T10:06:31.994Z</time></trkpt><trkpt lat="45.821510957969544" lon="10.800602962053766"><ele>113.0</ele><time>2026-04-20T10:06:32.994Z</time></trkpt><trkpt lat="45.82145230591725" lon="10.800441530243218"><ele>113.0</ele><time>2026-04-20T10:06:33.994Z</time></trkpt><trkpt lat="45.82138649471871" lon="10.800295930601365"><ele>113.0</ele><time>2026-04-20T10:06:34.994Z</time></trkpt><trkpt lat="45.82130750822318" lon="10.800164439802339"><ele>109.0</ele><time>2026-04-20T10:06:35.994Z</time></trkpt><trkpt lat="45.821211309185045" lon="10.800029383877515"><ele>105.0</ele><time>2026-04-20T10:06:36.994Z</time></trkpt><trkpt lat="45.82111720253347" lon="10.799951128608038"><ele>101.0</ele><time>2026-04-20T10:06:37.994Z</time></trkpt><trkpt lat="45.821022476305956" lon="10.799842536670232"><ele>97.0</ele><time>2026-04-20T10:06:38.994Z</time></trkpt><trkpt lat="45.82092368593374" lon="10.799743549825877"><ele>97.0</ele><time>2026-04-20T10:06:39.994Z</time></trkpt><trkpt lat="45.82082720153173" lon="10.799650423356365"><ele>97.0</ele><time>2026-04-20T10:06:40.994Z</time></trkpt><trkpt lat="45.82072758349918" lon="10.79956888151624"><ele>97.0</ele><time>2026-04-20T10:06:41.994Z</time></trkpt><trkpt lat="45.82064218542354" lon="10.799464121590532"><ele>97.0</ele><time>2026-04-20T10:06:42.994Z</time></trkpt><trkpt lat="45.820565931583005" lon="10.799349781378579"><ele>106.75</ele><time>2026-04-20T10:06:43.994Z</time></trkpt><trkpt lat="45.82048484477149" lon="10.799205577577906"><ele>116.5</ele><time>2026-04-20T10:06:44.994Z</time></trkpt><trkpt lat="45.8204012632664" lon="10.799082700145117"><ele>126.25</ele><time>2026-04-20T10:06:45.994Z</time></trkpt><trkpt lat="45.820337409449664" lon="10.798934666544154"><ele>136.0</ele><time>2026-04-20T10:06:46.994Z</time></trkpt><trkpt lat="45.820271472166255" lon="10.798798580541783"><ele>136.0</ele><time>2026-04-20T10:06:47.994Z</time></trkpt><trkpt lat="45.82016968108998" lon="10.79859045343183"><ele>136.0</ele><time>2026-04-20T10:06:48.994Z</time></trkpt><trkpt lat="45.8200911215921" lon="10.798429826749562"><ele>136.0</ele><time>2026-04-20T10:06:49.994Z</time></trkpt><trkpt lat="45.820011617814814" lon="10.798267269397925"><ele>129.33333333333334</ele><time>2026-04-20T10:06:50.994Z</time></trkpt><trkpt lat="45.81995875587231" lon="10.798194820555905"><ele>122.66666666666666</ele><time>2026-04-20T10:06:51.994Z</time></trkpt><trkpt lat="45.81978880997731" lon="10.797849217132216"><ele>116.0</ele><time>2026-04-20T10:06:52.994Z</time></trkpt><trkpt lat="45.81969373050332" lon="10.797655364770398"><ele>127.0</ele><time>2026-04-20T10:06:53.994Z</time></trkpt><trkpt lat="45.81962129270046" lon="10.797507999878047"><ele>138.0</ele><time>2026-04-20T10:06:54.994Z</time></trkpt><trkpt lat="45.81955714609722" lon="10.797373067378702"><ele>149.0</ele><time>2026-04-20T10:06:55.994Z</time></trkpt><trkpt lat="45.819489958076716" lon="10.797203110251518"><ele>160.0</ele><time>2026-04-20T10:06:56.994Z</time></trkpt><trkpt lat="45.819416045347864" lon="10.797049065663705"><ele>160.0</ele><time>2026-04-20T10:06:57.994Z</time></trkpt><trkpt lat="45.81934743783412" lon="10.79694468980643"><ele>160.0</ele><time>2026-04-20T10:06:58.994Z</time></trkpt><trkpt lat="45.81928662741551" lon="10.796793033317648"><ele>160.0</ele><time>2026-04-20T10:06:59.994Z</time></trkpt><trkpt lat="45.81918759223798" lon="10.79667575724962"><ele>160.0</ele><time>2026-04-20T10:07:00.994Z</time></trkpt><trkpt lat="45.81911250617861" lon="10.796568900469104"><ele>152.5</ele><time>2026-04-20T10:07:01.994Z</time></trkpt><trkpt lat="45.81901675611096" lon="10.796484614895668"><ele>145.0</ele><time>2026-04-20T10:07:02.994Z</time></trkpt><trkpt lat="45.8189617057134" lon="10.796397963158975"><ele>137.5</ele><time>2026-04-20T10:07:03.994Z</time></trkpt><trkpt lat="45.818897352850094" lon="10.796341765863092"><ele>130.0</ele><time>2026-04-20T10:07:04.994Z</time></trkpt><trkpt lat="45.81882762974056" lon="10.796283812933423"><ele>122.50000000000001</ele><time>2026-04-20T10:07:05.994Z</time></trkpt><trkpt lat="45.81875401612403" lon="10.796220115564198"><ele>115.0</ele><time>2026-04-20T10:07:06.994Z</time></trkpt><trkpt lat="45.81867768955624" lon="10.796149787936708"><ele>115.0</ele><time>2026-04-20T10:07:07.994Z</time></trkpt><trkpt lat="45.81860097855596" lon="10.796079167074367"><ele>115.0</ele><time>2026-04-20T10:07:08.994Z</time></trkpt><trkpt lat="45.8185160748957" lon="10.795997586154725"><ele>115.0</ele><time>2026-04-20T10:07:09.994Z</time></trkpt><trkpt lat="45.81841804206758" lon="10.795907363077909"><ele>115.0</ele><time>2026-04-20T10:07:10.994Z</time></trkpt><trkpt lat="45.81833148034366" lon="10.795803629923261"><ele>115.0</ele><time>2026-04-20T10:07:11.994Z</time></trkpt><trkpt lat="45.81825189824952" lon="10.795692818085264"><ele>117.0</ele><time>2026-04-20T10:07:12.994Z</time></trkpt><trkpt lat="45.81818208385667" lon="10.79557077500908"><ele>119.0</ele><time>2026-04-20T10:07:13.994Z</time></trkpt><trkpt lat="45.81811093743925" lon="10.795443563621621"><ele>121.0</ele><time>2026-04-20T10:07:14.994Z</time></trkpt><trkpt lat="45.818039626509595" lon="10.795321591830755"><ele>123.0</ele><time>2026-04-20T10:07:15.994Z</time></trkpt><trkpt lat="45.81797477268227" lon="10.795207186560695"><ele>125.0</ele><time>2026-04-20T10:07:16.994Z</time></trkpt><trkpt lat="45.81790054733238" lon="10.795092893718943"><ele>125.0</ele><time>2026-04-20T10:07:17.994Z</time></trkpt><trkpt lat="45.81781767471841" lon="10.794972949319842"><ele>125.0</ele><time>2026-04-20T10:07:18.994Z</time></trkpt><trkpt lat="45.817740919163256" lon="10.794850866908245"><ele>125.0</ele><time>2026-04-20T10:07:19.994Z</time></trkpt><trkpt lat="45.81767136060251" lon="10.79473864519938"><ele>125.0</ele><time>2026-04-20T10:07:20.994Z</time></trkpt><trkpt lat="45.81759920650431" lon="10.794624657486956"><ele>125.0</ele><time>2026-04-20T10:07:21.994Z</time></trkpt><trkpt lat="45.81753047183542" lon="10.794502729496678"><ele>124.4</ele><time>2026-04-20T10:07:22.994Z</time></trkpt><trkpt lat="45.817463049351154" lon="10.794368307901317"><ele>123.8</ele><time>2026-04-20T10:07:23.994Z</time></trkpt><trkpt lat="45.81740219111694" lon="10.794237841447037"><ele>123.19999999999999</ele><time>2026-04-20T10:07:24.994Z</time></trkpt><trkpt lat="45.81736476104709" lon="10.79411661351167"><ele>122.6</ele><time>2026-04-20T10:07:25.994Z</time></trkpt><trkpt lat="45.8173504893755" lon="10.793974856197925"><ele>122.0</ele><time>2026-04-20T10:07:26.994Z</time></trkpt><trkpt lat="45.81730473376744" lon="10.793852327995676"><ele>122.0</ele><time>2026-04-20T10:07:27.994Z</time></trkpt><trkpt lat="45.8172613625884" lon="10.793723820591865"><ele>121.99999999999999</ele><time>2026-04-20T10:07:28.994Z</time></trkpt><trkpt lat="45.81721593626792" lon="10.79359352817612"><ele>121.99999999999999</ele><time>2026-04-20T10:07:29.994Z</time></trkpt><trkpt lat="45.81717672976222" lon="10.793457776571058"><ele>122.0</ele><time>2026-04-20T10:07:30.994Z</time></trkpt><trkpt lat="45.81713380692577" lon="10.793316580256478"><ele>122.0</ele><time>2026-04-20T10:07:31.994Z</time></trkpt><trkpt lat="45.817093992045045" lon="10.793178377645933"><ele>128.0</ele><time>2026-04-20T10:07:32.994Z</time></trkpt><trkpt lat="45.8170434265807" lon="10.793039728394081"><ele>134.0</ele><time>2026-04-20T10:07:33.994Z</time></trkpt><trkpt lat="45.816981266192414" lon="10.792893332778354"><ele>140.0</ele><time>2026-04-20T10:07:34.994Z</time></trkpt><trkpt lat="45.81691748053448" lon="10.79274660061987"><ele>146.0</ele><time>2026-04-20T10:07:35.994Z</time></trkpt><trkpt lat="45.816847502332706" lon="10.792598496567813"><ele>143.0</ele><time>2026-04-20T10:07:36.994Z</time></trkpt><trkpt lat="45.816762997778355" lon="10.792450766132703"><ele>140.0</ele><time>2026-04-20T10:07:37.994Z</time></trkpt><trkpt lat="45.81666954533465" lon="10.792298542214253"><ele>137.0</ele><time>2026-04-20T10:07:38.994Z</time></trkpt><trkpt lat="45.81656471938333" lon="10.792145625923293"><ele>134.0</ele><time>2026-04-20T10:07:39.994Z</time></trkpt><trkpt lat="45.816448120307705" lon="10.791999352111604"><ele>123.0</ele><time>2026-04-20T10:07:40.994Z</time></trkpt><trkpt lat="45.81535777942229" lon="10.791233491263371"><ele>123.0</ele><time>2026-04-20T10:07:50.994Z</time></trkpt><trkpt lat="45.81523950604242" lon="10.791174092405535"><ele>123.0</ele><time>2026-04-20T10:07:51.994Z</time></trkpt><trkpt lat="45.81498616009945" lon="10.79138719670655"><ele>123.0</ele><time>2026-04-20T10:07:52.994Z</time></trkpt><trkpt lat="45.81478990942022" lon="10.791405617994466"><ele>118.4</ele><time>2026-04-20T10:07:53.994Z</time></trkpt><trkpt lat="45.81467135527324" lon="10.791428202499837"><ele>113.80000000000001</ele><time>2026-04-20T10:07:54.994Z</time></trkpt><trkpt lat="45.81457728191885" lon="10.791468927307013"><ele>109.2</ele><time>2026-04-20T10:07:55.994Z</time></trkpt><trkpt lat="45.81447860706554" lon="10.791455410374196"><ele>104.6</ele><time>2026-04-20T10:07:57.994Z</time></trkpt><trkpt lat="45.81438945735635" lon="10.791485785076915"><ele>100.0</ele><time>2026-04-20T10:07:59.994Z</time></trkpt><trkpt lat="45.814295064496726" lon="10.791534992446103"><ele>99.85714285714286</ele><time>2026-04-20T10:08:01.994Z</time></trkpt><trkpt lat="45.81423486782216" lon="10.791571381005879"><ele>99.71428571428572</ele><time>2026-04-20T10:08:02.994Z</time></trkpt><trkpt lat="45.8141665110904" lon="10.791611140879994"><ele>99.57142857142858</ele><time>2026-04-20T10:08:03.994Z</time></trkpt><trkpt lat="45.814099422971964" lon="10.791652605890885"><ele>99.42857142857143</ele><time>2026-04-20T10:08:04.994Z</time></trkpt><trkpt lat="45.8140244119677" lon="10.791700112724524"><ele>99.28571428571428</ele><time>2026-04-20T10:08:05.993Z</time></trkpt><trkpt lat="45.81395007567937" lon="10.791742191821662"><ele>99.14285714285715</ele><time>2026-04-20T10:08:06.994Z</time></trkpt><trkpt lat="45.81387913949299" lon="10.791772572860339"><ele>99.0</ele><time>2026-04-20T10:08:07.994Z</time></trkpt><trkpt lat="45.81380944799404" lon="10.791802251983665"><ele>99.0</ele><time>2026-04-20T10:08:08.994Z</time></trkpt><trkpt lat="45.81373891065807" lon="10.79183266167682"><ele>99.0</ele><time>2026-04-20T10:08:09.993Z</time></trkpt><trkpt lat="45.813663108387026" lon="10.791884057995508"><ele>99.0</ele><time>2026-04-20T10:08:10.993Z</time></trkpt><trkpt lat="45.813587671788376" lon="10.791930327336937"><ele>99.0</ele><time>2026-04-20T10:08:11.993Z</time></trkpt><trkpt lat="45.8134989466253" lon="10.791978117053185"><ele>99.0</ele><time>2026-04-20T10:08:12.993Z</time></trkpt><trkpt lat="45.81339601401416" lon="10.792034264884961"><ele>99.0</ele><time>2026-04-20T10:08:13.993Z</time></trkpt><trkpt lat="45.81329320126067" lon="10.792078778800047"><ele>97.5</ele><time>2026-04-20T10:08:14.993Z</time></trkpt><trkpt lat="45.813177507995526" lon="10.792130352854835"><ele>96.0</ele><time>2026-04-20T10:08:15.993Z</time></trkpt><trkpt lat="45.81305132617178" lon="10.792178039534074"><ele>94.5</ele><time>2026-04-20T10:08:16.993Z</time></trkpt><trkpt lat="45.812931976984274" lon="10.792209207869654"><ele>93.0</ele><time>2026-04-20T10:08:17.993Z</time></trkpt><trkpt lat="45.81282338251049" lon="10.792234054751509"><ele>93.0</ele><time>2026-04-20T10:08:18.993Z</time></trkpt><trkpt lat="45.81272139441719" lon="10.79225635080766"><ele>93.0</ele><time>2026-04-20T10:08:19.993Z</time></trkpt><trkpt lat="45.812609795881386" lon="10.792269970090977"><ele>93.0</ele><time>2026-04-20T10:08:20.993Z</time></trkpt><trkpt lat="45.812496385018726" lon="10.792253420832214"><ele>93.0</ele><time>2026-04-20T10:08:21.993Z</time></trkpt><trkpt lat="45.81237749917647" lon="10.79226235633925"><ele>93.0</ele><time>2026-04-20T10:08:22.993Z</time></trkpt><trkpt lat="45.81226650750692" lon="10.792251716519935"><ele>93.2</ele><time>2026-04-20T10:08:23.993Z</time></trkpt><trkpt lat="45.812159324613546" lon="10.792234261326332"><ele>93.4</ele><time>2026-04-20T10:08:24.993Z</time></trkpt><trkpt lat="45.81205533834656" lon="10.792209853113809"><ele>93.60000000000001</ele><time>2026-04-20T10:08:25.993Z</time></trkpt><trkpt lat="45.8119477145273" lon="10.792187155883186"><ele>93.80000000000001</ele><time>2026-04-20T10:08:26.993Z</time></trkpt><trkpt lat="45.811863137946226" lon="10.792158075825466"><ele>94.0</ele><time>2026-04-20T10:08:27.993Z</time></trkpt><trkpt lat="45.811792851393015" lon="10.792134468199162"><ele>94.0</ele><time>2026-04-20T10:08:28.993Z</time></trkpt><trkpt lat="45.81169211706548" lon="10.792104915881046"><ele>94.0</ele><time>2026-04-20T10:08:30.993Z</time></trkpt><trkpt lat="45.81158388106281" lon="10.792081035487838"><ele>94.0</ele><time>2026-04-20T10:08:32.993Z</time></trkpt><trkpt lat="45.81150717170819" lon="10.792055611111968"><ele>94.0</ele><time>2026-04-20T10:08:33.993Z</time></trkpt><trkpt lat="45.81141703186806" lon="10.792029667423868"><ele>94.0</ele><time>2026-04-20T10:08:34.993Z</time></trkpt><trkpt lat="45.81131217685568" lon="10.791996222909845"><ele>94.0</ele><time>2026-04-20T10:08:35.993Z</time></trkpt><trkpt lat="45.81120703847864" lon="10.791950467373216"><ele>94.0</ele><time>2026-04-20T10:08:36.993Z</time></trkpt><trkpt lat="45.811094435879674" lon="10.791899518877914"><ele>94.0</ele><time>2026-04-20T10:08:37.993Z</time></trkpt><trkpt lat="45.81097486810653" lon="10.791835002760388"><ele>94.0</ele><time>2026-04-20T10:08:38.993Z</time></trkpt><trkpt lat="45.81085598130928" lon="10.79174467028093"><ele>94.5</ele><time>2026-04-20T10:08:39.993Z</time></trkpt><trkpt lat="45.81073641811349" lon="10.791635669326327"><ele>95.0</ele><time>2026-04-20T10:08:40.993Z</time></trkpt><trkpt lat="45.81061644794449" lon="10.791518632144037"><ele>95.5</ele><time>2026-04-20T10:08:41.993Z</time></trkpt><trkpt lat="45.81049392544174" lon="10.79139538072018"><ele>96.0</ele><time>2026-04-20T10:08:42.993Z</time></trkpt><trkpt lat="45.81037034261189" lon="10.791270567781337"><ele>96.0</ele><time>2026-04-20T10:08:43.993Z</time></trkpt><trkpt lat="45.81024914593559" lon="10.791160548844942"><ele>96.0</ele><time>2026-04-20T10:08:44.993Z</time></trkpt><trkpt lat="45.81014189141824" lon="10.791071743286881"><ele>96.0</ele><time>2026-04-20T10:08:45.993Z</time></trkpt><trkpt lat="45.81006661742463" lon="10.790963474215875"><ele>96.0</ele><time>2026-04-20T10:08:46.993Z</time></trkpt><trkpt lat="45.809967831536134" lon="10.790884495208951"><ele>95.5</ele><time>2026-04-20T10:08:47.993Z</time></trkpt><trkpt lat="45.80986301792334" lon="10.790799069162178"><ele>95.0</ele><time>2026-04-20T10:08:48.993Z</time></trkpt><trkpt lat="45.80975458252752" lon="10.790710086930513"><ele>94.5</ele><time>2026-04-20T10:08:49.993Z</time></trkpt><trkpt lat="45.80965572176825" lon="10.790633342970496"><ele>94.0</ele><time>2026-04-20T10:08:50.993Z</time></trkpt><trkpt lat="45.809555674806234" lon="10.790554285038569"><ele>94.0</ele><time>2026-04-20T10:08:51.993Z</time></trkpt><trkpt lat="45.809457724419005" lon="10.790468699193148"><ele>94.0</ele><time>2026-04-20T10:08:52.993Z</time></trkpt><trkpt lat="45.80936647482802" lon="10.790388565260772"><ele>94.0</ele><time>2026-04-20T10:08:53.993Z</time></trkpt><trkpt lat="45.80927842869829" lon="10.790322229304852"><ele>94.0</ele><time>2026-04-20T10:08:54.993Z</time></trkpt><trkpt lat="45.80918812897881" lon="10.790244457100243"><ele>94.0</ele><time>2026-04-20T10:08:55.993Z</time></trkpt><trkpt lat="45.809094158155176" lon="10.79016107882549"><ele>94.2</ele><time>2026-04-20T10:08:56.993Z</time></trkpt><trkpt lat="45.809011324710504" lon="10.790069900899406"><ele>94.4</ele><time>2026-04-20T10:08:57.993Z</time></trkpt><trkpt lat="45.80892998479687" lon="10.789975869721998"><ele>94.6</ele><time>2026-04-20T10:08:58.993Z</time></trkpt><trkpt lat="45.8088410127368" lon="10.789877319483928"><ele>94.8</ele><time>2026-04-20T10:08:59.993Z</time></trkpt><trkpt lat="45.808761262232004" lon="10.789774778304304"><ele>95.0</ele><time>2026-04-20T10:09:00.993Z</time></trkpt><trkpt lat="45.80868439284674" lon="10.78965392950363"><ele>95.0</ele><time>2026-04-20T10:09:01.993Z</time></trkpt><trkpt lat="45.80860301873845" lon="10.789533012344572"><ele>95.0</ele><time>2026-04-20T10:09:02.993Z</time></trkpt><trkpt lat="45.808523205331696" lon="10.789400082460634"><ele>95.0</ele><time>2026-04-20T10:09:03.993Z</time></trkpt><trkpt lat="45.80844271471575" lon="10.789263090430882"><ele>95.0</ele><time>2026-04-20T10:09:04.993Z</time></trkpt><trkpt lat="45.8083789559255" lon="10.789126045064236"><ele>94.0</ele><time>2026-04-20T10:09:05.993Z</time></trkpt><trkpt lat="45.80831443655032" lon="10.788990681145222"><ele>93.0</ele><time>2026-04-20T10:09:06.993Z</time></trkpt><trkpt lat="45.80825790010922" lon="10.788862065287127"><ele>92.0</ele><time>2026-04-20T10:09:07.993Z</time></trkpt><trkpt lat="45.80821170992821" lon="10.788748727173669"><ele>91.0</ele><time>2026-04-20T10:09:08.993Z</time></trkpt><trkpt lat="45.80816716769821" lon="10.788632162997711"><ele>90.0</ele><time>2026-04-20T10:09:09.993Z</time></trkpt><trkpt lat="45.8081097348356" lon="10.788517028018534"><ele>90.6</ele><time>2026-04-20T10:09:10.993Z</time></trkpt><trkpt lat="45.80804915289123" lon="10.788407313408078"><ele>91.2</ele><time>2026-04-20T10:09:11.993Z</time></trkpt><trkpt lat="45.80797943043747" lon="10.788303830746553"><ele>91.80000000000001</ele><time>2026-04-20T10:09:12.993Z</time></trkpt><trkpt lat="45.80790766800604" lon="10.788201577562933"><ele>92.4</ele><time>2026-04-20T10:09:13.993Z</time></trkpt><trkpt lat="45.80783764739477" lon="10.788110909375876"><ele>93.0</ele><time>2026-04-20T10:09:14.993Z</time></trkpt><trkpt lat="45.80775581444101" lon="10.788016187167722"><ele>93.0</ele><time>2026-04-20T10:09:15.993Z</time></trkpt><trkpt lat="45.807667594710715" lon="10.787931758320056"><ele>93.0</ele><time>2026-04-20T10:09:16.993Z</time></trkpt><trkpt lat="45.80758529789831" lon="10.787859986570334"><ele>93.0</ele><time>2026-04-20T10:09:17.993Z</time></trkpt><trkpt lat="45.80748503406152" lon="10.787784050429478"><ele>93.0</ele><time>2026-04-20T10:09:18.993Z</time></trkpt><trkpt lat="45.80737219381566" lon="10.787714947864075"><ele>93.0</ele><time>2026-04-20T10:09:19.993Z</time></trkpt><trkpt lat="45.8072603871313" lon="10.787657208219057"><ele>93.4</ele><time>2026-04-20T10:09:20.993Z</time></trkpt><trkpt lat="45.80715908335586" lon="10.787610258032563"><ele>93.80000000000001</ele><time>2026-04-20T10:09:21.993Z</time></trkpt><trkpt lat="45.80706809309625" lon="10.787576503485836"><ele>94.2</ele><time>2026-04-20T10:09:22.993Z</time></trkpt><trkpt lat="45.80696661413588" lon="10.787551830410743"><ele>94.6</ele><time>2026-04-20T10:09:23.993Z</time></trkpt><trkpt lat="45.80686528251674" lon="10.787486314608538"><ele>95.0</ele><time>2026-04-20T10:09:24.993Z</time></trkpt><trkpt lat="45.80675447953526" lon="10.787454906496874"><ele>93.75</ele><time>2026-04-20T10:09:25.993Z</time></trkpt><trkpt lat="45.8066402374394" lon="10.787429284390775"><ele>92.5</ele><time>2026-04-20T10:09:26.993Z</time></trkpt><trkpt lat="45.806525464345285" lon="10.787404629329874"><ele>91.25</ele><time>2026-04-20T10:09:27.993Z</time></trkpt><trkpt lat="45.80640670427971" lon="10.787381509236221"><ele>90.0</ele><time>2026-04-20T10:09:28.993Z</time></trkpt><trkpt lat="45.80629198940063" lon="10.787365723841203"><ele>90.0</ele><time>2026-04-20T10:09:29.993Z</time></trkpt><trkpt lat="45.80617834160363" lon="10.787354917111195"><ele>90.0</ele><time>2026-04-20T10:09:30.993Z</time></trkpt><trkpt lat="45.80606448410738" lon="10.787315508530943"><ele>90.0</ele><time>2026-04-20T10:09:31.993Z</time></trkpt><trkpt lat="45.80595991290391" lon="10.787307000460796"><ele>90.0</ele><time>2026-04-20T10:09:32.993Z</time></trkpt><trkpt lat="45.80585756870851" lon="10.787303609703528"><ele>90.0</ele><time>2026-04-20T10:09:33.993Z</time></trkpt><trkpt lat="45.80575141191093" lon="10.787307907796107"><ele>89.5</ele><time>2026-04-20T10:09:34.993Z</time></trkpt><trkpt lat="45.80566140135494" lon="10.787307820922997"><ele>89.0</ele><time>2026-04-20T10:09:35.993Z</time></trkpt><trkpt lat="45.805560680416576" lon="10.787302194947692"><ele>88.5</ele><time>2026-04-20T10:09:37.993Z</time></trkpt><trkpt lat="45.8054791273428" lon="10.787304098738302"><ele>88.0</ele><time>2026-04-20T10:09:43.993Z</time></trkpt><trkpt lat="45.805377149075525" lon="10.787326882494481"><ele>87.5</ele><time>2026-04-20T10:09:45.993Z</time></trkpt><trkpt lat="45.80530992085104" lon="10.787339289074723"><ele>87.0</ele><time>2026-04-20T10:09:46.993Z</time></trkpt><trkpt lat="45.805242910600164" lon="10.787343457858881"><ele>86.8</ele><time>2026-04-20T10:09:47.993Z</time></trkpt><trkpt lat="45.80515146185756" lon="10.78733683219069"><ele>86.6</ele><time>2026-04-20T10:09:49.993Z</time></trkpt><trkpt lat="45.80503788760157" lon="10.787336223298988"><ele>86.39999999999999</ele><time>2026-04-20T10:09:51.993Z</time></trkpt><trkpt lat="45.80495925702141" lon="10.787349015857098"><ele>86.19999999999999</ele><time>2026-04-20T10:09:52.993Z</time></trkpt><trkpt lat="45.80486952335857" lon="10.787361748239393"><ele>86.0</ele><time>2026-04-20T10:09:53.993Z</time></trkpt><trkpt lat="45.80477486553368" lon="10.787369631660093"><ele>86.0</ele><time>2026-04-20T10:09:54.993Z</time></trkpt><trkpt lat="45.80467879633097" lon="10.787379956443273"><ele>86.0</ele><time>2026-04-20T10:09:55.993Z</time></trkpt><trkpt lat="45.80458921463931" lon="10.787385169834899"><ele>86.0</ele><time>2026-04-20T10:09:56.993Z</time></trkpt><trkpt lat="45.80449411303161" lon="10.787389095199797"><ele>86.0</ele><time>2026-04-20T10:09:57.993Z</time></trkpt><trkpt lat="45.804389175867655" lon="10.78738871662443"><ele>86.0</ele><time>2026-04-20T10:09:58.993Z</time></trkpt><trkpt lat="45.80427536957817" lon="10.787381074507175"><ele>85.75</ele><time>2026-04-20T10:09:59.993Z</time></trkpt><trkpt lat="45.80415893887817" lon="10.787367473340321"><ele>85.5</ele><time>2026-04-20T10:10:00.993Z</time></trkpt><trkpt lat="45.80404630099668" lon="10.787352460425586"><ele>85.25</ele><time>2026-04-20T10:10:01.993Z</time></trkpt><trkpt lat="45.80393268970852" lon="10.787324993463978"><ele>85.0</ele><time>2026-04-20T10:10:02.993Z</time></trkpt><trkpt lat="45.803820337551876" lon="10.787295763886098"><ele>85.0</ele><time>2026-04-20T10:10:03.993Z</time></trkpt><trkpt lat="45.80370674675717" lon="10.78725643542972"><ele>85.0</ele><time>2026-04-20T10:10:04.993Z</time></trkpt><trkpt lat="45.80358389965853" lon="10.78720492274941"><ele>85.0</ele><time>2026-04-20T10:10:05.992Z</time></trkpt><trkpt lat="45.80346483222806" lon="10.787156943178328"><ele>85.0</ele><time>2026-04-20T10:10:06.992Z</time></trkpt><trkpt lat="45.803349210095796" lon="10.787103685451829"><ele>84.0</ele><time>2026-04-20T10:10:07.992Z</time></trkpt><trkpt lat="45.80323342157595" lon="10.787061212033239"><ele>83.0</ele><time>2026-04-20T10:10:08.992Z</time></trkpt><trkpt lat="45.80312024551707" lon="10.787020056788831"><ele>82.0</ele><time>2026-04-20T10:10:09.993Z</time></trkpt><trkpt lat="45.80300527796875" lon="10.786953736101545"><ele>81.0</ele><time>2026-04-20T10:10:10.993Z</time></trkpt><trkpt lat="45.80288171090034" lon="10.786925747831399"><ele>81.0</ele><time>2026-04-20T10:10:11.993Z</time></trkpt><trkpt lat="45.80276608889283" lon="10.786854823090861"><ele>81.0</ele><time>2026-04-20T10:10:12.993Z</time></trkpt><trkpt lat="45.80265638638779" lon="10.786808136741547"><ele>81.0</ele><time>2026-04-20T10:10:13.993Z</time></trkpt><trkpt lat="45.80255532385953" lon="10.786768580351858"><ele>81.0</ele><time>2026-04-20T10:10:14.992Z</time></trkpt><trkpt lat="45.80247398080039" lon="10.786735003698436"><ele>81.0</ele><time>2026-04-20T10:10:15.992Z</time></trkpt><trkpt lat="45.80240961890766" lon="10.786707284493408"><ele>81.8</ele><time>2026-04-20T10:10:16.992Z</time></trkpt><trkpt lat="45.802310844037386" lon="10.786665830592161"><ele>82.6</ele><time>2026-04-20T10:10:18.992Z</time></trkpt><trkpt lat="45.80224461128919" lon="10.786635975990166"><ele>83.4</ele><time>2026-04-20T10:10:19.992Z</time></trkpt><trkpt lat="45.80215560833002" lon="10.786599827476184"><ele>84.2</ele><time>2026-04-20T10:10:20.992Z</time></trkpt><trkpt lat="45.80204654190217" lon="10.786532188439985"><ele>85.0</ele><time>2026-04-20T10:10:21.992Z</time></trkpt><trkpt lat="45.80193690854142" lon="10.786457116409437"><ele>82.75</ele><time>2026-04-20T10:10:22.992Z</time></trkpt><trkpt lat="45.801824581926624" lon="10.786379196694934"><ele>80.5</ele><time>2026-04-20T10:10:23.992Z</time></trkpt><trkpt lat="45.80171144180272" lon="10.786261944177337"><ele>78.25</ele><time>2026-04-20T10:10:24.992Z</time></trkpt><trkpt lat="45.80158933833779" lon="10.786141200200454"><ele>76.0</ele><time>2026-04-20T10:10:25.992Z</time></trkpt><trkpt lat="45.80147912818824" lon="10.786037677498236"><ele>78.25</ele><time>2026-04-20T10:10:26.992Z</time></trkpt><trkpt lat="45.80135570819819" lon="10.78591693990984"><ele>80.5</ele><time>2026-04-20T10:10:27.992Z</time></trkpt><trkpt lat="45.801247255338524" lon="10.785793512371258"><ele>82.75</ele><time>2026-04-20T10:10:28.992Z</time></trkpt><trkpt lat="45.801136520242146" lon="10.785671539559647"><ele>85.0</ele><time>2026-04-20T10:10:29.992Z</time></trkpt><trkpt lat="45.80102364329384" lon="10.785534722898445"><ele>84.25</ele><time>2026-04-20T10:10:30.992Z</time></trkpt><trkpt lat="45.80092055727865" lon="10.785382551812617"><ele>83.5</ele><time>2026-04-20T10:10:31.992Z</time></trkpt><trkpt lat="45.80083086816145" lon="10.78521580457466"><ele>82.75</ele><time>2026-04-20T10:10:32.992Z</time></trkpt><trkpt lat="45.800752167487154" lon="10.785037078409994"><ele>82.0</ele><time>2026-04-20T10:10:33.992Z</time></trkpt><trkpt lat="45.80067801564333" lon="10.7848386764378"><ele>82.0</ele><time>2026-04-20T10:10:34.992Z</time></trkpt><trkpt lat="45.800611986784766" lon="10.784623535658463"><ele>82.0</ele><time>2026-04-20T10:10:35.992Z</time></trkpt><trkpt lat="45.80057491063177" lon="10.784400664320763"><ele>82.0</ele><time>2026-04-20T10:10:36.992Z</time></trkpt><trkpt lat="45.80049779243939" lon="10.784191730202132"><ele>84.5</ele><time>2026-04-20T10:10:37.992Z</time></trkpt><trkpt lat="45.80044684755641" lon="10.783996602238304"><ele>87.0</ele><time>2026-04-20T10:10:38.992Z</time></trkpt><trkpt lat="45.80040630967781" lon="10.783827837015073"><ele>89.5</ele><time>2026-04-20T10:10:39.992Z</time></trkpt><trkpt lat="45.80034206733102" lon="10.78367070678749"><ele>92.0</ele><time>2026-04-20T10:10:40.992Z</time></trkpt><trkpt lat="45.800257118221836" lon="10.78353849721495"><ele>98.33333333333334</ele><time>2026-04-20T10:10:41.992Z</time></trkpt><trkpt lat="45.800147861677445" lon="10.783442868197167"><ele>104.66666666666667</ele><time>2026-04-20T10:10:42.992Z</time></trkpt><trkpt lat="45.800001788468016" lon="10.783378418484418"><ele>111.0</ele><time>2026-04-20T10:10:43.992Z</time></trkpt><trkpt lat="45.7998301599695" lon="10.783358851405463"><ele>111.0</ele><time>2026-04-20T10:10:44.992Z</time></trkpt><trkpt lat="45.7996621320883" lon="10.783343914110189"><ele>111.0</ele><time>2026-04-20T10:10:45.992Z</time></trkpt><trkpt lat="45.79949163820453" lon="10.78331859323933"><ele>111.0</ele><time>2026-04-20T10:10:46.992Z</time></trkpt><trkpt lat="45.79933302270852" lon="10.783303386713305"><ele>100.33333333333333</ele><time>2026-04-20T10:10:47.992Z</time></trkpt><trkpt lat="45.79917864881914" lon="10.783282753269205"><ele>89.66666666666666</ele><time>2026-04-20T10:10:48.992Z</time></trkpt><trkpt lat="45.799014409139694" lon="10.783226545972537"><ele>79.0</ele><time>2026-04-20T10:10:49.992Z</time></trkpt><trkpt lat="45.79885395801088" lon="10.783137597182282"><ele>79.0</ele><time>2026-04-20T10:10:50.992Z</time></trkpt><trkpt lat="45.798692307029576" lon="10.783065834707823"><ele>79.0</ele><time>2026-04-20T10:10:51.992Z</time></trkpt><trkpt lat="45.798521482509386" lon="10.782967816667306"><ele>79.0</ele><time>2026-04-20T10:10:52.992Z</time></trkpt><trkpt lat="45.798368149581" lon="10.782892540729815"><ele>78.66666666666666</ele><time>2026-04-20T10:10:53.992Z</time></trkpt><trkpt lat="45.79820270355883" lon="10.782820099511655"><ele>78.33333333333333</ele><time>2026-04-20T10:10:54.992Z</time></trkpt><trkpt lat="45.798024422595404" lon="10.782808568011683"><ele>78.0</ele><time>2026-04-20T10:10:55.992Z</time></trkpt><trkpt lat="45.7978458424181" lon="10.7828359018019"><ele>78.0</ele><time>2026-04-20T10:10:56.992Z</time></trkpt><trkpt lat="45.79769361561561" lon="10.782860847625736"><ele>78.0</ele><time>2026-04-20T10:10:57.992Z</time></trkpt><trkpt lat="45.7975271418125" lon="10.782861069031355"><ele>78.0</ele><time>2026-04-20T10:10:58.992Z</time></trkpt><trkpt lat="45.79736308230637" lon="10.782831505463331"><ele>78.0</ele><time>2026-04-20T10:10:59.992Z</time></trkpt><trkpt lat="45.79719460172984" lon="10.78281739976317"><ele>78.0</ele><time>2026-04-20T10:11:00.992Z</time></trkpt><trkpt lat="45.797043765190416" lon="10.78279616446118"><ele>78.0</ele><time>2026-04-20T10:11:01.992Z</time></trkpt><trkpt lat="45.79687938491739" lon="10.782799840558763"><ele>78.0</ele><time>2026-04-20T10:11:02.992Z</time></trkpt><trkpt lat="45.79670410486772" lon="10.782821764451556"><ele>78.0</ele><time>2026-04-20T10:11:03.992Z</time></trkpt><trkpt lat="45.79654170254274" lon="10.782849850383478"><ele>78.0</ele><time>2026-04-20T10:11:04.992Z</time></trkpt><trkpt lat="45.79639500008407" lon="10.782870269690429"><ele>78.0</ele><time>2026-04-20T10:11:05.992Z</time></trkpt><trkpt lat="45.796243949297164" lon="10.782872850564313"><ele>78.0</ele><time>2026-04-20T10:11:06.992Z</time></trkpt><trkpt lat="45.79611172048269" lon="10.782792950034853"><ele>78.0</ele><time>2026-04-20T10:11:07.992Z</time></trkpt><trkpt lat="45.79596664916502" lon="10.78271911066264"><ele>78.0</ele><time>2026-04-20T10:11:08.992Z</time></trkpt><trkpt lat="45.79581805311957" lon="10.782612750406514"><ele>78.0</ele><time>2026-04-20T10:11:09.992Z</time></trkpt><trkpt lat="45.79565155352322" lon="10.782523368032058"><ele>78.0</ele><time>2026-04-20T10:11:10.992Z</time></trkpt><trkpt lat="45.79548736313784" lon="10.782422634390088"><ele>78.0</ele><time>2026-04-20T10:11:11.992Z</time></trkpt><trkpt lat="45.795311078868515" lon="10.782357779951019"><ele>78.0</ele><time>2026-04-20T10:11:12.992Z</time></trkpt><trkpt lat="45.79514863595038" lon="10.782298441093062"><ele>78.0</ele><time>2026-04-20T10:11:13.992Z</time></trkpt><trkpt lat="45.794996458290285" lon="10.782235775395042"><ele>78.0</ele><time>2026-04-20T10:11:14.992Z</time></trkpt><trkpt lat="45.794854496247424" lon="10.78215594654358"><ele>112.0</ele><time>2026-04-20T10:11:15.992Z</time></trkpt><trkpt lat="45.79471964369411" lon="10.782047365380722"><ele>146.0</ele><time>2026-04-20T10:11:16.992Z</time></trkpt><trkpt lat="45.79458029272944" lon="10.781902852542903"><ele>180.0</ele><time>2026-04-20T10:11:17.992Z</time></trkpt><trkpt lat="45.794436103198734" lon="10.781745803606173"><ele>180.0</ele><time>2026-04-20T10:11:18.992Z</time></trkpt><trkpt lat="45.79427955015707" lon="10.781593978979854"><ele>180.0</ele><time>2026-04-20T10:11:19.992Z</time></trkpt><trkpt lat="45.79411905401612" lon="10.781449843484143"><ele>180.0</ele><time>2026-04-20T10:11:20.992Z</time></trkpt><trkpt lat="45.79396920995595" lon="10.781314373608538"><ele>198.33333333333331</ele><time>2026-04-20T10:11:21.992Z</time></trkpt><trkpt lat="45.793823151582814" lon="10.781176522271426"><ele>216.66666666666666</ele><time>2026-04-20T10:11:22.992Z</time></trkpt><trkpt lat="45.793680686931175" lon="10.781040881159832"><ele>235.0</ele><time>2026-04-20T10:11:23.992Z</time></trkpt><trkpt lat="45.79353771193537" lon="10.78090373567757"><ele>235.0</ele><time>2026-04-20T10:11:24.992Z</time></trkpt><trkpt lat="45.793401887196964" lon="10.780776870612842"><ele>235.0</ele><time>2026-04-20T10:11:25.992Z</time></trkpt><trkpt lat="45.79326690244727" lon="10.780662203166733"><ele>235.0</ele><time>2026-04-20T10:11:26.992Z</time></trkpt><trkpt lat="45.793113192564185" lon="10.780545609452846"><ele>235.0</ele><time>2026-04-20T10:11:27.992Z</time></trkpt><trkpt lat="45.792949894335834" lon="10.780433209368493"><ele>235.0</ele><time>2026-04-20T10:11:28.992Z</time></trkpt><trkpt lat="45.79279278935043" lon="10.780329067027264"><ele>235.0</ele><time>2026-04-20T10:11:29.992Z</time></trkpt><trkpt lat="45.79264020665108" lon="10.780239588523168"><ele>238.5</ele><time>2026-04-20T10:11:30.992Z</time></trkpt><trkpt lat="45.79248939932974" lon="10.780157933041911"><ele>242.0</ele><time>2026-04-20T10:11:31.992Z</time></trkpt><trkpt lat="45.79235818322968" lon="10.780089038922972"><ele>245.5</ele><time>2026-04-20T10:11:32.992Z</time></trkpt><trkpt lat="45.79222413383884" lon="10.78001865716403"><ele>249.0</ele><time>2026-04-20T10:11:33.992Z</time></trkpt><trkpt lat="45.79211958945255" lon="10.77996376684511"><ele>249.0</ele><time>2026-04-20T10:11:34.992Z</time></trkpt><trkpt lat="45.79201896099088" lon="10.779910932579062"><ele>249.0</ele><time>2026-04-20T10:11:35.992Z</time></trkpt><trkpt lat="45.791914489924075" lon="10.779840279437591"><ele>249.0</ele><time>2026-04-20T10:11:36.992Z</time></trkpt><trkpt lat="45.79180836050783" lon="10.779777232026563"><ele>249.0</ele><time>2026-04-20T10:11:37.992Z</time></trkpt><trkpt lat="45.79168158149424" lon="10.77970075947541"><ele>232.0</ele><time>2026-04-20T10:11:39.133Z</time></trkpt><trkpt lat="45.789804943895476" lon="10.778646510459353"><ele>235.0</ele><time>2026-04-20T10:11:42.56Z</time></trkpt><trkpt lat="45.78935089699517" lon="10.778027951301999"><ele>262.0</ele><time>2026-04-20T10:11:43.557Z</time></trkpt><trkpt lat="45.78879712275918" lon="10.777610691981364"><ele>286.0</ele><time>2026-04-20T10:11:44.559Z</time></trkpt><trkpt lat="45.78820956797044" lon="10.777293310138178"><ele>286.0</ele><time>2026-04-20T10:11:45.556Z</time></trkpt><trkpt lat="45.787619271403884" lon="10.776973895775406"><ele>350.0</ele><time>2026-04-20T10:11:46.558Z</time></trkpt><trkpt lat="45.78701437202104" lon="10.776722069686732"><ele>350.0</ele><time>2026-04-20T10:11:47.56Z</time></trkpt><trkpt lat="45.78638818409795" lon="10.776687684899109"><ele>350.0</ele><time>2026-04-20T10:11:48.558Z</time></trkpt><trkpt lat="45.78577113805944" lon="10.776867505684498"><ele>350.0</ele><time>2026-04-20T10:11:49.56Z</time></trkpt><trkpt lat="45.785171958328064" lon="10.777133897941392"><ele>350.0</ele><time>2026-04-20T10:11:50.556Z</time></trkpt><trkpt lat="45.7847902" lon="10.7773022"><ele>350.0</ele><time>2026-04-20T10:11:51.561Z</time></trkpt><trkpt lat="45.783799566564525" lon="10.777725008411462"><ele>265.0</ele><time>2026-04-20T10:12:35.992Z</time></trkpt><trkpt lat="45.783654566775695" lon="10.777604574284545"><ele>180.0</ele><time>2026-04-20T10:12:36.992Z</time></trkpt><trkpt lat="45.78348820652236" lon="10.777531755504599"><ele>95.0</ele><time>2026-04-20T10:12:37.992Z</time></trkpt><trkpt lat="45.78331783266652" lon="10.777533422453812"><ele>93.5</ele><time>2026-04-20T10:12:38.992Z</time></trkpt><trkpt lat="45.7831565343106" lon="10.777521693868387"><ele>92.0</ele><time>2026-04-20T10:12:39.992Z</time></trkpt><trkpt lat="45.783029160703286" lon="10.777478528833859"><ele>90.5</ele><time>2026-04-20T10:12:40.991Z</time></trkpt><trkpt lat="45.78288447535878" lon="10.777429149369665"><ele>89.0</ele><time>2026-04-20T10:12:41.991Z</time></trkpt><trkpt lat="45.78275811000313" lon="10.77736522064991"><ele>88.0</ele><time>2026-04-20T10:12:42.991Z</time></trkpt><trkpt lat="45.78262578944204" lon="10.777298432958952"><ele>87.0</ele><time>2026-04-20T10:12:43.991Z</time></trkpt><trkpt lat="45.78247639463876" lon="10.77724187479645"><ele>86.0</ele><time>2026-04-20T10:12:44.991Z</time></trkpt><trkpt lat="45.78234095188395" lon="10.777205051194729"><ele>85.0</ele><time>2026-04-20T10:12:45.991Z</time></trkpt><trkpt lat="45.78218611282902" lon="10.77715579761938"><ele>85.0</ele><time>2026-04-20T10:12:46.991Z</time></trkpt><trkpt lat="45.782049798674315" lon="10.777072260483727"><ele>85.0</ele><time>2026-04-20T10:12:47.991Z</time></trkpt><trkpt lat="45.78191737730198" lon="10.777005481671202"><ele>85.0</ele><time>2026-04-20T10:12:48.991Z</time></trkpt><trkpt lat="45.781801764399525" lon="10.776923975844202"><ele>85.0</ele><time>2026-04-20T10:12:49.991Z</time></trkpt><trkpt lat="45.781691536679844" lon="10.776799262214691"><ele>87.25</ele><time>2026-04-20T10:12:50.991Z</time></trkpt><trkpt lat="45.781582708885665" lon="10.776666976279511"><ele>89.5</ele><time>2026-04-20T10:12:51.991Z</time></trkpt><trkpt lat="45.78149370165332" lon="10.776523848325516"><ele>91.75</ele><time>2026-04-20T10:12:52.991Z</time></trkpt><trkpt lat="45.78145227752534" lon="10.776385961804534"><ele>94.0</ele><time>2026-04-20T10:12:53.991Z</time></trkpt><trkpt lat="45.78140551504512" lon="10.7761189876074"><ele>100.25</ele><time>2026-04-20T10:12:54.991Z</time></trkpt><trkpt lat="45.78138955331028" lon="10.775862737174801"><ele>106.5</ele><time>2026-04-20T10:12:55.991Z</time></trkpt><trkpt lat="45.78134730209522" lon="10.775686808778133"><ele>112.75</ele><time>2026-04-20T10:12:56.991Z</time></trkpt><trkpt lat="45.781301332066164" lon="10.775520464911313"><ele>119.0</ele><time>2026-04-20T10:12:57.991Z</time></trkpt><trkpt lat="45.78122339281898" lon="10.775354619387391"><ele>116.0</ele><time>2026-04-20T10:12:58.991Z</time></trkpt><trkpt lat="45.781164316848304" lon="10.775136659626297"><ele>113.0</ele><time>2026-04-20T10:12:59.991Z</time></trkpt><trkpt lat="45.781106906090706" lon="10.774955557874762"><ele>110.0</ele><time>2026-04-20T10:13:00.991Z</time></trkpt><trkpt lat="45.78104322767543" lon="10.774769861529858"><ele>107.0</ele><time>2026-04-20T10:13:01.991Z</time></trkpt><trkpt lat="45.78097061651865" lon="10.774580028864852"><ele>107.0</ele><time>2026-04-20T10:13:02.991Z</time></trkpt><trkpt lat="45.78089407542559" lon="10.77440270143209"><ele>107.0</ele><time>2026-04-20T10:13:03.991Z</time></trkpt><trkpt lat="45.780807824629925" lon="10.77424048578126"><ele>107.0</ele><time>2026-04-20T10:13:04.991Z</time></trkpt><trkpt lat="45.78069610817819" lon="10.774103057628059"><ele>107.0</ele><time>2026-04-20T10:13:05.991Z</time></trkpt><trkpt lat="45.780609813848" lon="10.773948402911111"><ele>108.0</ele><time>2026-04-20T10:13:06.991Z</time></trkpt><trkpt lat="45.78049632687822" lon="10.773853583419976"><ele>109.0</ele><time>2026-04-20T10:13:07.991Z</time></trkpt><trkpt lat="45.780398632642694" lon="10.773781404444211"><ele>110.0</ele><time>2026-04-20T10:13:08.991Z</time></trkpt><trkpt lat="45.780304395601895" lon="10.773711611866355"><ele>111.0</ele><time>2026-04-20T10:13:09.991Z</time></trkpt><trkpt lat="45.780151349952384" lon="10.773596033562606"><ele>110.66666666666666</ele><time>2026-04-20T10:13:10.991Z</time></trkpt><trkpt lat="45.78001280740939" lon="10.773489077054801"><ele>110.33333333333333</ele><time>2026-04-20T10:13:12.132Z</time></trkpt><trkpt lat="45.77989372248063" lon="10.773386963331975"><ele>110.0</ele><time>2026-04-20T10:13:13.134Z</time></trkpt><trkpt lat="45.779772894881596" lon="10.773241514273197"><ele>110.0</ele><time>2026-04-20T10:13:14.134Z</time></trkpt><trkpt lat="45.779657282179514" lon="10.773141096718172"><ele>110.0</ele><time>2026-04-20T10:13:14.991Z</time></trkpt><trkpt lat="45.779527997327804" lon="10.773029504704468"><ele>110.0</ele><time>2026-04-20T10:13:15.991Z</time></trkpt><trkpt lat="45.77940286409007" lon="10.772893234647372"><ele>110.0</ele><time>2026-04-20T10:13:16.991Z</time></trkpt><trkpt lat="45.779277709499056" lon="10.772760264889717"><ele>107.25</ele><time>2026-04-20T10:13:17.991Z</time></trkpt><trkpt lat="45.779178346336344" lon="10.772627701667624"><ele>104.5</ele><time>2026-04-20T10:13:18.991Z</time></trkpt><trkpt lat="45.77907545000819" lon="10.772483868070658"><ele>101.75</ele><time>2026-04-20T10:13:19.991Z</time></trkpt><trkpt lat="45.77897092404312" lon="10.772337756430433"><ele>99.0</ele><time>2026-04-20T10:13:20.991Z</time></trkpt><trkpt lat="45.77886131518962" lon="10.772185329078102"><ele>99.0</ele><time>2026-04-20T10:13:22.131Z</time></trkpt><trkpt lat="45.77880433132875" lon="10.772106284571592"><ele>99.0</ele><time>2026-04-20T10:13:23.133Z</time></trkpt><trkpt lat="45.77869634859634" lon="10.771956075401308"><ele>99.0</ele><time>2026-04-20T10:13:24.132Z</time></trkpt><trkpt lat="45.77856149806529" lon="10.77176807602421"><ele>99.0</ele><time>2026-04-20T10:13:25.134Z</time></trkpt><trkpt lat="45.77847212754173" lon="10.771642907847438"><ele>96.5</ele><time>2026-04-20T10:13:26.132Z</time></trkpt><trkpt lat="45.77836559457816" lon="10.771493702802621"><ele>94.0</ele><time>2026-04-20T10:13:27.131Z</time></trkpt><trkpt lat="45.77827041022072" lon="10.771390374806794"><ele>91.5</ele><time>2026-04-20T10:13:28.132Z</time></trkpt><trkpt lat="45.77819323114422" lon="10.771192752937338"><ele>89.0</ele><time>2026-04-20T10:13:29.134Z</time></trkpt><trkpt lat="45.77808475435105" lon="10.771014125623264"><ele>106.66666666666667</ele><time>2026-04-20T10:13:30.132Z</time></trkpt><trkpt lat="45.77797760156091" lon="10.770843621322047"><ele>124.33333333333334</ele><time>2026-04-20T10:13:31.134Z</time></trkpt><trkpt lat="45.77785455837127" lon="10.770653007800078"><ele>142.0</ele><time>2026-04-20T10:13:32.132Z</time></trkpt><trkpt lat="45.77773655926417" lon="10.770465981008176"><ele>142.0</ele><time>2026-04-20T10:13:33.131Z</time></trkpt><trkpt lat="45.77762906264793" lon="10.770298913345146"><ele>142.0</ele><time>2026-04-20T10:13:34.134Z</time></trkpt><trkpt lat="45.777506604998685" lon="10.77015018902411"><ele>142.0</ele><time>2026-04-20T10:13:35.133Z</time></trkpt><trkpt lat="45.77739137482114" lon="10.770001700024755"><ele>142.0</ele><time>2026-04-20T10:13:36.134Z</time></trkpt><trkpt lat="45.77726429769406" lon="10.769861906976859"><ele>142.0</ele><time>2026-04-20T10:13:37.133Z</time></trkpt><trkpt lat="45.77714064484492" lon="10.769677478007452"><ele>142.0</ele><time>2026-04-20T10:13:39.133Z</time></trkpt><trkpt lat="45.77705070404782" lon="10.769541742862177"><ele>142.0</ele><time>2026-04-20T10:13:40.134Z</time></trkpt><trkpt lat="45.777451063970524" lon="10.768550686042229"><ele>218.33333333333334</ele><time>2026-04-20T10:13:41.132Z</time></trkpt><trkpt lat="45.77741873915107" lon="10.768353732413711"><ele>294.6666666666667</ele><time>2026-04-20T10:13:42.134Z</time></trkpt><trkpt lat="45.77739139403009" lon="10.768133880261997"><ele>371.0</ele><time>2026-04-20T10:13:43.132Z</time></trkpt><trkpt lat="45.77736604429054" lon="10.767909468821477"><ele>394.0</ele><time>2026-04-20T10:13:44.132Z</time></trkpt><trkpt lat="45.777254381606085" lon="10.767483133255265"><ele>417.0</ele><time>2026-04-20T10:13:45.132Z</time></trkpt><trkpt lat="45.777171356704976" lon="10.767145601421408"><ele>428.0</ele><time>2026-04-20T10:13:46.134Z</time></trkpt><trkpt lat="45.77709063077122" lon="10.766812494603206"><ele>439.0</ele><time>2026-04-20T10:13:47.135Z</time></trkpt><trkpt lat="45.77704053491885" lon="10.766559297130097"><ele>450.0</ele><time>2026-04-20T10:13:48.135Z</time></trkpt><trkpt lat="45.77699212327419" lon="10.766326497646045"><ele>450.0</ele><time>2026-04-20T10:13:49.131Z</time></trkpt><trkpt lat="45.77694211963982" lon="10.76607139180135"><ele>450.0</ele><time>2026-04-20T10:13:50.131Z</time></trkpt><trkpt lat="45.776893029755456" lon="10.765819069242662"><ele>450.0</ele><time>2026-04-20T10:13:51.133Z</time></trkpt><trkpt lat="45.77684514465465" lon="10.76556695185359"><ele>392.0</ele><time>2026-04-20T10:13:52.133Z</time></trkpt><trkpt lat="45.768961669416775" lon="10.76277513296354"><ele>392.0</ele><time>2026-04-20T10:14:41.991Z</time></trkpt><trkpt lat="45.7689903668064" lon="10.762583026145737"><ele>392.0</ele><time>2026-04-20T10:14:42.991Z</time></trkpt><trkpt lat="45.76893105181393" lon="10.762521314550456"><ele>392.0</ele><time>2026-04-20T10:14:43.991Z</time></trkpt><trkpt lat="45.768856368344245" lon="10.762443158081073"><ele>392.0</ele><time>2026-04-20T10:14:44.991Z</time></trkpt><trkpt lat="45.76878614035913" lon="10.76236956071291"><ele>392.0</ele><time>2026-04-20T10:14:45.991Z</time></trkpt><trkpt lat="45.76870366927785" lon="10.762313068964307"><ele>392.0</ele><time>2026-04-20T10:14:46.99Z</time></trkpt><trkpt lat="45.7686209967961" lon="10.762167983599808"><ele>392.0</ele><time>2026-04-20T10:14:48.99Z</time></trkpt><trkpt lat="45.76865369583899" lon="10.762015732049173"><ele>392.0</ele><time>2026-04-20T10:14:50.989Z</time></trkpt><trkpt lat="45.7686424149681" lon="10.761896631614134"><ele>392.0</ele><time>2026-04-20T10:14:52.989Z</time></trkpt><trkpt lat="45.76868678685921" lon="10.761771681327458"><ele>392.0</ele><time>2026-04-20T10:14:54.99Z</time></trkpt><trkpt lat="45.768650068613496" lon="10.761653629857085"><ele>392.0</ele><time>2026-04-20T10:14:56.99Z</time></trkpt><trkpt lat="45.76856221996356" lon="10.76159902378894"><ele>392.0</ele><time>2026-04-20T10:14:59.99Z</time></trkpt><trkpt lat="45.768302741939564" lon="10.761626984718855"><ele>392.0</ele><time>2026-04-20T10:15:00.99Z</time></trkpt><trkpt lat="45.7680475857882" lon="10.761413269671788"><ele>405.5</ele><time>2026-04-20T10:15:01.99Z</time></trkpt><trkpt lat="45.76794883367048" lon="10.761278572319984"><ele>419.0</ele><time>2026-04-20T10:15:02.99Z</time></trkpt><trkpt lat="45.76784770943418" lon="10.761153160926707"><ele>432.5</ele><time>2026-04-20T10:15:03.99Z</time></trkpt><trkpt lat="45.7677419082901" lon="10.761025970903184"><ele>446.0</ele><time>2026-04-20T10:15:04.99Z</time></trkpt><trkpt lat="45.7676341033797" lon="10.760907159103505"><ele>446.0</ele><time>2026-04-20T10:15:05.99Z</time></trkpt><trkpt lat="45.76752786678495" lon="10.760815702586234"><ele>446.0</ele><time>2026-04-20T10:15:06.99Z</time></trkpt><trkpt lat="45.76739983898358" lon="10.760761429461727"><ele>446.0</ele><time>2026-04-20T10:15:07.99Z</time></trkpt><trkpt lat="45.767285606523046" lon="10.76069622348351"><ele>446.0</ele><time>2026-04-20T10:15:08.99Z</time></trkpt><trkpt lat="45.76718667270055" lon="10.760612869691567"><ele>446.0</ele><time>2026-04-20T10:15:09.99Z</time></trkpt><trkpt lat="45.767105180768" lon="10.760498294617877"><ele>446.0</ele><time>2026-04-20T10:15:10.99Z</time></trkpt><trkpt lat="45.76701796719201" lon="10.760376887223249"><ele>446.0</ele><time>2026-04-20T10:15:11.99Z</time></trkpt><trkpt lat="45.76693426387787" lon="10.760283157217748"><ele>446.0</ele><time>2026-04-20T10:15:12.99Z</time></trkpt><trkpt lat="45.76683832877046" lon="10.76019529647561"><ele>446.6</ele><time>2026-04-20T10:15:13.99Z</time></trkpt><trkpt lat="45.766750221393636" lon="10.760123378944895"><ele>447.20000000000005</ele><time>2026-04-20T10:15:14.99Z</time></trkpt><trkpt lat="45.766656235241065" lon="10.760049660666693"><ele>447.79999999999995</ele><time>2026-04-20T10:15:15.99Z</time></trkpt><trkpt lat="45.76655963281085" lon="10.759998380476711"><ele>448.4</ele><time>2026-04-20T10:15:16.99Z</time></trkpt><trkpt lat="45.7665029855615" lon="10.759914749556353"><ele>449.0</ele><time>2026-04-20T10:15:17.99Z</time></trkpt><trkpt lat="45.766438098063816" lon="10.75979364254329"><ele>449.0</ele><time>2026-04-20T10:15:18.99Z</time></trkpt><trkpt lat="45.76635598104187" lon="10.75967284915598"><ele>449.0</ele><time>2026-04-20T10:15:19.99Z</time></trkpt><trkpt lat="45.766289284559925" lon="10.75953832243372"><ele>449.0</ele><time>2026-04-20T10:15:20.99Z</time></trkpt><trkpt lat="45.76622763847966" lon="10.759435612877398"><ele>449.0</ele><time>2026-04-20T10:15:21.99Z</time></trkpt><trkpt lat="45.76614104180652" lon="10.75934014046086"><ele>449.0</ele><time>2026-04-20T10:15:22.99Z</time></trkpt><trkpt lat="45.76605744256816" lon="10.759281747146176"><ele>446.0</ele><time>2026-04-20T10:15:23.99Z</time></trkpt><trkpt lat="45.76595682518094" lon="10.759231381702328"><ele>443.0</ele><time>2026-04-20T10:15:24.99Z</time></trkpt><trkpt lat="45.76585132723938" lon="10.759160130407157"><ele>440.0</ele><time>2026-04-20T10:15:25.99Z</time></trkpt><trkpt lat="45.765762915492736" lon="10.75908792796822"><ele>437.0</ele><time>2026-04-20T10:15:26.99Z</time></trkpt><trkpt lat="45.76568889664073" lon="10.759056201978057"><ele>434.0</ele><time>2026-04-20T10:15:27.99Z</time></trkpt><trkpt lat="45.765610084630836" lon="10.758888191449108"><ele>434.0</ele><time>2026-04-20T10:15:29.99Z</time></trkpt><trkpt lat="45.765557903221264" lon="10.758774572480295"><ele>434.0</ele><time>2026-04-20T10:15:30.99Z</time></trkpt><trkpt lat="45.765493857046955" lon="10.758671344733466"><ele>434.0</ele><time>2026-04-20T10:15:31.99Z</time></trkpt><trkpt lat="45.76548003398422" lon="10.758545675471105"><ele>434.0</ele><time>2026-04-20T10:15:32.99Z</time></trkpt><trkpt lat="45.76543696519672" lon="10.758435683615927"><ele>434.0</ele><time>2026-04-20T10:15:33.99Z</time></trkpt><trkpt lat="45.76534988035502" lon="10.758371901593017"><ele>432.25</ele><time>2026-04-20T10:15:34.99Z</time></trkpt><trkpt lat="45.76523957770824" lon="10.758443659636532"><ele>430.5</ele><time>2026-04-20T10:15:35.99Z</time></trkpt><trkpt lat="45.765114898620304" lon="10.758441436548166"><ele>428.75</ele><time>2026-04-20T10:15:36.99Z</time></trkpt><trkpt lat="45.76500648920552" lon="10.758409161169828"><ele>427.0</ele><time>2026-04-20T10:15:37.99Z</time></trkpt><trkpt lat="45.76490723953239" lon="10.758329255214235"><ele>427.0</ele><time>2026-04-20T10:15:38.99Z</time></trkpt><trkpt lat="45.764809634006795" lon="10.758223939227637"><ele>427.0</ele><time>2026-04-20T10:15:39.99Z</time></trkpt><trkpt lat="45.76470544880734" lon="10.75811325993166"><ele>427.0</ele><time>2026-04-20T10:15:40.99Z</time></trkpt><trkpt lat="45.7646094944707" lon="10.758001488705512"><ele>427.0</ele><time>2026-04-20T10:15:41.99Z</time></trkpt><trkpt lat="45.76452979394231" lon="10.757875569989714"><ele>427.0</ele><time>2026-04-20T10:15:42.99Z</time></trkpt><trkpt lat="45.764441151078756" lon="10.757739446627804"><ele>427.0</ele><time>2026-04-20T10:15:43.99Z</time></trkpt><trkpt lat="45.76441597874758" lon="10.757545272753815"><ele>427.0</ele><time>2026-04-20T10:15:44.99Z</time></trkpt><trkpt lat="45.76434244729643" lon="10.75740917258873"><ele>427.0</ele><time>2026-04-20T10:15:45.99Z</time></trkpt><trkpt lat="45.76425744537178" lon="10.757268067771038"><ele>426.0</ele><time>2026-04-20T10:15:46.99Z</time></trkpt><trkpt lat="45.76418593697087" lon="10.757152057164209"><ele>425.00000000000006</ele><time>2026-04-20T10:15:47.99Z</time></trkpt><trkpt lat="45.76410978669162" lon="10.757045094832238"><ele>424.0</ele><time>2026-04-20T10:15:48.99Z</time></trkpt><trkpt lat="45.764022231498465" lon="10.75697892689667"><ele>423.0</ele><time>2026-04-20T10:15:49.99Z</time></trkpt><trkpt lat="45.76395235677084" lon="10.756950300576953"><ele>422.0</ele><time>2026-04-20T10:15:50.99Z</time></trkpt><trkpt lat="45.763867187856675" lon="10.756856158684714"><ele>421.99999999999994</ele><time>2026-04-20T10:15:52.99Z</time></trkpt><trkpt lat="45.76391574320843" lon="10.756721002268872"><ele>422.0</ele><time>2026-04-20T10:15:54.99Z</time></trkpt><trkpt lat="45.76397880555955" lon="10.756760455803576"><ele>422.0</ele><time>2026-04-20T10:15:55.99Z</time></trkpt><trkpt lat="45.7640274738178" lon="10.756879203529486"><ele>422.0</ele><time>2026-04-20T10:15:56.99Z</time></trkpt><trkpt lat="45.76410144658732" lon="10.756970094852912"><ele>421.99999999999994</ele><time>2026-04-20T10:15:57.99Z</time></trkpt><trkpt lat="45.76414698048102" lon="10.757034787317565"><ele>422.0</ele><time>2026-04-20T10:15:58.99Z</time></trkpt><trkpt lat="45.76425656611886" lon="10.757190481825592"><ele>415.3333333333333</ele><time>2026-04-20T10:15:59.99Z</time></trkpt><trkpt lat="45.764353065984494" lon="10.757327584589463"><ele>408.66666666666663</ele><time>2026-04-20T10:16:00.99Z</time></trkpt><trkpt lat="45.76446053090881" lon="10.75751272130109"><ele>402.0</ele><time>2026-04-20T10:16:01.99Z</time></trkpt><trkpt lat="45.764598182020265" lon="10.757660055802102"><ele>408.25</ele><time>2026-04-20T10:16:02.99Z</time></trkpt><trkpt lat="45.76470367215737" lon="10.757796345418067"><ele>414.5</ele><time>2026-04-20T10:16:03.99Z</time></trkpt><trkpt lat="45.7648023512023" lon="10.757924717773802"><ele>420.75</ele><time>2026-04-20T10:16:04.99Z</time></trkpt><trkpt lat="45.76489201167733" lon="10.758022366688989"><ele>427.0</ele><time>2026-04-20T10:16:05.99Z</time></trkpt><trkpt lat="45.76498473726021" lon="10.758068774205462"><ele>427.0</ele><time>2026-04-20T10:16:06.99Z</time></trkpt><trkpt lat="45.76509734187986" lon="10.758088113519088"><ele>427.0</ele><time>2026-04-20T10:16:07.99Z</time></trkpt><trkpt lat="45.76522230780997" lon="10.758087159818691"><ele>427.0</ele><time>2026-04-20T10:16:08.99Z</time></trkpt><trkpt lat="45.765353199085624" lon="10.758054478573907"><ele>427.0</ele><time>2026-04-20T10:16:09.99Z</time></trkpt><trkpt lat="45.765467991565835" lon="10.75802959342993"><ele>437.75</ele><time>2026-04-20T10:16:10.99Z</time></trkpt><trkpt lat="45.76557426503706" lon="10.758013453360276"><ele>448.5</ele><time>2026-04-20T10:16:11.99Z</time></trkpt><trkpt lat="45.76568401083615" lon="10.758001737883983"><ele>459.25</ele><time>2026-04-20T10:16:12.99Z</time></trkpt><trkpt lat="45.765806758172296" lon="10.7580136302971"><ele>470.0</ele><time>2026-04-20T10:16:13.99Z</time></trkpt><trkpt lat="45.765932352705775" lon="10.75802320474519"><ele>474.5</ele><time>2026-04-20T10:16:14.99Z</time></trkpt><trkpt lat="45.766061473361304" lon="10.75804136775409"><ele>479.0</ele><time>2026-04-20T10:16:15.99Z</time></trkpt><trkpt lat="45.766193084515095" lon="10.758070946548573"><ele>483.5</ele><time>2026-04-20T10:16:16.99Z</time></trkpt><trkpt lat="45.76633250687471" lon="10.758115660439731"><ele>488.0</ele><time>2026-04-20T10:16:17.99Z</time></trkpt><trkpt lat="45.76648742637369" lon="10.758182431612148"><ele>441.0</ele><time>2026-04-20T10:16:19.129Z</time></trkpt><trkpt lat="45.76781428420855" lon="10.759270676839943"><ele>431.0</ele><time>2026-04-20T10:16:22.556Z</time></trkpt><trkpt lat="45.768190444553355" lon="10.759622937028286"><ele>421.0</ele><time>2026-04-20T10:16:23.556Z</time></trkpt><trkpt lat="45.768565429537645" lon="10.759978595628944"><ele>478.0</ele><time>2026-04-20T10:16:24.557Z</time></trkpt><trkpt lat="45.768941561089534" lon="10.760335320495704"><ele>478.0</ele><time>2026-04-20T10:16:25.56Z</time></trkpt><trkpt lat="45.769316477791776" lon="10.760688450410134"><ele>478.0</ele><time>2026-04-20T10:16:26.558Z</time></trkpt><trkpt lat="45.769690795293336" lon="10.761047063211022"><ele>435.0</ele><time>2026-04-20T10:16:27.56Z</time></trkpt><trkpt lat="45.77001935160548" lon="10.761480394341095"><ele>392.0</ele><time>2026-04-20T10:16:28.558Z</time></trkpt><trkpt lat="45.7701866" lon="10.7618119"><ele>392.0</ele><time>2026-04-20T10:16:29.558Z</time></trkpt><trkpt lat="45.77061746945315" lon="10.763167020648059"><ele>392.0</ele><time>2026-04-20T10:16:57.99Z</time></trkpt><trkpt lat="45.77066328960551" lon="10.76331637556402"><ele>392.0</ele><time>2026-04-20T10:16:58.99Z</time></trkpt><trkpt lat="45.770810071674106" lon="10.76339739727808"><ele>392.0</ele><time>2026-04-20T10:17:01.99Z</time></trkpt><trkpt lat="45.77085175974551" lon="10.76354703382703"><ele>392.0</ele><time>2026-04-20T10:17:04.988Z</time></trkpt><trkpt lat="45.770881606477225" lon="10.763717942964336"><ele>332.40000000000003</ele><time>2026-04-20T10:17:06.989Z</time></trkpt><trkpt lat="45.770912993568366" lon="10.763906604517459"><ele>272.8</ele><time>2026-04-20T10:17:07.989Z</time></trkpt><trkpt lat="45.77096107030391" lon="10.764044967698826"><ele>213.20000000000002</ele><time>2026-04-20T10:17:08.988Z</time></trkpt><trkpt lat="45.77100012945397" lon="10.764149793267254"><ele>153.60000000000002</ele><time>2026-04-20T10:17:10.988Z</time></trkpt><trkpt lat="45.771009157174376" lon="10.76427146365575"><ele>94.0</ele><time>2026-04-20T10:17:13.988Z</time></trkpt><trkpt lat="45.770993255811376" lon="10.764374759374933"><ele>94.0</ele><time>2026-04-20T10:17:14.989Z</time></trkpt><trkpt lat="45.77100436176701" lon="10.764467787070993"><ele>94.0</ele><time>2026-04-20T10:17:15.988Z</time></trkpt><trkpt lat="45.77102909529308" lon="10.764554090031039"><ele>94.0</ele><time>2026-04-20T10:17:16.988Z</time></trkpt><trkpt lat="45.77108117946786" lon="10.764680151273238"><ele>94.0</ele><time>2026-04-20T10:17:18.988Z</time></trkpt><trkpt lat="45.771150188515314" lon="10.764801242939358"><ele>94.0</ele><time>2026-04-20T10:17:20.988Z</time></trkpt><trkpt lat="45.771228218650315" lon="10.764922360607551"><ele>120.0</ele><time>2026-04-20T10:17:22.988Z</time></trkpt><trkpt lat="45.771286212288395" lon="10.764964964484625"><ele>146.0</ele><time>2026-04-20T10:17:23.988Z</time></trkpt><trkpt lat="45.7714123138911" lon="10.765036276483215"><ele>171.99999999999997</ele><time>2026-04-20T10:17:25.988Z</time></trkpt><trkpt lat="45.77150673633158" lon="10.765088102185233"><ele>198.0</ele><time>2026-04-20T10:17:27.988Z</time></trkpt><trkpt lat="45.77156095620781" lon="10.765168555508094"><ele>224.0</ele><time>2026-04-20T10:17:28.988Z</time></trkpt><trkpt lat="45.77165149509005" lon="10.765247613242984"><ele>224.0</ele><time>2026-04-20T10:17:30.988Z</time></trkpt><trkpt lat="45.771711480065896" lon="10.765278719898298"><ele>223.99999999999997</ele><time>2026-04-20T10:17:31.988Z</time></trkpt><trkpt lat="45.77182725230416" lon="10.765322142250339"><ele>223.99999999999997</ele><time>2026-04-20T10:17:33.988Z</time></trkpt><trkpt lat="45.771905170636586" lon="10.76536709110908"><ele>224.0</ele><time>2026-04-20T10:17:35.988Z</time></trkpt><trkpt lat="45.772010032363475" lon="10.765414191668054"><ele>224.0</ele><time>2026-04-20T10:17:37.988Z</time></trkpt><trkpt lat="45.772086876666506" lon="10.765441937834487"><ele>235.2</ele><time>2026-04-20T10:17:38.988Z</time></trkpt><trkpt lat="45.77215687303553" lon="10.765503367926366"><ele>246.39999999999998</ele><time>2026-04-20T10:17:40.988Z</time></trkpt><trkpt lat="45.77226673479806" lon="10.765617170643967"><ele>257.6</ele><time>2026-04-20T10:17:42.988Z</time></trkpt><trkpt lat="45.77233425712179" lon="10.765750628375095"><ele>268.8</ele><time>2026-04-20T10:17:44.988Z</time></trkpt><trkpt lat="45.77238936987828" lon="10.76580793688031"><ele>280.0</ele><time>2026-04-20T10:17:45.988Z</time></trkpt><trkpt lat="45.77245906614733" lon="10.7658401096468"><ele>280.0</ele><time>2026-04-20T10:17:46.988Z</time></trkpt><trkpt lat="45.772562767403855" lon="10.765853157030152"><ele>280.0</ele><time>2026-04-20T10:17:47.988Z</time></trkpt><trkpt lat="45.772634083828876" lon="10.765854596433117"><ele>280.0</ele><time>2026-04-20T10:17:49.988Z</time></trkpt><trkpt lat="45.772710489404886" lon="10.76587877770146"><ele>280.0</ele><time>2026-04-20T10:17:53.988Z</time></trkpt><trkpt lat="45.77290856637399" lon="10.76600344713338"><ele>289.5</ele><time>2026-04-20T10:17:57.13Z</time></trkpt><trkpt lat="45.7729723364094" lon="10.766059204415932"><ele>299.0</ele><time>2026-04-20T10:18:00.129Z</time></trkpt><trkpt lat="45.773953630977125" lon="10.765415406920937"><ele>299.0</ele><time>2026-04-20T10:18:08.988Z</time></trkpt><trkpt lat="45.77399515113105" lon="10.765342593341693"><ele>299.0</ele><time>2026-04-20T10:18:10.988Z</time></trkpt><trkpt lat="45.77395236397475" lon="10.765219866268083"><ele>299.0</ele><time>2026-04-20T10:18:12.988Z</time></trkpt><trkpt lat="45.77394275156352" lon="10.76507153838177"><ele>299.0</ele><time>2026-04-20T10:18:16.988Z</time></trkpt><trkpt lat="45.77393461334698" lon="10.764962105210621"><ele>299.0</ele><time>2026-04-20T10:18:17.988Z</time></trkpt><trkpt lat="45.7739294567399" lon="10.764850164165086"><ele>299.0</ele><time>2026-04-20T10:18:18.988Z</time></trkpt><trkpt lat="45.77391257513491" lon="10.764738630777112"><ele>299.0</ele><time>2026-04-20T10:18:19.988Z</time></trkpt><trkpt lat="45.77390059491163" lon="10.764632671789283"><ele>299.0</ele><time>2026-04-20T10:18:20.988Z</time></trkpt><trkpt lat="45.77389699324596" lon="10.764489800502398"><ele>299.0</ele><time>2026-04-20T10:18:22.988Z</time></trkpt><trkpt lat="45.773947926624054" lon="10.764325510601285"><ele>299.0</ele><time>2026-04-20T10:18:24.988Z</time></trkpt><trkpt lat="45.77382531762985" lon="10.764398206324886"><ele>299.0</ele><time>2026-04-20T10:18:26.988Z</time></trkpt><trkpt lat="45.77373306737699" lon="10.764524775154621"><ele>299.0</ele><time>2026-04-20T10:18:27.988Z</time></trkpt><trkpt lat="45.77375704646486" lon="10.764700126342815"><ele>299.0</ele><time>2026-04-20T10:18:28.988Z</time></trkpt><trkpt lat="45.77375849296055" lon="10.764864548901198"><ele>299.0</ele><time>2026-04-20T10:18:29.988Z</time></trkpt><trkpt lat="45.773753858000646" lon="10.765024112489721"><ele>299.0</ele><time>2026-04-20T10:18:30.988Z</time></trkpt><trkpt lat="45.77375364585043" lon="10.765164720486123"><ele>299.0</ele><time>2026-04-20T10:18:31.988Z</time></trkpt><trkpt lat="45.773775056574756" lon="10.765260891789316"><ele>299.0</ele><time>2026-04-20T10:18:32.988Z</time></trkpt><trkpt lat="45.773848464958704" lon="10.765370641522361"><ele>299.0</ele><time>2026-04-20T10:18:33.988Z</time></trkpt><trkpt lat="45.773878014999646" lon="10.76552068264928"><ele>299.0</ele><time>2026-04-20T10:18:34.988Z</time></trkpt><trkpt lat="45.7738940838154" lon="10.76565095774153"><ele>299.0</ele><time>2026-04-20T10:18:35.988Z</time></trkpt><trkpt lat="45.77391738321477" lon="10.765767790379225"><ele>299.0</ele><time>2026-04-20T10:18:36.988Z</time></trkpt><trkpt lat="45.77390328148158" lon="10.765959460379657"><ele>296.8</ele><time>2026-04-20T10:18:38.988Z</time></trkpt><trkpt lat="45.77387588576873" lon="10.766096453810466"><ele>294.59999999999997</ele><time>2026-04-20T10:18:39.988Z</time></trkpt><trkpt lat="45.773856525422076" lon="10.766205949539998"><ele>292.4</ele><time>2026-04-20T10:18:40.988Z</time></trkpt><trkpt lat="45.773824057219365" lon="10.766354193834724"><ele>290.2</ele><time>2026-04-20T10:18:42.988Z</time></trkpt><trkpt lat="45.77378409001728" lon="10.766236891357387"><ele>288.0</ele><time>2026-04-20T10:18:46.988Z</time></trkpt><trkpt lat="45.77380581979232" lon="10.766130998832145"><ele>288.0</ele><time>2026-04-20T10:18:47.988Z</time></trkpt><trkpt lat="45.77385857123903" lon="10.76602863912578"><ele>288.0</ele><time>2026-04-20T10:18:48.988Z</time></trkpt><trkpt lat="45.7739047602812" lon="10.765935204144597"><ele>288.0</ele><time>2026-04-20T10:18:49.988Z</time></trkpt><trkpt lat="45.77394001307439" lon="10.765835139320174"><ele>288.0</ele><time>2026-04-20T10:18:50.988Z</time></trkpt><trkpt lat="45.773941680328484" lon="10.765734354199594"><ele>288.0</ele><time>2026-04-20T10:18:51.988Z</time></trkpt><trkpt lat="45.77393755415848" lon="10.76562261124955"><ele>288.0</ele><time>2026-04-20T10:18:52.988Z</time></trkpt><trkpt lat="45.77392858901393" lon="10.765502954681851"><ele>288.6</ele><time>2026-04-20T10:18:53.988Z</time></trkpt><trkpt lat="45.773904676339185" lon="10.765398237027586"><ele>289.20000000000005</ele><time>2026-04-20T10:18:54.988Z</time></trkpt><trkpt lat="45.77384507692826" lon="10.765303458861865"><ele>289.8</ele><time>2026-04-20T10:18:55.988Z</time></trkpt><trkpt lat="45.773730887567" lon="10.765237861526371"><ele>290.40000000000003</ele><time>2026-04-20T10:18:56.988Z</time></trkpt><trkpt lat="45.773685273577385" lon="10.765118560975958"><ele>291.0</ele><time>2026-04-20T10:18:57.988Z</time></trkpt><trkpt lat="45.77368343022946" lon="10.764981221452492"><ele>291.0</ele><time>2026-04-20T10:18:58.988Z</time></trkpt><trkpt lat="45.773661385440604" lon="10.764852007892554"><ele>291.0</ele><time>2026-04-20T10:18:59.988Z</time></trkpt><trkpt lat="45.77367880590524" lon="10.76472510311162"><ele>291.0</ele><time>2026-04-20T10:19:00.988Z</time></trkpt><trkpt lat="45.77371239843083" lon="10.76460198424675"><ele>291.0</ele><time>2026-04-20T10:19:01.988Z</time></trkpt><trkpt lat="45.77375099538956" lon="10.764470530160676"><ele>291.0</ele><time>2026-04-20T10:19:02.988Z</time></trkpt><trkpt lat="45.77378418421295" lon="10.764311908002204"><ele>292.6</ele><time>2026-04-20T10:19:03.988Z</time></trkpt><trkpt lat="45.773804812188914" lon="10.764152751619982"><ele>294.20000000000005</ele><time>2026-04-20T10:19:04.988Z</time></trkpt><trkpt lat="45.77382237572037" lon="10.763983650489116"><ele>295.79999999999995</ele><time>2026-04-20T10:19:05.988Z</time></trkpt><trkpt lat="45.773824442168916" lon="10.763845605394463"><ele>297.4</ele><time>2026-04-20T10:19:06.988Z</time></trkpt><trkpt lat="45.77384706064352" lon="10.763738026490044"><ele>299.0</ele><time>2026-04-20T10:19:07.988Z</time></trkpt><trkpt lat="45.773889917060316" lon="10.76365364487128"><ele>299.0</ele><time>2026-04-20T10:19:08.987Z</time></trkpt><trkpt lat="45.7739534227314" lon="10.76357915812593"><ele>299.0</ele><time>2026-04-20T10:19:09.987Z</time></trkpt><trkpt lat="45.7740033169277" lon="10.763458852118125"><ele>299.0</ele><time>2026-04-20T10:19:10.987Z</time></trkpt><trkpt lat="45.77400707469367" lon="10.763353370287184"><ele>299.0</ele><time>2026-04-20T10:19:11.987Z</time></trkpt><trkpt lat="45.774014145652934" lon="10.763244437508472"><ele>299.0</ele><time>2026-04-20T10:19:12.987Z</time></trkpt><trkpt lat="45.774041948899125" lon="10.76315408342228"><ele>299.0</ele><time>2026-04-20T10:19:13.987Z</time></trkpt><trkpt lat="45.77409003174804" lon="10.763058039689522"><ele>301.8</ele><time>2026-04-20T10:19:15.131Z</time></trkpt><trkpt lat="45.77417300027485" lon="10.762945157503289"><ele>304.59999999999997</ele><time>2026-04-20T10:19:17.13Z</time></trkpt><trkpt lat="45.77424701275277" lon="10.762908097201716"><ele>307.4</ele><time>2026-04-20T10:19:18.131Z</time></trkpt><trkpt lat="45.774110067965076" lon="10.763043795422819"><ele>310.2</ele><time>2026-04-20T10:19:19.131Z</time></trkpt><trkpt lat="45.774178035779784" lon="10.762997111390925"><ele>313.0</ele><time>2026-04-20T10:19:24.13Z</time></trkpt><trkpt lat="45.77427442162954" lon="10.762959818329191"><ele>313.0</ele><time>2026-04-20T10:19:28.13Z</time></trkpt><trkpt lat="45.77435304452665" lon="10.762930979272781"><ele>313.0</ele><time>2026-04-20T10:19:30.128Z</time></trkpt><trkpt lat="45.77611818234122" lon="10.76097311157872"><ele>312.0</ele><time>2026-04-20T10:19:53.987Z</time></trkpt><trkpt lat="45.77613567375295" lon="10.760868825382175"><ele>311.0</ele><time>2026-04-20T10:19:54.987Z</time></trkpt><trkpt lat="45.774805716236166" lon="10.7618992821665"><ele>318.0</ele><time>2026-04-20T10:19:57.987Z</time></trkpt><trkpt lat="45.774873394008175" lon="10.761851535542727"><ele>325.0</ele><time>2026-04-20T10:19:58.987Z</time></trkpt><trkpt lat="45.77511415416466" lon="10.761741316459355"><ele>332.0</ele><time>2026-04-20T10:19:59.987Z</time></trkpt><trkpt lat="45.7751863620455" lon="10.761611499070199"><ele>339.0</ele><time>2026-04-20T10:20:00.987Z</time></trkpt><trkpt lat="45.77541966690022" lon="10.761327337251286"><ele>339.0</ele><time>2026-04-20T10:20:01.987Z</time></trkpt><trkpt lat="45.775555067011815" lon="10.761098233198346"><ele>339.0</ele><time>2026-04-20T10:20:02.987Z</time></trkpt><trkpt lat="45.77573725526551" lon="10.760914305484881"><ele>339.0</ele><time>2026-04-20T10:20:03.987Z</time></trkpt><trkpt lat="45.77589381471013" lon="10.760720229792426"><ele>340.0</ele><time>2026-04-20T10:20:04.987Z</time></trkpt><trkpt lat="45.776008404918954" lon="10.760569524849538"><ele>341.0</ele><time>2026-04-20T10:20:05.987Z</time></trkpt><trkpt lat="45.776084580421504" lon="10.760436932233723"><ele>342.0</ele><time>2026-04-20T10:20:06.987Z</time></trkpt><trkpt lat="45.776306878549995" lon="10.76033701276472"><ele>336.0</ele><time>2026-04-20T10:20:07.987Z</time></trkpt><trkpt lat="45.77667124538653" lon="10.760233508916462"><ele>330.0</ele><time>2026-04-20T10:20:08.987Z</time></trkpt><trkpt lat="45.776921660068865" lon="10.7602237058819"><ele>330.0</ele><time>2026-04-20T10:20:09.987Z</time></trkpt><trkpt lat="45.77701817924682" lon="10.760240746171293"><ele>330.0</ele><time>2026-04-20T10:20:10.987Z</time></trkpt><trkpt lat="45.77698326323327" lon="10.7603209690216"><ele>330.0</ele><time>2026-04-20T10:20:11.987Z</time></trkpt><trkpt lat="45.77692089654241" lon="10.760411929801473"><ele>330.0</ele><time>2026-04-20T10:20:12.987Z</time></trkpt><trkpt lat="45.77683512188807" lon="10.760493076868283"><ele>330.0</ele><time>2026-04-20T10:20:13.987Z</time></trkpt><trkpt lat="45.77674174385989" lon="10.76057529635036"><ele>326.8333333333333</ele><time>2026-04-20T10:20:14.987Z</time></trkpt><trkpt lat="45.776646849521576" lon="10.760639572661963"><ele>323.6666666666667</ele><time>2026-04-20T10:20:15.987Z</time></trkpt><trkpt lat="45.77658019770271" lon="10.760711957480622"><ele>320.5</ele><time>2026-04-20T10:20:16.987Z</time></trkpt><trkpt lat="45.77653792359118" lon="10.760785172931138"><ele>317.33333333333337</ele><time>2026-04-20T10:20:17.987Z</time></trkpt><trkpt lat="45.776474310495935" lon="10.760925397238715"><ele>314.1666666666667</ele><time>2026-04-20T10:20:19.987Z</time></trkpt><trkpt lat="45.776408896810345" lon="10.760943114393832"><ele>311.0</ele><time>2026-04-20T10:20:20.987Z</time></trkpt><trkpt lat="45.77633329313879" lon="10.76091648124376"><ele>311.0</ele><time>2026-04-20T10:20:21.987Z</time></trkpt><trkpt lat="45.77623807334998" lon="10.76081436664647"><ele>311.0</ele><time>2026-04-20T10:20:23.987Z</time></trkpt><trkpt lat="45.77623299081386" lon="10.760686049286312"><ele>311.0</ele><time>2026-04-20T10:20:24.987Z</time></trkpt><trkpt lat="45.776261558572415" lon="10.760546332627612"><ele>311.0</ele><time>2026-04-20T10:20:25.987Z</time></trkpt><trkpt lat="45.77629520485685" lon="10.760389899121488"><ele>311.0</ele><time>2026-04-20T10:20:26.987Z</time></trkpt><trkpt lat="45.776319211187186" lon="10.760234597446866"><ele>312.8</ele><time>2026-04-20T10:20:27.987Z</time></trkpt><trkpt lat="45.776359126374686" lon="10.760125257260745"><ele>314.6</ele><time>2026-04-20T10:20:28.987Z</time></trkpt><trkpt lat="45.776431231698396" lon="10.76002721427885"><ele>316.4</ele><time>2026-04-20T10:20:29.987Z</time></trkpt><trkpt lat="45.77654928320585" lon="10.759981194379996"><ele>318.2</ele><time>2026-04-20T10:20:30.987Z</time></trkpt><trkpt lat="45.776659747261405" lon="10.75989823146936"><ele>320.0</ele><time>2026-04-20T10:20:31.987Z</time></trkpt><trkpt lat="45.776762301740824" lon="10.759816127210042"><ele>320.0</ele><time>2026-04-20T10:20:32.987Z</time></trkpt><trkpt lat="45.77684976564852" lon="10.75969684844751"><ele>320.0</ele><time>2026-04-20T10:20:33.987Z</time></trkpt><trkpt lat="45.77691768122386" lon="10.759587224228838"><ele>320.0</ele><time>2026-04-20T10:20:34.987Z</time></trkpt><trkpt lat="45.777019586350825" lon="10.759434913982973"><ele>320.0</ele><time>2026-04-20T10:20:35.987Z</time></trkpt><trkpt lat="45.77710710745555" lon="10.759291749790613"><ele>317.8</ele><time>2026-04-20T10:20:36.987Z</time></trkpt><trkpt lat="45.777169055426455" lon="10.75917283399211"><ele>315.6</ele><time>2026-04-20T10:20:37.987Z</time></trkpt><trkpt lat="45.777230877808904" lon="10.759054157026746"><ele>313.4</ele><time>2026-04-20T10:20:38.987Z</time></trkpt><trkpt lat="45.77730249931163" lon="10.758954681295414"><ele>311.2</ele><time>2026-04-20T10:20:39.987Z</time></trkpt><trkpt lat="45.777387581624616" lon="10.758851618502762"><ele>309.0</ele><time>2026-04-20T10:20:40.987Z</time></trkpt><trkpt lat="45.77748729880576" lon="10.758734354268384"><ele>309.0</ele><time>2026-04-20T10:20:41.987Z</time></trkpt><trkpt lat="45.777580735976684" lon="10.758592415385648"><ele>309.0</ele><time>2026-04-20T10:20:42.987Z</time></trkpt><trkpt lat="45.77767808549234" lon="10.758495519112047"><ele>309.0</ele><time>2026-04-20T10:20:43.987Z</time></trkpt><trkpt lat="45.777736273190726" lon="10.758422872496743"><ele>309.0</ele><time>2026-04-20T10:20:44.987Z</time></trkpt><trkpt lat="45.777817805585755" lon="10.758346326975804"><ele>309.0</ele><time>2026-04-20T10:20:45.987Z</time></trkpt><trkpt lat="45.777896883581334" lon="10.758325178899973"><ele>309.8333333333333</ele><time>2026-04-20T10:20:46.987Z</time></trkpt><trkpt lat="45.77797827658981" lon="10.758377800909747"><ele>310.6666666666667</ele><time>2026-04-20T10:20:47.987Z</time></trkpt><trkpt lat="45.77803287682771" lon="10.758465350135065"><ele>311.5</ele><time>2026-04-20T10:20:48.987Z</time></trkpt><trkpt lat="45.77806106906198" lon="10.758576284251063"><ele>312.33333333333337</ele><time>2026-04-20T10:20:49.987Z</time></trkpt><trkpt lat="45.778061258007014" lon="10.758681954083682"><ele>313.1666666666667</ele><time>2026-04-20T10:20:50.987Z</time></trkpt><trkpt lat="45.77802373237103" lon="10.758798664289236"><ele>314.0</ele><time>2026-04-20T10:20:51.987Z</time></trkpt><trkpt lat="45.77798139007482" lon="10.758912197269709"><ele>314.0</ele><time>2026-04-20T10:20:52.987Z</time></trkpt><trkpt lat="45.77795368369556" lon="10.759034907547099"><ele>314.0</ele><time>2026-04-20T10:20:53.987Z</time></trkpt><trkpt lat="45.77799247052901" lon="10.759196641454102"><ele>314.0</ele><time>2026-04-20T10:20:54.987Z</time></trkpt><trkpt lat="45.77805222819548" lon="10.759329331669253"><ele>314.0</ele><time>2026-04-20T10:20:55.987Z</time></trkpt><trkpt lat="45.77811322975645" lon="10.759467552118679"><ele>314.0</ele><time>2026-04-20T10:20:56.987Z</time></trkpt><trkpt lat="45.77813840508022" lon="10.759580288707303"><ele>316.5</ele><time>2026-04-20T10:20:57.987Z</time></trkpt><trkpt lat="45.778173091805684" lon="10.759655956972516"><ele>319.0</ele><time>2026-04-20T10:20:58.987Z</time></trkpt><trkpt lat="45.77825397999335" lon="10.75972161058473"><ele>321.5</ele><time>2026-04-20T10:20:59.987Z</time></trkpt><trkpt lat="45.778331659230375" lon="10.75973168373"><ele>324.0</ele><time>2026-04-20T10:21:00.987Z</time></trkpt><trkpt lat="45.77842032227582" lon="10.759677458324397"><ele>326.5</ele><time>2026-04-20T10:21:01.987Z</time></trkpt><trkpt lat="45.77853031360499" lon="10.75962503944831"><ele>329.0</ele><time>2026-04-20T10:21:02.987Z</time></trkpt><trkpt lat="45.778638039176606" lon="10.759569040733087"><ele>328.25</ele><time>2026-04-20T10:21:03.987Z</time></trkpt><trkpt lat="45.77876329444847" lon="10.759504100074698"><ele>327.5</ele><time>2026-04-20T10:21:04.987Z</time></trkpt><trkpt lat="45.77887575496287" lon="10.75945443470897"><ele>326.75</ele><time>2026-04-20T10:21:05.987Z</time></trkpt><trkpt lat="45.77897070434298" lon="10.75941480482738"><ele>326.0</ele><time>2026-04-20T10:21:06.987Z</time></trkpt><trkpt lat="45.7790635145052" lon="10.759357068779769"><ele>329.20000000000005</ele><time>2026-04-20T10:21:07.987Z</time></trkpt><trkpt lat="45.779163720671555" lon="10.759388798539346"><ele>332.40000000000003</ele><time>2026-04-20T10:21:08.987Z</time></trkpt><trkpt lat="45.77927309761245" lon="10.759424262518984"><ele>335.6</ele><time>2026-04-20T10:21:09.987Z</time></trkpt><trkpt lat="45.7793918569845" lon="10.759464908090603"><ele>338.8</ele><time>2026-04-20T10:21:10.987Z</time></trkpt><trkpt lat="45.77949399014901" lon="10.75947972522106"><ele>342.0</ele><time>2026-04-20T10:21:11.987Z</time></trkpt><trkpt lat="45.77957176007199" lon="10.759513580504052"><ele>340.3333333333333</ele><time>2026-04-20T10:21:12.987Z</time></trkpt><trkpt lat="45.77964300480971" lon="10.759510512831826"><ele>338.6666666666667</ele><time>2026-04-20T10:21:13.987Z</time></trkpt><trkpt lat="45.779710075597414" lon="10.759462926045606"><ele>337.0</ele><time>2026-04-20T10:21:14.987Z</time></trkpt><trkpt lat="45.779764939616996" lon="10.759375921464223"><ele>335.33333333333337</ele><time>2026-04-20T10:21:15.987Z</time></trkpt><trkpt lat="45.779778359719096" lon="10.759263333668846"><ele>333.6666666666667</ele><time>2026-04-20T10:21:16.987Z</time></trkpt><trkpt lat="45.779737995774305" lon="10.75915258001877"><ele>332.0</ele><time>2026-04-20T10:21:17.987Z</time></trkpt><trkpt lat="45.779651075362395" lon="10.759038071134658"><ele>332.0</ele><time>2026-04-20T10:21:18.987Z</time></trkpt><trkpt lat="45.77954837887951" lon="10.758951379874931"><ele>332.0</ele><time>2026-04-20T10:21:19.987Z</time></trkpt><trkpt lat="45.77942724717543" lon="10.758880406013612"><ele>332.0</ele><time>2026-04-20T10:21:20.987Z</time></trkpt><trkpt lat="45.779299053914116" lon="10.758818995620286"><ele>332.0</ele><time>2026-04-20T10:21:21.987Z</time></trkpt><trkpt lat="45.7791648147467" lon="10.758777202694073"><ele>330.5</ele><time>2026-04-20T10:21:22.987Z</time></trkpt><trkpt lat="45.7790473424749" lon="10.758763851281111"><ele>329.0</ele><time>2026-04-20T10:21:23.986Z</time></trkpt><trkpt lat="45.77892288524039" lon="10.758760370452773"><ele>327.5</ele><time>2026-04-20T10:21:24.987Z</time></trkpt><trkpt lat="45.77880994398124" lon="10.758751591635045"><ele>326.0</ele><time>2026-04-20T10:21:25.987Z</time></trkpt><trkpt lat="45.778699568756146" lon="10.758709879684718"><ele>326.0</ele><time>2026-04-20T10:21:26.987Z</time></trkpt><trkpt lat="45.77861080795901" lon="10.758638770606748"><ele>326.0</ele><time>2026-04-20T10:21:27.986Z</time></trkpt><trkpt lat="45.778546985587816" lon="10.758571627372906"><ele>326.0</ele><time>2026-04-20T10:21:28.986Z</time></trkpt><trkpt lat="45.77850054171371" lon="10.758469607796497"><ele>326.0</ele><time>2026-04-20T10:21:29.986Z</time></trkpt><trkpt lat="45.77847845730159" lon="10.758351796183003"><ele>326.0</ele><time>2026-04-20T10:21:30.986Z</time></trkpt><trkpt lat="45.77849398238773" lon="10.758206669814873"><ele>326.0</ele><time>2026-04-20T10:21:31.986Z</time></trkpt><trkpt lat="45.77849820594888" lon="10.758075673163319"><ele>326.0</ele><time>2026-04-20T10:21:32.986Z</time></trkpt><trkpt lat="45.77849636895397" lon="10.757941962462"><ele>326.0</ele><time>2026-04-20T10:21:33.986Z</time></trkpt><trkpt lat="45.77842290522885" lon="10.757843693274205"><ele>326.0</ele><time>2026-04-20T10:21:34.986Z</time></trkpt><trkpt lat="45.77833558199929" lon="10.75775725951261"><ele>326.0</ele><time>2026-04-20T10:21:35.986Z</time></trkpt><trkpt lat="45.778228973851284" lon="10.757668390345389"><ele>332.20000000000005</ele><time>2026-04-20T10:21:36.986Z</time></trkpt><trkpt lat="45.77814128525182" lon="10.757597924044122"><ele>338.40000000000003</ele><time>2026-04-20T10:21:37.986Z</time></trkpt><trkpt lat="45.778079772666125" lon="10.757521959699561"><ele>344.6</ele><time>2026-04-20T10:21:38.986Z</time></trkpt><trkpt lat="45.7780530608843" lon="10.75740228097227"><ele>350.8</ele><time>2026-04-20T10:21:39.986Z</time></trkpt><trkpt lat="45.77805073251797" lon="10.75726864745829"><ele>357.0</ele><time>2026-04-20T10:21:40.986Z</time></trkpt><trkpt lat="45.778010530537905" lon="10.757147489151505"><ele>357.0</ele><time>2026-04-20T10:21:41.986Z</time></trkpt><trkpt lat="45.77792971586925" lon="10.757084731171886"><ele>357.0</ele><time>2026-04-20T10:21:42.986Z</time></trkpt><trkpt lat="45.77783848380102" lon="10.757047205692732"><ele>357.0</ele><time>2026-04-20T10:21:43.986Z</time></trkpt><trkpt lat="45.777786382766315" lon="10.756955161226044"><ele>357.0</ele><time>2026-04-20T10:21:44.986Z</time></trkpt><trkpt lat="45.777763304541715" lon="10.75686183919449"><ele>357.0</ele><time>2026-04-20T10:21:45.986Z</time></trkpt><trkpt lat="45.7776595563132" lon="10.756769436330174"><ele>357.0</ele><time>2026-04-20T10:21:47.986Z</time></trkpt><trkpt lat="45.77756239644705" lon="10.756812881794563"><ele>357.0</ele><time>2026-04-20T10:21:48.986Z</time></trkpt><trkpt lat="45.777511714214626" lon="10.756926476268314"><ele>357.0</ele><time>2026-04-20T10:21:49.986Z</time></trkpt><trkpt lat="45.777508256260745" lon="10.757085160106563"><ele>357.0</ele><time>2026-04-20T10:21:50.986Z</time></trkpt><trkpt lat="45.77750825626389" lon="10.757263724399627"><ele>357.0</ele><time>2026-04-20T10:21:51.986Z</time></trkpt><trkpt lat="45.77751102749162" lon="10.75745691825098"><ele>357.0</ele><time>2026-04-20T10:21:52.986Z</time></trkpt><trkpt lat="45.777506749034615" lon="10.757599121067733"><ele>357.0</ele><time>2026-04-20T10:21:53.986Z</time></trkpt><trkpt lat="45.777486199274755" lon="10.757724712224498"><ele>357.0</ele><time>2026-04-20T10:21:54.986Z</time></trkpt><trkpt lat="45.77745672453807" lon="10.757847878437456"><ele>357.0</ele><time>2026-04-20T10:21:55.986Z</time></trkpt><trkpt lat="45.77742324848317" lon="10.757944413331101"><ele>357.0</ele><time>2026-04-20T10:21:56.986Z</time></trkpt><trkpt lat="45.77738104946751" lon="10.758036519341537"><ele>357.0</ele><time>2026-04-20T10:21:57.986Z</time></trkpt><trkpt lat="45.777322124311695" lon="10.758128340686559"><ele>352.0</ele><time>2026-04-20T10:21:58.986Z</time></trkpt><trkpt lat="45.77723946281634" lon="10.758215298595317"><ele>347.0</ele><time>2026-04-20T10:21:59.986Z</time></trkpt><trkpt lat="45.77714428737762" lon="10.758300713247491"><ele>342.0</ele><time>2026-04-20T10:22:00.986Z</time></trkpt><trkpt lat="45.777039204135086" lon="10.75838476503192"><ele>337.0</ele><time>2026-04-20T10:22:01.986Z</time></trkpt><trkpt lat="45.7769351829568" lon="10.758471126575815"><ele>338.0</ele><time>2026-04-20T10:22:02.986Z</time></trkpt><trkpt lat="45.77681655104223" lon="10.758523482216932"><ele>339.0</ele><time>2026-04-20T10:22:03.986Z</time></trkpt><trkpt lat="45.77669741529916" lon="10.758568029941895"><ele>340.0</ele><time>2026-04-20T10:22:04.986Z</time></trkpt><trkpt lat="45.77657134419905" lon="10.758621686529851"><ele>341.0</ele><time>2026-04-20T10:22:05.986Z</time></trkpt><trkpt lat="45.77645595682231" lon="10.758675279214074"><ele>341.0</ele><time>2026-04-20T10:22:06.986Z</time></trkpt><trkpt lat="45.776341414727625" lon="10.758700548847987"><ele>341.0</ele><time>2026-04-20T10:22:07.986Z</time></trkpt><trkpt lat="45.77622688379097" lon="10.758723400388083"><ele>341.0</ele><time>2026-04-20T10:22:08.986Z</time></trkpt><trkpt lat="45.77611311672576" lon="10.75874829261395"><ele>341.0</ele><time>2026-04-20T10:22:09.986Z</time></trkpt><trkpt lat="45.77602897744831" lon="10.758760779672963"><ele>341.0</ele><time>2026-04-20T10:22:10.986Z</time></trkpt><trkpt lat="45.775958719610834" lon="10.758803163035749"><ele>344.0</ele><time>2026-04-20T10:22:11.986Z</time></trkpt><trkpt lat="45.775892324179544" lon="10.758886510269768"><ele>347.0</ele><time>2026-04-20T10:22:12.986Z</time></trkpt><trkpt lat="45.77587372962786" lon="10.75903513574499"><ele>350.0</ele><time>2026-04-20T10:22:13.986Z</time></trkpt><trkpt lat="45.77587862845012" lon="10.759202477750037"><ele>353.0</ele><time>2026-04-20T10:22:14.986Z</time></trkpt><trkpt lat="45.77582301951901" lon="10.759354619827274"><ele>356.0</ele><time>2026-04-20T10:22:15.986Z</time></trkpt><trkpt lat="45.77575314505201" lon="10.75950929807169"><ele>356.0</ele><time>2026-04-20T10:22:16.986Z</time></trkpt><trkpt lat="45.77570620635018" lon="10.759673159108676"><ele>356.0</ele><time>2026-04-20T10:22:17.986Z</time></trkpt><trkpt lat="45.775639523570234" lon="10.759806337123297"><ele>356.0</ele><time>2026-04-20T10:22:18.986Z</time></trkpt><trkpt lat="45.77557072413852" lon="10.759961956559449"><ele>356.0</ele><time>2026-04-20T10:22:19.986Z</time></trkpt><trkpt lat="45.77547851475713" lon="10.760117734490217"><ele>352.5</ele><time>2026-04-20T10:22:20.986Z</time></trkpt><trkpt lat="45.77539256608667" lon="10.760267594560625"><ele>349.0</ele><time>2026-04-20T10:22:21.986Z</time></trkpt><trkpt lat="45.77531457821092" lon="10.760392894062354"><ele>345.5</ele><time>2026-04-20T10:22:22.986Z</time></trkpt><trkpt lat="45.77522764630591" lon="10.760514478531572"><ele>342.0</ele><time>2026-04-20T10:22:23.986Z</time></trkpt><trkpt lat="45.77515417737336" lon="10.760635524385082"><ele>347.8</ele><time>2026-04-20T10:22:24.986Z</time></trkpt><trkpt lat="45.775101584918595" lon="10.76074499524402"><ele>353.6</ele><time>2026-04-20T10:22:25.986Z</time></trkpt><trkpt lat="45.775029188876616" lon="10.760859716407431"><ele>359.40000000000003</ele><time>2026-04-20T10:22:26.986Z</time></trkpt><trkpt lat="45.77493881161245" lon="10.760952566255591"><ele>365.20000000000005</ele><time>2026-04-20T10:22:27.986Z</time></trkpt><trkpt lat="45.77483359317976" lon="10.760990397286676"><ele>371.0</ele><time>2026-04-20T10:22:28.986Z</time></trkpt><trkpt lat="45.77470916155995" lon="10.761021131547663"><ele>370.0</ele><time>2026-04-20T10:22:29.986Z</time></trkpt><trkpt lat="45.774582620445315" lon="10.761054386619666"><ele>369.0</ele><time>2026-04-20T10:22:30.986Z</time></trkpt><trkpt lat="45.77445676846987" lon="10.761122934210318"><ele>368.0</ele><time>2026-04-20T10:22:31.986Z</time></trkpt><trkpt lat="45.774333805547116" lon="10.7611995072712"><ele>367.0</ele><time>2026-04-20T10:22:32.986Z</time></trkpt><trkpt lat="45.77420713175516" lon="10.761253922165743"><ele>367.0</ele><time>2026-04-20T10:22:33.986Z</time></trkpt><trkpt lat="45.77407667811729" lon="10.761293220903656"><ele>367.0</ele><time>2026-04-20T10:22:34.986Z</time></trkpt><trkpt lat="45.77394512495815" lon="10.761349137593774"><ele>367.0</ele><time>2026-04-20T10:22:35.986Z</time></trkpt><trkpt lat="45.77382023583839" lon="10.761429007830989"><ele>367.0</ele><time>2026-04-20T10:22:36.986Z</time></trkpt><trkpt lat="45.77371054359879" lon="10.761497683904091"><ele>367.0</ele><time>2026-04-20T10:22:37.986Z</time></trkpt><trkpt lat="45.773619724577166" lon="10.761544006184272"><ele>367.0</ele><time>2026-04-20T10:22:38.986Z</time></trkpt><trkpt lat="45.77352550780639" lon="10.76154975991239"><ele>367.0</ele><time>2026-04-20T10:22:39.986Z</time></trkpt><trkpt lat="45.77341509257688" lon="10.761510321605321"><ele>367.0</ele><time>2026-04-20T10:22:40.986Z</time></trkpt><trkpt lat="45.773314145621995" lon="10.76143945744591"><ele>367.0</ele><time>2026-04-20T10:22:41.986Z</time></trkpt><trkpt lat="45.77320638137387" lon="10.761354572087038"><ele>369.75</ele><time>2026-04-20T10:22:42.986Z</time></trkpt><trkpt lat="45.773095061835974" lon="10.761271125687104"><ele>372.5</ele><time>2026-04-20T10:22:43.986Z</time></trkpt><trkpt lat="45.77299809580132" lon="10.76115561203371"><ele>375.25</ele><time>2026-04-20T10:22:44.986Z</time></trkpt><trkpt lat="45.77291187241402" lon="10.761031652378225"><ele>378.0</ele><time>2026-04-20T10:22:45.986Z</time></trkpt><trkpt lat="45.77284480038857" lon="10.760923918002891"><ele>381.2</ele><time>2026-04-20T10:22:46.986Z</time></trkpt><trkpt lat="45.77276898081938" lon="10.760828489392946"><ele>384.4</ele><time>2026-04-20T10:22:47.986Z</time></trkpt><trkpt lat="45.77267872176981" lon="10.760752587008245"><ele>387.59999999999997</ele><time>2026-04-20T10:22:48.986Z</time></trkpt><trkpt lat="45.77258441157458" lon="10.760721654420617"><ele>390.79999999999995</ele><time>2026-04-20T10:22:49.986Z</time></trkpt><trkpt lat="45.77248658337776" lon="10.760733553148022"><ele>394.0</ele><time>2026-04-20T10:22:50.986Z</time></trkpt><trkpt lat="45.77238711487806" lon="10.760801465836854"><ele>394.0</ele><time>2026-04-20T10:22:51.986Z</time></trkpt><trkpt lat="45.77231357827392" lon="10.760925502064485"><ele>394.0</ele><time>2026-04-20T10:22:52.986Z</time></trkpt><trkpt lat="45.77225737089722" lon="10.76107539575053"><ele>394.0</ele><time>2026-04-20T10:22:53.986Z</time></trkpt><trkpt lat="45.772218106498755" lon="10.761222968595963"><ele>394.0</ele><time>2026-04-20T10:22:54.986Z</time></trkpt><trkpt lat="45.77219009719021" lon="10.761381929815112"><ele>392.79999999999995</ele><time>2026-04-20T10:22:55.986Z</time></trkpt><trkpt lat="45.772186779620114" lon="10.761556133026199"><ele>391.59999999999997</ele><time>2026-04-20T10:22:56.986Z</time></trkpt><trkpt lat="45.77221287378529" lon="10.761716477407834"><ele>390.4</ele><time>2026-04-20T10:22:57.986Z</time></trkpt><trkpt lat="45.77222825328706" lon="10.761849068690475"><ele>389.2</ele><time>2026-04-20T10:22:58.986Z</time></trkpt><trkpt lat="45.77224600538675" lon="10.761937900061582"><ele>388.0</ele><time>2026-04-20T10:22:59.986Z</time></trkpt><trkpt lat="45.77217871908821" lon="10.762038133711995"><ele>388.0</ele><time>2026-04-20T10:23:01.986Z</time></trkpt><trkpt lat="45.772089599442495" lon="10.762004450408158"><ele>388.0</ele><time>2026-04-20T10:23:02.986Z</time></trkpt><trkpt lat="45.77205223981852" lon="10.76190417188986"><ele>388.0</ele><time>2026-04-20T10:23:03.986Z</time></trkpt><trkpt lat="45.77207129229078" lon="10.761775224604902"><ele>388.0</ele><time>2026-04-20T10:23:04.986Z</time></trkpt><trkpt lat="45.77209987673026" lon="10.761642133391708"><ele>388.0</ele><time>2026-04-20T10:23:05.986Z</time></trkpt><trkpt lat="45.77211707130479" lon="10.761502349976366"><ele>388.00000000000006</ele><time>2026-04-20T10:23:06.986Z</time></trkpt><trkpt lat="45.772132497968045" lon="10.761358870078944"><ele>388.0</ele><time>2026-04-20T10:23:07.986Z</time></trkpt><trkpt lat="45.772145870158376" lon="10.761229558816972"><ele>388.0</ele><time>2026-04-20T10:23:08.986Z</time></trkpt><trkpt lat="45.772145813367885" lon="10.761125148400367"><ele>388.0</ele><time>2026-04-20T10:23:09.986Z</time></trkpt><trkpt lat="45.77214486914232" lon="10.761014423190897"><ele>388.00000000000006</ele><time>2026-04-20T10:23:10.986Z</time></trkpt><trkpt lat="45.77212053790581" lon="10.760901114491272"><ele>388.0</ele><time>2026-04-20T10:23:11.986Z</time></trkpt><trkpt lat="45.77208488516473" lon="10.76081167465377"><ele>389.00000000000006</ele><time>2026-04-20T10:23:12.986Z</time></trkpt><trkpt lat="45.77204949513674" lon="10.760699526618435"><ele>390.0</ele><time>2026-04-20T10:23:14.986Z</time></trkpt><trkpt lat="45.77203227145816" lon="10.760602939063006"><ele>391.0</ele><time>2026-04-20T10:23:16.986Z</time></trkpt><trkpt lat="45.771990763840876" lon="10.760487962789444"><ele>392.0</ele><time>2026-04-20T10:23:18.986Z</time></trkpt><trkpt lat="45.771986751548184" lon="10.760377940274084"><ele>393.00000000000006</ele><time>2026-04-20T10:23:20.986Z</time></trkpt><trkpt lat="45.77197684888293" lon="10.760235583192848"><ele>394.0</ele><time>2026-04-20T10:23:23.986Z</time></trkpt><trkpt lat="45.771914512136625" lon="10.76017189303346"><ele>396.33333333333337</ele><time>2026-04-20T10:23:26.986Z</time></trkpt><trkpt lat="45.77183850414975" lon="10.760103783896218"><ele>398.6666666666667</ele><time>2026-04-20T10:23:28.986Z</time></trkpt><trkpt lat="45.77176183321559" lon="10.760116335200395"><ele>401.0</ele><time>2026-04-20T10:23:29.986Z</time></trkpt><trkpt lat="45.771707128335755" lon="10.76017214353224"><ele>403.33333333333337</ele><time>2026-04-20T10:23:30.986Z</time></trkpt><trkpt lat="45.771642597965226" lon="10.760231072132578"><ele>405.6666666666667</ele><time>2026-04-20T10:23:32.986Z</time></trkpt><trkpt lat="45.771565181786706" lon="10.760126802127216"><ele>408.0</ele><time>2026-04-20T10:23:36.986Z</time></trkpt><trkpt lat="45.77155011722443" lon="10.75998140878373"><ele>408.4</ele><time>2026-04-20T10:23:38.986Z</time></trkpt><trkpt lat="45.77155451434038" lon="10.759802451663225"><ele>408.79999999999995</ele><time>2026-04-20T10:23:40.986Z</time></trkpt><trkpt lat="45.77157256771835" lon="10.75962436973153"><ele>409.2</ele><time>2026-04-20T10:23:42.986Z</time></trkpt><trkpt lat="45.77157694119196" lon="10.759443660237249"><ele>409.6</ele><time>2026-04-20T10:23:44.986Z</time></trkpt><trkpt lat="45.771554224093975" lon="10.75935856773388"><ele>410.0</ele><time>2026-04-20T10:23:45.986Z</time></trkpt><trkpt lat="45.77151463733503" lon="10.759288365005485"><ele>411.66666666666663</ele><time>2026-04-20T10:23:46.986Z</time></trkpt><trkpt lat="45.77147407110722" lon="10.759202904727788"><ele>413.3333333333333</ele><time>2026-04-20T10:23:47.986Z</time></trkpt><trkpt lat="45.771435731570925" lon="10.759130499262033"><ele>415.0</ele><time>2026-04-20T10:23:48.986Z</time></trkpt><trkpt lat="45.77137680889698" lon="10.759078092821909"><ele>416.66666666666663</ele><time>2026-04-20T10:23:49.986Z</time></trkpt><trkpt lat="45.771327317913766" lon="10.75901368481716"><ele>418.3333333333333</ele><time>2026-04-20T10:23:50.986Z</time></trkpt><trkpt lat="45.771243816382395" lon="10.75898023237734"><ele>420.0</ele><time>2026-04-20T10:23:51.986Z</time></trkpt><trkpt lat="45.77114745537679" lon="10.75897616130848"><ele>420.0</ele><time>2026-04-20T10:23:52.986Z</time></trkpt><trkpt lat="45.77106472653635" lon="10.758983668356969"><ele>420.0</ele><time>2026-04-20T10:23:53.986Z</time></trkpt><trkpt lat="45.77097923271023" lon="10.758994977016645"><ele>420.0</ele><time>2026-04-20T10:23:54.986Z</time></trkpt><trkpt lat="45.77089714987744" lon="10.75900626722701"><ele>420.0</ele><time>2026-04-20T10:23:55.986Z</time></trkpt><trkpt lat="45.770826447870135" lon="10.759014868847272"><ele>420.0</ele><time>2026-04-20T10:23:56.986Z</time></trkpt><trkpt lat="45.770759505031265" lon="10.759013367697063"><ele>420.0</ele><time>2026-04-20T10:23:57.986Z</time></trkpt><trkpt lat="45.770639830675464" lon="10.758987501423995"><ele>420.1666666666667</ele><time>2026-04-20T10:23:59.986Z</time></trkpt><trkpt lat="45.77057675181502" lon="10.758934934644113"><ele>420.33333333333337</ele><time>2026-04-20T10:24:00.986Z</time></trkpt><trkpt lat="45.770512737316764" lon="10.758871616940617"><ele>420.5</ele><time>2026-04-20T10:24:01.986Z</time></trkpt><trkpt lat="45.77044037858982" lon="10.758809923936415"><ele>420.6666666666667</ele><time>2026-04-20T10:24:02.986Z</time></trkpt><trkpt lat="45.77036308724429" lon="10.758731776735516"><ele>420.83333333333337</ele><time>2026-04-20T10:24:03.986Z</time></trkpt><trkpt lat="45.77027873055319" lon="10.758657015045278"><ele>421.0</ele><time>2026-04-20T10:24:04.986Z</time></trkpt><trkpt lat="45.770191218251604" lon="10.758583717554268"><ele>425.0</ele><time>2026-04-20T10:24:05.986Z</time></trkpt><trkpt lat="45.770101256601066" lon="10.758499163867691"><ele>429.0</ele><time>2026-04-20T10:24:06.986Z</time></trkpt><trkpt lat="45.77000636500297" lon="10.758418358786088"><ele>433.0</ele><time>2026-04-20T10:24:07.986Z</time></trkpt><trkpt lat="45.76991683933444" lon="10.758344486297265"><ele>437.0</ele><time>2026-04-20T10:24:08.986Z</time></trkpt><trkpt lat="45.76983363598412" lon="10.758266543285705"><ele>441.0</ele><time>2026-04-20T10:24:09.986Z</time></trkpt><trkpt lat="45.76975392995468" lon="10.758179442859314"><ele>441.0</ele><time>2026-04-20T10:24:10.986Z</time></trkpt><trkpt lat="45.769688581533146" lon="10.758106772705446"><ele>441.0</ele><time>2026-04-20T10:24:11.986Z</time></trkpt><trkpt lat="45.769619570605755" lon="10.758022599171722"><ele>441.0</ele><time>2026-04-20T10:24:12.986Z</time></trkpt><trkpt lat="45.76953888426737" lon="10.757951740827682"><ele>441.0</ele><time>2026-04-20T10:24:13.986Z</time></trkpt><trkpt lat="45.76944876023267" lon="10.757895668494843"><ele>441.0</ele><time>2026-04-20T10:24:14.986Z</time></trkpt><trkpt lat="45.769356333494635" lon="10.757832161263847"><ele>441.0</ele><time>2026-04-20T10:24:15.986Z</time></trkpt><trkpt lat="45.76926263063881" lon="10.75776977750163"><ele>441.0</ele><time>2026-04-20T10:24:16.986Z</time></trkpt><trkpt lat="45.769196001986224" lon="10.757718590298799"><ele>441.0</ele><time>2026-04-20T10:24:17.986Z</time></trkpt><trkpt lat="45.76914838597747" lon="10.75764903307293"><ele>441.0</ele><time>2026-04-20T10:24:18.986Z</time></trkpt><trkpt lat="45.76907736795575" lon="10.757578140735164"><ele>441.0</ele><time>2026-04-20T10:24:19.986Z</time></trkpt><trkpt lat="45.76899923225741" lon="10.757485253123747"><ele>441.0</ele><time>2026-04-20T10:24:20.986Z</time></trkpt><trkpt lat="45.76892874629434" lon="10.757366174332612"><ele>441.0</ele><time>2026-04-20T10:24:21.986Z</time></trkpt><trkpt lat="45.76886727183983" lon="10.757244997973274"><ele>441.0</ele><time>2026-04-20T10:24:22.986Z</time></trkpt><trkpt lat="45.76880024053092" lon="10.75711891135816"><ele>441.0</ele><time>2026-04-20T10:24:23.986Z</time></trkpt><trkpt lat="45.768736763990724" lon="10.756984549077497"><ele>441.0</ele><time>2026-04-20T10:24:24.986Z</time></trkpt><trkpt lat="45.768679504178124" lon="10.756850529250867"><ele>441.0</ele><time>2026-04-20T10:24:25.986Z</time></trkpt><trkpt lat="45.768607177865526" lon="10.756717120604442"><ele>440.5</ele><time>2026-04-20T10:24:26.986Z</time></trkpt><trkpt lat="45.7685240425625" lon="10.756575086247022"><ele>440.0</ele><time>2026-04-20T10:24:27.986Z</time></trkpt><trkpt lat="45.76845138463734" lon="10.756441177332878"><ele>439.5</ele><time>2026-04-20T10:24:28.986Z</time></trkpt><trkpt lat="45.76836729523602" lon="10.756310750685342"><ele>439.0</ele><time>2026-04-20T10:24:29.986Z</time></trkpt><trkpt lat="45.76828999087373" lon="10.756181329893078"><ele>439.0</ele><time>2026-04-20T10:24:30.986Z</time></trkpt><trkpt lat="45.76821563157896" lon="10.756063621092132"><ele>439.0</ele><time>2026-04-20T10:24:31.986Z</time></trkpt><trkpt lat="45.768153790313654" lon="10.755960410093742"><ele>439.0</ele><time>2026-04-20T10:24:32.986Z</time></trkpt><trkpt lat="45.76809918176425" lon="10.755842093821846"><ele>439.0</ele><time>2026-04-20T10:24:33.986Z</time></trkpt><trkpt lat="45.768043710007085" lon="10.755728143575022"><ele>439.0</ele><time>2026-04-20T10:24:34.986Z</time></trkpt><trkpt lat="45.76798153690718" lon="10.755626261902764"><ele>439.79999999999995</ele><time>2026-04-20T10:24:35.986Z</time></trkpt><trkpt lat="45.767912919799016" lon="10.755520404994861"><ele>440.59999999999997</ele><time>2026-04-20T10:24:36.986Z</time></trkpt><trkpt lat="45.76783922732376" lon="10.755422319324184"><ele>441.4</ele><time>2026-04-20T10:24:37.986Z</time></trkpt><trkpt lat="45.76777202183485" lon="10.75535035283628"><ele>442.2</ele><time>2026-04-20T10:24:38.986Z</time></trkpt><trkpt lat="45.76770005166382" lon="10.755275002418387"><ele>443.0</ele><time>2026-04-20T10:24:39.986Z</time></trkpt><trkpt lat="45.76762574391158" lon="10.755180749049535"><ele>442.99999999999994</ele><time>2026-04-20T10:24:40.986Z</time></trkpt><trkpt lat="45.76754883910962" lon="10.755094519079005"><ele>443.0</ele><time>2026-04-20T10:24:41.986Z</time></trkpt><trkpt lat="45.76749068912999" lon="10.75501674232484"><ele>443.0</ele><time>2026-04-20T10:24:42.986Z</time></trkpt><trkpt lat="45.7674238210605" lon="10.754937763463149"><ele>443.0</ele><time>2026-04-20T10:24:43.986Z</time></trkpt><trkpt lat="45.76738285390438" lon="10.754849137341564"><ele>442.99999999999994</ele><time>2026-04-20T10:24:44.986Z</time></trkpt><trkpt lat="45.76734838515045" lon="10.75474540214928"><ele>443.0</ele><time>2026-04-20T10:24:45.986Z</time></trkpt><trkpt lat="45.767329218758235" lon="10.754630487624693"><ele>443.0</ele><time>2026-04-20T10:24:46.986Z</time></trkpt><trkpt lat="45.76730562581943" lon="10.754499344345826"><ele>442.99999999999994</ele><time>2026-04-20T10:24:47.986Z</time></trkpt><trkpt lat="45.76729101098052" lon="10.754368031603383"><ele>442.99999999999994</ele><time>2026-04-20T10:24:48.986Z</time></trkpt><trkpt lat="45.76727588002163" lon="10.75424669946362"><ele>443.0</ele><time>2026-04-20T10:24:49.986Z</time></trkpt><trkpt lat="45.76725674857253" lon="10.754112817223971"><ele>443.0</ele><time>2026-04-20T10:24:50.986Z</time></trkpt><trkpt lat="45.76722685048966" lon="10.753972219311885"><ele>446.0</ele><time>2026-04-20T10:24:51.986Z</time></trkpt><trkpt lat="45.767190532899406" lon="10.75383466063965"><ele>448.99999999999994</ele><time>2026-04-20T10:24:52.986Z</time></trkpt><trkpt lat="45.767161792833015" lon="10.753688412367744"><ele>451.99999999999994</ele><time>2026-04-20T10:24:53.986Z</time></trkpt><trkpt lat="45.76710920542146" lon="10.753547984165651"><ele>455.0</ele><time>2026-04-20T10:24:54.986Z</time></trkpt><trkpt lat="45.767055126803946" lon="10.753420907679601"><ele>458.0</ele><time>2026-04-20T10:24:55.986Z</time></trkpt><trkpt lat="45.76700059456487" lon="10.75331629522161"><ele>455.16666666666663</ele><time>2026-04-20T10:24:56.986Z</time></trkpt><trkpt lat="45.7669426471924" lon="10.753226054308316"><ele>452.3333333333333</ele><time>2026-04-20T10:24:57.986Z</time></trkpt><trkpt lat="45.766885937362275" lon="10.75314021996467"><ele>449.5</ele><time>2026-04-20T10:24:58.986Z</time></trkpt><trkpt lat="45.76680993341929" lon="10.753013049646894"><ele>446.66666666666663</ele><time>2026-04-20T10:25:00.986Z</time></trkpt><trkpt lat="45.76677319757195" lon="10.752920090382473"><ele>443.8333333333333</ele><time>2026-04-20T10:25:01.986Z</time></trkpt><trkpt lat="45.76674389537909" lon="10.752826957557463"><ele>441.0</ele><time>2026-04-20T10:25:02.986Z</time></trkpt><trkpt lat="45.76672460435478" lon="10.752734262810927"><ele>443.1666666666667</ele><time>2026-04-20T10:25:03.986Z</time></trkpt><trkpt lat="45.766721902239766" lon="10.752641208366356"><ele>445.33333333333337</ele><time>2026-04-20T10:25:04.986Z</time></trkpt><trkpt lat="45.76670518730945" lon="10.752552636743772"><ele>447.5</ele><time>2026-04-20T10:25:05.986Z</time></trkpt><trkpt lat="45.76664650215364" lon="10.752421509690095"><ele>449.6666666666667</ele><time>2026-04-20T10:25:07.986Z</time></trkpt><trkpt lat="45.76659769946153" lon="10.752336928007598"><ele>451.83333333333337</ele><time>2026-04-20T10:25:08.986Z</time></trkpt><trkpt lat="45.76656987991268" lon="10.752202083138677"><ele>454.0</ele><time>2026-04-20T10:25:09.986Z</time></trkpt><trkpt lat="45.76650314154824" lon="10.752083326473679"><ele>454.0</ele><time>2026-04-20T10:25:10.986Z</time></trkpt><trkpt lat="45.7664435229144" lon="10.751983742580093"><ele>454.0</ele><time>2026-04-20T10:25:11.986Z</time></trkpt><trkpt lat="45.76637714615479" lon="10.751866679435036"><ele>454.0</ele><time>2026-04-20T10:25:12.986Z</time></trkpt><trkpt lat="45.76632437151572" lon="10.751740743381838"><ele>454.0</ele><time>2026-04-20T10:25:13.986Z</time></trkpt><trkpt lat="45.766270053861525" lon="10.751612805549215"><ele>454.0</ele><time>2026-04-20T10:25:14.986Z</time></trkpt><trkpt lat="45.76621800858572" lon="10.751486878120733"><ele>452.79999999999995</ele><time>2026-04-20T10:25:15.986Z</time></trkpt><trkpt lat="45.76616314225775" lon="10.751365759122258"><ele>451.59999999999997</ele><time>2026-04-20T10:25:16.986Z</time></trkpt><trkpt lat="45.76610500864643" lon="10.751245511051644"><ele>450.4</ele><time>2026-04-20T10:25:17.986Z</time></trkpt><trkpt lat="45.76605149260043" lon="10.751127101873209"><ele>449.2</ele><time>2026-04-20T10:25:18.986Z</time></trkpt><trkpt lat="45.76602189861724" lon="10.751022172506627"><ele>448.0</ele><time>2026-04-20T10:25:19.986Z</time></trkpt><trkpt lat="45.76600448301442" lon="10.750890082317495"><ele>448.0</ele><time>2026-04-20T10:25:20.986Z</time></trkpt><trkpt lat="45.76599334098624" lon="10.750734711274628"><ele>447.99999999999994</ele><time>2026-04-20T10:25:21.986Z</time></trkpt><trkpt lat="45.765996689754424" lon="10.750575767772254"><ele>447.99999999999994</ele><time>2026-04-20T10:25:22.986Z</time></trkpt><trkpt lat="45.76601707397466" lon="10.75043639969102"><ele>448.0</ele><time>2026-04-20T10:25:23.986Z</time></trkpt><trkpt lat="45.76600083675779" lon="10.750309010740036"><ele>448.0</ele><time>2026-04-20T10:25:24.986Z</time></trkpt><trkpt lat="45.765999244607144" lon="10.750200329793719"><ele>450.83333333333337</ele><time>2026-04-20T10:25:25.986Z</time></trkpt><trkpt lat="45.76597879061048" lon="10.75009057927204"><ele>453.6666666666667</ele><time>2026-04-20T10:25:26.986Z</time></trkpt><trkpt lat="45.76592766989893" lon="10.749983844797333"><ele>456.5</ele><time>2026-04-20T10:25:27.985Z</time></trkpt><trkpt lat="45.76586375811514" lon="10.74989505909348"><ele>459.33333333333337</ele><time>2026-04-20T10:25:28.985Z</time></trkpt><trkpt lat="45.76579573881321" lon="10.749817764326224"><ele>462.1666666666667</ele><time>2026-04-20T10:25:29.986Z</time></trkpt><trkpt lat="45.76573388073491" lon="10.749738604165707"><ele>465.0</ele><time>2026-04-20T10:25:30.986Z</time></trkpt><trkpt lat="45.76566977637166" lon="10.749660226079008"><ele>465.0</ele><time>2026-04-20T10:25:31.986Z</time></trkpt><trkpt lat="45.76561779135555" lon="10.749589284084136"><ele>465.0</ele><time>2026-04-20T10:25:32.985Z</time></trkpt><trkpt lat="45.76555854279693" lon="10.74952160233014"><ele>465.0</ele><time>2026-04-20T10:25:33.985Z</time></trkpt><trkpt lat="45.76546836712619" lon="10.7494932125408"><ele>465.0</ele><time>2026-04-20T10:25:34.985Z</time></trkpt><trkpt lat="45.76535160382984" lon="10.74949185264099"><ele>465.0</ele><time>2026-04-20T10:25:35.985Z</time></trkpt><trkpt lat="45.765226959117065" lon="10.749533444054363"><ele>462.4</ele><time>2026-04-20T10:25:36.985Z</time></trkpt><trkpt lat="45.7651184254534" lon="10.749601876337541"><ele>459.8</ele><time>2026-04-20T10:25:37.985Z</time></trkpt><trkpt lat="45.76501926647232" lon="10.749657351946741"><ele>457.20000000000005</ele><time>2026-04-20T10:25:38.986Z</time></trkpt><trkpt lat="45.76490717082812" lon="10.749666039615223"><ele>454.6</ele><time>2026-04-20T10:25:39.985Z</time></trkpt><trkpt lat="45.76481851044985" lon="10.749714428639912"><ele>452.0</ele><time>2026-04-20T10:25:40.985Z</time></trkpt><trkpt lat="45.764718853450056" lon="10.74971001810316"><ele>452.0</ele><time>2026-04-20T10:25:41.985Z</time></trkpt><trkpt lat="45.76461940864866" lon="10.749707716086382"><ele>452.00000000000006</ele><time>2026-04-20T10:25:42.985Z</time></trkpt><trkpt lat="45.764515106721284" lon="10.7497023623312"><ele>452.00000000000006</ele><time>2026-04-20T10:25:43.985Z</time></trkpt><trkpt lat="45.76440903459016" lon="10.749681028655026"><ele>452.0</ele><time>2026-04-20T10:25:44.985Z</time></trkpt><trkpt lat="45.76431550097123" lon="10.749638925472464"><ele>452.0</ele><time>2026-04-20T10:25:45.985Z</time></trkpt><trkpt lat="45.76421700637624" lon="10.749655453292801"><ele>452.99999999999994</ele><time>2026-04-20T10:25:46.985Z</time></trkpt><trkpt lat="45.764121964149815" lon="10.74963295022896"><ele>454.0</ele><time>2026-04-20T10:25:48.985Z</time></trkpt><trkpt lat="45.764050804261935" lon="10.749612432389137"><ele>455.0</ele><time>2026-04-20T10:26:07.985Z</time></trkpt><trkpt lat="45.763982099356525" lon="10.749649564284443"><ele>456.0</ele><time>2026-04-20T10:28:38.984Z</time></trkpt><trkpt lat="45.763911064765566" lon="10.749673543661281"><ele>456.99999999999994</ele><time>2026-04-20T10:28:39.984Z</time></trkpt><trkpt lat="45.76383523921709" lon="10.749682402191224"><ele>458.0</ele><time>2026-04-20T10:28:40.984Z</time></trkpt><trkpt lat="45.763755817643414" lon="10.749684307937942"><ele>458.0</ele><time>2026-04-20T10:28:41.984Z</time></trkpt><trkpt lat="45.763665167084014" lon="10.749696256511086"><ele>457.99999999999994</ele><time>2026-04-20T10:28:42.984Z</time></trkpt><trkpt lat="45.7635729775486" lon="10.749685334520242"><ele>457.99999999999994</ele><time>2026-04-20T10:28:43.984Z</time></trkpt><trkpt lat="45.763475795960304" lon="10.74967438996311"><ele>458.0</ele><time>2026-04-20T10:28:44.984Z</time></trkpt><trkpt lat="45.763389736042555" lon="10.749645496644884"><ele>458.0</ele><time>2026-04-20T10:28:45.984Z</time></trkpt><trkpt lat="45.763296027642454" lon="10.749586174084119"><ele>456.75</ele><time>2026-04-20T10:28:46.984Z</time></trkpt><trkpt lat="45.76319829892189" lon="10.749513081418852"><ele>455.5</ele><time>2026-04-20T10:28:47.984Z</time></trkpt><trkpt lat="45.76310127748721" lon="10.749434595661633"><ele>454.25</ele><time>2026-04-20T10:28:48.984Z</time></trkpt><trkpt lat="45.76300009995541" lon="10.749363491945772"><ele>453.0</ele><time>2026-04-20T10:28:49.984Z</time></trkpt><trkpt lat="45.76289218152974" lon="10.7492953668467"><ele>456.75</ele><time>2026-04-20T10:28:50.984Z</time></trkpt><trkpt lat="45.762786814279316" lon="10.74919403996546"><ele>460.5</ele><time>2026-04-20T10:28:51.984Z</time></trkpt><trkpt lat="45.76267916507356" lon="10.749113439920082"><ele>464.25</ele><time>2026-04-20T10:28:52.984Z</time></trkpt><trkpt lat="45.762588933170385" lon="10.749024597146205"><ele>468.0</ele><time>2026-04-20T10:28:53.984Z</time></trkpt><trkpt lat="45.76249818264731" lon="10.748941345213336"><ele>468.0</ele><time>2026-04-20T10:28:54.984Z</time></trkpt><trkpt lat="45.76241508532145" lon="10.748840861030365"><ele>467.99999999999994</ele><time>2026-04-20T10:28:55.984Z</time></trkpt><trkpt lat="45.76234430347907" lon="10.748745190848338"><ele>467.99999999999994</ele><time>2026-04-20T10:28:56.984Z</time></trkpt><trkpt lat="45.7622569135762" lon="10.748663708359713"><ele>468.0</ele><time>2026-04-20T10:28:57.984Z</time></trkpt><trkpt lat="45.76217593698531" lon="10.748570671703147"><ele>468.0</ele><time>2026-04-20T10:28:58.984Z</time></trkpt><trkpt lat="45.76209784148094" lon="10.74845639898854"><ele>467.2</ele><time>2026-04-20T10:28:59.984Z</time></trkpt><trkpt lat="45.76202108889627" lon="10.748334884899183"><ele>466.4</ele><time>2026-04-20T10:29:00.984Z</time></trkpt><trkpt lat="45.76194037943906" lon="10.748217672769263"><ele>465.59999999999997</ele><time>2026-04-20T10:29:01.984Z</time></trkpt><trkpt lat="45.76186770549469" lon="10.748091566232786"><ele>464.79999999999995</ele><time>2026-04-20T10:29:02.984Z</time></trkpt><trkpt lat="45.76181357693856" lon="10.747964952363576"><ele>464.0</ele><time>2026-04-20T10:29:03.984Z</time></trkpt><trkpt lat="45.761781576345676" lon="10.747852639227212"><ele>464.0</ele><time>2026-04-20T10:29:04.984Z</time></trkpt><trkpt lat="45.76175500319811" lon="10.747724719191005"><ele>464.0</ele><time>2026-04-20T10:29:05.984Z</time></trkpt><trkpt lat="45.76173499531776" lon="10.747577275536765"><ele>464.0</ele><time>2026-04-20T10:29:06.984Z</time></trkpt><trkpt lat="45.7617164642097" lon="10.747432856625062"><ele>464.0</ele><time>2026-04-20T10:29:07.984Z</time></trkpt><trkpt lat="45.76168748577155" lon="10.747310850023451"><ele>464.0</ele><time>2026-04-20T10:29:08.984Z</time></trkpt><trkpt lat="45.76162671692658" lon="10.747172502781085"><ele>467.75</ele><time>2026-04-20T10:29:09.984Z</time></trkpt><trkpt lat="45.761545703406966" lon="10.74703627718144"><ele>471.5</ele><time>2026-04-20T10:29:10.984Z</time></trkpt><trkpt lat="45.761451986007565" lon="10.746907572002158"><ele>475.25</ele><time>2026-04-20T10:29:11.984Z</time></trkpt><trkpt lat="45.76136224099729" lon="10.746774494960428"><ele>479.0</ele><time>2026-04-20T10:29:12.984Z</time></trkpt><trkpt lat="45.761286081788604" lon="10.746626949478573"><ele>477.5</ele><time>2026-04-20T10:29:13.984Z</time></trkpt><trkpt lat="45.76122138641642" lon="10.74647263408566"><ele>476.0</ele><time>2026-04-20T10:29:14.984Z</time></trkpt><trkpt lat="45.76115377430745" lon="10.74633448657673"><ele>474.5</ele><time>2026-04-20T10:29:15.984Z</time></trkpt><trkpt lat="45.761088628114614" lon="10.74620739695866"><ele>473.0</ele><time>2026-04-20T10:29:16.984Z</time></trkpt><trkpt lat="45.761017861141184" lon="10.746078364410916"><ele>476.0</ele><time>2026-04-20T10:29:17.984Z</time></trkpt><trkpt lat="45.76093165443214" lon="10.745975264447178"><ele>478.99999999999994</ele><time>2026-04-20T10:29:18.984Z</time></trkpt><trkpt lat="45.76083846201484" lon="10.74589678365349"><ele>481.99999999999994</ele><time>2026-04-20T10:29:19.984Z</time></trkpt><trkpt lat="45.760746314390865" lon="10.745847422534169"><ele>485.0</ele><time>2026-04-20T10:29:20.984Z</time></trkpt><trkpt lat="45.76065710234492" lon="10.745774118721696"><ele>488.0</ele><time>2026-04-20T10:29:21.984Z</time></trkpt><trkpt lat="45.760592750908096" lon="10.745710780275141"><ele>487.99999999999994</ele><time>2026-04-20T10:29:22.984Z</time></trkpt><trkpt lat="45.76053273936036" lon="10.74563323422536"><ele>488.0</ele><time>2026-04-20T10:29:23.984Z</time></trkpt><trkpt lat="45.76048750887816" lon="10.745544672669022"><ele>488.0</ele><time>2026-04-20T10:29:24.984Z</time></trkpt><trkpt lat="45.76045752852901" lon="10.7454400436355"><ele>488.0</ele><time>2026-04-20T10:29:25.984Z</time></trkpt><trkpt lat="45.76044874033515" lon="10.745300012715177"><ele>487.99999999999994</ele><time>2026-04-20T10:29:27.984Z</time></trkpt><trkpt lat="45.76044955089119" lon="10.745209602662385"><ele>488.0</ele><time>2026-04-20T10:29:28.984Z</time></trkpt><trkpt lat="45.76045954321037" lon="10.745089979225433"><ele>489.4</ele><time>2026-04-20T10:29:29.984Z</time></trkpt><trkpt lat="45.760513962014045" lon="10.74498435751971"><ele>490.79999999999995</ele><time>2026-04-20T10:29:30.984Z</time></trkpt><trkpt lat="45.76053194635458" lon="10.74486130429064"><ele>492.2</ele><time>2026-04-20T10:29:31.984Z</time></trkpt><trkpt lat="45.76057088610313" lon="10.744742527613091"><ele>493.6</ele><time>2026-04-20T10:29:32.984Z</time></trkpt><trkpt lat="45.760600240503074" lon="10.744621389468804"><ele>495.0</ele><time>2026-04-20T10:29:33.984Z</time></trkpt><trkpt lat="45.76063513365968" lon="10.744494992162894"><ele>495.0</ele><time>2026-04-20T10:29:34.984Z</time></trkpt><trkpt lat="45.76066574202267" lon="10.744362643748168"><ele>495.0</ele><time>2026-04-20T10:29:35.984Z</time></trkpt><trkpt lat="45.76069492330851" lon="10.744231279155775"><ele>495.0</ele><time>2026-04-20T10:29:36.984Z</time></trkpt><trkpt lat="45.760724008451376" lon="10.744106974557676"><ele>495.0</ele><time>2026-04-20T10:29:37.984Z</time></trkpt><trkpt lat="45.76075653546642" lon="10.743997468820474"><ele>495.0</ele><time>2026-04-20T10:29:38.983Z</time></trkpt><trkpt lat="45.76078451655951" lon="10.74386134180262"><ele>495.0</ele><time>2026-04-20T10:29:39.982Z</time></trkpt><trkpt lat="45.76080817815273" lon="10.743718217999918"><ele>495.0</ele><time>2026-04-20T10:29:40.982Z</time></trkpt><trkpt lat="45.760816994153224" lon="10.74358180014086"><ele>495.0</ele><time>2026-04-20T10:29:41.982Z</time></trkpt><trkpt lat="45.760814733801844" lon="10.743452538229736"><ele>495.0</ele><time>2026-04-20T10:29:42.983Z</time></trkpt><trkpt lat="45.760815376222425" lon="10.743320959640396"><ele>495.0</ele><time>2026-04-20T10:29:43.983Z</time></trkpt><trkpt lat="45.76080817354339" lon="10.74319140926126"><ele>494.5</ele><time>2026-04-20T10:29:44.982Z</time></trkpt><trkpt lat="45.76079755568412" lon="10.743066806562146"><ele>494.0</ele><time>2026-04-20T10:29:45.982Z</time></trkpt><trkpt lat="45.760784537275846" lon="10.742933811892765"><ele>493.5</ele><time>2026-04-20T10:29:46.982Z</time></trkpt><trkpt lat="45.76078515573194" lon="10.742812197512066"><ele>493.0</ele><time>2026-04-20T10:29:47.982Z</time></trkpt><trkpt lat="45.760783188893484" lon="10.742699614326602"><ele>492.5</ele><time>2026-04-20T10:29:48.982Z</time></trkpt><trkpt lat="45.76078467036129" lon="10.742557090669822"><ele>492.0</ele><time>2026-04-20T10:29:49.982Z</time></trkpt><trkpt lat="45.76079428771119" lon="10.74243119902451"><ele>491.20000000000005</ele><time>2026-04-20T10:29:50.982Z</time></trkpt><trkpt lat="45.76084047894414" lon="10.742306830632266"><ele>490.40000000000003</ele><time>2026-04-20T10:29:51.983Z</time></trkpt><trkpt lat="45.76088303509077" lon="10.74218941156292"><ele>489.59999999999997</ele><time>2026-04-20T10:29:52.983Z</time></trkpt><trkpt lat="45.76093102927297" lon="10.742064690158458"><ele>488.79999999999995</ele><time>2026-04-20T10:29:53.983Z</time></trkpt><trkpt lat="45.76098554943978" lon="10.741938726714457"><ele>488.0</ele><time>2026-04-20T10:29:54.983Z</time></trkpt><trkpt lat="45.7610473790237" lon="10.741786905564203"><ele>494.75</ele><time>2026-04-20T10:29:55.983Z</time></trkpt><trkpt lat="45.76110644493288" lon="10.741633857867411"><ele>501.5</ele><time>2026-04-20T10:29:56.983Z</time></trkpt><trkpt lat="45.761163286682645" lon="10.741484175782219"><ele>508.25</ele><time>2026-04-20T10:29:57.983Z</time></trkpt><trkpt lat="45.76123276103683" lon="10.741339991267738"><ele>515.0</ele><time>2026-04-20T10:29:58.983Z</time></trkpt><trkpt lat="45.76129900327276" lon="10.741171591732686"><ele>511.0</ele><time>2026-04-20T10:29:59.983Z</time></trkpt><trkpt lat="45.76136451608197" lon="10.741011260890492"><ele>507.0</ele><time>2026-04-20T10:30:00.983Z</time></trkpt><trkpt lat="45.7614387428217" lon="10.74085201790482"><ele>503.0</ele><time>2026-04-20T10:30:01.983Z</time></trkpt><trkpt lat="45.76151237516446" lon="10.740679923434213"><ele>499.0</ele><time>2026-04-20T10:30:02.983Z</time></trkpt><trkpt lat="45.76158110652307" lon="10.74049165992573"><ele>499.0</ele><time>2026-04-20T10:30:03.983Z</time></trkpt><trkpt lat="45.761661571323835" lon="10.740338699314833"><ele>499.0</ele><time>2026-04-20T10:30:04.983Z</time></trkpt><trkpt lat="45.761738664510794" lon="10.740157691515181"><ele>499.0</ele><time>2026-04-20T10:30:05.983Z</time></trkpt><trkpt lat="45.76181633740742" lon="10.739995831185555"><ele>499.0</ele><time>2026-04-20T10:30:06.983Z</time></trkpt><trkpt lat="45.76189376618406" lon="10.739840004204517"><ele>497.0</ele><time>2026-04-20T10:30:07.983Z</time></trkpt><trkpt lat="45.761964463468246" lon="10.739689488574943"><ele>495.0</ele><time>2026-04-20T10:30:08.983Z</time></trkpt><trkpt lat="45.76202095970714" lon="10.739533228009963"><ele>493.0</ele><time>2026-04-20T10:30:09.983Z</time></trkpt><trkpt lat="45.762062990026116" lon="10.739420818978873"><ele>491.0</ele><time>2026-04-20T10:30:10.983Z</time></trkpt><trkpt lat="45.76210054035249" lon="10.739314178377048"><ele>489.0</ele><time>2026-04-20T10:30:11.983Z</time></trkpt><trkpt lat="45.762145396992665" lon="10.7392222136419"><ele>489.0</ele><time>2026-04-20T10:30:12.983Z</time></trkpt><trkpt lat="45.76221164999665" lon="10.739169178850378"><ele>489.0</ele><time>2026-04-20T10:30:13.983Z</time></trkpt><trkpt lat="45.76229070774433" lon="10.73911452218522"><ele>489.0</ele><time>2026-04-20T10:30:14.983Z</time></trkpt><trkpt lat="45.76239148340406" lon="10.739072059265762"><ele>489.0</ele><time>2026-04-20T10:30:15.983Z</time></trkpt><trkpt lat="45.76249898239635" lon="10.739051078435484"><ele>489.0</ele><time>2026-04-20T10:30:16.983Z</time></trkpt><trkpt lat="45.762628756878755" lon="10.739073768758274"><ele>493.6</ele><time>2026-04-20T10:30:17.983Z</time></trkpt><trkpt lat="45.76275384032028" lon="10.739090393006952"><ele>498.2</ele><time>2026-04-20T10:30:18.983Z</time></trkpt><trkpt lat="45.762850192735186" lon="10.739098720169284"><ele>502.80000000000007</ele><time>2026-04-20T10:30:19.983Z</time></trkpt><trkpt lat="45.76294170275196" lon="10.739048793753676"><ele>507.40000000000003</ele><time>2026-04-20T10:30:20.983Z</time></trkpt><trkpt lat="45.763017042597426" lon="10.738962675749319"><ele>512.0</ele><time>2026-04-20T10:30:21.983Z</time></trkpt><trkpt lat="45.76305186843976" lon="10.738817936472307"><ele>512.0</ele><time>2026-04-20T10:30:22.983Z</time></trkpt><trkpt lat="45.76307453944172" lon="10.738638998488398"><ele>512.0</ele><time>2026-04-20T10:30:23.983Z</time></trkpt><trkpt lat="45.763101719113386" lon="10.73848948044667"><ele>512.0</ele><time>2026-04-20T10:30:24.983Z</time></trkpt><trkpt lat="45.76314044529624" lon="10.7383760180209"><ele>512.0</ele><time>2026-04-20T10:30:25.983Z</time></trkpt><trkpt lat="45.76320862469622" lon="10.738285996457458"><ele>512.0</ele><time>2026-04-20T10:30:26.983Z</time></trkpt><trkpt lat="45.763297662420534" lon="10.738239471660407"><ele>513.0</ele><time>2026-04-20T10:30:27.983Z</time></trkpt><trkpt lat="45.7633969832671" lon="10.738196604635256"><ele>514.0</ele><time>2026-04-20T10:30:28.983Z</time></trkpt><trkpt lat="45.76350952886732" lon="10.738127001662175"><ele>515.0</ele><time>2026-04-20T10:30:29.983Z</time></trkpt><trkpt lat="45.76360105412346" lon="10.73803334146604"><ele>516.0</ele><time>2026-04-20T10:30:30.983Z</time></trkpt><trkpt lat="45.763660281558614" lon="10.737917890074225"><ele>517.0</ele><time>2026-04-20T10:30:31.982Z</time></trkpt><trkpt lat="45.76373487019982" lon="10.737832876326497"><ele>517.0</ele><time>2026-04-20T10:30:32.982Z</time></trkpt><trkpt lat="45.76382055243614" lon="10.737792057638949"><ele>517.0</ele><time>2026-04-20T10:30:33.982Z</time></trkpt><trkpt lat="45.763921534846624" lon="10.737760591510671"><ele>517.0</ele><time>2026-04-20T10:30:34.982Z</time></trkpt><trkpt lat="45.76402244462852" lon="10.737721541965751"><ele>517.0</ele><time>2026-04-20T10:30:35.982Z</time></trkpt><trkpt lat="45.76414628383502" lon="10.737694879455216"><ele>517.0</ele><time>2026-04-20T10:30:36.982Z</time></trkpt><trkpt lat="45.76426997704421" lon="10.737694411028226"><ele>517.0</ele><time>2026-04-20T10:30:37.982Z</time></trkpt><trkpt lat="45.764361118087955" lon="10.737724583527035"><ele>517.0</ele><time>2026-04-20T10:30:38.982Z</time></trkpt><trkpt lat="45.76443289801713" lon="10.73770241648557"><ele>517.0</ele><time>2026-04-20T10:30:39.982Z</time></trkpt><trkpt lat="45.76450769493095" lon="10.737653232664497"><ele>517.0</ele><time>2026-04-20T10:30:40.982Z</time></trkpt><trkpt lat="45.76459668460843" lon="10.737541794370433"><ele>517.0</ele><time>2026-04-20T10:30:42.982Z</time></trkpt><trkpt lat="45.76464264705699" lon="10.737478222810315"><ele>517.0</ele><time>2026-04-20T10:30:43.982Z</time></trkpt><trkpt lat="45.76469616829081" lon="10.737412715157891"><ele>515.4</ele><time>2026-04-20T10:30:44.982Z</time></trkpt><trkpt lat="45.76474803784768" lon="10.737319919652847"><ele>513.8000000000001</ele><time>2026-04-20T10:30:45.982Z</time></trkpt><trkpt lat="45.7648129456844" lon="10.737252418623315"><ele>512.2</ele><time>2026-04-20T10:30:46.982Z</time></trkpt><trkpt lat="45.76488703296879" lon="10.73718551076225"><ele>510.6</ele><time>2026-04-20T10:30:47.982Z</time></trkpt><trkpt lat="45.76497591155559" lon="10.737122425426461"><ele>509.0</ele><time>2026-04-20T10:30:48.982Z</time></trkpt><trkpt lat="45.7650822899992" lon="10.73710250196093"><ele>511.5</ele><time>2026-04-20T10:30:49.982Z</time></trkpt><trkpt lat="45.76520442683164" lon="10.737112991615982"><ele>514.0</ele><time>2026-04-20T10:30:50.982Z</time></trkpt><trkpt lat="45.76531455026468" lon="10.737135038049065"><ele>516.5</ele><time>2026-04-20T10:30:51.982Z</time></trkpt><trkpt lat="45.76542771276591" lon="10.737183315200795"><ele>519.0</ele><time>2026-04-20T10:30:52.982Z</time></trkpt><trkpt lat="45.76553303598017" lon="10.737241889116135"><ele>519.0</ele><time>2026-04-20T10:30:53.982Z</time></trkpt><trkpt lat="45.76562757848035" lon="10.737310745356496"><ele>519.0</ele><time>2026-04-20T10:30:54.982Z</time></trkpt><trkpt lat="45.765720391129555" lon="10.737387152448575"><ele>519.0</ele><time>2026-04-20T10:30:55.982Z</time></trkpt><trkpt lat="45.765804605936026" lon="10.737472711398947"><ele>519.0</ele><time>2026-04-20T10:30:56.982Z</time></trkpt><trkpt lat="45.76589436563712" lon="10.73754638039305"><ele>519.0</ele><time>2026-04-20T10:30:57.982Z</time></trkpt><trkpt lat="45.765982993988764" lon="10.737577142683067"><ele>523.6</ele><time>2026-04-20T10:30:58.982Z</time></trkpt><trkpt lat="45.76605099736614" lon="10.737561287314593"><ele>528.2</ele><time>2026-04-20T10:30:59.982Z</time></trkpt><trkpt lat="45.76618660627179" lon="10.737522267571345"><ele>532.8000000000001</ele><time>2026-04-20T10:31:01.982Z</time></trkpt><trkpt lat="45.766263512826455" lon="10.737453575029045"><ele>537.4</ele><time>2026-04-20T10:31:02.982Z</time></trkpt><trkpt lat="45.766341412960415" lon="10.737297833803343"><ele>542.0</ele><time>2026-04-20T10:31:03.982Z</time></trkpt><trkpt lat="45.766408682851846" lon="10.737118827839153"><ele>542.0</ele><time>2026-04-20T10:31:04.982Z</time></trkpt><trkpt lat="45.76647811169348" lon="10.736970797868109"><ele>542.0</ele><time>2026-04-20T10:31:05.982Z</time></trkpt><trkpt lat="45.76656828707426" lon="10.736877222005695"><ele>542.0</ele><time>2026-04-20T10:31:06.982Z</time></trkpt><trkpt lat="45.766633339782224" lon="10.736781410664427"><ele>542.0</ele><time>2026-04-20T10:31:07.982Z</time></trkpt><trkpt lat="45.76668219912396" lon="10.736678925637893"><ele>542.0</ele><time>2026-04-20T10:31:08.982Z</time></trkpt><trkpt lat="45.766716670122705" lon="10.736533500217403"><ele>541.8000000000001</ele><time>2026-04-20T10:31:09.982Z</time></trkpt><trkpt lat="45.76670720768467" lon="10.736362478719705"><ele>541.6</ele><time>2026-04-20T10:31:10.982Z</time></trkpt><trkpt lat="45.766720877655395" lon="10.736250904056641"><ele>541.4000000000001</ele><time>2026-04-20T10:31:11.982Z</time></trkpt><trkpt lat="45.76670986833447" lon="10.73616146249456"><ele>541.2</ele><time>2026-04-20T10:31:12.982Z</time></trkpt><trkpt lat="45.76662410830236" lon="10.735952030697156"><ele>541.0</ele><time>2026-04-20T10:31:14.982Z</time></trkpt><trkpt lat="45.76654285084036" lon="10.735863467991727"><ele>541.0</ele><time>2026-04-20T10:31:15.982Z</time></trkpt><trkpt lat="45.766435570540985" lon="10.735813793596424"><ele>541.0</ele><time>2026-04-20T10:31:16.982Z</time></trkpt><trkpt lat="45.76640615454028" lon="10.735682430369213"><ele>541.0</ele><time>2026-04-20T10:31:17.982Z</time></trkpt><trkpt lat="45.766387270215226" lon="10.735570380245202"><ele>541.0</ele><time>2026-04-20T10:31:18.982Z</time></trkpt><trkpt lat="45.76640432031124" lon="10.735446905471557"><ele>541.0</ele><time>2026-04-20T10:31:19.982Z</time></trkpt><trkpt lat="45.766448312121575" lon="10.73530429829446"><ele>540.2</ele><time>2026-04-20T10:31:20.982Z</time></trkpt><trkpt lat="45.76649734762379" lon="10.735155818810282"><ele>539.4000000000001</ele><time>2026-04-20T10:31:21.982Z</time></trkpt><trkpt lat="45.76655322864711" lon="10.735000900256024"><ele>538.6</ele><time>2026-04-20T10:31:22.982Z</time></trkpt><trkpt lat="45.766601602577786" lon="10.734896230192108"><ele>537.8000000000001</ele><time>2026-04-20T10:31:23.982Z</time></trkpt><trkpt lat="45.76665253128999" lon="10.734791672996536"><ele>537.0</ele><time>2026-04-20T10:31:24.982Z</time></trkpt><trkpt lat="45.766745989502205" lon="10.7347143832283"><ele>537.0</ele><time>2026-04-20T10:31:25.982Z</time></trkpt><trkpt lat="45.766855851034556" lon="10.734632839949287"><ele>537.0</ele><time>2026-04-20T10:31:26.982Z</time></trkpt><trkpt lat="45.766949419383614" lon="10.73452692907079"><ele>537.0</ele><time>2026-04-20T10:31:27.982Z</time></trkpt><trkpt lat="45.767020613727844" lon="10.734428799913974"><ele>537.0</ele><time>2026-04-20T10:31:28.982Z</time></trkpt><trkpt lat="45.76709819873313" lon="10.734337874780786"><ele>537.0</ele><time>2026-04-20T10:31:29.982Z</time></trkpt><trkpt lat="45.767190779607674" lon="10.734242468313184"><ele>538.2</ele><time>2026-04-20T10:31:30.982Z</time></trkpt><trkpt lat="45.767292651048145" lon="10.734176416140544"><ele>539.4000000000001</ele><time>2026-04-20T10:31:31.982Z</time></trkpt><trkpt lat="45.76740173067356" lon="10.734127194732997"><ele>540.5999999999999</ele><time>2026-04-20T10:31:32.982Z</time></trkpt><trkpt lat="45.767505850688536" lon="10.734104016865869"><ele>541.8</ele><time>2026-04-20T10:31:33.982Z</time></trkpt><trkpt lat="45.76761225489287" lon="10.73411015890284"><ele>543.0</ele><time>2026-04-20T10:31:34.982Z</time></trkpt><trkpt lat="45.76770390798431" lon="10.734141925933564"><ele>543.4</ele><time>2026-04-20T10:31:35.982Z</time></trkpt><trkpt lat="45.767786446778786" lon="10.734201343383612"><ele>543.8</ele><time>2026-04-20T10:31:36.982Z</time></trkpt><trkpt lat="45.76786422805843" lon="10.734276191180319"><ele>544.2</ele><time>2026-04-20T10:31:37.982Z</time></trkpt><trkpt lat="45.7679266646826" lon="10.734364129069878"><ele>544.6</ele><time>2026-04-20T10:31:38.982Z</time></trkpt><trkpt lat="45.7679643477705" lon="10.734475771863028"><ele>545.0</ele><time>2026-04-20T10:31:39.982Z</time></trkpt><trkpt lat="45.7680198951877" lon="10.734611929330654"><ele>545.0</ele><time>2026-04-20T10:31:40.982Z</time></trkpt><trkpt lat="45.768077600790605" lon="10.734720739749259"><ele>545.0</ele><time>2026-04-20T10:31:41.982Z</time></trkpt><trkpt lat="45.768111957374835" lon="10.734818749602507"><ele>545.0</ele><time>2026-04-20T10:31:42.982Z</time></trkpt><trkpt lat="45.76814479801231" lon="10.734926252239996"><ele>545.0</ele><time>2026-04-20T10:31:43.982Z</time></trkpt><trkpt lat="45.76815457401336" lon="10.735030188516259"><ele>545.0</ele><time>2026-04-20T10:31:44.982Z</time></trkpt><trkpt lat="45.76805684356593" lon="10.735156522273373"><ele>548.3333333333333</ele><time>2026-04-20T10:31:45.982Z</time></trkpt><trkpt lat="45.767986217182894" lon="10.735237722047092"><ele>551.6666666666666</ele><time>2026-04-20T10:31:46.982Z</time></trkpt><trkpt lat="45.76798494388253" lon="10.735332423721253"><ele>555.0</ele><time>2026-04-20T10:31:47.982Z</time></trkpt><trkpt lat="45.76800076123965" lon="10.735438985564343"><ele>558.3333333333334</ele><time>2026-04-20T10:31:48.982Z</time></trkpt><trkpt lat="45.76804390881987" lon="10.735568694164106"><ele>561.6666666666667</ele><time>2026-04-20T10:31:49.982Z</time></trkpt><trkpt lat="45.76811330825643" lon="10.735684987697924"><ele>565.0</ele><time>2026-04-20T10:31:50.982Z</time></trkpt><trkpt lat="45.76818968757484" lon="10.735834177196176"><ele>565.0</ele><time>2026-04-20T10:31:51.982Z</time></trkpt><trkpt lat="45.76825487695014" lon="10.735992138890838"><ele>565.0</ele><time>2026-04-20T10:31:52.982Z</time></trkpt><trkpt lat="45.768341593823884" lon="10.7361385336135"><ele>565.0</ele><time>2026-04-20T10:31:53.982Z</time></trkpt><trkpt lat="45.76844591171281" lon="10.736283074992242"><ele>565.0</ele><time>2026-04-20T10:31:54.982Z</time></trkpt><trkpt lat="45.76854501798338" lon="10.736411840133815"><ele>565.25</ele><time>2026-04-20T10:31:55.982Z</time></trkpt><trkpt lat="45.768625214316884" lon="10.736542905960654"><ele>565.5</ele><time>2026-04-20T10:31:56.982Z</time></trkpt><trkpt lat="45.76872124224538" lon="10.7366803436779"><ele>565.75</ele><time>2026-04-20T10:31:57.982Z</time></trkpt><trkpt lat="45.76879522960974" lon="10.73680801058587"><ele>566.0</ele><time>2026-04-20T10:31:58.982Z</time></trkpt><trkpt lat="45.768885136704704" lon="10.736948164162941"><ele>571.0</ele><time>2026-04-20T10:31:59.982Z</time></trkpt><trkpt lat="45.76898555762336" lon="10.737096475489526"><ele>576.0</ele><time>2026-04-20T10:32:00.982Z</time></trkpt><trkpt lat="45.7690845085796" lon="10.737240310475887"><ele>581.0</ele><time>2026-04-20T10:32:01.982Z</time></trkpt><trkpt lat="45.76918458905112" lon="10.737371721545886"><ele>586.0</ele><time>2026-04-20T10:32:02.982Z</time></trkpt><trkpt lat="45.769276646306416" lon="10.737479206680252"><ele>586.0</ele><time>2026-04-20T10:32:03.982Z</time></trkpt><trkpt lat="45.76934591689328" lon="10.73757344523383"><ele>586.0</ele><time>2026-04-20T10:32:04.982Z</time></trkpt><trkpt lat="45.769397272694654" lon="10.737648052136525"><ele>586.0</ele><time>2026-04-20T10:32:05.982Z</time></trkpt><trkpt lat="45.76946126290004" lon="10.73771772270008"><ele>586.0</ele><time>2026-04-20T10:32:06.982Z</time></trkpt><trkpt lat="45.76952485549088" lon="10.737770963662395"><ele>586.0</ele><time>2026-04-20T10:32:07.982Z</time></trkpt><trkpt lat="45.76961985051886" lon="10.737847370605888"><ele>586.0</ele><time>2026-04-20T10:32:09.982Z</time></trkpt><trkpt lat="45.769714806399364" lon="10.737771752182526"><ele>590.2</ele><time>2026-04-20T10:32:11.982Z</time></trkpt><trkpt lat="45.76975592916308" lon="10.737653351076938"><ele>594.4000000000001</ele><time>2026-04-20T10:32:12.982Z</time></trkpt><trkpt lat="45.7697447282631" lon="10.737505061131527"><ele>598.6</ele><time>2026-04-20T10:32:13.982Z</time></trkpt><trkpt lat="45.76973406068834" lon="10.73736099975829"><ele>602.8000000000001</ele><time>2026-04-20T10:32:14.982Z</time></trkpt><trkpt lat="45.76967400916339" lon="10.73717925900315"><ele>607.0</ele><time>2026-04-20T10:32:15.982Z</time></trkpt><trkpt lat="45.769630258904" lon="10.736978115702295"><ele>608.0</ele><time>2026-04-20T10:32:16.982Z</time></trkpt><trkpt lat="45.76961619588551" lon="10.736765340526812"><ele>609.0</ele><time>2026-04-20T10:32:17.982Z</time></trkpt><trkpt lat="45.76960843414517" lon="10.73654777243473"><ele>610.0</ele><time>2026-04-20T10:32:18.982Z</time></trkpt><trkpt lat="45.76959218197781" lon="10.736367051277393"><ele>611.0</ele><time>2026-04-20T10:32:19.982Z</time></trkpt><trkpt lat="45.76957358917497" lon="10.736212448407501"><ele>611.0</ele><time>2026-04-20T10:32:20.982Z</time></trkpt><trkpt lat="45.769574698755896" lon="10.736095286545247"><ele>611.0</ele><time>2026-04-20T10:32:21.982Z</time></trkpt><trkpt lat="45.76958125452503" lon="10.735956285973213"><ele>611.0</ele><time>2026-04-20T10:32:22.982Z</time></trkpt><trkpt lat="45.76967720248098" lon="10.735863378760401"><ele>611.0</ele><time>2026-04-20T10:32:23.982Z</time></trkpt><trkpt lat="45.76975821624228" lon="10.735745175290802"><ele>611.0</ele><time>2026-04-20T10:32:24.982Z</time></trkpt><trkpt lat="45.76985574098834" lon="10.735630050250172"><ele>608.6</ele><time>2026-04-20T10:32:25.982Z</time></trkpt><trkpt lat="45.76995311964314" lon="10.73551422068962"><ele>606.2</ele><time>2026-04-20T10:32:26.982Z</time></trkpt><trkpt lat="45.77003029372802" lon="10.735403549365376"><ele>603.8</ele><time>2026-04-20T10:32:27.982Z</time></trkpt><trkpt lat="45.7701035778086" lon="10.735311227277652"><ele>601.4</ele><time>2026-04-20T10:32:28.982Z</time></trkpt><trkpt lat="45.77015251958644" lon="10.7352458396112"><ele>599.0</ele><time>2026-04-20T10:32:29.982Z</time></trkpt><trkpt lat="45.77017993996888" lon="10.735145219754306"><ele>595.25</ele><time>2026-04-20T10:32:30.982Z</time></trkpt><trkpt lat="45.77016748586975" lon="10.735005109924439"><ele>591.5</ele><time>2026-04-20T10:32:31.982Z</time></trkpt><trkpt lat="45.77013426976133" lon="10.734839857270702"><ele>587.75</ele><time>2026-04-20T10:32:32.982Z</time></trkpt><trkpt lat="45.77011207322405" lon="10.734681720911116"><ele>584.0</ele><time>2026-04-20T10:32:33.982Z</time></trkpt><trkpt lat="45.77010321507914" lon="10.734505658996406"><ele>583.2</ele><time>2026-04-20T10:32:34.982Z</time></trkpt><trkpt lat="45.77010816513798" lon="10.73431475487408"><ele>582.4</ele><time>2026-04-20T10:32:35.982Z</time></trkpt><trkpt lat="45.77013383126953" lon="10.734169581290685"><ele>581.6</ele><time>2026-04-20T10:32:36.982Z</time></trkpt><trkpt lat="45.77015588683831" lon="10.73407703500908"><ele>580.8</ele><time>2026-04-20T10:32:37.982Z</time></trkpt><trkpt lat="45.77018059693232" lon="10.733892100433954"><ele>580.0</ele><time>2026-04-20T10:32:39.982Z</time></trkpt><trkpt lat="45.77025728373867" lon="10.733807368013611"><ele>589.0</ele><time>2026-04-20T10:32:40.982Z</time></trkpt><trkpt lat="45.77035462641848" lon="10.733790237963492"><ele>598.0</ele><time>2026-04-20T10:32:41.982Z</time></trkpt><trkpt lat="45.77044731560781" lon="10.73378621126075"><ele>607.0</ele><time>2026-04-20T10:32:42.982Z</time></trkpt><trkpt lat="45.77056331311925" lon="10.733739680590684"><ele>616.0</ele><time>2026-04-20T10:32:43.982Z</time></trkpt><trkpt lat="45.77068777225783" lon="10.733700343573533"><ele>625.0</ele><time>2026-04-20T10:32:44.982Z</time></trkpt><trkpt lat="45.77078964713494" lon="10.733655951588828"><ele>625.0</ele><time>2026-04-20T10:32:45.982Z</time></trkpt><trkpt lat="45.77088658679743" lon="10.733593800844373"><ele>625.0</ele><time>2026-04-20T10:32:46.982Z</time></trkpt><trkpt lat="45.77099462869004" lon="10.733536741256772"><ele>625.0</ele><time>2026-04-20T10:32:47.982Z</time></trkpt><trkpt lat="45.77110338388572" lon="10.733456412865976"><ele>625.0</ele><time>2026-04-20T10:32:48.982Z</time></trkpt><trkpt lat="45.77118801503525" lon="10.733372477976335"><ele>625.0</ele><time>2026-04-20T10:32:49.982Z</time></trkpt><trkpt lat="45.77128024224806" lon="10.733326688212799"><ele>625.6</ele><time>2026-04-20T10:32:50.982Z</time></trkpt><trkpt lat="45.77136870474252" lon="10.733314464453182"><ele>626.2</ele><time>2026-04-20T10:32:51.982Z</time></trkpt><trkpt lat="45.77146894719236" lon="10.733268108794057"><ele>626.8</ele><time>2026-04-20T10:32:52.982Z</time></trkpt><trkpt lat="45.771579977726226" lon="10.733217285312916"><ele>627.4</ele><time>2026-04-20T10:32:54.982Z</time></trkpt><trkpt lat="45.77160387944455" lon="10.733090588555367"><ele>628.0</ele><time>2026-04-20T10:32:55.982Z</time></trkpt><trkpt lat="45.771595749787785" lon="10.732921100938949"><ele>628.0</ele><time>2026-04-20T10:32:56.982Z</time></trkpt><trkpt lat="45.77150395617384" lon="10.732754655297768"><ele>628.0</ele><time>2026-04-20T10:32:57.982Z</time></trkpt><trkpt lat="45.77141710283259" lon="10.73261509307166"><ele>628.0</ele><time>2026-04-20T10:32:58.982Z</time></trkpt><trkpt lat="45.771337595896846" lon="10.73247496549942"><ele>628.0</ele><time>2026-04-20T10:32:59.982Z</time></trkpt><trkpt lat="45.771280107531105" lon="10.732344920608368"><ele>628.3333333333334</ele><time>2026-04-20T10:33:00.982Z</time></trkpt><trkpt lat="45.77123731418365" lon="10.732229338959888"><ele>628.6666666666667</ele><time>2026-04-20T10:33:01.982Z</time></trkpt><trkpt lat="45.77121945158144" lon="10.732128176743151"><ele>629.0</ele><time>2026-04-20T10:33:02.982Z</time></trkpt><trkpt lat="45.77121608928517" lon="10.73200739052395"><ele>629.3333333333334</ele><time>2026-04-20T10:33:03.982Z</time></trkpt><trkpt lat="45.771214144391465" lon="10.731863577237352"><ele>629.6666666666666</ele><time>2026-04-20T10:33:04.982Z</time></trkpt><trkpt lat="45.77125009030185" lon="10.7317308223754"><ele>630.0</ele><time>2026-04-20T10:33:05.982Z</time></trkpt><trkpt lat="45.77130774574432" lon="10.731617431142439"><ele>630.0</ele><time>2026-04-20T10:33:06.982Z</time></trkpt><trkpt lat="45.77137636955478" lon="10.731501290951039"><ele>630.0</ele><time>2026-04-20T10:33:07.982Z</time></trkpt><trkpt lat="45.77145511863329" lon="10.731369987779392"><ele>630.0</ele><time>2026-04-20T10:33:08.982Z</time></trkpt><trkpt lat="45.77154599600541" lon="10.731240151233989"><ele>630.0</ele><time>2026-04-20T10:33:09.982Z</time></trkpt><trkpt lat="45.771642878215246" lon="10.731125387249513"><ele>634.0</ele><time>2026-04-20T10:33:10.982Z</time></trkpt><trkpt lat="45.771747611328614" lon="10.73100886699938"><ele>638.0</ele><time>2026-04-20T10:33:11.982Z</time></trkpt><trkpt lat="45.77185383263691" lon="10.730892727756173"><ele>642.0</ele><time>2026-04-20T10:33:12.982Z</time></trkpt><trkpt lat="45.77195707761438" lon="10.730754388519168"><ele>646.0</ele><time>2026-04-20T10:33:13.982Z</time></trkpt><trkpt lat="45.772064470531184" lon="10.730608356315662"><ele>646.0</ele><time>2026-04-20T10:33:14.982Z</time></trkpt><trkpt lat="45.77216522077782" lon="10.730464447736084"><ele>646.0</ele><time>2026-04-20T10:33:15.982Z</time></trkpt><trkpt lat="45.77228298430366" lon="10.730341016484067"><ele>646.0</ele><time>2026-04-20T10:33:16.982Z</time></trkpt><trkpt lat="45.77239418995769" lon="10.730236874685389"><ele>646.0</ele><time>2026-04-20T10:33:17.982Z</time></trkpt><trkpt lat="45.772509293063344" lon="10.730112528598111"><ele>648.25</ele><time>2026-04-20T10:33:18.982Z</time></trkpt><trkpt lat="45.77262040432452" lon="10.729978500692711"><ele>650.5</ele><time>2026-04-20T10:33:19.982Z</time></trkpt><trkpt lat="45.77273050757854" lon="10.729846306952712"><ele>652.75</ele><time>2026-04-20T10:33:20.982Z</time></trkpt><trkpt lat="45.772834994497074" lon="10.729728560922187"><ele>655.0</ele><time>2026-04-20T10:33:21.982Z</time></trkpt><trkpt lat="45.77293109329267" lon="10.729617530632602"><ele>655.0</ele><time>2026-04-20T10:33:22.982Z</time></trkpt><trkpt lat="45.773045443394004" lon="10.729547795260684"><ele>655.0</ele><time>2026-04-20T10:33:23.982Z</time></trkpt><trkpt lat="45.77316256943348" lon="10.729522057581445"><ele>655.0</ele><time>2026-04-20T10:33:24.982Z</time></trkpt><trkpt lat="45.77328887171735" lon="10.729512113042992"><ele>655.0</ele><time>2026-04-20T10:33:25.982Z</time></trkpt><trkpt lat="45.77342965286037" lon="10.729505639823557"><ele>656.0</ele><time>2026-04-20T10:33:26.982Z</time></trkpt><trkpt lat="45.773576124311006" lon="10.729504870206934"><ele>657.0</ele><time>2026-04-20T10:33:27.982Z</time></trkpt><trkpt lat="45.77372885086304" lon="10.729504860467161"><ele>658.0</ele><time>2026-04-20T10:33:28.982Z</time></trkpt><trkpt lat="45.77387026827831" lon="10.729510684884879"><ele>659.0</ele><time>2026-04-20T10:33:29.982Z</time></trkpt><trkpt lat="45.77400021943655" lon="10.729506245614367"><ele>659.0</ele><time>2026-04-20T10:33:30.982Z</time></trkpt><trkpt lat="45.77412044706389" lon="10.729496392894353"><ele>659.0</ele><time>2026-04-20T10:33:31.982Z</time></trkpt><trkpt lat="45.77424043757577" lon="10.729456272163027"><ele>659.0</ele><time>2026-04-20T10:33:32.982Z</time></trkpt><trkpt lat="45.77436931069306" lon="10.729397863520225"><ele>659.0</ele><time>2026-04-20T10:33:33.982Z</time></trkpt><trkpt lat="45.77449468316396" lon="10.729317456274169"><ele>656.5</ele><time>2026-04-20T10:33:34.982Z</time></trkpt><trkpt lat="45.77460546073964" lon="10.729242690890915"><ele>654.0</ele><time>2026-04-20T10:33:35.982Z</time></trkpt><trkpt lat="45.77471058566597" lon="10.729169492201969"><ele>651.5</ele><time>2026-04-20T10:33:36.982Z</time></trkpt><trkpt lat="45.774814972559234" lon="10.729087005889301"><ele>649.0</ele><time>2026-04-20T10:33:37.982Z</time></trkpt><trkpt lat="45.774914168289726" lon="10.728992884836185"><ele>649.0</ele><time>2026-04-20T10:33:38.982Z</time></trkpt><trkpt lat="45.77500391464109" lon="10.728875058280106"><ele>649.0</ele><time>2026-04-20T10:33:39.982Z</time></trkpt><trkpt lat="45.77508256528672" lon="10.728740196873837"><ele>649.0</ele><time>2026-04-20T10:33:40.982Z</time></trkpt><trkpt lat="45.77515807694076" lon="10.728590278986353"><ele>649.0</ele><time>2026-04-20T10:33:41.982Z</time></trkpt><trkpt lat="45.77521597064434" lon="10.728459533842441"><ele>652.75</ele><time>2026-04-20T10:33:42.982Z</time></trkpt><trkpt lat="45.775264006345765" lon="10.728313163194318"><ele>656.5</ele><time>2026-04-20T10:33:43.982Z</time></trkpt><trkpt lat="45.77530163187435" lon="10.728154622102211"><ele>660.25</ele><time>2026-04-20T10:33:44.982Z</time></trkpt><trkpt lat="45.775322147310526" lon="10.72798489606039"><ele>664.0</ele><time>2026-04-20T10:33:45.982Z</time></trkpt><trkpt lat="45.775361138245174" lon="10.727807876128516"><ele>661.75</ele><time>2026-04-20T10:33:46.982Z</time></trkpt><trkpt lat="45.77538180331733" lon="10.727642966403804"><ele>659.5</ele><time>2026-04-20T10:33:47.982Z</time></trkpt><trkpt lat="45.77539382124007" lon="10.727472060710115"><ele>657.25</ele><time>2026-04-20T10:33:48.982Z</time></trkpt><trkpt lat="45.77537901708297" lon="10.727312194259987"><ele>655.0</ele><time>2026-04-20T10:33:49.982Z</time></trkpt><trkpt lat="45.77536272413445" lon="10.727153502941482"><ele>655.0</ele><time>2026-04-20T10:33:50.982Z</time></trkpt><trkpt lat="45.775357235083455" lon="10.726974627859148"><ele>655.0</ele><time>2026-04-20T10:33:51.982Z</time></trkpt><trkpt lat="45.775313864371476" lon="10.726800803504537"><ele>655.0</ele><time>2026-04-20T10:33:52.982Z</time></trkpt><trkpt lat="45.77529101776162" lon="10.726619604404274"><ele>655.0</ele><time>2026-04-20T10:33:53.981Z</time></trkpt><trkpt lat="45.7752631257724" lon="10.726440991210392"><ele>657.5</ele><time>2026-04-20T10:33:54.982Z</time></trkpt><trkpt lat="45.775230566359426" lon="10.726260628446646"><ele>660.0</ele><time>2026-04-20T10:33:55.982Z</time></trkpt><trkpt lat="45.775195590116624" lon="10.72608364085071"><ele>662.5</ele><time>2026-04-20T10:33:56.981Z</time></trkpt><trkpt lat="45.775164560818894" lon="10.725911370273735"><ele>665.0</ele><time>2026-04-20T10:33:57.982Z</time></trkpt><trkpt lat="45.775136318028004" lon="10.72577305272486"><ele>660.8</ele><time>2026-04-20T10:33:58.982Z</time></trkpt><trkpt lat="45.77511339890809" lon="10.725649035317574"><ele>656.6</ele><time>2026-04-20T10:33:59.981Z</time></trkpt><trkpt lat="45.775079306916666" lon="10.725514724238655"><ele>652.4000000000001</ele><time>2026-04-20T10:34:00.982Z</time></trkpt><trkpt lat="45.77504239607449" lon="10.725369357733953"><ele>648.2</ele><time>2026-04-20T10:34:01.982Z</time></trkpt><trkpt lat="45.7749960762293" lon="10.725195985937477"><ele>644.0</ele><time>2026-04-20T10:34:02.982Z</time></trkpt><trkpt lat="45.77494664286824" lon="10.725007686121343"><ele>644.0</ele><time>2026-04-20T10:34:03.982Z</time></trkpt><trkpt lat="45.7749061695397" lon="10.724798485026469"><ele>644.0</ele><time>2026-04-20T10:34:04.982Z</time></trkpt><trkpt lat="45.774866551142225" lon="10.724584350847822"><ele>644.0</ele><time>2026-04-20T10:34:05.982Z</time></trkpt><trkpt lat="45.77482752641608" lon="10.72437632198602"><ele>646.75</ele><time>2026-04-20T10:34:06.982Z</time></trkpt><trkpt lat="45.774815096283" lon="10.724180359134342"><ele>649.5</ele><time>2026-04-20T10:34:07.982Z</time></trkpt><trkpt lat="45.77477974820428" lon="10.724029707585682"><ele>652.25</ele><time>2026-04-20T10:34:08.982Z</time></trkpt><trkpt lat="45.77476257809071" lon="10.723886655937566"><ele>655.0</ele><time>2026-04-20T10:34:09.982Z</time></trkpt><trkpt lat="45.77476742442621" lon="10.723730584693897"><ele>655.0</ele><time>2026-04-20T10:34:10.982Z</time></trkpt><trkpt lat="45.77475495468758" lon="10.72357338304514"><ele>655.0</ele><time>2026-04-20T10:34:11.982Z</time></trkpt><trkpt lat="45.77477845188514" lon="10.723435092687748"><ele>655.0</ele><time>2026-04-20T10:34:12.982Z</time></trkpt><trkpt lat="45.774780045564945" lon="10.723320844260032"><ele>655.0</ele><time>2026-04-20T10:34:13.982Z</time></trkpt><trkpt lat="45.77483211845684" lon="10.723201698485092"><ele>655.0</ele><time>2026-04-20T10:34:14.982Z</time></trkpt><trkpt lat="45.77490569786683" lon="10.723083432373523"><ele>655.5</ele><time>2026-04-20T10:34:15.982Z</time></trkpt><trkpt lat="45.77496292111218" lon="10.722948006349213"><ele>656.0</ele><time>2026-04-20T10:34:16.982Z</time></trkpt><trkpt lat="45.775006452071224" lon="10.722794455005918"><ele>656.5</ele><time>2026-04-20T10:34:17.982Z</time></trkpt><trkpt lat="45.77504059715723" lon="10.722624193957925"><ele>657.0</ele><time>2026-04-20T10:34:18.982Z</time></trkpt><trkpt lat="45.77507418324043" lon="10.722440467031175"><ele>657.0</ele><time>2026-04-20T10:34:19.982Z</time></trkpt><trkpt lat="45.77511093376406" lon="10.722250061294728"><ele>657.0</ele><time>2026-04-20T10:34:20.982Z</time></trkpt><trkpt lat="45.77514757613382" lon="10.722068143663035"><ele>657.0</ele><time>2026-04-20T10:34:21.982Z</time></trkpt><trkpt lat="45.775183577117275" lon="10.721900586080954"><ele>657.0</ele><time>2026-04-20T10:34:22.982Z</time></trkpt><trkpt lat="45.775223659072594" lon="10.721737362989193"><ele>661.25</ele><time>2026-04-20T10:34:23.982Z</time></trkpt><trkpt lat="45.775266503433315" lon="10.721552121428712"><ele>665.5</ele><time>2026-04-20T10:34:24.982Z</time></trkpt><trkpt lat="45.77533924387013" lon="10.721371909395298"><ele>669.75</ele><time>2026-04-20T10:34:25.982Z</time></trkpt><trkpt lat="45.77542577636402" lon="10.721184655271477"><ele>674.0</ele><time>2026-04-20T10:34:26.982Z</time></trkpt><trkpt lat="45.77552461841096" lon="10.720999324109355"><ele>674.0</ele><time>2026-04-20T10:34:27.982Z</time></trkpt><trkpt lat="45.77561351171632" lon="10.72083587308825"><ele>674.0</ele><time>2026-04-20T10:34:28.981Z</time></trkpt><trkpt lat="45.77569625585004" lon="10.720689812338149"><ele>674.0</ele><time>2026-04-20T10:34:29.981Z</time></trkpt><trkpt lat="45.77578674408378" lon="10.72054413445998"><ele>674.0</ele><time>2026-04-20T10:34:30.981Z</time></trkpt><trkpt lat="45.77587717369267" lon="10.720424357647063"><ele>674.0</ele><time>2026-04-20T10:34:31.981Z</time></trkpt><trkpt lat="45.775962478818585" lon="10.72034275691649"><ele>674.0</ele><time>2026-04-20T10:34:32.98Z</time></trkpt><trkpt lat="45.77604480416803" lon="10.720296422679683"><ele>674.0</ele><time>2026-04-20T10:34:33.98Z</time></trkpt><trkpt lat="45.776125809167645" lon="10.720278748799029"><ele>674.0</ele><time>2026-04-20T10:34:34.98Z</time></trkpt><trkpt lat="45.77622637340588" lon="10.720284007307333"><ele>674.0</ele><time>2026-04-20T10:34:35.98Z</time></trkpt><trkpt lat="45.77633779162114" lon="10.720318604470988"><ele>675.75</ele><time>2026-04-20T10:34:36.98Z</time></trkpt><trkpt lat="45.77647067058215" lon="10.720356807812612"><ele>677.5</ele><time>2026-04-20T10:34:37.98Z</time></trkpt><trkpt lat="45.77662220737651" lon="10.720408808259695"><ele>679.25</ele><time>2026-04-20T10:34:38.98Z</time></trkpt><trkpt lat="45.77677269017186" lon="10.720467077468301"><ele>681.0</ele><time>2026-04-20T10:34:39.98Z</time></trkpt><trkpt lat="45.77692054735523" lon="10.720528608637078"><ele>676.0</ele><time>2026-04-20T10:34:40.98Z</time></trkpt><trkpt lat="45.77705928756094" lon="10.72059230601503"><ele>671.0</ele><time>2026-04-20T10:34:41.98Z</time></trkpt><trkpt lat="45.7771999267983" lon="10.720664188183878"><ele>666.0</ele><time>2026-04-20T10:34:42.98Z</time></trkpt><trkpt lat="45.777313568060734" lon="10.720720049693405"><ele>661.0</ele><time>2026-04-20T10:34:43.98Z</time></trkpt><trkpt lat="45.777404728177565" lon="10.720769056948926"><ele>661.0</ele><time>2026-04-20T10:34:44.98Z</time></trkpt><trkpt lat="45.777483800901386" lon="10.72082110870791"><ele>661.0</ele><time>2026-04-20T10:34:45.98Z</time></trkpt><trkpt lat="45.77752151843835" lon="10.720903539856526"><ele>661.0</ele><time>2026-04-20T10:34:46.98Z</time></trkpt><trkpt lat="45.7775741372409" lon="10.72096763472574"><ele>661.0</ele><time>2026-04-20T10:34:47.98Z</time></trkpt><trkpt lat="45.77760947920364" lon="10.721076779376709"><ele>661.0</ele><time>2026-04-20T10:34:48.98Z</time></trkpt><trkpt lat="45.7776581511574" lon="10.721156793686887"><ele>661.0</ele><time>2026-04-20T10:34:49.98Z</time></trkpt><trkpt lat="45.77771995745469" lon="10.721225760072665"><ele>660.4</ele><time>2026-04-20T10:34:50.98Z</time></trkpt><trkpt lat="45.7778010981513" lon="10.721260563417594"><ele>659.8</ele><time>2026-04-20T10:34:51.98Z</time></trkpt><trkpt lat="45.777889031375445" lon="10.72126694164493"><ele>659.1999999999999</ele><time>2026-04-20T10:34:52.98Z</time></trkpt><trkpt lat="45.77798809646716" lon="10.721252447097466"><ele>658.5999999999999</ele><time>2026-04-20T10:34:53.98Z</time></trkpt><trkpt lat="45.77809294859504" lon="10.72126342599917"><ele>658.0</ele><time>2026-04-20T10:34:54.98Z</time></trkpt><trkpt lat="45.77820139342936" lon="10.721297017691365"><ele>658.0</ele><time>2026-04-20T10:34:55.98Z</time></trkpt><trkpt lat="45.77831771628044" lon="10.721350449986634"><ele>658.0</ele><time>2026-04-20T10:34:56.98Z</time></trkpt><trkpt lat="45.77841485519196" lon="10.72140170731457"><ele>658.0</ele><time>2026-04-20T10:34:57.98Z</time></trkpt><trkpt lat="45.77849446117854" lon="10.721450754783566"><ele>658.0</ele><time>2026-04-20T10:34:58.98Z</time></trkpt><trkpt lat="45.77855607922641" lon="10.721533409464454"><ele>658.0</ele><time>2026-04-20T10:34:59.98Z</time></trkpt><trkpt lat="45.77861967360569" lon="10.72165651099971"><ele>654.0</ele><time>2026-04-20T10:35:00.98Z</time></trkpt><trkpt lat="45.77867105824833" lon="10.72181590375606"><ele>650.0</ele><time>2026-04-20T10:35:01.98Z</time></trkpt><trkpt lat="45.77872500145221" lon="10.721998527488548"><ele>646.0</ele><time>2026-04-20T10:35:02.98Z</time></trkpt><trkpt lat="45.77877931343686" lon="10.722176304466231"><ele>642.0</ele><time>2026-04-20T10:35:03.98Z</time></trkpt><trkpt lat="45.77884357606379" lon="10.72236412457871"><ele>642.0</ele><time>2026-04-20T10:35:04.98Z</time></trkpt><trkpt lat="45.77891686732303" lon="10.722557236395392"><ele>642.0</ele><time>2026-04-20T10:35:05.98Z</time></trkpt><trkpt lat="45.77897675254695" lon="10.722747707022133"><ele>642.0</ele><time>2026-04-20T10:35:06.98Z</time></trkpt><trkpt lat="45.779032352367814" lon="10.722913088302633"><ele>642.0</ele><time>2026-04-20T10:35:07.98Z</time></trkpt><trkpt lat="45.7790944718541" lon="10.723062311831976"><ele>645.25</ele><time>2026-04-20T10:35:08.98Z</time></trkpt><trkpt lat="45.77918597274601" lon="10.723191935402284"><ele>648.5</ele><time>2026-04-20T10:35:09.98Z</time></trkpt><trkpt lat="45.7792840038272" lon="10.723285879253837"><ele>651.75</ele><time>2026-04-20T10:35:10.98Z</time></trkpt><trkpt lat="45.77937697252631" lon="10.723367097326175"><ele>655.0</ele><time>2026-04-20T10:35:11.98Z</time></trkpt><trkpt lat="45.779451001520336" lon="10.723483965679645"><ele>650.0</ele><time>2026-04-20T10:35:12.98Z</time></trkpt><trkpt lat="45.77950126952324" lon="10.723651877299687"><ele>645.0</ele><time>2026-04-20T10:35:13.98Z</time></trkpt><trkpt lat="45.779534713524654" lon="10.723856576906782"><ele>640.0</ele><time>2026-04-20T10:35:14.98Z</time></trkpt><trkpt lat="45.779566308321726" lon="10.72408257151555"><ele>635.0</ele><time>2026-04-20T10:35:15.98Z</time></trkpt><trkpt lat="45.779621702689695" lon="10.724306044769454"><ele>637.3333333333333</ele><time>2026-04-20T10:35:16.98Z</time></trkpt><trkpt lat="45.779676031488194" lon="10.724527968146132"><ele>639.6666666666666</ele><time>2026-04-20T10:35:17.98Z</time></trkpt><trkpt lat="45.77974460167326" lon="10.724740106458022"><ele>642.0</ele><time>2026-04-20T10:35:18.98Z</time></trkpt><trkpt lat="45.779814581875755" lon="10.724953977022219"><ele>642.0</ele><time>2026-04-20T10:35:19.98Z</time></trkpt><trkpt lat="45.77988586877753" lon="10.725166114310369"><ele>642.0</ele><time>2026-04-20T10:35:20.98Z</time></trkpt><trkpt lat="45.779970989014416" lon="10.725341673998274"><ele>642.0</ele><time>2026-04-20T10:35:21.98Z</time></trkpt><trkpt lat="45.78004121539094" lon="10.72551246261612"><ele>639.5</ele><time>2026-04-20T10:35:22.98Z</time></trkpt><trkpt lat="45.78011308090553" lon="10.725657396013363"><ele>637.0</ele><time>2026-04-20T10:35:23.98Z</time></trkpt><trkpt lat="45.780199133021284" lon="10.725786292852437"><ele>634.5</ele><time>2026-04-20T10:35:24.98Z</time></trkpt><trkpt lat="45.780299374684766" lon="10.725887561436707"><ele>632.0</ele><time>2026-04-20T10:35:25.98Z</time></trkpt><trkpt lat="45.780396662006595" lon="10.725954164694256"><ele>632.0</ele><time>2026-04-20T10:35:26.98Z</time></trkpt><trkpt lat="45.78050378204611" lon="10.725994971064477"><ele>632.0</ele><time>2026-04-20T10:35:27.98Z</time></trkpt><trkpt lat="45.78063392481773" lon="10.725996618333802"><ele>632.0</ele><time>2026-04-20T10:35:28.98Z</time></trkpt><trkpt lat="45.780795980124644" lon="10.72595401237921"><ele>632.0</ele><time>2026-04-20T10:35:29.98Z</time></trkpt><trkpt lat="45.78096868394551" lon="10.725901383335588"><ele>632.0</ele><time>2026-04-20T10:35:30.98Z</time></trkpt><trkpt lat="45.781145194914274" lon="10.725854952709629"><ele>632.0</ele><time>2026-04-20T10:35:31.98Z</time></trkpt><trkpt lat="45.7813177860933" lon="10.72581881836104"><ele>632.0</ele><time>2026-04-20T10:35:32.98Z</time></trkpt><trkpt lat="45.78148597826563" lon="10.725774444645904"><ele>632.0</ele><time>2026-04-20T10:35:33.98Z</time></trkpt><trkpt lat="45.78165192458614" lon="10.72573522271185"><ele>632.0</ele><time>2026-04-20T10:35:34.98Z</time></trkpt><trkpt lat="45.78180555765069" lon="10.725703122851955"><ele>632.0</ele><time>2026-04-20T10:35:35.98Z</time></trkpt><trkpt lat="45.78194240035964" lon="10.725663668113377"><ele>633.0</ele><time>2026-04-20T10:35:36.98Z</time></trkpt><trkpt lat="45.782068143178975" lon="10.72562346682006"><ele>634.0</ele><time>2026-04-20T10:35:37.98Z</time></trkpt><trkpt lat="45.782194506323314" lon="10.725577497839463"><ele>635.0</ele><time>2026-04-20T10:35:38.98Z</time></trkpt><trkpt lat="45.782310629320705" lon="10.725515160019429"><ele>636.0</ele><time>2026-04-20T10:35:39.98Z</time></trkpt><trkpt lat="45.782396234810776" lon="10.725465615444227"><ele>636.0</ele><time>2026-04-20T10:35:40.98Z</time></trkpt><trkpt lat="45.78247017210471" lon="10.725424864491602"><ele>636.0</ele><time>2026-04-20T10:35:41.98Z</time></trkpt><trkpt lat="45.78256439892398" lon="10.72537767568391"><ele>636.0</ele><time>2026-04-20T10:35:43.98Z</time></trkpt><trkpt lat="45.78263097434019" lon="10.725337262204759"><ele>636.0</ele><time>2026-04-20T10:35:45.98Z</time></trkpt><trkpt lat="45.78268293039273" lon="10.725191046569254"><ele>636.0</ele><time>2026-04-20T10:35:47.98Z</time></trkpt><trkpt lat="45.78266939193804" lon="10.72503927473578"><ele>634.75</ele><time>2026-04-20T10:35:48.98Z</time></trkpt><trkpt lat="45.78265381113784" lon="10.72487349674538"><ele>633.5</ele><time>2026-04-20T10:35:49.98Z</time></trkpt><trkpt lat="45.782629265674906" lon="10.724659118353989"><ele>632.25</ele><time>2026-04-20T10:35:50.98Z</time></trkpt><trkpt lat="45.78260886661581" lon="10.724419948822622"><ele>631.0</ele><time>2026-04-20T10:35:51.98Z</time></trkpt><trkpt lat="45.78260710146709" lon="10.72416884099677"><ele>629.3333333333334</ele><time>2026-04-20T10:35:52.98Z</time></trkpt><trkpt lat="45.78257344438034" lon="10.723905703334207"><ele>627.6666666666666</ele><time>2026-04-20T10:35:53.98Z</time></trkpt><trkpt lat="45.782566813984495" lon="10.723665572780433"><ele>626.0</ele><time>2026-04-20T10:35:54.98Z</time></trkpt><trkpt lat="45.78254584768356" lon="10.723455820195543"><ele>626.0</ele><time>2026-04-20T10:35:55.98Z</time></trkpt><trkpt lat="45.782526303007096" lon="10.723245946276771"><ele>626.0</ele><time>2026-04-20T10:35:56.98Z</time></trkpt><trkpt lat="45.78252193438764" lon="10.723047174911484"><ele>626.0</ele><time>2026-04-20T10:35:57.98Z</time></trkpt><trkpt lat="45.78250809432378" lon="10.722851708077597"><ele>626.0</ele><time>2026-04-20T10:35:58.98Z</time></trkpt><trkpt lat="45.782493134580584" lon="10.722664609521456"><ele>625.75</ele><time>2026-04-20T10:35:59.98Z</time></trkpt><trkpt lat="45.782472736070616" lon="10.722471124403556"><ele>625.5</ele><time>2026-04-20T10:36:00.98Z</time></trkpt><trkpt lat="45.782443151097176" lon="10.722275145513384"><ele>625.25</ele><time>2026-04-20T10:36:01.98Z</time></trkpt><trkpt lat="45.782411417843825" lon="10.722075184172205"><ele>625.0</ele><time>2026-04-20T10:36:02.981Z</time></trkpt><trkpt lat="45.78238031200459" lon="10.721882043336135"><ele>624.6</ele><time>2026-04-20T10:36:03.98Z</time></trkpt><trkpt lat="45.78235161288756" lon="10.721706927683416"><ele>624.2</ele><time>2026-04-20T10:36:04.98Z</time></trkpt><trkpt lat="45.782330111183" lon="10.721563924699254"><ele>623.8</ele><time>2026-04-20T10:36:05.98Z</time></trkpt><trkpt lat="45.78231300261498" lon="10.721426210089984"><ele>623.4</ele><time>2026-04-20T10:36:06.98Z</time></trkpt><trkpt lat="45.78230234085447" lon="10.721289296473602"><ele>623.0</ele><time>2026-04-20T10:36:07.98Z</time></trkpt><trkpt lat="45.782302769717155" lon="10.721164244989078"><ele>621.4</ele><time>2026-04-20T10:36:08.98Z</time></trkpt><trkpt lat="45.78234823633495" lon="10.721044878331613"><ele>619.8</ele><time>2026-04-20T10:36:09.98Z</time></trkpt><trkpt lat="45.78241969181495" lon="10.720940500490297"><ele>618.2</ele><time>2026-04-20T10:36:10.98Z</time></trkpt><trkpt lat="45.78251721713627" lon="10.720855649708266"><ele>616.6</ele><time>2026-04-20T10:36:11.98Z</time></trkpt><trkpt lat="45.78259534622612" lon="10.72079151507122"><ele>615.0</ele><time>2026-04-20T10:36:12.98Z</time></trkpt><trkpt lat="45.782665209703104" lon="10.720757565915271"><ele>612.5</ele><time>2026-04-20T10:36:13.98Z</time></trkpt><trkpt lat="45.782758883590986" lon="10.72078515758271"><ele>610.0</ele><time>2026-04-20T10:36:14.98Z</time></trkpt><trkpt lat="45.78287252347145" lon="10.720838639722492"><ele>607.5</ele><time>2026-04-20T10:36:15.98Z</time></trkpt><trkpt lat="45.7829988199035" lon="10.720913880754425"><ele>605.0</ele><time>2026-04-20T10:36:16.98Z</time></trkpt><trkpt lat="45.78312925308853" lon="10.720930488558503"><ele>605.0</ele><time>2026-04-20T10:36:17.98Z</time></trkpt><trkpt lat="45.783215685665475" lon="10.72097886484839"><ele>605.0</ele><time>2026-04-20T10:36:18.98Z</time></trkpt><trkpt lat="45.783285598759036" lon="10.721024664948837"><ele>605.0</ele><time>2026-04-20T10:36:19.98Z</time></trkpt><trkpt lat="45.78340228011678" lon="10.721026662876712"><ele>605.0</ele><time>2026-04-20T10:36:21.98Z</time></trkpt><trkpt lat="45.78350103828506" lon="10.721006481108024"><ele>605.0</ele><time>2026-04-20T10:36:23.98Z</time></trkpt><trkpt lat="45.783540202325916" lon="10.721150258208683"><ele>605.0</ele><time>2026-04-20T10:36:25.98Z</time></trkpt><trkpt lat="45.78356187505601" lon="10.721267166385116"><ele>605.0</ele><time>2026-04-20T10:36:26.98Z</time></trkpt><trkpt lat="45.783601922612924" lon="10.721358175543164"><ele>605.0</ele><time>2026-04-20T10:36:27.98Z</time></trkpt><trkpt lat="45.78367369266129" lon="10.7213989452579"><ele>605.0</ele><time>2026-04-20T10:36:28.98Z</time></trkpt><trkpt lat="45.78375237794876" lon="10.721436505096115"><ele>605.0</ele><time>2026-04-20T10:36:29.98Z</time></trkpt><trkpt lat="45.78384631254052" lon="10.72139794096374"><ele>605.0</ele><time>2026-04-20T10:36:30.98Z</time></trkpt><trkpt lat="45.78392199628649" lon="10.721374014020645"><ele>605.0</ele><time>2026-04-20T10:36:31.98Z</time></trkpt><trkpt lat="45.783994777744574" lon="10.721382349527625"><ele>605.0</ele><time>2026-04-20T10:36:32.98Z</time></trkpt><trkpt lat="45.78407040700919" lon="10.721328277543392"><ele>605.0</ele><time>2026-04-20T10:36:34.98Z</time></trkpt><trkpt lat="45.78399874298747" lon="10.721191093557099"><ele>605.0</ele><time>2026-04-20T10:36:36.98Z</time></trkpt><trkpt lat="45.78389304966728" lon="10.721225713731892"><ele>605.0</ele><time>2026-04-20T10:36:37.98Z</time></trkpt><trkpt lat="45.783802537119634" lon="10.72123332211859"><ele>605.0</ele><time>2026-04-20T10:36:38.98Z</time></trkpt><trkpt lat="45.78374321905389" lon="10.721187366791133"><ele>605.0</ele><time>2026-04-20T10:36:39.98Z</time></trkpt><trkpt lat="45.783729811051586" lon="10.721084345449938"><ele>605.0</ele><time>2026-04-20T10:36:40.98Z</time></trkpt><trkpt lat="45.783720667070064" lon="10.72096002952454"><ele>605.0</ele><time>2026-04-20T10:36:41.98Z</time></trkpt><trkpt lat="45.78372479091516" lon="10.720814377799067"><ele>605.0</ele><time>2026-04-20T10:36:42.98Z</time></trkpt><trkpt lat="45.783731454042275" lon="10.72063933422335"><ele>605.0</ele><time>2026-04-20T10:36:43.98Z</time></trkpt><trkpt lat="45.78372291209678" lon="10.720495191518404"><ele>605.0</ele><time>2026-04-20T10:36:44.98Z</time></trkpt><trkpt lat="45.78372029910071" lon="10.720371429664345"><ele>605.0</ele><time>2026-04-20T10:36:45.98Z</time></trkpt><trkpt lat="45.783703796915084" lon="10.720277452461552"><ele>605.0</ele><time>2026-04-20T10:36:46.98Z</time></trkpt><trkpt lat="45.78361844317598" lon="10.7201741110459"><ele>605.0</ele><time>2026-04-20T10:36:48.98Z</time></trkpt><trkpt lat="45.78354287653696" lon="10.720191488009615"><ele>605.0</ele><time>2026-04-20T10:36:49.98Z</time></trkpt><trkpt lat="45.78347423066058" lon="10.720282523154435"><ele>605.0</ele><time>2026-04-20T10:36:50.98Z</time></trkpt><trkpt lat="45.78338334993609" lon="10.720361011160216"><ele>605.0</ele><time>2026-04-20T10:36:51.98Z</time></trkpt><trkpt lat="45.78327929102197" lon="10.720408240914239"><ele>605.0</ele><time>2026-04-20T10:36:52.98Z</time></trkpt><trkpt lat="45.783185026110935" lon="10.720363000947712"><ele>605.0</ele><time>2026-04-20T10:36:53.98Z</time></trkpt><trkpt lat="45.78310020677907" lon="10.720288225018006"><ele>605.0</ele><time>2026-04-20T10:36:54.98Z</time></trkpt><trkpt lat="45.783008968749655" lon="10.7202016130519"><ele>600.6666666666666</ele><time>2026-04-20T10:36:55.98Z</time></trkpt><trkpt lat="45.78294609624349" lon="10.720133137984751"><ele>596.3333333333333</ele><time>2026-04-20T10:36:56.98Z</time></trkpt><trkpt lat="45.78293889478993" lon="10.720020410683235"><ele>592.0</ele><time>2026-04-20T10:36:57.98Z</time></trkpt><trkpt lat="45.782906673273075" lon="10.719921903218765"><ele>587.6666666666666</ele><time>2026-04-20T10:36:58.98Z</time></trkpt><trkpt lat="45.782868489316805" lon="10.719844472057162"><ele>583.3333333333334</ele><time>2026-04-20T10:36:59.98Z</time></trkpt><trkpt lat="45.78280628451044" lon="10.7197757425755"><ele>579.0</ele><time>2026-04-20T10:37:00.98Z</time></trkpt><trkpt lat="45.7827162115252" lon="10.719784025355919"><ele>581.1666666666666</ele><time>2026-04-20T10:37:01.98Z</time></trkpt><trkpt lat="45.78262275856821" lon="10.7198020676747"><ele>583.3333333333334</ele><time>2026-04-20T10:37:02.98Z</time></trkpt><trkpt lat="45.78254356333679" lon="10.71979845274067"><ele>585.5</ele><time>2026-04-20T10:37:03.98Z</time></trkpt><trkpt lat="45.78247243696413" lon="10.719759282124535"><ele>587.6666666666667</ele><time>2026-04-20T10:37:04.98Z</time></trkpt><trkpt lat="45.78243948774544" lon="10.719638851471132"><ele>589.8333333333334</ele><time>2026-04-20T10:37:05.98Z</time></trkpt><trkpt lat="45.78236825618744" lon="10.719567620289027"><ele>592.0</ele><time>2026-04-20T10:37:06.98Z</time></trkpt><trkpt lat="45.782295430643174" lon="10.719500830113715"><ele>592.0</ele><time>2026-04-20T10:37:07.98Z</time></trkpt><trkpt lat="45.78223536934083" lon="10.71941585072296"><ele>592.0</ele><time>2026-04-20T10:37:08.98Z</time></trkpt><trkpt lat="45.78219455756961" lon="10.719338201507577"><ele>592.0</ele><time>2026-04-20T10:37:09.98Z</time></trkpt><trkpt lat="45.78218769375701" lon="10.719241407616517"><ele>592.0</ele><time>2026-04-20T10:37:10.98Z</time></trkpt><trkpt lat="45.78216016542932" lon="10.71907084371077"><ele>592.0</ele><time>2026-04-20T10:37:12.98Z</time></trkpt><trkpt lat="45.78208164221967" lon="10.719013448585573"><ele>592.0</ele><time>2026-04-20T10:37:13.98Z</time></trkpt><trkpt lat="45.78198325542666" lon="10.719032742624385"><ele>587.2</ele><time>2026-04-20T10:37:14.98Z</time></trkpt><trkpt lat="45.781880861286446" lon="10.719040362710722"><ele>582.4000000000001</ele><time>2026-04-20T10:37:15.98Z</time></trkpt><trkpt lat="45.781773475462956" lon="10.719029068941738"><ele>577.5999999999999</ele><time>2026-04-20T10:37:16.98Z</time></trkpt><trkpt lat="45.78168293873672" lon="10.719009987203343"><ele>572.8</ele><time>2026-04-20T10:37:17.98Z</time></trkpt><trkpt lat="45.78160162406347" lon="10.71900301386593"><ele>568.0</ele><time>2026-04-20T10:37:18.98Z</time></trkpt><trkpt lat="45.781539327802605" lon="10.719048977336474"><ele>568.0</ele><time>2026-04-20T10:37:19.98Z</time></trkpt><trkpt lat="45.781490429416515" lon="10.719128872185442"><ele>568.0</ele><time>2026-04-20T10:37:20.98Z</time></trkpt><trkpt lat="45.78144705078345" lon="10.719237511353084"><ele>568.0</ele><time>2026-04-20T10:37:21.98Z</time></trkpt><trkpt lat="45.78138947905174" lon="10.719358513962854"><ele>568.0</ele><time>2026-04-20T10:37:22.98Z</time></trkpt><trkpt lat="45.78130455635745" lon="10.719429777931518"><ele>568.0</ele><time>2026-04-20T10:37:23.98Z</time></trkpt><trkpt lat="45.78123594485274" lon="10.719499094806686"><ele>568.0</ele><time>2026-04-20T10:37:24.98Z</time></trkpt><trkpt lat="45.78115750455701" lon="10.719461433938882"><ele>566.1999999999999</ele><time>2026-04-20T10:37:25.98Z</time></trkpt><trkpt lat="45.781082328794284" lon="10.719421829129711"><ele>564.4</ele><time>2026-04-20T10:37:26.98Z</time></trkpt><trkpt lat="45.78099986957681" lon="10.719324753729756"><ele>562.5999999999999</ele><time>2026-04-20T10:37:27.98Z</time></trkpt><trkpt lat="45.780931477268474" lon="10.71919328575943"><ele>560.8</ele><time>2026-04-20T10:37:28.98Z</time></trkpt><trkpt lat="45.78088560826685" lon="10.71904314669057"><ele>559.0</ele><time>2026-04-20T10:37:29.98Z</time></trkpt><trkpt lat="45.780858082211985" lon="10.718916236296645"><ele>559.0</ele><time>2026-04-20T10:37:30.98Z</time></trkpt><trkpt lat="45.78087034240385" lon="10.71880594505162"><ele>559.0</ele><time>2026-04-20T10:37:31.98Z</time></trkpt><trkpt lat="45.780814088433594" lon="10.718630643635224"><ele>559.0</ele><time>2026-04-20T10:37:33.98Z</time></trkpt><trkpt lat="45.780747437725346" lon="10.718547123607937"><ele>559.0</ele><time>2026-04-20T10:37:34.98Z</time></trkpt><trkpt lat="45.78066754725282" lon="10.718501090764134"><ele>559.0</ele><time>2026-04-20T10:37:35.98Z</time></trkpt><trkpt lat="45.78056912124976" lon="10.718505904556144"><ele>559.0</ele><time>2026-04-20T10:37:36.98Z</time></trkpt><trkpt lat="45.78049199096849" lon="10.71857717804932"><ele>559.0</ele><time>2026-04-20T10:37:37.98Z</time></trkpt><trkpt lat="45.780433881309754" lon="10.718696143773093"><ele>559.0</ele><time>2026-04-20T10:37:38.98Z</time></trkpt><trkpt lat="45.780372531567046" lon="10.718826701640422"><ele>559.0</ele><time>2026-04-20T10:37:39.98Z</time></trkpt><trkpt lat="45.78029302149465" lon="10.718977811891476"><ele>559.0</ele><time>2026-04-20T10:37:40.98Z</time></trkpt><trkpt lat="45.7802051601634" lon="10.719084153380475"><ele>560.0</ele><time>2026-04-20T10:37:41.98Z</time></trkpt><trkpt lat="45.78012425158243" lon="10.719184928762944"><ele>561.0</ele><time>2026-04-20T10:37:42.98Z</time></trkpt><trkpt lat="45.780067121305834" lon="10.719286639909077"><ele>562.0</ele><time>2026-04-20T10:37:43.98Z</time></trkpt><trkpt lat="45.78006367555224" lon="10.719421972667321"><ele>563.0</ele><time>2026-04-20T10:37:44.98Z</time></trkpt><trkpt lat="45.78006175771134" lon="10.719544741063348"><ele>564.0</ele><time>2026-04-20T10:37:45.98Z</time></trkpt><trkpt lat="45.7800609714469" lon="10.719648044570546"><ele>564.0</ele><time>2026-04-20T10:37:46.98Z</time></trkpt><trkpt lat="45.78005200039268" lon="10.719745260162187"><ele>564.0</ele><time>2026-04-20T10:37:48.98Z</time></trkpt><trkpt lat="45.77996489801572" lon="10.719642477713577"><ele>564.0</ele><time>2026-04-20T10:37:50.98Z</time></trkpt><trkpt lat="45.77994921440024" lon="10.719514915509489"><ele>564.0</ele><time>2026-04-20T10:37:51.98Z</time></trkpt><trkpt lat="45.779954417449794" lon="10.719381454587893"><ele>564.0</ele><time>2026-04-20T10:37:52.98Z</time></trkpt><trkpt lat="45.77994345983361" lon="10.719233592988266"><ele>558.0</ele><time>2026-04-20T10:37:53.98Z</time></trkpt><trkpt lat="45.77994861066231" lon="10.719087719598416"><ele>552.0</ele><time>2026-04-20T10:37:54.98Z</time></trkpt><trkpt lat="45.77998323455573" lon="10.718943098369985"><ele>546.0</ele><time>2026-04-20T10:37:55.98Z</time></trkpt><trkpt lat="45.78004579752045" lon="10.718780432281813"><ele>540.0</ele><time>2026-04-20T10:37:56.98Z</time></trkpt><trkpt lat="45.78011564670136" lon="10.718614573430585"><ele>538.25</ele><time>2026-04-20T10:37:57.98Z</time></trkpt><trkpt lat="45.780172867054134" lon="10.71842694965255"><ele>536.5</ele><time>2026-04-20T10:37:58.98Z</time></trkpt><trkpt lat="45.78024889633741" lon="10.718275030671354"><ele>534.75</ele><time>2026-04-20T10:37:59.98Z</time></trkpt><trkpt lat="45.78031089920281" lon="10.718143961660164"><ele>533.0</ele><time>2026-04-20T10:38:00.98Z</time></trkpt><trkpt lat="45.78036953915834" lon="10.718027213210087"><ele>533.0</ele><time>2026-04-20T10:38:01.98Z</time></trkpt><trkpt lat="45.78041844692729" lon="10.71790915594692"><ele>533.0</ele><time>2026-04-20T10:38:02.98Z</time></trkpt><trkpt lat="45.78050321395541" lon="10.717856620651835"><ele>533.0</ele><time>2026-04-20T10:38:03.98Z</time></trkpt><trkpt lat="45.78060008820038" lon="10.717833799674194"><ele>533.0</ele><time>2026-04-20T10:38:04.98Z</time></trkpt><trkpt lat="45.78071058540948" lon="10.717791358634516"><ele>533.0</ele><time>2026-04-20T10:38:05.98Z</time></trkpt><trkpt lat="45.78081304062186" lon="10.717755152057018"><ele>533.0</ele><time>2026-04-20T10:38:06.98Z</time></trkpt><trkpt lat="45.78091016805811" lon="10.717751025576193"><ele>533.0</ele><time>2026-04-20T10:38:07.98Z</time></trkpt><trkpt lat="45.78097485766613" lon="10.717757327304888"><ele>533.0</ele><time>2026-04-20T10:38:08.98Z</time></trkpt><trkpt lat="45.78103465561978" lon="10.71781568994256"><ele>533.0</ele><time>2026-04-20T10:38:09.98Z</time></trkpt><trkpt lat="45.7810840472176" lon="10.717886260149447"><ele>533.0</ele><time>2026-04-20T10:38:10.98Z</time></trkpt><trkpt lat="45.78123511078952" lon="10.717877681145762"><ele>532.75</ele><time>2026-04-20T10:38:12.98Z</time></trkpt><trkpt lat="45.781325536171664" lon="10.717788694167748"><ele>532.5</ele><time>2026-04-20T10:38:13.98Z</time></trkpt><trkpt lat="45.7814143012441" lon="10.717724633774868"><ele>532.25</ele><time>2026-04-20T10:38:14.98Z</time></trkpt><trkpt lat="45.781535231234436" lon="10.717697509438652"><ele>532.0</ele><time>2026-04-20T10:38:15.98Z</time></trkpt><trkpt lat="45.78168641106674" lon="10.717677651953998"><ele>518.6666666666667</ele><time>2026-04-20T10:38:16.98Z</time></trkpt><trkpt lat="45.78184833160382" lon="10.717671984682916"><ele>505.33333333333337</ele><time>2026-04-20T10:38:17.98Z</time></trkpt><trkpt lat="45.78199859838648" lon="10.717674568415378"><ele>492.0</ele><time>2026-04-20T10:38:18.98Z</time></trkpt><trkpt lat="45.78214314114658" lon="10.71767698569904"><ele>490.25</ele><time>2026-04-20T10:38:19.98Z</time></trkpt><trkpt lat="45.7822829327561" lon="10.717709623902234"><ele>488.5</ele><time>2026-04-20T10:38:20.98Z</time></trkpt><trkpt lat="45.7824243884827" lon="10.717765153224999"><ele>486.75</ele><time>2026-04-20T10:38:21.98Z</time></trkpt><trkpt lat="45.78257349441344" lon="10.717762980444503"><ele>485.0</ele><time>2026-04-20T10:38:22.98Z</time></trkpt><trkpt lat="45.782695698493555" lon="10.717734519085493"><ele>484.2</ele><time>2026-04-20T10:38:23.98Z</time></trkpt><trkpt lat="45.78279196939214" lon="10.717729602230365"><ele>483.4</ele><time>2026-04-20T10:38:24.98Z</time></trkpt><trkpt lat="45.78287616133218" lon="10.717732226055498"><ele>482.6</ele><time>2026-04-20T10:38:25.98Z</time></trkpt><trkpt lat="45.782970734387675" lon="10.717677739674063"><ele>481.8</ele><time>2026-04-20T10:38:26.98Z</time></trkpt><trkpt lat="45.783035543260446" lon="10.717537930694691"><ele>481.0</ele><time>2026-04-20T10:38:27.98Z</time></trkpt><trkpt lat="45.78314412209273" lon="10.71745646287525"><ele>481.0</ele><time>2026-04-20T10:38:28.98Z</time></trkpt><trkpt lat="45.78326926407793" lon="10.717390609688557"><ele>481.0</ele><time>2026-04-20T10:38:29.98Z</time></trkpt><trkpt lat="45.7833905212511" lon="10.717324985512393"><ele>481.0</ele><time>2026-04-20T10:38:30.98Z</time></trkpt><trkpt lat="45.783475058434206" lon="10.717219052522356"><ele>481.0</ele><time>2026-04-20T10:38:31.98Z</time></trkpt><trkpt lat="45.783563888185924" lon="10.71720220924327"><ele>479.25</ele><time>2026-04-20T10:38:32.98Z</time></trkpt><trkpt lat="45.7836726451191" lon="10.717175859152839"><ele>477.5</ele><time>2026-04-20T10:38:33.98Z</time></trkpt><trkpt lat="45.78380084235738" lon="10.717164624295423"><ele>475.75</ele><time>2026-04-20T10:38:34.98Z</time></trkpt><trkpt lat="45.78394841928438" lon="10.717168186316128"><ele>474.0</ele><time>2026-04-20T10:38:35.98Z</time></trkpt><trkpt lat="45.784088611713486" lon="10.717204129502901"><ele>474.0</ele><time>2026-04-20T10:38:36.98Z</time></trkpt><trkpt lat="45.78420931876762" lon="10.717223690409218"><ele>474.0</ele><time>2026-04-20T10:38:37.98Z</time></trkpt><trkpt lat="45.78430261018074" lon="10.717271216787434"><ele>474.0</ele><time>2026-04-20T10:38:38.98Z</time></trkpt><trkpt lat="45.78437980065583" lon="10.717347539388557"><ele>474.0</ele><time>2026-04-20T10:38:39.98Z</time></trkpt><trkpt lat="45.784431345542075" lon="10.717417253884369"><ele>474.0</ele><time>2026-04-20T10:38:40.98Z</time></trkpt><trkpt lat="45.784497259882784" lon="10.717447296802575"><ele>472.4</ele><time>2026-04-20T10:38:41.98Z</time></trkpt><trkpt lat="45.78459138509922" lon="10.717374646486661"><ele>470.79999999999995</ele><time>2026-04-20T10:38:43.98Z</time></trkpt><trkpt lat="45.78461256527061" lon="10.717282896640864"><ele>469.20000000000005</ele><time>2026-04-20T10:38:44.98Z</time></trkpt><trkpt lat="45.78457440280271" lon="10.717146404806947"><ele>467.6</ele><time>2026-04-20T10:38:45.98Z</time></trkpt><trkpt lat="45.78452116285089" lon="10.716977799514874"><ele>466.0</ele><time>2026-04-20T10:38:46.98Z</time></trkpt><trkpt lat="45.78447511382544" lon="10.716827819174405"><ele>466.00000000000006</ele><time>2026-04-20T10:38:47.98Z</time></trkpt><trkpt lat="45.784440752421595" lon="10.716708816808326"><ele>466.0</ele><time>2026-04-20T10:38:48.98Z</time></trkpt><trkpt lat="45.784432292446155" lon="10.716610510714915"><ele>466.0</ele><time>2026-04-20T10:38:49.98Z</time></trkpt><trkpt lat="45.78437296695254" lon="10.716564413364875"><ele>466.0</ele><time>2026-04-20T10:38:50.98Z</time></trkpt><trkpt lat="45.784294291914925" lon="10.716574139485973"><ele>466.00000000000006</ele><time>2026-04-20T10:38:51.98Z</time></trkpt><trkpt lat="45.784206558813494" lon="10.716610668577873"><ele>466.0</ele><time>2026-04-20T10:38:52.98Z</time></trkpt><trkpt lat="45.78411965995774" lon="10.716609828130377"><ele>466.0</ele><time>2026-04-20T10:38:53.979Z</time></trkpt><trkpt lat="45.78404570907403" lon="10.71648118575768"><ele>466.0</ele><time>2026-04-20T10:38:54.979Z</time></trkpt><trkpt lat="45.78394817542484" lon="10.716361027312836"><ele>466.0</ele><time>2026-04-20T10:38:55.979Z</time></trkpt><trkpt lat="45.78385005257296" lon="10.716218913061581"><ele>466.0</ele><time>2026-04-20T10:38:56.979Z</time></trkpt><trkpt lat="45.7837593015031" lon="10.716074469091799"><ele>467.20000000000005</ele><time>2026-04-20T10:38:57.979Z</time></trkpt><trkpt lat="45.78366439618892" lon="10.715951408756533"><ele>468.40000000000003</ele><time>2026-04-20T10:38:58.979Z</time></trkpt><trkpt lat="45.783551487338954" lon="10.715889351590292"><ele>469.6</ele><time>2026-04-20T10:38:59.979Z</time></trkpt><trkpt lat="45.78345758652279" lon="10.715878137642328"><ele>470.8</ele><time>2026-04-20T10:39:00.979Z</time></trkpt><trkpt lat="45.78337860175319" lon="10.715807779793922"><ele>472.0</ele><time>2026-04-20T10:39:01.979Z</time></trkpt><trkpt lat="45.78332401538107" lon="10.715686240971566"><ele>472.0</ele><time>2026-04-20T10:39:02.979Z</time></trkpt><trkpt lat="45.78328075766812" lon="10.715533163845222"><ele>472.00000000000006</ele><time>2026-04-20T10:39:03.979Z</time></trkpt><trkpt lat="45.783249989008915" lon="10.71543189139655"><ele>472.00000000000006</ele><time>2026-04-20T10:39:04.979Z</time></trkpt><trkpt lat="45.78312496421128" lon="10.715391173166681"><ele>472.0</ele><time>2026-04-20T10:39:06.979Z</time></trkpt><trkpt lat="45.78304274462847" lon="10.71545061954114"><ele>472.0</ele><time>2026-04-20T10:39:07.979Z</time></trkpt><trkpt lat="45.782951415353516" lon="10.715512904160644"><ele>472.0</ele><time>2026-04-20T10:39:08.979Z</time></trkpt><trkpt lat="45.78287382978348" lon="10.715513820146038"><ele>472.00000000000006</ele><time>2026-04-20T10:39:09.979Z</time></trkpt><trkpt lat="45.782805085578424" lon="10.71544730143283"><ele>472.00000000000006</ele><time>2026-04-20T10:39:10.979Z</time></trkpt><trkpt lat="45.78272095833784" lon="10.715348699614246"><ele>472.0</ele><time>2026-04-20T10:39:11.979Z</time></trkpt><trkpt lat="45.78261278711111" lon="10.715276104532549"><ele>472.0</ele><time>2026-04-20T10:39:12.979Z</time></trkpt><trkpt lat="45.782487520648345" lon="10.715234031881645"><ele>475.75</ele><time>2026-04-20T10:39:13.979Z</time></trkpt><trkpt lat="45.78234379781614" lon="10.715208536935851"><ele>479.5</ele><time>2026-04-20T10:39:14.979Z</time></trkpt><trkpt lat="45.78221212293474" lon="10.715160888261671"><ele>483.25</ele><time>2026-04-20T10:39:15.979Z</time></trkpt><trkpt lat="45.782098659857645" lon="10.715103169519013"><ele>487.0</ele><time>2026-04-20T10:39:16.979Z</time></trkpt><trkpt lat="45.78201236719486" lon="10.715046831478697"><ele>487.0</ele><time>2026-04-20T10:39:17.979Z</time></trkpt><trkpt lat="45.781934546604994" lon="10.714972993664087"><ele>487.00000000000006</ele><time>2026-04-20T10:39:18.979Z</time></trkpt><trkpt lat="45.78188729603202" lon="10.714838057596115"><ele>487.00000000000006</ele><time>2026-04-20T10:39:19.979Z</time></trkpt><trkpt lat="45.78181617403942" lon="10.71474347117597"><ele>487.0</ele><time>2026-04-20T10:39:20.979Z</time></trkpt><trkpt lat="45.7817293326511" lon="10.71467310367357"><ele>487.0</ele><time>2026-04-20T10:39:21.979Z</time></trkpt><trkpt lat="45.78161311116439" lon="10.714621702604807"><ele>485.75</ele><time>2026-04-20T10:39:22.979Z</time></trkpt><trkpt lat="45.78148508885376" lon="10.714570334014613"><ele>484.5</ele><time>2026-04-20T10:39:23.979Z</time></trkpt><trkpt lat="45.78133965068052" lon="10.714611889164152"><ele>483.25</ele><time>2026-04-20T10:39:24.979Z</time></trkpt><trkpt lat="45.78119280105975" lon="10.714649368887935"><ele>482.0</ele><time>2026-04-20T10:39:25.979Z</time></trkpt><trkpt lat="45.78106125218252" lon="10.714688417126272"><ele>482.99999999999994</ele><time>2026-04-20T10:39:26.979Z</time></trkpt><trkpt lat="45.7809536863067" lon="10.714714746194556"><ele>484.0</ele><time>2026-04-20T10:39:27.979Z</time></trkpt><trkpt lat="45.78086766467834" lon="10.714710552594525"><ele>485.0</ele><time>2026-04-20T10:39:28.979Z</time></trkpt><trkpt lat="45.78078936219135" lon="10.714728200454754"><ele>486.0</ele><time>2026-04-20T10:39:29.979Z</time></trkpt><trkpt lat="45.78071486156009" lon="10.71476833215125"><ele>486.99999999999994</ele><time>2026-04-20T10:39:30.979Z</time></trkpt><trkpt lat="45.7806563611066" lon="10.714843933303698"><ele>488.0</ele><time>2026-04-20T10:39:31.979Z</time></trkpt><trkpt lat="45.780598645964034" lon="10.714950735274998"><ele>487.99999999999994</ele><time>2026-04-20T10:39:32.979Z</time></trkpt><trkpt lat="45.78053474185266" lon="10.715061137521605"><ele>488.0</ele><time>2026-04-20T10:39:33.979Z</time></trkpt><trkpt lat="45.780476400632786" lon="10.71513794154841"><ele>488.0</ele><time>2026-04-20T10:39:34.979Z</time></trkpt><trkpt lat="45.78041774292575" lon="10.715235985513527"><ele>488.0</ele><time>2026-04-20T10:39:36.979Z</time></trkpt><trkpt lat="45.78035559129176" lon="10.715165700573454"><ele>487.99999999999994</ele><time>2026-04-20T10:39:38.979Z</time></trkpt><trkpt lat="45.780369536790275" lon="10.71505027189252"><ele>488.0</ele><time>2026-04-20T10:39:39.979Z</time></trkpt><trkpt lat="45.78039420338096" lon="10.714920179863677"><ele>488.0</ele><time>2026-04-20T10:39:40.979Z</time></trkpt><trkpt lat="45.78042171637359" lon="10.71475850784468"><ele>487.99999999999994</ele><time>2026-04-20T10:39:41.979Z</time></trkpt><trkpt lat="45.78044993527102" lon="10.714601122706098"><ele>487.99999999999994</ele><time>2026-04-20T10:39:42.979Z</time></trkpt><trkpt lat="45.78050052936899" lon="10.714453333698431"><ele>488.0</ele><time>2026-04-20T10:39:43.979Z</time></trkpt><trkpt lat="45.78053838951111" lon="10.714321317750917"><ele>488.0</ele><time>2026-04-20T10:39:44.979Z</time></trkpt><trkpt lat="45.78056726719061" lon="10.714226004817702"><ele>493.4</ele><time>2026-04-20T10:39:45.979Z</time></trkpt><trkpt lat="45.78060227173708" lon="10.714143126091951"><ele>498.79999999999995</ele><time>2026-04-20T10:39:46.979Z</time></trkpt><trkpt lat="45.78071950311019" lon="10.714075446648076"><ele>504.2</ele><time>2026-04-20T10:39:48.979Z</time></trkpt><trkpt lat="45.7808317792275" lon="10.714069131226795"><ele>509.6</ele><time>2026-04-20T10:39:49.979Z</time></trkpt><trkpt lat="45.78095809204759" lon="10.714044027577577"><ele>515.0</ele><time>2026-04-20T10:39:50.979Z</time></trkpt><trkpt lat="45.78107898230318" lon="10.71401633196446"><ele>515.0</ele><time>2026-04-20T10:39:51.979Z</time></trkpt><trkpt lat="45.78117285807338" lon="10.713979822729957"><ele>515.0</ele><time>2026-04-20T10:39:52.979Z</time></trkpt><trkpt lat="45.781267774419" lon="10.713951397879793"><ele>515.0</ele><time>2026-04-20T10:39:53.979Z</time></trkpt><trkpt lat="45.78134535083697" lon="10.713897550969008"><ele>515.0</ele><time>2026-04-20T10:39:54.979Z</time></trkpt><trkpt lat="45.78139772008131" lon="10.71384607987623"><ele>515.0</ele><time>2026-04-20T10:39:55.979Z</time></trkpt><trkpt lat="45.78146605886693" lon="10.713761489186618"><ele>515.0</ele><time>2026-04-20T10:39:57.979Z</time></trkpt><trkpt lat="45.78151366902502" lon="10.713652881958494"><ele>515.0</ele><time>2026-04-20T10:39:59.979Z</time></trkpt><trkpt lat="45.78145418505492" lon="10.713544662156737"><ele>515.0</ele><time>2026-04-20T10:40:00.979Z</time></trkpt><trkpt lat="45.78136005691789" lon="10.713668901519695"><ele>515.0</ele><time>2026-04-20T10:40:01.979Z</time></trkpt><trkpt lat="45.781304082099936" lon="10.713751846639779"><ele>515.0</ele><time>2026-04-20T10:40:02.979Z</time></trkpt><trkpt lat="45.78123878407688" lon="10.713783986998642"><ele>515.0</ele><time>2026-04-20T10:40:03.979Z</time></trkpt><trkpt lat="45.78116333647303" lon="10.713774713697694"><ele>515.0</ele><time>2026-04-20T10:40:04.979Z</time></trkpt><trkpt lat="45.7810603181063" lon="10.713765299646326"><ele>516.1666666666666</ele><time>2026-04-20T10:40:05.979Z</time></trkpt><trkpt lat="45.78093937890777" lon="10.713754618655303"><ele>517.3333333333333</ele><time>2026-04-20T10:40:06.979Z</time></trkpt><trkpt lat="45.780839484638776" lon="10.713737007210584"><ele>518.5</ele><time>2026-04-20T10:40:07.979Z</time></trkpt><trkpt lat="45.78078030246055" lon="10.713694304233615"><ele>519.6666666666666</ele><time>2026-04-20T10:40:08.979Z</time></trkpt><trkpt lat="45.78072451164672" lon="10.713637458985414"><ele>520.8333333333334</ele><time>2026-04-20T10:40:09.98Z</time></trkpt><trkpt lat="45.78063606355282" lon="10.713625813719796"><ele>522.0</ele><time>2026-04-20T10:40:10.98Z</time></trkpt><trkpt lat="45.78052804457529" lon="10.71369819034871"><ele>522.0</ele><time>2026-04-20T10:40:11.979Z</time></trkpt><trkpt lat="45.780414145414554" lon="10.713772180579841"><ele>522.0</ele><time>2026-04-20T10:40:12.98Z</time></trkpt><trkpt lat="45.78030112252867" lon="10.713844305605306"><ele>522.0</ele><time>2026-04-20T10:40:13.98Z</time></trkpt><trkpt lat="45.78018537054633" lon="10.71391339299893"><ele>522.0</ele><time>2026-04-20T10:40:14.979Z</time></trkpt><trkpt lat="45.78004607320177" lon="10.713973588718936"><ele>526.4</ele><time>2026-04-20T10:40:15.979Z</time></trkpt><trkpt lat="45.779915521761716" lon="10.714052952179754"><ele>530.8000000000001</ele><time>2026-04-20T10:40:16.979Z</time></trkpt><trkpt lat="45.77981070805934" lon="10.71412423090563"><ele>535.2</ele><time>2026-04-20T10:40:17.98Z</time></trkpt><trkpt lat="45.77972294397371" lon="10.714191520086244"><ele>539.6</ele><time>2026-04-20T10:40:18.98Z</time></trkpt><trkpt lat="45.77965493075103" lon="10.714260797885055"><ele>544.0</ele><time>2026-04-20T10:40:19.98Z</time></trkpt><trkpt lat="45.779584586866484" lon="10.71436371756817"><ele>539.8</ele><time>2026-04-20T10:40:20.979Z</time></trkpt><trkpt lat="45.77953105115588" lon="10.714505031553681"><ele>535.5999999999999</ele><time>2026-04-20T10:40:21.98Z</time></trkpt><trkpt lat="45.779487182959166" lon="10.714668270364621"><ele>531.4</ele><time>2026-04-20T10:40:22.98Z</time></trkpt><trkpt lat="45.77944117599829" lon="10.714818215127394"><ele>527.1999999999999</ele><time>2026-04-20T10:40:23.98Z</time></trkpt><trkpt lat="45.779422691141846" lon="10.714922972240155"><ele>523.0</ele><time>2026-04-20T10:40:24.98Z</time></trkpt><trkpt lat="45.77939165732321" lon="10.715020530513318"><ele>528.5</ele><time>2026-04-20T10:40:25.98Z</time></trkpt><trkpt lat="45.779287494152946" lon="10.715073121335907"><ele>534.0</ele><time>2026-04-20T10:40:26.98Z</time></trkpt><trkpt lat="45.77916783318011" lon="10.715140904121577"><ele>539.5</ele><time>2026-04-20T10:40:27.98Z</time></trkpt><trkpt lat="45.77903993680442" lon="10.715220498913"><ele>545.0</ele><time>2026-04-20T10:40:28.98Z</time></trkpt><trkpt lat="45.778916231189626" lon="10.71530211370744"><ele>545.0</ele><time>2026-04-20T10:40:29.98Z</time></trkpt><trkpt lat="45.778800638840494" lon="10.715386797884555"><ele>545.0</ele><time>2026-04-20T10:40:30.98Z</time></trkpt><trkpt lat="45.77870569372023" lon="10.715479499820423"><ele>545.0</ele><time>2026-04-20T10:40:31.98Z</time></trkpt><trkpt lat="45.77862644354633" lon="10.7155601956452"><ele>545.0</ele><time>2026-04-20T10:40:32.98Z</time></trkpt><trkpt lat="45.77853076940234" lon="10.71561514642939"><ele>545.0</ele><time>2026-04-20T10:40:33.98Z</time></trkpt><trkpt lat="45.7784398998071" lon="10.715636614852807"><ele>545.5714285714286</ele><time>2026-04-20T10:40:34.98Z</time></trkpt><trkpt lat="45.778372391588285" lon="10.715610650067257"><ele>546.1428571428572</ele><time>2026-04-20T10:40:35.98Z</time></trkpt><trkpt lat="45.77831733526666" lon="10.715539439321951"><ele>546.7142857142858</ele><time>2026-04-20T10:40:36.98Z</time></trkpt><trkpt lat="45.77829878207689" lon="10.715443589065544"><ele>547.2857142857143</ele><time>2026-04-20T10:40:37.98Z</time></trkpt><trkpt lat="45.778306642195524" lon="10.715329489651698"><ele>547.8571428571429</ele><time>2026-04-20T10:40:38.98Z</time></trkpt><trkpt lat="45.77830988449614" lon="10.715217968172949"><ele>548.4285714285714</ele><time>2026-04-20T10:40:39.98Z</time></trkpt><trkpt lat="45.77830579821059" lon="10.715118943779208"><ele>549.0</ele><time>2026-04-20T10:40:40.98Z</time></trkpt><trkpt lat="45.77827556660807" lon="10.715013897424464"><ele>553.0</ele><time>2026-04-20T10:40:41.98Z</time></trkpt><trkpt lat="45.77823744959016" lon="10.714904013598124"><ele>557.0</ele><time>2026-04-20T10:40:42.98Z</time></trkpt><trkpt lat="45.77812789561766" lon="10.714840428188248"><ele>561.0</ele><time>2026-04-20T10:40:43.98Z</time></trkpt><trkpt lat="45.777995130349" lon="10.714852462215834"><ele>565.0</ele><time>2026-04-20T10:40:44.98Z</time></trkpt><trkpt lat="45.77789169165846" lon="10.714951816394688"><ele>565.0</ele><time>2026-04-20T10:40:45.98Z</time></trkpt><trkpt lat="45.777793156826064" lon="10.715024003881354"><ele>565.0</ele><time>2026-04-20T10:40:46.98Z</time></trkpt><trkpt lat="45.77770962338316" lon="10.715073828867247"><ele>565.0</ele><time>2026-04-20T10:40:47.98Z</time></trkpt><trkpt lat="45.77758917102935" lon="10.715139860689069"><ele>565.0</ele><time>2026-04-20T10:40:49.98Z</time></trkpt><trkpt lat="45.77749440226098" lon="10.714995049596507"><ele>565.8</ele><time>2026-04-20T10:40:51.98Z</time></trkpt><trkpt lat="45.777450439094444" lon="10.714870958371618"><ele>566.6</ele><time>2026-04-20T10:40:52.98Z</time></trkpt><trkpt lat="45.777407016527796" lon="10.714785372479847"><ele>567.4</ele><time>2026-04-20T10:40:53.98Z</time></trkpt><trkpt lat="45.777363470878036" lon="10.714695038515694"><ele>568.2</ele><time>2026-04-20T10:40:54.98Z</time></trkpt><trkpt lat="45.777280046947226" lon="10.714639155294707"><ele>569.0</ele><time>2026-04-20T10:40:55.98Z</time></trkpt><trkpt lat="45.77715846457199" lon="10.714679830817273"><ele>569.0</ele><time>2026-04-20T10:40:56.98Z</time></trkpt><trkpt lat="45.77704872946444" lon="10.714778589628612"><ele>569.0</ele><time>2026-04-20T10:40:57.98Z</time></trkpt><trkpt lat="45.776929796828" lon="10.714860923883007"><ele>569.0</ele><time>2026-04-20T10:40:58.98Z</time></trkpt><trkpt lat="45.77679906707427" lon="10.71496463959044"><ele>569.0</ele><time>2026-04-20T10:40:59.98Z</time></trkpt><trkpt lat="45.776672780153504" lon="10.715074278097145"><ele>569.2</ele><time>2026-04-20T10:41:00.98Z</time></trkpt><trkpt lat="45.77657676330431" lon="10.715161710560581"><ele>569.4</ele><time>2026-04-20T10:41:01.98Z</time></trkpt><trkpt lat="45.776491247586065" lon="10.71524345644038"><ele>569.6</ele><time>2026-04-20T10:41:02.98Z</time></trkpt><trkpt lat="45.776415797935314" lon="10.715339964013532"><ele>569.8</ele><time>2026-04-20T10:41:03.98Z</time></trkpt><trkpt lat="45.77635246893941" lon="10.715433034233182"><ele>570.0</ele><time>2026-04-20T10:41:04.98Z</time></trkpt><trkpt lat="45.77631036540945" lon="10.715520551508254"><ele>570.0</ele><time>2026-04-20T10:41:05.98Z</time></trkpt><trkpt lat="45.776246857819785" lon="10.71561278433657"><ele>570.0</ele><time>2026-04-20T10:41:07.98Z</time></trkpt><trkpt lat="45.77619040421622" lon="10.715571536925804"><ele>570.0</ele><time>2026-04-20T10:41:09.98Z</time></trkpt><trkpt lat="45.776292047438545" lon="10.71544155188201"><ele>570.0</ele><time>2026-04-20T10:41:11.98Z</time></trkpt><trkpt lat="45.776365332491594" lon="10.715339927571833"><ele>570.0</ele><time>2026-04-20T10:41:12.98Z</time></trkpt><trkpt lat="45.77644911489252" lon="10.715223270175521"><ele>574.25</ele><time>2026-04-20T10:41:13.98Z</time></trkpt><trkpt lat="45.77654344667901" lon="10.715090296563618"><ele>578.5</ele><time>2026-04-20T10:41:14.98Z</time></trkpt><trkpt lat="45.77664067708791" lon="10.71494160631853"><ele>582.75</ele><time>2026-04-20T10:41:15.98Z</time></trkpt><trkpt lat="45.77674261331184" lon="10.714795605641248"><ele>587.0</ele><time>2026-04-20T10:41:16.98Z</time></trkpt><trkpt lat="45.77685054284273" lon="10.714644845062566"><ele>588.6666666666666</ele><time>2026-04-20T10:41:17.98Z</time></trkpt><trkpt lat="45.776939967418784" lon="10.714521725291991"><ele>590.3333333333333</ele><time>2026-04-20T10:41:18.98Z</time></trkpt><trkpt lat="45.77700502300525" lon="10.714416412170479"><ele>592.0</ele><time>2026-04-20T10:41:19.98Z</time></trkpt><trkpt lat="45.77704588395701" lon="10.714317166565719"><ele>593.6666666666666</ele><time>2026-04-20T10:41:20.98Z</time></trkpt><trkpt lat="45.77708130062736" lon="10.714238307372469"><ele>595.3333333333334</ele><time>2026-04-20T10:41:21.98Z</time></trkpt><trkpt lat="45.777138809115655" lon="10.71416467733458"><ele>597.0</ele><time>2026-04-20T10:41:22.98Z</time></trkpt><trkpt lat="45.77719868866133" lon="10.71412966644478"><ele>597.0</ele><time>2026-04-20T10:41:23.98Z</time></trkpt><trkpt lat="45.77726921714727" lon="10.714152191489283"><ele>597.0</ele><time>2026-04-20T10:41:24.98Z</time></trkpt><trkpt lat="45.77738034430169" lon="10.714175178852217"><ele>597.0</ele><time>2026-04-20T10:41:26.98Z</time></trkpt><trkpt lat="45.77738739983646" lon="10.714056087385314"><ele>597.0</ele><time>2026-04-20T10:41:28.98Z</time></trkpt><trkpt lat="45.777327373098046" lon="10.713976212358443"><ele>597.0</ele><time>2026-04-20T10:41:29.98Z</time></trkpt><trkpt lat="45.777206262322885" lon="10.713966513995047"><ele>597.0</ele><time>2026-04-20T10:41:30.98Z</time></trkpt><trkpt lat="45.77710179896727" lon="10.713975635152046"><ele>597.0</ele><time>2026-04-20T10:41:31.98Z</time></trkpt><trkpt lat="45.77699981115798" lon="10.714075424537292"><ele>597.0</ele><time>2026-04-20T10:41:32.98Z</time></trkpt><trkpt lat="45.776927175871364" lon="10.714194328185357"><ele>597.0</ele><time>2026-04-20T10:41:33.98Z</time></trkpt><trkpt lat="45.77683715954499" lon="10.714313182069242"><ele>594.5</ele><time>2026-04-20T10:41:34.98Z</time></trkpt><trkpt lat="45.77673318949749" lon="10.714426844300236"><ele>592.0</ele><time>2026-04-20T10:41:35.98Z</time></trkpt><trkpt lat="45.7766224382244" lon="10.71454152808195"><ele>589.5</ele><time>2026-04-20T10:41:36.98Z</time></trkpt><trkpt lat="45.776511334185706" lon="10.714655356616616"><ele>587.0</ele><time>2026-04-20T10:41:37.98Z</time></trkpt><trkpt lat="45.77639407615108" lon="10.71476247586463"><ele>587.0</ele><time>2026-04-20T10:41:38.98Z</time></trkpt><trkpt lat="45.77627183888279" lon="10.71484256171504"><ele>587.0</ele><time>2026-04-20T10:41:39.98Z</time></trkpt><trkpt lat="45.77615427760002" lon="10.714915726690938"><ele>587.0</ele><time>2026-04-20T10:41:40.98Z</time></trkpt><trkpt lat="45.77602842474335" lon="10.714987414647227"><ele>587.0</ele><time>2026-04-20T10:41:41.98Z</time></trkpt><trkpt lat="45.775893689659554" lon="10.71503951938725"><ele>595.75</ele><time>2026-04-20T10:41:42.98Z</time></trkpt><trkpt lat="45.7757562563356" lon="10.715074758614508"><ele>604.5</ele><time>2026-04-20T10:41:43.98Z</time></trkpt><trkpt lat="45.77560693635605" lon="10.715098866070825"><ele>613.25</ele><time>2026-04-20T10:41:44.98Z</time></trkpt><trkpt lat="45.77545245285287" lon="10.715109822437338"><ele>622.0</ele><time>2026-04-20T10:41:45.98Z</time></trkpt><trkpt lat="45.775292184884044" lon="10.71513496906334"><ele>625.6666666666667</ele><time>2026-04-20T10:41:46.98Z</time></trkpt><trkpt lat="45.77512583171762" lon="10.715174698222906"><ele>629.3333333333334</ele><time>2026-04-20T10:41:47.98Z</time></trkpt><trkpt lat="45.77496321127932" lon="10.715218357030817"><ele>633.0</ele><time>2026-04-20T10:41:48.98Z</time></trkpt><trkpt lat="45.77482817662484" lon="10.71524776053112"><ele>633.0</ele><time>2026-04-20T10:41:49.98Z</time></trkpt><trkpt lat="45.77472201212674" lon="10.71526141544886"><ele>633.0</ele><time>2026-04-20T10:41:50.98Z</time></trkpt><trkpt lat="45.774606297888305" lon="10.715261389856062"><ele>633.0</ele><time>2026-04-20T10:41:51.98Z</time></trkpt><trkpt lat="45.77448884981192" lon="10.715246596653294"><ele>633.0</ele><time>2026-04-20T10:41:52.98Z</time></trkpt><trkpt lat="45.77437481066321" lon="10.715231572351662"><ele>630.5</ele><time>2026-04-20T10:41:53.98Z</time></trkpt><trkpt lat="45.77426262872573" lon="10.715282622384231"><ele>628.0</ele><time>2026-04-20T10:41:54.98Z</time></trkpt><trkpt lat="45.77414445057146" lon="10.715399565892254"><ele>625.5</ele><time>2026-04-20T10:41:55.98Z</time></trkpt><trkpt lat="45.77400896363561" lon="10.715505822149215"><ele>623.0</ele><time>2026-04-20T10:41:56.98Z</time></trkpt><trkpt lat="45.7738672410078" lon="10.715590631822929"><ele>623.0</ele><time>2026-04-20T10:41:57.98Z</time></trkpt><trkpt lat="45.77374556445415" lon="10.715637619143205"><ele>623.0</ele><time>2026-04-20T10:41:58.98Z</time></trkpt><trkpt lat="45.77365379980885" lon="10.715703500114339"><ele>623.0</ele><time>2026-04-20T10:41:59.98Z</time></trkpt><trkpt lat="45.77354156659038" lon="10.715727440119656"><ele>623.0</ele><time>2026-04-20T10:42:00.98Z</time></trkpt><trkpt lat="45.773419254747" lon="10.715738370473431"><ele>624.6</ele><time>2026-04-20T10:42:01.98Z</time></trkpt><trkpt lat="45.7732944959274" lon="10.71571665081995"><ele>626.1999999999999</ele><time>2026-04-20T10:42:02.98Z</time></trkpt><trkpt lat="45.77317919693362" lon="10.71569194081305"><ele>627.8</ele><time>2026-04-20T10:42:03.98Z</time></trkpt><trkpt lat="45.77307972502001" lon="10.715652592628935"><ele>629.4</ele><time>2026-04-20T10:42:04.98Z</time></trkpt><trkpt lat="45.772993529932975" lon="10.71559396293159"><ele>631.0</ele><time>2026-04-20T10:42:05.98Z</time></trkpt><trkpt lat="45.77290993709031" lon="10.71550041978172"><ele>631.0</ele><time>2026-04-20T10:42:06.98Z</time></trkpt><trkpt lat="45.77282336008727" lon="10.715384906675503"><ele>631.0</ele><time>2026-04-20T10:42:07.98Z</time></trkpt><trkpt lat="45.77272813517082" lon="10.715242120727739"><ele>631.0</ele><time>2026-04-20T10:42:08.98Z</time></trkpt><trkpt lat="45.77261993250698" lon="10.715086877806872"><ele>631.0</ele><time>2026-04-20T10:42:09.98Z</time></trkpt><trkpt lat="45.772507477909464" lon="10.714935015372538"><ele>630.25</ele><time>2026-04-20T10:42:10.98Z</time></trkpt><trkpt lat="45.77239687098194" lon="10.71478886654343"><ele>629.5</ele><time>2026-04-20T10:42:11.98Z</time></trkpt><trkpt lat="45.7722999734599" lon="10.714633762167168"><ele>628.75</ele><time>2026-04-20T10:42:12.98Z</time></trkpt><trkpt lat="45.77219909763801" lon="10.714467546458126"><ele>628.0</ele><time>2026-04-20T10:42:13.98Z</time></trkpt><trkpt lat="45.77211246661388" lon="10.714314126490725"><ele>632.75</ele><time>2026-04-20T10:42:14.979Z</time></trkpt><trkpt lat="45.7720248918455" lon="10.714146595705317"><ele>637.5</ele><time>2026-04-20T10:42:15.979Z</time></trkpt><trkpt lat="45.77194136520439" lon="10.71401068547339"><ele>642.25</ele><time>2026-04-20T10:42:16.979Z</time></trkpt><trkpt lat="45.77185469428769" lon="10.713905318283754"><ele>647.0</ele><time>2026-04-20T10:42:17.979Z</time></trkpt><trkpt lat="45.771766387031015" lon="10.713796119354681"><ele>643.75</ele><time>2026-04-20T10:42:18.979Z</time></trkpt><trkpt lat="45.77171061078234" lon="10.713665689781124"><ele>640.5</ele><time>2026-04-20T10:42:19.979Z</time></trkpt><trkpt lat="45.771652986659014" lon="10.713543771771509"><ele>637.25</ele><time>2026-04-20T10:42:20.979Z</time></trkpt><trkpt lat="45.77155984273857" lon="10.713442296125669"><ele>634.0</ele><time>2026-04-20T10:42:21.979Z</time></trkpt><trkpt lat="45.771428221537704" lon="10.71336670081756"><ele>634.0</ele><time>2026-04-20T10:42:22.979Z</time></trkpt><trkpt lat="45.77132127385998" lon="10.713240815264479"><ele>634.0</ele><time>2026-04-20T10:42:23.979Z</time></trkpt><trkpt lat="45.77122561613436" lon="10.713091006364357"><ele>634.0</ele><time>2026-04-20T10:42:24.979Z</time></trkpt><trkpt lat="45.77112573795291" lon="10.712931820752242"><ele>634.0</ele><time>2026-04-20T10:42:25.979Z</time></trkpt><trkpt lat="45.77099382711308" lon="10.71280559895856"><ele>629.25</ele><time>2026-04-20T10:42:26.979Z</time></trkpt><trkpt lat="45.77087043440292" lon="10.712687336379462"><ele>624.5</ele><time>2026-04-20T10:42:27.979Z</time></trkpt><trkpt lat="45.770747371338786" lon="10.712579176246715"><ele>619.75</ele><time>2026-04-20T10:42:28.979Z</time></trkpt><trkpt lat="45.770634547655405" lon="10.712497448702795"><ele>615.0</ele><time>2026-04-20T10:42:29.979Z</time></trkpt><trkpt lat="45.77054170647395" lon="10.712416180260456"><ele>615.0</ele><time>2026-04-20T10:42:30.979Z</time></trkpt><trkpt lat="45.77048093493193" lon="10.712313850698772"><ele>615.0</ele><time>2026-04-20T10:42:31.979Z</time></trkpt><trkpt lat="45.770452196032416" lon="10.71216337818271"><ele>615.0</ele><time>2026-04-20T10:42:32.979Z</time></trkpt><trkpt lat="45.7704258231904" lon="10.711981122335322"><ele>615.0</ele><time>2026-04-20T10:42:33.979Z</time></trkpt><trkpt lat="45.770364456181774" lon="10.711785362223408"><ele>622.0</ele><time>2026-04-20T10:42:34.979Z</time></trkpt><trkpt lat="45.77032380124037" lon="10.711595180912063"><ele>629.0</ele><time>2026-04-20T10:42:35.979Z</time></trkpt><trkpt lat="45.77023636957406" lon="10.711263871786757"><ele>636.0</ele><time>2026-04-20T10:42:37.979Z</time></trkpt><trkpt lat="45.77021082399999" lon="10.711144585897115"><ele>638.8333333333334</ele><time>2026-04-20T10:42:38.979Z</time></trkpt><trkpt lat="45.77021103901521" lon="10.711033391555192"><ele>641.6666666666666</ele><time>2026-04-20T10:42:39.979Z</time></trkpt><trkpt lat="45.770154780804056" lon="10.710915834690535"><ele>644.5</ele><time>2026-04-20T10:42:41.979Z</time></trkpt><trkpt lat="45.77008817519589" lon="10.710976975524204"><ele>647.3333333333333</ele><time>2026-04-20T10:42:43.979Z</time></trkpt><trkpt lat="45.77008285913922" lon="10.711067320536197"><ele>650.1666666666666</ele><time>2026-04-20T10:42:44.979Z</time></trkpt><trkpt lat="45.770095038034086" lon="10.711182085113887"><ele>653.0</ele><time>2026-04-20T10:42:45.979Z</time></trkpt><trkpt lat="45.77011372928685" lon="10.711330225311002"><ele>638.0</ele><time>2026-04-20T10:42:46.979Z</time></trkpt><trkpt lat="45.77014375012063" lon="10.71149683662148"><ele>623.0</ele><time>2026-04-20T10:42:47.979Z</time></trkpt><trkpt lat="45.770164857015885" lon="10.711683376068866"><ele>608.0</ele><time>2026-04-20T10:42:48.979Z</time></trkpt><trkpt lat="45.77016722598981" lon="10.711867811240154"><ele>593.0</ele><time>2026-04-20T10:42:49.979Z</time></trkpt><trkpt lat="45.77015063119212" lon="10.71206875250937"><ele>592.0</ele><time>2026-04-20T10:42:50.979Z</time></trkpt><trkpt lat="45.770133966794155" lon="10.712244873802224"><ele>591.0</ele><time>2026-04-20T10:42:51.979Z</time></trkpt><trkpt lat="45.770126098795544" lon="10.712396821028847"><ele>590.0</ele><time>2026-04-20T10:42:52.979Z</time></trkpt><trkpt lat="45.77012199515907" lon="10.712531710644138"><ele>589.0</ele><time>2026-04-20T10:42:53.979Z</time></trkpt><trkpt lat="45.770115679557186" lon="10.712659746752987"><ele>588.0</ele><time>2026-04-20T10:42:54.979Z</time></trkpt><trkpt lat="45.77008452923855" lon="10.712760820122337"><ele>588.0</ele><time>2026-04-20T10:42:55.979Z</time></trkpt><trkpt lat="45.769984244314344" lon="10.712780818003754"><ele>588.0</ele><time>2026-04-20T10:42:57.979Z</time></trkpt><trkpt lat="45.76990458995805" lon="10.712647568075964"><ele>588.0</ele><time>2026-04-20T10:42:59.979Z</time></trkpt><trkpt lat="45.76987131917191" lon="10.712532079414336"><ele>588.0</ele><time>2026-04-20T10:43:00.979Z</time></trkpt><trkpt lat="45.76987572019573" lon="10.712386168743384"><ele>588.0</ele><time>2026-04-20T10:43:01.979Z</time></trkpt><trkpt lat="45.769865768607914" lon="10.712231967576688"><ele>587.75</ele><time>2026-04-20T10:43:02.979Z</time></trkpt><trkpt lat="45.76985591533301" lon="10.712057408568889"><ele>587.5</ele><time>2026-04-20T10:43:03.979Z</time></trkpt><trkpt lat="45.76984979888063" lon="10.71188169355367"><ele>587.25</ele><time>2026-04-20T10:43:04.979Z</time></trkpt><trkpt lat="45.76984544568226" lon="10.711691471916163"><ele>587.0</ele><time>2026-04-20T10:43:05.979Z</time></trkpt><trkpt lat="45.76984008628362" lon="10.711496910578246"><ele>589.0</ele><time>2026-04-20T10:43:06.979Z</time></trkpt><trkpt lat="45.76981294605111" lon="10.711280696976354"><ele>591.0</ele><time>2026-04-20T10:43:07.979Z</time></trkpt><trkpt lat="45.76978235957386" lon="10.711061205769747"><ele>593.0</ele><time>2026-04-20T10:43:08.979Z</time></trkpt><trkpt lat="45.76977152842616" lon="10.710842104497095"><ele>595.0</ele><time>2026-04-20T10:43:09.979Z</time></trkpt><trkpt lat="45.7697797724159" lon="10.710628790840481"><ele>597.0</ele><time>2026-04-20T10:43:10.979Z</time></trkpt><trkpt lat="45.769804922983404" lon="10.710449117120547"><ele>599.0</ele><time>2026-04-20T10:43:11.979Z</time></trkpt><trkpt lat="45.76982988194433" lon="10.710305997936118"><ele>601.0</ele><time>2026-04-20T10:43:12.979Z</time></trkpt><trkpt lat="45.76984355560949" lon="10.710206382922262"><ele>601.0</ele><time>2026-04-20T10:43:13.979Z</time></trkpt><trkpt lat="45.76985368665587" lon="10.710081377984855"><ele>601.0</ele><time>2026-04-20T10:43:15.979Z</time></trkpt><trkpt lat="45.76980011907244" lon="10.709962469813096"><ele>601.0</ele><time>2026-04-20T10:43:17.979Z</time></trkpt><trkpt lat="45.76970490525647" lon="10.71002656576252"><ele>601.0</ele><time>2026-04-20T10:43:18.979Z</time></trkpt><trkpt lat="45.76970532289905" lon="10.710201052770994"><ele>601.0</ele><time>2026-04-20T10:43:19.979Z</time></trkpt><trkpt lat="45.769669228984625" lon="10.710314524896418"><ele>601.0</ele><time>2026-04-20T10:43:20.979Z</time></trkpt><trkpt lat="45.769587503235755" lon="10.71043324452786"><ele>601.0</ele><time>2026-04-20T10:43:21.979Z</time></trkpt><trkpt lat="45.76952630246367" lon="10.710582206164867"><ele>601.0</ele><time>2026-04-20T10:43:22.979Z</time></trkpt><trkpt lat="45.76948613689107" lon="10.710775482599644"><ele>601.0</ele><time>2026-04-20T10:43:23.979Z</time></trkpt><trkpt lat="45.76945237993118" lon="10.710922028160974"><ele>601.0</ele><time>2026-04-20T10:43:24.979Z</time></trkpt><trkpt lat="45.769417843464154" lon="10.711065796837646"><ele>601.0</ele><time>2026-04-20T10:43:25.979Z</time></trkpt><trkpt lat="45.76943394486169" lon="10.711246337366342"><ele>601.0</ele><time>2026-04-20T10:43:26.979Z</time></trkpt><trkpt lat="45.76945646353805" lon="10.711407792106268"><ele>601.0</ele><time>2026-04-20T10:43:27.979Z</time></trkpt><trkpt lat="45.76946545695324" lon="10.711573563619709"><ele>599.4</ele><time>2026-04-20T10:43:28.979Z</time></trkpt><trkpt lat="45.769473113364356" lon="10.711754717143817"><ele>597.8</ele><time>2026-04-20T10:43:29.979Z</time></trkpt><trkpt lat="45.769442520154975" lon="10.711905909111614"><ele>596.1999999999999</ele><time>2026-04-20T10:43:30.979Z</time></trkpt><trkpt lat="45.76942770435826" lon="10.712000180453574"><ele>594.6</ele><time>2026-04-20T10:43:31.979Z</time></trkpt><trkpt lat="45.76940278815568" lon="10.712084284020667"><ele>593.0</ele><time>2026-04-20T10:43:32.979Z</time></trkpt><trkpt lat="45.76934077916112" lon="10.71217919799628"><ele>592.0</ele><time>2026-04-20T10:43:33.979Z</time></trkpt><trkpt lat="45.76930606995016" lon="10.712321539196571"><ele>591.0</ele><time>2026-04-20T10:43:34.979Z</time></trkpt><trkpt lat="45.76930422097416" lon="10.712468337589552"><ele>590.0</ele><time>2026-04-20T10:43:35.979Z</time></trkpt><trkpt lat="45.769306962857584" lon="10.712582112709567"><ele>589.0</ele><time>2026-04-20T10:43:36.979Z</time></trkpt><trkpt lat="45.76934206635558" lon="10.712708348629382"><ele>588.0</ele><time>2026-04-20T10:43:37.979Z</time></trkpt><trkpt lat="45.769421493985114" lon="10.712796711411023"><ele>588.0</ele><time>2026-04-20T10:43:38.979Z</time></trkpt><trkpt lat="45.76951469244039" lon="10.712848906058404"><ele>588.0</ele><time>2026-04-20T10:43:39.979Z</time></trkpt><trkpt lat="45.7695433856618" lon="10.712955112674432"><ele>588.0</ele><time>2026-04-20T10:43:40.979Z</time></trkpt><trkpt lat="45.76955136284545" lon="10.713062273905885"><ele>588.0</ele><time>2026-04-20T10:43:41.979Z</time></trkpt><trkpt lat="45.769540289267965" lon="10.713201789857296"><ele>588.0</ele><time>2026-04-20T10:43:42.979Z</time></trkpt><trkpt lat="45.769525877876916" lon="10.713357293772027"><ele>588.0</ele><time>2026-04-20T10:43:43.979Z</time></trkpt><trkpt lat="45.76951529019141" lon="10.713501992009522"><ele>588.0</ele><time>2026-04-20T10:43:44.979Z</time></trkpt><trkpt lat="45.76953821042104" lon="10.713669882646856"><ele>588.0</ele><time>2026-04-20T10:43:45.979Z</time></trkpt><trkpt lat="45.769623056224304" lon="10.713821726690126"><ele>588.0</ele><time>2026-04-20T10:43:46.979Z</time></trkpt><trkpt lat="45.769665826870614" lon="10.713941103408946"><ele>591.1999999999999</ele><time>2026-04-20T10:43:47.979Z</time></trkpt><trkpt lat="45.76969157551559" lon="10.714048698401372"><ele>594.4</ele><time>2026-04-20T10:43:48.979Z</time></trkpt><trkpt lat="45.769704781255015" lon="10.714191509367682"><ele>597.5999999999999</ele><time>2026-04-20T10:43:49.979Z</time></trkpt><trkpt lat="45.76969855163624" lon="10.714356497665905"><ele>600.8</ele><time>2026-04-20T10:43:50.979Z</time></trkpt><trkpt lat="45.76970359714818" lon="10.714532097160971"><ele>604.0</ele><time>2026-04-20T10:43:51.979Z</time></trkpt><trkpt lat="45.7697265570173" lon="10.714677786255335"><ele>607.75</ele><time>2026-04-20T10:43:52.979Z</time></trkpt><trkpt lat="45.76971709878651" lon="10.71483870416799"><ele>611.5</ele><time>2026-04-20T10:43:53.979Z</time></trkpt><trkpt lat="45.76968523613681" lon="10.715011630774768"><ele>615.25</ele><time>2026-04-20T10:43:54.979Z</time></trkpt><trkpt lat="45.769665717917675" lon="10.715196694217674"><ele>619.0</ele><time>2026-04-20T10:43:55.979Z</time></trkpt><trkpt lat="45.76962090629327" lon="10.715388872647395"><ele>621.25</ele><time>2026-04-20T10:43:56.979Z</time></trkpt><trkpt lat="45.7695931353838" lon="10.715588900815685"><ele>623.5</ele><time>2026-04-20T10:43:57.979Z</time></trkpt><trkpt lat="45.769578694347246" lon="10.715782068303517"><ele>625.75</ele><time>2026-04-20T10:43:58.979Z</time></trkpt><trkpt lat="45.76958592786391" lon="10.715960900348373"><ele>628.0</ele><time>2026-04-20T10:43:59.979Z</time></trkpt><trkpt lat="45.76959599280064" lon="10.716115127447932"><ele>630.0</ele><time>2026-04-20T10:44:00.979Z</time></trkpt><trkpt lat="45.769601213822426" lon="10.716264227283814"><ele>632.0</ele><time>2026-04-20T10:44:01.979Z</time></trkpt><trkpt lat="45.769593708099286" lon="10.71637874225772"><ele>634.0</ele><time>2026-04-20T10:44:02.979Z</time></trkpt><trkpt lat="45.76956778175666" lon="10.716465207951797"><ele>636.0</ele><time>2026-04-20T10:44:03.979Z</time></trkpt><trkpt lat="45.76951304998613" lon="10.716537161053184"><ele>638.0</ele><time>2026-04-20T10:44:04.979Z</time></trkpt><trkpt lat="45.769420131131795" lon="10.716569991739803"><ele>640.0</ele><time>2026-04-20T10:44:05.979Z</time></trkpt><trkpt lat="45.76931125708258" lon="10.716603929897072"><ele>641.5</ele><time>2026-04-20T10:44:06.979Z</time></trkpt><trkpt lat="45.769193756746795" lon="10.716630163081787"><ele>643.0</ele><time>2026-04-20T10:44:07.979Z</time></trkpt><trkpt lat="45.76906164001861" lon="10.716703016202713"><ele>644.5</ele><time>2026-04-20T10:44:08.979Z</time></trkpt><trkpt lat="45.76892248043078" lon="10.716791529962887"><ele>646.0</ele><time>2026-04-20T10:44:09.979Z</time></trkpt><trkpt lat="45.76878468551226" lon="10.716900971583438"><ele>643.0</ele><time>2026-04-20T10:44:10.979Z</time></trkpt><trkpt lat="45.7686654707219" lon="10.717006136380313"><ele>640.0</ele><time>2026-04-20T10:44:11.979Z</time></trkpt><trkpt lat="45.7685521653984" lon="10.717105668550673"><ele>637.0</ele><time>2026-04-20T10:44:12.979Z</time></trkpt><trkpt lat="45.768431410006386" lon="10.717192676770013"><ele>634.0</ele><time>2026-04-20T10:44:13.979Z</time></trkpt><trkpt lat="45.768301515667254" lon="10.717259520303871"><ele>634.0</ele><time>2026-04-20T10:44:14.979Z</time></trkpt><trkpt lat="45.76816583047807" lon="10.717313590463354"><ele>634.0</ele><time>2026-04-20T10:44:15.979Z</time></trkpt><trkpt lat="45.76802297204547" lon="10.717358029837257"><ele>634.0</ele><time>2026-04-20T10:44:16.979Z</time></trkpt><trkpt lat="45.767883162238725" lon="10.717399981609017"><ele>634.0</ele><time>2026-04-20T10:44:17.979Z</time></trkpt><trkpt lat="45.76774870377466" lon="10.717453479753605"><ele>636.25</ele><time>2026-04-20T10:44:18.979Z</time></trkpt><trkpt lat="45.76761921108724" lon="10.717505559474585"><ele>638.5</ele><time>2026-04-20T10:44:19.979Z</time></trkpt><trkpt lat="45.76752167077978" lon="10.717553848625418"><ele>640.75</ele><time>2026-04-20T10:44:20.979Z</time></trkpt><trkpt lat="45.767417422040396" lon="10.717559050915982"><ele>643.0</ele><time>2026-04-20T10:44:21.979Z</time></trkpt><trkpt lat="45.76729385619952" lon="10.717576283323767"><ele>643.0</ele><time>2026-04-20T10:44:22.979Z</time></trkpt><trkpt lat="45.76714870974431" lon="10.717607029391527"><ele>643.0</ele><time>2026-04-20T10:44:23.979Z</time></trkpt><trkpt lat="45.76699878780631" lon="10.717625312576011"><ele>643.0</ele><time>2026-04-20T10:44:24.979Z</time></trkpt><trkpt lat="45.766873458326785" lon="10.717626520442838"><ele>643.0</ele><time>2026-04-20T10:44:25.979Z</time></trkpt><trkpt lat="45.766758112714776" lon="10.717629245174434"><ele>644.75</ele><time>2026-04-20T10:44:26.978Z</time></trkpt><trkpt lat="45.76662497910913" lon="10.717628643583401"><ele>646.5</ele><time>2026-04-20T10:44:27.979Z</time></trkpt><trkpt lat="45.76649488323661" lon="10.717634359731946"><ele>648.25</ele><time>2026-04-20T10:44:28.979Z</time></trkpt><trkpt lat="45.766363721382156" lon="10.717643415217553"><ele>650.0</ele><time>2026-04-20T10:44:29.979Z</time></trkpt><trkpt lat="45.766221787453574" lon="10.717680530499942"><ele>650.0</ele><time>2026-04-20T10:44:30.979Z</time></trkpt><trkpt lat="45.76610587892477" lon="10.717725637007995"><ele>650.0</ele><time>2026-04-20T10:44:31.979Z</time></trkpt><trkpt lat="45.76600724410534" lon="10.717727327645777"><ele>650.0</ele><time>2026-04-20T10:44:32.979Z</time></trkpt><trkpt lat="45.765887408273294" lon="10.7177164609027"><ele>650.0</ele><time>2026-04-20T10:44:33.979Z</time></trkpt><trkpt lat="45.76576849037739" lon="10.717656543842157"><ele>650.0</ele><time>2026-04-20T10:44:34.979Z</time></trkpt><trkpt lat="45.7656410257321" lon="10.717601130936025"><ele>650.0</ele><time>2026-04-20T10:44:35.979Z</time></trkpt><trkpt lat="45.765510320482775" lon="10.717595366149721"><ele>650.0</ele><time>2026-04-20T10:44:36.979Z</time></trkpt><trkpt lat="45.76539521351064" lon="10.717610744164988"><ele>650.0</ele><time>2026-04-20T10:44:37.979Z</time></trkpt><trkpt lat="45.76527022202187" lon="10.717623174323828"><ele>651.5</ele><time>2026-04-20T10:44:38.979Z</time></trkpt><trkpt lat="45.76514233340397" lon="10.717631279743946"><ele>653.0</ele><time>2026-04-20T10:44:39.979Z</time></trkpt><trkpt lat="45.7650231921589" lon="10.71761539428658"><ele>654.5</ele><time>2026-04-20T10:44:40.979Z</time></trkpt><trkpt lat="45.76491231833972" lon="10.71761082153608"><ele>656.0</ele><time>2026-04-20T10:44:41.979Z</time></trkpt><trkpt lat="45.76480083283709" lon="10.71759355304259"><ele>656.0</ele><time>2026-04-20T10:44:42.979Z</time></trkpt><trkpt lat="45.76470783612168" lon="10.717541358434639"><ele>656.0</ele><time>2026-04-20T10:44:43.979Z</time></trkpt><trkpt lat="45.76462261205421" lon="10.71752325598868"><ele>656.0</ele><time>2026-04-20T10:44:44.979Z</time></trkpt><trkpt lat="45.764548779335954" lon="10.7175344516363"><ele>656.0</ele><time>2026-04-20T10:44:45.979Z</time></trkpt><trkpt lat="45.764497205445366" lon="10.71759798058929"><ele>656.0</ele><time>2026-04-20T10:44:46.979Z</time></trkpt><trkpt lat="45.76445556139273" lon="10.717710445273752"><ele>656.0</ele><time>2026-04-20T10:44:47.979Z</time></trkpt><trkpt lat="45.76440368729964" lon="10.717822146530843"><ele>653.5</ele><time>2026-04-20T10:44:48.979Z</time></trkpt><trkpt lat="45.764359692271576" lon="10.717953073820476"><ele>651.0</ele><time>2026-04-20T10:44:49.979Z</time></trkpt><trkpt lat="45.7642808724719" lon="10.718089080249595"><ele>648.5</ele><time>2026-04-20T10:44:50.979Z</time></trkpt><trkpt lat="45.764185802983405" lon="10.718230575441538"><ele>646.0</ele><time>2026-04-20T10:44:51.979Z</time></trkpt><trkpt lat="45.76408936739638" lon="10.718367734001456"><ele>646.0</ele><time>2026-04-20T10:44:52.979Z</time></trkpt><trkpt lat="45.763995782846" lon="10.718489567711668"><ele>646.0</ele><time>2026-04-20T10:44:53.979Z</time></trkpt><trkpt lat="45.76390301918372" lon="10.718594486852046"><ele>646.0</ele><time>2026-04-20T10:44:54.979Z</time></trkpt><trkpt lat="45.76379452885509" lon="10.718710363324185"><ele>646.0</ele><time>2026-04-20T10:44:55.979Z</time></trkpt><trkpt lat="45.76368993422778" lon="10.718870194260173"><ele>646.5</ele><time>2026-04-20T10:44:56.979Z</time></trkpt><trkpt lat="45.763608020021934" lon="10.719008047734581"><ele>647.0</ele><time>2026-04-20T10:44:57.979Z</time></trkpt><trkpt lat="45.76353277792095" lon="10.719125130149635"><ele>647.5</ele><time>2026-04-20T10:44:58.979Z</time></trkpt><trkpt lat="45.76345304243151" lon="10.719238556503553"><ele>648.0</ele><time>2026-04-20T10:44:59.979Z</time></trkpt><trkpt lat="45.76336569078527" lon="10.719340883359706"><ele>641.75</ele><time>2026-04-20T10:45:00.979Z</time></trkpt><trkpt lat="45.76325861119999" lon="10.719462248196686"><ele>635.5</ele><time>2026-04-20T10:45:01.979Z</time></trkpt><trkpt lat="45.76314637880638" lon="10.719543543701638"><ele>629.25</ele><time>2026-04-20T10:45:02.979Z</time></trkpt><trkpt lat="45.7630251195069" lon="10.71958708055833"><ele>623.0</ele><time>2026-04-20T10:45:03.979Z</time></trkpt><trkpt lat="45.76289451687188" lon="10.719637641396275"><ele>623.0</ele><time>2026-04-20T10:45:04.979Z</time></trkpt><trkpt lat="45.76275457681113" lon="10.719696872679704"><ele>623.0</ele><time>2026-04-20T10:45:05.979Z</time></trkpt><trkpt lat="45.762607074571136" lon="10.719776964482632"><ele>623.0</ele><time>2026-04-20T10:45:06.979Z</time></trkpt><trkpt lat="45.7624760100762" lon="10.719850057220679"><ele>623.0</ele><time>2026-04-20T10:45:07.979Z</time></trkpt><trkpt lat="45.76236893225725" lon="10.719902327021815"><ele>625.8</ele><time>2026-04-20T10:45:08.979Z</time></trkpt><trkpt lat="45.762261557316236" lon="10.719952765785267"><ele>628.5999999999999</ele><time>2026-04-20T10:45:09.979Z</time></trkpt><trkpt lat="45.76214417805464" lon="10.71998017698072"><ele>631.4000000000001</ele><time>2026-04-20T10:45:10.979Z</time></trkpt><trkpt lat="45.76204099292379" lon="10.719960801618711"><ele>634.2</ele><time>2026-04-20T10:45:11.979Z</time></trkpt><trkpt lat="45.761937322955646" lon="10.719986810352623"><ele>637.0</ele><time>2026-04-20T10:45:12.979Z</time></trkpt><trkpt lat="45.76182579151301" lon="10.72004666329186"><ele>633.75</ele><time>2026-04-20T10:45:13.979Z</time></trkpt><trkpt lat="45.76172838104085" lon="10.72014467954111"><ele>630.5</ele><time>2026-04-20T10:45:14.979Z</time></trkpt><trkpt lat="45.7616359475261" lon="10.720241125811457"><ele>627.25</ele><time>2026-04-20T10:45:15.979Z</time></trkpt><trkpt lat="45.76154529476596" lon="10.720320593256998"><ele>624.0</ele><time>2026-04-20T10:45:16.979Z</time></trkpt><trkpt lat="45.76142676215894" lon="10.720367318237232"><ele>624.0</ele><time>2026-04-20T10:45:17.979Z</time></trkpt><trkpt lat="45.76130385893178" lon="10.720381147323355"><ele>624.0</ele><time>2026-04-20T10:45:18.979Z</time></trkpt><trkpt lat="45.76117439015828" lon="10.720386117213732"><ele>624.0</ele><time>2026-04-20T10:45:19.979Z</time></trkpt><trkpt lat="45.761035369852124" lon="10.720357801680326"><ele>624.0</ele><time>2026-04-20T10:45:20.979Z</time></trkpt><trkpt lat="45.76088668793412" lon="10.720358160017518"><ele>626.0</ele><time>2026-04-20T10:45:21.979Z</time></trkpt><trkpt lat="45.76073213941526" lon="10.720374995162464"><ele>628.0</ele><time>2026-04-20T10:45:22.979Z</time></trkpt><trkpt lat="45.76057412365406" lon="10.720409422588181"><ele>630.0</ele><time>2026-04-20T10:45:23.979Z</time></trkpt><trkpt lat="45.76043554370604" lon="10.720447901507715"><ele>630.0</ele><time>2026-04-20T10:45:24.979Z</time></trkpt><trkpt lat="45.76033068194238" lon="10.720487350280239"><ele>630.0</ele><time>2026-04-20T10:45:25.979Z</time></trkpt><trkpt lat="45.76024447236915" lon="10.72049773964136"><ele>630.0</ele><time>2026-04-20T10:45:26.979Z</time></trkpt><trkpt lat="45.760146392377905" lon="10.720495179228905"><ele>630.0</ele><time>2026-04-20T10:45:27.979Z</time></trkpt><trkpt lat="45.760032380740306" lon="10.720459649309651"><ele>630.0</ele><time>2026-04-20T10:45:28.979Z</time></trkpt><trkpt lat="45.75991254350386" lon="10.720402366086049"><ele>629.8</ele><time>2026-04-20T10:45:29.979Z</time></trkpt><trkpt lat="45.759814624339896" lon="10.720326496923112"><ele>629.6</ele><time>2026-04-20T10:45:30.979Z</time></trkpt><trkpt lat="45.75971766437673" lon="10.720275293900988"><ele>629.4</ele><time>2026-04-20T10:45:31.979Z</time></trkpt><trkpt lat="45.75963280425619" lon="10.720276282183454"><ele>629.2</ele><time>2026-04-20T10:45:32.979Z</time></trkpt><trkpt lat="45.75955640056699" lon="10.720324406414823"><ele>629.0</ele><time>2026-04-20T10:45:33.979Z</time></trkpt><trkpt lat="45.759478908933254" lon="10.720397964322808"><ele>629.0</ele><time>2026-04-20T10:45:34.979Z</time></trkpt><trkpt lat="45.75944352757454" lon="10.720569212692265"><ele>629.0</ele><time>2026-04-20T10:45:35.979Z</time></trkpt><trkpt lat="45.759432735259445" lon="10.720752065454928"><ele>629.0</ele><time>2026-04-20T10:45:36.979Z</time></trkpt><trkpt lat="45.75940734758071" lon="10.72090889054505"><ele>629.0</ele><time>2026-04-20T10:45:37.979Z</time></trkpt><trkpt lat="45.75935697673852" lon="10.721060635868133"><ele>627.5</ele><time>2026-04-20T10:45:38.979Z</time></trkpt><trkpt lat="45.75927623146044" lon="10.721186581935747"><ele>626.0</ele><time>2026-04-20T10:45:39.979Z</time></trkpt><trkpt lat="45.75918230036277" lon="10.721325309364756"><ele>624.5</ele><time>2026-04-20T10:45:40.979Z</time></trkpt><trkpt lat="45.75907964204984" lon="10.721424445765285"><ele>623.0</ele><time>2026-04-20T10:45:41.979Z</time></trkpt><trkpt lat="45.759002782729894" lon="10.721528738481386"><ele>623.0</ele><time>2026-04-20T10:45:42.979Z</time></trkpt><trkpt lat="45.758952068161314" lon="10.721677435747816"><ele>623.0</ele><time>2026-04-20T10:45:43.979Z</time></trkpt><trkpt lat="45.758928745590154" lon="10.721870338898565"><ele>623.0</ele><time>2026-04-20T10:45:44.979Z</time></trkpt><trkpt lat="45.75890369084911" lon="10.722065565770288"><ele>623.0</ele><time>2026-04-20T10:45:45.979Z</time></trkpt><trkpt lat="45.758870594612866" lon="10.722256242040276"><ele>619.0</ele><time>2026-04-20T10:45:46.979Z</time></trkpt><trkpt lat="45.75882405064389" lon="10.72245204095885"><ele>615.0</ele><time>2026-04-20T10:45:47.979Z</time></trkpt><trkpt lat="45.75876997207844" lon="10.722660874141962"><ele>611.0</ele><time>2026-04-20T10:45:48.979Z</time></trkpt><trkpt lat="45.758714008734046" lon="10.72287468130424"><ele>609.75</ele><time>2026-04-20T10:45:49.979Z</time></trkpt><trkpt lat="45.758654545189806" lon="10.723087415009367"><ele>608.5</ele><time>2026-04-20T10:45:50.979Z</time></trkpt><trkpt lat="45.75859598040784" lon="10.723277175443124"><ele>607.25</ele><time>2026-04-20T10:45:51.979Z</time></trkpt><trkpt lat="45.75853511956698" lon="10.723455313595684"><ele>606.0</ele><time>2026-04-20T10:45:52.979Z</time></trkpt><trkpt lat="45.75847418436654" lon="10.723646426265502"><ele>606.0</ele><time>2026-04-20T10:45:53.979Z</time></trkpt><trkpt lat="45.75839244764933" lon="10.723823573086102"><ele>606.0</ele><time>2026-04-20T10:45:54.979Z</time></trkpt><trkpt lat="45.7583064847541" lon="10.724016491990742"><ele>606.0</ele><time>2026-04-20T10:45:55.979Z</time></trkpt><trkpt lat="45.758191244787966" lon="10.724199122179458"><ele>606.0</ele><time>2026-04-20T10:45:56.979Z</time></trkpt><trkpt lat="45.75807912116074" lon="10.724380820444887"><ele>606.0</ele><time>2026-04-20T10:45:57.979Z</time></trkpt><trkpt lat="45.75796831231898" lon="10.724548974469744"><ele>606.0</ele><time>2026-04-20T10:45:58.979Z</time></trkpt><trkpt lat="45.757842711675956" lon="10.724689651649593"><ele>604.0</ele><time>2026-04-20T10:45:59.979Z</time></trkpt><trkpt lat="45.75772440473552" lon="10.724840533723423"><ele>602.0</ele><time>2026-04-20T10:46:00.979Z</time></trkpt><trkpt lat="45.757586742122726" lon="10.72494176921708"><ele>600.0</ele><time>2026-04-20T10:46:01.979Z</time></trkpt><trkpt lat="45.757455191136" lon="10.725061927150877"><ele>600.0</ele><time>2026-04-20T10:46:02.979Z</time></trkpt><trkpt lat="45.757320137167554" lon="10.725158192923995"><ele>600.0</ele><time>2026-04-20T10:46:03.979Z</time></trkpt><trkpt lat="45.757175792703116" lon="10.725263023732905"><ele>600.0</ele><time>2026-04-20T10:46:04.979Z</time></trkpt><trkpt lat="45.75702970732738" lon="10.725378649742677"><ele>598.0</ele><time>2026-04-20T10:46:05.979Z</time></trkpt><trkpt lat="45.75688581607043" lon="10.725508310901866"><ele>596.0</ele><time>2026-04-20T10:46:06.979Z</time></trkpt><trkpt lat="45.75674073722327" lon="10.725646257377672"><ele>594.0</ele><time>2026-04-20T10:46:07.979Z</time></trkpt><trkpt lat="45.75660646196518" lon="10.725774252226119"><ele>594.0</ele><time>2026-04-20T10:46:08.979Z</time></trkpt><trkpt lat="45.7564887649403" lon="10.725880470125704"><ele>594.0</ele><time>2026-04-20T10:46:09.979Z</time></trkpt><trkpt lat="45.756374408579916" lon="10.726017191383235"><ele>594.0</ele><time>2026-04-20T10:46:10.979Z</time></trkpt><trkpt lat="45.75625082793457" lon="10.726142864517048"><ele>594.0</ele><time>2026-04-20T10:46:11.979Z</time></trkpt><trkpt lat="45.75613328214622" lon="10.726296038394675"><ele>595.0</ele><time>2026-04-20T10:46:12.979Z</time></trkpt><trkpt lat="45.756027003197154" lon="10.726469385498689"><ele>596.0</ele><time>2026-04-20T10:46:13.979Z</time></trkpt><trkpt lat="45.75593189159268" lon="10.726643060234188"><ele>597.0</ele><time>2026-04-20T10:46:14.979Z</time></trkpt><trkpt lat="45.755851666767214" lon="10.72679879465733"><ele>595.5</ele><time>2026-04-20T10:46:15.979Z</time></trkpt><trkpt lat="45.75577911752829" lon="10.726949380346955"><ele>594.0</ele><time>2026-04-20T10:46:16.979Z</time></trkpt><trkpt lat="45.75568945672276" lon="10.727091606978943"><ele>592.5</ele><time>2026-04-20T10:46:17.979Z</time></trkpt><trkpt lat="45.7555893297037" lon="10.727243602658932"><ele>591.0</ele><time>2026-04-20T10:46:18.979Z</time></trkpt><trkpt lat="45.75547787432528" lon="10.727406623482478"><ele>591.0</ele><time>2026-04-20T10:46:19.979Z</time></trkpt><trkpt lat="45.75536246225785" lon="10.727583600641905"><ele>591.0</ele><time>2026-04-20T10:46:20.979Z</time></trkpt><trkpt lat="45.755250266965575" lon="10.72776801934604"><ele>591.0</ele><time>2026-04-20T10:46:21.979Z</time></trkpt><trkpt lat="45.75515690509228" lon="10.727922200617735"><ele>590.25</ele><time>2026-04-20T10:46:22.979Z</time></trkpt><trkpt lat="45.75507579296734" lon="10.728060615292435"><ele>589.5</ele><time>2026-04-20T10:46:23.979Z</time></trkpt><trkpt lat="45.7549918335896" lon="10.728181055791149"><ele>588.75</ele><time>2026-04-20T10:46:24.979Z</time></trkpt><trkpt lat="45.75491086413366" lon="10.728292155081638"><ele>588.0</ele><time>2026-04-20T10:46:25.979Z</time></trkpt><trkpt lat="45.75481791606478" lon="10.728390755382678"><ele>588.0</ele><time>2026-04-20T10:46:26.979Z</time></trkpt><trkpt lat="45.754711403112665" lon="10.728468867433033"><ele>588.0</ele><time>2026-04-20T10:46:27.979Z</time></trkpt><trkpt lat="45.75458512058277" lon="10.728533221246995"><ele>588.0</ele><time>2026-04-20T10:46:28.979Z</time></trkpt><trkpt lat="45.754446957613254" lon="10.728602281952544"><ele>588.0</ele><time>2026-04-20T10:46:29.978Z</time></trkpt><trkpt lat="45.75429777573683" lon="10.72868256535222"><ele>585.25</ele><time>2026-04-20T10:46:30.978Z</time></trkpt><trkpt lat="45.75415852334853" lon="10.728754608952025"><ele>582.5</ele><time>2026-04-20T10:46:31.978Z</time></trkpt><trkpt lat="45.75404371040081" lon="10.728807624088038"><ele>579.75</ele><time>2026-04-20T10:46:32.979Z</time></trkpt><trkpt lat="45.75394186118788" lon="10.728854088897803"><ele>577.0</ele><time>2026-04-20T10:46:33.978Z</time></trkpt><trkpt lat="45.75385357569629" lon="10.728905833297162"><ele>577.0</ele><time>2026-04-20T10:46:34.978Z</time></trkpt><trkpt lat="45.75377260741907" lon="10.728982086925658"><ele>577.0</ele><time>2026-04-20T10:46:35.979Z</time></trkpt><trkpt lat="45.753677241006365" lon="10.729061389950592"><ele>577.0</ele><time>2026-04-20T10:46:36.979Z</time></trkpt><trkpt lat="45.75357210058467" lon="10.729107652585137"><ele>577.0</ele><time>2026-04-20T10:46:37.979Z</time></trkpt><trkpt lat="45.75348267874394" lon="10.72908967180048"><ele>577.0</ele><time>2026-04-20T10:46:38.979Z</time></trkpt><trkpt lat="45.75336332385176" lon="10.729032622507642"><ele>576.6666666666667</ele><time>2026-04-20T10:46:39.979Z</time></trkpt><trkpt lat="45.75322796549398" lon="10.728946534165159"><ele>576.3333333333334</ele><time>2026-04-20T10:46:40.979Z</time></trkpt><trkpt lat="45.7530818430404" lon="10.728854000531483"><ele>576.0</ele><time>2026-04-20T10:46:41.979Z</time></trkpt><trkpt lat="45.75294705293024" lon="10.728775780206744"><ele>576.0</ele><time>2026-04-20T10:46:42.979Z</time></trkpt><trkpt lat="45.75282000034122" lon="10.728708247545935"><ele>576.0</ele><time>2026-04-20T10:46:43.979Z</time></trkpt><trkpt lat="45.75270181070814" lon="10.728642196010508"><ele>576.0</ele><time>2026-04-20T10:46:44.979Z</time></trkpt><trkpt lat="45.75260928831278" lon="10.728570720072195"><ele>576.0</ele><time>2026-04-20T10:46:45.979Z</time></trkpt><trkpt lat="45.75252286232422" lon="10.728579130495175"><ele>574.6</ele><time>2026-04-20T10:46:46.979Z</time></trkpt><trkpt lat="45.75244615416122" lon="10.728613598409922"><ele>573.2</ele><time>2026-04-20T10:46:47.979Z</time></trkpt><trkpt lat="45.75237193481461" lon="10.728698356937862"><ele>571.8</ele><time>2026-04-20T10:46:48.979Z</time></trkpt><trkpt lat="45.75228157131432" lon="10.728829739998089"><ele>570.4</ele><time>2026-04-20T10:46:49.979Z</time></trkpt><trkpt lat="45.752180528837336" lon="10.728974765760713"><ele>569.0</ele><time>2026-04-20T10:46:50.979Z</time></trkpt><trkpt lat="45.752069803345904" lon="10.729117539442393"><ele>569.0</ele><time>2026-04-20T10:46:51.979Z</time></trkpt><trkpt lat="45.75194863114438" lon="10.729255243898331"><ele>569.0</ele><time>2026-04-20T10:46:52.979Z</time></trkpt><trkpt lat="45.75181895471384" lon="10.729377271091117"><ele>569.0</ele><time>2026-04-20T10:46:53.979Z</time></trkpt><trkpt lat="45.751684497350915" lon="10.729494014652394"><ele>565.3333333333333</ele><time>2026-04-20T10:46:54.979Z</time></trkpt><trkpt lat="45.7515466877722" lon="10.729596926924273"><ele>561.6666666666666</ele><time>2026-04-20T10:46:55.979Z</time></trkpt><trkpt lat="45.75139783122664" lon="10.729682611754715"><ele>558.0</ele><time>2026-04-20T10:46:56.979Z</time></trkpt><trkpt lat="45.75124652592754" lon="10.729762874903239"><ele>558.0</ele><time>2026-04-20T10:46:57.979Z</time></trkpt><trkpt lat="45.751096029541344" lon="10.729873189548346"><ele>558.0</ele><time>2026-04-20T10:46:58.979Z</time></trkpt><trkpt lat="45.75094738800656" lon="10.729994790068762"><ele>558.0</ele><time>2026-04-20T10:46:59.979Z</time></trkpt><trkpt lat="45.750793989805864" lon="10.73013012162406"><ele>553.6666666666666</ele><time>2026-04-20T10:47:00.979Z</time></trkpt><trkpt lat="45.750643126818474" lon="10.73025250876385"><ele>549.3333333333333</ele><time>2026-04-20T10:47:01.979Z</time></trkpt><trkpt lat="45.75049603127707" lon="10.73037634551174"><ele>545.0</ele><time>2026-04-20T10:47:02.979Z</time></trkpt><trkpt lat="45.75035319309835" lon="10.730493901803214"><ele>546.6666666666666</ele><time>2026-04-20T10:47:03.979Z</time></trkpt><trkpt lat="45.750204669077654" lon="10.730586358614115"><ele>548.3333333333334</ele><time>2026-04-20T10:47:04.979Z</time></trkpt><trkpt lat="45.750034872855416" lon="10.730653064088564"><ele>550.0</ele><time>2026-04-20T10:47:05.979Z</time></trkpt><trkpt lat="45.74986728575141" lon="10.730734562767005"><ele>550.0</ele><time>2026-04-20T10:47:06.979Z</time></trkpt><trkpt lat="45.74970662568731" lon="10.730827611448884"><ele>550.0</ele><time>2026-04-20T10:47:07.979Z</time></trkpt><trkpt lat="45.74955181463024" lon="10.730905331184445"><ele>550.0</ele><time>2026-04-20T10:47:08.979Z</time></trkpt><trkpt lat="45.74940384167563" lon="10.730956989508837"><ele>550.0</ele><time>2026-04-20T10:47:09.979Z</time></trkpt><trkpt lat="45.74925587896644" lon="10.731005077942884"><ele>550.0</ele><time>2026-04-20T10:47:10.979Z</time></trkpt><trkpt lat="45.749115543113064" lon="10.731033280167459"><ele>550.0</ele><time>2026-04-20T10:47:11.979Z</time></trkpt><trkpt lat="45.748993538853945" lon="10.731054165532054"><ele>550.0</ele><time>2026-04-20T10:47:12.979Z</time></trkpt><trkpt lat="45.748867715027004" lon="10.73106273427464"><ele>550.0</ele><time>2026-04-20T10:47:13.979Z</time></trkpt><trkpt lat="45.74874406757963" lon="10.731037080493309"><ele>550.0</ele><time>2026-04-20T10:47:14.979Z</time></trkpt><trkpt lat="45.748631153100845" lon="10.731030532795135"><ele>550.0</ele><time>2026-04-20T10:47:15.979Z</time></trkpt><trkpt lat="45.748526754757094" lon="10.730984218519856"><ele>550.0</ele><time>2026-04-20T10:47:16.979Z</time></trkpt><trkpt lat="45.748424264252996" lon="10.731020019031774"><ele>548.6</ele><time>2026-04-20T10:47:17.979Z</time></trkpt><trkpt lat="45.74835770820195" lon="10.731102867664653"><ele>547.2</ele><time>2026-04-20T10:47:18.979Z</time></trkpt><trkpt lat="45.74827068763403" lon="10.731210016384448"><ele>545.8</ele><time>2026-04-20T10:47:19.979Z</time></trkpt><trkpt lat="45.74818956184025" lon="10.731317350572539"><ele>544.4</ele><time>2026-04-20T10:47:20.979Z</time></trkpt><trkpt lat="45.74809122153235" lon="10.731425248534109"><ele>543.0</ele><time>2026-04-20T10:47:21.979Z</time></trkpt><trkpt lat="45.74797758191259" lon="10.7315075527496"><ele>543.0</ele><time>2026-04-20T10:47:22.979Z</time></trkpt><trkpt lat="45.74784115933591" lon="10.731555205312612"><ele>543.0</ele><time>2026-04-20T10:47:23.979Z</time></trkpt><trkpt lat="45.747697463184295" lon="10.731603319126608"><ele>543.0</ele><time>2026-04-20T10:47:24.979Z</time></trkpt><trkpt lat="45.74754887753694" lon="10.731637891436124"><ele>543.0</ele><time>2026-04-20T10:47:25.979Z</time></trkpt><trkpt lat="45.74739716520851" lon="10.731654888465801"><ele>548.3333333333334</ele><time>2026-04-20T10:47:26.979Z</time></trkpt><trkpt lat="45.74724426290612" lon="10.731665793434823"><ele>553.6666666666667</ele><time>2026-04-20T10:47:27.979Z</time></trkpt><trkpt lat="45.74709176563105" lon="10.731676699509414"><ele>559.0</ele><time>2026-04-20T10:47:28.979Z</time></trkpt><trkpt lat="45.74693182392588" lon="10.731691777285077"><ele>562.6666666666667</ele><time>2026-04-20T10:47:29.979Z</time></trkpt><trkpt lat="45.74677174885" lon="10.731710097205696"><ele>566.3333333333334</ele><time>2026-04-20T10:47:30.979Z</time></trkpt><trkpt lat="45.746610667985706" lon="10.731737878714501"><ele>570.0</ele><time>2026-04-20T10:47:31.979Z</time></trkpt><trkpt lat="45.74645930866304" lon="10.731798506961843"><ele>570.0</ele><time>2026-04-20T10:47:32.979Z</time></trkpt><trkpt lat="45.74632434002851" lon="10.731915751398809"><ele>570.0</ele><time>2026-04-20T10:47:33.979Z</time></trkpt><trkpt lat="45.74619733490428" lon="10.732018401251608"><ele>570.0</ele><time>2026-04-20T10:47:34.979Z</time></trkpt><trkpt lat="45.746077118791" lon="10.732111271447387"><ele>570.0</ele><time>2026-04-20T10:47:35.979Z</time></trkpt><trkpt lat="45.745942513134835" lon="10.732170078906115"><ele>570.0</ele><time>2026-04-20T10:47:36.979Z</time></trkpt><trkpt lat="45.745797188281294" lon="10.732179128830955"><ele>570.0</ele><time>2026-04-20T10:47:37.979Z</time></trkpt><trkpt lat="45.74564670832783" lon="10.732177942552054"><ele>570.0</ele><time>2026-04-20T10:47:38.979Z</time></trkpt><trkpt lat="45.74549193789463" lon="10.73217964285668"><ele>570.0</ele><time>2026-04-20T10:47:39.979Z</time></trkpt><trkpt lat="45.74533134293426" lon="10.732181882887629"><ele>570.0</ele><time>2026-04-20T10:47:40.978Z</time></trkpt><trkpt lat="45.7451603934866" lon="10.73218598503418"><ele>570.0</ele><time>2026-04-20T10:47:41.978Z</time></trkpt><trkpt lat="45.74499634832591" lon="10.732186916604856"><ele>573.6666666666666</ele><time>2026-04-20T10:47:42.978Z</time></trkpt><trkpt lat="45.74482844955311" lon="10.732177325875583"><ele>577.3333333333333</ele><time>2026-04-20T10:47:43.978Z</time></trkpt><trkpt lat="45.74466298107649" lon="10.732159482665502"><ele>581.0</ele><time>2026-04-20T10:47:44.978Z</time></trkpt><trkpt lat="45.744499220825084" lon="10.73214259646218"><ele>584.6666666666666</ele><time>2026-04-20T10:47:45.978Z</time></trkpt><trkpt lat="45.74433827465453" lon="10.732121141074591"><ele>588.3333333333334</ele><time>2026-04-20T10:47:46.978Z</time></trkpt><trkpt lat="45.74418246230768" lon="10.732098016837966"><ele>592.0</ele><time>2026-04-20T10:47:47.978Z</time></trkpt><trkpt lat="45.744043897124826" lon="10.732059177985374"><ele>592.0</ele><time>2026-04-20T10:47:48.978Z</time></trkpt><trkpt lat="45.74388678408632" lon="10.732002137124846"><ele>592.0</ele><time>2026-04-20T10:47:49.978Z</time></trkpt><trkpt lat="45.74373878777679" lon="10.73190072196851"><ele>592.0</ele><time>2026-04-20T10:47:50.978Z</time></trkpt><trkpt lat="45.74358264502597" lon="10.73177775515308"><ele>590.6666666666667</ele><time>2026-04-20T10:47:51.978Z</time></trkpt><trkpt lat="45.74342612713318" lon="10.731658908519432"><ele>589.3333333333334</ele><time>2026-04-20T10:47:52.978Z</time></trkpt><trkpt lat="45.7432859783001" lon="10.731568837820248"><ele>588.0</ele><time>2026-04-20T10:47:53.978Z</time></trkpt><trkpt lat="45.74316798339747" lon="10.731478383675737"><ele>588.0</ele><time>2026-04-20T10:47:54.978Z</time></trkpt><trkpt lat="45.743047299056414" lon="10.731400179259692"><ele>588.0</ele><time>2026-04-20T10:47:55.978Z</time></trkpt><trkpt lat="45.74292319887425" lon="10.731302756811749"><ele>588.0</ele><time>2026-04-20T10:47:56.978Z</time></trkpt><trkpt lat="45.74279927947733" lon="10.731173442252707"><ele>588.0</ele><time>2026-04-20T10:47:57.978Z</time></trkpt><trkpt lat="45.74267582205072" lon="10.731026940658097"><ele>587.25</ele><time>2026-04-20T10:47:58.978Z</time></trkpt><trkpt lat="45.74254349154955" lon="10.730884994844303"><ele>586.5</ele><time>2026-04-20T10:47:59.978Z</time></trkpt><trkpt lat="45.742438174315595" lon="10.730753314393178"><ele>585.75</ele><time>2026-04-20T10:48:00.978Z</time></trkpt><trkpt lat="45.74234182828175" lon="10.730626116616152"><ele>585.0</ele><time>2026-04-20T10:48:01.978Z</time></trkpt><trkpt lat="45.74223735699883" lon="10.730477890092459"><ele>585.0</ele><time>2026-04-20T10:48:02.978Z</time></trkpt><trkpt lat="45.74213608600766" lon="10.730302192005903"><ele>585.0</ele><time>2026-04-20T10:48:03.978Z</time></trkpt><trkpt lat="45.74203886448934" lon="10.730114634897433"><ele>585.0</ele><time>2026-04-20T10:48:04.978Z</time></trkpt><trkpt lat="45.741940698473655" lon="10.729925175294822"><ele>585.5</ele><time>2026-04-20T10:48:05.978Z</time></trkpt><trkpt lat="45.7418407691215" lon="10.729741158428476"><ele>586.0</ele><time>2026-04-20T10:48:06.978Z</time></trkpt><trkpt lat="45.74177351660219" lon="10.729550259850495"><ele>586.5</ele><time>2026-04-20T10:48:07.978Z</time></trkpt><trkpt lat="45.74169604569682" lon="10.729389134220279"><ele>587.0</ele><time>2026-04-20T10:48:08.978Z</time></trkpt><trkpt lat="45.74162104447915" lon="10.729224652226879"><ele>587.0</ele><time>2026-04-20T10:48:09.978Z</time></trkpt><trkpt lat="45.741521183196596" lon="10.729100697462389"><ele>587.0</ele><time>2026-04-20T10:48:10.978Z</time></trkpt><trkpt lat="45.74139073503962" lon="10.728998540386831"><ele>587.0</ele><time>2026-04-20T10:48:11.978Z</time></trkpt><trkpt lat="45.74123331104703" lon="10.728933557506897"><ele>587.0</ele><time>2026-04-20T10:48:12.978Z</time></trkpt><trkpt lat="45.74106212137601" lon="10.72888059171386"><ele>578.6666666666666</ele><time>2026-04-20T10:48:13.978Z</time></trkpt><trkpt lat="45.74088758009832" lon="10.728855466349229"><ele>570.3333333333334</ele><time>2026-04-20T10:48:14.978Z</time></trkpt><trkpt lat="45.7407199440558" lon="10.728811982683705"><ele>562.0</ele><time>2026-04-20T10:48:15.978Z</time></trkpt><trkpt lat="45.74055980491088" lon="10.728785191514808"><ele>562.0</ele><time>2026-04-20T10:48:16.978Z</time></trkpt><trkpt lat="45.74041714028875" lon="10.728757146294424"><ele>562.0</ele><time>2026-04-20T10:48:17.978Z</time></trkpt><trkpt lat="45.74027989599924" lon="10.72868719917481"><ele>562.0</ele><time>2026-04-20T10:48:18.978Z</time></trkpt><trkpt lat="45.74015495009156" lon="10.728587450381767"><ele>562.0</ele><time>2026-04-20T10:48:19.978Z</time></trkpt><trkpt lat="45.74004039731721" lon="10.728455163634639"><ele>565.75</ele><time>2026-04-20T10:48:20.978Z</time></trkpt><trkpt lat="45.73995437577211" lon="10.728291432436906"><ele>569.5</ele><time>2026-04-20T10:48:21.978Z</time></trkpt><trkpt lat="45.73988942749418" lon="10.728113733410117"><ele>573.25</ele><time>2026-04-20T10:48:22.978Z</time></trkpt><trkpt lat="45.73983574948733" lon="10.727926529644805"><ele>577.0</ele><time>2026-04-20T10:48:23.978Z</time></trkpt><trkpt lat="45.73979796160933" lon="10.727731126837645"><ele>580.25</ele><time>2026-04-20T10:48:24.978Z</time></trkpt><trkpt lat="45.739771614667596" lon="10.727542557096253"><ele>583.5</ele><time>2026-04-20T10:48:25.978Z</time></trkpt><trkpt lat="45.739742946364736" lon="10.727340520581865"><ele>586.75</ele><time>2026-04-20T10:48:26.978Z</time></trkpt><trkpt lat="45.7397067349151" lon="10.727135928805065"><ele>590.0</ele><time>2026-04-20T10:48:27.978Z</time></trkpt><trkpt lat="45.739664068245226" lon="10.726928676139497"><ele>591.0</ele><time>2026-04-20T10:48:28.978Z</time></trkpt><trkpt lat="45.7395923603288" lon="10.72672111212908"><ele>592.0</ele><time>2026-04-20T10:48:29.978Z</time></trkpt><trkpt lat="45.739529949464774" lon="10.726541081445808"><ele>593.0</ele><time>2026-04-20T10:48:30.978Z</time></trkpt><trkpt lat="45.73946662253856" lon="10.726362746341573"><ele>594.0</ele><time>2026-04-20T10:48:31.978Z</time></trkpt><trkpt lat="45.73940146574959" lon="10.726168232555876"><ele>588.25</ele><time>2026-04-20T10:48:32.978Z</time></trkpt><trkpt lat="45.73933834925294" lon="10.725985905034365"><ele>582.5</ele><time>2026-04-20T10:48:33.979Z</time></trkpt><trkpt lat="45.73926887495504" lon="10.725791635624832"><ele>576.75</ele><time>2026-04-20T10:48:34.979Z</time></trkpt><trkpt lat="45.73920973341185" lon="10.725617322240693"><ele>571.0</ele><time>2026-04-20T10:48:35.978Z</time></trkpt><trkpt lat="45.739148778127614" lon="10.725448763610359"><ele>571.0</ele><time>2026-04-20T10:48:36.978Z</time></trkpt><trkpt lat="45.739086147187784" lon="10.725267656587768"><ele>571.0</ele><time>2026-04-20T10:48:37.978Z</time></trkpt><trkpt lat="45.73902666676032" lon="10.725079783542027"><ele>571.0</ele><time>2026-04-20T10:48:38.978Z</time></trkpt><trkpt lat="45.738978710499396" lon="10.724881963649466"><ele>571.0</ele><time>2026-04-20T10:48:39.978Z</time></trkpt><trkpt lat="45.73894791903329" lon="10.72469870584791"><ele>572.4</ele><time>2026-04-20T10:48:40.978Z</time></trkpt><trkpt lat="45.738921588726065" lon="10.72453820493864"><ele>573.8</ele><time>2026-04-20T10:48:41.979Z</time></trkpt><trkpt lat="45.73891372789731" lon="10.724392368485463"><ele>575.1999999999999</ele><time>2026-04-20T10:48:42.978Z</time></trkpt><trkpt lat="45.73894463493424" lon="10.724272075794037"><ele>576.6</ele><time>2026-04-20T10:48:43.978Z</time></trkpt><trkpt lat="45.73902339028591" lon="10.724179360662422"><ele>578.0</ele><time>2026-04-20T10:48:44.978Z</time></trkpt><trkpt lat="45.739089259331294" lon="10.724069571348032"><ele>578.5</ele><time>2026-04-20T10:48:45.979Z</time></trkpt><trkpt lat="45.73912469959153" lon="10.723978724462649"><ele>579.0</ele><time>2026-04-20T10:48:46.979Z</time></trkpt><trkpt lat="45.73911545767111" lon="10.723873701404765"><ele>579.5</ele><time>2026-04-20T10:48:47.979Z</time></trkpt><trkpt lat="45.73909296367313" lon="10.723762713615415"><ele>580.0</ele><time>2026-04-20T10:48:48.979Z</time></trkpt><trkpt lat="45.73902411036223" lon="10.723662422203107"><ele>580.5</ele><time>2026-04-20T10:48:49.979Z</time></trkpt><trkpt lat="45.7389299341052" lon="10.723583810360058"><ele>581.0</ele><time>2026-04-20T10:48:50.979Z</time></trkpt><trkpt lat="45.73883383874454" lon="10.72349393563668"><ele>581.4</ele><time>2026-04-20T10:48:51.979Z</time></trkpt><trkpt lat="45.73874938074486" lon="10.723412150898938"><ele>581.8</ele><time>2026-04-20T10:48:52.979Z</time></trkpt><trkpt lat="45.738668451860214" lon="10.723331621437826"><ele>582.1999999999999</ele><time>2026-04-20T10:48:53.979Z</time></trkpt><trkpt lat="45.73860676357096" lon="10.723238817177396"><ele>582.6</ele><time>2026-04-20T10:48:54.979Z</time></trkpt><trkpt lat="45.73856087026804" lon="10.723115410731097"><ele>583.0</ele><time>2026-04-20T10:48:55.979Z</time></trkpt><trkpt lat="45.73854174601425" lon="10.722951207831214"><ele>582.8</ele><time>2026-04-20T10:48:56.979Z</time></trkpt><trkpt lat="45.73852043008258" lon="10.722775609037548"><ele>582.5999999999999</ele><time>2026-04-20T10:48:57.979Z</time></trkpt><trkpt lat="45.73852492160045" lon="10.722616179464781"><ele>582.4000000000001</ele><time>2026-04-20T10:48:58.979Z</time></trkpt><trkpt lat="45.738520713260634" lon="10.722472188751137"><ele>582.2</ele><time>2026-04-20T10:48:59.979Z</time></trkpt><trkpt lat="45.73853904323116" lon="10.72234400171975"><ele>582.0</ele><time>2026-04-20T10:49:00.979Z</time></trkpt><trkpt lat="45.73856743011782" lon="10.722228284502858"><ele>582.0</ele><time>2026-04-20T10:49:01.979Z</time></trkpt><trkpt lat="45.73861227408325" lon="10.722148133717958"><ele>582.0</ele><time>2026-04-20T10:49:02.979Z</time></trkpt><trkpt lat="45.738605403051515" lon="10.721991028666682"><ele>582.0</ele><time>2026-04-20T10:49:04.979Z</time></trkpt><trkpt lat="45.73855392247999" lon="10.721938649027711"><ele>582.0</ele><time>2026-04-20T10:49:05.979Z</time></trkpt><trkpt lat="45.73844444697611" lon="10.721972539593677"><ele>582.0</ele><time>2026-04-20T10:49:07.979Z</time></trkpt><trkpt lat="45.73839670582892" lon="10.722046853574586"><ele>582.0</ele><time>2026-04-20T10:49:08.979Z</time></trkpt><trkpt lat="45.738411826635996" lon="10.722172179331377"><ele>578.75</ele><time>2026-04-20T10:49:09.979Z</time></trkpt><trkpt lat="45.73841725975579" lon="10.722318025495479"><ele>575.5</ele><time>2026-04-20T10:49:10.979Z</time></trkpt><trkpt lat="45.738416321433434" lon="10.722482092497412"><ele>572.25</ele><time>2026-04-20T10:49:11.979Z</time></trkpt><trkpt lat="45.73841556609816" lon="10.722686537861666"><ele>569.0</ele><time>2026-04-20T10:49:12.979Z</time></trkpt><trkpt lat="45.738411761363416" lon="10.722869627314227"><ele>568.0</ele><time>2026-04-20T10:49:13.979Z</time></trkpt><trkpt lat="45.73841754300934" lon="10.723029694504307"><ele>567.0</ele><time>2026-04-20T10:49:14.979Z</time></trkpt><trkpt lat="45.73842553812744" lon="10.723175335629467"><ele>566.0</ele><time>2026-04-20T10:49:15.979Z</time></trkpt><trkpt lat="45.73844939083224" lon="10.723323155822804"><ele>565.0</ele><time>2026-04-20T10:49:16.979Z</time></trkpt><trkpt lat="45.738506039985765" lon="10.723452811115273"><ele>564.0</ele><time>2026-04-20T10:49:17.979Z</time></trkpt><trkpt lat="45.73856386988964" lon="10.723575593898934"><ele>561.8</ele><time>2026-04-20T10:49:18.979Z</time></trkpt><trkpt lat="45.738602001621466" lon="10.723707856899642"><ele>559.5999999999999</ele><time>2026-04-20T10:49:19.979Z</time></trkpt><trkpt lat="45.738614056738804" lon="10.723853510162206"><ele>557.4</ele><time>2026-04-20T10:49:20.979Z</time></trkpt><trkpt lat="45.738591876522044" lon="10.724007337509185"><ele>555.1999999999999</ele><time>2026-04-20T10:49:21.979Z</time></trkpt><trkpt lat="45.73852088410511" lon="10.724130202082225"><ele>553.0</ele><time>2026-04-20T10:49:22.979Z</time></trkpt><trkpt lat="45.73845918922974" lon="10.724278912072721"><ele>551.25</ele><time>2026-04-20T10:49:23.979Z</time></trkpt><trkpt lat="45.73844800547987" lon="10.72446861838974"><ele>549.5</ele><time>2026-04-20T10:49:24.979Z</time></trkpt><trkpt lat="45.73848141136497" lon="10.724647893194236"><ele>547.75</ele><time>2026-04-20T10:49:25.979Z</time></trkpt><trkpt lat="45.73848251426921" lon="10.724842594781824"><ele>546.0</ele><time>2026-04-20T10:49:26.979Z</time></trkpt><trkpt lat="45.738467008064035" lon="10.725030291468638"><ele>546.0</ele><time>2026-04-20T10:49:27.979Z</time></trkpt><trkpt lat="45.73846898660199" lon="10.72520492686458"><ele>546.0</ele><time>2026-04-20T10:49:28.979Z</time></trkpt><trkpt lat="45.738501906145466" lon="10.725375762212353"><ele>546.0</ele><time>2026-04-20T10:49:29.979Z</time></trkpt><trkpt lat="45.738558318979386" lon="10.725515011367818"><ele>546.0</ele><time>2026-04-20T10:49:30.979Z</time></trkpt><trkpt lat="45.73859338837867" lon="10.725651883419598"><ele>544.8</ele><time>2026-04-20T10:49:31.979Z</time></trkpt><trkpt lat="45.73858975670662" lon="10.7257477039378"><ele>543.6</ele><time>2026-04-20T10:49:32.979Z</time></trkpt><trkpt lat="45.73855743483188" lon="10.725843550630652"><ele>542.4</ele><time>2026-04-20T10:49:33.979Z</time></trkpt><trkpt lat="45.73848081101375" lon="10.725952658507396"><ele>541.2</ele><time>2026-04-20T10:49:34.979Z</time></trkpt><trkpt lat="45.73840243841671" lon="10.72610074621408"><ele>540.0</ele><time>2026-04-20T10:49:35.979Z</time></trkpt><trkpt lat="45.738343054668846" lon="10.72626439806699"><ele>539.5</ele><time>2026-04-20T10:49:36.979Z</time></trkpt><trkpt lat="45.738317582939494" lon="10.726449652121357"><ele>539.0</ele><time>2026-04-20T10:49:37.979Z</time></trkpt><trkpt lat="45.73832525481823" lon="10.726651547401174"><ele>538.5</ele><time>2026-04-20T10:49:38.979Z</time></trkpt><trkpt lat="45.73836527428451" lon="10.726861523342505"><ele>538.0</ele><time>2026-04-20T10:49:39.979Z</time></trkpt><trkpt lat="45.738407639739336" lon="10.727087701218398"><ele>534.3333333333334</ele><time>2026-04-20T10:49:40.979Z</time></trkpt><trkpt lat="45.73845307765314" lon="10.727331575004076"><ele>530.6666666666666</ele><time>2026-04-20T10:49:41.979Z</time></trkpt><trkpt lat="45.73849492229565" lon="10.727556012992522"><ele>527.0</ele><time>2026-04-20T10:49:42.979Z</time></trkpt><trkpt lat="45.7385302460303" lon="10.727745090955924"><ele>534.0</ele><time>2026-04-20T10:49:43.979Z</time></trkpt><trkpt lat="45.73856316818481" lon="10.727921314649679"><ele>541.0</ele><time>2026-04-20T10:49:44.979Z</time></trkpt><trkpt lat="45.7385921799621" lon="10.728077043867914"><ele>548.0</ele><time>2026-04-20T10:49:45.979Z</time></trkpt><trkpt lat="45.73861902689936" lon="10.728224018732437"><ele>555.0</ele><time>2026-04-20T10:49:46.979Z</time></trkpt><trkpt lat="45.73864445795071" lon="10.72836832781221"><ele>555.0</ele><time>2026-04-20T10:49:47.979Z</time></trkpt><trkpt lat="45.738668160459966" lon="10.728501436186994"><ele>555.0</ele><time>2026-04-20T10:49:48.979Z</time></trkpt><trkpt lat="45.73869591795736" lon="10.72864588702313"><ele>555.0</ele><time>2026-04-20T10:49:49.979Z</time></trkpt><trkpt lat="45.73872987373202" lon="10.728771931527866"><ele>555.0</ele><time>2026-04-20T10:49:50.979Z</time></trkpt><trkpt lat="45.738782223218024" lon="10.72888077851558"><ele>555.0</ele><time>2026-04-20T10:49:51.979Z</time></trkpt><trkpt lat="45.73885954841134" lon="10.72898682343903"><ele>548.5</ele><time>2026-04-20T10:49:52.979Z</time></trkpt><trkpt lat="45.738977193820126" lon="10.729062508533701"><ele>542.0</ele><time>2026-04-20T10:49:53.979Z</time></trkpt><trkpt lat="45.73910435570912" lon="10.7290953732819"><ele>535.5</ele><time>2026-04-20T10:49:54.979Z</time></trkpt><trkpt lat="45.73921863839545" lon="10.729122099312068"><ele>529.0</ele><time>2026-04-20T10:49:55.979Z</time></trkpt><trkpt lat="45.73932223199858" lon="10.729155112866085"><ele>530.8333333333334</ele><time>2026-04-20T10:49:56.979Z</time></trkpt><trkpt lat="45.73941749557128" lon="10.729199511733489"><ele>532.6666666666667</ele><time>2026-04-20T10:49:57.979Z</time></trkpt><trkpt lat="45.73950729618017" lon="10.72924587425478"><ele>534.5</ele><time>2026-04-20T10:49:58.979Z</time></trkpt><trkpt lat="45.73958169079537" lon="10.729311784466622"><ele>536.3333333333334</ele><time>2026-04-20T10:49:59.979Z</time></trkpt><trkpt lat="45.73964028629075" lon="10.729386789771583"><ele>538.1666666666666</ele><time>2026-04-20T10:50:00.979Z</time></trkpt><trkpt lat="45.739672195204484" lon="10.729473918564517"><ele>540.0</ele><time>2026-04-20T10:50:01.979Z</time></trkpt><trkpt lat="45.73967814893556" lon="10.729576533506512"><ele>540.0</ele><time>2026-04-20T10:50:02.979Z</time></trkpt><trkpt lat="45.7396446226606" lon="10.729669809985861"><ele>540.0</ele><time>2026-04-20T10:50:03.979Z</time></trkpt><trkpt lat="45.7395798455213" lon="10.729716050132405"><ele>540.0</ele><time>2026-04-20T10:50:04.979Z</time></trkpt><trkpt lat="45.7395091187149" lon="10.729712359755359"><ele>540.0</ele><time>2026-04-20T10:50:05.979Z</time></trkpt><trkpt lat="45.7394386656561" lon="10.729680361259065"><ele>540.0</ele><time>2026-04-20T10:50:06.979Z</time></trkpt><trkpt lat="45.739369592943994" lon="10.729599600794346"><ele>540.0</ele><time>2026-04-20T10:50:07.979Z</time></trkpt><trkpt lat="45.73929255618551" lon="10.729509407158575"><ele>540.0</ele><time>2026-04-20T10:50:08.979Z</time></trkpt><trkpt lat="45.73919140203479" lon="10.72943470547411"><ele>540.0</ele><time>2026-04-20T10:50:09.979Z</time></trkpt><trkpt lat="45.73908343558978" lon="10.729380289187667"><ele>540.0</ele><time>2026-04-20T10:50:10.979Z</time></trkpt><trkpt lat="45.738981012775994" lon="10.729370057978668"><ele>540.0</ele><time>2026-04-20T10:50:11.979Z</time></trkpt><trkpt lat="45.7388830983217" lon="10.729383927646534"><ele>540.0</ele><time>2026-04-20T10:50:12.979Z</time></trkpt><trkpt lat="45.738773909040155" lon="10.729417509022657"><ele>540.0</ele><time>2026-04-20T10:50:13.979Z</time></trkpt><trkpt lat="45.73867229092224" lon="10.729497845001701"><ele>540.0</ele><time>2026-04-20T10:50:14.979Z</time></trkpt><trkpt lat="45.738572769610776" lon="10.729589071369787"><ele>540.0</ele><time>2026-04-20T10:50:15.979Z</time></trkpt><trkpt lat="45.73848736699229" lon="10.729670010687299"><ele>540.0</ele><time>2026-04-20T10:50:16.979Z</time></trkpt><trkpt lat="45.73840819554811" lon="10.729755914130731"><ele>540.0</ele><time>2026-04-20T10:50:17.979Z</time></trkpt><trkpt lat="45.73835033806704" lon="10.729847681444369"><ele>534.8333333333334</ele><time>2026-04-20T10:50:18.979Z</time></trkpt><trkpt lat="45.73830591666807" lon="10.729929672077203"><ele>529.6666666666666</ele><time>2026-04-20T10:50:19.979Z</time></trkpt><trkpt lat="45.738268082338784" lon="10.730002861625293"><ele>524.5</ele><time>2026-04-20T10:50:20.979Z</time></trkpt><trkpt lat="45.738182437854974" lon="10.730094053891113"><ele>519.3333333333333</ele><time>2026-04-20T10:50:22.979Z</time></trkpt><trkpt lat="45.73812319360888" lon="10.730032972345583"><ele>514.1666666666666</ele><time>2026-04-20T10:50:23.979Z</time></trkpt><trkpt lat="45.73810232231036" lon="10.729930851106278"><ele>509.0</ele><time>2026-04-20T10:50:24.979Z</time></trkpt><trkpt lat="45.738133187938665" lon="10.729839647575663"><ele>508.99999999999994</ele><time>2026-04-20T10:50:25.979Z</time></trkpt><trkpt lat="45.73819518744481" lon="10.729792414412975"><ele>509.0</ele><time>2026-04-20T10:50:26.979Z</time></trkpt><trkpt lat="45.73826111628824" lon="10.729768575472125"><ele>508.99999999999994</ele><time>2026-04-20T10:50:27.979Z</time></trkpt><trkpt lat="45.738322597703046" lon="10.729737924522329"><ele>508.99999999999994</ele><time>2026-04-20T10:50:28.979Z</time></trkpt><trkpt lat="45.73837935712555" lon="10.729684195030169"><ele>509.0</ele><time>2026-04-20T10:50:29.979Z</time></trkpt><trkpt lat="45.73840900942054" lon="10.729602824440722"><ele>508.99999999999994</ele><time>2026-04-20T10:50:30.979Z</time></trkpt><trkpt lat="45.73840238883827" lon="10.729510741068154"><ele>508.99999999999994</ele><time>2026-04-20T10:50:31.979Z</time></trkpt><trkpt lat="45.73830353264256" lon="10.729306166844102"><ele>509.2</ele><time>2026-04-20T10:50:33.979Z</time></trkpt><trkpt lat="45.738194170616396" lon="10.729291775356643"><ele>509.4</ele><time>2026-04-20T10:50:34.979Z</time></trkpt><trkpt lat="45.7381199320064" lon="10.729194367737115"><ele>509.6</ele><time>2026-04-20T10:50:35.979Z</time></trkpt><trkpt lat="45.738075885742575" lon="10.729070628331053"><ele>509.8</ele><time>2026-04-20T10:50:36.979Z</time></trkpt><trkpt lat="45.738052122238834" lon="10.728932725773289"><ele>510.0</ele><time>2026-04-20T10:50:37.979Z</time></trkpt><trkpt lat="45.73805249329063" lon="10.728787954152294"><ele>510.0</ele><time>2026-04-20T10:50:38.978Z</time></trkpt><trkpt lat="45.73804588311828" lon="10.728623925771817"><ele>510.0</ele><time>2026-04-20T10:50:39.979Z</time></trkpt><trkpt lat="45.73803617902044" lon="10.728437696215478"><ele>510.0</ele><time>2026-04-20T10:50:40.979Z</time></trkpt><trkpt lat="45.737967316690074" lon="10.728209136158592"><ele>510.0</ele><time>2026-04-20T10:50:41.979Z</time></trkpt><trkpt lat="45.73789039275703" lon="10.727967104732075"><ele>515.6666666666666</ele><time>2026-04-20T10:50:42.978Z</time></trkpt><trkpt lat="45.7377966552984" lon="10.727671990934388"><ele>521.3333333333333</ele><time>2026-04-20T10:50:43.978Z</time></trkpt><trkpt lat="45.737704011334934" lon="10.727385875209976"><ele>527.0</ele><time>2026-04-20T10:50:44.978Z</time></trkpt><trkpt lat="45.73761988078038" lon="10.727128348865158"><ele>515.3333333333333</ele><time>2026-04-20T10:50:45.978Z</time></trkpt><trkpt lat="45.73753895798478" lon="10.726912067195116"><ele>503.66666666666663</ele><time>2026-04-20T10:50:46.978Z</time></trkpt><trkpt lat="45.737460876421366" lon="10.726713027146607"><ele>492.0</ele><time>2026-04-20T10:50:47.978Z</time></trkpt><trkpt lat="45.737390126812315" lon="10.726493016163412"><ele>492.0</ele><time>2026-04-20T10:50:48.979Z</time></trkpt><trkpt lat="45.73734869390025" lon="10.726266651163582"><ele>492.0</ele><time>2026-04-20T10:50:49.979Z</time></trkpt><trkpt lat="45.73730955120349" lon="10.726040491158106"><ele>492.0</ele><time>2026-04-20T10:50:50.978Z</time></trkpt><trkpt lat="45.73726689552045" lon="10.725799760256937"><ele>494.33333333333337</ele><time>2026-04-20T10:50:51.978Z</time></trkpt><trkpt lat="45.73721633672148" lon="10.725571009763923"><ele>496.6666666666667</ele><time>2026-04-20T10:50:52.978Z</time></trkpt><trkpt lat="45.73716263151461" lon="10.725344785124076"><ele>499.0</ele><time>2026-04-20T10:50:53.978Z</time></trkpt><trkpt lat="45.73710628600917" lon="10.725147163819726"><ele>500.5</ele><time>2026-04-20T10:50:54.978Z</time></trkpt><trkpt lat="45.73705337668979" lon="10.724947099255337"><ele>502.0</ele><time>2026-04-20T10:50:55.978Z</time></trkpt><trkpt lat="45.73700153224847" lon="10.724760302586848"><ele>503.5</ele><time>2026-04-20T10:50:56.978Z</time></trkpt><trkpt lat="45.73694866027346" lon="10.72457587454797"><ele>505.0</ele><time>2026-04-20T10:50:57.978Z</time></trkpt><trkpt lat="45.736882964793004" lon="10.724392660592306"><ele>494.33333333333337</ele><time>2026-04-20T10:50:58.978Z</time></trkpt><trkpt lat="45.73678264995081" lon="10.72423550926555"><ele>483.66666666666663</ele><time>2026-04-20T10:50:59.978Z</time></trkpt><trkpt lat="45.73666179009596" lon="10.724097646724633"><ele>473.0</ele><time>2026-04-20T10:51:00.978Z</time></trkpt><trkpt lat="45.73651896856169" lon="10.72396702297143"><ele>473.0</ele><time>2026-04-20T10:51:01.978Z</time></trkpt><trkpt lat="45.736363182152914" lon="10.723853127436445"><ele>473.0</ele><time>2026-04-20T10:51:02.978Z</time></trkpt><trkpt lat="45.73623887338429" lon="10.723735043290343"><ele>473.0</ele><time>2026-04-20T10:51:03.978Z</time></trkpt><trkpt lat="45.73610721580545" lon="10.723603368179807"><ele>469.66666666666663</ele><time>2026-04-20T10:51:04.978Z</time></trkpt><trkpt lat="45.73598809276469" lon="10.723448484554224"><ele>466.33333333333337</ele><time>2026-04-20T10:51:05.978Z</time></trkpt><trkpt lat="45.73588959828434" lon="10.723289213045348"><ele>463.0</ele><time>2026-04-20T10:51:06.978Z</time></trkpt><trkpt lat="45.73579976853417" lon="10.723129791625793"><ele>463.0</ele><time>2026-04-20T10:51:07.978Z</time></trkpt><trkpt lat="45.735699723261575" lon="10.722962353837476"><ele>463.0</ele><time>2026-04-20T10:51:08.978Z</time></trkpt><trkpt lat="45.73561384508758" lon="10.722777391461268"><ele>463.0</ele><time>2026-04-20T10:51:09.978Z</time></trkpt><trkpt lat="45.73551052050755" lon="10.722628899688045"><ele>464.5</ele><time>2026-04-20T10:51:10.978Z</time></trkpt><trkpt lat="45.73542600934431" lon="10.722480954410747"><ele>466.0</ele><time>2026-04-20T10:51:11.978Z</time></trkpt><trkpt lat="45.73534039062495" lon="10.722332981563705"><ele>467.5</ele><time>2026-04-20T10:51:12.978Z</time></trkpt><trkpt lat="45.73525799229453" lon="10.722169046233558"><ele>469.0</ele><time>2026-04-20T10:51:13.978Z</time></trkpt><trkpt lat="45.73519018270378" lon="10.721970749379086"><ele>461.33333333333337</ele><time>2026-04-20T10:51:14.978Z</time></trkpt><trkpt lat="45.7351629415752" lon="10.721739435711243"><ele>453.66666666666663</ele><time>2026-04-20T10:51:15.978Z</time></trkpt><trkpt lat="45.7351065937281" lon="10.721531124198345"><ele>446.0</ele><time>2026-04-20T10:51:16.978Z</time></trkpt><trkpt lat="45.735065252509465" lon="10.72133274788399"><ele>446.0</ele><time>2026-04-20T10:51:17.978Z</time></trkpt><trkpt lat="45.734993282384835" lon="10.72114415970305"><ele>446.0</ele><time>2026-04-20T10:51:18.978Z</time></trkpt><trkpt lat="45.73491480442707" lon="10.720938325106184"><ele>446.0</ele><time>2026-04-20T10:51:19.978Z</time></trkpt><trkpt lat="45.734813296258466" lon="10.720736405748175"><ele>447.66666666666663</ele><time>2026-04-20T10:51:20.978Z</time></trkpt><trkpt lat="45.73475634979741" lon="10.720504342914204"><ele>449.33333333333337</ele><time>2026-04-20T10:51:21.978Z</time></trkpt><trkpt lat="45.734690987142535" lon="10.720291299914122"><ele>451.0</ele><time>2026-04-20T10:51:22.978Z</time></trkpt><trkpt lat="45.73462941087615" lon="10.72007271320409"><ele>453.6666666666667</ele><time>2026-04-20T10:51:23.978Z</time></trkpt><trkpt lat="45.73457627944029" lon="10.719854561140632"><ele>456.33333333333337</ele><time>2026-04-20T10:51:24.978Z</time></trkpt><trkpt lat="45.73452973072407" lon="10.719629616032126"><ele>459.0</ele><time>2026-04-20T10:51:25.978Z</time></trkpt><trkpt lat="45.73448508847822" lon="10.719407548793969"><ele>459.25</ele><time>2026-04-20T10:51:26.978Z</time></trkpt><trkpt lat="45.734443013007336" lon="10.719184974600443"><ele>459.5</ele><time>2026-04-20T10:51:27.978Z</time></trkpt><trkpt lat="45.73440230937986" lon="10.718983367045478"><ele>459.75</ele><time>2026-04-20T10:51:28.978Z</time></trkpt><trkpt lat="45.734363923666045" lon="10.718804394126439"><ele>460.0</ele><time>2026-04-20T10:51:29.978Z</time></trkpt><trkpt lat="45.73433206383837" lon="10.71863811983993"><ele>458.4</ele><time>2026-04-20T10:51:30.978Z</time></trkpt><trkpt lat="45.7343131359612" lon="10.718496331981068"><ele>456.8</ele><time>2026-04-20T10:51:31.978Z</time></trkpt><trkpt lat="45.7343239074639" lon="10.718371970754305"><ele>455.20000000000005</ele><time>2026-04-20T10:51:32.978Z</time></trkpt><trkpt lat="45.73436732815284" lon="10.718262384383127"><ele>453.6</ele><time>2026-04-20T10:51:33.978Z</time></trkpt><trkpt lat="45.73444781253897" lon="10.718191120337801"><ele>452.0</ele><time>2026-04-20T10:51:34.978Z</time></trkpt><trkpt lat="45.73452921670193" lon="10.718167637735704"><ele>452.0</ele><time>2026-04-20T10:51:35.978Z</time></trkpt><trkpt lat="45.73461051430222" lon="10.718223569184852"><ele>452.00000000000006</ele><time>2026-04-20T10:51:36.978Z</time></trkpt><trkpt lat="45.734722464182326" lon="10.718289632289386"><ele>452.00000000000006</ele><time>2026-04-20T10:51:37.978Z</time></trkpt><trkpt lat="45.73483188744532" lon="10.718333187296082"><ele>452.0</ele><time>2026-04-20T10:51:38.978Z</time></trkpt><trkpt lat="45.734942222182134" lon="10.718290263477579"><ele>452.0</ele><time>2026-04-20T10:51:39.978Z</time></trkpt><trkpt lat="45.735035600546894" lon="10.718164924093314"><ele>452.0</ele><time>2026-04-20T10:51:40.978Z</time></trkpt><trkpt lat="45.73511369203238" lon="10.718006143924661"><ele>452.0</ele><time>2026-04-20T10:51:41.978Z</time></trkpt><trkpt lat="45.73515089244082" lon="10.717809083072925"><ele>452.0</ele><time>2026-04-20T10:51:42.978Z</time></trkpt><trkpt lat="45.735197049896016" lon="10.717657784625505"><ele>452.0</ele><time>2026-04-20T10:51:43.978Z</time></trkpt><trkpt lat="45.73523941101078" lon="10.717551438817692"><ele>448.5</ele><time>2026-04-20T10:51:44.978Z</time></trkpt><trkpt lat="45.73530857635225" lon="10.717483698629357"><ele>445.0</ele><time>2026-04-20T10:51:45.978Z</time></trkpt><trkpt lat="45.735410818911035" lon="10.717447948595211"><ele>441.5</ele><time>2026-04-20T10:51:46.978Z</time></trkpt><trkpt lat="45.73553675802886" lon="10.717440298222401"><ele>438.0</ele><time>2026-04-20T10:51:47.978Z</time></trkpt><trkpt lat="45.735687316254925" lon="10.71742844019814"><ele>438.0</ele><time>2026-04-20T10:51:48.978Z</time></trkpt><trkpt lat="45.73584102336322" lon="10.717413616699348"><ele>438.0</ele><time>2026-04-20T10:51:49.978Z</time></trkpt><trkpt lat="45.735997284991164" lon="10.717390430336188"><ele>438.0</ele><time>2026-04-20T10:51:50.978Z</time></trkpt><trkpt lat="45.73615398228393" lon="10.717323805395898"><ele>443.5</ele><time>2026-04-20T10:51:51.978Z</time></trkpt><trkpt lat="45.736300789571345" lon="10.717206356304523"><ele>449.0</ele><time>2026-04-20T10:51:52.978Z</time></trkpt><trkpt lat="45.73641485518822" lon="10.717121578928797"><ele>454.5</ele><time>2026-04-20T10:51:53.978Z</time></trkpt><trkpt lat="45.73651978754366" lon="10.71708160348432"><ele>460.0</ele><time>2026-04-20T10:51:54.978Z</time></trkpt><trkpt lat="45.73662340640457" lon="10.717041824815452"><ele>460.00000000000006</ele><time>2026-04-20T10:51:55.978Z</time></trkpt><trkpt lat="45.73670633250598" lon="10.716988207845048"><ele>460.0</ele><time>2026-04-20T10:51:56.978Z</time></trkpt><trkpt lat="45.73672067398696" lon="10.716854520728283"><ele>460.0</ele><time>2026-04-20T10:51:57.978Z</time></trkpt><trkpt lat="45.73669335192042" lon="10.716733056561921"><ele>460.0</ele><time>2026-04-20T10:51:59.978Z</time></trkpt><trkpt lat="45.73662932361103" lon="10.716701953852276"><ele>460.00000000000006</ele><time>2026-04-20T10:52:00.978Z</time></trkpt><trkpt lat="45.7365243192215" lon="10.716689948521898"><ele>460.0</ele><time>2026-04-20T10:52:01.978Z</time></trkpt><trkpt lat="45.73643359873288" lon="10.716746709661178"><ele>456.25</ele><time>2026-04-20T10:52:02.978Z</time></trkpt><trkpt lat="45.736306244037166" lon="10.716809297800392"><ele>452.5</ele><time>2026-04-20T10:52:03.978Z</time></trkpt><trkpt lat="45.73616864486203" lon="10.716847855648687"><ele>448.75</ele><time>2026-04-20T10:52:04.978Z</time></trkpt><trkpt lat="45.736015650674005" lon="10.71684423913192"><ele>445.0</ele><time>2026-04-20T10:52:05.978Z</time></trkpt><trkpt lat="45.7358562382584" lon="10.716805801359422"><ele>442.75</ele><time>2026-04-20T10:52:06.978Z</time></trkpt><trkpt lat="45.73569276379337" lon="10.71675793121787"><ele>440.5</ele><time>2026-04-20T10:52:07.978Z</time></trkpt><trkpt lat="45.73555761043684" lon="10.716697768586723"><ele>438.25</ele><time>2026-04-20T10:52:08.978Z</time></trkpt><trkpt lat="45.73544430413706" lon="10.716617942428524"><ele>436.0</ele><time>2026-04-20T10:52:09.978Z</time></trkpt><trkpt lat="45.73531947746663" lon="10.7165109993432"><ele>427.33333333333337</ele><time>2026-04-20T10:52:10.978Z</time></trkpt><trkpt lat="45.73519125284282" lon="10.71637564550463"><ele>418.66666666666663</ele><time>2026-04-20T10:52:11.978Z</time></trkpt><trkpt lat="45.73505728226724" lon="10.716226190342184"><ele>410.0</ele><time>2026-04-20T10:52:12.978Z</time></trkpt><trkpt lat="45.73492663236104" lon="10.716085570350588"><ele>412.8</ele><time>2026-04-20T10:52:13.978Z</time></trkpt><trkpt lat="45.73481750000586" lon="10.715960000049773"><ele>415.6</ele><time>2026-04-20T10:52:14.978Z</time></trkpt><trkpt lat="45.73473417082937" lon="10.71585488911326"><ele>418.4</ele><time>2026-04-20T10:52:15.978Z</time></trkpt><trkpt lat="45.734679902852996" lon="10.715738555150843"><ele>421.2</ele><time>2026-04-20T10:52:16.978Z</time></trkpt><trkpt lat="45.73464815267127" lon="10.715636957161367"><ele>424.0</ele><time>2026-04-20T10:52:17.978Z</time></trkpt><trkpt lat="45.734671692252334" lon="10.715516067975544"><ele>424.0</ele><time>2026-04-20T10:52:18.978Z</time></trkpt><trkpt lat="45.73473504762549" lon="10.71540281009585"><ele>424.0</ele><time>2026-04-20T10:52:19.978Z</time></trkpt><trkpt lat="45.734799901219205" lon="10.715269382118612"><ele>424.0</ele><time>2026-04-20T10:52:20.978Z</time></trkpt><trkpt lat="45.73484825376637" lon="10.715144008171318"><ele>424.0</ele><time>2026-04-20T10:52:21.978Z</time></trkpt><trkpt lat="45.734856843680745" lon="10.71497801924503"><ele>424.0</ele><time>2026-04-20T10:52:22.978Z</time></trkpt><trkpt lat="45.73481045663199" lon="10.714838772684331"><ele>425.4</ele><time>2026-04-20T10:52:23.978Z</time></trkpt><trkpt lat="45.734700689543594" lon="10.714742701069442"><ele>426.79999999999995</ele><time>2026-04-20T10:52:24.978Z</time></trkpt><trkpt lat="45.73458863208728" lon="10.714665847900825"><ele>428.20000000000005</ele><time>2026-04-20T10:52:25.978Z</time></trkpt><trkpt lat="45.73448948179713" lon="10.714613689052332"><ele>429.6</ele><time>2026-04-20T10:52:26.978Z</time></trkpt><trkpt lat="45.73440066668727" lon="10.714591268802899"><ele>431.0</ele><time>2026-04-20T10:52:27.978Z</time></trkpt><trkpt lat="45.73431690892441" lon="10.714660293099396"><ele>426.0</ele><time>2026-04-20T10:52:28.978Z</time></trkpt><trkpt lat="45.73423539628211" lon="10.714754353278167"><ele>421.0</ele><time>2026-04-20T10:52:29.978Z</time></trkpt><trkpt lat="45.734135126475266" lon="10.71488806649552"><ele>416.0</ele><time>2026-04-20T10:52:30.978Z</time></trkpt><trkpt lat="45.734021081507585" lon="10.715032028876099"><ele>411.0</ele><time>2026-04-20T10:52:31.978Z</time></trkpt><trkpt lat="45.73388693499192" lon="10.715150701097317"><ele>405.0</ele><time>2026-04-20T10:52:32.978Z</time></trkpt><trkpt lat="45.73373753676942" lon="10.71525077133576"><ele>399.0</ele><time>2026-04-20T10:52:33.978Z</time></trkpt><trkpt lat="45.733579702510475" lon="10.715361713176867"><ele>393.0</ele><time>2026-04-20T10:52:34.978Z</time></trkpt><trkpt lat="45.73341849523898" lon="10.715477593610322"><ele>392.5</ele><time>2026-04-20T10:52:35.978Z</time></trkpt><trkpt lat="45.73327449139023" lon="10.715555825734418"><ele>392.0</ele><time>2026-04-20T10:52:36.978Z</time></trkpt><trkpt lat="45.73314999673529" lon="10.715640283378578"><ele>391.5</ele><time>2026-04-20T10:52:37.978Z</time></trkpt><trkpt lat="45.73305205397618" lon="10.715742941351767"><ele>391.0</ele><time>2026-04-20T10:52:38.978Z</time></trkpt><trkpt lat="45.732986930229515" lon="10.71585105763992"><ele>391.0</ele><time>2026-04-20T10:52:39.978Z</time></trkpt><trkpt lat="45.73290215379975" lon="10.715945776890186"><ele>391.0</ele><time>2026-04-20T10:52:40.978Z</time></trkpt><trkpt lat="45.73277968576298" lon="10.715957819951411"><ele>391.0</ele><time>2026-04-20T10:52:41.978Z</time></trkpt><trkpt lat="45.73264661463695" lon="10.715988611680038"><ele>391.0</ele><time>2026-04-20T10:52:42.978Z</time></trkpt><trkpt lat="45.73250776568855" lon="10.715983308838219"><ele>392.25</ele><time>2026-04-20T10:52:43.978Z</time></trkpt><trkpt lat="45.732387590487896" lon="10.71604162117107"><ele>393.5</ele><time>2026-04-20T10:52:44.978Z</time></trkpt><trkpt lat="45.73226336084736" lon="10.71613951463927"><ele>394.75</ele><time>2026-04-20T10:52:45.978Z</time></trkpt><trkpt lat="45.732121790118825" lon="10.716234371293009"><ele>396.0</ele><time>2026-04-20T10:52:46.978Z</time></trkpt><trkpt lat="45.73196581287913" lon="10.716320951538162"><ele>388.75</ele><time>2026-04-20T10:52:47.978Z</time></trkpt><trkpt lat="45.73180965324538" lon="10.716366937294573"><ele>381.5</ele><time>2026-04-20T10:52:48.978Z</time></trkpt><trkpt lat="45.73168075578712" lon="10.716398475419751"><ele>374.25</ele><time>2026-04-20T10:52:49.978Z</time></trkpt><trkpt lat="45.73157230452085" lon="10.716404759995402"><ele>367.0</ele><time>2026-04-20T10:52:50.978Z</time></trkpt><trkpt lat="45.73148607644301" lon="10.716433272049612"><ele>367.0</ele><time>2026-04-20T10:52:51.978Z</time></trkpt><trkpt lat="45.73140656745137" lon="10.716398214548471"><ele>367.0</ele><time>2026-04-20T10:52:52.978Z</time></trkpt><trkpt lat="45.73135239953269" lon="10.71630881371707"><ele>367.0</ele><time>2026-04-20T10:52:53.979Z</time></trkpt><trkpt lat="45.73132004094444" lon="10.716205558240343"><ele>367.0</ele><time>2026-04-20T10:52:54.979Z</time></trkpt><trkpt lat="45.731327439087806" lon="10.716069238833459"><ele>367.0</ele><time>2026-04-20T10:52:55.979Z</time></trkpt><trkpt lat="45.73135655488667" lon="10.715937237140608"><ele>367.0</ele><time>2026-04-20T10:52:56.978Z</time></trkpt><trkpt lat="45.73138933597872" lon="10.715772715910324"><ele>371.25</ele><time>2026-04-20T10:52:57.979Z</time></trkpt><trkpt lat="45.7314194441846" lon="10.715588033157864"><ele>375.5</ele><time>2026-04-20T10:52:58.979Z</time></trkpt><trkpt lat="45.73144418319517" lon="10.715407392633049"><ele>379.75</ele><time>2026-04-20T10:52:59.979Z</time></trkpt><trkpt lat="45.73143856992549" lon="10.715200815287089"><ele>384.0</ele><time>2026-04-20T10:53:00.979Z</time></trkpt><trkpt lat="45.73140553420176" lon="10.714977173255322"><ele>384.66666666666663</ele><time>2026-04-20T10:53:01.979Z</time></trkpt><trkpt lat="45.731359282163105" lon="10.714741750196872"><ele>385.3333333333333</ele><time>2026-04-20T10:53:02.979Z</time></trkpt><trkpt lat="45.731318558080986" lon="10.714486089370265"><ele>386.0</ele><time>2026-04-20T10:53:03.979Z</time></trkpt><trkpt lat="45.73126991952565" lon="10.714249006879873"><ele>386.66666666666663</ele><time>2026-04-20T10:53:04.979Z</time></trkpt><trkpt lat="45.73123145405581" lon="10.714034390224242"><ele>387.33333333333337</ele><time>2026-04-20T10:53:05.979Z</time></trkpt><trkpt lat="45.73121207219614" lon="10.713825357108098"><ele>388.0</ele><time>2026-04-20T10:53:06.979Z</time></trkpt><trkpt lat="45.73121432098077" lon="10.713596384600539"><ele>387.6666666666667</ele><time>2026-04-20T10:53:07.979Z</time></trkpt><trkpt lat="45.73123871037729" lon="10.713361887045417"><ele>387.33333333333337</ele><time>2026-04-20T10:53:08.979Z</time></trkpt><trkpt lat="45.73126847132133" lon="10.713112194205198"><ele>387.0</ele><time>2026-04-20T10:53:09.979Z</time></trkpt><trkpt lat="45.73130342396132" lon="10.712861944441743"><ele>384.6666666666667</ele><time>2026-04-20T10:53:10.979Z</time></trkpt><trkpt lat="45.73135017032392" lon="10.71262511096473"><ele>382.33333333333337</ele><time>2026-04-20T10:53:11.979Z</time></trkpt><trkpt lat="45.73139303304171" lon="10.712396177228952"><ele>380.0</ele><time>2026-04-20T10:53:12.979Z</time></trkpt><trkpt lat="45.731426622125575" lon="10.712171335284282"><ele>380.0</ele><time>2026-04-20T10:53:13.979Z</time></trkpt><trkpt lat="45.731443094249194" lon="10.711958725765685"><ele>380.0</ele><time>2026-04-20T10:53:14.979Z</time></trkpt><trkpt lat="45.73145562032271" lon="10.711768830081786"><ele>380.0</ele><time>2026-04-20T10:53:15.979Z</time></trkpt><trkpt lat="45.731474270098424" lon="10.711613068668461"><ele>380.0</ele><time>2026-04-20T10:53:16.979Z</time></trkpt><trkpt lat="45.731551951726516" lon="10.711502893512332"><ele>377.5</ele><time>2026-04-20T10:53:17.979Z</time></trkpt><trkpt lat="45.73164379510962" lon="10.711405646009071"><ele>375.0</ele><time>2026-04-20T10:53:18.979Z</time></trkpt><trkpt lat="45.73175059384407" lon="10.711264097958598"><ele>372.5</ele><time>2026-04-20T10:53:19.979Z</time></trkpt><trkpt lat="45.731876542039934" lon="10.711154214687209"><ele>370.0</ele><time>2026-04-20T10:53:20.979Z</time></trkpt><trkpt lat="45.731977837482" lon="10.711055752402883"><ele>378.8</ele><time>2026-04-20T10:53:21.979Z</time></trkpt><trkpt lat="45.73206869139171" lon="10.710976658718458"><ele>387.6</ele><time>2026-04-20T10:53:22.979Z</time></trkpt><trkpt lat="45.73214243694827" lon="10.71092214237225"><ele>396.4</ele><time>2026-04-20T10:53:23.979Z</time></trkpt><trkpt lat="45.732206317763456" lon="10.710862725980004"><ele>405.2</ele><time>2026-04-20T10:53:24.979Z</time></trkpt><trkpt lat="45.73219821564267" lon="10.71068399849694"><ele>414.0</ele><time>2026-04-20T10:53:26.979Z</time></trkpt><trkpt lat="45.73213665109023" lon="10.710585469592223"><ele>414.0</ele><time>2026-04-20T10:53:27.979Z</time></trkpt><trkpt lat="45.73205313154849" lon="10.71045337730202"><ele>414.0</ele><time>2026-04-20T10:53:28.979Z</time></trkpt><trkpt lat="45.731956286838916" lon="10.710342587063092"><ele>414.0</ele><time>2026-04-20T10:53:29.979Z</time></trkpt><trkpt lat="45.731896474012046" lon="10.710185543205103"><ele>414.0</ele><time>2026-04-20T10:53:30.979Z</time></trkpt><trkpt lat="45.73180760377821" lon="10.71001362256807"><ele>399.5</ele><time>2026-04-20T10:53:31.979Z</time></trkpt><trkpt lat="45.731730354847784" lon="10.70983521035888"><ele>385.0</ele><time>2026-04-20T10:53:32.979Z</time></trkpt><trkpt lat="45.73165055150205" lon="10.709694544944789"><ele>370.5</ele><time>2026-04-20T10:53:33.979Z</time></trkpt><trkpt lat="45.73153443955321" lon="10.709584536026101"><ele>356.0</ele><time>2026-04-20T10:53:34.979Z</time></trkpt><trkpt lat="45.73146749667442" lon="10.70947049610694"><ele>362.0</ele><time>2026-04-20T10:53:35.979Z</time></trkpt><trkpt lat="45.73143952847019" lon="10.709314807545072"><ele>368.0</ele><time>2026-04-20T10:53:36.979Z</time></trkpt><trkpt lat="45.73142553649234" lon="10.709158449086997"><ele>374.0</ele><time>2026-04-20T10:53:37.979Z</time></trkpt><trkpt lat="45.73137683782111" lon="10.709039661930055"><ele>380.0</ele><time>2026-04-20T10:53:38.979Z</time></trkpt><trkpt lat="45.73129854466243" lon="10.708948752125504"><ele>386.0</ele><time>2026-04-20T10:53:40.979Z</time></trkpt><trkpt lat="45.731226195422664" lon="10.708834931795417"><ele>386.0</ele><time>2026-04-20T10:53:41.979Z</time></trkpt><trkpt lat="45.73115481091299" lon="10.708682114385022"><ele>386.0</ele><time>2026-04-20T10:53:42.979Z</time></trkpt><trkpt lat="45.73109796084123" lon="10.708536889176127"><ele>386.0</ele><time>2026-04-20T10:53:43.979Z</time></trkpt><trkpt lat="45.73107019654921" lon="10.708403386407495"><ele>386.0</ele><time>2026-04-20T10:53:44.979Z</time></trkpt><trkpt lat="45.731096909244464" lon="10.708280541887053"><ele>386.0</ele><time>2026-04-20T10:53:45.979Z</time></trkpt><trkpt lat="45.73112279561543" lon="10.708175832735158"><ele>390.0</ele><time>2026-04-20T10:53:46.979Z</time></trkpt><trkpt lat="45.73117152184826" lon="10.7080244778316"><ele>394.0</ele><time>2026-04-20T10:53:47.979Z</time></trkpt><trkpt lat="45.73118634374625" lon="10.707865235719371"><ele>398.0</ele><time>2026-04-20T10:53:48.979Z</time></trkpt><trkpt lat="45.731142931506035" lon="10.707692338426709"><ele>402.0</ele><time>2026-04-20T10:53:49.979Z</time></trkpt><trkpt lat="45.73111003363793" lon="10.707524813872688"><ele>399.75</ele><time>2026-04-20T10:53:50.979Z</time></trkpt><trkpt lat="45.73109957316439" lon="10.707386922848231"><ele>397.5</ele><time>2026-04-20T10:53:51.979Z</time></trkpt><trkpt lat="45.73112548691515" lon="10.707247525333639"><ele>395.25</ele><time>2026-04-20T10:53:52.979Z</time></trkpt><trkpt lat="45.73119119600205" lon="10.707101789941515"><ele>393.0</ele><time>2026-04-20T10:53:53.979Z</time></trkpt><trkpt lat="45.731209443896006" lon="10.706905455341088"><ele>393.0</ele><time>2026-04-20T10:53:54.979Z</time></trkpt><trkpt lat="45.731189585624406" lon="10.706688698341042"><ele>393.0</ele><time>2026-04-20T10:53:55.979Z</time></trkpt><trkpt lat="45.731168034473406" lon="10.70647171714852"><ele>393.0</ele><time>2026-04-20T10:53:56.979Z</time></trkpt><trkpt lat="45.73114520296945" lon="10.706253867436041"><ele>395.2</ele><time>2026-04-20T10:53:57.979Z</time></trkpt><trkpt lat="45.731118233959755" lon="10.706063606638768"><ele>397.4</ele><time>2026-04-20T10:53:58.979Z</time></trkpt><trkpt lat="45.73108143975455" lon="10.70593355931815"><ele>399.59999999999997</ele><time>2026-04-20T10:53:59.979Z</time></trkpt><trkpt lat="45.73105787639088" lon="10.70578979837402"><ele>401.79999999999995</ele><time>2026-04-20T10:54:00.979Z</time></trkpt><trkpt lat="45.731030040940574" lon="10.705672172215133"><ele>404.0</ele><time>2026-04-20T10:54:01.979Z</time></trkpt><trkpt lat="45.73096524954619" lon="10.7055966070233"><ele>393.0</ele><time>2026-04-20T10:54:02.979Z</time></trkpt><trkpt lat="45.73088082656879" lon="10.705590659735162"><ele>382.0</ele><time>2026-04-20T10:54:03.979Z</time></trkpt><trkpt lat="45.73082199708449" lon="10.705651595575624"><ele>371.0</ele><time>2026-04-20T10:54:04.979Z</time></trkpt><trkpt lat="45.73079899993685" lon="10.705780965429156"><ele>360.0</ele><time>2026-04-20T10:54:05.979Z</time></trkpt><trkpt lat="45.73078950906014" lon="10.705965777493972"><ele>349.0</ele><time>2026-04-20T10:54:06.979Z</time></trkpt><trkpt lat="45.73077632715488" lon="10.706204253213393"><ele>345.25</ele><time>2026-04-20T10:54:07.979Z</time></trkpt><trkpt lat="45.73074356177264" lon="10.70641767793909"><ele>341.5</ele><time>2026-04-20T10:54:08.979Z</time></trkpt><trkpt lat="45.73072206762199" lon="10.706605068505864"><ele>337.75</ele><time>2026-04-20T10:54:09.979Z</time></trkpt><trkpt lat="45.730681082643" lon="10.706771781490975"><ele>334.0</ele><time>2026-04-20T10:54:10.979Z</time></trkpt><trkpt lat="45.73060070368652" lon="10.706933582454377"><ele>334.0</ele><time>2026-04-20T10:54:11.979Z</time></trkpt><trkpt lat="45.730531280226" lon="10.707122994640253"><ele>334.0</ele><time>2026-04-20T10:54:12.979Z</time></trkpt><trkpt lat="45.73048754011441" lon="10.70734424688872"><ele>334.0</ele><time>2026-04-20T10:54:13.979Z</time></trkpt><trkpt lat="45.730437203560086" lon="10.70755788231812"><ele>332.5</ele><time>2026-04-20T10:54:14.979Z</time></trkpt><trkpt lat="45.73039534547315" lon="10.707748270076243"><ele>331.0</ele><time>2026-04-20T10:54:15.979Z</time></trkpt><trkpt lat="45.73033653785244" lon="10.707924277397153"><ele>329.5</ele><time>2026-04-20T10:54:16.979Z</time></trkpt><trkpt lat="45.73025210743966" lon="10.708102542748616"><ele>328.0</ele><time>2026-04-20T10:54:17.979Z</time></trkpt><trkpt lat="45.7301611071308" lon="10.708262436220098"><ele>326.75</ele><time>2026-04-20T10:54:18.979Z</time></trkpt><trkpt lat="45.730092774761445" lon="10.708387240344825"><ele>325.5</ele><time>2026-04-20T10:54:19.979Z</time></trkpt><trkpt lat="45.73004574299764" lon="10.708541839942814"><ele>324.25</ele><time>2026-04-20T10:54:20.979Z</time></trkpt><trkpt lat="45.73004529753557" lon="10.708729783175006"><ele>323.0</ele><time>2026-04-20T10:54:21.979Z</time></trkpt><trkpt lat="45.73001245220665" lon="10.708917521828143"><ele>320.0</ele><time>2026-04-20T10:54:22.979Z</time></trkpt><trkpt lat="45.72996283468475" lon="10.70913824914564"><ele>317.0</ele><time>2026-04-20T10:54:23.979Z</time></trkpt><trkpt lat="45.72995520618293" lon="10.709321364856105"><ele>314.0</ele><time>2026-04-20T10:54:24.979Z</time></trkpt><trkpt lat="45.72996227677544" lon="10.709522068754168"><ele>311.0</ele><time>2026-04-20T10:54:25.979Z</time></trkpt><trkpt lat="45.729971342521274" lon="10.709722563286851"><ele>309.0</ele><time>2026-04-20T10:54:26.979Z</time></trkpt><trkpt lat="45.72995871328381" lon="10.70991418270081"><ele>307.0</ele><time>2026-04-20T10:54:27.979Z</time></trkpt><trkpt lat="45.72990991657631" lon="10.710094287803715"><ele>305.0</ele><time>2026-04-20T10:54:28.979Z</time></trkpt><trkpt lat="45.72983854842121" lon="10.710255956010284"><ele>303.0</ele><time>2026-04-20T10:54:29.979Z</time></trkpt><trkpt lat="45.7297489496257" lon="10.710413633301185"><ele>299.75</ele><time>2026-04-20T10:54:30.979Z</time></trkpt><trkpt lat="45.729648781222664" lon="10.710564228370501"><ele>296.5</ele><time>2026-04-20T10:54:31.979Z</time></trkpt><trkpt lat="45.72956701364434" lon="10.710718760138633"><ele>293.25</ele><time>2026-04-20T10:54:32.979Z</time></trkpt><trkpt lat="45.72950734168003" lon="10.710870007619954"><ele>290.0</ele><time>2026-04-20T10:54:33.979Z</time></trkpt><trkpt lat="45.729478535046795" lon="10.71100371214996"><ele>288.25</ele><time>2026-04-20T10:54:34.979Z</time></trkpt><trkpt lat="45.729445814292326" lon="10.71114956074737"><ele>286.5</ele><time>2026-04-20T10:54:35.979Z</time></trkpt><trkpt lat="45.72940799714649" lon="10.71130537246637"><ele>284.75</ele><time>2026-04-20T10:54:36.979Z</time></trkpt><trkpt lat="45.72935133505869" lon="10.711458934985538"><ele>283.0</ele><time>2026-04-20T10:54:37.979Z</time></trkpt><trkpt lat="45.72928012186443" lon="10.71159495857424"><ele>284.0</ele><time>2026-04-20T10:54:38.979Z</time></trkpt><trkpt lat="45.72921733835228" lon="10.711715411493982"><ele>285.0</ele><time>2026-04-20T10:54:39.979Z</time></trkpt><trkpt lat="45.729158123148295" lon="10.711831885161446"><ele>286.0</ele><time>2026-04-20T10:54:40.979Z</time></trkpt><trkpt lat="45.72909324585497" lon="10.711931773599472"><ele>287.0</ele><time>2026-04-20T10:54:41.979Z</time></trkpt><trkpt lat="45.729015314044744" lon="10.712023031082522"><ele>288.0</ele><time>2026-04-20T10:54:42.979Z</time></trkpt><trkpt lat="45.728919477600364" lon="10.71208126986694"><ele>288.0</ele><time>2026-04-20T10:54:43.979Z</time></trkpt><trkpt lat="45.728822215528126" lon="10.712108211693856"><ele>288.0</ele><time>2026-04-20T10:54:44.979Z</time></trkpt><trkpt lat="45.72871407682238" lon="10.712144068172236"><ele>288.0</ele><time>2026-04-20T10:54:45.979Z</time></trkpt><trkpt lat="45.7286079320366" lon="10.712160225448045"><ele>288.0</ele><time>2026-04-20T10:54:46.979Z</time></trkpt><trkpt lat="45.728495438855965" lon="10.712180141044184"><ele>288.0</ele><time>2026-04-20T10:54:47.979Z</time></trkpt><trkpt lat="45.72838787633498" lon="10.712162286241746"><ele>290.5</ele><time>2026-04-20T10:54:48.979Z</time></trkpt><trkpt lat="45.728285343318454" lon="10.712225692396785"><ele>293.0</ele><time>2026-04-20T10:54:49.979Z</time></trkpt><trkpt lat="45.72815409949521" lon="10.712318824051712"><ele>295.5</ele><time>2026-04-20T10:54:50.978Z</time></trkpt><trkpt lat="45.72800542555849" lon="10.712475157185452"><ele>298.0</ele><time>2026-04-20T10:54:51.978Z</time></trkpt><trkpt lat="45.72783666083539" lon="10.712652963987424"><ele>297.0</ele><time>2026-04-20T10:54:52.978Z</time></trkpt><trkpt lat="45.72770202097738" lon="10.71279545908549"><ele>296.0</ele><time>2026-04-20T10:54:53.978Z</time></trkpt><trkpt lat="45.72755613971392" lon="10.7129566925186"><ele>295.0</ele><time>2026-04-20T10:54:54.978Z</time></trkpt><trkpt lat="45.7274370804301" lon="10.713126310688608"><ele>295.0</ele><time>2026-04-20T10:54:55.978Z</time></trkpt><trkpt lat="45.72733278447985" lon="10.713272531858003"><ele>295.0</ele><time>2026-04-20T10:54:56.978Z</time></trkpt><trkpt lat="45.72725396357564" lon="10.713442830454127"><ele>295.0</ele><time>2026-04-20T10:54:57.978Z</time></trkpt><trkpt lat="45.72718229181788" lon="10.713577689062364"><ele>295.0</ele><time>2026-04-20T10:54:58.978Z</time></trkpt><trkpt lat="45.72710382519939" lon="10.713686141903398"><ele>291.0</ele><time>2026-04-20T10:54:59.978Z</time></trkpt><trkpt lat="45.72700015347154" lon="10.713750453897271"><ele>287.0</ele><time>2026-04-20T10:55:00.978Z</time></trkpt><trkpt lat="45.72690284871724" lon="10.713734836532034"><ele>283.0</ele><time>2026-04-20T10:55:01.978Z</time></trkpt><trkpt lat="45.72678117137781" lon="10.713694976595303"><ele>279.0</ele><time>2026-04-20T10:55:02.978Z</time></trkpt><trkpt lat="45.72664348932864" lon="10.71359082745635"><ele>288.3333333333333</ele><time>2026-04-20T10:55:03.979Z</time></trkpt><trkpt lat="45.72649502656259" lon="10.713474223288049"><ele>297.66666666666663</ele><time>2026-04-20T10:55:04.979Z</time></trkpt><trkpt lat="45.726328844704085" lon="10.713370512201253"><ele>307.0</ele><time>2026-04-20T10:55:05.979Z</time></trkpt><trkpt lat="45.72617963509931" lon="10.713267016156134"><ele>291.75</ele><time>2026-04-20T10:55:06.979Z</time></trkpt><trkpt lat="45.726038159599206" lon="10.713200856206726"><ele>276.5</ele><time>2026-04-20T10:55:07.979Z</time></trkpt><trkpt lat="45.725907954468994" lon="10.713154098581343"><ele>261.25</ele><time>2026-04-20T10:55:08.979Z</time></trkpt><trkpt lat="45.72579410286625" lon="10.713124068003475"><ele>246.0</ele><time>2026-04-20T10:55:09.979Z</time></trkpt><trkpt lat="45.72569795599582" lon="10.713077735598041"><ele>246.0</ele><time>2026-04-20T10:55:10.979Z</time></trkpt><trkpt lat="45.72562865754538" lon="10.712974119990804"><ele>246.0</ele><time>2026-04-20T10:55:11.979Z</time></trkpt><trkpt lat="45.725577501901036" lon="10.712799114429219"><ele>246.0</ele><time>2026-04-20T10:55:12.979Z</time></trkpt><trkpt lat="45.725550313215344" lon="10.712612747403256"><ele>246.0</ele><time>2026-04-20T10:55:13.979Z</time></trkpt><trkpt lat="45.7254884172085" lon="10.712466294034417"><ele>253.5</ele><time>2026-04-20T10:55:14.979Z</time></trkpt><trkpt lat="45.72537041328865" lon="10.71231297767569"><ele>261.0</ele><time>2026-04-20T10:55:15.979Z</time></trkpt><trkpt lat="45.72526791507374" lon="10.712156649674776"><ele>268.5</ele><time>2026-04-20T10:55:16.979Z</time></trkpt><trkpt lat="45.725167981418195" lon="10.712026408582144"><ele>276.0</ele><time>2026-04-20T10:55:17.979Z</time></trkpt><trkpt lat="45.72507402044405" lon="10.711891579219241"><ele>280.0</ele><time>2026-04-20T10:55:18.979Z</time></trkpt><trkpt lat="45.72499821242803" lon="10.711710577848493"><ele>284.0</ele><time>2026-04-20T10:55:19.979Z</time></trkpt><trkpt lat="45.72492780860494" lon="10.711510344530627"><ele>288.0</ele><time>2026-04-20T10:55:20.979Z</time></trkpt><trkpt lat="45.72483550741266" lon="10.711322562766158"><ele>288.0</ele><time>2026-04-20T10:55:21.979Z</time></trkpt><trkpt lat="45.724728071408656" lon="10.711129170583671"><ele>288.0</ele><time>2026-04-20T10:55:22.979Z</time></trkpt><trkpt lat="45.72461188940279" lon="10.71096899763101"><ele>288.0</ele><time>2026-04-20T10:55:23.979Z</time></trkpt><trkpt lat="45.72449274120075" lon="10.710838360162345"><ele>289.25</ele><time>2026-04-20T10:55:24.979Z</time></trkpt><trkpt lat="45.72437310452854" lon="10.710715682989678"><ele>290.5</ele><time>2026-04-20T10:55:25.979Z</time></trkpt><trkpt lat="45.724287409285715" lon="10.71055225347632"><ele>291.75</ele><time>2026-04-20T10:55:26.979Z</time></trkpt><trkpt lat="45.72420600160211" lon="10.710381005202159"><ele>293.0</ele><time>2026-04-20T10:55:27.979Z</time></trkpt><trkpt lat="45.7241377325291" lon="10.710235342835764"><ele>293.0</ele><time>2026-04-20T10:55:28.979Z</time></trkpt><trkpt lat="45.724066372100424" lon="10.710113391149221"><ele>293.0</ele><time>2026-04-20T10:55:29.979Z</time></trkpt><trkpt lat="45.72398739505669" lon="10.710024827543718"><ele>293.0</ele><time>2026-04-20T10:55:30.979Z</time></trkpt><trkpt lat="45.72390648168813" lon="10.709943082464257"><ele>293.0</ele><time>2026-04-20T10:55:31.979Z</time></trkpt><trkpt lat="45.72380075401453" lon="10.709835505291672"><ele>293.0</ele><time>2026-04-20T10:55:32.979Z</time></trkpt><trkpt lat="45.72373846088372" lon="10.709662181417304"><ele>293.0</ele><time>2026-04-20T10:55:33.979Z</time></trkpt><trkpt lat="45.723707966670055" lon="10.709449397525558"><ele>293.0</ele><time>2026-04-20T10:55:34.979Z</time></trkpt><trkpt lat="45.723663748132175" lon="10.70922973455411"><ele>293.0</ele><time>2026-04-20T10:55:35.979Z</time></trkpt><trkpt lat="45.72362578419553" lon="10.709001077018067"><ele>292.6</ele><time>2026-04-20T10:55:36.979Z</time></trkpt><trkpt lat="45.72359270230413" lon="10.708783528333532"><ele>292.20000000000005</ele><time>2026-04-20T10:55:37.979Z</time></trkpt><trkpt lat="45.7235655594201" lon="10.708605035461893"><ele>291.8</ele><time>2026-04-20T10:55:38.979Z</time></trkpt><trkpt lat="45.7235409798654" lon="10.708475643495735"><ele>291.40000000000003</ele><time>2026-04-20T10:55:39.979Z</time></trkpt><trkpt lat="45.72350478018852" lon="10.708391807749017"><ele>291.0</ele><time>2026-04-20T10:55:41.979Z</time></trkpt><trkpt lat="45.72344852904938" lon="10.708317261307412"><ele>291.0</ele><time>2026-04-20T10:55:42.979Z</time></trkpt><trkpt lat="45.72331864740262" lon="10.70830588545235"><ele>291.0</ele><time>2026-04-20T10:55:43.979Z</time></trkpt><trkpt lat="45.72315070358967" lon="10.708282704515925"><ele>291.0</ele><time>2026-04-20T10:55:44.979Z</time></trkpt><trkpt lat="45.72294688366186" lon="10.708359533569157"><ele>291.0</ele><time>2026-04-20T10:55:45.979Z</time></trkpt><trkpt lat="45.72277625752655" lon="10.708415933527936"><ele>291.0</ele><time>2026-04-20T10:55:46.979Z</time></trkpt><trkpt lat="45.722621757113785" lon="10.708411395271332"><ele>291.0</ele><time>2026-04-20T10:55:47.979Z</time></trkpt><trkpt lat="45.722466864283476" lon="10.708359265385202"><ele>281.6666666666667</ele><time>2026-04-20T10:55:48.979Z</time></trkpt><trkpt lat="45.72230380782957" lon="10.7083114182066"><ele>272.33333333333337</ele><time>2026-04-20T10:55:49.979Z</time></trkpt><trkpt lat="45.72216000848223" lon="10.70821247818664"><ele>263.0</ele><time>2026-04-20T10:55:50.979Z</time></trkpt><trkpt lat="45.72202418877857" lon="10.708099041703198"><ele>255.5</ele><time>2026-04-20T10:55:51.979Z</time></trkpt><trkpt lat="45.721878949839805" lon="10.707986132927084"><ele>248.0</ele><time>2026-04-20T10:55:52.979Z</time></trkpt><trkpt lat="45.72174048327815" lon="10.70790862143954"><ele>240.5</ele><time>2026-04-20T10:55:53.979Z</time></trkpt><trkpt lat="45.721609962147795" lon="10.70785940524855"><ele>233.0</ele><time>2026-04-20T10:55:54.979Z</time></trkpt><trkpt lat="45.721483258700864" lon="10.707802243624398"><ele>234.33333333333334</ele><time>2026-04-20T10:55:55.979Z</time></trkpt><trkpt lat="45.72134889996104" lon="10.707714212281916"><ele>235.66666666666669</ele><time>2026-04-20T10:55:56.979Z</time></trkpt><trkpt lat="45.72120608052687" lon="10.70758032066685"><ele>237.0</ele><time>2026-04-20T10:55:57.979Z</time></trkpt><trkpt lat="45.72104792827221" lon="10.70743661154565"><ele>237.0</ele><time>2026-04-20T10:55:58.979Z</time></trkpt><trkpt lat="45.72089283110391" lon="10.707292132423131"><ele>237.0</ele><time>2026-04-20T10:55:59.979Z</time></trkpt><trkpt lat="45.7207430206107" lon="10.70715280180715"><ele>237.0</ele><time>2026-04-20T10:56:00.979Z</time></trkpt><trkpt lat="45.720600575708104" lon="10.70699581390313"><ele>235.33333333333331</ele><time>2026-04-20T10:56:01.979Z</time></trkpt><trkpt lat="45.720447387544" lon="10.706839024033572"><ele>233.66666666666666</ele><time>2026-04-20T10:56:02.979Z</time></trkpt><trkpt lat="45.72028416315362" lon="10.706713176474308"><ele>232.0</ele><time>2026-04-20T10:56:03.979Z</time></trkpt><trkpt lat="45.720119781644165" lon="10.70660323761256"><ele>232.0</ele><time>2026-04-20T10:56:04.979Z</time></trkpt><trkpt lat="45.71994513166085" lon="10.706485991366183"><ele>232.0</ele><time>2026-04-20T10:56:05.979Z</time></trkpt><trkpt lat="45.71978658750171" lon="10.706371512751923"><ele>232.0</ele><time>2026-04-20T10:56:06.979Z</time></trkpt><trkpt lat="45.719641104760235" lon="10.706266126573542"><ele>232.0</ele><time>2026-04-20T10:56:07.979Z</time></trkpt><trkpt lat="45.71951952348328" lon="10.706159720758071"><ele>232.0</ele><time>2026-04-20T10:56:08.979Z</time></trkpt><trkpt lat="45.71941159050844" lon="10.706040080898061"><ele>232.0</ele><time>2026-04-20T10:56:09.979Z</time></trkpt><trkpt lat="45.71929636505847" lon="10.70590107483039"><ele>232.0</ele><time>2026-04-20T10:56:10.979Z</time></trkpt><trkpt lat="45.71919516316204" lon="10.705734128780923"><ele>230.0</ele><time>2026-04-20T10:56:11.979Z</time></trkpt><trkpt lat="45.71909602334451" lon="10.705539369949399"><ele>228.0</ele><time>2026-04-20T10:56:12.979Z</time></trkpt><trkpt lat="45.71899633300773" lon="10.705319293873792"><ele>226.0</ele><time>2026-04-20T10:56:13.979Z</time></trkpt><trkpt lat="45.71889098214942" lon="10.705094645556297"><ele>219.33333333333331</ele><time>2026-04-20T10:56:14.979Z</time></trkpt><trkpt lat="45.718769399043744" lon="10.704869199808451"><ele>212.66666666666669</ele><time>2026-04-20T10:56:15.978Z</time></trkpt><trkpt lat="45.718640400583" lon="10.704651046067506"><ele>206.0</ele><time>2026-04-20T10:56:16.978Z</time></trkpt><trkpt lat="45.71850931513439" lon="10.70443334084733"><ele>213.0</ele><time>2026-04-20T10:56:17.978Z</time></trkpt><trkpt lat="45.718371972236" lon="10.704224987692589"><ele>220.0</ele><time>2026-04-20T10:56:18.978Z</time></trkpt><trkpt lat="45.71824729419043" lon="10.704045824726105"><ele>227.0</ele><time>2026-04-20T10:56:19.978Z</time></trkpt><trkpt lat="45.718139728404715" lon="10.703890255658164"><ele>227.0</ele><time>2026-04-20T10:56:20.978Z</time></trkpt><trkpt lat="45.71803434377771" lon="10.703736646717031"><ele>227.0</ele><time>2026-04-20T10:56:21.978Z</time></trkpt><trkpt lat="45.71792834966549" lon="10.703608341486868"><ele>227.0</ele><time>2026-04-20T10:56:22.978Z</time></trkpt><trkpt lat="45.71779769602946" lon="10.703507911195873"><ele>227.0</ele><time>2026-04-20T10:56:23.978Z</time></trkpt><trkpt lat="45.717655139560904" lon="10.70342609840185"><ele>226.0</ele><time>2026-04-20T10:56:24.978Z</time></trkpt><trkpt lat="45.71750238013607" lon="10.703342930602332"><ele>225.0</ele><time>2026-04-20T10:56:25.978Z</time></trkpt><trkpt lat="45.717351891690775" lon="10.703266937970858"><ele>224.0</ele><time>2026-04-20T10:56:26.978Z</time></trkpt><trkpt lat="45.71721537935439" lon="10.703198387884171"><ele>224.0</ele><time>2026-04-20T10:56:27.978Z</time></trkpt><trkpt lat="45.71708597035866" lon="10.703109043658644"><ele>224.0</ele><time>2026-04-20T10:56:28.978Z</time></trkpt><trkpt lat="45.71695346419934" lon="10.702980872396667"><ele>224.0</ele><time>2026-04-20T10:56:29.978Z</time></trkpt><trkpt lat="45.71682649980088" lon="10.702832246709553"><ele>224.66666666666669</ele><time>2026-04-20T10:56:30.978Z</time></trkpt><trkpt lat="45.71669151612471" lon="10.702718834127456"><ele>225.33333333333331</ele><time>2026-04-20T10:56:31.978Z</time></trkpt><trkpt lat="45.716531624098984" lon="10.702617363211266"><ele>226.0</ele><time>2026-04-20T10:56:32.978Z</time></trkpt><trkpt lat="45.71635479552497" lon="10.702523963178864"><ele>226.0</ele><time>2026-04-20T10:56:33.978Z</time></trkpt><trkpt lat="45.7161764579898" lon="10.702416032961706"><ele>226.0</ele><time>2026-04-20T10:56:34.978Z</time></trkpt><trkpt lat="45.715987233339035" lon="10.702313333833352"><ele>226.0</ele><time>2026-04-20T10:56:35.978Z</time></trkpt><trkpt lat="45.71580315440605" lon="10.70221568340724"><ele>215.66666666666666</ele><time>2026-04-20T10:56:36.978Z</time></trkpt><trkpt lat="45.7156292895908" lon="10.702120040792842"><ele>205.33333333333331</ele><time>2026-04-20T10:56:37.978Z</time></trkpt><trkpt lat="45.715472397374825" lon="10.7020306769268"><ele>195.0</ele><time>2026-04-20T10:56:38.978Z</time></trkpt><trkpt lat="45.71533054670528" lon="10.70193521928884"><ele>196.25</ele><time>2026-04-20T10:56:39.978Z</time></trkpt><trkpt lat="45.715196832857416" lon="10.701846664800996"><ele>197.5</ele><time>2026-04-20T10:56:40.978Z</time></trkpt><trkpt lat="45.715061774767676" lon="10.701763929209095"><ele>198.75</ele><time>2026-04-20T10:56:41.978Z</time></trkpt><trkpt lat="45.714922261477135" lon="10.701698524873846"><ele>200.0</ele><time>2026-04-20T10:56:42.978Z</time></trkpt><trkpt lat="45.71478182729381" lon="10.701604612697611"><ele>200.0</ele><time>2026-04-20T10:56:43.978Z</time></trkpt><trkpt lat="45.714638929008814" lon="10.701481182722803"><ele>200.0</ele><time>2026-04-20T10:56:44.978Z</time></trkpt><trkpt lat="45.71449497690824" lon="10.701335027609577"><ele>200.0</ele><time>2026-04-20T10:56:45.978Z</time></trkpt><trkpt lat="45.71433830282787" lon="10.701190968700944"><ele>201.0</ele><time>2026-04-20T10:56:46.978Z</time></trkpt><trkpt lat="45.714175745625205" lon="10.701050011620735"><ele>202.0</ele><time>2026-04-20T10:56:47.978Z</time></trkpt><trkpt lat="45.71402875459517" lon="10.700933077944814"><ele>203.0</ele><time>2026-04-20T10:56:48.978Z</time></trkpt><trkpt lat="45.71386967891359" lon="10.700827974290132"><ele>203.0</ele><time>2026-04-20T10:56:49.978Z</time></trkpt><trkpt lat="45.71370675676676" lon="10.700762369467592"><ele>203.0</ele><time>2026-04-20T10:56:50.978Z</time></trkpt><trkpt lat="45.713553366450256" lon="10.700717197286902"><ele>203.0</ele><time>2026-04-20T10:56:51.978Z</time></trkpt><trkpt lat="45.713412572936" lon="10.700677464406812"><ele>198.2</ele><time>2026-04-20T10:56:52.978Z</time></trkpt><trkpt lat="45.713287433710924" lon="10.70063001734908"><ele>193.4</ele><time>2026-04-20T10:56:53.978Z</time></trkpt><trkpt lat="45.713174980274324" lon="10.700569201422772"><ele>188.6</ele><time>2026-04-20T10:56:54.978Z</time></trkpt><trkpt lat="45.713096666306605" lon="10.700474441590378"><ele>183.79999999999998</ele><time>2026-04-20T10:56:55.978Z</time></trkpt><trkpt lat="45.7130289261138" lon="10.700377100612947"><ele>179.0</ele><time>2026-04-20T10:56:56.978Z</time></trkpt><trkpt lat="45.71295972103831" lon="10.70032444852694"><ele>179.0</ele><time>2026-04-20T10:56:57.978Z</time></trkpt><trkpt lat="45.71284980982902" lon="10.700342485827766"><ele>179.0</ele><time>2026-04-20T10:56:59.978Z</time></trkpt><trkpt lat="45.7127592776524" lon="10.700392452370737"><ele>179.0</ele><time>2026-04-20T10:57:01.978Z</time></trkpt><trkpt lat="45.712593220454806" lon="10.700291123564522"><ele>179.0</ele><time>2026-04-20T10:57:03.978Z</time></trkpt><trkpt lat="45.71251513525049" lon="10.700215522689916"><ele>178.79999999999998</ele><time>2026-04-20T10:57:04.978Z</time></trkpt><trkpt lat="45.712466082597565" lon="10.700132230117303"><ele>178.6</ele><time>2026-04-20T10:57:05.978Z</time></trkpt><trkpt lat="45.712437154601524" lon="10.70002618042824"><ele>178.4</ele><time>2026-04-20T10:57:06.978Z</time></trkpt><trkpt lat="45.71242040905265" lon="10.69989720819251"><ele>178.2</ele><time>2026-04-20T10:57:07.978Z</time></trkpt><trkpt lat="45.71241482562527" lon="10.69973321633827"><ele>178.0</ele><time>2026-04-20T10:57:08.978Z</time></trkpt><trkpt lat="45.71241147913953" lon="10.699551748218488"><ele>191.25</ele><time>2026-04-20T10:57:09.978Z</time></trkpt><trkpt lat="45.71240337884239" lon="10.699374086493432"><ele>204.5</ele><time>2026-04-20T10:57:10.978Z</time></trkpt><trkpt lat="45.71236728560325" lon="10.699236310682188"><ele>217.75</ele><time>2026-04-20T10:57:11.978Z</time></trkpt><trkpt lat="45.71231011085381" lon="10.699105258931228"><ele>231.0</ele><time>2026-04-20T10:57:12.978Z</time></trkpt><trkpt lat="45.712218110508076" lon="10.698994624996104"><ele>231.0</ele><time>2026-04-20T10:57:13.978Z</time></trkpt><trkpt lat="45.712320001723675" lon="10.69911336618184"><ele>231.0</ele><time>2026-04-20T10:57:14.978Z</time></trkpt><trkpt lat="45.71155651566845" lon="10.698166806748425"><ele>241.0</ele><time>2026-04-20T10:57:19.557Z</time></trkpt><trkpt lat="45.7113397730169" lon="10.697935086907282"><ele>251.0</ele><time>2026-04-20T10:57:20.558Z</time></trkpt><trkpt lat="45.71113559410137" lon="10.697683244774877"><ele>278.0</ele><time>2026-04-20T10:57:21.557Z</time></trkpt><trkpt lat="45.7110844" lon="10.6976201"><ele>305.0</ele><time>2026-04-20T10:57:22.557Z</time></trkpt><trkpt lat="45.70768219974469" lon="10.69331254792508"><ele>250.33333333333334</ele><time>2026-04-20T10:57:53.978Z</time></trkpt><trkpt lat="45.707539860693466" lon="10.693116604522766"><ele>195.66666666666669</ele><time>2026-04-20T10:57:54.978Z</time></trkpt><trkpt lat="45.70746171739495" lon="10.69292521853486"><ele>141.0</ele><time>2026-04-20T10:57:55.978Z</time></trkpt><trkpt lat="45.70731978281252" lon="10.692715926420439"><ele>141.0</ele><time>2026-04-20T10:57:56.978Z</time></trkpt><trkpt lat="45.707184241582446" lon="10.692515169693841"><ele>141.0</ele><time>2026-04-20T10:57:57.978Z</time></trkpt><trkpt lat="45.70704960998906" lon="10.692318793032266"><ele>141.0</ele><time>2026-04-20T10:57:58.978Z</time></trkpt><trkpt lat="45.70698644364585" lon="10.691931466357902"><ele>256.0</ele><time>2026-04-20T10:57:59.978Z</time></trkpt><trkpt lat="45.708433623407785" lon="10.691631863500302"><ele>256.0</ele><time>2026-04-20T10:58:01.978Z</time></trkpt><trkpt lat="45.70833044661298" lon="10.691397293585114"><ele>256.0</ele><time>2026-04-20T10:58:02.978Z</time></trkpt><trkpt lat="45.70815275559483" lon="10.69128421412355"><ele>256.0</ele><time>2026-04-20T10:58:03.978Z</time></trkpt><trkpt lat="45.70807690119951" lon="10.691085362397033"><ele>269.66666666666663</ele><time>2026-04-20T10:58:04.978Z</time></trkpt><trkpt lat="45.707979867390854" lon="10.69088868579697"><ele>283.3333333333333</ele><time>2026-04-20T10:58:05.978Z</time></trkpt><trkpt lat="45.70787453930593" lon="10.69070167168697"><ele>297.0</ele><time>2026-04-20T10:58:06.978Z</time></trkpt><trkpt lat="45.706741932092484" lon="10.68891073414469"><ele>271.5</ele><time>2026-04-20T10:58:12.557Z</time></trkpt><trkpt lat="45.706570615912156" lon="10.688613774945392"><ele>246.0</ele><time>2026-04-20T10:58:13.555Z</time></trkpt><trkpt lat="45.7064015605775" lon="10.688312387196577"><ele>246.0</ele><time>2026-04-20T10:58:14.557Z</time></trkpt><trkpt lat="45.70626045546163" lon="10.68798450000581"><ele>246.0</ele><time>2026-04-20T10:58:15.557Z</time></trkpt><trkpt lat="45.70612418633802" lon="10.687652008855263"><ele>222.5</ele><time>2026-04-20T10:58:16.557Z</time></trkpt><trkpt lat="45.705971175363075" lon="10.687335252839988"><ele>199.0</ele><time>2026-04-20T10:58:17.556Z</time></trkpt><trkpt lat="45.70580722578981" lon="10.6870299892657"><ele>234.0</ele><time>2026-04-20T10:58:18.555Z</time></trkpt><trkpt lat="45.70564216716183" lon="10.686723973016456"><ele>269.0</ele><time>2026-04-20T10:58:19.557Z</time></trkpt><trkpt lat="45.705477431280805" lon="10.686418802034185"><ele>269.0</ele><time>2026-04-20T10:58:20.557Z</time></trkpt><trkpt lat="45.70531320444064" lon="10.686114574043193"><ele>269.0</ele><time>2026-04-20T10:58:21.554Z</time></trkpt><trkpt lat="45.705145292708615" lon="10.68581375616692"><ele>241.0</ele><time>2026-04-20T10:58:22.553Z</time></trkpt><trkpt lat="45.7049584778494" lon="10.685534648740138"><ele>213.0</ele><time>2026-04-20T10:58:23.555Z</time></trkpt><trkpt lat="45.7047638845595" lon="10.685266388899889"><ele>187.0</ele><time>2026-04-20T10:58:24.557Z</time></trkpt><trkpt lat="45.70457208572079" lon="10.684996698764312"><ele>161.0</ele><time>2026-04-20T10:58:25.555Z</time></trkpt><trkpt lat="45.70438139281543" lon="10.684722714802179"><ele>161.0</ele><time>2026-04-20T10:58:26.557Z</time></trkpt><trkpt lat="45.70420278676888" lon="10.684434112093374"><ele>161.0</ele><time>2026-04-20T10:58:27.557Z</time></trkpt><trkpt lat="45.704041636381" lon="10.68412648232808"><ele>189.5</ele><time>2026-04-20T10:58:28.555Z</time></trkpt><trkpt lat="45.7038957465885" lon="10.683801261150483"><ele>218.0</ele><time>2026-04-20T10:58:29.557Z</time></trkpt><trkpt lat="45.703768232875966" lon="10.683461835267574"><ele>187.5</ele><time>2026-04-20T10:58:30.557Z</time></trkpt><trkpt lat="45.703656855729875" lon="10.683110924666929"><ele>157.0</ele><time>2026-04-20T10:58:31.557Z</time></trkpt><trkpt lat="45.70355314963372" lon="10.682755306072664"><ele>157.0</ele><time>2026-04-20T10:58:32.557Z</time></trkpt><trkpt lat="45.70344860063164" lon="10.682401950581644"><ele>157.0</ele><time>2026-04-20T10:58:33.553Z</time></trkpt><trkpt lat="45.7033646" lon="10.6821231"><ele>197.0</ele><time>2026-04-20T10:58:34.557Z</time></trkpt><trkpt lat="45.70298302885064" lon="10.68096732579631"><ele>182.66666666666669</ele><time>2026-04-20T10:58:58.978Z</time></trkpt><trkpt lat="45.70273385699777" lon="10.680652316196726"><ele>168.33333333333334</ele><time>2026-04-20T10:59:00.978Z</time></trkpt><trkpt lat="45.70267610668488" lon="10.680534789264728"><ele>154.0</ele><time>2026-04-20T10:59:01.978Z</time></trkpt><trkpt lat="45.70258696479457" lon="10.680418741914275"><ele>154.0</ele><time>2026-04-20T10:59:02.978Z</time></trkpt><trkpt lat="45.70248329462027" lon="10.680336470372762"><ele>154.0</ele><time>2026-04-20T10:59:03.979Z</time></trkpt><trkpt lat="45.7023759147222" lon="10.680295972275195"><ele>154.0</ele><time>2026-04-20T10:59:04.978Z</time></trkpt><trkpt lat="45.70228174233086" lon="10.680247558994076"><ele>154.0</ele><time>2026-04-20T10:59:05.978Z</time></trkpt><trkpt lat="45.70217656603121" lon="10.68013249119446"><ele>150.5</ele><time>2026-04-20T10:59:06.978Z</time></trkpt><trkpt lat="45.702085999215186" lon="10.680004633268002"><ele>147.0</ele><time>2026-04-20T10:59:07.978Z</time></trkpt><trkpt lat="45.702033902474305" lon="10.67982946687674"><ele>143.5</ele><time>2026-04-20T10:59:08.978Z</time></trkpt><trkpt lat="45.7019441959117" lon="10.679643138454743"><ele>140.0</ele><time>2026-04-20T10:59:09.978Z</time></trkpt><trkpt lat="45.701863810419965" lon="10.679470717947291"><ele>146.5</ele><time>2026-04-20T10:59:10.978Z</time></trkpt><trkpt lat="45.70179941804378" lon="10.679308286152398"><ele>153.0</ele><time>2026-04-20T10:59:11.978Z</time></trkpt><trkpt lat="45.70173527533285" lon="10.679162746418479"><ele>159.5</ele><time>2026-04-20T10:59:12.978Z</time></trkpt><trkpt lat="45.701659185108326" lon="10.67900518479351"><ele>166.0</ele><time>2026-04-20T10:59:13.978Z</time></trkpt><trkpt lat="45.7015450868872" lon="10.678832185909409"><ele>166.0</ele><time>2026-04-20T10:59:14.978Z</time></trkpt><trkpt lat="45.701409052789195" lon="10.67867073776452"><ele>166.0</ele><time>2026-04-20T10:59:15.979Z</time></trkpt><trkpt lat="45.70126345344537" lon="10.67852184207527"><ele>166.0</ele><time>2026-04-20T10:59:16.978Z</time></trkpt><trkpt lat="45.701129569416615" lon="10.678397242489922"><ele>162.0</ele><time>2026-04-20T10:59:17.978Z</time></trkpt><trkpt lat="45.70100099090267" lon="10.678283793345768"><ele>158.0</ele><time>2026-04-20T10:59:18.978Z</time></trkpt><trkpt lat="45.7008712612357" lon="10.678173701408081"><ele>154.0</ele><time>2026-04-20T10:59:19.978Z</time></trkpt><trkpt lat="45.70075345040183" lon="10.678052272709017"><ele>150.0</ele><time>2026-04-20T10:59:20.978Z</time></trkpt><trkpt lat="45.700631899086275" lon="10.677934948658569"><ele>150.0</ele><time>2026-04-20T10:59:21.978Z</time></trkpt><trkpt lat="45.700517668320536" lon="10.677829150492565"><ele>150.0</ele><time>2026-04-20T10:59:22.978Z</time></trkpt><trkpt lat="45.7004260157299" lon="10.677713329569983"><ele>150.0</ele><time>2026-04-20T10:59:23.978Z</time></trkpt><trkpt lat="45.70032570475109" lon="10.677608589594618"><ele>150.0</ele><time>2026-04-20T10:59:24.978Z</time></trkpt><trkpt lat="45.70020815533373" lon="10.677495881140477"><ele>147.33333333333334</ele><time>2026-04-20T10:59:25.978Z</time></trkpt><trkpt lat="45.70006082410077" lon="10.677365068195797"><ele>144.66666666666669</ele><time>2026-04-20T10:59:26.978Z</time></trkpt><trkpt lat="45.69992850080125" lon="10.677212978952639"><ele>142.0</ele><time>2026-04-20T10:59:27.978Z</time></trkpt><trkpt lat="45.69979774890121" lon="10.67705552287026"><ele>147.33333333333334</ele><time>2026-04-20T10:59:28.978Z</time></trkpt><trkpt lat="45.69967785323577" lon="10.676875462408885"><ele>152.66666666666666</ele><time>2026-04-20T10:59:29.978Z</time></trkpt><trkpt lat="45.699564074236974" lon="10.676638186211314"><ele>158.0</ele><time>2026-04-20T10:59:30.978Z</time></trkpt><trkpt lat="45.699452761967365" lon="10.676401393570053"><ele>153.0</ele><time>2026-04-20T10:59:31.978Z</time></trkpt><trkpt lat="45.699359794606394" lon="10.676199677119898"><ele>148.0</ele><time>2026-04-20T10:59:32.978Z</time></trkpt><trkpt lat="45.69925442369385" lon="10.67599546745072"><ele>143.0</ele><time>2026-04-20T10:59:33.978Z</time></trkpt><trkpt lat="45.699120172770584" lon="10.675772151754641"><ele>143.0</ele><time>2026-04-20T10:59:34.978Z</time></trkpt><trkpt lat="45.698981981374054" lon="10.675567527756765"><ele>143.0</ele><time>2026-04-20T10:59:35.978Z</time></trkpt><trkpt lat="45.69884954989685" lon="10.67539684271406"><ele>143.0</ele><time>2026-04-20T10:59:36.978Z</time></trkpt><trkpt lat="45.69874747372719" lon="10.675256614840215"><ele>146.33333333333331</ele><time>2026-04-20T10:59:37.978Z</time></trkpt><trkpt lat="45.69862524160689" lon="10.675073376138124"><ele>149.66666666666666</ele><time>2026-04-20T10:59:38.978Z</time></trkpt><trkpt lat="45.698508496168074" lon="10.674889319125485"><ele>153.0</ele><time>2026-04-20T10:59:39.978Z</time></trkpt><trkpt lat="45.69838401575818" lon="10.6747068239669"><ele>150.0</ele><time>2026-04-20T10:59:40.978Z</time></trkpt><trkpt lat="45.6982630924402" lon="10.67452771569922"><ele>147.0</ele><time>2026-04-20T10:59:41.978Z</time></trkpt><trkpt lat="45.698139195993186" lon="10.674365958448456"><ele>144.0</ele><time>2026-04-20T10:59:42.978Z</time></trkpt><trkpt lat="45.69802562373067" lon="10.674203831921279"><ele>144.0</ele><time>2026-04-20T10:59:43.978Z</time></trkpt><trkpt lat="45.69792059448103" lon="10.674049662192784"><ele>144.0</ele><time>2026-04-20T10:59:44.978Z</time></trkpt><trkpt lat="45.69782826752469" lon="10.673903377408399"><ele>144.0</ele><time>2026-04-20T10:59:45.978Z</time></trkpt><trkpt lat="45.69773922060117" lon="10.673761111046245"><ele>144.0</ele><time>2026-04-20T10:59:46.978Z</time></trkpt><trkpt lat="45.697641736018895" lon="10.673612512150267"><ele>139.66666666666666</ele><time>2026-04-20T10:59:47.978Z</time></trkpt><trkpt lat="45.697558792268325" lon="10.673448126044853"><ele>135.33333333333331</ele><time>2026-04-20T10:59:48.978Z</time></trkpt><trkpt lat="45.697473750392916" lon="10.673272467730525"><ele>131.0</ele><time>2026-04-20T10:59:49.978Z</time></trkpt><trkpt lat="45.69737760708083" lon="10.673088963784553"><ele>131.0</ele><time>2026-04-20T10:59:50.978Z</time></trkpt><trkpt lat="45.69729134954799" lon="10.67290869969414"><ele>131.0</ele><time>2026-04-20T10:59:51.978Z</time></trkpt><trkpt lat="45.697210437524134" lon="10.672741587421434"><ele>131.0</ele><time>2026-04-20T10:59:52.978Z</time></trkpt><trkpt lat="45.69711698275216" lon="10.672592074241708"><ele>131.0</ele><time>2026-04-20T10:59:53.978Z</time></trkpt><trkpt lat="45.69702718697602" lon="10.672459958965788"><ele>127.33333333333333</ele><time>2026-04-20T10:59:54.978Z</time></trkpt><trkpt lat="45.696913313031885" lon="10.672315853038699"><ele>123.66666666666666</ele><time>2026-04-20T10:59:55.978Z</time></trkpt><trkpt lat="45.69678904387469" lon="10.67214946637686"><ele>120.0</ele><time>2026-04-20T10:59:56.978Z</time></trkpt><trkpt lat="45.69666154036321" lon="10.67198769097298"><ele>123.25</ele><time>2026-04-20T10:59:57.978Z</time></trkpt><trkpt lat="45.696547015346205" lon="10.671842683088434"><ele>126.5</ele><time>2026-04-20T10:59:58.978Z</time></trkpt><trkpt lat="45.696436960686654" lon="10.671705710892128"><ele>129.75</ele><time>2026-04-20T10:59:59.978Z</time></trkpt><trkpt lat="45.69632800584024" lon="10.671568510625164"><ele>133.0</ele><time>2026-04-20T11:00:00.978Z</time></trkpt><trkpt lat="45.69622043995952" lon="10.671438460237162"><ele>133.0</ele><time>2026-04-20T11:00:01.978Z</time></trkpt><trkpt lat="45.69612274046001" lon="10.671320230066037"><ele>133.0</ele><time>2026-04-20T11:00:02.978Z</time></trkpt><trkpt lat="45.696041998751596" lon="10.671197690483954"><ele>133.0</ele><time>2026-04-20T11:00:03.978Z</time></trkpt><trkpt lat="45.695968472472416" lon="10.671047300094779"><ele>133.0</ele><time>2026-04-20T11:00:04.978Z</time></trkpt><trkpt lat="45.69591093343081" lon="10.67086536004902"><ele>132.5</ele><time>2026-04-20T11:00:05.978Z</time></trkpt><trkpt lat="45.695865075073414" lon="10.670693304115407"><ele>132.0</ele><time>2026-04-20T11:00:06.978Z</time></trkpt><trkpt lat="45.695810926805116" lon="10.670514041134153"><ele>131.5</ele><time>2026-04-20T11:00:07.978Z</time></trkpt><trkpt lat="45.695730365784506" lon="10.670323451928668"><ele>131.0</ele><time>2026-04-20T11:00:08.978Z</time></trkpt><trkpt lat="45.69567540657958" lon="10.670129473850052"><ele>131.0</ele><time>2026-04-20T11:00:09.978Z</time></trkpt><trkpt lat="45.69560317986643" lon="10.669955805574295"><ele>131.0</ele><time>2026-04-20T11:00:10.978Z</time></trkpt><trkpt lat="45.695531476078884" lon="10.66978660739637"><ele>131.0</ele><time>2026-04-20T11:00:11.978Z</time></trkpt><trkpt lat="45.695462451602225" lon="10.669606403296934"><ele>131.0</ele><time>2026-04-20T11:00:12.978Z</time></trkpt><trkpt lat="45.69538341925742" lon="10.669417222011226"><ele>134.25</ele><time>2026-04-20T11:00:13.978Z</time></trkpt><trkpt lat="45.69531202859053" lon="10.669252754685614"><ele>137.5</ele><time>2026-04-20T11:00:14.978Z</time></trkpt><trkpt lat="45.69524832262146" lon="10.669100466038492"><ele>140.75</ele><time>2026-04-20T11:00:15.978Z</time></trkpt><trkpt lat="45.69518158638112" lon="10.668929206584535"><ele>144.0</ele><time>2026-04-20T11:00:16.978Z</time></trkpt><trkpt lat="45.69511255497709" lon="10.66875621822428"><ele>140.25</ele><time>2026-04-20T11:00:17.978Z</time></trkpt><trkpt lat="45.69503545882167" lon="10.668595534651677"><ele>136.5</ele><time>2026-04-20T11:00:18.978Z</time></trkpt><trkpt lat="45.69494959866805" lon="10.668438888014641"><ele>132.75</ele><time>2026-04-20T11:00:19.978Z</time></trkpt><trkpt lat="45.69484875594818" lon="10.668322234061716"><ele>129.0</ele><time>2026-04-20T11:00:20.978Z</time></trkpt><trkpt lat="45.69474387084389" lon="10.66823598497669"><ele>129.0</ele><time>2026-04-20T11:00:21.978Z</time></trkpt><trkpt lat="45.69463071942254" lon="10.668165986961158"><ele>129.0</ele><time>2026-04-20T11:00:22.978Z</time></trkpt><trkpt lat="45.69452297567578" lon="10.668117693723685"><ele>129.0</ele><time>2026-04-20T11:00:23.978Z</time></trkpt><trkpt lat="45.69441553174657" lon="10.668090426494038"><ele>129.0</ele><time>2026-04-20T11:00:24.978Z</time></trkpt><trkpt lat="45.694303184736285" lon="10.668033653958961"><ele>127.75</ele><time>2026-04-20T11:00:25.978Z</time></trkpt><trkpt lat="45.694195195351604" lon="10.66798052614183"><ele>126.5</ele><time>2026-04-20T11:00:26.978Z</time></trkpt><trkpt lat="45.69408263913163" lon="10.667923754594723"><ele>125.25</ele><time>2026-04-20T11:00:27.978Z</time></trkpt><trkpt lat="45.693975107861924" lon="10.667845622914847"><ele>124.0</ele><time>2026-04-20T11:00:28.978Z</time></trkpt><trkpt lat="45.6938776642743" lon="10.667735559928417"><ele>124.0</ele><time>2026-04-20T11:00:29.978Z</time></trkpt><trkpt lat="45.693781965144844" lon="10.667609342545532"><ele>124.0</ele><time>2026-04-20T11:00:30.978Z</time></trkpt><trkpt lat="45.69369347645335" lon="10.667489706758177"><ele>124.0</ele><time>2026-04-20T11:00:31.978Z</time></trkpt><trkpt lat="45.69359631815377" lon="10.667379692047712"><ele>124.0</ele><time>2026-04-20T11:00:32.978Z</time></trkpt><trkpt lat="45.693488915403215" lon="10.667306525700566"><ele>121.50000000000001</ele><time>2026-04-20T11:00:33.978Z</time></trkpt><trkpt lat="45.69338212667187" lon="10.667248826339472"><ele>119.0</ele><time>2026-04-20T11:00:34.978Z</time></trkpt><trkpt lat="45.69328228132122" lon="10.667214989239588"><ele>116.5</ele><time>2026-04-20T11:00:35.978Z</time></trkpt><trkpt lat="45.69319674880393" lon="10.667201265178619"><ele>114.0</ele><time>2026-04-20T11:00:36.978Z</time></trkpt><trkpt lat="45.69312462444188" lon="10.667194217666035"><ele>111.50000000000001</ele><time>2026-04-20T11:00:37.978Z</time></trkpt><trkpt lat="45.69305320848725" lon="10.667188059217814"><ele>109.0</ele><time>2026-04-20T11:00:38.978Z</time></trkpt><trkpt lat="45.692982034210075" lon="10.66718103194627"><ele>109.00000000000001</ele><time>2026-04-20T11:00:39.978Z</time></trkpt><trkpt lat="45.69290982283715" lon="10.667168679361778"><ele>109.0</ele><time>2026-04-20T11:00:40.978Z</time></trkpt><trkpt lat="45.692839812678706" lon="10.667153461659703"><ele>109.0</ele><time>2026-04-20T11:00:41.978Z</time></trkpt><trkpt lat="45.692769275890974" lon="10.667137980467839"><ele>109.0</ele><time>2026-04-20T11:00:42.978Z</time></trkpt><trkpt lat="45.69268994248033" lon="10.667126412801816"><ele>109.00000000000001</ele><time>2026-04-20T11:00:43.978Z</time></trkpt><trkpt lat="45.69260092693454" lon="10.66711516666486"><ele>109.0</ele><time>2026-04-20T11:00:44.978Z</time></trkpt><trkpt lat="45.69250635731013" lon="10.667090876481497"><ele>109.80000000000001</ele><time>2026-04-20T11:00:45.978Z</time></trkpt><trkpt lat="45.692414071824835" lon="10.667041073696394"><ele>110.60000000000001</ele><time>2026-04-20T11:00:46.978Z</time></trkpt><trkpt lat="45.69232592007258" lon="10.666975748877498"><ele>111.4</ele><time>2026-04-20T11:00:47.978Z</time></trkpt><trkpt lat="45.69224194328718" lon="10.66690179879152"><ele>112.2</ele><time>2026-04-20T11:00:48.978Z</time></trkpt><trkpt lat="45.6921702562076" lon="10.666818415164022"><ele>113.0</ele><time>2026-04-20T11:00:49.978Z</time></trkpt><trkpt lat="45.69211588113946" lon="10.666737863181389"><ele>113.0</ele><time>2026-04-20T11:00:50.978Z</time></trkpt><trkpt lat="45.69206236272754" lon="10.666655827420536"><ele>113.0</ele><time>2026-04-20T11:00:51.978Z</time></trkpt><trkpt lat="45.692007231356946" lon="10.666564898889353"><ele>113.0</ele><time>2026-04-20T11:00:52.978Z</time></trkpt><trkpt lat="45.69195918659385" lon="10.666484563155429"><ele>113.0</ele><time>2026-04-20T11:00:53.978Z</time></trkpt><trkpt lat="45.691917362852735" lon="10.666411282304313"><ele>113.0</ele><time>2026-04-20T11:00:54.978Z</time></trkpt><trkpt lat="45.69187057597739" lon="10.666339251941388"><ele>113.0</ele><time>2026-04-20T11:00:55.978Z</time></trkpt><trkpt lat="45.691827497309895" lon="10.666266541516462"><ele>113.0</ele><time>2026-04-20T11:00:56.978Z</time></trkpt><trkpt lat="45.69178100369138" lon="10.666185320963166"><ele>112.16666666666666</ele><time>2026-04-20T11:00:57.978Z</time></trkpt><trkpt lat="45.691733792013686" lon="10.666110630477126"><ele>111.33333333333333</ele><time>2026-04-20T11:00:58.978Z</time></trkpt><trkpt lat="45.691681806689054" lon="10.66603072252471"><ele>110.5</ele><time>2026-04-20T11:00:59.978Z</time></trkpt><trkpt lat="45.691631844818474" lon="10.665943267077342"><ele>109.66666666666666</ele><time>2026-04-20T11:01:00.978Z</time></trkpt><trkpt lat="45.69157825497008" lon="10.665853512724658"><ele>108.83333333333333</ele><time>2026-04-20T11:01:01.978Z</time></trkpt><trkpt lat="45.69151790364885" lon="10.665755878928287"><ele>108.0</ele><time>2026-04-20T11:01:02.978Z</time></trkpt><trkpt lat="45.691459102014385" lon="10.665656211940014"><ele>108.0</ele><time>2026-04-20T11:01:03.978Z</time></trkpt><trkpt lat="45.69139907876457" lon="10.665554934711333"><ele>108.00000000000001</ele><time>2026-04-20T11:01:04.978Z</time></trkpt><trkpt lat="45.691338014894164" lon="10.665452894140612"><ele>108.00000000000001</ele><time>2026-04-20T11:01:05.978Z</time></trkpt><trkpt lat="45.69127435631083" lon="10.66534951311336"><ele>108.0</ele><time>2026-04-20T11:01:06.978Z</time></trkpt><trkpt lat="45.69120403553395" lon="10.665239306387463"><ele>108.0</ele><time>2026-04-20T11:01:07.978Z</time></trkpt><trkpt lat="45.69112965477199" lon="10.665123962358871"><ele>106.4</ele><time>2026-04-20T11:01:08.978Z</time></trkpt><trkpt lat="45.691055978187045" lon="10.665004413383977"><ele>104.80000000000001</ele><time>2026-04-20T11:01:09.978Z</time></trkpt><trkpt lat="45.690990958732314" lon="10.664906348955865"><ele>103.2</ele><time>2026-04-20T11:01:10.978Z</time></trkpt><trkpt lat="45.69092878697672" lon="10.664802399225797"><ele>101.6</ele><time>2026-04-20T11:01:11.978Z</time></trkpt><trkpt lat="45.690863861558" lon="10.664695836620474"><ele>100.0</ele><time>2026-04-20T11:01:12.978Z</time></trkpt><trkpt lat="45.690802139690305" lon="10.664599259284946"><ele>100.00000000000001</ele><time>2026-04-20T11:01:13.978Z</time></trkpt><trkpt lat="45.69074613181723" lon="10.664522328188669"><ele>100.0</ele><time>2026-04-20T11:01:15.978Z</time></trkpt><trkpt lat="45.69065944151873" lon="10.66440265319346"><ele>100.0</ele><time>2026-04-20T11:01:52.978Z</time></trkpt><trkpt lat="45.690591758366" lon="10.664330068571063"><ele>100.0</ele><time>2026-04-20T11:01:54.978Z</time></trkpt><trkpt lat="45.6905306296277" lon="10.66428575509312"><ele>100.00000000000001</ele><time>2026-04-20T11:01:55.978Z</time></trkpt><trkpt lat="45.69046288444049" lon="10.664238276977805"><ele>100.0</ele><time>2026-04-20T11:01:56.978Z</time></trkpt><trkpt lat="45.69038310754248" lon="10.664206146870102"><ele>99.75</ele><time>2026-04-20T11:01:57.978Z</time></trkpt><trkpt lat="45.69028853190531" lon="10.664174804776641"><ele>99.5</ele><time>2026-04-20T11:01:58.978Z</time></trkpt><trkpt lat="45.690166468903115" lon="10.66413604596453"><ele>99.25</ele><time>2026-04-20T11:01:59.978Z</time></trkpt><trkpt lat="45.69003238907834" lon="10.664087702494227"><ele>99.0</ele><time>2026-04-20T11:02:00.978Z</time></trkpt><trkpt lat="45.689900885954046" lon="10.664042556505322"><ele>99.0</ele><time>2026-04-20T11:02:01.978Z</time></trkpt><trkpt lat="45.689782233854935" lon="10.663993878415114"><ele>99.0</ele><time>2026-04-20T11:02:02.978Z</time></trkpt><trkpt lat="45.68967192348563" lon="10.663927206510982"><ele>99.0</ele><time>2026-04-20T11:02:03.978Z</time></trkpt><trkpt lat="45.68957632854063" lon="10.66383863368359"><ele>99.0</ele><time>2026-04-20T11:02:04.978Z</time></trkpt><trkpt lat="45.689493696638976" lon="10.663705681476689"><ele>96.0</ele><time>2026-04-20T11:02:05.978Z</time></trkpt><trkpt lat="45.689411790929015" lon="10.663556974967861"><ele>93.0</ele><time>2026-04-20T11:02:06.978Z</time></trkpt><trkpt lat="45.6893249061675" lon="10.663389737313292"><ele>90.0</ele><time>2026-04-20T11:02:07.978Z</time></trkpt><trkpt lat="45.68923681670156" lon="10.663212619244252"><ele>87.0</ele><time>2026-04-20T11:02:08.978Z</time></trkpt><trkpt lat="45.6891478649541" lon="10.66303325347151"><ele>87.0</ele><time>2026-04-20T11:02:09.978Z</time></trkpt><trkpt lat="45.68906308347911" lon="10.662862338454055"><ele>87.0</ele><time>2026-04-20T11:02:10.978Z</time></trkpt><trkpt lat="45.6890174218245" lon="10.662688067163794"><ele>87.0</ele><time>2026-04-20T11:02:11.978Z</time></trkpt><trkpt lat="45.68894163650791" lon="10.662531409803966"><ele>87.0</ele><time>2026-04-20T11:02:12.978Z</time></trkpt><trkpt lat="45.68885859179309" lon="10.66237659320904"><ele>87.25</ele><time>2026-04-20T11:02:13.978Z</time></trkpt><trkpt lat="45.688782420436276" lon="10.662235469078356"><ele>87.5</ele><time>2026-04-20T11:02:14.978Z</time></trkpt><trkpt lat="45.688701980721966" lon="10.662096479778777"><ele>87.75</ele><time>2026-04-20T11:02:15.978Z</time></trkpt><trkpt lat="45.68861291829458" lon="10.661957664130126"><ele>88.0</ele><time>2026-04-20T11:02:16.978Z</time></trkpt><trkpt lat="45.68851827327904" lon="10.661806042243068"><ele>88.0</ele><time>2026-04-20T11:02:17.978Z</time></trkpt><trkpt lat="45.688418709151065" lon="10.661657297996962"><ele>88.0</ele><time>2026-04-20T11:02:18.978Z</time></trkpt><trkpt lat="45.68831383184781" lon="10.661508533902872"><ele>88.0</ele><time>2026-04-20T11:02:19.978Z</time></trkpt><trkpt lat="45.68819467286699" lon="10.661342798699547"><ele>88.0</ele><time>2026-04-20T11:02:20.978Z</time></trkpt><trkpt lat="45.68806925441908" lon="10.66118500581456"><ele>88.0</ele><time>2026-04-20T11:02:21.978Z</time></trkpt><trkpt lat="45.6879440857407" lon="10.66104577435968"><ele>88.0</ele><time>2026-04-20T11:02:22.978Z</time></trkpt><trkpt lat="45.687806336692084" lon="10.660918627654027"><ele>85.33333333333333</ele><time>2026-04-20T11:02:23.978Z</time></trkpt><trkpt lat="45.687666480645035" lon="10.660816865011935"><ele>82.66666666666667</ele><time>2026-04-20T11:02:24.978Z</time></trkpt><trkpt lat="45.68751449151149" lon="10.660708891015767"><ele>80.0</ele><time>2026-04-20T11:02:25.978Z</time></trkpt><trkpt lat="45.68735866243744" lon="10.66060051496212"><ele>80.0</ele><time>2026-04-20T11:02:26.978Z</time></trkpt><trkpt lat="45.68720908449724" lon="10.660501805210378"><ele>80.0</ele><time>2026-04-20T11:02:27.978Z</time></trkpt><trkpt lat="45.68706782326995" lon="10.660414850237931"><ele>80.0</ele><time>2026-04-20T11:02:28.978Z</time></trkpt><trkpt lat="45.68691990592115" lon="10.66032870238662"><ele>81.33333333333334</ele><time>2026-04-20T11:02:29.978Z</time></trkpt><trkpt lat="45.68677639657635" lon="10.660236830670677"><ele>82.66666666666667</ele><time>2026-04-20T11:02:30.978Z</time></trkpt><trkpt lat="45.686639532631425" lon="10.660141421348007"><ele>84.0</ele><time>2026-04-20T11:02:31.978Z</time></trkpt><trkpt lat="45.68650231379427" lon="10.660046099627172"><ele>84.0</ele><time>2026-04-20T11:02:32.978Z</time></trkpt><trkpt lat="45.686363045043436" lon="10.659953522164075"><ele>84.0</ele><time>2026-04-20T11:02:33.978Z</time></trkpt><trkpt lat="45.68622042615871" lon="10.659856018296466"><ele>84.0</ele><time>2026-04-20T11:02:34.978Z</time></trkpt><trkpt lat="45.68608022700214" lon="10.659739620788795"><ele>85.0</ele><time>2026-04-20T11:02:35.978Z</time></trkpt><trkpt lat="45.68594401188251" lon="10.659611238519028"><ele>86.0</ele><time>2026-04-20T11:02:36.978Z</time></trkpt><trkpt lat="45.68580785249676" lon="10.659484452333638"><ele>87.0</ele><time>2026-04-20T11:02:37.978Z</time></trkpt><trkpt lat="45.6856741099452" lon="10.659363166677174"><ele>87.0</ele><time>2026-04-20T11:02:38.978Z</time></trkpt><trkpt lat="45.685551821182415" lon="10.659250083992331"><ele>87.0</ele><time>2026-04-20T11:02:39.978Z</time></trkpt><trkpt lat="45.6854382530907" lon="10.659142322161062"><ele>87.0</ele><time>2026-04-20T11:02:40.978Z</time></trkpt><trkpt lat="45.685325738405766" lon="10.659030589814964"><ele>87.0</ele><time>2026-04-20T11:02:41.978Z</time></trkpt><trkpt lat="45.685190524547096" lon="10.658910613022297"><ele>87.66666666666667</ele><time>2026-04-20T11:02:42.978Z</time></trkpt><trkpt lat="45.68505242794115" lon="10.658784292800396"><ele>88.33333333333334</ele><time>2026-04-20T11:02:43.978Z</time></trkpt><trkpt lat="45.684920243210236" lon="10.65866132657655"><ele>89.0</ele><time>2026-04-20T11:02:44.978Z</time></trkpt><trkpt lat="45.68479498362964" lon="10.658544080009712"><ele>89.0</ele><time>2026-04-20T11:02:45.978Z</time></trkpt><trkpt lat="45.684665793546216" lon="10.658424607346507"><ele>89.0</ele><time>2026-04-20T11:02:46.978Z</time></trkpt><trkpt lat="45.68453085497891" lon="10.658303289050197"><ele>89.0</ele><time>2026-04-20T11:02:47.978Z</time></trkpt><trkpt lat="45.684373569860256" lon="10.658164147828515"><ele>83.66666666666667</ele><time>2026-04-20T11:02:48.978Z</time></trkpt><trkpt lat="45.684241760516294" lon="10.658025595639904"><ele>78.33333333333333</ele><time>2026-04-20T11:02:49.978Z</time></trkpt><trkpt lat="45.68411722658323" lon="10.657899690602484"><ele>73.0</ele><time>2026-04-20T11:02:50.978Z</time></trkpt><trkpt lat="45.684006134017324" lon="10.657793612773222"><ele>76.5</ele><time>2026-04-20T11:02:51.978Z</time></trkpt><trkpt lat="45.68389908170578" lon="10.657691268940587"><ele>80.0</ele><time>2026-04-20T11:02:52.978Z</time></trkpt><trkpt lat="45.68381224304561" lon="10.657601045054268"><ele>83.5</ele><time>2026-04-20T11:02:53.978Z</time></trkpt><trkpt lat="45.68372832919153" lon="10.65751368344942"><ele>87.0</ele><time>2026-04-20T11:02:54.978Z</time></trkpt><trkpt lat="45.683643898080646" lon="10.65741259853624"><ele>86.0</ele><time>2026-04-20T11:02:55.978Z</time></trkpt><trkpt lat="45.683551708919715" lon="10.657294512498867"><ele>85.0</ele><time>2026-04-20T11:02:56.978Z</time></trkpt><trkpt lat="45.6834779992566" lon="10.657184374619872"><ele>84.0</ele><time>2026-04-20T11:02:57.978Z</time></trkpt><trkpt lat="45.68339097592564" lon="10.657054843090156"><ele>83.0</ele><time>2026-04-20T11:02:58.978Z</time></trkpt><trkpt lat="45.68328685070742" lon="10.656912489971328"><ele>83.0</ele><time>2026-04-20T11:02:59.978Z</time></trkpt><trkpt lat="45.68316922336156" lon="10.656761444180653"><ele>83.0</ele><time>2026-04-20T11:03:00.978Z</time></trkpt><trkpt lat="45.68304593693022" lon="10.656598234210765"><ele>83.0</ele><time>2026-04-20T11:03:01.978Z</time></trkpt><trkpt lat="45.68292143337237" lon="10.656431264895026"><ele>83.0</ele><time>2026-04-20T11:03:02.978Z</time></trkpt><trkpt lat="45.68280778821551" lon="10.656261991005389"><ele>83.0</ele><time>2026-04-20T11:03:03.978Z</time></trkpt><trkpt lat="45.68269490937493" lon="10.656094459564317"><ele>83.0</ele><time>2026-04-20T11:03:04.978Z</time></trkpt><trkpt lat="45.68258572679418" lon="10.655941417717525"><ele>81.66666666666667</ele><time>2026-04-20T11:03:05.978Z</time></trkpt><trkpt lat="45.68248248303445" lon="10.655797067368022"><ele>80.33333333333333</ele><time>2026-04-20T11:03:06.978Z</time></trkpt><trkpt lat="45.682364741493686" lon="10.655642706318186"><ele>79.0</ele><time>2026-04-20T11:03:07.978Z</time></trkpt><trkpt lat="45.68224452553422" lon="10.655446848905594"><ele>77.33333333333333</ele><time>2026-04-20T11:03:08.978Z</time></trkpt><trkpt lat="45.682115651980126" lon="10.655265149685055"><ele>75.66666666666667</ele><time>2026-04-20T11:03:09.978Z</time></trkpt><trkpt lat="45.68198492805275" lon="10.655076810171394"><ele>74.0</ele><time>2026-04-20T11:03:10.978Z</time></trkpt><trkpt lat="45.68186612483929" lon="10.65490310934737"><ele>74.0</ele><time>2026-04-20T11:03:11.978Z</time></trkpt><trkpt lat="45.681725170803375" lon="10.654741701733208"><ele>74.0</ele><time>2026-04-20T11:03:12.978Z</time></trkpt><trkpt lat="45.68158515850278" lon="10.654607115070664"><ele>74.0</ele><time>2026-04-20T11:03:13.978Z</time></trkpt><trkpt lat="45.6814439261008" lon="10.654497278449643"><ele>74.33333333333334</ele><time>2026-04-20T11:03:14.978Z</time></trkpt><trkpt lat="45.681304380245535" lon="10.654411840554275"><ele>74.66666666666667</ele><time>2026-04-20T11:03:15.979Z</time></trkpt><trkpt lat="45.681159202539206" lon="10.654338379166532"><ele>75.0</ele><time>2026-04-20T11:03:16.978Z</time></trkpt><trkpt lat="45.681006831203135" lon="10.65427737216248"><ele>75.0</ele><time>2026-04-20T11:03:17.978Z</time></trkpt><trkpt lat="45.68085621666744" lon="10.65423384190143"><ele>75.0</ele><time>2026-04-20T11:03:18.978Z</time></trkpt><trkpt lat="45.6807123396757" lon="10.65420316784459"><ele>75.0</ele><time>2026-04-20T11:03:19.979Z</time></trkpt><trkpt lat="45.68056754405592" lon="10.654170059618009"><ele>75.0</ele><time>2026-04-20T11:03:20.979Z</time></trkpt><trkpt lat="45.68043295719047" lon="10.654132720727198"><ele>75.0</ele><time>2026-04-20T11:03:21.978Z</time></trkpt><trkpt lat="45.68030160882429" lon="10.654093385728247"><ele>75.0</ele><time>2026-04-20T11:03:22.978Z</time></trkpt><trkpt lat="45.68016398973708" lon="10.654056889086704"><ele>75.0</ele><time>2026-04-20T11:03:23.978Z</time></trkpt><trkpt lat="45.68002452388106" lon="10.654018132869608"><ele>75.0</ele><time>2026-04-20T11:03:24.978Z</time></trkpt><trkpt lat="45.67988995253294" lon="10.653987284655194"><ele>73.75</ele><time>2026-04-20T11:03:25.979Z</time></trkpt><trkpt lat="45.67976937048823" lon="10.653963383907271"><ele>72.5</ele><time>2026-04-20T11:03:26.979Z</time></trkpt><trkpt lat="45.67964924489912" lon="10.653933417913796"><ele>71.25</ele><time>2026-04-20T11:03:27.978Z</time></trkpt><trkpt lat="45.679522119033756" lon="10.653911542516449"><ele>70.0</ele><time>2026-04-20T11:03:28.979Z</time></trkpt><trkpt lat="45.67938756726917" lon="10.653891449502698"><ele>69.25</ele><time>2026-04-20T11:03:29.979Z</time></trkpt><trkpt lat="45.67925509277731" lon="10.653861645826213"><ele>68.5</ele><time>2026-04-20T11:03:30.979Z</time></trkpt><trkpt lat="45.67912064226897" lon="10.65383104053927"><ele>67.75</ele><time>2026-04-20T11:03:31.979Z</time></trkpt><trkpt lat="45.678990999896705" lon="10.653807184490896"><ele>67.0</ele><time>2026-04-20T11:03:32.979Z</time></trkpt><trkpt lat="45.67886980061433" lon="10.653788611562986"><ele>67.0</ele><time>2026-04-20T11:03:33.979Z</time></trkpt><trkpt lat="45.6787439052455" lon="10.653758452308665"><ele>67.0</ele><time>2026-04-20T11:03:34.979Z</time></trkpt><trkpt lat="45.67861022153905" lon="10.653730750028716"><ele>67.0</ele><time>2026-04-20T11:03:35.979Z</time></trkpt><trkpt lat="45.67847902836356" lon="10.653695274642592"><ele>67.0</ele><time>2026-04-20T11:03:36.979Z</time></trkpt><trkpt lat="45.678344666817985" lon="10.653666660668128"><ele>66.25</ele><time>2026-04-20T11:03:37.979Z</time></trkpt><trkpt lat="45.67822402360654" lon="10.653632913620395"><ele>65.5</ele><time>2026-04-20T11:03:38.979Z</time></trkpt><trkpt lat="45.678098190184954" lon="10.653585217933948"><ele>64.75</ele><time>2026-04-20T11:03:39.979Z</time></trkpt><trkpt lat="45.677956525190346" lon="10.653529681753723"><ele>64.0</ele><time>2026-04-20T11:03:40.979Z</time></trkpt><trkpt lat="45.677813088405365" lon="10.653453914907432"><ele>65.5</ele><time>2026-04-20T11:03:41.979Z</time></trkpt><trkpt lat="45.67766573310555" lon="10.653363097740987"><ele>67.0</ele><time>2026-04-20T11:03:42.979Z</time></trkpt><trkpt lat="45.67753630217009" lon="10.653278829070514"><ele>68.5</ele><time>2026-04-20T11:03:43.979Z</time></trkpt><trkpt lat="45.67742021677687" lon="10.653186752394827"><ele>70.0</ele><time>2026-04-20T11:03:44.979Z</time></trkpt><trkpt lat="45.67730590644306" lon="10.653101918931998"><ele>70.0</ele><time>2026-04-20T11:03:45.979Z</time></trkpt><trkpt lat="45.67718504887219" lon="10.653014428954018"><ele>70.0</ele><time>2026-04-20T11:03:46.979Z</time></trkpt><trkpt lat="45.67707110951516" lon="10.65292420219506"><ele>70.0</ele><time>2026-04-20T11:03:47.979Z</time></trkpt><trkpt lat="45.6769678917633" lon="10.652846670895856"><ele>70.0</ele><time>2026-04-20T11:03:48.979Z</time></trkpt><trkpt lat="45.67684854340693" lon="10.652767620068333"><ele>71.0</ele><time>2026-04-20T11:03:49.979Z</time></trkpt><trkpt lat="45.67674139245285" lon="10.652614289603282"><ele>72.0</ele><time>2026-04-20T11:03:50.979Z</time></trkpt><trkpt lat="45.67662386444912" lon="10.65250108048811"><ele>73.0</ele><time>2026-04-20T11:03:51.979Z</time></trkpt><trkpt lat="45.67651169588685" lon="10.652373176305847"><ele>74.0</ele><time>2026-04-20T11:03:52.979Z</time></trkpt><trkpt lat="45.67639526985102" lon="10.652228964342196"><ele>74.0</ele><time>2026-04-20T11:03:53.979Z</time></trkpt><trkpt lat="45.6762793921019" lon="10.652086722777929"><ele>74.0</ele><time>2026-04-20T11:03:54.979Z</time></trkpt><trkpt lat="45.676173319718814" lon="10.65195759268736"><ele>74.0</ele><time>2026-04-20T11:03:55.979Z</time></trkpt><trkpt lat="45.676076410199926" lon="10.651840555230692"><ele>74.0</ele><time>2026-04-20T11:03:56.979Z</time></trkpt><trkpt lat="45.675993284469136" lon="10.651743838886768"><ele>74.5</ele><time>2026-04-20T11:03:57.979Z</time></trkpt><trkpt lat="45.67590041862435" lon="10.651638358332598"><ele>75.0</ele><time>2026-04-20T11:03:58.979Z</time></trkpt><trkpt lat="45.67580860742058" lon="10.651529568214924"><ele>75.5</ele><time>2026-04-20T11:03:59.979Z</time></trkpt><trkpt lat="45.675709420853146" lon="10.651417452872025"><ele>76.0</ele><time>2026-04-20T11:04:00.979Z</time></trkpt><trkpt lat="45.675621496021286" lon="10.651313147324963"><ele>76.0</ele><time>2026-04-20T11:04:01.979Z</time></trkpt><trkpt lat="45.67553162907399" lon="10.651218880977394"><ele>76.0</ele><time>2026-04-20T11:04:02.979Z</time></trkpt><trkpt lat="45.67543853991153" lon="10.651115766520748"><ele>76.0</ele><time>2026-04-20T11:04:03.979Z</time></trkpt><trkpt lat="45.67535591214757" lon="10.65101964855769"><ele>76.0</ele><time>2026-04-20T11:04:04.979Z</time></trkpt><trkpt lat="45.675277517838985" lon="10.650935666910541"><ele>76.0</ele><time>2026-04-20T11:04:05.979Z</time></trkpt><trkpt lat="45.6752012195572" lon="10.65081495626502"><ele>76.39999999999999</ele><time>2026-04-20T11:04:06.979Z</time></trkpt><trkpt lat="45.6751079295675" lon="10.650735043749016"><ele>76.8</ele><time>2026-04-20T11:04:07.979Z</time></trkpt><trkpt lat="45.67501455915737" lon="10.65063177356827"><ele>77.19999999999999</ele><time>2026-04-20T11:04:08.979Z</time></trkpt><trkpt lat="45.67492491017881" lon="10.650542212298259"><ele>77.6</ele><time>2026-04-20T11:04:09.979Z</time></trkpt><trkpt lat="45.674834699978746" lon="10.650481730231313"><ele>78.0</ele><time>2026-04-20T11:04:10.979Z</time></trkpt><trkpt lat="45.67475564314663" lon="10.650439129178311"><ele>78.0</ele><time>2026-04-20T11:04:11.979Z</time></trkpt><trkpt lat="45.67469081269196" lon="10.650409543677464"><ele>78.0</ele><time>2026-04-20T11:04:12.979Z</time></trkpt><trkpt lat="45.67460325178103" lon="10.650376757348734"><ele>78.0</ele><time>2026-04-20T11:04:13.979Z</time></trkpt><trkpt lat="45.67453588803077" lon="10.650326982180625"><ele>78.0</ele><time>2026-04-20T11:04:14.979Z</time></trkpt><trkpt lat="45.674486157191495" lon="10.650264827983344"><ele>78.0</ele><time>2026-04-20T11:04:15.979Z</time></trkpt><trkpt lat="45.67440558371227" lon="10.650155205710947"><ele>78.0</ele><time>2026-04-20T11:04:17.979Z</time></trkpt><trkpt lat="45.67429400958714" lon="10.650175831265425"><ele>78.2</ele><time>2026-04-20T11:04:19.979Z</time></trkpt><trkpt lat="45.67423504039833" lon="10.650245695914833"><ele>78.4</ele><time>2026-04-20T11:04:20.979Z</time></trkpt><trkpt lat="45.674189142487485" lon="10.650321082055466"><ele>78.60000000000001</ele><time>2026-04-20T11:04:21.979Z</time></trkpt><trkpt lat="45.67412360409683" lon="10.650372526080531"><ele>78.8</ele><time>2026-04-20T11:04:22.979Z</time></trkpt><trkpt lat="45.67401982857445" lon="10.650429171662664"><ele>79.0</ele><time>2026-04-20T11:04:23.979Z</time></trkpt><trkpt lat="45.67389272623032" lon="10.650499260399197"><ele>78.0</ele><time>2026-04-20T11:04:24.979Z</time></trkpt><trkpt lat="45.67375055200405" lon="10.650528765303772"><ele>77.0</ele><time>2026-04-20T11:04:25.979Z</time></trkpt><trkpt lat="45.6735990204212" lon="10.650609590264384"><ele>76.0</ele><time>2026-04-20T11:04:26.979Z</time></trkpt><trkpt lat="45.67344782677051" lon="10.650686454414663"><ele>76.0</ele><time>2026-04-20T11:04:27.979Z</time></trkpt><trkpt lat="45.6732927116281" lon="10.65075763009778"><ele>76.0</ele><time>2026-04-20T11:04:28.979Z</time></trkpt><trkpt lat="45.673141622194535" lon="10.650831092884824"><ele>76.0</ele><time>2026-04-20T11:04:29.979Z</time></trkpt><trkpt lat="45.67298044285735" lon="10.650919173027953"><ele>76.0</ele><time>2026-04-20T11:04:30.979Z</time></trkpt><trkpt lat="45.67281247722806" lon="10.651019068168441"><ele>76.0</ele><time>2026-04-20T11:04:31.979Z</time></trkpt><trkpt lat="45.67264712788107" lon="10.651113021979327"><ele>76.0</ele><time>2026-04-20T11:04:32.979Z</time></trkpt><trkpt lat="45.67248214355141" lon="10.651202625956568"><ele>75.33333333333333</ele><time>2026-04-20T11:04:33.979Z</time></trkpt><trkpt lat="45.672313724426935" lon="10.651292440903415"><ele>74.66666666666667</ele><time>2026-04-20T11:04:34.979Z</time></trkpt><trkpt lat="45.672150561076776" lon="10.65137924130594"><ele>74.0</ele><time>2026-04-20T11:04:35.979Z</time></trkpt><trkpt lat="45.672000884858775" lon="10.651442552911815"><ele>75.0</ele><time>2026-04-20T11:04:36.979Z</time></trkpt><trkpt lat="45.671854051570556" lon="10.651480608593634"><ele>76.0</ele><time>2026-04-20T11:04:37.979Z</time></trkpt><trkpt lat="45.671700048919355" lon="10.65150937892598"><ele>77.0</ele><time>2026-04-20T11:04:38.979Z</time></trkpt><trkpt lat="45.671545581353044" lon="10.651512844715892"><ele>77.0</ele><time>2026-04-20T11:04:39.979Z</time></trkpt><trkpt lat="45.67140332311277" lon="10.65149865983622"><ele>77.0</ele><time>2026-04-20T11:04:40.979Z</time></trkpt><trkpt lat="45.67126926505421" lon="10.651468436885454"><ele>77.0</ele><time>2026-04-20T11:04:41.979Z</time></trkpt><trkpt lat="45.67113921185162" lon="10.651430248361756"><ele>77.0</ele><time>2026-04-20T11:04:42.979Z</time></trkpt><trkpt lat="45.67101407106712" lon="10.651381501668473"><ele>76.75</ele><time>2026-04-20T11:04:43.979Z</time></trkpt><trkpt lat="45.67088934827836" lon="10.651331162112594"><ele>76.5</ele><time>2026-04-20T11:04:44.979Z</time></trkpt><trkpt lat="45.670770438512676" lon="10.651274285977394"><ele>76.25</ele><time>2026-04-20T11:04:45.979Z</time></trkpt><trkpt lat="45.67065807388998" lon="10.65119392077211"><ele>76.0</ele><time>2026-04-20T11:04:46.979Z</time></trkpt><trkpt lat="45.670548770363204" lon="10.651085444780906"><ele>76.75</ele><time>2026-04-20T11:04:47.979Z</time></trkpt><trkpt lat="45.67044481436534" lon="10.650955155107555"><ele>77.5</ele><time>2026-04-20T11:04:48.979Z</time></trkpt><trkpt lat="45.67035513657927" lon="10.650836818157144"><ele>78.25</ele><time>2026-04-20T11:04:49.979Z</time></trkpt><trkpt lat="45.67026998488881" lon="10.650725010605955"><ele>79.0</ele><time>2026-04-20T11:04:50.979Z</time></trkpt><trkpt lat="45.670171748307745" lon="10.650601616839733"><ele>79.0</ele><time>2026-04-20T11:04:51.979Z</time></trkpt><trkpt lat="45.67007186793234" lon="10.650482110747157"><ele>79.0</ele><time>2026-04-20T11:04:52.979Z</time></trkpt><trkpt lat="45.66996318882342" lon="10.650394537334634"><ele>79.0</ele><time>2026-04-20T11:04:53.979Z</time></trkpt><trkpt lat="45.66985052960331" lon="10.650305226055737"><ele>79.0</ele><time>2026-04-20T11:04:54.979Z</time></trkpt><trkpt lat="45.669731364066934" lon="10.65022623635829"><ele>78.75</ele><time>2026-04-20T11:04:55.979Z</time></trkpt><trkpt lat="45.66960297608292" lon="10.6501461414801"><ele>78.5</ele><time>2026-04-20T11:04:56.978Z</time></trkpt><trkpt lat="45.66945046597071" lon="10.650071180422023"><ele>78.25</ele><time>2026-04-20T11:04:57.978Z</time></trkpt><trkpt lat="45.66931559839157" lon="10.65000550886617"><ele>78.0</ele><time>2026-04-20T11:04:58.978Z</time></trkpt><trkpt lat="45.669192311923034" lon="10.649938571423682"><ele>78.0</ele><time>2026-04-20T11:04:59.978Z</time></trkpt><trkpt lat="45.66907641582122" lon="10.64987393072387"><ele>78.0</ele><time>2026-04-20T11:05:00.978Z</time></trkpt><trkpt lat="45.6689534590953" lon="10.64980434504627"><ele>78.0</ele><time>2026-04-20T11:05:01.978Z</time></trkpt><trkpt lat="45.66882107966805" lon="10.649738157237563"><ele>78.0</ele><time>2026-04-20T11:05:02.978Z</time></trkpt><trkpt lat="45.66869352672332" lon="10.649672924625238"><ele>76.5</ele><time>2026-04-20T11:05:03.978Z</time></trkpt><trkpt lat="45.66857998405205" lon="10.649608837355606"><ele>75.0</ele><time>2026-04-20T11:05:04.978Z</time></trkpt><trkpt lat="45.668475822226235" lon="10.649549067686618"><ele>73.5</ele><time>2026-04-20T11:05:05.978Z</time></trkpt><trkpt lat="45.66835769648642" lon="10.64948892323989"><ele>72.0</ele><time>2026-04-20T11:05:06.978Z</time></trkpt><trkpt lat="45.66823076144428" lon="10.649421974323"><ele>75.5</ele><time>2026-04-20T11:05:07.978Z</time></trkpt><trkpt lat="45.668125297936285" lon="10.649363726224285"><ele>79.0</ele><time>2026-04-20T11:05:08.978Z</time></trkpt><trkpt lat="45.668011474909896" lon="10.649299175151588"><ele>82.5</ele><time>2026-04-20T11:05:09.978Z</time></trkpt><trkpt lat="45.667900290008866" lon="10.649219873930113"><ele>86.0</ele><time>2026-04-20T11:05:10.978Z</time></trkpt><trkpt lat="45.66777952230215" lon="10.649111455297321"><ele>84.0</ele><time>2026-04-20T11:05:11.978Z</time></trkpt><trkpt lat="45.66765635045834" lon="10.648972355952088"><ele>82.0</ele><time>2026-04-20T11:05:12.978Z</time></trkpt><trkpt lat="45.66754979656609" lon="10.648832569225899"><ele>80.0</ele><time>2026-04-20T11:05:13.978Z</time></trkpt><trkpt lat="45.66744266969063" lon="10.64869241294003"><ele>78.0</ele><time>2026-04-20T11:05:14.978Z</time></trkpt><trkpt lat="45.667342679798914" lon="10.64855333636487"><ele>83.66666666666667</ele><time>2026-04-20T11:05:15.978Z</time></trkpt><trkpt lat="45.66722861110772" lon="10.648411166840624"><ele>89.33333333333334</ele><time>2026-04-20T11:05:16.978Z</time></trkpt><trkpt lat="45.66711520522668" lon="10.648265269480051"><ele>95.0</ele><time>2026-04-20T11:05:17.978Z</time></trkpt><trkpt lat="45.66699923169901" lon="10.648129944660456"><ele>92.0</ele><time>2026-04-20T11:05:18.978Z</time></trkpt><trkpt lat="45.666875777832644" lon="10.648006240013206"><ele>89.0</ele><time>2026-04-20T11:05:19.978Z</time></trkpt><trkpt lat="45.6667472679228" lon="10.647924485392533"><ele>86.0</ele><time>2026-04-20T11:05:20.978Z</time></trkpt><trkpt lat="45.66660221252956" lon="10.647852828570912"><ele>83.0</ele><time>2026-04-20T11:05:21.978Z</time></trkpt><trkpt lat="45.66646944073615" lon="10.647764815702077"><ele>83.25</ele><time>2026-04-20T11:05:22.978Z</time></trkpt><trkpt lat="45.66634642116926" lon="10.647660533611852"><ele>83.5</ele><time>2026-04-20T11:05:23.978Z</time></trkpt><trkpt lat="45.6662157488657" lon="10.647546596000508"><ele>83.75</ele><time>2026-04-20T11:05:24.978Z</time></trkpt><trkpt lat="45.66608771820319" lon="10.647445351209432"><ele>84.0</ele><time>2026-04-20T11:05:25.978Z</time></trkpt><trkpt lat="45.665961137183245" lon="10.647346112809968"><ele>84.0</ele><time>2026-04-20T11:05:26.978Z</time></trkpt><trkpt lat="45.66584701002109" lon="10.647247030049451"><ele>84.0</ele><time>2026-04-20T11:05:27.978Z</time></trkpt><trkpt lat="45.665736484021366" lon="10.647157908003905"><ele>84.0</ele><time>2026-04-20T11:05:28.979Z</time></trkpt><trkpt lat="45.6656265910046" lon="10.647051158575247"><ele>84.0</ele><time>2026-04-20T11:05:29.979Z</time></trkpt><trkpt lat="45.665514697954606" lon="10.646925088346144"><ele>82.0</ele><time>2026-04-20T11:05:30.979Z</time></trkpt><trkpt lat="45.665399934850605" lon="10.64678390927339"><ele>80.0</ele><time>2026-04-20T11:05:31.978Z</time></trkpt><trkpt lat="45.66528668868974" lon="10.64661932457433"><ele>78.0</ele><time>2026-04-20T11:05:32.978Z</time></trkpt><trkpt lat="45.665185120084494" lon="10.646438741746914"><ele>78.0</ele><time>2026-04-20T11:05:33.978Z</time></trkpt><trkpt lat="45.66508837089771" lon="10.646242476485455"><ele>78.0</ele><time>2026-04-20T11:05:34.979Z</time></trkpt><trkpt lat="45.66499083548348" lon="10.64605366884116"><ele>78.0</ele><time>2026-04-20T11:05:35.979Z</time></trkpt><trkpt lat="45.664896738413425" lon="10.64587175983093"><ele>82.75</ele><time>2026-04-20T11:05:36.979Z</time></trkpt><trkpt lat="45.664794571174426" lon="10.645704524123056"><ele>87.5</ele><time>2026-04-20T11:05:37.979Z</time></trkpt><trkpt lat="45.66468576703003" lon="10.645545709594302"><ele>92.25</ele><time>2026-04-20T11:05:38.979Z</time></trkpt><trkpt lat="45.664581540412655" lon="10.64542072332218"><ele>97.0</ele><time>2026-04-20T11:05:39.979Z</time></trkpt><trkpt lat="45.66446011491301" lon="10.645316029449488"><ele>99.66666666666667</ele><time>2026-04-20T11:05:40.979Z</time></trkpt><trkpt lat="45.66432743673088" lon="10.645227262075615"><ele>102.33333333333334</ele><time>2026-04-20T11:05:41.979Z</time></trkpt><trkpt lat="45.664184824800074" lon="10.645164956417615"><ele>105.0</ele><time>2026-04-20T11:05:42.979Z</time></trkpt><trkpt lat="45.6640330818076" lon="10.645113163716301"><ele>105.0</ele><time>2026-04-20T11:05:43.979Z</time></trkpt><trkpt lat="45.66390151523219" lon="10.6450329004577"><ele>105.0</ele><time>2026-04-20T11:05:44.979Z</time></trkpt><trkpt lat="45.663772400417265" lon="10.644937108994199"><ele>105.0</ele><time>2026-04-20T11:05:45.979Z</time></trkpt><trkpt lat="45.66363513506032" lon="10.644842352568853"><ele>105.0</ele><time>2026-04-20T11:05:46.979Z</time></trkpt><trkpt lat="45.663501329784424" lon="10.644735212397695"><ele>106.0</ele><time>2026-04-20T11:05:47.979Z</time></trkpt><trkpt lat="45.663369881195464" lon="10.644606017961136"><ele>107.0</ele><time>2026-04-20T11:05:48.979Z</time></trkpt><trkpt lat="45.66324593596477" lon="10.644461118772957"><ele>108.0</ele><time>2026-04-20T11:05:49.979Z</time></trkpt><trkpt lat="45.66312945681736" lon="10.644334576554684"><ele>108.0</ele><time>2026-04-20T11:05:50.979Z</time></trkpt><trkpt lat="45.66302237752314" lon="10.644204412780589"><ele>108.0</ele><time>2026-04-20T11:05:51.979Z</time></trkpt><trkpt lat="45.66290587756433" lon="10.644062927028322"><ele>108.0</ele><time>2026-04-20T11:05:52.979Z</time></trkpt><trkpt lat="45.662800166195645" lon="10.643921906070258"><ele>108.0</ele><time>2026-04-20T11:05:53.979Z</time></trkpt><trkpt lat="45.66269588645306" lon="10.643801760398471"><ele>105.25</ele><time>2026-04-20T11:05:54.979Z</time></trkpt><trkpt lat="45.66258850463556" lon="10.643695186904491"><ele>102.5</ele><time>2026-04-20T11:05:55.979Z</time></trkpt><trkpt lat="45.66247714764715" lon="10.643581209179711"><ele>99.75</ele><time>2026-04-20T11:05:56.979Z</time></trkpt><trkpt lat="45.66240444767953" lon="10.643425203181199"><ele>97.0</ele><time>2026-04-20T11:05:57.979Z</time></trkpt><trkpt lat="45.662294708692016" lon="10.643305604155183"><ele>97.0</ele><time>2026-04-20T11:05:58.979Z</time></trkpt><trkpt lat="45.66218811509563" lon="10.643190790881734"><ele>97.0</ele><time>2026-04-20T11:05:59.979Z</time></trkpt><trkpt lat="45.662074522216564" lon="10.643075324718358"><ele>97.0</ele><time>2026-04-20T11:06:00.979Z</time></trkpt><trkpt lat="45.661951790176545" lon="10.642942828623532"><ele>97.0</ele><time>2026-04-20T11:06:01.979Z</time></trkpt><trkpt lat="45.661832319056934" lon="10.642816140101445"><ele>95.25</ele><time>2026-04-20T11:06:02.979Z</time></trkpt><trkpt lat="45.66171434637462" lon="10.642687544331116"><ele>93.5</ele><time>2026-04-20T11:06:03.979Z</time></trkpt><trkpt lat="45.661599168016025" lon="10.642555621823691"><ele>91.75</ele><time>2026-04-20T11:06:04.979Z</time></trkpt><trkpt lat="45.661489447414695" lon="10.642433434882486"><ele>90.0</ele><time>2026-04-20T11:06:05.979Z</time></trkpt><trkpt lat="45.661379705898845" lon="10.642311922992263"><ele>90.0</ele><time>2026-04-20T11:06:06.979Z</time></trkpt><trkpt lat="45.66126518746935" lon="10.6421812424999"><ele>90.0</ele><time>2026-04-20T11:06:07.979Z</time></trkpt><trkpt lat="45.661150297029685" lon="10.642034433706735"><ele>90.0</ele><time>2026-04-20T11:06:08.979Z</time></trkpt><trkpt lat="45.66104579811661" lon="10.641870324928707"><ele>87.66666666666667</ele><time>2026-04-20T11:06:09.979Z</time></trkpt><trkpt lat="45.660940593014885" lon="10.641699426885845"><ele>85.33333333333334</ele><time>2026-04-20T11:06:10.979Z</time></trkpt><trkpt lat="45.66083285464996" lon="10.641534166658628"><ele>83.0</ele><time>2026-04-20T11:06:11.979Z</time></trkpt><trkpt lat="45.660734012735325" lon="10.641387750009946"><ele>83.0</ele><time>2026-04-20T11:06:12.979Z</time></trkpt><trkpt lat="45.660637701959054" lon="10.641252069909118"><ele>83.0</ele><time>2026-04-20T11:06:13.979Z</time></trkpt><trkpt lat="45.66055156839646" lon="10.641119072232147"><ele>83.0</ele><time>2026-04-20T11:06:14.979Z</time></trkpt><trkpt lat="45.660460480043376" lon="10.640982729384275"><ele>83.0</ele><time>2026-04-20T11:06:15.979Z</time></trkpt><trkpt lat="45.66036389084016" lon="10.640831072943383"><ele>79.33333333333334</ele><time>2026-04-20T11:06:16.979Z</time></trkpt><trkpt lat="45.66026509337198" lon="10.640676859498521"><ele>75.66666666666667</ele><time>2026-04-20T11:06:17.979Z</time></trkpt><trkpt lat="45.66016346785053" lon="10.640513659486782"><ele>72.0</ele><time>2026-04-20T11:06:18.979Z</time></trkpt><trkpt lat="45.66006088726974" lon="10.640341852365205"><ele>76.0</ele><time>2026-04-20T11:06:19.979Z</time></trkpt><trkpt lat="45.65995651631678" lon="10.640184742597176"><ele>80.0</ele><time>2026-04-20T11:06:20.979Z</time></trkpt><trkpt lat="45.6598702108977" lon="10.640036959852672"><ele>84.0</ele><time>2026-04-20T11:06:21.979Z</time></trkpt><trkpt lat="45.65978811616955" lon="10.639895860633514"><ele>88.0</ele><time>2026-04-20T11:06:22.979Z</time></trkpt><trkpt lat="45.65969539659035" lon="10.639744558127292"><ele>88.0</ele><time>2026-04-20T11:06:23.979Z</time></trkpt><trkpt lat="45.659608938874726" lon="10.639590264625939"><ele>88.0</ele><time>2026-04-20T11:06:24.979Z</time></trkpt><trkpt lat="45.65953244564825" lon="10.639441510999427"><ele>88.0</ele><time>2026-04-20T11:06:25.979Z</time></trkpt><trkpt lat="45.65948347046376" lon="10.639289465476345"><ele>88.0</ele><time>2026-04-20T11:06:26.979Z</time></trkpt><trkpt lat="45.659439933488095" lon="10.639122331253487"><ele>86.75</ele><time>2026-04-20T11:06:27.979Z</time></trkpt><trkpt lat="45.65937663442977" lon="10.638954781884214"><ele>85.5</ele><time>2026-04-20T11:06:28.979Z</time></trkpt><trkpt lat="45.65927772485677" lon="10.638805496342043"><ele>84.25</ele><time>2026-04-20T11:06:29.979Z</time></trkpt><trkpt lat="45.659152703346216" lon="10.6386698891158"><ele>83.0</ele><time>2026-04-20T11:06:30.979Z</time></trkpt><trkpt lat="45.659038249727956" lon="10.638533374182373"><ele>85.5</ele><time>2026-04-20T11:06:31.979Z</time></trkpt><trkpt lat="45.658940029139295" lon="10.638414609054283"><ele>88.0</ele><time>2026-04-20T11:06:32.979Z</time></trkpt><trkpt lat="45.65885062401548" lon="10.638311567230348"><ele>90.5</ele><time>2026-04-20T11:06:33.979Z</time></trkpt><trkpt lat="45.658768017266326" lon="10.638210482368834"><ele>93.0</ele><time>2026-04-20T11:06:34.979Z</time></trkpt><trkpt lat="45.658680579260135" lon="10.638081534463094"><ele>91.75</ele><time>2026-04-20T11:06:35.979Z</time></trkpt><trkpt lat="45.65859075420145" lon="10.637924930896984"><ele>90.5</ele><time>2026-04-20T11:06:36.979Z</time></trkpt><trkpt lat="45.65849684851157" lon="10.637774894148787"><ele>89.25</ele><time>2026-04-20T11:06:37.979Z</time></trkpt><trkpt lat="45.65840820735698" lon="10.637646742138863"><ele>88.0</ele><time>2026-04-20T11:06:38.979Z</time></trkpt><trkpt lat="45.65831316677099" lon="10.637533026110876"><ele>88.0</ele><time>2026-04-20T11:06:39.979Z</time></trkpt><trkpt lat="45.65820734441803" lon="10.637412715977122"><ele>88.0</ele><time>2026-04-20T11:06:40.979Z</time></trkpt><trkpt lat="45.65809364741251" lon="10.637293913540807"><ele>88.0</ele><time>2026-04-20T11:06:41.979Z</time></trkpt><trkpt lat="45.6579911393683" lon="10.63716925461895"><ele>88.0</ele><time>2026-04-20T11:06:42.979Z</time></trkpt><trkpt lat="45.6578831736754" lon="10.637030206330712"><ele>85.5</ele><time>2026-04-20T11:06:43.979Z</time></trkpt><trkpt lat="45.65777324274423" lon="10.636878149152182"><ele>83.0</ele><time>2026-04-20T11:06:44.979Z</time></trkpt><trkpt lat="45.65766414944402" lon="10.636725584108326"><ele>80.5</ele><time>2026-04-20T11:06:45.979Z</time></trkpt><trkpt lat="45.65756519384736" lon="10.636590682991244"><ele>78.0</ele><time>2026-04-20T11:06:46.979Z</time></trkpt><trkpt lat="45.65746600583561" lon="10.636460382914567"><ele>78.0</ele><time>2026-04-20T11:06:47.979Z</time></trkpt><trkpt lat="45.65736445140348" lon="10.636324287165817"><ele>78.0</ele><time>2026-04-20T11:06:48.979Z</time></trkpt><trkpt lat="45.65725575727678" lon="10.636189201997821"><ele>78.0</ele><time>2026-04-20T11:06:49.979Z</time></trkpt><trkpt lat="45.657155514783156" lon="10.636054566399165"><ele>78.0</ele><time>2026-04-20T11:06:50.979Z</time></trkpt><trkpt lat="45.65704331947859" lon="10.635943669061627"><ele>80.5</ele><time>2026-04-20T11:06:51.979Z</time></trkpt><trkpt lat="45.65692142789186" lon="10.63585540468743"><ele>83.0</ele><time>2026-04-20T11:06:52.979Z</time></trkpt><trkpt lat="45.65680208865434" lon="10.635770611895154"><ele>85.5</ele><time>2026-04-20T11:06:53.979Z</time></trkpt><trkpt lat="45.6566874155651" lon="10.63566553093871"><ele>88.0</ele><time>2026-04-20T11:06:54.979Z</time></trkpt><trkpt lat="45.656574867422236" lon="10.635553508794528"><ele>88.0</ele><time>2026-04-20T11:06:55.979Z</time></trkpt><trkpt lat="45.656479139356065" lon="10.635452495826554"><ele>88.0</ele><time>2026-04-20T11:06:56.979Z</time></trkpt><trkpt lat="45.65638477463442" lon="10.635353674951467"><ele>88.0</ele><time>2026-04-20T11:06:57.979Z</time></trkpt><trkpt lat="45.65629084259272" lon="10.63524875161612"><ele>88.0</ele><time>2026-04-20T11:06:58.979Z</time></trkpt><trkpt lat="45.656194123712595" lon="10.635146811762478"><ele>85.5</ele><time>2026-04-20T11:06:59.979Z</time></trkpt><trkpt lat="45.65609111762262" lon="10.635019830720413"><ele>83.0</ele><time>2026-04-20T11:07:00.979Z</time></trkpt><trkpt lat="45.65598755113113" lon="10.634884677238503"><ele>80.5</ele><time>2026-04-20T11:07:01.979Z</time></trkpt><trkpt lat="45.65588122725885" lon="10.63473041404358"><ele>78.0</ele><time>2026-04-20T11:07:02.979Z</time></trkpt><trkpt lat="45.655794657843614" lon="10.634574885014867"><ele>82.75</ele><time>2026-04-20T11:07:03.979Z</time></trkpt><trkpt lat="45.65572908929781" lon="10.63441974948542"><ele>87.5</ele><time>2026-04-20T11:07:04.979Z</time></trkpt><trkpt lat="45.65566127584907" lon="10.634279464350884"><ele>92.25</ele><time>2026-04-20T11:07:05.979Z</time></trkpt><trkpt lat="45.65557171760302" lon="10.634112793175461"><ele>97.0</ele><time>2026-04-20T11:07:06.979Z</time></trkpt><trkpt lat="45.65546519931494" lon="10.633938420446393"><ele>97.0</ele><time>2026-04-20T11:07:07.979Z</time></trkpt><trkpt lat="45.6553643610947" lon="10.633795265748068"><ele>97.0</ele><time>2026-04-20T11:07:08.979Z</time></trkpt><trkpt lat="45.655268687853464" lon="10.633660401973493"><ele>97.0</ele><time>2026-04-20T11:07:09.979Z</time></trkpt><trkpt lat="45.655164230883614" lon="10.633511846089338"><ele>97.0</ele><time>2026-04-20T11:07:10.979Z</time></trkpt><trkpt lat="45.65506171223758" lon="10.633353682994246"><ele>97.25</ele><time>2026-04-20T11:07:11.979Z</time></trkpt><trkpt lat="45.65496490582034" lon="10.633203738162134"><ele>97.5</ele><time>2026-04-20T11:07:12.979Z</time></trkpt><trkpt lat="45.65487587678593" lon="10.633063767870457"><ele>97.75</ele><time>2026-04-20T11:07:13.979Z</time></trkpt><trkpt lat="45.65478856479696" lon="10.632928269356764"><ele>98.0</ele><time>2026-04-20T11:07:14.979Z</time></trkpt><trkpt lat="45.654704755838516" lon="10.632782835652586"><ele>98.0</ele><time>2026-04-20T11:07:15.979Z</time></trkpt><trkpt lat="45.65462745818511" lon="10.632628004624234"><ele>98.0</ele><time>2026-04-20T11:07:16.979Z</time></trkpt><trkpt lat="45.65456146782584" lon="10.632456585040302"><ele>98.0</ele><time>2026-04-20T11:07:17.979Z</time></trkpt><trkpt lat="45.65449935157617" lon="10.63227795424576"><ele>98.0</ele><time>2026-04-20T11:07:18.979Z</time></trkpt><trkpt lat="45.65443265205004" lon="10.632103184177772"><ele>94.25</ele><time>2026-04-20T11:07:19.979Z</time></trkpt><trkpt lat="45.654416309955366" lon="10.631936965789723"><ele>90.5</ele><time>2026-04-20T11:07:20.979Z</time></trkpt><trkpt lat="45.654356404112" lon="10.631787284560561"><ele>86.75</ele><time>2026-04-20T11:07:21.979Z</time></trkpt><trkpt lat="45.65429219527349" lon="10.631633408730627"><ele>83.0</ele><time>2026-04-20T11:07:22.979Z</time></trkpt><trkpt lat="45.65422655864938" lon="10.63146965871853"><ele>83.0</ele><time>2026-04-20T11:07:23.979Z</time></trkpt><trkpt lat="45.65415849112103" lon="10.63129048875641"><ele>83.0</ele><time>2026-04-20T11:07:24.979Z</time></trkpt><trkpt lat="45.65409149942326" lon="10.631139294972348"><ele>83.0</ele><time>2026-04-20T11:07:25.979Z</time></trkpt><trkpt lat="45.654040510455" lon="10.631023757524192"><ele>83.0</ele><time>2026-04-20T11:07:26.979Z</time></trkpt><trkpt lat="45.65397554305947" lon="10.6308551164523"><ele>84.0</ele><time>2026-04-20T11:07:28.979Z</time></trkpt><trkpt lat="45.65390396648368" lon="10.630722437252883"><ele>85.0</ele><time>2026-04-20T11:07:29.979Z</time></trkpt><trkpt lat="45.653811366274056" lon="10.630543498987175"><ele>86.0</ele><time>2026-04-20T11:07:30.978Z</time></trkpt><trkpt lat="45.65371776701587" lon="10.630357428687807"><ele>87.0</ele><time>2026-04-20T11:07:31.978Z</time></trkpt><trkpt lat="45.65361691412066" lon="10.630148968201674"><ele>87.0</ele><time>2026-04-20T11:07:32.978Z</time></trkpt><trkpt lat="45.65352681807709" lon="10.629977030016647"><ele>87.0</ele><time>2026-04-20T11:07:33.979Z</time></trkpt><trkpt lat="45.65344698379339" lon="10.629823091388232"><ele>87.0</ele><time>2026-04-20T11:07:34.978Z</time></trkpt><trkpt lat="45.65338492774013" lon="10.629705329622592"><ele>87.0</ele><time>2026-04-20T11:07:35.978Z</time></trkpt><trkpt lat="45.65333336386705" lon="10.629594053436689"><ele>87.0</ele><time>2026-04-20T11:07:36.979Z</time></trkpt><trkpt lat="45.653281666365956" lon="10.62949546406402"><ele>87.0</ele><time>2026-04-20T11:07:37.978Z</time></trkpt><trkpt lat="45.65321995917753" lon="10.629391864093792"><ele>87.0</ele><time>2026-04-20T11:07:38.978Z</time></trkpt><trkpt lat="45.65312665339653" lon="10.629245175910421"><ele>87.0</ele><time>2026-04-20T11:07:39.978Z</time></trkpt><trkpt lat="45.65301958041516" lon="10.629078458800842"><ele>82.33333333333333</ele><time>2026-04-20T11:07:40.978Z</time></trkpt><trkpt lat="45.652903085291626" lon="10.62888215122263"><ele>77.66666666666666</ele><time>2026-04-20T11:07:41.978Z</time></trkpt><trkpt lat="45.652787776819046" lon="10.628739135376076"><ele>73.0</ele><time>2026-04-20T11:07:42.978Z</time></trkpt><trkpt lat="45.65264933406111" lon="10.6286155850932"><ele>84.33333333333333</ele><time>2026-04-20T11:07:43.978Z</time></trkpt><trkpt lat="45.65248772422499" lon="10.62850427328635"><ele>95.66666666666666</ele><time>2026-04-20T11:07:44.978Z</time></trkpt><trkpt lat="45.65232395399461" lon="10.628380439151348"><ele>107.0</ele><time>2026-04-20T11:07:45.978Z</time></trkpt><trkpt lat="45.652171416621094" lon="10.628254159869066"><ele>107.0</ele><time>2026-04-20T11:07:46.978Z</time></trkpt><trkpt lat="45.65201315942989" lon="10.628101539547226"><ele>107.0</ele><time>2026-04-20T11:07:47.978Z</time></trkpt><trkpt lat="45.65186502326034" lon="10.62793225506736"><ele>107.0</ele><time>2026-04-20T11:07:48.978Z</time></trkpt><trkpt lat="45.651725182243695" lon="10.627782420845962"><ele>105.0</ele><time>2026-04-20T11:07:49.978Z</time></trkpt><trkpt lat="45.65157803056343" lon="10.627629548321663"><ele>103.0</ele><time>2026-04-20T11:07:50.978Z</time></trkpt><trkpt lat="45.6514440022363" lon="10.627476139449199"><ele>101.0</ele><time>2026-04-20T11:07:51.978Z</time></trkpt><trkpt lat="45.65132627444703" lon="10.62731998560921"><ele>101.0</ele><time>2026-04-20T11:07:52.978Z</time></trkpt><trkpt lat="45.65120055436473" lon="10.627137738019048"><ele>101.0</ele><time>2026-04-20T11:07:53.978Z</time></trkpt><trkpt lat="45.651077629280145" lon="10.626928459223471"><ele>101.0</ele><time>2026-04-20T11:07:54.978Z</time></trkpt><trkpt lat="45.65095286212731" lon="10.626711930912272"><ele>98.33333333333333</ele><time>2026-04-20T11:07:55.978Z</time></trkpt><trkpt lat="45.6508261687172" lon="10.626482307095229"><ele>95.66666666666666</ele><time>2026-04-20T11:07:56.978Z</time></trkpt><trkpt lat="45.650716201030335" lon="10.626266443747088"><ele>93.0</ele><time>2026-04-20T11:07:57.978Z</time></trkpt><trkpt lat="45.6505932787119" lon="10.626049348758439"><ele>93.0</ele><time>2026-04-20T11:07:58.978Z</time></trkpt><trkpt lat="45.65047340985651" lon="10.625833329327008"><ele>93.0</ele><time>2026-04-20T11:07:59.978Z</time></trkpt><trkpt lat="45.65034260332494" lon="10.625623109670306"><ele>93.0</ele><time>2026-04-20T11:08:00.978Z</time></trkpt><trkpt lat="45.65020197051178" lon="10.625432381824067"><ele>90.0</ele><time>2026-04-20T11:08:01.978Z</time></trkpt><trkpt lat="45.650061036417874" lon="10.625255855772863"><ele>87.0</ele><time>2026-04-20T11:08:02.978Z</time></trkpt><trkpt lat="45.64992197593081" lon="10.625068586777472"><ele>84.0</ele><time>2026-04-20T11:08:03.978Z</time></trkpt><trkpt lat="45.64979030805605" lon="10.624860540433158"><ele>84.0</ele><time>2026-04-20T11:08:04.978Z</time></trkpt><trkpt lat="45.64966137647749" lon="10.62464283646504"><ele>84.0</ele><time>2026-04-20T11:08:05.978Z</time></trkpt><trkpt lat="45.64954165508587" lon="10.624429741795502"><ele>84.0</ele><time>2026-04-20T11:08:06.978Z</time></trkpt><trkpt lat="45.649429244728346" lon="10.624213459905429"><ele>85.66666666666667</ele><time>2026-04-20T11:08:07.978Z</time></trkpt><trkpt lat="45.64932068991313" lon="10.623976129492661"><ele>87.33333333333334</ele><time>2026-04-20T11:08:08.978Z</time></trkpt><trkpt lat="45.64921767439281" lon="10.62373762027411"><ele>89.0</ele><time>2026-04-20T11:08:09.978Z</time></trkpt><trkpt lat="45.64911685670964" lon="10.623493167680005"><ele>89.0</ele><time>2026-04-20T11:08:10.978Z</time></trkpt><trkpt lat="45.64901362974637" lon="10.62326399259968"><ele>89.0</ele><time>2026-04-20T11:08:11.978Z</time></trkpt><trkpt lat="45.648898831425015" lon="10.623049469020689"><ele>89.0</ele><time>2026-04-20T11:08:12.978Z</time></trkpt><trkpt lat="45.648780224373645" lon="10.622838480093431"><ele>84.66666666666667</ele><time>2026-04-20T11:08:13.978Z</time></trkpt><trkpt lat="45.648651224335" lon="10.622634557628007"><ele>80.33333333333333</ele><time>2026-04-20T11:08:14.978Z</time></trkpt><trkpt lat="45.648528889039774" lon="10.622469299903502"><ele>76.0</ele><time>2026-04-20T11:08:15.978Z</time></trkpt><trkpt lat="45.6483971570868" lon="10.622300096231868"><ele>76.0</ele><time>2026-04-20T11:08:16.978Z</time></trkpt><trkpt lat="45.64826280048297" lon="10.622127444994183"><ele>76.0</ele><time>2026-04-20T11:08:17.978Z</time></trkpt><trkpt lat="45.64817332735179" lon="10.621932107722166"><ele>76.0</ele><time>2026-04-20T11:08:18.978Z</time></trkpt><trkpt lat="45.64806775626552" lon="10.621736580412355"><ele>77.66666666666666</ele><time>2026-04-20T11:08:19.978Z</time></trkpt><trkpt lat="45.64796401466852" lon="10.621520673802744"><ele>79.33333333333333</ele><time>2026-04-20T11:08:20.978Z</time></trkpt><trkpt lat="45.647864822632584" lon="10.621304327089796"><ele>81.0</ele><time>2026-04-20T11:08:21.978Z</time></trkpt><trkpt lat="45.64776047302789" lon="10.621086204113457"><ele>81.0</ele><time>2026-04-20T11:08:22.978Z</time></trkpt><trkpt lat="45.64765329794972" lon="10.620862597882851"><ele>81.0</ele><time>2026-04-20T11:08:23.978Z</time></trkpt><trkpt lat="45.64755121407759" lon="10.620643323707373"><ele>81.0</ele><time>2026-04-20T11:08:24.978Z</time></trkpt><trkpt lat="45.64745068752188" lon="10.620425893697734"><ele>90.66666666666666</ele><time>2026-04-20T11:08:25.978Z</time></trkpt><trkpt lat="45.64734550495153" lon="10.620204395716001"><ele>100.33333333333333</ele><time>2026-04-20T11:08:26.978Z</time></trkpt><trkpt lat="45.64723671235039" lon="10.619979560615034"><ele>110.0</ele><time>2026-04-20T11:08:27.978Z</time></trkpt><trkpt lat="45.64713446987039" lon="10.61974745326097"><ele>110.0</ele><time>2026-04-20T11:08:28.978Z</time></trkpt><trkpt lat="45.64704207016841" lon="10.619539961675448"><ele>110.0</ele><time>2026-04-20T11:08:29.978Z</time></trkpt><trkpt lat="45.64694227467164" lon="10.61932324330674"><ele>110.0</ele><time>2026-04-20T11:08:30.978Z</time></trkpt><trkpt lat="45.64683947232217" lon="10.619103700600514"><ele>110.33333333333333</ele><time>2026-04-20T11:08:31.978Z</time></trkpt><trkpt lat="45.646726088703545" lon="10.618898612409275"><ele>110.66666666666666</ele><time>2026-04-20T11:08:32.978Z</time></trkpt><trkpt lat="45.64660336445474" lon="10.618706405479127"><ele>111.0</ele><time>2026-04-20T11:08:33.978Z</time></trkpt><trkpt lat="45.646488567865674" lon="10.618531140447919"><ele>111.0</ele><time>2026-04-20T11:08:34.978Z</time></trkpt><trkpt lat="45.646374867521104" lon="10.618346398200385"><ele>111.0</ele><time>2026-04-20T11:08:35.978Z</time></trkpt><trkpt lat="45.646272649289244" lon="10.618163656292765"><ele>111.0</ele><time>2026-04-20T11:08:36.978Z</time></trkpt><trkpt lat="45.64619218775498" lon="10.617965605698457"><ele>106.0</ele><time>2026-04-20T11:08:37.978Z</time></trkpt><trkpt lat="45.64610868198671" lon="10.617810923116195"><ele>101.0</ele><time>2026-04-20T11:08:38.978Z</time></trkpt><trkpt lat="45.64604172315371" lon="10.617663615475585"><ele>96.0</ele><time>2026-04-20T11:08:39.978Z</time></trkpt><trkpt lat="45.64595458399387" lon="10.617531391667928"><ele>91.0</ele><time>2026-04-20T11:08:40.978Z</time></trkpt><trkpt lat="45.6458378936913" lon="10.617427741340967"><ele>91.0</ele><time>2026-04-20T11:08:41.978Z</time></trkpt><trkpt lat="45.64569055718632" lon="10.617368453814356"><ele>91.0</ele><time>2026-04-20T11:08:42.978Z</time></trkpt><trkpt lat="45.645544294872884" lon="10.617325659983498"><ele>91.0</ele><time>2026-04-20T11:08:43.978Z</time></trkpt><trkpt lat="45.64541430912256" lon="10.617258910809449"><ele>91.0</ele><time>2026-04-20T11:08:44.978Z</time></trkpt><trkpt lat="45.645292133872836" lon="10.617214187303492"><ele>87.5</ele><time>2026-04-20T11:08:45.978Z</time></trkpt><trkpt lat="45.64515833002061" lon="10.617188710307254"><ele>84.0</ele><time>2026-04-20T11:08:46.978Z</time></trkpt><trkpt lat="45.6450264002704" lon="10.617140325497068"><ele>80.5</ele><time>2026-04-20T11:08:47.978Z</time></trkpt><trkpt lat="45.64489323461686" lon="10.61709395291414"><ele>77.0</ele><time>2026-04-20T11:08:48.978Z</time></trkpt><trkpt lat="45.64477003779353" lon="10.617045462494692"><ele>77.0</ele><time>2026-04-20T11:08:49.978Z</time></trkpt><trkpt lat="45.6446551411525" lon="10.616995040370997"><ele>77.0</ele><time>2026-04-20T11:08:50.978Z</time></trkpt><trkpt lat="45.644531169843766" lon="10.616924803810324"><ele>77.0</ele><time>2026-04-20T11:08:51.978Z</time></trkpt><trkpt lat="45.6444047185125" lon="10.616829826645517"><ele>77.0</ele><time>2026-04-20T11:08:52.978Z</time></trkpt><trkpt lat="45.644276690441465" lon="10.616709590239745"><ele>78.33333333333334</ele><time>2026-04-20T11:08:53.978Z</time></trkpt><trkpt lat="45.64415931757007" lon="10.616562884227257"><ele>79.66666666666667</ele><time>2026-04-20T11:08:54.978Z</time></trkpt><trkpt lat="45.64404374519204" lon="10.616418252109613"><ele>81.0</ele><time>2026-04-20T11:08:55.978Z</time></trkpt><trkpt lat="45.643931736365936" lon="10.616270616272274"><ele>81.25</ele><time>2026-04-20T11:08:56.978Z</time></trkpt><trkpt lat="45.64383071763602" lon="10.61612393905793"><ele>81.5</ele><time>2026-04-20T11:08:57.978Z</time></trkpt><trkpt lat="45.64373710751186" lon="10.615989585095074"><ele>81.75</ele><time>2026-04-20T11:08:58.978Z</time></trkpt><trkpt lat="45.64364674943524" lon="10.615861893597835"><ele>82.0</ele><time>2026-04-20T11:08:59.978Z</time></trkpt><trkpt lat="45.643556531798176" lon="10.615729071181327"><ele>81.75</ele><time>2026-04-20T11:09:00.978Z</time></trkpt><trkpt lat="45.64347140675824" lon="10.615610029427526"><ele>81.5</ele><time>2026-04-20T11:09:01.978Z</time></trkpt><trkpt lat="45.64338073265383" lon="10.61549043418425"><ele>81.25</ele><time>2026-04-20T11:09:02.978Z</time></trkpt><trkpt lat="45.643290350532055" lon="10.615370260152664"><ele>81.0</ele><time>2026-04-20T11:09:03.978Z</time></trkpt><trkpt lat="45.64320387455698" lon="10.61524433421599"><ele>81.0</ele><time>2026-04-20T11:09:04.978Z</time></trkpt><trkpt lat="45.64312526759675" lon="10.615123647757137"><ele>81.0</ele><time>2026-04-20T11:09:05.978Z</time></trkpt><trkpt lat="45.64304647593964" lon="10.615000104918277"><ele>81.0</ele><time>2026-04-20T11:09:06.978Z</time></trkpt><trkpt lat="45.642964412884226" lon="10.614878556868852"><ele>81.0</ele><time>2026-04-20T11:09:07.978Z</time></trkpt><trkpt lat="45.642891077364986" lon="10.614775309831774"><ele>81.0</ele><time>2026-04-20T11:09:08.978Z</time></trkpt><trkpt lat="45.64282113099321" lon="10.614673931858576"><ele>81.0</ele><time>2026-04-20T11:09:09.978Z</time></trkpt><trkpt lat="45.64275293357367" lon="10.614572864410658"><ele>81.0</ele><time>2026-04-20T11:09:10.978Z</time></trkpt><trkpt lat="45.64269294764303" lon="10.614472192487233"><ele>81.0</ele><time>2026-04-20T11:09:11.978Z</time></trkpt><trkpt lat="45.642637001238235" lon="10.614378610060482"><ele>81.0</ele><time>2026-04-20T11:09:12.978Z</time></trkpt><trkpt lat="45.642563742624446" lon="10.614246256643849"><ele>80.83333333333333</ele><time>2026-04-20T11:09:14.978Z</time></trkpt><trkpt lat="45.64255339172404" lon="10.614134109712062"><ele>80.66666666666667</ele><time>2026-04-20T11:09:16.978Z</time></trkpt><trkpt lat="45.64250484602024" lon="10.614020539781448"><ele>80.5</ele><time>2026-04-20T11:09:19.978Z</time></trkpt><trkpt lat="45.642456081465035" lon="10.61390918725645"><ele>80.33333333333334</ele><time>2026-04-20T11:09:22.978Z</time></trkpt><trkpt lat="45.642420547315915" lon="10.613831757414209"><ele>80.16666666666667</ele><time>2026-04-20T11:09:24.978Z</time></trkpt><trkpt lat="45.642354786979006" lon="10.613702638515457"><ele>80.0</ele><time>2026-04-20T11:09:26.978Z</time></trkpt><trkpt lat="45.6423087407618" lon="10.613621711701883"><ele>80.33333333333334</ele><time>2026-04-20T11:09:28.978Z</time></trkpt><trkpt lat="45.642287426121044" lon="10.613531812095934"><ele>80.66666666666667</ele><time>2026-04-20T11:09:30.978Z</time></trkpt><trkpt lat="45.642241955399165" lon="10.61338332928307"><ele>81.0</ele><time>2026-04-20T11:09:32.978Z</time></trkpt><trkpt lat="45.64221073251478" lon="10.613292627549647"><ele>81.33333333333333</ele><time>2026-04-20T11:09:33.979Z</time></trkpt><trkpt lat="45.64218447161194" lon="10.613185508674881"><ele>81.66666666666666</ele><time>2026-04-20T11:09:34.978Z</time></trkpt><trkpt lat="45.642157095904395" lon="10.61309110605078"><ele>82.0</ele><time>2026-04-20T11:09:35.978Z</time></trkpt><trkpt lat="45.64212470820096" lon="10.612982642585262"><ele>82.0</ele><time>2026-04-20T11:09:36.979Z</time></trkpt><trkpt lat="45.64209210985831" lon="10.612885172916704"><ele>82.0</ele><time>2026-04-20T11:09:37.978Z</time></trkpt><trkpt lat="45.64205704876372" lon="10.612775427729256"><ele>82.0</ele><time>2026-04-20T11:09:38.978Z</time></trkpt><trkpt lat="45.64200597824528" lon="10.612636387800938"><ele>82.0</ele><time>2026-04-20T11:09:39.978Z</time></trkpt><trkpt lat="45.6419400143943" lon="10.612457904561479"><ele>82.0</ele><time>2026-04-20T11:09:40.979Z</time></trkpt><trkpt lat="45.641873450410024" lon="10.612242933630805"><ele>81.66666666666666</ele><time>2026-04-20T11:09:41.979Z</time></trkpt><trkpt lat="45.641807051063786" lon="10.611994800481163"><ele>81.33333333333333</ele><time>2026-04-20T11:09:42.978Z</time></trkpt><trkpt lat="45.641732118813" lon="10.611784989840006"><ele>81.0</ele><time>2026-04-20T11:09:43.979Z</time></trkpt><trkpt lat="45.64165195333832" lon="10.611585133334458"><ele>82.0</ele><time>2026-04-20T11:09:44.979Z</time></trkpt><trkpt lat="45.64156927519075" lon="10.611373457694802"><ele>83.0</ele><time>2026-04-20T11:09:45.979Z</time></trkpt><trkpt lat="45.641495285760726" lon="10.61115533693948"><ele>84.0</ele><time>2026-04-20T11:09:46.978Z</time></trkpt><trkpt lat="45.64145160544626" lon="10.61093266979643"><ele>85.0</ele><time>2026-04-20T11:09:47.978Z</time></trkpt><trkpt lat="45.64139372416616" lon="10.610755926112052"><ele>86.0</ele><time>2026-04-20T11:09:48.978Z</time></trkpt><trkpt lat="45.64134393943055" lon="10.610601975083652"><ele>87.0</ele><time>2026-04-20T11:09:49.978Z</time></trkpt><trkpt lat="45.641288683202056" lon="10.610424554028118"><ele>88.0</ele><time>2026-04-20T11:09:50.978Z</time></trkpt><trkpt lat="45.6412321928346" lon="10.610233673090573"><ele>88.0</ele><time>2026-04-20T11:09:51.978Z</time></trkpt><trkpt lat="45.64117291985683" lon="10.610034124173827"><ele>88.0</ele><time>2026-04-20T11:09:52.978Z</time></trkpt><trkpt lat="45.64112243582316" lon="10.609872737335676"><ele>88.0</ele><time>2026-04-20T11:09:53.978Z</time></trkpt><trkpt lat="45.64107274525523" lon="10.609724916206229"><ele>88.0</ele><time>2026-04-20T11:09:54.978Z</time></trkpt><trkpt lat="45.64104098367254" lon="10.60959923239051"><ele>86.4</ele><time>2026-04-20T11:09:55.978Z</time></trkpt><trkpt lat="45.64099562212586" lon="10.609476466568871"><ele>84.80000000000001</ele><time>2026-04-20T11:09:56.978Z</time></trkpt><trkpt lat="45.640955938105286" lon="10.60936463005394"><ele>83.2</ele><time>2026-04-20T11:09:57.978Z</time></trkpt><trkpt lat="45.64091698954246" lon="10.609266456849454"><ele>81.6</ele><time>2026-04-20T11:09:58.978Z</time></trkpt><trkpt lat="45.64087045522145" lon="10.609097610368933"><ele>80.0</ele><time>2026-04-20T11:10:00.978Z</time></trkpt><trkpt lat="45.64085710560896" lon="10.609008374744523"><ele>80.0</ele><time>2026-04-20T11:10:01.978Z</time></trkpt><trkpt lat="45.64085446972077" lon="10.608906522450948"><ele>80.0</ele><time>2026-04-20T11:10:02.978Z</time></trkpt><trkpt lat="45.64082628016032" lon="10.6087387936663"><ele>80.0</ele><time>2026-04-20T11:10:04.978Z</time></trkpt><trkpt lat="45.64076309897324" lon="10.608676569887917"><ele>80.0</ele><time>2026-04-20T11:10:05.978Z</time></trkpt><trkpt lat="45.640679805249015" lon="10.608614744641475"><ele>80.0</ele><time>2026-04-20T11:10:06.978Z</time></trkpt><trkpt lat="45.64059983448861" lon="10.608505533183513"><ele>81.0</ele><time>2026-04-20T11:10:07.978Z</time></trkpt><trkpt lat="45.640478583748916" lon="10.608386130280115"><ele>82.0</ele><time>2026-04-20T11:10:08.978Z</time></trkpt><trkpt lat="45.64032958755827" lon="10.60827627017378"><ele>83.0</ele><time>2026-04-20T11:10:09.978Z</time></trkpt><trkpt lat="45.64021140556499" lon="10.60819749553884"><ele>84.0</ele><time>2026-04-20T11:10:10.978Z</time></trkpt><trkpt lat="45.64010689650583" lon="10.608136588506095"><ele>84.0</ele><time>2026-04-20T11:10:11.978Z</time></trkpt><trkpt lat="45.63998263334292" lon="10.608092736444169"><ele>84.0</ele><time>2026-04-20T11:10:12.978Z</time></trkpt><trkpt lat="45.63984516075936" lon="10.60800531022117"><ele>84.0</ele><time>2026-04-20T11:10:13.978Z</time></trkpt><trkpt lat="45.63968829770158" lon="10.607931610262142"><ele>84.0</ele><time>2026-04-20T11:10:14.978Z</time></trkpt><trkpt lat="45.639521730352094" lon="10.607853703955481"><ele>83.33333333333333</ele><time>2026-04-20T11:10:15.978Z</time></trkpt><trkpt lat="45.63934394665905" lon="10.607770639922315"><ele>82.66666666666666</ele><time>2026-04-20T11:10:16.978Z</time></trkpt><trkpt lat="45.639188726599045" lon="10.607719892338677"><ele>82.0</ele><time>2026-04-20T11:10:17.978Z</time></trkpt><trkpt lat="45.63904770707321" lon="10.607653256690675"><ele>82.0</ele><time>2026-04-20T11:10:18.978Z</time></trkpt><trkpt lat="45.63890704170568" lon="10.607590525859143"><ele>82.0</ele><time>2026-04-20T11:10:19.978Z</time></trkpt><trkpt lat="45.63876904148147" lon="10.607524382287174"><ele>82.0</ele><time>2026-04-20T11:10:20.978Z</time></trkpt><trkpt lat="45.638637862990485" lon="10.607460689796547"><ele>82.0</ele><time>2026-04-20T11:10:21.978Z</time></trkpt><trkpt lat="45.638502836147275" lon="10.607395725173957"><ele>81.25</ele><time>2026-04-20T11:10:22.978Z</time></trkpt><trkpt lat="45.638375124046945" lon="10.607330103390224"><ele>80.5</ele><time>2026-04-20T11:10:23.978Z</time></trkpt><trkpt lat="45.63825180315752" lon="10.607258189817978"><ele>79.75</ele><time>2026-04-20T11:10:24.978Z</time></trkpt><trkpt lat="45.63813340702407" lon="10.607167700496351"><ele>79.0</ele><time>2026-04-20T11:10:25.978Z</time></trkpt><trkpt lat="45.63802340288065" lon="10.607064776381492"><ele>79.0</ele><time>2026-04-20T11:10:26.978Z</time></trkpt><trkpt lat="45.63792005990124" lon="10.60694735215088"><ele>79.0</ele><time>2026-04-20T11:10:27.978Z</time></trkpt><trkpt lat="45.63782206341854" lon="10.6068223241455"><ele>79.0</ele><time>2026-04-20T11:10:28.978Z</time></trkpt><trkpt lat="45.63774249501774" lon="10.606707117561152"><ele>79.0</ele><time>2026-04-20T11:10:29.978Z</time></trkpt><trkpt lat="45.63766856360256" lon="10.606599136663029"><ele>78.66666666666666</ele><time>2026-04-20T11:10:30.978Z</time></trkpt><trkpt lat="45.63758873798695" lon="10.60648661456871"><ele>78.33333333333333</ele><time>2026-04-20T11:10:31.978Z</time></trkpt><trkpt lat="45.63752217691405" lon="10.60638726508714"><ele>78.0</ele><time>2026-04-20T11:10:32.978Z</time></trkpt><trkpt lat="45.63746986337789" lon="10.606309643666918"><ele>77.66666666666667</ele><time>2026-04-20T11:10:33.978Z</time></trkpt><trkpt lat="45.637423518490635" lon="10.606237572962668"><ele>77.33333333333334</ele><time>2026-04-20T11:10:34.978Z</time></trkpt><trkpt lat="45.63736286188426" lon="10.6061626409315"><ele>77.0</ele><time>2026-04-20T11:10:35.978Z</time></trkpt><trkpt lat="45.63730466425987" lon="10.606082608361055"><ele>76.66666666666667</ele><time>2026-04-20T11:10:36.978Z</time></trkpt><trkpt lat="45.637256770970076" lon="10.605997247493777"><ele>76.33333333333334</ele><time>2026-04-20T11:10:37.978Z</time></trkpt><trkpt lat="45.63721025600107" lon="10.605909056617662"><ele>76.0</ele><time>2026-04-20T11:10:38.978Z</time></trkpt><trkpt lat="45.63715539249789" lon="10.605811752897626"><ele>75.66666666666667</ele><time>2026-04-20T11:10:39.978Z</time></trkpt><trkpt lat="45.63710053851829" lon="10.60570818633157"><ele>75.33333333333333</ele><time>2026-04-20T11:10:40.978Z</time></trkpt><trkpt lat="45.63704439139739" lon="10.605603352480726"><ele>75.0</ele><time>2026-04-20T11:10:41.978Z</time></trkpt><trkpt lat="45.63697939293554" lon="10.605462519256395"><ele>74.83333333333333</ele><time>2026-04-20T11:10:43.978Z</time></trkpt><trkpt lat="45.63692546949167" lon="10.605354964433024"><ele>74.66666666666667</ele><time>2026-04-20T11:10:45.978Z</time></trkpt><trkpt lat="45.636886803701195" lon="10.605232365138622"><ele>74.5</ele><time>2026-04-20T11:10:47.978Z</time></trkpt><trkpt lat="45.63684119307983" lon="10.605094891028106"><ele>74.33333333333334</ele><time>2026-04-20T11:10:49.978Z</time></trkpt><trkpt lat="45.63678487889741" lon="10.605021804591837"><ele>74.16666666666667</ele><time>2026-04-20T11:10:50.978Z</time></trkpt><trkpt lat="45.636729205854614" lon="10.604946526401529"><ele>74.0</ele><time>2026-04-20T11:10:51.978Z</time></trkpt><trkpt lat="45.63666890468931" lon="10.604861290969225"><ele>73.8</ele><time>2026-04-20T11:10:52.978Z</time></trkpt><trkpt lat="45.636607621989114" lon="10.604756900537824"><ele>73.60000000000001</ele><time>2026-04-20T11:10:53.978Z</time></trkpt><trkpt lat="45.636542553423816" lon="10.60463590872352"><ele>73.4</ele><time>2026-04-20T11:10:54.978Z</time></trkpt><trkpt lat="45.63649102547001" lon="10.604497025250502"><ele>73.2</ele><time>2026-04-20T11:10:55.978Z</time></trkpt><trkpt lat="45.63643017518258" lon="10.604378698422547"><ele>73.0</ele><time>2026-04-20T11:10:56.978Z</time></trkpt><trkpt lat="45.636373952691656" lon="10.604270539729711"><ele>72.83333333333333</ele><time>2026-04-20T11:10:57.978Z</time></trkpt><trkpt lat="45.636327002032594" lon="10.604180548579054"><ele>72.66666666666666</ele><time>2026-04-20T11:10:58.978Z</time></trkpt><trkpt lat="45.63628112933824" lon="10.604092623559824"><ele>72.5</ele><time>2026-04-20T11:10:59.978Z</time></trkpt><trkpt lat="45.6362265117839" lon="10.603987937087327"><ele>72.33333333333333</ele><time>2026-04-20T11:11:00.978Z</time></trkpt><trkpt lat="45.63617066912466" lon="10.603880902489816"><ele>72.16666666666667</ele><time>2026-04-20T11:11:01.978Z</time></trkpt><trkpt lat="45.63611878930954" lon="10.603781463512956"><ele>72.0</ele><time>2026-04-20T11:11:02.978Z</time></trkpt><trkpt lat="45.63606298555594" lon="10.603674504134762"><ele>71.6</ele><time>2026-04-20T11:11:03.978Z</time></trkpt><trkpt lat="45.63601105713542" lon="10.603574500153218"><ele>71.2</ele><time>2026-04-20T11:11:04.978Z</time></trkpt><trkpt lat="45.63596712159694" lon="10.603490024104447"><ele>70.8</ele><time>2026-04-20T11:11:05.978Z</time></trkpt><trkpt lat="45.635886584763355" lon="10.60333517373927"><ele>70.4</ele><time>2026-04-20T11:11:07.978Z</time></trkpt><trkpt lat="45.635815480671205" lon="10.603254282318236"><ele>70.0</ele><time>2026-04-20T11:11:08.978Z</time></trkpt><trkpt lat="45.635765765545585" lon="10.603163480412972"><ele>70.0</ele><time>2026-04-20T11:11:09.978Z</time></trkpt><trkpt lat="45.63571710086894" lon="10.603068692633864"><ele>70.0</ele><time>2026-04-20T11:11:10.978Z</time></trkpt><trkpt lat="45.63567661335231" lon="10.602987307354077"><ele>70.0</ele><time>2026-04-20T11:11:11.978Z</time></trkpt><trkpt lat="45.63564492206579" lon="10.602870387463916"><ele>70.0</ele><time>2026-04-20T11:11:12.978Z</time></trkpt><trkpt lat="45.635593705577136" lon="10.602769114749563"><ele>70.0</ele><time>2026-04-20T11:11:13.978Z</time></trkpt><trkpt lat="45.63554181659627" lon="10.602668237490825"><ele>70.0</ele><time>2026-04-20T11:11:14.978Z</time></trkpt><trkpt lat="45.63549485219416" lon="10.602578374758787"><ele>70.2</ele><time>2026-04-20T11:11:15.978Z</time></trkpt><trkpt lat="45.63544546105693" lon="10.602484158415804"><ele>70.4</ele><time>2026-04-20T11:11:16.978Z</time></trkpt><trkpt lat="45.635386440682346" lon="10.602370831528662"><ele>70.6</ele><time>2026-04-20T11:11:17.978Z</time></trkpt><trkpt lat="45.635307943158544" lon="10.602262094434899"><ele>70.8</ele><time>2026-04-20T11:11:18.978Z</time></trkpt><trkpt lat="45.63524381381168" lon="10.602141948729738"><ele>71.0</ele><time>2026-04-20T11:11:19.978Z</time></trkpt><trkpt lat="45.63518945784668" lon="10.602029635170597"><ele>70.6</ele><time>2026-04-20T11:11:20.978Z</time></trkpt><trkpt lat="45.635130564220866" lon="10.601917823768662"><ele>70.19999999999999</ele><time>2026-04-20T11:11:21.978Z</time></trkpt><trkpt lat="45.63508381056424" lon="10.601784555025018"><ele>69.80000000000001</ele><time>2026-04-20T11:11:22.978Z</time></trkpt><trkpt lat="45.63502725461246" lon="10.601660670398081"><ele>69.4</ele><time>2026-04-20T11:11:23.978Z</time></trkpt><trkpt lat="45.63496345660894" lon="10.601545575555127"><ele>69.0</ele><time>2026-04-20T11:11:24.978Z</time></trkpt><trkpt lat="45.63494038542046" lon="10.601424746536484"><ele>69.0</ele><time>2026-04-20T11:11:25.978Z</time></trkpt><trkpt lat="45.63492029460306" lon="10.601314203842872"><ele>69.0</ele><time>2026-04-20T11:11:26.978Z</time></trkpt><trkpt lat="45.634901017999304" lon="10.601185669763627"><ele>69.0</ele><time>2026-04-20T11:11:27.978Z</time></trkpt><trkpt lat="45.63489065119032" lon="10.60104003199177"><ele>69.0</ele><time>2026-04-20T11:11:28.978Z</time></trkpt><trkpt lat="45.63490409530139" lon="10.600905040927664"><ele>69.0</ele><time>2026-04-20T11:11:29.978Z</time></trkpt><trkpt lat="45.634923408751426" lon="10.600784145941384"><ele>69.16666666666667</ele><time>2026-04-20T11:11:30.978Z</time></trkpt><trkpt lat="45.63495385122249" lon="10.600664933841431"><ele>69.33333333333333</ele><time>2026-04-20T11:11:31.978Z</time></trkpt><trkpt lat="45.63499337393775" lon="10.60054549757701"><ele>69.5</ele><time>2026-04-20T11:11:32.978Z</time></trkpt><trkpt lat="45.63503265168255" lon="10.600426287299317"><ele>69.66666666666666</ele><time>2026-04-20T11:11:33.978Z</time></trkpt><trkpt lat="45.635076755667136" lon="10.600329208788413"><ele>69.83333333333333</ele><time>2026-04-20T11:11:34.978Z</time></trkpt><trkpt lat="45.635113292551466" lon="10.600240763810207"><ele>70.0</ele><time>2026-04-20T11:11:35.978Z</time></trkpt><trkpt lat="45.63515141231163" lon="10.600142025036329"><ele>70.33333333333333</ele><time>2026-04-20T11:11:36.978Z</time></trkpt><trkpt lat="45.63518831881835" lon="10.600029847310578"><ele>70.66666666666666</ele><time>2026-04-20T11:11:37.978Z</time></trkpt><trkpt lat="45.6352293301138" lon="10.599919538652838"><ele>71.0</ele><time>2026-04-20T11:11:38.978Z</time></trkpt><trkpt lat="45.63527288122076" lon="10.599841630610484"><ele>71.33333333333333</ele><time>2026-04-20T11:11:39.979Z</time></trkpt><trkpt lat="45.63531813762506" lon="10.599733741114154"><ele>71.66666666666667</ele><time>2026-04-20T11:11:40.978Z</time></trkpt><trkpt lat="45.63537110994428" lon="10.599627115211577"><ele>72.0</ele><time>2026-04-20T11:11:41.978Z</time></trkpt><trkpt lat="45.63542427265553" lon="10.59951202291753"><ele>72.0</ele><time>2026-04-20T11:11:42.978Z</time></trkpt><trkpt lat="45.635476503939756" lon="10.599404873104557"><ele>72.0</ele><time>2026-04-20T11:11:43.978Z</time></trkpt><trkpt lat="45.63553388787261" lon="10.599302246162278"><ele>72.0</ele><time>2026-04-20T11:11:44.978Z</time></trkpt><trkpt lat="45.63558072889209" lon="10.599194953543407"><ele>72.0</ele><time>2026-04-20T11:11:45.978Z</time></trkpt><trkpt lat="45.63562805015094" lon="10.599084001793647"><ele>72.0</ele><time>2026-04-20T11:11:46.979Z</time></trkpt><trkpt lat="45.635662232684545" lon="10.598980021558392"><ele>72.0</ele><time>2026-04-20T11:11:47.979Z</time></trkpt><trkpt lat="45.63569305275404" lon="10.598875122412473"><ele>72.0</ele><time>2026-04-20T11:11:48.979Z</time></trkpt><trkpt lat="45.63571226345504" lon="10.598761412232669"><ele>72.0</ele><time>2026-04-20T11:11:49.978Z</time></trkpt><trkpt lat="45.63572492869044" lon="10.598642412451671"><ele>72.0</ele><time>2026-04-20T11:11:50.978Z</time></trkpt><trkpt lat="45.63573032633847" lon="10.598516828483124"><ele>72.0</ele><time>2026-04-20T11:11:51.978Z</time></trkpt><trkpt lat="45.6357286207453" lon="10.5983849240221"><ele>72.0</ele><time>2026-04-20T11:11:52.978Z</time></trkpt><trkpt lat="45.635721839049" lon="10.598248927563018"><ele>72.0</ele><time>2026-04-20T11:11:53.978Z</time></trkpt><trkpt lat="45.63571765991068" lon="10.59811324490647"><ele>72.4</ele><time>2026-04-20T11:11:54.978Z</time></trkpt><trkpt lat="45.63571330163095" lon="10.597979995557651"><ele>72.80000000000001</ele><time>2026-04-20T11:11:55.978Z</time></trkpt><trkpt lat="45.635701926060364" lon="10.597850840602673"><ele>73.2</ele><time>2026-04-20T11:11:56.978Z</time></trkpt><trkpt lat="45.63568669279221" lon="10.597715157982472"><ele>73.60000000000001</ele><time>2026-04-20T11:11:57.978Z</time></trkpt><trkpt lat="45.635662639307114" lon="10.59758047217142"><ele>74.0</ele><time>2026-04-20T11:11:58.978Z</time></trkpt><trkpt lat="45.635635698885544" lon="10.597444744682004"><ele>75.0</ele><time>2026-04-20T11:11:59.978Z</time></trkpt><trkpt lat="45.63559790345796" lon="10.597310108463342"><ele>76.0</ele><time>2026-04-20T11:12:00.978Z</time></trkpt><trkpt lat="45.635571842235315" lon="10.5971647581997"><ele>77.0</ele><time>2026-04-20T11:12:01.978Z</time></trkpt><trkpt lat="45.63552177892925" lon="10.597027588953486"><ele>78.0</ele><time>2026-04-20T11:12:02.978Z</time></trkpt><trkpt lat="45.63546829416726" lon="10.596893331416467"><ele>79.0</ele><time>2026-04-20T11:12:03.978Z</time></trkpt><trkpt lat="45.63541018085609" lon="10.596765545532916"><ele>78.8</ele><time>2026-04-20T11:12:04.978Z</time></trkpt><trkpt lat="45.63535194561382" lon="10.59664796634407"><ele>78.60000000000001</ele><time>2026-04-20T11:12:05.978Z</time></trkpt><trkpt lat="45.63529283902149" lon="10.5965300072166"><ele>78.4</ele><time>2026-04-20T11:12:06.978Z</time></trkpt><trkpt lat="45.63522697069676" lon="10.596398254577021"><ele>78.2</ele><time>2026-04-20T11:12:07.978Z</time></trkpt><trkpt lat="45.6351633968453" lon="10.596261190842027"><ele>78.0</ele><time>2026-04-20T11:12:08.978Z</time></trkpt><trkpt lat="45.6350952969844" lon="10.59610964996683"><ele>78.0</ele><time>2026-04-20T11:12:09.978Z</time></trkpt><trkpt lat="45.63503761085878" lon="10.595968961644019"><ele>78.0</ele><time>2026-04-20T11:12:10.978Z</time></trkpt><trkpt lat="45.634985669956535" lon="10.59583206424212"><ele>78.0</ele><time>2026-04-20T11:12:11.978Z</time></trkpt><trkpt lat="45.63493668946991" lon="10.595701314237399"><ele>78.0</ele><time>2026-04-20T11:12:12.978Z</time></trkpt><trkpt lat="45.63488069368548" lon="10.595558302959047"><ele>78.0</ele><time>2026-04-20T11:12:13.978Z</time></trkpt><trkpt lat="45.634801093280494" lon="10.595426575248386"><ele>85.25</ele><time>2026-04-20T11:12:14.978Z</time></trkpt><trkpt lat="45.63473839575157" lon="10.595277930227036"><ele>92.5</ele><time>2026-04-20T11:12:15.978Z</time></trkpt><trkpt lat="45.63467072039301" lon="10.595125376810074"><ele>99.75</ele><time>2026-04-20T11:12:16.978Z</time></trkpt><trkpt lat="45.63460056617972" lon="10.594973104353569"><ele>107.0</ele><time>2026-04-20T11:12:17.978Z</time></trkpt><trkpt lat="45.63453067991819" lon="10.594824357150713"><ele>99.5</ele><time>2026-04-20T11:12:18.978Z</time></trkpt><trkpt lat="45.634460236647506" lon="10.59468330811587"><ele>92.0</ele><time>2026-04-20T11:12:19.978Z</time></trkpt><trkpt lat="45.6343969029059" lon="10.594557078670896"><ele>84.5</ele><time>2026-04-20T11:12:20.978Z</time></trkpt><trkpt lat="45.63433593891157" lon="10.594426719809302"><ele>77.0</ele><time>2026-04-20T11:12:21.978Z</time></trkpt><trkpt lat="45.63426725477092" lon="10.594300023177498"><ele>77.0</ele><time>2026-04-20T11:12:22.978Z</time></trkpt><trkpt lat="45.634196404584635" lon="10.594168827799216"><ele>77.0</ele><time>2026-04-20T11:12:23.978Z</time></trkpt><trkpt lat="45.63415692485513" lon="10.593990265877357"><ele>77.0</ele><time>2026-04-20T11:12:24.978Z</time></trkpt><trkpt lat="45.63404240627957" lon="10.593890594435667"><ele>77.0</ele><time>2026-04-20T11:12:25.978Z</time></trkpt><trkpt lat="45.63396203567602" lon="10.593747994670768"><ele>81.75</ele><time>2026-04-20T11:12:26.978Z</time></trkpt><trkpt lat="45.63387899053358" lon="10.593597086568021"><ele>86.5</ele><time>2026-04-20T11:12:27.978Z</time></trkpt><trkpt lat="45.633795041037764" lon="10.593447868299414"><ele>91.25</ele><time>2026-04-20T11:12:28.978Z</time></trkpt><trkpt lat="45.63376708666981" lon="10.593246916284663"><ele>96.0</ele><time>2026-04-20T11:12:29.978Z</time></trkpt><trkpt lat="45.63368890893498" lon="10.59309692036312"><ele>90.75</ele><time>2026-04-20T11:12:30.978Z</time></trkpt><trkpt lat="45.63361003466634" lon="10.592945587023065"><ele>85.5</ele><time>2026-04-20T11:12:31.978Z</time></trkpt><trkpt lat="45.63352851163944" lon="10.592789224664946"><ele>80.25</ele><time>2026-04-20T11:12:32.978Z</time></trkpt><trkpt lat="45.633460757433454" lon="10.59266008406941"><ele>75.0</ele><time>2026-04-20T11:12:33.978Z</time></trkpt><trkpt lat="45.633387231317606" lon="10.592521790001012"><ele>75.0</ele><time>2026-04-20T11:12:34.978Z</time></trkpt><trkpt lat="45.63331050603891" lon="10.592384553781706"><ele>75.0</ele><time>2026-04-20T11:12:35.978Z</time></trkpt><trkpt lat="45.633141937675596" lon="10.592115134620032"><ele>75.0</ele><time>2026-04-20T11:12:37.978Z</time></trkpt><trkpt lat="45.63304704790018" lon="10.59199659223494"><ele>74.5</ele><time>2026-04-20T11:12:38.978Z</time></trkpt><trkpt lat="45.63294561428945" lon="10.591886473286026"><ele>74.0</ele><time>2026-04-20T11:12:39.978Z</time></trkpt><trkpt lat="45.63284110364548" lon="10.591779331679861"><ele>73.5</ele><time>2026-04-20T11:12:40.978Z</time></trkpt><trkpt lat="45.63274890007249" lon="10.591684729052048"><ele>73.0</ele><time>2026-04-20T11:12:41.978Z</time></trkpt><trkpt lat="45.632666698781016" lon="10.591595642555284"><ele>73.0</ele><time>2026-04-20T11:12:42.978Z</time></trkpt><trkpt lat="45.63258199405994" lon="10.591484587970056"><ele>73.0</ele><time>2026-04-20T11:12:43.978Z</time></trkpt><trkpt lat="45.63251129624252" lon="10.591360493347485"><ele>73.0</ele><time>2026-04-20T11:12:44.978Z</time></trkpt><trkpt lat="45.63244563342917" lon="10.59122039010462"><ele>73.0</ele><time>2026-04-20T11:12:45.978Z</time></trkpt><trkpt lat="45.63238353038662" lon="10.591082824121715"><ele>77.5</ele><time>2026-04-20T11:12:46.978Z</time></trkpt><trkpt lat="45.63232030106068" lon="10.590935825552611"><ele>82.0</ele><time>2026-04-20T11:12:47.978Z</time></trkpt><trkpt lat="45.632260959293504" lon="10.590788928413144"><ele>86.5</ele><time>2026-04-20T11:12:48.978Z</time></trkpt><trkpt lat="45.63220677375845" lon="10.590652103005505"><ele>91.0</ele><time>2026-04-20T11:12:49.978Z</time></trkpt><trkpt lat="45.632149454327646" lon="10.590516229699293"><ele>91.0</ele><time>2026-04-20T11:12:50.978Z</time></trkpt><trkpt lat="45.63209107388691" lon="10.590381916456916"><ele>91.0</ele><time>2026-04-20T11:12:51.978Z</time></trkpt><trkpt lat="45.63202747543533" lon="10.590248096733598"><ele>91.0</ele><time>2026-04-20T11:12:52.978Z</time></trkpt><trkpt lat="45.631957409071326" lon="10.590107511484602"><ele>91.0</ele><time>2026-04-20T11:12:53.978Z</time></trkpt><trkpt lat="45.631884204228456" lon="10.589967008205367"><ele>89.75</ele><time>2026-04-20T11:12:54.978Z</time></trkpt><trkpt lat="45.63180923739729" lon="10.589830735189638"><ele>88.5</ele><time>2026-04-20T11:12:55.978Z</time></trkpt><trkpt lat="45.63173374642405" lon="10.589694605419506"><ele>87.25</ele><time>2026-04-20T11:12:56.978Z</time></trkpt><trkpt lat="45.631658089909756" lon="10.589561746514747"><ele>86.0</ele><time>2026-04-20T11:12:57.978Z</time></trkpt><trkpt lat="45.63158000405276" lon="10.58942582446675"><ele>86.0</ele><time>2026-04-20T11:12:58.978Z</time></trkpt><trkpt lat="45.6315026264461" lon="10.589292892248139"><ele>86.0</ele><time>2026-04-20T11:12:59.978Z</time></trkpt><trkpt lat="45.63142619714219" lon="10.589159916837586"><ele>86.0</ele><time>2026-04-20T11:13:00.978Z</time></trkpt><trkpt lat="45.63134638378473" lon="10.589024231300352"><ele>86.0</ele><time>2026-04-20T11:13:01.978Z</time></trkpt><trkpt lat="45.631265038351394" lon="10.58889066763151"><ele>86.0</ele><time>2026-04-20T11:13:02.978Z</time></trkpt><trkpt lat="45.631182054061846" lon="10.588759735513882"><ele>86.0</ele><time>2026-04-20T11:13:03.978Z</time></trkpt><trkpt lat="45.631097515964825" lon="10.588637531018225"><ele>86.0</ele><time>2026-04-20T11:13:04.978Z</time></trkpt><trkpt lat="45.63101363325205" lon="10.588515931914316"><ele>86.0</ele><time>2026-04-20T11:13:05.978Z</time></trkpt><trkpt lat="45.63092997665443" lon="10.588394627301298"><ele>83.5</ele><time>2026-04-20T11:13:06.978Z</time></trkpt><trkpt lat="45.63084450318259" lon="10.588270688161543"><ele>81.0</ele><time>2026-04-20T11:13:07.978Z</time></trkpt><trkpt lat="45.6307631527366" lon="10.588152727556173"><ele>78.5</ele><time>2026-04-20T11:13:08.978Z</time></trkpt><trkpt lat="45.630681757319415" lon="10.58803465569081"><ele>76.0</ele><time>2026-04-20T11:13:09.978Z</time></trkpt><trkpt lat="45.63059987621172" lon="10.587915192716743"><ele>77.0</ele><time>2026-04-20T11:13:10.978Z</time></trkpt><trkpt lat="45.63051668839403" lon="10.587793823272472"><ele>78.0</ele><time>2026-04-20T11:13:11.978Z</time></trkpt><trkpt lat="45.63043008707515" lon="10.587667473635813"><ele>79.0</ele><time>2026-04-20T11:13:12.978Z</time></trkpt><trkpt lat="45.63034149271422" lon="10.587540275738116"><ele>80.0</ele><time>2026-04-20T11:13:13.978Z</time></trkpt><trkpt lat="45.63024860736029" lon="10.587410945951913"><ele>80.0</ele><time>2026-04-20T11:13:14.978Z</time></trkpt><trkpt lat="45.63015890542092" lon="10.587292448001877"><ele>80.0</ele><time>2026-04-20T11:13:15.978Z</time></trkpt><trkpt lat="45.63007033969893" lon="10.587180271440795"><ele>80.0</ele><time>2026-04-20T11:13:16.978Z</time></trkpt><trkpt lat="45.62998483089903" lon="10.58706885372739"><ele>80.0</ele><time>2026-04-20T11:13:17.978Z</time></trkpt><trkpt lat="45.62989830264529" lon="10.586956252370964"><ele>79.25</ele><time>2026-04-20T11:13:18.978Z</time></trkpt><trkpt lat="45.629807517883094" lon="10.586852573410946"><ele>78.5</ele><time>2026-04-20T11:13:19.978Z</time></trkpt><trkpt lat="45.62970288347238" lon="10.586756260880184"><ele>77.75</ele><time>2026-04-20T11:13:20.978Z</time></trkpt><trkpt lat="45.62958963869775" lon="10.58668024335914"><ele>77.0</ele><time>2026-04-20T11:13:21.978Z</time></trkpt><trkpt lat="45.62946409220759" lon="10.586620345910687"><ele>77.0</ele><time>2026-04-20T11:13:22.978Z</time></trkpt><trkpt lat="45.629331312324716" lon="10.58657931459584"><ele>77.0</ele><time>2026-04-20T11:13:23.978Z</time></trkpt><trkpt lat="45.62919069103105" lon="10.586560208483736"><ele>77.0</ele><time>2026-04-20T11:13:24.978Z</time></trkpt><trkpt lat="45.62905856839834" lon="10.586544738229064"><ele>77.0</ele><time>2026-04-20T11:13:25.978Z</time></trkpt><trkpt lat="45.62893024288908" lon="10.586535054215242"><ele>77.0</ele><time>2026-04-20T11:13:26.978Z</time></trkpt><trkpt lat="45.62880120253738" lon="10.586539511897612"><ele>77.0</ele><time>2026-04-20T11:13:27.978Z</time></trkpt><trkpt lat="45.62868327088106" lon="10.586539548413556"><ele>77.0</ele><time>2026-04-20T11:13:28.978Z</time></trkpt><trkpt lat="45.62856793266788" lon="10.586541544910705"><ele>77.0</ele><time>2026-04-20T11:13:29.978Z</time></trkpt><trkpt lat="45.62844992595888" lon="10.58654887688721"><ele>76.5</ele><time>2026-04-20T11:13:30.978Z</time></trkpt><trkpt lat="45.62832539367703" lon="10.586551608258866"><ele>76.0</ele><time>2026-04-20T11:13:31.978Z</time></trkpt><trkpt lat="45.62820173878034" lon="10.586556899002078"><ele>75.5</ele><time>2026-04-20T11:13:32.978Z</time></trkpt><trkpt lat="45.62808223548878" lon="10.586563736699341"><ele>75.0</ele><time>2026-04-20T11:13:33.978Z</time></trkpt><trkpt lat="45.62795867657524" lon="10.586572101296314"><ele>75.0</ele><time>2026-04-20T11:13:34.978Z</time></trkpt><trkpt lat="45.627843448555" lon="10.586559183711541"><ele>75.0</ele><time>2026-04-20T11:13:35.978Z</time></trkpt><trkpt lat="45.627732361215145" lon="10.586525612896189"><ele>75.0</ele><time>2026-04-20T11:13:36.978Z</time></trkpt><trkpt lat="45.62762222024214" lon="10.586459901622955"><ele>75.0</ele><time>2026-04-20T11:13:37.978Z</time></trkpt><trkpt lat="45.62752795471774" lon="10.58636800973189"><ele>75.25</ele><time>2026-04-20T11:13:38.978Z</time></trkpt><trkpt lat="45.6274305308156" lon="10.586279427753713"><ele>75.5</ele><time>2026-04-20T11:13:39.978Z</time></trkpt><trkpt lat="45.62733676833583" lon="10.586188657102179"><ele>75.75</ele><time>2026-04-20T11:13:40.978Z</time></trkpt><trkpt lat="45.62723846997591" lon="10.58609429916858"><ele>76.0</ele><time>2026-04-20T11:13:41.978Z</time></trkpt><trkpt lat="45.6271376544574" lon="10.585995523320724"><ele>76.5</ele><time>2026-04-20T11:13:42.978Z</time></trkpt><trkpt lat="45.62703120350279" lon="10.585894447646295"><ele>77.0</ele><time>2026-04-20T11:13:43.978Z</time></trkpt><trkpt lat="45.626919739928304" lon="10.585800913813616"><ele>77.5</ele><time>2026-04-20T11:13:44.978Z</time></trkpt><trkpt lat="45.626817284419" lon="10.58570759816752"><ele>78.0</ele><time>2026-04-20T11:13:45.979Z</time></trkpt><trkpt lat="45.626713863623436" lon="10.585617366475784"><ele>78.0</ele><time>2026-04-20T11:13:46.978Z</time></trkpt><trkpt lat="45.62662831374659" lon="10.585526523968705"><ele>78.0</ele><time>2026-04-20T11:13:47.978Z</time></trkpt><trkpt lat="45.62653927497421" lon="10.585440951534208"><ele>78.0</ele><time>2026-04-20T11:13:48.979Z</time></trkpt><trkpt lat="45.62645177430264" lon="10.58534358962425"><ele>78.0</ele><time>2026-04-20T11:13:49.979Z</time></trkpt><trkpt lat="45.626367354198344" lon="10.585227665459811"><ele>78.0</ele><time>2026-04-20T11:13:50.979Z</time></trkpt><trkpt lat="45.626288173644376" lon="10.585095781471342"><ele>78.25</ele><time>2026-04-20T11:13:51.979Z</time></trkpt><trkpt lat="45.626213654869275" lon="10.584945111169926"><ele>78.5</ele><time>2026-04-20T11:13:52.979Z</time></trkpt><trkpt lat="45.626140463563296" lon="10.584791636102333"><ele>78.75</ele><time>2026-04-20T11:13:53.979Z</time></trkpt><trkpt lat="45.626081160087416" lon="10.584629194134457"><ele>79.0</ele><time>2026-04-20T11:13:54.979Z</time></trkpt><trkpt lat="45.626054014836015" lon="10.58445623322174"><ele>77.75</ele><time>2026-04-20T11:13:55.979Z</time></trkpt><trkpt lat="45.62602677856438" lon="10.584292205809257"><ele>76.5</ele><time>2026-04-20T11:13:56.979Z</time></trkpt><trkpt lat="45.62603288375536" lon="10.584122994660145"><ele>75.25</ele><time>2026-04-20T11:13:57.979Z</time></trkpt><trkpt lat="45.626057123022534" lon="10.58394528161411"><ele>74.0</ele><time>2026-04-20T11:13:58.978Z</time></trkpt><trkpt lat="45.626080278312216" lon="10.583775158854996"><ele>73.60000000000001</ele><time>2026-04-20T11:13:59.978Z</time></trkpt><trkpt lat="45.626100422782805" lon="10.583615016274688"><ele>73.2</ele><time>2026-04-20T11:14:00.978Z</time></trkpt><trkpt lat="45.62612657141561" lon="10.583460561523824"><ele>72.80000000000001</ele><time>2026-04-20T11:14:01.978Z</time></trkpt><trkpt lat="45.62614454752043" lon="10.583303140218336"><ele>72.4</ele><time>2026-04-20T11:14:02.978Z</time></trkpt><trkpt lat="45.62616759326212" lon="10.583159841549904"><ele>72.0</ele><time>2026-04-20T11:14:03.978Z</time></trkpt><trkpt lat="45.626180641286865" lon="10.583000665327976"><ele>74.6</ele><time>2026-04-20T11:14:04.978Z</time></trkpt><trkpt lat="45.6261947803042" lon="10.582845157852633"><ele>77.2</ele><time>2026-04-20T11:14:05.978Z</time></trkpt><trkpt lat="45.626205224079925" lon="10.582693471605554"><ele>79.8</ele><time>2026-04-20T11:14:06.978Z</time></trkpt><trkpt lat="45.626210241728074" lon="10.582553719673047"><ele>82.4</ele><time>2026-04-20T11:14:07.978Z</time></trkpt><trkpt lat="45.62621084743593" lon="10.582388138260471"><ele>85.0</ele><time>2026-04-20T11:14:08.978Z</time></trkpt><trkpt lat="45.62620709113256" lon="10.582219055000696"><ele>85.0</ele><time>2026-04-20T11:14:09.978Z</time></trkpt><trkpt lat="45.626204998037835" lon="10.582043395628588"><ele>85.0</ele><time>2026-04-20T11:14:10.978Z</time></trkpt><trkpt lat="45.62620276431873" lon="10.58186558462919"><ele>85.0</ele><time>2026-04-20T11:14:11.978Z</time></trkpt><trkpt lat="45.626201616978065" lon="10.581698449838795"><ele>85.0</ele><time>2026-04-20T11:14:12.978Z</time></trkpt><trkpt lat="45.626199273418884" lon="10.581541126292334"><ele>85.0</ele><time>2026-04-20T11:14:13.978Z</time></trkpt><trkpt lat="45.626190943515006" lon="10.581369863751297"><ele>85.0</ele><time>2026-04-20T11:14:14.978Z</time></trkpt><trkpt lat="45.626184429557235" lon="10.581209448400717"><ele>85.0</ele><time>2026-04-20T11:14:15.978Z</time></trkpt><trkpt lat="45.626176305784625" lon="10.581044614087842"><ele>85.0</ele><time>2026-04-20T11:14:16.978Z</time></trkpt><trkpt lat="45.62617598883104" lon="10.580888242596469"><ele>85.0</ele><time>2026-04-20T11:14:17.978Z</time></trkpt><trkpt lat="45.62622401464075" lon="10.580757054781987"><ele>85.0</ele><time>2026-04-20T11:14:18.978Z</time></trkpt><trkpt lat="45.62622647650649" lon="10.580597732626156"><ele>85.0</ele><time>2026-04-20T11:14:19.978Z</time></trkpt><trkpt lat="45.626227800882994" lon="10.580450993845982"><ele>85.0</ele><time>2026-04-20T11:14:20.978Z</time></trkpt><trkpt lat="45.626226055193285" lon="10.580295559839739"><ele>85.0</ele><time>2026-04-20T11:14:21.978Z</time></trkpt><trkpt lat="45.626222845044985" lon="10.580136534642211"><ele>85.75</ele><time>2026-04-20T11:14:22.978Z</time></trkpt><trkpt lat="45.62621935381281" lon="10.579968396770406"><ele>86.5</ele><time>2026-04-20T11:14:23.978Z</time></trkpt><trkpt lat="45.626217291691226" lon="10.579800990373554"><ele>87.25</ele><time>2026-04-20T11:14:24.978Z</time></trkpt><trkpt lat="45.626209802943826" lon="10.579624976213518"><ele>88.0</ele><time>2026-04-20T11:14:25.978Z</time></trkpt><trkpt lat="45.62619681155414" lon="10.57945643733345"><ele>88.0</ele><time>2026-04-20T11:14:26.978Z</time></trkpt><trkpt lat="45.62618370620618" lon="10.57930435224955"><ele>88.0</ele><time>2026-04-20T11:14:27.978Z</time></trkpt><trkpt lat="45.6261712022803" lon="10.579155932648368"><ele>88.0</ele><time>2026-04-20T11:14:28.978Z</time></trkpt><trkpt lat="45.626162149593554" lon="10.579015691759713"><ele>88.0</ele><time>2026-04-20T11:14:29.978Z</time></trkpt><trkpt lat="45.626150986197025" lon="10.578875952767362"><ele>88.0</ele><time>2026-04-20T11:14:30.978Z</time></trkpt><trkpt lat="45.62614316928397" lon="10.578725875207896"><ele>84.5</ele><time>2026-04-20T11:14:31.978Z</time></trkpt><trkpt lat="45.62612319485594" lon="10.578566218888628"><ele>81.0</ele><time>2026-04-20T11:14:32.978Z</time></trkpt><trkpt lat="45.626097062790514" lon="10.578394528850156"><ele>77.5</ele><time>2026-04-20T11:14:33.978Z</time></trkpt><trkpt lat="45.62607037406652" lon="10.578222551498554"><ele>74.0</ele><time>2026-04-20T11:14:34.978Z</time></trkpt><trkpt lat="45.62603993530964" lon="10.578049648335623"><ele>74.0</ele><time>2026-04-20T11:14:35.978Z</time></trkpt><trkpt lat="45.626060689244696" lon="10.577889601462081"><ele>74.0</ele><time>2026-04-20T11:14:36.978Z</time></trkpt><trkpt lat="45.626043598103536" lon="10.577734221275202"><ele>74.0</ele><time>2026-04-20T11:14:37.978Z</time></trkpt><trkpt lat="45.62602359085939" lon="10.577577521574419"><ele>74.0</ele><time>2026-04-20T11:14:38.978Z</time></trkpt><trkpt lat="45.626002258784126" lon="10.577418769096573"><ele>74.0</ele><time>2026-04-20T11:14:39.978Z</time></trkpt><trkpt lat="45.6259767575198" lon="10.577246892042783"><ele>75.33333333333334</ele><time>2026-04-20T11:14:40.978Z</time></trkpt><trkpt lat="45.62593656559135" lon="10.577052294298214"><ele>76.66666666666667</ele><time>2026-04-20T11:14:41.978Z</time></trkpt><trkpt lat="45.625878214070006" lon="10.576822821731762"><ele>78.0</ele><time>2026-04-20T11:14:42.978Z</time></trkpt><trkpt lat="45.62581888169627" lon="10.576632487876166"><ele>78.75</ele><time>2026-04-20T11:14:43.978Z</time></trkpt><trkpt lat="45.62577195434082" lon="10.57646119359069"><ele>79.5</ele><time>2026-04-20T11:14:44.978Z</time></trkpt><trkpt lat="45.6257351663239" lon="10.576305280283272"><ele>80.25</ele><time>2026-04-20T11:14:45.978Z</time></trkpt><trkpt lat="45.62569585939017" lon="10.57615141262922"><ele>81.0</ele><time>2026-04-20T11:14:46.978Z</time></trkpt><trkpt lat="45.62566473666839" lon="10.576015918567627"><ele>82.5</ele><time>2026-04-20T11:14:47.978Z</time></trkpt><trkpt lat="45.62562402136306" lon="10.575858036484625"><ele>84.0</ele><time>2026-04-20T11:14:48.978Z</time></trkpt><trkpt lat="45.62557175386493" lon="10.57567452732581"><ele>85.5</ele><time>2026-04-20T11:14:49.978Z</time></trkpt><trkpt lat="45.62552458415266" lon="10.575487262042797"><ele>87.0</ele><time>2026-04-20T11:14:50.978Z</time></trkpt><trkpt lat="45.62546996214644" lon="10.575317702248372"><ele>90.25</ele><time>2026-04-20T11:14:51.978Z</time></trkpt><trkpt lat="45.62541390457099" lon="10.575158240041"><ele>93.5</ele><time>2026-04-20T11:14:52.978Z</time></trkpt><trkpt lat="45.625351455232625" lon="10.57501130548852"><ele>96.75</ele><time>2026-04-20T11:14:53.978Z</time></trkpt><trkpt lat="45.62528932192132" lon="10.574868532869754"><ele>100.0</ele><time>2026-04-20T11:14:54.978Z</time></trkpt><trkpt lat="45.62521451988392" lon="10.574716663859665"><ele>95.5</ele><time>2026-04-20T11:14:55.978Z</time></trkpt><trkpt lat="45.62514045297026" lon="10.57456827157953"><ele>91.0</ele><time>2026-04-20T11:14:56.978Z</time></trkpt><trkpt lat="45.62505519249681" lon="10.574430566288758"><ele>86.5</ele><time>2026-04-20T11:14:57.978Z</time></trkpt><trkpt lat="45.62496634971549" lon="10.574294836407155"><ele>82.0</ele><time>2026-04-20T11:14:58.978Z</time></trkpt><trkpt lat="45.62486497944198" lon="10.574163475990934"><ele>82.0</ele><time>2026-04-20T11:14:59.978Z</time></trkpt><trkpt lat="45.624765891673995" lon="10.5740401388331"><ele>82.0</ele><time>2026-04-20T11:15:00.978Z</time></trkpt><trkpt lat="45.62466971876361" lon="10.573918139773395"><ele>82.0</ele><time>2026-04-20T11:15:01.978Z</time></trkpt><trkpt lat="45.624579584562284" lon="10.5738113219643"><ele>82.0</ele><time>2026-04-20T11:15:02.978Z</time></trkpt><trkpt lat="45.624481144622145" lon="10.573701184829787"><ele>80.75</ele><time>2026-04-20T11:15:03.978Z</time></trkpt><trkpt lat="45.62440898424265" lon="10.573595924456832"><ele>79.5</ele><time>2026-04-20T11:15:04.978Z</time></trkpt><trkpt lat="45.624330731399404" lon="10.573470601589532"><ele>78.25</ele><time>2026-04-20T11:15:05.978Z</time></trkpt><trkpt lat="45.62426054579656" lon="10.57334750232506"><ele>77.0</ele><time>2026-04-20T11:15:06.978Z</time></trkpt><trkpt lat="45.62418848982095" lon="10.573209655545876"><ele>77.0</ele><time>2026-04-20T11:15:07.978Z</time></trkpt><trkpt lat="45.62412344636177" lon="10.573050858228154"><ele>77.0</ele><time>2026-04-20T11:15:08.978Z</time></trkpt><trkpt lat="45.62408431195764" lon="10.572852097896662"><ele>77.0</ele><time>2026-04-20T11:15:09.978Z</time></trkpt><trkpt lat="45.62402418408272" lon="10.57266240191806"><ele>77.0</ele><time>2026-04-20T11:15:10.978Z</time></trkpt><trkpt lat="45.62396758229656" lon="10.57247728710384"><ele>78.25</ele><time>2026-04-20T11:15:11.978Z</time></trkpt><trkpt lat="45.62391782607089" lon="10.57231747331628"><ele>79.5</ele><time>2026-04-20T11:15:12.978Z</time></trkpt><trkpt lat="45.62386821871814" lon="10.572160848578825"><ele>80.75</ele><time>2026-04-20T11:15:13.978Z</time></trkpt><trkpt lat="45.623813255177026" lon="10.571993918397117"><ele>82.0</ele><time>2026-04-20T11:15:14.978Z</time></trkpt><trkpt lat="45.62375795852488" lon="10.571831402862705"><ele>83.0</ele><time>2026-04-20T11:15:15.978Z</time></trkpt><trkpt lat="45.62370499097565" lon="10.571694635875705"><ele>84.0</ele><time>2026-04-20T11:15:16.978Z</time></trkpt><trkpt lat="45.62363771040808" lon="10.571545243136928"><ele>85.0</ele><time>2026-04-20T11:15:17.978Z</time></trkpt><trkpt lat="45.623573141853086" lon="10.571425301360886"><ele>86.0</ele><time>2026-04-20T11:15:18.978Z</time></trkpt><trkpt lat="45.623486603202124" lon="10.571315074879337"><ele>85.0</ele><time>2026-04-20T11:15:19.978Z</time></trkpt><trkpt lat="45.623413760913735" lon="10.57120020134072"><ele>84.0</ele><time>2026-04-20T11:15:20.978Z</time></trkpt><trkpt lat="45.62334978611994" lon="10.571082726501462"><ele>83.0</ele><time>2026-04-20T11:15:21.978Z</time></trkpt><trkpt lat="45.62325807175469" lon="10.571001336088813"><ele>82.0</ele><time>2026-04-20T11:15:22.978Z</time></trkpt><trkpt lat="45.62319024145081" lon="10.570872887084587"><ele>81.0</ele><time>2026-04-20T11:15:23.978Z</time></trkpt><trkpt lat="45.62311304007657" lon="10.570783718295601"><ele>81.0</ele><time>2026-04-20T11:15:24.978Z</time></trkpt><trkpt lat="45.623032011098445" lon="10.57069504938894"><ele>81.0</ele><time>2026-04-20T11:15:25.978Z</time></trkpt><trkpt lat="45.62295424619889" lon="10.57060463653661"><ele>81.0</ele><time>2026-04-20T11:15:26.978Z</time></trkpt><trkpt lat="45.622871416555434" lon="10.570518025674229"><ele>81.0</ele><time>2026-04-20T11:15:27.978Z</time></trkpt><trkpt lat="45.62279452191925" lon="10.570416434296103"><ele>81.0</ele><time>2026-04-20T11:15:28.978Z</time></trkpt><trkpt lat="45.62271041179034" lon="10.570291407859482"><ele>79.5</ele><time>2026-04-20T11:15:29.978Z</time></trkpt><trkpt lat="45.622622063700824" lon="10.570147645614764"><ele>78.0</ele><time>2026-04-20T11:15:30.978Z</time></trkpt><trkpt lat="45.622539843975865" lon="10.570011569150374"><ele>76.5</ele><time>2026-04-20T11:15:31.978Z</time></trkpt><trkpt lat="45.622467749654085" lon="10.569883221065007"><ele>75.0</ele><time>2026-04-20T11:15:32.978Z</time></trkpt><trkpt lat="45.62239682171275" lon="10.569761120739164"><ele>75.0</ele><time>2026-04-20T11:15:33.978Z</time></trkpt><trkpt lat="45.62232580927792" lon="10.569639191007425"><ele>75.0</ele><time>2026-04-20T11:15:34.978Z</time></trkpt><trkpt lat="45.622254816068796" lon="10.569486790218074"><ele>75.0</ele><time>2026-04-20T11:15:35.978Z</time></trkpt><trkpt lat="45.62219104029096" lon="10.569343089553742"><ele>75.0</ele><time>2026-04-20T11:15:36.978Z</time></trkpt><trkpt lat="45.62213151379177" lon="10.56919670917978"><ele>75.25</ele><time>2026-04-20T11:15:37.978Z</time></trkpt><trkpt lat="45.622072391188105" lon="10.56904248712794"><ele>75.5</ele><time>2026-04-20T11:15:38.978Z</time></trkpt><trkpt lat="45.6220117522503" lon="10.568886845320325"><ele>75.75</ele><time>2026-04-20T11:15:39.978Z</time></trkpt><trkpt lat="45.62194790043688" lon="10.568738165782099"><ele>76.0</ele><time>2026-04-20T11:15:40.978Z</time></trkpt><trkpt lat="45.62192503635209" lon="10.56858743937085"><ele>76.0</ele><time>2026-04-20T11:15:41.978Z</time></trkpt><trkpt lat="45.62185349043527" lon="10.56844093901651"><ele>76.0</ele><time>2026-04-20T11:15:42.978Z</time></trkpt><trkpt lat="45.62177389422222" lon="10.56829097694904"><ele>76.0</ele><time>2026-04-20T11:15:43.978Z</time></trkpt><trkpt lat="45.62169323470645" lon="10.568152680522154"><ele>76.0</ele><time>2026-04-20T11:15:44.978Z</time></trkpt><trkpt lat="45.621609205992165" lon="10.568013764354655"><ele>76.0</ele><time>2026-04-20T11:15:45.978Z</time></trkpt><trkpt lat="45.6215197165846" lon="10.567861176272483"><ele>76.0</ele><time>2026-04-20T11:15:46.978Z</time></trkpt><trkpt lat="45.62143379503116" lon="10.567719640496668"><ele>76.0</ele><time>2026-04-20T11:15:47.978Z</time></trkpt><trkpt lat="45.62135532290155" lon="10.567595380419894"><ele>76.0</ele><time>2026-04-20T11:15:48.978Z</time></trkpt><trkpt lat="45.62126871997534" lon="10.567456221384482"><ele>75.66666666666666</ele><time>2026-04-20T11:15:49.978Z</time></trkpt><trkpt lat="45.62116213184144" lon="10.567304462924724"><ele>75.33333333333333</ele><time>2026-04-20T11:15:50.978Z</time></trkpt><trkpt lat="45.62103712291561" lon="10.567131713770676"><ele>75.0</ele><time>2026-04-20T11:15:51.979Z</time></trkpt><trkpt lat="45.620902093105165" lon="10.566955874798598"><ele>75.0</ele><time>2026-04-20T11:15:52.978Z</time></trkpt><trkpt lat="45.620778663335045" lon="10.566771429271277"><ele>75.0</ele><time>2026-04-20T11:15:53.978Z</time></trkpt><trkpt lat="45.62065169287121" lon="10.566574356732827"><ele>75.0</ele><time>2026-04-20T11:15:54.978Z</time></trkpt><trkpt lat="45.62052724668673" lon="10.566383268240049"><ele>76.66666666666667</ele><time>2026-04-20T11:15:55.979Z</time></trkpt><trkpt lat="45.62040733031961" lon="10.566193212270866"><ele>78.33333333333334</ele><time>2026-04-20T11:15:56.979Z</time></trkpt><trkpt lat="45.62029391667456" lon="10.56602668863571"><ele>80.0</ele><time>2026-04-20T11:15:57.978Z</time></trkpt><trkpt lat="45.620181572166764" lon="10.565854086704073"><ele>78.33333333333334</ele><time>2026-04-20T11:15:58.978Z</time></trkpt><trkpt lat="45.620038491745625" lon="10.565672405916844"><ele>76.66666666666667</ele><time>2026-04-20T11:15:59.978Z</time></trkpt><trkpt lat="45.61991319760447" lon="10.565497030892267"><ele>75.0</ele><time>2026-04-20T11:16:00.979Z</time></trkpt><trkpt lat="45.619799742463506" lon="10.565334069544459"><ele>75.0</ele><time>2026-04-20T11:16:01.979Z</time></trkpt><trkpt lat="45.61969121269051" lon="10.565169126091273"><ele>75.0</ele><time>2026-04-20T11:16:02.979Z</time></trkpt><trkpt lat="45.619588017465134" lon="10.565021543382601"><ele>75.0</ele><time>2026-04-20T11:16:03.979Z</time></trkpt><trkpt lat="45.61951125616041" lon="10.56488360362459"><ele>75.0</ele><time>2026-04-20T11:16:04.979Z</time></trkpt><trkpt lat="45.61941427174075" lon="10.564705523473304"><ele>74.33333333333333</ele><time>2026-04-20T11:16:05.979Z</time></trkpt><trkpt lat="45.61934473262203" lon="10.564509597010977"><ele>73.66666666666666</ele><time>2026-04-20T11:16:06.979Z</time></trkpt><trkpt lat="45.619275368646186" lon="10.56428831750867"><ele>73.0</ele><time>2026-04-20T11:16:07.979Z</time></trkpt><trkpt lat="45.61921420577334" lon="10.564062009394718"><ele>73.0</ele><time>2026-04-20T11:16:08.979Z</time></trkpt><trkpt lat="45.61914706052895" lon="10.563851397290174"><ele>73.0</ele><time>2026-04-20T11:16:09.979Z</time></trkpt><trkpt lat="45.619074229906616" lon="10.563635597845462"><ele>73.0</ele><time>2026-04-20T11:16:10.979Z</time></trkpt><trkpt lat="45.61901454544992" lon="10.563415441966379"><ele>74.0</ele><time>2026-04-20T11:16:11.979Z</time></trkpt><trkpt lat="45.61894473943521" lon="10.563194475001776"><ele>75.0</ele><time>2026-04-20T11:16:12.979Z</time></trkpt><trkpt lat="45.618887204832" lon="10.562980775336973"><ele>76.0</ele><time>2026-04-20T11:16:13.979Z</time></trkpt><trkpt lat="45.61882823065538" lon="10.56275191558495"><ele>77.33333333333333</ele><time>2026-04-20T11:16:14.979Z</time></trkpt><trkpt lat="45.61877955967419" lon="10.56251706036537"><ele>78.66666666666667</ele><time>2026-04-20T11:16:15.979Z</time></trkpt><trkpt lat="45.61873505173514" lon="10.56228617834864"><ele>80.0</ele><time>2026-04-20T11:16:16.979Z</time></trkpt><trkpt lat="45.61868966328258" lon="10.562048165913374"><ele>77.33333333333334</ele><time>2026-04-20T11:16:17.979Z</time></trkpt><trkpt lat="45.6186449504134" lon="10.561824014145186"><ele>74.66666666666667</ele><time>2026-04-20T11:16:18.979Z</time></trkpt><trkpt lat="45.61861163136877" lon="10.561594326461881"><ele>72.0</ele><time>2026-04-20T11:16:19.979Z</time></trkpt><trkpt lat="45.61856988350399" lon="10.56137756489983"><ele>72.33333333333333</ele><time>2026-04-20T11:16:20.979Z</time></trkpt><trkpt lat="45.618512528970825" lon="10.561158595597849"><ele>72.66666666666666</ele><time>2026-04-20T11:16:21.979Z</time></trkpt><trkpt lat="45.61850337111811" lon="10.560914589351537"><ele>73.0</ele><time>2026-04-20T11:16:22.979Z</time></trkpt><trkpt lat="45.61846614236474" lon="10.56067730545878"><ele>73.0</ele><time>2026-04-20T11:16:23.979Z</time></trkpt><trkpt lat="45.61842549590392" lon="10.560445391700032"><ele>73.0</ele><time>2026-04-20T11:16:24.979Z</time></trkpt><trkpt lat="45.618385339915314" lon="10.56022095597592"><ele>73.0</ele><time>2026-04-20T11:16:25.979Z</time></trkpt><trkpt lat="45.618338333847746" lon="10.560006298709595"><ele>73.33333333333333</ele><time>2026-04-20T11:16:26.979Z</time></trkpt><trkpt lat="45.61829078297011" lon="10.559784012022293"><ele>73.66666666666667</ele><time>2026-04-20T11:16:27.979Z</time></trkpt><trkpt lat="45.61824628991345" lon="10.559566315544563"><ele>74.0</ele><time>2026-04-20T11:16:28.979Z</time></trkpt><trkpt lat="45.61820590425235" lon="10.55936774046316"><ele>74.5</ele><time>2026-04-20T11:16:29.979Z</time></trkpt><trkpt lat="45.61816658075256" lon="10.559184905923562"><ele>75.0</ele><time>2026-04-20T11:16:30.979Z</time></trkpt><trkpt lat="45.61812962036679" lon="10.558989992401804"><ele>75.5</ele><time>2026-04-20T11:16:31.979Z</time></trkpt><trkpt lat="45.618089740318965" lon="10.558771548013112"><ele>76.0</ele><time>2026-04-20T11:16:32.979Z</time></trkpt><trkpt lat="45.61804148282329" lon="10.55855408010562"><ele>75.66666666666666</ele><time>2026-04-20T11:16:33.979Z</time></trkpt><trkpt lat="45.6179764438646" lon="10.558333175532693"><ele>75.33333333333333</ele><time>2026-04-20T11:16:34.979Z</time></trkpt><trkpt lat="45.61788824189166" lon="10.558121272188295"><ele>75.0</ele><time>2026-04-20T11:16:35.979Z</time></trkpt><trkpt lat="45.61778046639007" lon="10.557915276490478"><ele>76.33333333333333</ele><time>2026-04-20T11:16:36.979Z</time></trkpt><trkpt lat="45.6176705143769" lon="10.557710890356745"><ele>77.66666666666666</ele><time>2026-04-20T11:16:37.979Z</time></trkpt><trkpt lat="45.61755446967135" lon="10.557533241564425"><ele>79.0</ele><time>2026-04-20T11:16:38.979Z</time></trkpt><trkpt lat="45.617462884218995" lon="10.557353111382701"><ele>79.0</ele><time>2026-04-20T11:16:39.979Z</time></trkpt><trkpt lat="45.617369630248426" lon="10.557170685953938"><ele>79.0</ele><time>2026-04-20T11:16:40.979Z</time></trkpt><trkpt lat="45.61726792815578" lon="10.556982233993658"><ele>79.0</ele><time>2026-04-20T11:16:41.979Z</time></trkpt><trkpt lat="45.61716461249019" lon="10.556777113814626"><ele>79.33333333333333</ele><time>2026-04-20T11:16:42.979Z</time></trkpt><trkpt lat="45.61705684217818" lon="10.556562484748447"><ele>79.66666666666667</ele><time>2026-04-20T11:16:43.979Z</time></trkpt><trkpt lat="45.61695234411823" lon="10.556366077373195"><ele>80.0</ele><time>2026-04-20T11:16:44.979Z</time></trkpt><trkpt lat="45.61684575521829" lon="10.556182381274734"><ele>78.5</ele><time>2026-04-20T11:16:45.979Z</time></trkpt><trkpt lat="45.61673073072924" lon="10.555987494104652"><ele>77.0</ele><time>2026-04-20T11:16:46.979Z</time></trkpt><trkpt lat="45.616507940494266" lon="10.555584764017615"><ele>77.0</ele><time>2026-04-20T11:16:48.979Z</time></trkpt><trkpt lat="45.616416321894945" lon="10.555400941012046"><ele>77.0</ele><time>2026-04-20T11:16:49.979Z</time></trkpt><trkpt lat="45.61633159716437" lon="10.555216775701883"><ele>77.0</ele><time>2026-04-20T11:16:50.979Z</time></trkpt><trkpt lat="45.61625676015098" lon="10.555075198122466"><ele>77.0</ele><time>2026-04-20T11:16:51.979Z</time></trkpt><trkpt lat="45.61614287033117" lon="10.55482250702523"><ele>77.0</ele><time>2026-04-20T11:16:53.979Z</time></trkpt><trkpt lat="45.616082886294144" lon="10.554699091269587"><ele>77.0</ele><time>2026-04-20T11:16:54.979Z</time></trkpt><trkpt lat="45.616026338440356" lon="10.554588210798732"><ele>77.0</ele><time>2026-04-20T11:16:55.979Z</time></trkpt><trkpt lat="45.6160148115722" lon="10.554456324604118"><ele>77.0</ele><time>2026-04-20T11:16:56.979Z</time></trkpt><trkpt lat="45.61596871594559" lon="10.55435598620473"><ele>77.0</ele><time>2026-04-20T11:16:57.979Z</time></trkpt><trkpt lat="45.61592240465875" lon="10.554252249451173"><ele>77.66666666666667</ele><time>2026-04-20T11:16:58.979Z</time></trkpt><trkpt lat="45.61587229917733" lon="10.554142376228665"><ele>78.33333333333334</ele><time>2026-04-20T11:16:59.979Z</time></trkpt><trkpt lat="45.61581641740299" lon="10.55403373155186"><ele>79.0</ele><time>2026-04-20T11:17:00.979Z</time></trkpt><trkpt lat="45.615770353578455" lon="10.553947181469201"><ele>79.66666666666667</ele><time>2026-04-20T11:17:01.979Z</time></trkpt><trkpt lat="45.61573167255342" lon="10.553864088262765"><ele>80.33333333333333</ele><time>2026-04-20T11:17:02.979Z</time></trkpt><trkpt lat="45.615687753022556" lon="10.553783700463196"><ele>81.0</ele><time>2026-04-20T11:17:03.979Z</time></trkpt><trkpt lat="45.61564597864108" lon="10.553697259536479"><ele>81.14285714285714</ele><time>2026-04-20T11:17:04.979Z</time></trkpt><trkpt lat="45.61560650442493" lon="10.553605083917013"><ele>81.28571428571428</ele><time>2026-04-20T11:17:05.979Z</time></trkpt><trkpt lat="45.615567385863514" lon="10.553514102069776"><ele>81.42857142857142</ele><time>2026-04-20T11:17:06.979Z</time></trkpt><trkpt lat="45.615530662939086" lon="10.553431217170278"><ele>81.57142857142857</ele><time>2026-04-20T11:17:07.979Z</time></trkpt><trkpt lat="45.61549758596693" lon="10.553353370778424"><ele>81.71428571428571</ele><time>2026-04-20T11:17:08.979Z</time></trkpt><trkpt lat="45.61546063268806" lon="10.553273075608798"><ele>81.85714285714285</ele><time>2026-04-20T11:17:09.979Z</time></trkpt><trkpt lat="45.61542076061587" lon="10.55318203666337"><ele>82.0</ele><time>2026-04-20T11:17:10.979Z</time></trkpt><trkpt lat="45.61537118716818" lon="10.553074812250982"><ele>80.8</ele><time>2026-04-20T11:17:11.979Z</time></trkpt><trkpt lat="45.61531762382748" lon="10.552963125621378"><ele>79.6</ele><time>2026-04-20T11:17:12.979Z</time></trkpt><trkpt lat="45.615267721060306" lon="10.55284638846642"><ele>78.39999999999999</ele><time>2026-04-20T11:17:13.979Z</time></trkpt><trkpt lat="45.61522496069755" lon="10.552744720274335"><ele>77.19999999999999</ele><time>2026-04-20T11:17:14.979Z</time></trkpt><trkpt lat="45.61518679026812" lon="10.552652419407147"><ele>76.0</ele><time>2026-04-20T11:17:15.979Z</time></trkpt><trkpt lat="45.61512728609774" lon="10.552496299998555"><ele>76.0</ele><time>2026-04-20T11:17:17.979Z</time></trkpt><trkpt lat="45.615092761056474" lon="10.552418344913713"><ele>76.0</ele><time>2026-04-20T11:17:18.979Z</time></trkpt><trkpt lat="45.61505805272061" lon="10.552337576181575"><ele>76.0</ele><time>2026-04-20T11:17:19.979Z</time></trkpt><trkpt lat="45.61502452490804" lon="10.552258787058319"><ele>76.0</ele><time>2026-04-20T11:17:20.979Z</time></trkpt><trkpt lat="45.61498778009889" lon="10.552173951622066"><ele>76.0</ele><time>2026-04-20T11:17:21.979Z</time></trkpt><trkpt lat="45.61494719424879" lon="10.55208391064155"><ele>76.0</ele><time>2026-04-20T11:17:22.979Z</time></trkpt><trkpt lat="45.61490831003919" lon="10.551983096253432"><ele>76.0</ele><time>2026-04-20T11:17:23.979Z</time></trkpt><trkpt lat="45.61486304217713" lon="10.551873591906457"><ele>76.16666666666666</ele><time>2026-04-20T11:17:24.979Z</time></trkpt><trkpt lat="45.61481511576368" lon="10.551760592115928"><ele>76.33333333333333</ele><time>2026-04-20T11:17:25.979Z</time></trkpt><trkpt lat="45.61477270698507" lon="10.55166395597106"><ele>76.5</ele><time>2026-04-20T11:17:26.979Z</time></trkpt><trkpt lat="45.61473158769143" lon="10.55156430234262"><ele>76.66666666666667</ele><time>2026-04-20T11:17:27.979Z</time></trkpt><trkpt lat="45.6146927543242" lon="10.55146153468108"><ele>76.83333333333334</ele><time>2026-04-20T11:17:28.979Z</time></trkpt><trkpt lat="45.61465997198663" lon="10.551370447513515"><ele>77.0</ele><time>2026-04-20T11:17:29.979Z</time></trkpt><trkpt lat="45.61461822506959" lon="10.551283812001166"><ele>77.5</ele><time>2026-04-20T11:17:30.979Z</time></trkpt><trkpt lat="45.61458599427421" lon="10.551196599647575"><ele>78.0</ele><time>2026-04-20T11:17:31.979Z</time></trkpt><trkpt lat="45.61453754250174" lon="10.551061949906758"><ele>78.5</ele><time>2026-04-20T11:17:33.979Z</time></trkpt><trkpt lat="45.614491029293895" lon="10.550920737852252"><ele>79.0</ele><time>2026-04-20T11:17:35.979Z</time></trkpt><trkpt lat="45.61446073549272" lon="10.55082804665476"><ele>79.5</ele><time>2026-04-20T11:17:36.979Z</time></trkpt><trkpt lat="45.61442602046047" lon="10.550723044902771"><ele>80.0</ele><time>2026-04-20T11:17:37.979Z</time></trkpt><trkpt lat="45.61439510456882" lon="10.550609462030963"><ele>78.6</ele><time>2026-04-20T11:17:38.979Z</time></trkpt><trkpt lat="45.614372803451865" lon="10.550492846631979"><ele>77.2</ele><time>2026-04-20T11:17:39.979Z</time></trkpt><trkpt lat="45.614343753433424" lon="10.550353851914794"><ele>75.8</ele><time>2026-04-20T11:17:40.979Z</time></trkpt><trkpt lat="45.61431751294899" lon="10.550220191853434"><ele>74.4</ele><time>2026-04-20T11:17:41.979Z</time></trkpt><trkpt lat="45.61430001145932" lon="10.550103174387194"><ele>73.0</ele><time>2026-04-20T11:17:42.979Z</time></trkpt><trkpt lat="45.61427626794963" lon="10.549988396725478"><ele>73.0</ele><time>2026-04-20T11:17:43.979Z</time></trkpt><trkpt lat="45.614253271215425" lon="10.549873069971776"><ele>73.0</ele><time>2026-04-20T11:17:44.979Z</time></trkpt><trkpt lat="45.61427112550513" lon="10.549762132334562"><ele>73.0</ele><time>2026-04-20T11:17:45.979Z</time></trkpt><trkpt lat="45.61424711329608" lon="10.549643240898206"><ele>73.0</ele><time>2026-04-20T11:17:46.979Z</time></trkpt><trkpt lat="45.614223019195684" lon="10.549521259916661"><ele>73.0</ele><time>2026-04-20T11:17:47.979Z</time></trkpt><trkpt lat="45.61419966674016" lon="10.549395728677714"><ele>73.0</ele><time>2026-04-20T11:17:48.979Z</time></trkpt><trkpt lat="45.614174344626136" lon="10.549261017319694"><ele>73.0</ele><time>2026-04-20T11:17:49.979Z</time></trkpt><trkpt lat="45.61414390171771" lon="10.54910758999079"><ele>73.0</ele><time>2026-04-20T11:17:50.979Z</time></trkpt><trkpt lat="45.61411018657975" lon="10.548937672660436"><ele>73.0</ele><time>2026-04-20T11:17:51.979Z</time></trkpt><trkpt lat="45.614073475700984" lon="10.54875541303983"><ele>73.0</ele><time>2026-04-20T11:17:52.979Z</time></trkpt><trkpt lat="45.61403620335458" lon="10.548564877680317"><ele>73.5</ele><time>2026-04-20T11:17:53.979Z</time></trkpt><trkpt lat="45.614000089089906" lon="10.548382582658832"><ele>74.0</ele><time>2026-04-20T11:17:54.979Z</time></trkpt><trkpt lat="45.61396984798459" lon="10.548202258370415"><ele>74.5</ele><time>2026-04-20T11:17:55.979Z</time></trkpt><trkpt lat="45.61392651486752" lon="10.547998404744567"><ele>75.0</ele><time>2026-04-20T11:17:56.979Z</time></trkpt><trkpt lat="45.61388527035554" lon="10.547785242240682"><ele>76.0</ele><time>2026-04-20T11:17:57.978Z</time></trkpt><trkpt lat="45.61385070025732" lon="10.547587598677984"><ele>77.0</ele><time>2026-04-20T11:17:58.978Z</time></trkpt><trkpt lat="45.61380928966653" lon="10.547383694750993"><ele>78.0</ele><time>2026-04-20T11:17:59.978Z</time></trkpt><trkpt lat="45.61377257067973" lon="10.54718770830115"><ele>79.0</ele><time>2026-04-20T11:18:00.978Z</time></trkpt><trkpt lat="45.61373286917946" lon="10.547016149462648"><ele>79.66666666666666</ele><time>2026-04-20T11:18:01.979Z</time></trkpt><trkpt lat="45.61368594034161" lon="10.546797952459553"><ele>80.33333333333333</ele><time>2026-04-20T11:18:02.979Z</time></trkpt><trkpt lat="45.6136414774137" lon="10.546580579146042"><ele>81.0</ele><time>2026-04-20T11:18:03.979Z</time></trkpt><trkpt lat="45.61359867392622" lon="10.54635599605408"><ele>79.33333333333333</ele><time>2026-04-20T11:18:04.978Z</time></trkpt><trkpt lat="45.61355420025803" lon="10.54611559589141"><ele>77.66666666666666</ele><time>2026-04-20T11:18:05.978Z</time></trkpt><trkpt lat="45.613502928567954" lon="10.54588357904324"><ele>76.0</ele><time>2026-04-20T11:18:06.979Z</time></trkpt><trkpt lat="45.61346385547589" lon="10.545680413877488"><ele>76.0</ele><time>2026-04-20T11:18:07.979Z</time></trkpt><trkpt lat="45.613413185855435" lon="10.545462747824274"><ele>76.0</ele><time>2026-04-20T11:18:08.979Z</time></trkpt><trkpt lat="45.61335652867" lon="10.545252128471219"><ele>76.0</ele><time>2026-04-20T11:18:09.979Z</time></trkpt><trkpt lat="45.61329701463547" lon="10.545064688236984"><ele>78.25</ele><time>2026-04-20T11:18:10.979Z</time></trkpt><trkpt lat="45.61322310235374" lon="10.544878112864447"><ele>80.5</ele><time>2026-04-20T11:18:11.979Z</time></trkpt><trkpt lat="45.61315846104056" lon="10.544695032581012"><ele>82.75</ele><time>2026-04-20T11:18:12.979Z</time></trkpt><trkpt lat="45.61308960820875" lon="10.544521289398268"><ele>85.0</ele><time>2026-04-20T11:18:13.979Z</time></trkpt><trkpt lat="45.61302286174155" lon="10.544357274944604"><ele>88.75</ele><time>2026-04-20T11:18:14.979Z</time></trkpt><trkpt lat="45.61296371027877" lon="10.544198329423796"><ele>92.5</ele><time>2026-04-20T11:18:15.979Z</time></trkpt><trkpt lat="45.61295380772107" lon="10.544045794695572"><ele>96.25</ele><time>2026-04-20T11:18:16.979Z</time></trkpt><trkpt lat="45.612904182588075" lon="10.543892519127033"><ele>100.0</ele><time>2026-04-20T11:18:17.979Z</time></trkpt><trkpt lat="45.61284593982536" lon="10.543710677276115"><ele>93.5</ele><time>2026-04-20T11:18:18.979Z</time></trkpt><trkpt lat="45.61279917760967" lon="10.543521798186964"><ele>87.0</ele><time>2026-04-20T11:18:19.979Z</time></trkpt><trkpt lat="45.612752679050985" lon="10.54331205603521"><ele>80.5</ele><time>2026-04-20T11:18:20.979Z</time></trkpt><trkpt lat="45.612721358883725" lon="10.543131087396636"><ele>74.0</ele><time>2026-04-20T11:18:21.979Z</time></trkpt><trkpt lat="45.61269070887806" lon="10.542972030402817"><ele>75.25</ele><time>2026-04-20T11:18:22.979Z</time></trkpt><trkpt lat="45.61266884320256" lon="10.542817505986067"><ele>76.5</ele><time>2026-04-20T11:18:23.979Z</time></trkpt><trkpt lat="45.61262837903877" lon="10.54263798822174"><ele>77.75</ele><time>2026-04-20T11:18:24.979Z</time></trkpt><trkpt lat="45.6125816223288" lon="10.542471851696025"><ele>79.0</ele><time>2026-04-20T11:18:25.979Z</time></trkpt><trkpt lat="45.61252386713268" lon="10.54229993555519"><ele>79.0</ele><time>2026-04-20T11:18:26.979Z</time></trkpt><trkpt lat="45.61246974339552" lon="10.542148427333082"><ele>79.0</ele><time>2026-04-20T11:18:27.979Z</time></trkpt><trkpt lat="45.61242773434955" lon="10.542029285212768"><ele>79.0</ele><time>2026-04-20T11:18:28.979Z</time></trkpt><trkpt lat="45.61238785859401" lon="10.541914099795678"><ele>79.0</ele><time>2026-04-20T11:18:29.979Z</time></trkpt><trkpt lat="45.612344445038474" lon="10.541781769552896"><ele>79.0</ele><time>2026-04-20T11:18:30.979Z</time></trkpt><trkpt lat="45.61229620289526" lon="10.541639029069643"><ele>80.5</ele><time>2026-04-20T11:18:31.979Z</time></trkpt><trkpt lat="45.61223195937133" lon="10.54146918577029"><ele>82.0</ele><time>2026-04-20T11:18:32.979Z</time></trkpt><trkpt lat="45.61217383300684" lon="10.541302036033748"><ele>83.5</ele><time>2026-04-20T11:18:33.979Z</time></trkpt><trkpt lat="45.61210926507185" lon="10.54112789746005"><ele>85.0</ele><time>2026-04-20T11:18:34.979Z</time></trkpt><trkpt lat="45.61203376901797" lon="10.54092582895264"><ele>85.33333333333333</ele><time>2026-04-20T11:18:35.979Z</time></trkpt><trkpt lat="45.61194525514984" lon="10.54070813177046"><ele>85.66666666666667</ele><time>2026-04-20T11:18:36.979Z</time></trkpt><trkpt lat="45.611860362180906" lon="10.540484816182964"><ele>86.0</ele><time>2026-04-20T11:18:37.979Z</time></trkpt><trkpt lat="45.61176986222679" lon="10.540242126607385"><ele>86.0</ele><time>2026-04-20T11:18:38.979Z</time></trkpt><trkpt lat="45.61168585514376" lon="10.540007721092936"><ele>86.0</ele><time>2026-04-20T11:18:39.979Z</time></trkpt><trkpt lat="45.611592888221374" lon="10.539758793522562"><ele>86.0</ele><time>2026-04-20T11:18:40.979Z</time></trkpt><trkpt lat="45.61148706076007" lon="10.539499337660983"><ele>88.33333333333334</ele><time>2026-04-20T11:18:41.979Z</time></trkpt><trkpt lat="45.61137547095211" lon="10.539234791572047"><ele>90.66666666666667</ele><time>2026-04-20T11:18:42.979Z</time></trkpt><trkpt lat="45.61128789741003" lon="10.538951128026694"><ele>93.0</ele><time>2026-04-20T11:18:43.979Z</time></trkpt><trkpt lat="45.61119055774152" lon="10.538691657468453"><ele>90.0</ele><time>2026-04-20T11:18:44.979Z</time></trkpt><trkpt lat="45.61109869542281" lon="10.538444144781385"><ele>87.0</ele><time>2026-04-20T11:18:45.979Z</time></trkpt><trkpt lat="45.61101232844051" lon="10.53821096602979"><ele>84.0</ele><time>2026-04-20T11:18:46.979Z</time></trkpt><trkpt lat="45.61093227778126" lon="10.537980468675716"><ele>87.0</ele><time>2026-04-20T11:18:47.979Z</time></trkpt><trkpt lat="45.61086993547147" lon="10.537738546549738"><ele>90.0</ele><time>2026-04-20T11:18:48.979Z</time></trkpt><trkpt lat="45.61081767021804" lon="10.537500574230025"><ele>93.0</ele><time>2026-04-20T11:18:49.979Z</time></trkpt><trkpt lat="45.61078144591119" lon="10.537283338578288"><ele>93.0</ele><time>2026-04-20T11:18:50.979Z</time></trkpt><trkpt lat="45.610776074216496" lon="10.537086739283168"><ele>93.0</ele><time>2026-04-20T11:18:51.979Z</time></trkpt><trkpt lat="45.61081001784848" lon="10.536871354215062"><ele>93.0</ele><time>2026-04-20T11:18:52.979Z</time></trkpt><trkpt lat="45.610808981624025" lon="10.536669309129751"><ele>93.0</ele><time>2026-04-20T11:18:53.979Z</time></trkpt><trkpt lat="45.610775487093775" lon="10.536469342179494"><ele>96.0</ele><time>2026-04-20T11:18:54.979Z</time></trkpt><trkpt lat="45.610706327748304" lon="10.536261476999398"><ele>99.0</ele><time>2026-04-20T11:18:55.979Z</time></trkpt><trkpt lat="45.61059064454597" lon="10.536062846425219"><ele>102.0</ele><time>2026-04-20T11:18:56.979Z</time></trkpt><trkpt lat="45.61048231196128" lon="10.535835204004073"><ele>100.66666666666666</ele><time>2026-04-20T11:18:57.979Z</time></trkpt><trkpt lat="45.610375874053865" lon="10.53561197905187"><ele>99.33333333333333</ele><time>2026-04-20T11:18:58.979Z</time></trkpt><trkpt lat="45.61029479198878" lon="10.535399844803777"><ele>98.0</ele><time>2026-04-20T11:18:59.979Z</time></trkpt><trkpt lat="45.610228117654685" lon="10.535202087573307"><ele>98.0</ele><time>2026-04-20T11:19:00.979Z</time></trkpt><trkpt lat="45.61016187426045" lon="10.534996892523425"><ele>98.0</ele><time>2026-04-20T11:19:01.979Z</time></trkpt><trkpt lat="45.61007851743145" lon="10.534797692024227"><ele>98.0</ele><time>2026-04-20T11:19:02.979Z</time></trkpt><trkpt lat="45.60997447530666" lon="10.534601284058287"><ele>104.0</ele><time>2026-04-20T11:19:03.979Z</time></trkpt><trkpt lat="45.60984603238739" lon="10.534418465532774"><ele>110.0</ele><time>2026-04-20T11:19:04.979Z</time></trkpt><trkpt lat="45.609739186249215" lon="10.534261016720668"><ele>116.0</ele><time>2026-04-20T11:19:05.979Z</time></trkpt><trkpt lat="45.60964418970938" lon="10.53410013081369"><ele>116.0</ele><time>2026-04-20T11:19:06.979Z</time></trkpt><trkpt lat="45.60958544480963" lon="10.53387353907059"><ele>116.0</ele><time>2026-04-20T11:19:07.979Z</time></trkpt><trkpt lat="45.60955097407822" lon="10.53363700723821"><ele>116.0</ele><time>2026-04-20T11:19:08.979Z</time></trkpt><trkpt lat="45.60952677822164" lon="10.533397251614838"><ele>117.5</ele><time>2026-04-20T11:19:09.979Z</time></trkpt><trkpt lat="45.609532889378016" lon="10.5331873886123"><ele>119.0</ele><time>2026-04-20T11:19:10.979Z</time></trkpt><trkpt lat="45.60954404388095" lon="10.532985059182241"><ele>120.5</ele><time>2026-04-20T11:19:11.979Z</time></trkpt><trkpt lat="45.609565145275326" lon="10.532763878135018"><ele>122.0</ele><time>2026-04-20T11:19:12.979Z</time></trkpt><trkpt lat="45.609646944059634" lon="10.53255497352261"><ele>122.0</ele><time>2026-04-20T11:19:13.979Z</time></trkpt><trkpt lat="45.60973908080448" lon="10.532367921570208"><ele>122.0</ele><time>2026-04-20T11:19:14.979Z</time></trkpt><trkpt lat="45.6097989625508" lon="10.532171320646366"><ele>122.0</ele><time>2026-04-20T11:19:15.979Z</time></trkpt><trkpt lat="45.60984009811878" lon="10.531969031914695"><ele>121.0</ele><time>2026-04-20T11:19:16.979Z</time></trkpt><trkpt lat="45.60983981452494" lon="10.531756756517877"><ele>120.0</ele><time>2026-04-20T11:19:17.979Z</time></trkpt><trkpt lat="45.60979257224766" lon="10.531542566437972"><ele>119.0</ele><time>2026-04-20T11:19:18.979Z</time></trkpt><trkpt lat="45.609700691045454" lon="10.531328144729482"><ele>123.0</ele><time>2026-04-20T11:19:19.979Z</time></trkpt><trkpt lat="45.60958611525964" lon="10.531106863389454"><ele>127.0</ele><time>2026-04-20T11:19:20.979Z</time></trkpt><trkpt lat="45.60947601605351" lon="10.530863821272712"><ele>131.0</ele><time>2026-04-20T11:19:21.979Z</time></trkpt><trkpt lat="45.6093762260464" lon="10.530643111782629"><ele>125.66666666666666</ele><time>2026-04-20T11:19:22.979Z</time></trkpt><trkpt lat="45.60929094730888" lon="10.530410781837848"><ele>120.33333333333334</ele><time>2026-04-20T11:19:23.979Z</time></trkpt><trkpt lat="45.609206572125586" lon="10.530177020018332"><ele>115.0</ele><time>2026-04-20T11:19:24.979Z</time></trkpt><trkpt lat="45.609117899180596" lon="10.529948864953287"><ele>115.0</ele><time>2026-04-20T11:19:25.979Z</time></trkpt><trkpt lat="45.609035905666" lon="10.529713818804007"><ele>115.0</ele><time>2026-04-20T11:19:26.979Z</time></trkpt><trkpt lat="45.60895903645355" lon="10.529476939927898"><ele>115.0</ele><time>2026-04-20T11:19:27.979Z</time></trkpt><trkpt lat="45.6089072028119" lon="10.529244806704948"><ele>118.66666666666667</ele><time>2026-04-20T11:19:28.979Z</time></trkpt><trkpt lat="45.60887055142866" lon="10.52899627078333"><ele>122.33333333333334</ele><time>2026-04-20T11:19:29.979Z</time></trkpt><trkpt lat="45.608838282535494" lon="10.528739309037869"><ele>126.0</ele><time>2026-04-20T11:19:30.979Z</time></trkpt><trkpt lat="45.60881246832363" lon="10.528477450940127"><ele>127.66666666666666</ele><time>2026-04-20T11:19:31.979Z</time></trkpt><trkpt lat="45.608798413576395" lon="10.528209286168355"><ele>129.33333333333331</ele><time>2026-04-20T11:19:32.978Z</time></trkpt><trkpt lat="45.60877147704901" lon="10.527917943287926"><ele>131.0</ele><time>2026-04-20T11:19:33.978Z</time></trkpt><trkpt lat="45.60874301085418" lon="10.527628158022301"><ele>131.66666666666666</ele><time>2026-04-20T11:19:34.978Z</time></trkpt><trkpt lat="45.6087192826285" lon="10.527361811651094"><ele>132.33333333333334</ele><time>2026-04-20T11:19:35.978Z</time></trkpt><trkpt lat="45.608694901286704" lon="10.52712045013036"><ele>133.0</ele><time>2026-04-20T11:19:36.978Z</time></trkpt><trkpt lat="45.608689791200845" lon="10.526874706002497"><ele>133.66666666666669</ele><time>2026-04-20T11:19:37.978Z</time></trkpt><trkpt lat="45.60867187627367" lon="10.526601520005173"><ele>134.33333333333334</ele><time>2026-04-20T11:19:38.978Z</time></trkpt><trkpt lat="45.60866974788323" lon="10.52633771521029"><ele>135.0</ele><time>2026-04-20T11:19:39.978Z</time></trkpt><trkpt lat="45.60866600598183" lon="10.526085826271263"><ele>135.0</ele><time>2026-04-20T11:19:40.978Z</time></trkpt><trkpt lat="45.6086658604474" lon="10.525841438222587"><ele>135.0</ele><time>2026-04-20T11:19:41.978Z</time></trkpt><trkpt lat="45.608676281695345" lon="10.525594255152791"><ele>135.0</ele><time>2026-04-20T11:19:42.978Z</time></trkpt><trkpt lat="45.60868159237095" lon="10.525332393556884"><ele>135.0</ele><time>2026-04-20T11:19:43.978Z</time></trkpt><trkpt lat="45.608709558378564" lon="10.525079249245877"><ele>135.0</ele><time>2026-04-20T11:19:44.978Z</time></trkpt><trkpt lat="45.60871906419661" lon="10.524827564546996"><ele>135.0</ele><time>2026-04-20T11:19:45.978Z</time></trkpt><trkpt lat="45.60873371042977" lon="10.524573851188649"><ele>134.33333333333334</ele><time>2026-04-20T11:19:46.978Z</time></trkpt><trkpt lat="45.60875387797329" lon="10.524336316362799"><ele>133.66666666666669</ele><time>2026-04-20T11:19:47.978Z</time></trkpt><trkpt lat="45.60877267016882" lon="10.524107590610956"><ele>133.0</ele><time>2026-04-20T11:19:48.978Z</time></trkpt><trkpt lat="45.60878366040741" lon="10.523865128915624"><ele>132.0</ele><time>2026-04-20T11:19:49.978Z</time></trkpt><trkpt lat="45.60878836227846" lon="10.523627995843096"><ele>131.0</ele><time>2026-04-20T11:19:50.978Z</time></trkpt><trkpt lat="45.60876823816653" lon="10.523370899452024"><ele>130.0</ele><time>2026-04-20T11:19:51.978Z</time></trkpt><trkpt lat="45.60872570373526" lon="10.523120459349022"><ele>121.0</ele><time>2026-04-20T11:19:52.978Z</time></trkpt><trkpt lat="45.60865474307311" lon="10.52289096075614"><ele>112.0</ele><time>2026-04-20T11:19:53.978Z</time></trkpt><trkpt lat="45.60858936425709" lon="10.522686669562583"><ele>103.0</ele><time>2026-04-20T11:19:54.978Z</time></trkpt><trkpt lat="45.608551536377426" lon="10.522470555729916"><ele>103.0</ele><time>2026-04-20T11:19:55.978Z</time></trkpt><trkpt lat="45.60855079014178" lon="10.52224809278011"><ele>103.0</ele><time>2026-04-20T11:19:56.978Z</time></trkpt><trkpt lat="45.6085733826368" lon="10.522020380865108"><ele>103.0</ele><time>2026-04-20T11:19:57.978Z</time></trkpt><trkpt lat="45.608634359028045" lon="10.52179864707544"><ele>104.0</ele><time>2026-04-20T11:19:58.978Z</time></trkpt><trkpt lat="45.60873532167626" lon="10.521597160758477"><ele>105.0</ele><time>2026-04-20T11:19:59.978Z</time></trkpt><trkpt lat="45.60885781664799" lon="10.521380307709078"><ele>106.0</ele><time>2026-04-20T11:20:00.978Z</time></trkpt><trkpt lat="45.60900287330064" lon="10.521166771307566"><ele>106.0</ele><time>2026-04-20T11:20:01.978Z</time></trkpt><trkpt lat="45.60916021791072" lon="10.520962191455457"><ele>106.0</ele><time>2026-04-20T11:20:02.978Z</time></trkpt><trkpt lat="45.6093089323812" lon="10.52074571962298"><ele>106.0</ele><time>2026-04-20T11:20:03.979Z</time></trkpt><trkpt lat="45.60943714712477" lon="10.520539033831774"><ele>107.66666666666667</ele><time>2026-04-20T11:20:04.979Z</time></trkpt><trkpt lat="45.609563405133855" lon="10.520364647256894"><ele>109.33333333333334</ele><time>2026-04-20T11:20:05.979Z</time></trkpt><trkpt lat="45.60968180077156" lon="10.520157594991947"><ele>111.0</ele><time>2026-04-20T11:20:06.979Z</time></trkpt><trkpt lat="45.60979922401099" lon="10.519953836019122"><ele>111.0</ele><time>2026-04-20T11:20:07.979Z</time></trkpt><trkpt lat="45.60990688792503" lon="10.519714060376232"><ele>111.0</ele><time>2026-04-20T11:20:08.979Z</time></trkpt><trkpt lat="45.610007009666994" lon="10.519466313461777"><ele>111.0</ele><time>2026-04-20T11:20:09.979Z</time></trkpt><trkpt lat="45.61010218263668" lon="10.519229639223852"><ele>110.0</ele><time>2026-04-20T11:20:10.979Z</time></trkpt><trkpt lat="45.6101850581456" lon="10.518976385829461"><ele>109.0</ele><time>2026-04-20T11:20:11.979Z</time></trkpt><trkpt lat="45.610256671918265" lon="10.518704411183293"><ele>108.0</ele><time>2026-04-20T11:20:12.979Z</time></trkpt><trkpt lat="45.61032096229465" lon="10.51842910747002"><ele>111.33333333333334</ele><time>2026-04-20T11:20:13.978Z</time></trkpt><trkpt lat="45.6103802313824" lon="10.518144690450873"><ele>114.66666666666667</ele><time>2026-04-20T11:20:14.978Z</time></trkpt><trkpt lat="45.61047152464988" lon="10.51789870539219"><ele>118.0</ele><time>2026-04-20T11:20:15.979Z</time></trkpt><trkpt lat="45.610532067375395" lon="10.517616149167356"><ele>118.66666666666667</ele><time>2026-04-20T11:20:16.978Z</time></trkpt><trkpt lat="45.6105925213059" lon="10.51734305855135"><ele>119.33333333333334</ele><time>2026-04-20T11:20:17.978Z</time></trkpt><trkpt lat="45.61065111351619" lon="10.517067686433833"><ele>120.0</ele><time>2026-04-20T11:20:18.978Z</time></trkpt><trkpt lat="45.610707458335895" lon="10.516793780918647"><ele>118.66666666666666</ele><time>2026-04-20T11:20:19.978Z</time></trkpt><trkpt lat="45.6107643020358" lon="10.516531930890041"><ele>117.33333333333333</ele><time>2026-04-20T11:20:20.978Z</time></trkpt><trkpt lat="45.610821256642645" lon="10.516258463520225"><ele>116.0</ele><time>2026-04-20T11:20:21.978Z</time></trkpt><trkpt lat="45.610880186252274" lon="10.51597907288405"><ele>114.66666666666666</ele><time>2026-04-20T11:20:22.978Z</time></trkpt><trkpt lat="45.61093684159673" lon="10.515714657657163"><ele>113.33333333333334</ele><time>2026-04-20T11:20:23.978Z</time></trkpt><trkpt lat="45.61098586291821" lon="10.515472649495885"><ele>112.0</ele><time>2026-04-20T11:20:24.978Z</time></trkpt><trkpt lat="45.61103865729998" lon="10.515242096558863"><ele>111.0</ele><time>2026-04-20T11:20:25.978Z</time></trkpt><trkpt lat="45.61109207281785" lon="10.515007821334388"><ele>110.0</ele><time>2026-04-20T11:20:26.978Z</time></trkpt><trkpt lat="45.6111425892721" lon="10.514760098153623"><ele>109.0</ele><time>2026-04-20T11:20:27.978Z</time></trkpt><trkpt lat="45.611199910311655" lon="10.51451210811256"><ele>111.33333333333334</ele><time>2026-04-20T11:20:28.978Z</time></trkpt><trkpt lat="45.61126003771492" lon="10.514247588153921"><ele>113.66666666666666</ele><time>2026-04-20T11:20:29.978Z</time></trkpt><trkpt lat="45.611317025931655" lon="10.513974174323193"><ele>116.0</ele><time>2026-04-20T11:20:30.978Z</time></trkpt><trkpt lat="45.611374455851546" lon="10.513713542186217"><ele>116.0</ele><time>2026-04-20T11:20:31.978Z</time></trkpt><trkpt lat="45.611427315468035" lon="10.513472665931943"><ele>116.0</ele><time>2026-04-20T11:20:32.978Z</time></trkpt><trkpt lat="45.61147696716193" lon="10.513242768444119"><ele>116.0</ele><time>2026-04-20T11:20:33.978Z</time></trkpt><trkpt lat="45.61152372666328" lon="10.513001667883206"><ele>115.66666666666666</ele><time>2026-04-20T11:20:34.978Z</time></trkpt><trkpt lat="45.61157259599695" lon="10.512767740928494"><ele>115.33333333333334</ele><time>2026-04-20T11:20:35.978Z</time></trkpt><trkpt lat="45.61162372925635" lon="10.512522912619763"><ele>115.0</ele><time>2026-04-20T11:20:36.978Z</time></trkpt><trkpt lat="45.61168135909147" lon="10.512259093458306"><ele>114.0</ele><time>2026-04-20T11:20:37.978Z</time></trkpt><trkpt lat="45.61174171823964" lon="10.511988443914934"><ele>113.0</ele><time>2026-04-20T11:20:38.978Z</time></trkpt><trkpt lat="45.611797251397995" lon="10.511719779914932"><ele>112.0</ele><time>2026-04-20T11:20:39.978Z</time></trkpt><trkpt lat="45.61184382709033" lon="10.511484125013693"><ele>112.0</ele><time>2026-04-20T11:20:40.978Z</time></trkpt><trkpt lat="45.6118841320158" lon="10.511258285289099"><ele>112.0</ele><time>2026-04-20T11:20:41.978Z</time></trkpt><trkpt lat="45.61190533729503" lon="10.51105321073321"><ele>112.0</ele><time>2026-04-20T11:20:42.978Z</time></trkpt><trkpt lat="45.6119200462106" lon="10.510880183389032"><ele>112.0</ele><time>2026-04-20T11:20:43.978Z</time></trkpt><trkpt lat="45.61194674363491" lon="10.510733794508464"><ele>112.0</ele><time>2026-04-20T11:20:44.978Z</time></trkpt><trkpt lat="45.61198664747549" lon="10.510597783744954"><ele>111.99999999999999</ele><time>2026-04-20T11:20:45.978Z</time></trkpt><trkpt lat="45.6120373853138" lon="10.510458403840863"><ele>111.99999999999999</ele><time>2026-04-20T11:20:46.978Z</time></trkpt><trkpt lat="45.61206790808829" lon="10.510323933264784"><ele>112.0</ele><time>2026-04-20T11:20:47.978Z</time></trkpt><trkpt lat="45.61204927577319" lon="10.510189351630324"><ele>112.0</ele><time>2026-04-20T11:20:48.978Z</time></trkpt><trkpt lat="45.61198885180341" lon="10.510044087622141"><ele>112.0</ele><time>2026-04-20T11:20:49.978Z</time></trkpt><trkpt lat="45.611899635110966" lon="10.509894201590004"><ele>112.0</ele><time>2026-04-20T11:20:50.978Z</time></trkpt><trkpt lat="45.6118139276554" lon="10.509721516159304"><ele>112.0</ele><time>2026-04-20T11:20:51.978Z</time></trkpt><trkpt lat="45.61174457100542" lon="10.509526953915612"><ele>112.0</ele><time>2026-04-20T11:20:52.978Z</time></trkpt><trkpt lat="45.61167609570873" lon="10.509307230904549"><ele>113.66666666666667</ele><time>2026-04-20T11:20:53.978Z</time></trkpt><trkpt lat="45.61159783922346" lon="10.509080808906146"><ele>115.33333333333334</ele><time>2026-04-20T11:20:54.978Z</time></trkpt><trkpt lat="45.61150482307062" lon="10.508838103520066"><ele>117.0</ele><time>2026-04-20T11:20:55.978Z</time></trkpt><trkpt lat="45.61140734899359" lon="10.508581496134529"><ele>115.66666666666666</ele><time>2026-04-20T11:20:56.978Z</time></trkpt><trkpt lat="45.61130140606877" lon="10.508311771558539"><ele>114.33333333333333</ele><time>2026-04-20T11:20:57.978Z</time></trkpt><trkpt lat="45.61119345617628" lon="10.508032596289404"><ele>113.0</ele><time>2026-04-20T11:20:58.978Z</time></trkpt><trkpt lat="45.61108173470786" lon="10.50775281106795"><ele>113.0</ele><time>2026-04-20T11:20:59.978Z</time></trkpt><trkpt lat="45.610973238040906" lon="10.507500265984449"><ele>113.0</ele><time>2026-04-20T11:21:00.978Z</time></trkpt><trkpt lat="45.61087647843741" lon="10.507269840843126"><ele>113.0</ele><time>2026-04-20T11:21:01.978Z</time></trkpt><trkpt lat="45.610779909867475" lon="10.507046851823597"><ele>117.66666666666666</ele><time>2026-04-20T11:21:02.978Z</time></trkpt><trkpt lat="45.61069317794822" lon="10.506836767289093"><ele>122.33333333333334</ele><time>2026-04-20T11:21:03.978Z</time></trkpt><trkpt lat="45.61061082948215" lon="10.506637938301507"><ele>127.0</ele><time>2026-04-20T11:21:04.978Z</time></trkpt><trkpt lat="45.610542610280454" lon="10.506421610617574"><ele>131.0</ele><time>2026-04-20T11:21:05.978Z</time></trkpt><trkpt lat="45.61049687729866" lon="10.506144496196665"><ele>135.0</ele><time>2026-04-20T11:21:06.978Z</time></trkpt><trkpt lat="45.61046238165269" lon="10.505864476830103"><ele>139.0</ele><time>2026-04-20T11:21:07.978Z</time></trkpt><trkpt lat="45.61043289010538" lon="10.505577916287367"><ele>139.66666666666669</ele><time>2026-04-20T11:21:08.978Z</time></trkpt><trkpt lat="45.61043879839752" lon="10.505281633704179"><ele>140.33333333333334</ele><time>2026-04-20T11:21:09.978Z</time></trkpt><trkpt lat="45.61046627235417" lon="10.50499620493255"><ele>141.0</ele><time>2026-04-20T11:21:10.978Z</time></trkpt><trkpt lat="45.61050644048897" lon="10.504691954976732"><ele>136.66666666666666</ele><time>2026-04-20T11:21:11.978Z</time></trkpt><trkpt lat="45.61055975097577" lon="10.504403812227823"><ele>132.33333333333331</ele><time>2026-04-20T11:21:12.978Z</time></trkpt><trkpt lat="45.61059587110861" lon="10.504132072377908"><ele>128.0</ele><time>2026-04-20T11:21:13.978Z</time></trkpt><trkpt lat="45.610628178285" lon="10.50384782458774"><ele>124.33333333333333</ele><time>2026-04-20T11:21:14.978Z</time></trkpt><trkpt lat="45.61066105525836" lon="10.50355658820086"><ele>120.66666666666666</ele><time>2026-04-20T11:21:15.978Z</time></trkpt><trkpt lat="45.61070082068699" lon="10.503286179653234"><ele>117.0</ele><time>2026-04-20T11:21:16.978Z</time></trkpt><trkpt lat="45.61073153179759" lon="10.503030875054362"><ele>119.66666666666666</ele><time>2026-04-20T11:21:17.978Z</time></trkpt><trkpt lat="45.610773250393976" lon="10.502786905187193"><ele>122.33333333333333</ele><time>2026-04-20T11:21:18.978Z</time></trkpt><trkpt lat="45.61080614780491" lon="10.502503544586272"><ele>125.0</ele><time>2026-04-20T11:21:19.978Z</time></trkpt><trkpt lat="45.61082046539603" lon="10.502236076358546"><ele>128.66666666666666</ele><time>2026-04-20T11:21:20.978Z</time></trkpt><trkpt lat="45.61079818576805" lon="10.501948547133386"><ele>132.33333333333334</ele><time>2026-04-20T11:21:21.978Z</time></trkpt><trkpt lat="45.61077907093648" lon="10.501734597025205"><ele>136.0</ele><time>2026-04-20T11:21:22.978Z</time></trkpt><trkpt lat="45.61075204954072" lon="10.501582153413644"><ele>136.0</ele><time>2026-04-20T11:21:23.978Z</time></trkpt><trkpt lat="45.610740533536365" lon="10.501454956979764"><ele>136.0</ele><time>2026-04-20T11:21:24.978Z</time></trkpt><trkpt lat="45.61074814377171" lon="10.501287401237894"><ele>136.0</ele><time>2026-04-20T11:21:25.978Z</time></trkpt><trkpt lat="45.61076029809536" lon="10.501131234874043"><ele>136.0</ele><time>2026-04-20T11:21:26.978Z</time></trkpt><trkpt lat="45.61078712700447" lon="10.500979680565365"><ele>136.0</ele><time>2026-04-20T11:21:27.978Z</time></trkpt><trkpt lat="45.61078452971388" lon="10.50082717809345"><ele>137.0</ele><time>2026-04-20T11:21:28.978Z</time></trkpt><trkpt lat="45.610747052857555" lon="10.50067412518155"><ele>138.0</ele><time>2026-04-20T11:21:29.978Z</time></trkpt><trkpt lat="45.61067300793265" lon="10.500518313964417"><ele>139.0</ele><time>2026-04-20T11:21:30.978Z</time></trkpt><trkpt lat="45.61056799595505" lon="10.500397371849745"><ele>140.0</ele><time>2026-04-20T11:21:31.978Z</time></trkpt><trkpt lat="45.610448790545284" lon="10.500269566423318"><ele>140.5</ele><time>2026-04-20T11:21:32.978Z</time></trkpt><trkpt lat="45.61035285653777" lon="10.500151483698973"><ele>141.0</ele><time>2026-04-20T11:21:33.978Z</time></trkpt><trkpt lat="45.61028497020719" lon="10.500016129077533"><ele>141.5</ele><time>2026-04-20T11:21:34.978Z</time></trkpt><trkpt lat="45.61023016004606" lon="10.499871500912095"><ele>142.0</ele><time>2026-04-20T11:21:35.978Z</time></trkpt><trkpt lat="45.61017096446371" lon="10.499721375354273"><ele>144.0</ele><time>2026-04-20T11:21:36.978Z</time></trkpt><trkpt lat="45.610113154503374" lon="10.49955298886842"><ele>146.0</ele><time>2026-04-20T11:21:37.978Z</time></trkpt><trkpt lat="45.610048477375656" lon="10.499365583537234"><ele>148.0</ele><time>2026-04-20T11:21:38.978Z</time></trkpt><trkpt lat="45.60999570563372" lon="10.499184585776309"><ele>150.0</ele><time>2026-04-20T11:21:39.978Z</time></trkpt><trkpt lat="45.60996303212949" lon="10.499036448215868"><ele>150.0</ele><time>2026-04-20T11:21:40.978Z</time></trkpt><trkpt lat="45.609918367833146" lon="10.498874158788295"><ele>150.0</ele><time>2026-04-20T11:21:41.978Z</time></trkpt><trkpt lat="45.609871813879536" lon="10.49871604005603"><ele>150.0</ele><time>2026-04-20T11:21:42.978Z</time></trkpt><trkpt lat="45.60981528115683" lon="10.498548329325464"><ele>150.0</ele><time>2026-04-20T11:21:43.978Z</time></trkpt><trkpt lat="45.60977375788016" lon="10.498361612233372"><ele>151.0</ele><time>2026-04-20T11:21:44.978Z</time></trkpt><trkpt lat="45.609740956432745" lon="10.498173120675625"><ele>152.0</ele><time>2026-04-20T11:21:45.978Z</time></trkpt><trkpt lat="45.60971864498703" lon="10.49797046387179"><ele>153.0</ele><time>2026-04-20T11:21:46.978Z</time></trkpt><trkpt lat="45.60970562140992" lon="10.49776943240968"><ele>154.0</ele><time>2026-04-20T11:21:47.978Z</time></trkpt><trkpt lat="45.609697416788094" lon="10.497596321671983"><ele>155.0</ele><time>2026-04-20T11:21:48.978Z</time></trkpt><trkpt lat="45.60970147218028" lon="10.49740257552935"><ele>156.0</ele><time>2026-04-20T11:21:49.978Z</time></trkpt><trkpt lat="45.6097107010195" lon="10.497195361185566"><ele>157.0</ele><time>2026-04-20T11:21:50.978Z</time></trkpt><trkpt lat="45.6097384032157" lon="10.497011326054686"><ele>158.0</ele><time>2026-04-20T11:21:51.978Z</time></trkpt><trkpt lat="45.60977688941254" lon="10.496827460839123"><ele>158.75</ele><time>2026-04-20T11:21:52.978Z</time></trkpt><trkpt lat="45.60981961728707" lon="10.496611834307153"><ele>159.5</ele><time>2026-04-20T11:21:53.978Z</time></trkpt><trkpt lat="45.6098575368222" lon="10.496407252965536"><ele>160.25</ele><time>2026-04-20T11:21:54.978Z</time></trkpt><trkpt lat="45.60989239407882" lon="10.496218248402181"><ele>161.0</ele><time>2026-04-20T11:21:55.978Z</time></trkpt><trkpt lat="45.609934717321984" lon="10.4960315703109"><ele>161.0</ele><time>2026-04-20T11:21:56.978Z</time></trkpt><trkpt lat="45.60997345642208" lon="10.49586358519281"><ele>161.0</ele><time>2026-04-20T11:21:57.978Z</time></trkpt><trkpt lat="45.610011762759186" lon="10.49569704800856"><ele>161.0</ele><time>2026-04-20T11:21:58.978Z</time></trkpt><trkpt lat="45.61004971581822" lon="10.495519687070786"><ele>161.0</ele><time>2026-04-20T11:21:59.978Z</time></trkpt><trkpt lat="45.61008774727652" lon="10.495333282092526"><ele>160.5</ele><time>2026-04-20T11:22:00.978Z</time></trkpt><trkpt lat="45.610122390326545" lon="10.495172136967017"><ele>160.0</ele><time>2026-04-20T11:22:01.978Z</time></trkpt><trkpt lat="45.610169450204964" lon="10.495014726704662"><ele>159.5</ele><time>2026-04-20T11:22:02.978Z</time></trkpt><trkpt lat="45.61022809863109" lon="10.49485366571105"><ele>159.0</ele><time>2026-04-20T11:22:03.978Z</time></trkpt><trkpt lat="45.610291771238785" lon="10.494679625887944"><ele>162.0</ele><time>2026-04-20T11:22:04.978Z</time></trkpt><trkpt lat="45.61036003316056" lon="10.494495805702476"><ele>165.0</ele><time>2026-04-20T11:22:05.978Z</time></trkpt><trkpt lat="45.610436315259705" lon="10.494340053025914"><ele>168.0</ele><time>2026-04-20T11:22:06.978Z</time></trkpt><trkpt lat="45.61051279419963" lon="10.494161063914953"><ele>171.0</ele><time>2026-04-20T11:22:07.978Z</time></trkpt><trkpt lat="45.610585271702874" lon="10.493979405792128"><ele>171.0</ele><time>2026-04-20T11:22:08.978Z</time></trkpt><trkpt lat="45.610655692360496" lon="10.493801598957086"><ele>171.0</ele><time>2026-04-20T11:22:09.979Z</time></trkpt><trkpt lat="45.61072238426055" lon="10.493646709960597"><ele>171.0</ele><time>2026-04-20T11:22:10.979Z</time></trkpt><trkpt lat="45.610791708029296" lon="10.493494758888698"><ele>171.0</ele><time>2026-04-20T11:22:11.979Z</time></trkpt><trkpt lat="45.61085321169339" lon="10.493330236859089"><ele>171.5</ele><time>2026-04-20T11:22:12.978Z</time></trkpt><trkpt lat="45.61091901091894" lon="10.493176862808253"><ele>172.0</ele><time>2026-04-20T11:22:13.978Z</time></trkpt><trkpt lat="45.61099162080204" lon="10.493012250359572"><ele>172.5</ele><time>2026-04-20T11:22:14.978Z</time></trkpt><trkpt lat="45.61106897787247" lon="10.492829008296505"><ele>173.0</ele><time>2026-04-20T11:22:15.979Z</time></trkpt><trkpt lat="45.611152097062885" lon="10.49265778835665"><ele>174.25</ele><time>2026-04-20T11:22:16.978Z</time></trkpt><trkpt lat="45.611215915942324" lon="10.492498245515549"><ele>175.5</ele><time>2026-04-20T11:22:17.978Z</time></trkpt><trkpt lat="45.611285643599466" lon="10.492331652012174"><ele>176.75</ele><time>2026-04-20T11:22:18.978Z</time></trkpt><trkpt lat="45.611362751132" lon="10.492164455938713"><ele>178.0</ele><time>2026-04-20T11:22:19.979Z</time></trkpt><trkpt lat="45.611431133099394" lon="10.49200398218063"><ele>178.0</ele><time>2026-04-20T11:22:20.979Z</time></trkpt><trkpt lat="45.61149413475963" lon="10.491849635897696"><ele>178.0</ele><time>2026-04-20T11:22:21.979Z</time></trkpt><trkpt lat="45.611562881134745" lon="10.491688848186739"><ele>178.0</ele><time>2026-04-20T11:22:22.979Z</time></trkpt><trkpt lat="45.6116309561495" lon="10.491516218390005"><ele>178.0</ele><time>2026-04-20T11:22:23.979Z</time></trkpt><trkpt lat="45.611698604197095" lon="10.491363354123411"><ele>178.0</ele><time>2026-04-20T11:22:24.979Z</time></trkpt><trkpt lat="45.61177067158072" lon="10.491215545352258"><ele>178.0</ele><time>2026-04-20T11:22:25.979Z</time></trkpt><trkpt lat="45.611839980723616" lon="10.491056185721341"><ele>178.0</ele><time>2026-04-20T11:22:26.979Z</time></trkpt><trkpt lat="45.611914771591" lon="10.490893466385142"><ele>178.0</ele><time>2026-04-20T11:22:27.979Z</time></trkpt><trkpt lat="45.61199035214485" lon="10.490715951083924"><ele>182.0</ele><time>2026-04-20T11:22:28.979Z</time></trkpt><trkpt lat="45.61206203578101" lon="10.490543319133456"><ele>186.0</ele><time>2026-04-20T11:22:29.979Z</time></trkpt><trkpt lat="45.61212440017214" lon="10.490390609234597"><ele>190.0</ele><time>2026-04-20T11:22:30.979Z</time></trkpt><trkpt lat="45.61219089383122" lon="10.490237390042415"><ele>194.0</ele><time>2026-04-20T11:22:31.979Z</time></trkpt><trkpt lat="45.61225120101412" lon="10.490074573968478"><ele>195.0</ele><time>2026-04-20T11:22:32.979Z</time></trkpt><trkpt lat="45.61230004270484" lon="10.489894719562317"><ele>196.0</ele><time>2026-04-20T11:22:33.979Z</time></trkpt><trkpt lat="45.612329132827945" lon="10.489718565918636"><ele>197.0</ele><time>2026-04-20T11:22:34.979Z</time></trkpt><trkpt lat="45.6123513440131" lon="10.48956833029372"><ele>198.0</ele><time>2026-04-20T11:22:35.979Z</time></trkpt><trkpt lat="45.61237412098993" lon="10.489414357331341"><ele>198.2</ele><time>2026-04-20T11:22:36.979Z</time></trkpt><trkpt lat="45.61238923686677" lon="10.48925386170988"><ele>198.4</ele><time>2026-04-20T11:22:37.979Z</time></trkpt><trkpt lat="45.61239047518608" lon="10.489088926077844"><ele>198.6</ele><time>2026-04-20T11:22:38.979Z</time></trkpt><trkpt lat="45.61238499276826" lon="10.48892390638345"><ele>198.79999999999998</ele><time>2026-04-20T11:22:39.979Z</time></trkpt><trkpt lat="45.61237218238592" lon="10.488778619837229"><ele>199.0</ele><time>2026-04-20T11:22:40.979Z</time></trkpt><trkpt lat="45.612359658914166" lon="10.488636709619009"><ele>199.5</ele><time>2026-04-20T11:22:41.979Z</time></trkpt><trkpt lat="45.61235942132102" lon="10.488492086959608"><ele>200.0</ele><time>2026-04-20T11:22:42.979Z</time></trkpt><trkpt lat="45.61236239352334" lon="10.48833119968378"><ele>200.5</ele><time>2026-04-20T11:22:43.979Z</time></trkpt><trkpt lat="45.61236140779774" lon="10.48816720813552"><ele>201.0</ele><time>2026-04-20T11:22:44.979Z</time></trkpt><trkpt lat="45.61235235170106" lon="10.48799357878751"><ele>201.20000000000002</ele><time>2026-04-20T11:22:45.979Z</time></trkpt><trkpt lat="45.612332355774825" lon="10.48781061326084"><ele>201.4</ele><time>2026-04-20T11:22:46.979Z</time></trkpt><trkpt lat="45.61231721960341" lon="10.487645187363572"><ele>201.6</ele><time>2026-04-20T11:22:47.979Z</time></trkpt><trkpt lat="45.61231101981354" lon="10.48750460023225"><ele>201.8</ele><time>2026-04-20T11:22:48.979Z</time></trkpt><trkpt lat="45.61230022754524" lon="10.4873769250173"><ele>202.0</ele><time>2026-04-20T11:22:49.979Z</time></trkpt><trkpt lat="45.612288754608876" lon="10.48722514957207"><ele>202.75</ele><time>2026-04-20T11:22:50.979Z</time></trkpt><trkpt lat="45.61228111943746" lon="10.487060315676608"><ele>203.5</ele><time>2026-04-20T11:22:51.979Z</time></trkpt><trkpt lat="45.61227249033481" lon="10.48688656345936"><ele>204.25</ele><time>2026-04-20T11:22:52.979Z</time></trkpt><trkpt lat="45.612258844557616" lon="10.486715847136136"><ele>205.0</ele><time>2026-04-20T11:22:53.979Z</time></trkpt><trkpt lat="45.61224591177117" lon="10.486554537203945"><ele>205.0</ele><time>2026-04-20T11:22:54.979Z</time></trkpt><trkpt lat="45.61223699420111" lon="10.486401257429364"><ele>205.0</ele><time>2026-04-20T11:22:55.979Z</time></trkpt><trkpt lat="45.61221614567144" lon="10.486228529206452"><ele>205.0</ele><time>2026-04-20T11:22:56.979Z</time></trkpt><trkpt lat="45.612192657159625" lon="10.486059256483205"><ele>205.0</ele><time>2026-04-20T11:22:57.979Z</time></trkpt><trkpt lat="45.612158297609966" lon="10.485872056662592"><ele>205.8</ele><time>2026-04-20T11:22:58.979Z</time></trkpt><trkpt lat="45.612124010715895" lon="10.48569680611642"><ele>206.6</ele><time>2026-04-20T11:22:59.979Z</time></trkpt><trkpt lat="45.61208585051933" lon="10.485555702567355"><ele>207.39999999999998</ele><time>2026-04-20T11:23:00.979Z</time></trkpt><trkpt lat="45.61204897947141" lon="10.485427927364633"><ele>208.2</ele><time>2026-04-20T11:23:01.979Z</time></trkpt><trkpt lat="45.61200016849152" lon="10.485290180944565"><ele>209.0</ele><time>2026-04-20T11:23:02.979Z</time></trkpt><trkpt lat="45.611943989542176" lon="10.4851437553019"><ele>209.39999999999998</ele><time>2026-04-20T11:23:03.979Z</time></trkpt><trkpt lat="45.61188198604915" lon="10.485000536361229"><ele>209.8</ele><time>2026-04-20T11:23:04.979Z</time></trkpt><trkpt lat="45.61182511005763" lon="10.484879261974072"><ele>210.2</ele><time>2026-04-20T11:23:05.979Z</time></trkpt><trkpt lat="45.61175916629535" lon="10.484757068253343"><ele>210.60000000000002</ele><time>2026-04-20T11:23:06.979Z</time></trkpt><trkpt lat="45.61168517696736" lon="10.484634721437136"><ele>211.0</ele><time>2026-04-20T11:23:07.979Z</time></trkpt><trkpt lat="45.61161014627425" lon="10.484506079062438"><ele>211.0</ele><time>2026-04-20T11:23:08.979Z</time></trkpt><trkpt lat="45.611535767877065" lon="10.484376553387897"><ele>211.0</ele><time>2026-04-20T11:23:09.979Z</time></trkpt><trkpt lat="45.611463312477234" lon="10.484252727322362"><ele>211.0</ele><time>2026-04-20T11:23:10.979Z</time></trkpt><trkpt lat="45.61139221620883" lon="10.484138191956857"><ele>211.0</ele><time>2026-04-20T11:23:11.979Z</time></trkpt><trkpt lat="45.61134653662133" lon="10.484006756617662"><ele>211.0</ele><time>2026-04-20T11:23:12.979Z</time></trkpt><trkpt lat="45.61130141440026" lon="10.483863139507802"><ele>213.75</ele><time>2026-04-20T11:23:13.979Z</time></trkpt><trkpt lat="45.61126006733954" lon="10.483715560997359"><ele>216.5</ele><time>2026-04-20T11:23:14.979Z</time></trkpt><trkpt lat="45.611224101822984" lon="10.48355293426049"><ele>219.25</ele><time>2026-04-20T11:23:15.979Z</time></trkpt><trkpt lat="45.611205401431604" lon="10.48338087009858"><ele>222.0</ele><time>2026-04-20T11:23:16.979Z</time></trkpt><trkpt lat="45.61119863680237" lon="10.483205345933687"><ele>222.0</ele><time>2026-04-20T11:23:17.979Z</time></trkpt><trkpt lat="45.61120585775726" lon="10.483027379124023"><ele>222.0</ele><time>2026-04-20T11:23:18.979Z</time></trkpt><trkpt lat="45.61122873273312" lon="10.482857010928353"><ele>222.0</ele><time>2026-04-20T11:23:19.979Z</time></trkpt><trkpt lat="45.6112550832959" lon="10.482716333615862"><ele>222.0</ele><time>2026-04-20T11:23:20.979Z</time></trkpt><trkpt lat="45.61128848270671" lon="10.482584030190806"><ele>222.0</ele><time>2026-04-20T11:23:21.979Z</time></trkpt><trkpt lat="45.611320661915805" lon="10.482438868058606"><ele>222.8</ele><time>2026-04-20T11:23:22.979Z</time></trkpt><trkpt lat="45.61135776585293" lon="10.48229732523687"><ele>223.6</ele><time>2026-04-20T11:23:23.979Z</time></trkpt><trkpt lat="45.611397796842084" lon="10.48216908438423"><ele>224.40000000000003</ele><time>2026-04-20T11:23:24.979Z</time></trkpt><trkpt lat="45.611436974159815" lon="10.48204803982387"><ele>225.20000000000002</ele><time>2026-04-20T11:23:25.979Z</time></trkpt><trkpt lat="45.61146750902221" lon="10.481934568707059"><ele>226.0</ele><time>2026-04-20T11:23:26.979Z</time></trkpt><trkpt lat="45.61149303090016" lon="10.481839417580838"><ele>225.99999999999997</ele><time>2026-04-20T11:23:27.979Z</time></trkpt><trkpt lat="45.61151926098887" lon="10.481754555112898"><ele>226.0</ele><time>2026-04-20T11:23:28.979Z</time></trkpt><trkpt lat="45.61156285685945" lon="10.481586959029423"><ele>226.0</ele><time>2026-04-20T11:23:30.979Z</time></trkpt><trkpt lat="45.61159106022748" lon="10.481503374667081"><ele>226.0</ele><time>2026-04-20T11:23:31.979Z</time></trkpt><trkpt lat="45.61160997725461" lon="10.481394631158247"><ele>225.99999999999997</ele><time>2026-04-20T11:23:33.979Z</time></trkpt><trkpt lat="45.6116271923784" lon="10.481290400571904"><ele>226.0</ele><time>2026-04-20T11:23:35.979Z</time></trkpt><trkpt lat="45.61167446937827" lon="10.48114342651079"><ele>225.49999999999997</ele><time>2026-04-20T11:23:37.979Z</time></trkpt><trkpt lat="45.61171487503955" lon="10.481055529500374"><ele>225.0</ele><time>2026-04-20T11:23:39.979Z</time></trkpt><trkpt lat="45.611764110898406" lon="10.480975962194796"><ele>224.5</ele><time>2026-04-20T11:23:42.979Z</time></trkpt><trkpt lat="45.61183429783578" lon="10.480892195796292"><ele>224.0</ele><time>2026-04-20T11:23:44.979Z</time></trkpt><trkpt lat="45.611900198829666" lon="10.480801953999807"><ele>223.49999999999997</ele><time>2026-04-20T11:23:46.979Z</time></trkpt><trkpt lat="45.61189981792376" lon="10.48068663304081"><ele>223.0</ele><time>2026-04-20T11:23:48.979Z</time></trkpt><trkpt lat="45.61181468607969" lon="10.480583496034281"><ele>223.0</ele><time>2026-04-20T11:23:50.979Z</time></trkpt><trkpt lat="45.61174254029976" lon="10.480537884008665"><ele>223.0</ele><time>2026-04-20T11:23:51.979Z</time></trkpt><trkpt lat="45.61166437991747" lon="10.480462569916936"><ele>223.0</ele><time>2026-04-20T11:23:52.979Z</time></trkpt><trkpt lat="45.6115936528259" lon="10.48038426539807"><ele>223.0</ele><time>2026-04-20T11:23:53.979Z</time></trkpt><trkpt lat="45.61151511775866" lon="10.480270729633341"><ele>223.0</ele><time>2026-04-20T11:23:54.979Z</time></trkpt><trkpt lat="45.61145153590355" lon="10.48016575984896"><ele>222.75</ele><time>2026-04-20T11:23:55.979Z</time></trkpt><trkpt lat="45.61137039228684" lon="10.480044429455141"><ele>222.5</ele><time>2026-04-20T11:23:56.979Z</time></trkpt><trkpt lat="45.61128009206826" lon="10.479909912691866"><ele>222.25</ele><time>2026-04-20T11:23:57.979Z</time></trkpt><trkpt lat="45.611210791693516" lon="10.479741003629233"><ele>222.0</ele><time>2026-04-20T11:23:58.979Z</time></trkpt><trkpt lat="45.61112231726059" lon="10.47959840845047"><ele>222.5</ele><time>2026-04-20T11:23:59.979Z</time></trkpt><trkpt lat="45.611041091112824" lon="10.479463740362805"><ele>223.0</ele><time>2026-04-20T11:24:00.979Z</time></trkpt><trkpt lat="45.61096250353695" lon="10.479343191298199"><ele>223.5</ele><time>2026-04-20T11:24:01.979Z</time></trkpt><trkpt lat="45.61088564034325" lon="10.479218083912654"><ele>224.0</ele><time>2026-04-20T11:24:02.979Z</time></trkpt><trkpt lat="45.61080233359823" lon="10.479084479894896"><ele>224.0</ele><time>2026-04-20T11:24:03.979Z</time></trkpt><trkpt lat="45.61072993465146" lon="10.47896624095394"><ele>224.0</ele><time>2026-04-20T11:24:04.979Z</time></trkpt><trkpt lat="45.610660049615724" lon="10.478842411837402"><ele>224.0</ele><time>2026-04-20T11:24:05.979Z</time></trkpt><trkpt lat="45.610577911932104" lon="10.478708991270766"><ele>224.0</ele><time>2026-04-20T11:24:06.979Z</time></trkpt><trkpt lat="45.61048801262675" lon="10.478566904175839"><ele>223.25</ele><time>2026-04-20T11:24:07.979Z</time></trkpt><trkpt lat="45.61039018336214" lon="10.478416491659619"><ele>222.5</ele><time>2026-04-20T11:24:08.979Z</time></trkpt><trkpt lat="45.610292241122096" lon="10.478266648584865"><ele>221.75</ele><time>2026-04-20T11:24:09.979Z</time></trkpt><trkpt lat="45.610187557999296" lon="10.4781310584156"><ele>221.0</ele><time>2026-04-20T11:24:10.979Z</time></trkpt><trkpt lat="45.61008023410692" lon="10.47801270474701"><ele>221.0</ele><time>2026-04-20T11:24:11.979Z</time></trkpt><trkpt lat="45.60996971604033" lon="10.477895953026001"><ele>221.0</ele><time>2026-04-20T11:24:12.979Z</time></trkpt><trkpt lat="45.60986579292673" lon="10.477796959371794"><ele>221.0</ele><time>2026-04-20T11:24:13.979Z</time></trkpt><trkpt lat="45.60976098426187" lon="10.477699029503293"><ele>221.0</ele><time>2026-04-20T11:24:14.979Z</time></trkpt><trkpt lat="45.609651057995784" lon="10.47759445770087"><ele>221.0</ele><time>2026-04-20T11:24:15.979Z</time></trkpt><trkpt lat="45.609534641182215" lon="10.477482047701745"><ele>221.0</ele><time>2026-04-20T11:24:16.979Z</time></trkpt><trkpt lat="45.60941460258776" lon="10.477362266325363"><ele>221.0</ele><time>2026-04-20T11:24:17.979Z</time></trkpt><trkpt lat="45.60929692991276" lon="10.477236230932174"><ele>221.0</ele><time>2026-04-20T11:24:18.979Z</time></trkpt><trkpt lat="45.60920449246246" lon="10.477118249034291"><ele>221.25</ele><time>2026-04-20T11:24:19.979Z</time></trkpt><trkpt lat="45.60911972436228" lon="10.476983124867482"><ele>221.5</ele><time>2026-04-20T11:24:20.979Z</time></trkpt><trkpt lat="45.60902927086009" lon="10.476834136415025"><ele>221.75</ele><time>2026-04-20T11:24:21.979Z</time></trkpt><trkpt lat="45.60893976162246" lon="10.47667745424255"><ele>222.0</ele><time>2026-04-20T11:24:22.979Z</time></trkpt><trkpt lat="45.60885126363128" lon="10.476527714119754"><ele>222.0</ele><time>2026-04-20T11:24:23.979Z</time></trkpt><trkpt lat="45.60876806906734" lon="10.476386797873637"><ele>222.0</ele><time>2026-04-20T11:24:24.979Z</time></trkpt><trkpt lat="45.60868539817485" lon="10.476242076036092"><ele>222.0</ele><time>2026-04-20T11:24:25.979Z</time></trkpt><trkpt lat="45.60861150037626" lon="10.476108707291367"><ele>222.0</ele><time>2026-04-20T11:24:26.979Z</time></trkpt><trkpt lat="45.608544911747785" lon="10.475987144227537"><ele>222.0</ele><time>2026-04-20T11:24:27.979Z</time></trkpt><trkpt lat="45.60847933332752" lon="10.475868887452442"><ele>222.0</ele><time>2026-04-20T11:24:28.978Z</time></trkpt><trkpt lat="45.60840444551524" lon="10.475726453932998"><ele>222.0</ele><time>2026-04-20T11:24:29.978Z</time></trkpt><trkpt lat="45.60833158519612" lon="10.475552343178503"><ele>222.0</ele><time>2026-04-20T11:24:30.978Z</time></trkpt><trkpt lat="45.60826880959224" lon="10.47537381526345"><ele>221.75</ele><time>2026-04-20T11:24:31.978Z</time></trkpt><trkpt lat="45.60822155219141" lon="10.475201709804233"><ele>221.5</ele><time>2026-04-20T11:24:32.978Z</time></trkpt><trkpt lat="45.608169571321866" lon="10.475012581420025"><ele>221.25</ele><time>2026-04-20T11:24:33.978Z</time></trkpt><trkpt lat="45.60812380678722" lon="10.474820655395424"><ele>221.0</ele><time>2026-04-20T11:24:34.978Z</time></trkpt><trkpt lat="45.60807667624126" lon="10.474614543997536"><ele>220.33333333333334</ele><time>2026-04-20T11:24:35.978Z</time></trkpt><trkpt lat="45.60802638109574" lon="10.474398965825769"><ele>219.66666666666669</ele><time>2026-04-20T11:24:36.978Z</time></trkpt><trkpt lat="45.60797423317262" lon="10.474186783918263"><ele>219.0</ele><time>2026-04-20T11:24:37.978Z</time></trkpt><trkpt lat="45.60791957699768" lon="10.473974155354995"><ele>218.0</ele><time>2026-04-20T11:24:38.978Z</time></trkpt><trkpt lat="45.60786485959648" lon="10.47376518852521"><ele>217.0</ele><time>2026-04-20T11:24:39.978Z</time></trkpt><trkpt lat="45.60781021653196" lon="10.47355747356262"><ele>216.0</ele><time>2026-04-20T11:24:40.978Z</time></trkpt><trkpt lat="45.60775317324854" lon="10.4733452680877"><ele>218.0</ele><time>2026-04-20T11:24:41.978Z</time></trkpt><trkpt lat="45.607707340731665" lon="10.473153030878914"><ele>220.0</ele><time>2026-04-20T11:24:42.978Z</time></trkpt><trkpt lat="45.607656957996326" lon="10.472949748253969"><ele>222.0</ele><time>2026-04-20T11:24:43.978Z</time></trkpt><trkpt lat="45.60760377277172" lon="10.47274585138618"><ele>224.0</ele><time>2026-04-20T11:24:44.978Z</time></trkpt><trkpt lat="45.607549484961694" lon="10.472543608973945"><ele>224.0</ele><time>2026-04-20T11:24:45.978Z</time></trkpt><trkpt lat="45.6074982543012" lon="10.472337908354875"><ele>224.0</ele><time>2026-04-20T11:24:46.978Z</time></trkpt><trkpt lat="45.60744379256582" lon="10.472122285421788"><ele>224.0</ele><time>2026-04-20T11:24:47.978Z</time></trkpt><trkpt lat="45.60738815561949" lon="10.471914029448746"><ele>223.0</ele><time>2026-04-20T11:24:48.978Z</time></trkpt><trkpt lat="45.60734889668449" lon="10.471712641088326"><ele>222.0</ele><time>2026-04-20T11:24:49.978Z</time></trkpt><trkpt lat="45.607276483154806" lon="10.471516965346106"><ele>221.0</ele><time>2026-04-20T11:24:50.978Z</time></trkpt><trkpt lat="45.607218517391026" lon="10.471309964036136"><ele>220.66666666666669</ele><time>2026-04-20T11:24:51.978Z</time></trkpt><trkpt lat="45.60716112727803" lon="10.471108280894105"><ele>220.33333333333331</ele><time>2026-04-20T11:24:52.978Z</time></trkpt><trkpt lat="45.60710177792162" lon="10.47090130835841"><ele>220.0</ele><time>2026-04-20T11:24:53.978Z</time></trkpt><trkpt lat="45.60704235977975" lon="10.470695529458155"><ele>221.0</ele><time>2026-04-20T11:24:54.978Z</time></trkpt><trkpt lat="45.60698376904104" lon="10.470499449906544"><ele>222.0</ele><time>2026-04-20T11:24:55.978Z</time></trkpt><trkpt lat="45.606928575649285" lon="10.470311673654505"><ele>223.0</ele><time>2026-04-20T11:24:56.978Z</time></trkpt><trkpt lat="45.60688698957778" lon="10.470172244292426"><ele>224.0</ele><time>2026-04-20T11:24:57.978Z</time></trkpt><trkpt lat="45.60684387184522" lon="10.470041130992122"><ele>224.00000000000003</ele><time>2026-04-20T11:24:58.978Z</time></trkpt><trkpt lat="45.606829853529725" lon="10.469897142842587"><ele>224.0</ele><time>2026-04-20T11:24:59.978Z</time></trkpt><trkpt lat="45.6067917348821" lon="10.46977804045344"><ele>224.0</ele><time>2026-04-20T11:25:00.978Z</time></trkpt><trkpt lat="45.6067570150115" lon="10.469671720845374"><ele>224.0</ele><time>2026-04-20T11:25:01.978Z</time></trkpt><trkpt lat="45.606722569984036" lon="10.469561050074201"><ele>224.00000000000003</ele><time>2026-04-20T11:25:02.978Z</time></trkpt><trkpt lat="45.60669242974681" lon="10.469464864876036"><ele>224.0</ele><time>2026-04-20T11:25:03.978Z</time></trkpt><trkpt lat="45.60665468275305" lon="10.46934074157795"><ele>223.39999999999998</ele><time>2026-04-20T11:25:05.978Z</time></trkpt><trkpt lat="45.60662281435284" lon="10.469237275876486"><ele>222.79999999999998</ele><time>2026-04-20T11:25:08.978Z</time></trkpt><trkpt lat="45.60658626358939" lon="10.469143277090852"><ele>222.20000000000002</ele><time>2026-04-20T11:25:21.978Z</time></trkpt><trkpt lat="45.60656138222434" lon="10.469029149964024"><ele>221.60000000000002</ele><time>2026-04-20T11:25:23.978Z</time></trkpt><trkpt lat="45.60652484454454" lon="10.468901010089201"><ele>221.0</ele><time>2026-04-20T11:25:25.978Z</time></trkpt><trkpt lat="45.60647968835763" lon="10.468744419666516"><ele>220.0</ele><time>2026-04-20T11:25:27.978Z</time></trkpt><trkpt lat="45.606427260911964" lon="10.468570580991575"><ele>219.00000000000003</ele><time>2026-04-20T11:25:29.978Z</time></trkpt><trkpt lat="45.606393971814306" lon="10.46845750388651"><ele>218.00000000000003</ele><time>2026-04-20T11:25:30.978Z</time></trkpt><trkpt lat="45.606357578448815" lon="10.468344902303349"><ele>217.0</ele><time>2026-04-20T11:25:31.978Z</time></trkpt><trkpt lat="45.60631399220319" lon="10.46820803198944"><ele>216.0</ele><time>2026-04-20T11:25:32.978Z</time></trkpt><trkpt lat="45.606266114646495" lon="10.468064202065115"><ele>215.75</ele><time>2026-04-20T11:25:33.978Z</time></trkpt><trkpt lat="45.60621334411984" lon="10.467904468384889"><ele>215.5</ele><time>2026-04-20T11:25:34.978Z</time></trkpt><trkpt lat="45.60616262593342" lon="10.46774245495652"><ele>215.25</ele><time>2026-04-20T11:25:35.978Z</time></trkpt><trkpt lat="45.606114421758235" lon="10.467591435578159"><ele>215.0</ele><time>2026-04-20T11:25:36.978Z</time></trkpt><trkpt lat="45.60609421966842" lon="10.467442149891271"><ele>216.0</ele><time>2026-04-20T11:25:37.978Z</time></trkpt><trkpt lat="45.606050712734074" lon="10.467302784327115"><ele>217.0</ele><time>2026-04-20T11:25:38.978Z</time></trkpt><trkpt lat="45.606002612442516" lon="10.467151324378673"><ele>218.0</ele><time>2026-04-20T11:25:39.978Z</time></trkpt><trkpt lat="45.60595169189955" lon="10.466990787245875"><ele>219.0</ele><time>2026-04-20T11:25:40.978Z</time></trkpt><trkpt lat="45.605898885857" lon="10.466822989398171"><ele>219.25</ele><time>2026-04-20T11:25:41.978Z</time></trkpt><trkpt lat="45.60585072697042" lon="10.466659762974933"><ele>219.5</ele><time>2026-04-20T11:25:42.978Z</time></trkpt><trkpt lat="45.60580185417595" lon="10.466492899698538"><ele>219.75</ele><time>2026-04-20T11:25:43.978Z</time></trkpt><trkpt lat="45.60574805372973" lon="10.466328219787316"><ele>220.0</ele><time>2026-04-20T11:25:44.978Z</time></trkpt><trkpt lat="45.60569241374759" lon="10.466142687884021"><ele>219.25</ele><time>2026-04-20T11:25:45.978Z</time></trkpt><trkpt lat="45.60563727254717" lon="10.465961102743869"><ele>218.5</ele><time>2026-04-20T11:25:46.978Z</time></trkpt><trkpt lat="45.60558797802985" lon="10.465800074414945"><ele>217.75</ele><time>2026-04-20T11:25:47.978Z</time></trkpt><trkpt lat="45.60554459221071" lon="10.465655134842576"><ele>217.0</ele><time>2026-04-20T11:25:48.978Z</time></trkpt><trkpt lat="45.605501852146254" lon="10.465530602808013"><ele>217.16666666666666</ele><time>2026-04-20T11:25:49.978Z</time></trkpt><trkpt lat="45.605463416001655" lon="10.465418733439659"><ele>217.33333333333331</ele><time>2026-04-20T11:25:50.978Z</time></trkpt><trkpt lat="45.605426973526875" lon="10.465330581392855"><ele>217.5</ele><time>2026-04-20T11:25:51.978Z</time></trkpt><trkpt lat="45.605394421442654" lon="10.465246382587912"><ele>217.66666666666669</ele><time>2026-04-20T11:25:52.978Z</time></trkpt><trkpt lat="45.60535871957736" lon="10.465161669345767"><ele>217.83333333333334</ele><time>2026-04-20T11:25:54.978Z</time></trkpt><trkpt lat="45.605310934997966" lon="10.465051382791277"><ele>218.0</ele><time>2026-04-20T11:25:59.978Z</time></trkpt><trkpt lat="45.60526060959539" lon="10.464921204662975"><ele>218.00000000000003</ele><time>2026-04-20T11:26:01.978Z</time></trkpt><trkpt lat="45.605240151787996" lon="10.464826671052663"><ele>218.0</ele><time>2026-04-20T11:26:02.978Z</time></trkpt><trkpt lat="45.60520480695341" lon="10.464746071151591"><ele>218.0</ele><time>2026-04-20T11:26:03.978Z</time></trkpt><trkpt lat="45.60516802546698" lon="10.464668867379762"><ele>218.0</ele><time>2026-04-20T11:26:04.978Z</time></trkpt><trkpt lat="45.60506259178068" lon="10.464697848211921"><ele>218.00000000000003</ele><time>2026-04-20T11:26:05.978Z</time></trkpt><trkpt lat="45.60497768878422" lon="10.464748292651839"><ele>218.0</ele><time>2026-04-20T11:26:06.978Z</time></trkpt><trkpt lat="45.60489148028693" lon="10.464840803432399"><ele>218.0</ele><time>2026-04-20T11:26:07.978Z</time></trkpt><trkpt lat="45.60479866324487" lon="10.464941898199156"><ele>218.0</ele><time>2026-04-20T11:26:08.978Z</time></trkpt><trkpt lat="45.60468857714105" lon="10.46503336127372"><ele>218.0</ele><time>2026-04-20T11:26:09.978Z</time></trkpt><trkpt lat="45.60456790864405" lon="10.465102010606538"><ele>218.0</ele><time>2026-04-20T11:26:10.978Z</time></trkpt><trkpt lat="45.60444485842567" lon="10.465160902312908"><ele>218.25</ele><time>2026-04-20T11:26:11.978Z</time></trkpt><trkpt lat="45.60431591929695" lon="10.465198173007833"><ele>218.5</ele><time>2026-04-20T11:26:12.978Z</time></trkpt><trkpt lat="45.604184854255486" lon="10.46520049886547"><ele>218.75</ele><time>2026-04-20T11:26:13.978Z</time></trkpt><trkpt lat="45.604056866313904" lon="10.46516489566449"><ele>219.0</ele><time>2026-04-20T11:26:14.978Z</time></trkpt><trkpt lat="45.603937662148226" lon="10.465093059839552"><ele>219.0</ele><time>2026-04-20T11:26:15.978Z</time></trkpt><trkpt lat="45.603826552968634" lon="10.465001226851639"><ele>219.0</ele><time>2026-04-20T11:26:16.978Z</time></trkpt><trkpt lat="45.60372180179839" lon="10.464905831302257"><ele>219.0</ele><time>2026-04-20T11:26:17.978Z</time></trkpt><trkpt lat="45.603620623103374" lon="10.46473974751257"><ele>219.0</ele><time>2026-04-20T11:26:18.978Z</time></trkpt><trkpt lat="45.603493001501114" lon="10.46457916201456"><ele>222.0</ele><time>2026-04-20T11:26:19.978Z</time></trkpt><trkpt lat="45.60334724933234" lon="10.464401531740966"><ele>225.0</ele><time>2026-04-20T11:26:20.978Z</time></trkpt><trkpt lat="45.60320520721601" lon="10.46422065858176"><ele>228.0</ele><time>2026-04-20T11:26:21.979Z</time></trkpt><trkpt lat="45.60306564165554" lon="10.46402888536629"><ele>228.0</ele><time>2026-04-20T11:26:22.978Z</time></trkpt><trkpt lat="45.60291876708479" lon="10.463813068801764"><ele>228.0</ele><time>2026-04-20T11:26:23.978Z</time></trkpt><trkpt lat="45.602773344787956" lon="10.4636134844383"><ele>228.0</ele><time>2026-04-20T11:26:24.978Z</time></trkpt><trkpt lat="45.60262430126101" lon="10.463411270876524"><ele>224.33333333333331</ele><time>2026-04-20T11:26:25.979Z</time></trkpt><trkpt lat="45.60246673798493" lon="10.463196461420045"><ele>220.66666666666666</ele><time>2026-04-20T11:26:26.979Z</time></trkpt><trkpt lat="45.602304002576545" lon="10.46297708555884"><ele>217.0</ele><time>2026-04-20T11:26:27.979Z</time></trkpt><trkpt lat="45.60213162192734" lon="10.462749748472667"><ele>228.0</ele><time>2026-04-20T11:26:28.979Z</time></trkpt><trkpt lat="45.60196536909975" lon="10.462521566352216"><ele>239.0</ele><time>2026-04-20T11:26:29.979Z</time></trkpt><trkpt lat="45.60180002664403" lon="10.462306629167719"><ele>228.5</ele><time>2026-04-20T11:26:30.979Z</time></trkpt><trkpt lat="45.60161378169239" lon="10.46210023342683"><ele>218.0</ele><time>2026-04-20T11:26:31.978Z</time></trkpt><trkpt lat="45.60141135763567" lon="10.461915559344796"><ele>218.0</ele><time>2026-04-20T11:26:32.978Z</time></trkpt><trkpt lat="45.60119467712008" lon="10.461712865472668"><ele>218.0</ele><time>2026-04-20T11:26:33.979Z</time></trkpt><trkpt lat="45.600981430219754" lon="10.461539404607246"><ele>218.0</ele><time>2026-04-20T11:26:34.979Z</time></trkpt><trkpt lat="45.600778726316534" lon="10.461383003927752"><ele>218.0</ele><time>2026-04-20T11:26:35.979Z</time></trkpt><trkpt lat="45.60058410034043" lon="10.461253729626524"><ele>218.0</ele><time>2026-04-20T11:26:36.979Z</time></trkpt><trkpt lat="45.60038322285179" lon="10.461137411189776"><ele>222.0</ele><time>2026-04-20T11:26:37.979Z</time></trkpt><trkpt lat="45.600184787825945" lon="10.461038220489499"><ele>226.0</ele><time>2026-04-20T11:26:38.979Z</time></trkpt><trkpt lat="45.599996159786095" lon="10.460941382548398"><ele>230.0</ele><time>2026-04-20T11:26:39.979Z</time></trkpt><trkpt lat="45.599810508199795" lon="10.460857835689666"><ele>230.0</ele><time>2026-04-20T11:26:40.979Z</time></trkpt><trkpt lat="45.59963938117285" lon="10.46079819886733"><ele>230.0</ele><time>2026-04-20T11:26:41.979Z</time></trkpt><trkpt lat="45.59947680502732" lon="10.460748254128909"><ele>230.0</ele><time>2026-04-20T11:26:42.979Z</time></trkpt><trkpt lat="45.5993193866584" lon="10.460707984900234"><ele>233.0</ele><time>2026-04-20T11:26:43.979Z</time></trkpt><trkpt lat="45.59913909342515" lon="10.460670911424838"><ele>236.0</ele><time>2026-04-20T11:26:44.979Z</time></trkpt><trkpt lat="45.59897048656141" lon="10.46064857841124"><ele>239.0</ele><time>2026-04-20T11:26:45.979Z</time></trkpt><trkpt lat="45.59881487458973" lon="10.460626475125453"><ele>239.33333333333334</ele><time>2026-04-20T11:26:46.979Z</time></trkpt><trkpt lat="45.59865256928963" lon="10.460601599654172"><ele>239.66666666666669</ele><time>2026-04-20T11:26:47.979Z</time></trkpt><trkpt lat="45.598497205160136" lon="10.460580259338476"><ele>240.0</ele><time>2026-04-20T11:26:48.979Z</time></trkpt><trkpt lat="45.59833952841869" lon="10.460558287943106"><ele>240.0</ele><time>2026-04-20T11:26:49.979Z</time></trkpt><trkpt lat="45.59818015313782" lon="10.460538050800766"><ele>240.0</ele><time>2026-04-20T11:26:50.978Z</time></trkpt><trkpt lat="45.59801731191702" lon="10.460484982824015"><ele>240.0</ele><time>2026-04-20T11:26:51.978Z</time></trkpt><trkpt lat="45.597840443338164" lon="10.46045935881313"><ele>236.66666666666669</ele><time>2026-04-20T11:26:52.978Z</time></trkpt><trkpt lat="45.59765416559578" lon="10.460433409080041"><ele>233.33333333333334</ele><time>2026-04-20T11:26:53.978Z</time></trkpt><trkpt lat="45.597477822104885" lon="10.46040884323925"><ele>230.0</ele><time>2026-04-20T11:26:54.978Z</time></trkpt><trkpt lat="45.59728322520151" lon="10.460381734561693"><ele>230.0</ele><time>2026-04-20T11:26:55.978Z</time></trkpt><trkpt lat="45.59708220195098" lon="10.460353730664796"><ele>230.0</ele><time>2026-04-20T11:26:56.978Z</time></trkpt><trkpt lat="45.5968944540766" lon="10.46032757610003"><ele>230.0</ele><time>2026-04-20T11:26:57.978Z</time></trkpt><trkpt lat="45.596738847276896" lon="10.460305899010352"><ele>231.0</ele><time>2026-04-20T11:26:58.978Z</time></trkpt><trkpt lat="45.59656373820023" lon="10.460279786463326"><ele>232.0</ele><time>2026-04-20T11:26:59.978Z</time></trkpt><trkpt lat="45.596411255771066" lon="10.460256877998516"><ele>233.0</ele><time>2026-04-20T11:27:00.977Z</time></trkpt><trkpt lat="45.596278689303595" lon="10.460236961601016"><ele>234.5</ele><time>2026-04-20T11:27:01.977Z</time></trkpt><trkpt lat="45.59612726453041" lon="10.460213551418294"><ele>236.0</ele><time>2026-04-20T11:27:02.977Z</time></trkpt><trkpt lat="45.59598092515218" lon="10.460190817648007"><ele>237.5</ele><time>2026-04-20T11:27:03.977Z</time></trkpt><trkpt lat="45.595835084889345" lon="10.460168161411406"><ele>239.0</ele><time>2026-04-20T11:27:04.977Z</time></trkpt><trkpt lat="45.59569818728783" lon="10.460146894423016"><ele>239.0</ele><time>2026-04-20T11:27:05.977Z</time></trkpt><trkpt lat="45.595552102076994" lon="10.46012434333755"><ele>239.0</ele><time>2026-04-20T11:27:06.977Z</time></trkpt><trkpt lat="45.59418940992406" lon="10.45987371781712"><ele>241.0</ele><time>2026-04-20T11:27:14.977Z</time></trkpt><trkpt lat="45.59403173037" lon="10.459846090960328"><ele>243.0</ele><time>2026-04-20T11:27:15.977Z</time></trkpt><trkpt lat="45.59382856476097" lon="10.459847951229477"><ele>245.0</ele><time>2026-04-20T11:27:16.977Z</time></trkpt><trkpt lat="45.59366774929169" lon="10.459858141155678"><ele>245.0</ele><time>2026-04-20T11:27:17.977Z</time></trkpt><trkpt lat="45.59351143446185" lon="10.459816804958628"><ele>245.0</ele><time>2026-04-20T11:27:18.977Z</time></trkpt><trkpt lat="45.59337397079326" lon="10.459766109465203"><ele>245.0</ele><time>2026-04-20T11:27:19.977Z</time></trkpt><trkpt lat="45.593437704906385" lon="10.459751048127433"><ele>245.0</ele><time>2026-04-20T11:27:20.977Z</time></trkpt><trkpt lat="45.59323283499864" lon="10.459675034087622"><ele>244.0</ele><time>2026-04-20T11:27:21.977Z</time></trkpt><trkpt lat="45.59307484341311" lon="10.459573439849034"><ele>243.0</ele><time>2026-04-20T11:27:22.977Z</time></trkpt><trkpt lat="45.59291530605302" lon="10.459469977567702"><ele>242.0</ele><time>2026-04-20T11:27:23.977Z</time></trkpt><trkpt lat="45.592753204927945" lon="10.459365409975991"><ele>242.0</ele><time>2026-04-20T11:27:24.977Z</time></trkpt><trkpt lat="45.59260094773667" lon="10.459247716110852"><ele>242.0</ele><time>2026-04-20T11:27:25.977Z</time></trkpt><trkpt lat="45.59241951685693" lon="10.459117807376167"><ele>242.0</ele><time>2026-04-20T11:27:26.977Z</time></trkpt><trkpt lat="45.59222600795258" lon="10.458973111203367"><ele>242.0</ele><time>2026-04-20T11:27:27.977Z</time></trkpt><trkpt lat="45.592029388681745" lon="10.458810279336427"><ele>242.0</ele><time>2026-04-20T11:27:28.977Z</time></trkpt><trkpt lat="45.5918171991202" lon="10.458651873560894"><ele>241.5</ele><time>2026-04-20T11:27:29.977Z</time></trkpt><trkpt lat="45.59160687337218" lon="10.458486391762811"><ele>241.0</ele><time>2026-04-20T11:27:30.977Z</time></trkpt><trkpt lat="45.59140673835027" lon="10.458345272338379"><ele>241.0</ele><time>2026-04-20T11:27:31.977Z</time></trkpt><trkpt lat="45.591210622951785" lon="10.458202965976945"><ele>241.0</ele><time>2026-04-20T11:27:32.977Z</time></trkpt><trkpt lat="45.591012560392315" lon="10.458060453423506"><ele>241.0</ele><time>2026-04-20T11:27:33.977Z</time></trkpt><trkpt lat="45.59082520249725" lon="10.457924444960492"><ele>242.0</ele><time>2026-04-20T11:27:34.977Z</time></trkpt><trkpt lat="45.59063921015427" lon="10.457803706755145"><ele>243.0</ele><time>2026-04-20T11:27:35.977Z</time></trkpt><trkpt lat="45.590469500646925" lon="10.45764548691757"><ele>244.0</ele><time>2026-04-20T11:27:36.977Z</time></trkpt><trkpt lat="45.59030472723591" lon="10.457513196670257"><ele>244.0</ele><time>2026-04-20T11:27:37.977Z</time></trkpt><trkpt lat="45.59013938622812" lon="10.457379521057232"><ele>244.0</ele><time>2026-04-20T11:27:38.977Z</time></trkpt><trkpt lat="45.58970381709022" lon="10.456882969273295"><ele>244.0</ele><time>2026-04-20T11:27:39.976Z</time></trkpt><trkpt lat="45.58958232509908" lon="10.456890018300008"><ele>244.0</ele><time>2026-04-20T11:27:40.976Z</time></trkpt><trkpt lat="45.589414991258835" lon="10.456833330185102"><ele>244.0</ele><time>2026-04-20T11:27:41.976Z</time></trkpt><trkpt lat="45.58927931890465" lon="10.456704505028831"><ele>245.66666666666666</ele><time>2026-04-20T11:27:42.976Z</time></trkpt><trkpt lat="45.589111156918015" lon="10.456570209575727"><ele>247.33333333333331</ele><time>2026-04-20T11:27:43.976Z</time></trkpt><trkpt lat="45.58894046438319" lon="10.456434914722932"><ele>249.0</ele><time>2026-04-20T11:27:44.976Z</time></trkpt><trkpt lat="45.58681808349098" lon="10.454786531265922"><ele>227.0</ele><time>2026-04-20T11:27:50.553Z</time></trkpt><trkpt lat="45.58610990476096" lon="10.454227310644434"><ele>239.0</ele><time>2026-04-20T11:27:51.553Z</time></trkpt><trkpt lat="45.5855851147202" lon="10.453369382920178"><ele>234.0</ele><time>2026-04-20T11:28:09.976Z</time></trkpt><trkpt lat="45.58532656601858" lon="10.453261994769381"><ele>229.0</ele><time>2026-04-20T11:28:10.976Z</time></trkpt><trkpt lat="45.58517485219021" lon="10.453137150189352"><ele>224.0</ele><time>2026-04-20T11:28:11.976Z</time></trkpt><trkpt lat="45.58494036551089" lon="10.45310346696855"><ele>224.0</ele><time>2026-04-20T11:28:12.976Z</time></trkpt><trkpt lat="45.58477544355171" lon="10.452930204857603"><ele>224.0</ele><time>2026-04-20T11:28:13.976Z</time></trkpt><trkpt lat="45.58461273367533" lon="10.452742119321641"><ele>224.0</ele><time>2026-04-20T11:28:14.976Z</time></trkpt><trkpt lat="45.58444819975186" lon="10.452542899697484"><ele>224.0</ele><time>2026-04-20T11:28:15.976Z</time></trkpt><trkpt lat="45.584285454417845" lon="10.452319589444174"><ele>224.0</ele><time>2026-04-20T11:28:16.976Z</time></trkpt><trkpt lat="45.584137908697535" lon="10.452100382250046"><ele>224.0</ele><time>2026-04-20T11:28:17.976Z</time></trkpt><trkpt lat="45.58396172381182" lon="10.451870095235078"><ele>222.5</ele><time>2026-04-20T11:28:18.976Z</time></trkpt><trkpt lat="45.58378240858703" lon="10.451626329305533"><ele>221.0</ele><time>2026-04-20T11:28:19.976Z</time></trkpt><trkpt lat="45.58360279842873" lon="10.451342659358323"><ele>218.0</ele><time>2026-04-20T11:28:20.976Z</time></trkpt><trkpt lat="45.58343609800036" lon="10.451080446821818"><ele>215.0</ele><time>2026-04-20T11:28:21.976Z</time></trkpt><trkpt lat="45.58327593672883" lon="10.450839130169236"><ele>215.0</ele><time>2026-04-20T11:28:22.976Z</time></trkpt><trkpt lat="45.58312651769431" lon="10.450612903564293"><ele>215.0</ele><time>2026-04-20T11:28:23.976Z</time></trkpt><trkpt lat="45.58297478709144" lon="10.45038490359432"><ele>215.0</ele><time>2026-04-20T11:28:24.976Z</time></trkpt><trkpt lat="45.58281253194346" lon="10.450158517549621"><ele>214.66666666666669</ele><time>2026-04-20T11:28:25.976Z</time></trkpt><trkpt lat="45.58265547800135" lon="10.449939609487833"><ele>214.33333333333331</ele><time>2026-04-20T11:28:26.976Z</time></trkpt><trkpt lat="45.58250382094349" lon="10.44975009443291"><ele>214.0</ele><time>2026-04-20T11:28:27.976Z</time></trkpt><trkpt lat="45.58233841810174" lon="10.449550058351196"><ele>214.0</ele><time>2026-04-20T11:28:28.977Z</time></trkpt><trkpt lat="45.582169794154524" lon="10.449366094327743"><ele>214.0</ele><time>2026-04-20T11:28:29.977Z</time></trkpt><trkpt lat="45.58199596231031" lon="10.449196926622523"><ele>214.0</ele><time>2026-04-20T11:28:30.977Z</time></trkpt><trkpt lat="45.5818053666749" lon="10.449033191781208"><ele>214.33333333333331</ele><time>2026-04-20T11:28:31.977Z</time></trkpt><trkpt lat="45.5816265238721" lon="10.44888356603509"><ele>214.66666666666669</ele><time>2026-04-20T11:28:32.977Z</time></trkpt><trkpt lat="45.58144477530042" lon="10.44873590332177"><ele>215.0</ele><time>2026-04-20T11:28:33.976Z</time></trkpt><trkpt lat="45.581253134992025" lon="10.448588871654625"><ele>214.0</ele><time>2026-04-20T11:28:34.976Z</time></trkpt><trkpt lat="45.581085931546426" lon="10.448438682494912"><ele>213.0</ele><time>2026-04-20T11:28:35.976Z</time></trkpt><trkpt lat="45.58091296120252" lon="10.448279887222567"><ele>212.0</ele><time>2026-04-20T11:28:36.977Z</time></trkpt><trkpt lat="45.58073462926365" lon="10.448123336013758"><ele>212.0</ele><time>2026-04-20T11:28:37.977Z</time></trkpt><trkpt lat="45.580566872165264" lon="10.447979425108189"><ele>212.0</ele><time>2026-04-20T11:28:38.977Z</time></trkpt><trkpt lat="45.580388481226876" lon="10.447838495531444"><ele>212.0</ele><time>2026-04-20T11:28:39.977Z</time></trkpt><trkpt lat="45.580213548779334" lon="10.447689974213901"><ele>210.0</ele><time>2026-04-20T11:28:40.976Z</time></trkpt><trkpt lat="45.58004584341149" lon="10.447547311442722"><ele>208.0</ele><time>2026-04-20T11:28:41.976Z</time></trkpt><trkpt lat="45.57986859095912" lon="10.447401381696803"><ele>206.0</ele><time>2026-04-20T11:28:42.976Z</time></trkpt><trkpt lat="45.57970178721777" lon="10.447268566136705"><ele>206.0</ele><time>2026-04-20T11:28:43.976Z</time></trkpt><trkpt lat="45.57952856973916" lon="10.447135493000248"><ele>206.0</ele><time>2026-04-20T11:28:44.976Z</time></trkpt><trkpt lat="45.5793641840434" lon="10.4469975317705"><ele>206.0</ele><time>2026-04-20T11:28:45.976Z</time></trkpt><trkpt lat="45.57921624924309" lon="10.446862616819702"><ele>205.66666666666669</ele><time>2026-04-20T11:28:46.976Z</time></trkpt><trkpt lat="45.57905687338607" lon="10.446735488866409"><ele>205.33333333333331</ele><time>2026-04-20T11:28:47.976Z</time></trkpt><trkpt lat="45.578895842949436" lon="10.446605005283697"><ele>205.0</ele><time>2026-04-20T11:28:48.976Z</time></trkpt><trkpt lat="45.57874769143548" lon="10.446483126005315"><ele>205.0</ele><time>2026-04-20T11:28:49.976Z</time></trkpt><trkpt lat="45.5785984273049" lon="10.446350802412283"><ele>205.0</ele><time>2026-04-20T11:28:50.976Z</time></trkpt><trkpt lat="45.57844325421188" lon="10.44621827240903"><ele>205.0</ele><time>2026-04-20T11:28:51.976Z</time></trkpt><trkpt lat="45.578285161865" lon="10.44608995663174"><ele>205.0</ele><time>2026-04-20T11:28:52.976Z</time></trkpt><trkpt lat="45.57812879543949" lon="10.445968354417902"><ele>205.0</ele><time>2026-04-20T11:28:53.976Z</time></trkpt><trkpt lat="45.57798614753045" lon="10.445857978489865"><ele>205.0</ele><time>2026-04-20T11:28:54.976Z</time></trkpt><trkpt lat="45.577844302886966" lon="10.445749320779163"><ele>204.33333333333331</ele><time>2026-04-20T11:28:55.976Z</time></trkpt><trkpt lat="45.57769518949778" lon="10.44563151665053"><ele>203.66666666666669</ele><time>2026-04-20T11:28:56.976Z</time></trkpt><trkpt lat="45.57754537943263" lon="10.44551316623137"><ele>203.0</ele><time>2026-04-20T11:28:57.976Z</time></trkpt><trkpt lat="45.5774063791481" lon="10.4453895067283"><ele>203.0</ele><time>2026-04-20T11:28:58.976Z</time></trkpt><trkpt lat="45.57726223846478" lon="10.445268898679426"><ele>203.0</ele><time>2026-04-20T11:28:59.976Z</time></trkpt><trkpt lat="45.57712377684458" lon="10.445151036615156"><ele>203.0</ele><time>2026-04-20T11:29:00.976Z</time></trkpt><trkpt lat="45.5769771326251" lon="10.445040909540454"><ele>203.0</ele><time>2026-04-20T11:29:01.976Z</time></trkpt><trkpt lat="45.5768413958365" lon="10.444910835317433"><ele>203.0</ele><time>2026-04-20T11:29:02.976Z</time></trkpt><trkpt lat="45.57668891599564" lon="10.444785210169073"><ele>203.0</ele><time>2026-04-20T11:29:03.976Z</time></trkpt><trkpt lat="45.5765317013514" lon="10.444665333198923"><ele>202.66666666666669</ele><time>2026-04-20T11:29:04.976Z</time></trkpt><trkpt lat="45.57636910133818" lon="10.444539253985173"><ele>202.33333333333331</ele><time>2026-04-20T11:29:05.976Z</time></trkpt><trkpt lat="45.57620307419273" lon="10.444403419708921"><ele>202.0</ele><time>2026-04-20T11:29:06.976Z</time></trkpt><trkpt lat="45.57605621361488" lon="10.444276325040585"><ele>202.0</ele><time>2026-04-20T11:29:07.976Z</time></trkpt><trkpt lat="45.575891764459605" lon="10.444152819067178"><ele>202.0</ele><time>2026-04-20T11:29:08.976Z</time></trkpt><trkpt lat="45.575736312585754" lon="10.444028817017758"><ele>202.0</ele><time>2026-04-20T11:29:09.976Z</time></trkpt><trkpt lat="45.575569566218384" lon="10.443902071503238"><ele>202.33333333333331</ele><time>2026-04-20T11:29:10.976Z</time></trkpt><trkpt lat="45.57539957908232" lon="10.443768727518126"><ele>202.66666666666669</ele><time>2026-04-20T11:29:11.976Z</time></trkpt><trkpt lat="45.57522827397749" lon="10.443625840711517"><ele>203.0</ele><time>2026-04-20T11:29:12.976Z</time></trkpt><trkpt lat="45.57506405104859" lon="10.44348543653891"><ele>201.66666666666669</ele><time>2026-04-20T11:29:13.976Z</time></trkpt><trkpt lat="45.57489282858085" lon="10.443346416115821"><ele>200.33333333333331</ele><time>2026-04-20T11:29:14.976Z</time></trkpt><trkpt lat="45.5747265983284" lon="10.443201371618276"><ele>199.0</ele><time>2026-04-20T11:29:15.976Z</time></trkpt><trkpt lat="45.57455166077633" lon="10.443066209444229"><ele>196.66666666666666</ele><time>2026-04-20T11:29:16.976Z</time></trkpt><trkpt lat="45.57438284967073" lon="10.44292635360108"><ele>194.33333333333331</ele><time>2026-04-20T11:29:17.976Z</time></trkpt><trkpt lat="45.57420782669912" lon="10.442802733114998"><ele>192.0</ele><time>2026-04-20T11:29:18.976Z</time></trkpt><trkpt lat="45.57403829289706" lon="10.442667322851378"><ele>192.0</ele><time>2026-04-20T11:29:19.976Z</time></trkpt><trkpt lat="45.5738639796588" lon="10.442528962864197"><ele>192.0</ele><time>2026-04-20T11:29:20.976Z</time></trkpt><trkpt lat="45.573696577319474" lon="10.442385698847595"><ele>192.0</ele><time>2026-04-20T11:29:21.976Z</time></trkpt><trkpt lat="45.57353098265281" lon="10.442256003440578"><ele>192.0</ele><time>2026-04-20T11:29:22.976Z</time></trkpt><trkpt lat="45.57335889220648" lon="10.442128688427584"><ele>192.0</ele><time>2026-04-20T11:29:23.976Z</time></trkpt><trkpt lat="45.57318442287544" lon="10.442015495643457"><ele>192.0</ele><time>2026-04-20T11:29:24.976Z</time></trkpt><trkpt lat="45.57300948353603" lon="10.441916685130751"><ele>192.0</ele><time>2026-04-20T11:29:25.976Z</time></trkpt><trkpt lat="45.57282448799008" lon="10.441830182181642"><ele>192.0</ele><time>2026-04-20T11:29:26.976Z</time></trkpt><trkpt lat="45.57263846506054" lon="10.44176113500525"><ele>192.0</ele><time>2026-04-20T11:29:27.976Z</time></trkpt><trkpt lat="45.57244096258202" lon="10.441694907186239"><ele>192.0</ele><time>2026-04-20T11:29:28.976Z</time></trkpt><trkpt lat="45.57223475708218" lon="10.44163914027689"><ele>192.0</ele><time>2026-04-20T11:29:29.976Z</time></trkpt><trkpt lat="45.57203231248033" lon="10.441601534778432"><ele>192.0</ele><time>2026-04-20T11:29:30.976Z</time></trkpt><trkpt lat="45.571838360884165" lon="10.441570153611275"><ele>192.66666666666669</ele><time>2026-04-20T11:29:31.976Z</time></trkpt><trkpt lat="45.571646734264476" lon="10.441547567006104"><ele>193.33333333333334</ele><time>2026-04-20T11:29:32.976Z</time></trkpt><trkpt lat="45.57145696217979" lon="10.44154479078455"><ele>194.0</ele><time>2026-04-20T11:29:33.976Z</time></trkpt><trkpt lat="45.57125397651199" lon="10.441553574556023"><ele>194.33333333333334</ele><time>2026-04-20T11:29:34.976Z</time></trkpt><trkpt lat="45.571061923641125" lon="10.441577759329675"><ele>194.66666666666669</ele><time>2026-04-20T11:29:35.976Z</time></trkpt><trkpt lat="45.570887323669325" lon="10.44160901285784"><ele>195.0</ele><time>2026-04-20T11:29:36.976Z</time></trkpt><trkpt lat="45.57069956429236" lon="10.441653032383526"><ele>195.0</ele><time>2026-04-20T11:29:37.976Z</time></trkpt><trkpt lat="45.57051265837315" lon="10.441710850442634"><ele>195.0</ele><time>2026-04-20T11:29:38.976Z</time></trkpt><trkpt lat="45.57033082080843" lon="10.441771354889669"><ele>195.0</ele><time>2026-04-20T11:29:39.976Z</time></trkpt><trkpt lat="45.57014796360742" lon="10.441831547589096"><ele>194.66666666666669</ele><time>2026-04-20T11:29:40.976Z</time></trkpt><trkpt lat="45.56996574203871" lon="10.441884261447752"><ele>194.33333333333334</ele><time>2026-04-20T11:29:41.976Z</time></trkpt><trkpt lat="45.56979735297789" lon="10.441935182818932"><ele>194.0</ele><time>2026-04-20T11:29:42.976Z</time></trkpt><trkpt lat="45.56962352120306" lon="10.441981586811355"><ele>194.0</ele><time>2026-04-20T11:29:43.976Z</time></trkpt><trkpt lat="45.56945642263718" lon="10.442022491922623"><ele>194.0</ele><time>2026-04-20T11:29:44.976Z</time></trkpt><trkpt lat="45.56927682821835" lon="10.442059815588522"><ele>194.0</ele><time>2026-04-20T11:29:45.976Z</time></trkpt><trkpt lat="45.5691029670586" lon="10.442085556748724"><ele>194.0</ele><time>2026-04-20T11:29:46.976Z</time></trkpt><trkpt lat="45.56893083187266" lon="10.44211034926089"><ele>194.0</ele><time>2026-04-20T11:29:47.976Z</time></trkpt><trkpt lat="45.56874555309051" lon="10.442140681670159"><ele>194.0</ele><time>2026-04-20T11:29:48.976Z</time></trkpt><trkpt lat="45.56857552470677" lon="10.442154245302522"><ele>193.0</ele><time>2026-04-20T11:29:49.976Z</time></trkpt><trkpt lat="45.56838946589561" lon="10.442166732907083"><ele>192.0</ele><time>2026-04-20T11:29:50.976Z</time></trkpt><trkpt lat="45.56819567347606" lon="10.442168825373571"><ele>191.0</ele><time>2026-04-20T11:29:51.976Z</time></trkpt><trkpt lat="45.568003799588595" lon="10.442169035666147"><ele>191.0</ele><time>2026-04-20T11:29:52.976Z</time></trkpt><trkpt lat="45.567805417726966" lon="10.442161841261894"><ele>191.0</ele><time>2026-04-20T11:29:53.976Z</time></trkpt><trkpt lat="45.567615125033704" lon="10.442145629970046"><ele>191.0</ele><time>2026-04-20T11:29:54.976Z</time></trkpt><trkpt lat="45.56742674564737" lon="10.442126610815963"><ele>191.0</ele><time>2026-04-20T11:29:55.976Z</time></trkpt><trkpt lat="45.567237685176515" lon="10.442111392213254"><ele>191.0</ele><time>2026-04-20T11:29:56.976Z</time></trkpt><trkpt lat="45.567046246848506" lon="10.442095671410033"><ele>191.0</ele><time>2026-04-20T11:29:57.976Z</time></trkpt><trkpt lat="45.56685214396259" lon="10.442074901149683"><ele>191.33333333333331</ele><time>2026-04-20T11:29:58.976Z</time></trkpt><trkpt lat="45.56665233533913" lon="10.442053810280576"><ele>191.66666666666666</ele><time>2026-04-20T11:29:59.976Z</time></trkpt><trkpt lat="45.56645365118959" lon="10.44204051384087"><ele>192.0</ele><time>2026-04-20T11:30:00.976Z</time></trkpt><trkpt lat="45.56625837218541" lon="10.44202599591205"><ele>192.0</ele><time>2026-04-20T11:30:01.976Z</time></trkpt><trkpt lat="45.56607040893952" lon="10.442007402451235"><ele>192.0</ele><time>2026-04-20T11:30:02.976Z</time></trkpt><trkpt lat="45.56587350153867" lon="10.441995772107514"><ele>192.0</ele><time>2026-04-20T11:30:03.976Z</time></trkpt><trkpt lat="45.56567955531289" lon="10.441976539081221"><ele>192.0</ele><time>2026-04-20T11:30:04.976Z</time></trkpt><trkpt lat="45.56547812923017" lon="10.44194939710633"><ele>192.0</ele><time>2026-04-20T11:30:05.976Z</time></trkpt><trkpt lat="45.56528042123704" lon="10.441908020140128"><ele>192.0</ele><time>2026-04-20T11:30:06.976Z</time></trkpt><trkpt lat="45.56508548218832" lon="10.4418524973001"><ele>191.66666666666666</ele><time>2026-04-20T11:30:07.976Z</time></trkpt><trkpt lat="45.56489858475942" lon="10.441781669314754"><ele>191.33333333333331</ele><time>2026-04-20T11:30:08.976Z</time></trkpt><trkpt lat="45.56470609939259" lon="10.441704295792384"><ele>191.0</ele><time>2026-04-20T11:30:09.976Z</time></trkpt><trkpt lat="45.56451632511695" lon="10.44161794470575"><ele>191.0</ele><time>2026-04-20T11:30:10.976Z</time></trkpt><trkpt lat="45.564330929836345" lon="10.441522231410937"><ele>191.0</ele><time>2026-04-20T11:30:11.976Z</time></trkpt><trkpt lat="45.564155120494455" lon="10.441410418092403"><ele>191.0</ele><time>2026-04-20T11:30:12.976Z</time></trkpt><trkpt lat="45.563977942031514" lon="10.441289032640565"><ele>190.66666666666666</ele><time>2026-04-20T11:30:13.976Z</time></trkpt><trkpt lat="45.563806452805586" lon="10.441150316033747"><ele>190.33333333333334</ele><time>2026-04-20T11:30:14.976Z</time></trkpt><trkpt lat="45.56363462759067" lon="10.441019671116306"><ele>190.0</ele><time>2026-04-20T11:30:15.976Z</time></trkpt><trkpt lat="45.56348477995984" lon="10.440871752888832"><ele>190.0</ele><time>2026-04-20T11:30:16.976Z</time></trkpt><trkpt lat="45.56333180036722" lon="10.440729525036618"><ele>190.0</ele><time>2026-04-20T11:30:17.976Z</time></trkpt><trkpt lat="45.56319110433939" lon="10.440554716362003"><ele>190.0</ele><time>2026-04-20T11:30:18.976Z</time></trkpt><trkpt lat="45.563046644924164" lon="10.440402555445475"><ele>190.0</ele><time>2026-04-20T11:30:19.976Z</time></trkpt><trkpt lat="45.562886392930295" lon="10.440253700023192"><ele>190.0</ele><time>2026-04-20T11:30:20.976Z</time></trkpt><trkpt lat="45.56273800176348" lon="10.440095595052215"><ele>190.0</ele><time>2026-04-20T11:30:21.976Z</time></trkpt><trkpt lat="45.56258518776355" lon="10.439936552959749"><ele>190.0</ele><time>2026-04-20T11:30:22.976Z</time></trkpt><trkpt lat="45.562433356208395" lon="10.439767218887132"><ele>190.0</ele><time>2026-04-20T11:30:23.976Z</time></trkpt><trkpt lat="45.56227178579258" lon="10.439595970844945"><ele>190.0</ele><time>2026-04-20T11:30:24.976Z</time></trkpt><trkpt lat="45.56211781843771" lon="10.439423317968648"><ele>190.33333333333334</ele><time>2026-04-20T11:30:25.976Z</time></trkpt><trkpt lat="45.56197244337108" lon="10.439259638405533"><ele>190.66666666666666</ele><time>2026-04-20T11:30:26.976Z</time></trkpt><trkpt lat="45.56181561827208" lon="10.439102933673759"><ele>191.0</ele><time>2026-04-20T11:30:27.976Z</time></trkpt><trkpt lat="45.5616598797583" lon="10.438940712575048"><ele>191.0</ele><time>2026-04-20T11:30:28.976Z</time></trkpt><trkpt lat="45.561499733547066" lon="10.438769330482847"><ele>191.0</ele><time>2026-04-20T11:30:29.976Z</time></trkpt><trkpt lat="45.56133186979487" lon="10.438596054431908"><ele>191.0</ele><time>2026-04-20T11:30:30.976Z</time></trkpt><trkpt lat="45.561170523925185" lon="10.438424178541236"><ele>191.0</ele><time>2026-04-20T11:30:31.976Z</time></trkpt><trkpt lat="45.56101566273799" lon="10.438263695447812"><ele>191.0</ele><time>2026-04-20T11:30:32.976Z</time></trkpt><trkpt lat="45.560853313879484" lon="10.438098469301156"><ele>191.0</ele><time>2026-04-20T11:30:33.977Z</time></trkpt><trkpt lat="45.56068890609978" lon="10.437929994383719"><ele>190.66666666666666</ele><time>2026-04-20T11:30:34.976Z</time></trkpt><trkpt lat="45.560522996997996" lon="10.437768553313152"><ele>190.33333333333334</ele><time>2026-04-20T11:30:35.976Z</time></trkpt><trkpt lat="45.56036076802011" lon="10.437608955339993"><ele>190.0</ele><time>2026-04-20T11:30:36.976Z</time></trkpt><trkpt lat="45.560203409913306" lon="10.437446537288166"><ele>190.0</ele><time>2026-04-20T11:30:37.976Z</time></trkpt><trkpt lat="45.56003502932766" lon="10.437290275996077"><ele>190.0</ele><time>2026-04-20T11:30:38.976Z</time></trkpt><trkpt lat="45.559864747327616" lon="10.437130625153367"><ele>190.0</ele><time>2026-04-20T11:30:39.977Z</time></trkpt><trkpt lat="45.55969187365034" lon="10.436978235956309"><ele>190.0</ele><time>2026-04-20T11:30:40.977Z</time></trkpt><trkpt lat="45.55951883055799" lon="10.436829526690817"><ele>190.0</ele><time>2026-04-20T11:30:41.977Z</time></trkpt><trkpt lat="45.55934065805669" lon="10.436681527229155"><ele>190.0</ele><time>2026-04-20T11:30:42.976Z</time></trkpt><trkpt lat="45.55916067951539" lon="10.4365368862483"><ele>190.0</ele><time>2026-04-20T11:30:43.976Z</time></trkpt><trkpt lat="45.55897366913343" lon="10.436394759006383"><ele>190.0</ele><time>2026-04-20T11:30:44.976Z</time></trkpt><trkpt lat="45.55879189281653" lon="10.436254801765145"><ele>190.0</ele><time>2026-04-20T11:30:45.976Z</time></trkpt><trkpt lat="45.55863392303184" lon="10.43612713105618"><ele>190.0</ele><time>2026-04-20T11:30:46.975Z</time></trkpt><trkpt lat="45.55846292459951" lon="10.435999286497289"><ele>190.0</ele><time>2026-04-20T11:30:47.975Z</time></trkpt><trkpt lat="45.558284376758145" lon="10.435874237036561"><ele>190.0</ele><time>2026-04-20T11:30:48.975Z</time></trkpt><trkpt lat="45.55809055046915" lon="10.435759172446797"><ele>190.0</ele><time>2026-04-20T11:30:49.975Z</time></trkpt><trkpt lat="45.55790153213051" lon="10.435628127189121"><ele>190.0</ele><time>2026-04-20T11:30:50.975Z</time></trkpt><trkpt lat="45.557710490169555" lon="10.435510138484956"><ele>190.0</ele><time>2026-04-20T11:30:51.975Z</time></trkpt><trkpt lat="45.55754206718777" lon="10.435388882914658"><ele>190.0</ele><time>2026-04-20T11:30:52.975Z</time></trkpt><trkpt lat="45.557359800391886" lon="10.435278083299973"><ele>190.0</ele><time>2026-04-20T11:30:53.975Z</time></trkpt><trkpt lat="45.55717267199862" lon="10.435165983484783"><ele>190.0</ele><time>2026-04-20T11:30:54.975Z</time></trkpt><trkpt lat="45.55698263241226" lon="10.435043358030702"><ele>189.33333333333334</ele><time>2026-04-20T11:30:55.975Z</time></trkpt><trkpt lat="45.55679789608166" lon="10.434913041718348"><ele>188.66666666666666</ele><time>2026-04-20T11:30:56.975Z</time></trkpt><trkpt lat="45.55661008456064" lon="10.434805154154468"><ele>188.0</ele><time>2026-04-20T11:30:57.975Z</time></trkpt><trkpt lat="45.55642816394117" lon="10.43468177921809"><ele>188.66666666666666</ele><time>2026-04-20T11:30:58.975Z</time></trkpt><trkpt lat="45.55625156267441" lon="10.43456076919251"><ele>189.33333333333334</ele><time>2026-04-20T11:30:59.975Z</time></trkpt><trkpt lat="45.556069646601145" lon="10.43444375872469"><ele>190.0</ele><time>2026-04-20T11:31:00.975Z</time></trkpt><trkpt lat="45.5558945373507" lon="10.43433027699685"><ele>189.33333333333334</ele><time>2026-04-20T11:31:01.975Z</time></trkpt><trkpt lat="45.5557217990617" lon="10.434210888021145"><ele>188.66666666666666</ele><time>2026-04-20T11:31:02.975Z</time></trkpt><trkpt lat="45.55553102200592" lon="10.434091957623654"><ele>188.0</ele><time>2026-04-20T11:31:03.975Z</time></trkpt><trkpt lat="45.5553368233418" lon="10.433980363903848"><ele>188.0</ele><time>2026-04-20T11:31:04.975Z</time></trkpt><trkpt lat="45.55514933130406" lon="10.433861990785248"><ele>188.0</ele><time>2026-04-20T11:31:05.975Z</time></trkpt><trkpt lat="45.55497609842755" lon="10.433740571579674"><ele>188.0</ele><time>2026-04-20T11:31:06.975Z</time></trkpt><trkpt lat="45.55479242968373" lon="10.433625180907779"><ele>188.0</ele><time>2026-04-20T11:31:07.975Z</time></trkpt><trkpt lat="45.554601378259854" lon="10.433518860842062"><ele>188.0</ele><time>2026-04-20T11:31:08.975Z</time></trkpt><trkpt lat="45.55441331601446" lon="10.433397620740143"><ele>188.0</ele><time>2026-04-20T11:31:09.975Z</time></trkpt><trkpt lat="45.554215745656585" lon="10.43328276982563"><ele>188.33333333333331</ele><time>2026-04-20T11:31:10.975Z</time></trkpt><trkpt lat="45.554039585727146" lon="10.433168095638317"><ele>188.66666666666666</ele><time>2026-04-20T11:31:11.975Z</time></trkpt><trkpt lat="45.5538666917092" lon="10.43305506579918"><ele>189.0</ele><time>2026-04-20T11:31:12.975Z</time></trkpt><trkpt lat="45.55367270060982" lon="10.432973812142478"><ele>189.33333333333334</ele><time>2026-04-20T11:31:13.975Z</time></trkpt><trkpt lat="45.55348251096925" lon="10.4328818649157"><ele>189.66666666666669</ele><time>2026-04-20T11:31:14.975Z</time></trkpt><trkpt lat="45.5532859943137" lon="10.4327972667626"><ele>190.0</ele><time>2026-04-20T11:31:15.975Z</time></trkpt><trkpt lat="45.553085255831384" lon="10.43273543589921"><ele>190.0</ele><time>2026-04-20T11:31:16.975Z</time></trkpt><trkpt lat="45.552906552203716" lon="10.43264530441075"><ele>190.0</ele><time>2026-04-20T11:31:17.975Z</time></trkpt><trkpt lat="45.552724369176616" lon="10.43256665187644"><ele>190.0</ele><time>2026-04-20T11:31:18.975Z</time></trkpt><trkpt lat="45.55253817234229" lon="10.432479522945355"><ele>190.0</ele><time>2026-04-20T11:31:19.975Z</time></trkpt><trkpt lat="45.552342257508506" lon="10.432396987179185"><ele>190.0</ele><time>2026-04-20T11:31:20.975Z</time></trkpt><trkpt lat="45.55215996005838" lon="10.432295519459014"><ele>190.0</ele><time>2026-04-20T11:31:21.975Z</time></trkpt><trkpt lat="45.55198045528657" lon="10.432190276469036"><ele>191.0</ele><time>2026-04-20T11:31:22.975Z</time></trkpt><trkpt lat="45.55179869805503" lon="10.43208984015073"><ele>192.0</ele><time>2026-04-20T11:31:23.975Z</time></trkpt><trkpt lat="45.55162182074958" lon="10.431987911885413"><ele>193.0</ele><time>2026-04-20T11:31:24.975Z</time></trkpt><trkpt lat="45.55143920610543" lon="10.43188965671998"><ele>193.0</ele><time>2026-04-20T11:31:25.975Z</time></trkpt><trkpt lat="45.55125288011958" lon="10.431770116248183"><ele>193.0</ele><time>2026-04-20T11:31:26.975Z</time></trkpt><trkpt lat="45.55105578730406" lon="10.431653127221498"><ele>193.0</ele><time>2026-04-20T11:31:27.975Z</time></trkpt><trkpt lat="45.550868178059204" lon="10.431537624767"><ele>192.66666666666666</ele><time>2026-04-20T11:31:28.975Z</time></trkpt><trkpt lat="45.55069728016688" lon="10.431384427568007"><ele>192.33333333333331</ele><time>2026-04-20T11:31:29.975Z</time></trkpt><trkpt lat="45.55053014059151" lon="10.431252528956605"><ele>192.0</ele><time>2026-04-20T11:31:30.975Z</time></trkpt><trkpt lat="45.550355941163474" lon="10.43111920617194"><ele>191.0</ele><time>2026-04-20T11:31:31.975Z</time></trkpt><trkpt lat="45.5501567300167" lon="10.431002668131578"><ele>190.0</ele><time>2026-04-20T11:31:32.975Z</time></trkpt><trkpt lat="45.54999088416303" lon="10.43086031588383"><ele>189.0</ele><time>2026-04-20T11:31:33.975Z</time></trkpt><trkpt lat="45.54983972694117" lon="10.430723673889393"><ele>189.0</ele><time>2026-04-20T11:31:34.975Z</time></trkpt><trkpt lat="45.54967272247033" lon="10.43059782246845"><ele>189.0</ele><time>2026-04-20T11:31:35.975Z</time></trkpt><trkpt lat="45.549496319686526" lon="10.43048115126359"><ele>189.0</ele><time>2026-04-20T11:31:36.975Z</time></trkpt><trkpt lat="45.54930946791249" lon="10.430361182995208"><ele>188.66666666666666</ele><time>2026-04-20T11:31:37.975Z</time></trkpt><trkpt lat="45.54912698482695" lon="10.430236172756173"><ele>188.33333333333331</ele><time>2026-04-20T11:31:38.975Z</time></trkpt><trkpt lat="45.54893805894395" lon="10.430111402706602"><ele>188.0</ele><time>2026-04-20T11:31:39.975Z</time></trkpt><trkpt lat="45.54875012081159" lon="10.42997552676834"><ele>188.0</ele><time>2026-04-20T11:31:40.975Z</time></trkpt><trkpt lat="45.548569262383616" lon="10.429848401298637"><ele>188.0</ele><time>2026-04-20T11:31:41.975Z</time></trkpt><trkpt lat="45.5483977969022" lon="10.429712931095619"><ele>188.0</ele><time>2026-04-20T11:31:42.975Z</time></trkpt><trkpt lat="45.548221956519185" lon="10.429579061539632"><ele>188.0</ele><time>2026-04-20T11:31:43.975Z</time></trkpt><trkpt lat="45.548045994114815" lon="10.429436486255966"><ele>188.0</ele><time>2026-04-20T11:31:44.975Z</time></trkpt><trkpt lat="45.54786748913885" lon="10.429302764037603"><ele>188.0</ele><time>2026-04-20T11:31:45.975Z</time></trkpt><trkpt lat="45.547696204943385" lon="10.429161635985498"><ele>188.0</ele><time>2026-04-20T11:31:46.975Z</time></trkpt><trkpt lat="45.547536484974195" lon="10.429041249282397"><ele>188.0</ele><time>2026-04-20T11:31:47.975Z</time></trkpt><trkpt lat="45.54737207523273" lon="10.42891642954962"><ele>188.0</ele><time>2026-04-20T11:31:48.975Z</time></trkpt><trkpt lat="45.54720204265899" lon="10.42877436392513"><ele>188.33333333333331</ele><time>2026-04-20T11:31:49.975Z</time></trkpt><trkpt lat="45.54703372176501" lon="10.42862239372938"><ele>188.66666666666666</ele><time>2026-04-20T11:31:50.975Z</time></trkpt><trkpt lat="45.54686588045429" lon="10.428462807551076"><ele>189.0</ele><time>2026-04-20T11:31:51.975Z</time></trkpt><trkpt lat="45.5466988702398" lon="10.428299462484057"><ele>189.0</ele><time>2026-04-20T11:31:52.975Z</time></trkpt><trkpt lat="45.54653775761883" lon="10.428142279092134"><ele>189.0</ele><time>2026-04-20T11:31:53.975Z</time></trkpt><trkpt lat="45.546331889403284" lon="10.428218564435822"><ele>189.0</ele><time>2026-04-20T11:31:54.975Z</time></trkpt><trkpt lat="45.54465193567279" lon="10.426035089171382"><ele>187.5</ele><time>2026-04-20T11:32:07.975Z</time></trkpt><trkpt lat="45.54426242245527" lon="10.425715599679258"><ele>186.0</ele><time>2026-04-20T11:32:08.975Z</time></trkpt><trkpt lat="45.54415222801651" lon="10.425659154152587"><ele>185.66666666666666</ele><time>2026-04-20T11:32:09.975Z</time></trkpt><trkpt lat="45.544011519648684" lon="10.425458267308528"><ele>185.33333333333331</ele><time>2026-04-20T11:32:10.975Z</time></trkpt><trkpt lat="45.54388374055119" lon="10.425298257772756"><ele>185.0</ele><time>2026-04-20T11:32:11.975Z</time></trkpt><trkpt lat="45.54370920497531" lon="10.4251093136015"><ele>184.66666666666666</ele><time>2026-04-20T11:32:12.975Z</time></trkpt><trkpt lat="45.54355646352222" lon="10.424903986417359"><ele>184.33333333333334</ele><time>2026-04-20T11:32:13.975Z</time></trkpt><trkpt lat="45.54339249406355" lon="10.424690487987647"><ele>184.0</ele><time>2026-04-20T11:32:14.975Z</time></trkpt><trkpt lat="45.543243321922" lon="10.42448674451198"><ele>183.33333333333334</ele><time>2026-04-20T11:32:15.975Z</time></trkpt><trkpt lat="45.54309304969914" lon="10.424289105224998"><ele>182.66666666666666</ele><time>2026-04-20T11:32:16.975Z</time></trkpt><trkpt lat="45.542951062294684" lon="10.424113293899925"><ele>182.0</ele><time>2026-04-20T11:32:17.975Z</time></trkpt><trkpt lat="45.54280888056287" lon="10.423953096713253"><ele>182.66666666666666</ele><time>2026-04-20T11:32:18.975Z</time></trkpt><trkpt lat="45.54265602187063" lon="10.423775051303796"><ele>183.33333333333334</ele><time>2026-04-20T11:32:19.975Z</time></trkpt><trkpt lat="45.54251566582418" lon="10.42360586302944"><ele>184.0</ele><time>2026-04-20T11:32:20.975Z</time></trkpt><trkpt lat="45.542384978736585" lon="10.423431777575924"><ele>184.0</ele><time>2026-04-20T11:32:21.975Z</time></trkpt><trkpt lat="45.54225632256068" lon="10.423272210908273"><ele>184.0</ele><time>2026-04-20T11:32:22.975Z</time></trkpt><trkpt lat="45.54209164893362" lon="10.423102287440212"><ele>184.0</ele><time>2026-04-20T11:32:23.975Z</time></trkpt><trkpt lat="45.541955586750326" lon="10.422945713803557"><ele>183.66666666666669</ele><time>2026-04-20T11:32:24.975Z</time></trkpt><trkpt lat="45.54183228981228" lon="10.422794889462983"><ele>183.33333333333334</ele><time>2026-04-20T11:32:25.975Z</time></trkpt><trkpt lat="45.5417133640591" lon="10.422634117415827"><ele>183.0</ele><time>2026-04-20T11:32:26.975Z</time></trkpt><trkpt lat="45.541581063804884" lon="10.422489082370742"><ele>183.0</ele><time>2026-04-20T11:32:27.975Z</time></trkpt><trkpt lat="45.54143290728109" lon="10.422337834159313"><ele>183.0</ele><time>2026-04-20T11:32:28.975Z</time></trkpt><trkpt lat="45.54129903908734" lon="10.42218206875299"><ele>183.0</ele><time>2026-04-20T11:32:29.975Z</time></trkpt><trkpt lat="45.541167106810015" lon="10.422010808029613"><ele>184.0</ele><time>2026-04-20T11:32:30.975Z</time></trkpt><trkpt lat="45.54102926292302" lon="10.42185696921482"><ele>185.0</ele><time>2026-04-20T11:32:31.975Z</time></trkpt><trkpt lat="45.540894783301894" lon="10.421701182261168"><ele>186.0</ele><time>2026-04-20T11:32:32.975Z</time></trkpt><trkpt lat="45.54077405165798" lon="10.421542180286004"><ele>186.0</ele><time>2026-04-20T11:32:33.975Z</time></trkpt><trkpt lat="45.54063941527008" lon="10.421369579569735"><ele>186.0</ele><time>2026-04-20T11:32:34.975Z</time></trkpt><trkpt lat="45.540495013958925" lon="10.421193128946049"><ele>186.0</ele><time>2026-04-20T11:32:35.975Z</time></trkpt><trkpt lat="45.540335799201046" lon="10.421017888422265"><ele>185.0</ele><time>2026-04-20T11:32:36.975Z</time></trkpt><trkpt lat="45.5401959549068" lon="10.42083928310157"><ele>184.0</ele><time>2026-04-20T11:32:37.975Z</time></trkpt><trkpt lat="45.54006499648127" lon="10.42067582532718"><ele>183.0</ele><time>2026-04-20T11:32:38.975Z</time></trkpt><trkpt lat="45.539949144027304" lon="10.42049865415999"><ele>183.0</ele><time>2026-04-20T11:32:39.975Z</time></trkpt><trkpt lat="45.53981181673058" lon="10.42032393917144"><ele>183.0</ele><time>2026-04-20T11:32:40.975Z</time></trkpt><trkpt lat="45.53966142889463" lon="10.420152721390878"><ele>183.0</ele><time>2026-04-20T11:32:41.975Z</time></trkpt><trkpt lat="45.539533498915695" lon="10.419983970257668"><ele>183.0</ele><time>2026-04-20T11:32:42.976Z</time></trkpt><trkpt lat="45.53940483037626" lon="10.419804128190396"><ele>183.0</ele><time>2026-04-20T11:32:43.975Z</time></trkpt><trkpt lat="45.53926301285073" lon="10.419614896434613"><ele>183.0</ele><time>2026-04-20T11:32:44.975Z</time></trkpt><trkpt lat="45.5391209259645" lon="10.41942219930097"><ele>183.33333333333334</ele><time>2026-04-20T11:32:45.975Z</time></trkpt><trkpt lat="45.53899095309515" lon="10.419228839956764"><ele>183.66666666666669</ele><time>2026-04-20T11:32:46.976Z</time></trkpt><trkpt lat="45.5388633464922" lon="10.419035104536567"><ele>184.0</ele><time>2026-04-20T11:32:47.976Z</time></trkpt><trkpt lat="45.5387317712111" lon="10.418824035610168"><ele>182.66666666666669</ele><time>2026-04-20T11:32:48.975Z</time></trkpt><trkpt lat="45.53861016590309" lon="10.418627112033217"><ele>181.33333333333334</ele><time>2026-04-20T11:32:49.976Z</time></trkpt><trkpt lat="45.53849149535594" lon="10.418448942680858"><ele>180.0</ele><time>2026-04-20T11:32:50.976Z</time></trkpt><trkpt lat="45.538388277681584" lon="10.41827767130904"><ele>180.0</ele><time>2026-04-20T11:32:51.976Z</time></trkpt><trkpt lat="45.53827523010931" lon="10.418103651234192"><ele>180.0</ele><time>2026-04-20T11:32:52.976Z</time></trkpt><trkpt lat="45.538165988566966" lon="10.417915581486875"><ele>180.0</ele><time>2026-04-20T11:32:53.976Z</time></trkpt><trkpt lat="45.53805204293448" lon="10.417732991815097"><ele>180.33333333333334</ele><time>2026-04-20T11:32:54.976Z</time></trkpt><trkpt lat="45.537935776483614" lon="10.417551675429602"><ele>180.66666666666669</ele><time>2026-04-20T11:32:55.976Z</time></trkpt><trkpt lat="45.537819813596826" lon="10.41736966313671"><ele>181.0</ele><time>2026-04-20T11:32:56.976Z</time></trkpt><trkpt lat="45.53770027651703" lon="10.417180918107569"><ele>181.66666666666669</ele><time>2026-04-20T11:32:57.976Z</time></trkpt><trkpt lat="45.537586814668735" lon="10.416993548703013"><ele>182.33333333333334</ele><time>2026-04-20T11:32:58.976Z</time></trkpt><trkpt lat="45.53747289592313" lon="10.416800662668523"><ele>183.0</ele><time>2026-04-20T11:32:59.976Z</time></trkpt><trkpt lat="45.53736649994702" lon="10.416597077445312"><ele>183.0</ele><time>2026-04-20T11:33:00.976Z</time></trkpt><trkpt lat="45.53727868792295" lon="10.41637622974148"><ele>183.0</ele><time>2026-04-20T11:33:01.976Z</time></trkpt><trkpt lat="45.53718946642232" lon="10.4161390363442"><ele>183.0</ele><time>2026-04-20T11:33:02.976Z</time></trkpt><trkpt lat="45.53712004746792" lon="10.4158976349161"><ele>182.66666666666666</ele><time>2026-04-20T11:33:03.976Z</time></trkpt><trkpt lat="45.53706578273826" lon="10.415659973582745"><ele>182.33333333333331</ele><time>2026-04-20T11:33:04.976Z</time></trkpt><trkpt lat="45.53701675856757" lon="10.415429130102098"><ele>182.0</ele><time>2026-04-20T11:33:05.976Z</time></trkpt><trkpt lat="45.53695949690432" lon="10.415173414415635"><ele>181.66666666666666</ele><time>2026-04-20T11:33:06.976Z</time></trkpt><trkpt lat="45.53690991478614" lon="10.414896141841465"><ele>181.33333333333334</ele><time>2026-04-20T11:33:07.976Z</time></trkpt><trkpt lat="45.536884119686746" lon="10.414617891213215"><ele>181.0</ele><time>2026-04-20T11:33:08.976Z</time></trkpt><trkpt lat="45.53686101931358" lon="10.414328021227305"><ele>181.0</ele><time>2026-04-20T11:33:09.976Z</time></trkpt><trkpt lat="45.53682703149512" lon="10.414014374999399"><ele>181.0</ele><time>2026-04-20T11:33:10.976Z</time></trkpt><trkpt lat="45.536798570317245" lon="10.413724356464746"><ele>181.0</ele><time>2026-04-20T11:33:11.976Z</time></trkpt><trkpt lat="45.53676303845655" lon="10.413390254871588"><ele>181.0</ele><time>2026-04-20T11:33:12.976Z</time></trkpt><trkpt lat="45.536727644443324" lon="10.413051641347204"><ele>181.0</ele><time>2026-04-20T11:33:13.976Z</time></trkpt><trkpt lat="45.53669500264386" lon="10.412753584170034"><ele>180.66666666666669</ele><time>2026-04-20T11:33:14.976Z</time></trkpt><trkpt lat="45.53666654322864" lon="10.412485239571236"><ele>180.33333333333334</ele><time>2026-04-20T11:33:15.976Z</time></trkpt><trkpt lat="45.53663031676397" lon="10.412234076672528"><ele>180.0</ele><time>2026-04-20T11:33:16.976Z</time></trkpt><trkpt lat="45.53658809613059" lon="10.41197094370368"><ele>179.33333333333334</ele><time>2026-04-20T11:33:17.976Z</time></trkpt><trkpt lat="45.53654039545004" lon="10.411702768823666"><ele>178.66666666666669</ele><time>2026-04-20T11:33:18.975Z</time></trkpt><trkpt lat="45.53648997178056" lon="10.41146274136411"><ele>178.0</ele><time>2026-04-20T11:33:19.975Z</time></trkpt><trkpt lat="45.536431900629346" lon="10.411223663912189"><ele>178.0</ele><time>2026-04-20T11:33:20.975Z</time></trkpt><trkpt lat="45.53636268255206" lon="10.410982353121659"><ele>178.0</ele><time>2026-04-20T11:33:21.975Z</time></trkpt><trkpt lat="45.53629112540505" lon="10.410747650047643"><ele>178.0</ele><time>2026-04-20T11:33:22.975Z</time></trkpt><trkpt lat="45.53622033328557" lon="10.41052136719861"><ele>179.0</ele><time>2026-04-20T11:33:23.975Z</time></trkpt><trkpt lat="45.53613674018467" lon="10.410288298377749"><ele>180.0</ele><time>2026-04-20T11:33:24.975Z</time></trkpt><trkpt lat="45.536032785748354" lon="10.410034407729748"><ele>181.0</ele><time>2026-04-20T11:33:25.975Z</time></trkpt><trkpt lat="45.53590927867046" lon="10.409771490083996"><ele>179.5</ele><time>2026-04-20T11:33:26.975Z</time></trkpt><trkpt lat="45.53577297895071" lon="10.409480241981994"><ele>178.0</ele><time>2026-04-20T11:33:27.975Z</time></trkpt><trkpt lat="45.53563012408699" lon="10.409165170904245"><ele>178.0</ele><time>2026-04-20T11:33:28.975Z</time></trkpt><trkpt lat="45.535491078139586" lon="10.40884618557853"><ele>178.0</ele><time>2026-04-20T11:33:29.975Z</time></trkpt><trkpt lat="45.535350956214685" lon="10.408510900741685"><ele>177.5</ele><time>2026-04-20T11:33:30.975Z</time></trkpt><trkpt lat="45.53520459932142" lon="10.408174726122148"><ele>177.0</ele><time>2026-04-20T11:33:31.975Z</time></trkpt><trkpt lat="45.53507232862232" lon="10.407858136721284"><ele>177.0</ele><time>2026-04-20T11:33:32.975Z</time></trkpt><trkpt lat="45.5349349658822" lon="10.407540965003287"><ele>177.0</ele><time>2026-04-20T11:33:33.975Z</time></trkpt><trkpt lat="45.53480416557226" lon="10.407220698791775"><ele>177.0</ele><time>2026-04-20T11:33:34.975Z</time></trkpt><trkpt lat="45.53467728754995" lon="10.406903988084194"><ele>177.0</ele><time>2026-04-20T11:33:35.975Z</time></trkpt><trkpt lat="45.534549458937256" lon="10.406566761507543"><ele>176.5</ele><time>2026-04-20T11:33:36.975Z</time></trkpt><trkpt lat="45.53443539517949" lon="10.406244799080133"><ele>176.0</ele><time>2026-04-20T11:33:37.975Z</time></trkpt><trkpt lat="45.534314917786304" lon="10.405911164762013"><ele>176.0</ele><time>2026-04-20T11:33:38.975Z</time></trkpt><trkpt lat="45.534194874855196" lon="10.405592902626283"><ele>176.0</ele><time>2026-04-20T11:33:39.975Z</time></trkpt><trkpt lat="45.53407895069733" lon="10.405267738872443"><ele>176.0</ele><time>2026-04-20T11:33:40.975Z</time></trkpt><trkpt lat="45.533962603359456" lon="10.404956129645868"><ele>176.0</ele><time>2026-04-20T11:33:41.975Z</time></trkpt><trkpt lat="45.533858807749844" lon="10.404661322043378"><ele>175.66666666666666</ele><time>2026-04-20T11:33:42.975Z</time></trkpt><trkpt lat="45.53374759481801" lon="10.40435994046345"><ele>175.33333333333334</ele><time>2026-04-20T11:33:43.975Z</time></trkpt><trkpt lat="45.533657188617525" lon="10.404088037853787"><ele>175.0</ele><time>2026-04-20T11:33:44.975Z</time></trkpt><trkpt lat="45.533560988282346" lon="10.403811764662256"><ele>175.0</ele><time>2026-04-20T11:33:45.975Z</time></trkpt><trkpt lat="45.533462731113666" lon="10.403535569985403"><ele>175.0</ele><time>2026-04-20T11:33:46.975Z</time></trkpt><trkpt lat="45.53335925262502" lon="10.403258512503893"><ele>175.0</ele><time>2026-04-20T11:33:47.975Z</time></trkpt><trkpt lat="45.53324630802911" lon="10.402968539339943"><ele>174.66666666666669</ele><time>2026-04-20T11:33:48.975Z</time></trkpt><trkpt lat="45.53314882206385" lon="10.402688685368835"><ele>174.33333333333334</ele><time>2026-04-20T11:33:49.975Z</time></trkpt><trkpt lat="45.533047408178604" lon="10.402406625920817"><ele>174.0</ele><time>2026-04-20T11:33:50.975Z</time></trkpt><trkpt lat="45.532941985805714" lon="10.40211443203793"><ele>174.5</ele><time>2026-04-20T11:33:51.975Z</time></trkpt><trkpt lat="45.53282496882717" lon="10.401810160012724"><ele>175.0</ele><time>2026-04-20T11:33:52.975Z</time></trkpt><trkpt lat="45.5327206683497" lon="10.40153435886519"><ele>174.0</ele><time>2026-04-20T11:33:53.975Z</time></trkpt><trkpt lat="45.532614582960434" lon="10.401262348382705"><ele>173.0</ele><time>2026-04-20T11:33:54.975Z</time></trkpt><trkpt lat="45.532517823628" lon="10.400987899398322"><ele>172.0</ele><time>2026-04-20T11:33:55.975Z</time></trkpt><trkpt lat="45.532421528916785" lon="10.40071301860269"><ele>171.0</ele><time>2026-04-20T11:33:56.975Z</time></trkpt><trkpt lat="45.53231394527148" lon="10.400429442236621"><ele>170.0</ele><time>2026-04-20T11:33:57.975Z</time></trkpt><trkpt lat="45.53221262029142" lon="10.400142374362693"><ele>170.0</ele><time>2026-04-20T11:33:58.975Z</time></trkpt><trkpt lat="45.53211120381516" lon="10.399853069584259"><ele>170.0</ele><time>2026-04-20T11:33:59.975Z</time></trkpt><trkpt lat="45.532010833227254" lon="10.399568106658766"><ele>171.0</ele><time>2026-04-20T11:34:00.975Z</time></trkpt><trkpt lat="45.531911428562736" lon="10.39929682037863"><ele>172.0</ele><time>2026-04-20T11:34:01.975Z</time></trkpt><trkpt lat="45.53181318634371" lon="10.399024839899285"><ele>173.0</ele><time>2026-04-20T11:34:02.975Z</time></trkpt><trkpt lat="45.53172032232545" lon="10.398748618242912"><ele>173.33333333333331</ele><time>2026-04-20T11:34:03.975Z</time></trkpt><trkpt lat="45.53162382948691" lon="10.398476401939108"><ele>173.66666666666666</ele><time>2026-04-20T11:34:04.975Z</time></trkpt><trkpt lat="45.53152513295568" lon="10.398195884249889"><ele>174.0</ele><time>2026-04-20T11:34:05.975Z</time></trkpt><trkpt lat="45.53142906753125" lon="10.397927776791443"><ele>173.66666666666666</ele><time>2026-04-20T11:34:06.975Z</time></trkpt><trkpt lat="45.53133726707765" lon="10.397658850379125"><ele>173.33333333333331</ele><time>2026-04-20T11:34:07.975Z</time></trkpt><trkpt lat="45.53123970698834" lon="10.39737443851878"><ele>173.0</ele><time>2026-04-20T11:34:08.975Z</time></trkpt><trkpt lat="45.531140926509366" lon="10.39709012967724"><ele>173.0</ele><time>2026-04-20T11:34:09.975Z</time></trkpt><trkpt lat="45.53104396636674" lon="10.396814236096962"><ele>173.0</ele><time>2026-04-20T11:34:10.975Z</time></trkpt><trkpt lat="45.53095101881848" lon="10.396550290964043"><ele>173.0</ele><time>2026-04-20T11:34:11.975Z</time></trkpt><trkpt lat="45.53085953879061" lon="10.396289753024867"><ele>173.0</ele><time>2026-04-20T11:34:12.975Z</time></trkpt><trkpt lat="45.530763863755475" lon="10.396024762473322"><ele>173.0</ele><time>2026-04-20T11:34:13.975Z</time></trkpt><trkpt lat="45.53066686161315" lon="10.395756892748459"><ele>173.0</ele><time>2026-04-20T11:34:14.975Z</time></trkpt><trkpt lat="45.53057447157756" lon="10.395488058164807"><ele>173.0</ele><time>2026-04-20T11:34:15.975Z</time></trkpt><trkpt lat="45.53047518138481" lon="10.39521673126599"><ele>173.0</ele><time>2026-04-20T11:34:16.975Z</time></trkpt><trkpt lat="45.53038268204001" lon="10.394940861238485"><ele>173.0</ele><time>2026-04-20T11:34:17.975Z</time></trkpt><trkpt lat="45.53029080417838" lon="10.394669334648615"><ele>171.66666666666666</ele><time>2026-04-20T11:34:18.975Z</time></trkpt><trkpt lat="45.5301909503738" lon="10.394407947651702"><ele>170.33333333333334</ele><time>2026-04-20T11:34:19.975Z</time></trkpt><trkpt lat="45.530089291333006" lon="10.39413428652233"><ele>169.0</ele><time>2026-04-20T11:34:20.975Z</time></trkpt><trkpt lat="45.52998952246986" lon="10.393857990588138"><ele>169.66666666666669</ele><time>2026-04-20T11:34:21.975Z</time></trkpt><trkpt lat="45.529892640650516" lon="10.393590398745243"><ele>170.33333333333334</ele><time>2026-04-20T11:34:22.975Z</time></trkpt><trkpt lat="45.529793672601166" lon="10.393318649015852"><ele>171.0</ele><time>2026-04-20T11:34:23.975Z</time></trkpt><trkpt lat="45.5296948784866" lon="10.393038171669122"><ele>170.66666666666666</ele><time>2026-04-20T11:34:24.975Z</time></trkpt><trkpt lat="45.529602682443915" lon="10.392764436282143"><ele>170.33333333333331</ele><time>2026-04-20T11:34:25.975Z</time></trkpt><trkpt lat="45.52951771901998" lon="10.392496806531515"><ele>170.0</ele><time>2026-04-20T11:34:26.975Z</time></trkpt><trkpt lat="45.52942317492139" lon="10.392220061506286"><ele>170.0</ele><time>2026-04-20T11:34:27.975Z</time></trkpt><trkpt lat="45.52932297315124" lon="10.39194222953803"><ele>170.0</ele><time>2026-04-20T11:34:28.975Z</time></trkpt><trkpt lat="45.52921724080317" lon="10.391663767736556"><ele>170.0</ele><time>2026-04-20T11:34:29.975Z</time></trkpt><trkpt lat="45.529136339228444" lon="10.39141031319604"><ele>169.0</ele><time>2026-04-20T11:34:30.975Z</time></trkpt><trkpt lat="45.529044314112184" lon="10.391143190269283"><ele>168.0</ele><time>2026-04-20T11:34:31.975Z</time></trkpt><trkpt lat="45.528947658768054" lon="10.390868190966831"><ele>167.0</ele><time>2026-04-20T11:34:32.975Z</time></trkpt><trkpt lat="45.52885325912848" lon="10.39059546275143"><ele>166.66666666666666</ele><time>2026-04-20T11:34:33.975Z</time></trkpt><trkpt lat="45.52875428604766" lon="10.390323341553758"><ele>166.33333333333334</ele><time>2026-04-20T11:34:34.975Z</time></trkpt><trkpt lat="45.52866309449758" lon="10.390064764799703"><ele>166.0</ele><time>2026-04-20T11:34:35.975Z</time></trkpt><trkpt lat="45.52858171035395" lon="10.389827668187866"><ele>166.66666666666669</ele><time>2026-04-20T11:34:36.975Z</time></trkpt><trkpt lat="45.52850808645837" lon="10.38959247153101"><ele>167.33333333333334</ele><time>2026-04-20T11:34:37.975Z</time></trkpt><trkpt lat="45.52841698701703" lon="10.389328040420851"><ele>168.0</ele><time>2026-04-20T11:34:38.975Z</time></trkpt><trkpt lat="45.528325800855555" lon="10.389053550147954"><ele>167.66666666666666</ele><time>2026-04-20T11:34:39.975Z</time></trkpt><trkpt lat="45.528230606068234" lon="10.38878037226727"><ele>167.33333333333331</ele><time>2026-04-20T11:34:40.975Z</time></trkpt><trkpt lat="45.5281510430421" lon="10.388534806912736"><ele>167.0</ele><time>2026-04-20T11:34:41.975Z</time></trkpt><trkpt lat="45.52808996554533" lon="10.388314463580164"><ele>167.0</ele><time>2026-04-20T11:34:42.975Z</time></trkpt><trkpt lat="45.52802691863799" lon="10.388093914960827"><ele>167.0</ele><time>2026-04-20T11:34:43.975Z</time></trkpt><trkpt lat="45.527943859816766" lon="10.387858356180372"><ele>167.0</ele><time>2026-04-20T11:34:44.975Z</time></trkpt><trkpt lat="45.52787011333358" lon="10.38762843000572"><ele>166.33333333333331</ele><time>2026-04-20T11:34:45.975Z</time></trkpt><trkpt lat="45.52778816473998" lon="10.387383860168384"><ele>165.66666666666666</ele><time>2026-04-20T11:34:46.975Z</time></trkpt><trkpt lat="45.52772054909033" lon="10.387157796668472"><ele>165.0</ele><time>2026-04-20T11:34:47.975Z</time></trkpt><trkpt lat="45.527656100101666" lon="10.386934351507318"><ele>165.0</ele><time>2026-04-20T11:34:48.975Z</time></trkpt><trkpt lat="45.52759390200464" lon="10.38670692165981"><ele>165.0</ele><time>2026-04-20T11:34:49.976Z</time></trkpt><trkpt lat="45.52752360595107" lon="10.386475566063783"><ele>165.0</ele><time>2026-04-20T11:34:50.976Z</time></trkpt><trkpt lat="45.52745104032394" lon="10.386246018755385"><ele>165.0</ele><time>2026-04-20T11:34:51.976Z</time></trkpt><trkpt lat="45.52738494826741" lon="10.386036567643934"><ele>165.0</ele><time>2026-04-20T11:34:52.975Z</time></trkpt><trkpt lat="45.52732839238797" lon="10.38584067909427"><ele>165.0</ele><time>2026-04-20T11:34:53.975Z</time></trkpt><trkpt lat="45.52726266469697" lon="10.385623647029107"><ele>165.66666666666666</ele><time>2026-04-20T11:34:54.976Z</time></trkpt><trkpt lat="45.527203655983186" lon="10.385403224528956"><ele>166.33333333333331</ele><time>2026-04-20T11:34:55.976Z</time></trkpt><trkpt lat="45.527129165682" lon="10.385162453489956"><ele>167.0</ele><time>2026-04-20T11:34:56.976Z</time></trkpt><trkpt lat="45.527061468301724" lon="10.384938381888979"><ele>167.33333333333331</ele><time>2026-04-20T11:34:57.976Z</time></trkpt><trkpt lat="45.5269847765729" lon="10.384702614650768"><ele>167.66666666666666</ele><time>2026-04-20T11:34:58.976Z</time></trkpt><trkpt lat="45.5269166810457" lon="10.384470850248265"><ele>168.0</ele><time>2026-04-20T11:34:59.976Z</time></trkpt><trkpt lat="45.52683872576463" lon="10.384234504195826"><ele>168.0</ele><time>2026-04-20T11:35:00.976Z</time></trkpt><trkpt lat="45.526772263400304" lon="10.38402235989621"><ele>168.0</ele><time>2026-04-20T11:35:01.976Z</time></trkpt><trkpt lat="45.52670155658387" lon="10.383800412153333"><ele>168.0</ele><time>2026-04-20T11:35:02.976Z</time></trkpt><trkpt lat="45.52663144908155" lon="10.383571047176474"><ele>167.33333333333334</ele><time>2026-04-20T11:35:03.976Z</time></trkpt><trkpt lat="45.52657235611256" lon="10.383362712935103"><ele>166.66666666666669</ele><time>2026-04-20T11:35:04.976Z</time></trkpt><trkpt lat="45.5265062855871" lon="10.383157214291787"><ele>166.0</ele><time>2026-04-20T11:35:05.976Z</time></trkpt><trkpt lat="45.52643035641867" lon="10.382933011640317"><ele>166.0</ele><time>2026-04-20T11:35:06.976Z</time></trkpt><trkpt lat="45.52634864944763" lon="10.38269670927134"><ele>166.0</ele><time>2026-04-20T11:35:07.976Z</time></trkpt><trkpt lat="45.526269401172" lon="10.382473608448258"><ele>166.0</ele><time>2026-04-20T11:35:08.976Z</time></trkpt><trkpt lat="45.52618150099095" lon="10.38225734368335"><ele>165.66666666666669</ele><time>2026-04-20T11:35:09.976Z</time></trkpt><trkpt lat="45.52608407512553" lon="10.382031730954978"><ele>165.33333333333334</ele><time>2026-04-20T11:35:10.976Z</time></trkpt><trkpt lat="45.52599993429955" lon="10.38182431595203"><ele>165.0</ele><time>2026-04-20T11:35:11.976Z</time></trkpt><trkpt lat="45.52591150358566" lon="10.381617609305948"><ele>165.0</ele><time>2026-04-20T11:35:12.976Z</time></trkpt><trkpt lat="45.525823579832654" lon="10.381417052543283"><ele>165.0</ele><time>2026-04-20T11:35:13.976Z</time></trkpt><trkpt lat="45.525733152697285" lon="10.381216141835424"><ele>165.0</ele><time>2026-04-20T11:35:14.976Z</time></trkpt><trkpt lat="45.525639998991345" lon="10.381012365575817"><ele>164.66666666666666</ele><time>2026-04-20T11:35:15.976Z</time></trkpt><trkpt lat="45.52554350850888" lon="10.38081641730054"><ele>164.33333333333331</ele><time>2026-04-20T11:35:16.976Z</time></trkpt><trkpt lat="45.525457293452575" lon="10.380624941456327"><ele>164.0</ele><time>2026-04-20T11:35:17.976Z</time></trkpt><trkpt lat="45.52536626428119" lon="10.380430393219696"><ele>163.33333333333331</ele><time>2026-04-20T11:35:18.976Z</time></trkpt><trkpt lat="45.52528153086057" lon="10.380248484939601"><ele>162.66666666666666</ele><time>2026-04-20T11:35:19.976Z</time></trkpt><trkpt lat="45.52520017305815" lon="10.380063322976591"><ele>162.0</ele><time>2026-04-20T11:35:20.976Z</time></trkpt><trkpt lat="45.52510856445549" lon="10.37986385748174"><ele>162.33333333333334</ele><time>2026-04-20T11:35:21.976Z</time></trkpt><trkpt lat="45.52500384338249" lon="10.3796598604693"><ele>162.66666666666669</ele><time>2026-04-20T11:35:22.976Z</time></trkpt><trkpt lat="45.52490368599031" lon="10.379450221004282"><ele>163.0</ele><time>2026-04-20T11:35:23.976Z</time></trkpt><trkpt lat="45.52481479772572" lon="10.379224657678273"><ele>163.0</ele><time>2026-04-20T11:35:24.976Z</time></trkpt><trkpt lat="45.524721108584785" lon="10.379018715741108"><ele>163.0</ele><time>2026-04-20T11:35:25.976Z</time></trkpt><trkpt lat="45.5246204225141" lon="10.378836286209895"><ele>163.0</ele><time>2026-04-20T11:35:26.976Z</time></trkpt><trkpt lat="45.52454272568411" lon="10.37863818374538"><ele>162.33333333333334</ele><time>2026-04-20T11:35:27.976Z</time></trkpt><trkpt lat="45.5244530242146" lon="10.378435038391057"><ele>161.66666666666666</ele><time>2026-04-20T11:35:28.976Z</time></trkpt><trkpt lat="45.52436890062294" lon="10.37824024808866"><ele>161.0</ele><time>2026-04-20T11:35:29.976Z</time></trkpt><trkpt lat="45.52429126420463" lon="10.378046654202063"><ele>161.0</ele><time>2026-04-20T11:35:30.976Z</time></trkpt><trkpt lat="45.52420498259229" lon="10.377860979265902"><ele>161.0</ele><time>2026-04-20T11:35:31.976Z</time></trkpt><trkpt lat="45.524112503124186" lon="10.377667659981721"><ele>161.0</ele><time>2026-04-20T11:35:32.976Z</time></trkpt><trkpt lat="45.52402319951115" lon="10.3774714526912"><ele>161.0</ele><time>2026-04-20T11:35:33.976Z</time></trkpt><trkpt lat="45.523931859540376" lon="10.37726801077112"><ele>161.0</ele><time>2026-04-20T11:35:34.976Z</time></trkpt><trkpt lat="45.52383739156859" lon="10.37705820547651"><ele>161.0</ele><time>2026-04-20T11:35:35.976Z</time></trkpt><trkpt lat="45.523744951726414" lon="10.376848861683968"><ele>161.66666666666666</ele><time>2026-04-20T11:35:36.976Z</time></trkpt><trkpt lat="45.523648043463375" lon="10.376638579245517"><ele>162.33333333333334</ele><time>2026-04-20T11:35:37.976Z</time></trkpt><trkpt lat="45.523554200598845" lon="10.376431075029679"><ele>163.0</ele><time>2026-04-20T11:35:38.976Z</time></trkpt><trkpt lat="45.523469979988946" lon="10.376235949413312"><ele>163.0</ele><time>2026-04-20T11:35:39.976Z</time></trkpt><trkpt lat="45.52338863484077" lon="10.376038347424183"><ele>163.0</ele><time>2026-04-20T11:35:40.976Z</time></trkpt><trkpt lat="45.52330936887793" lon="10.375846170606032"><ele>163.0</ele><time>2026-04-20T11:35:41.976Z</time></trkpt><trkpt lat="45.52323182895577" lon="10.375659527613816"><ele>162.66666666666669</ele><time>2026-04-20T11:35:42.976Z</time></trkpt><trkpt lat="45.523153067889154" lon="10.375471325995338"><ele>162.33333333333334</ele><time>2026-04-20T11:35:43.976Z</time></trkpt><trkpt lat="45.52307069490106" lon="10.375274825888964"><ele>162.0</ele><time>2026-04-20T11:35:44.976Z</time></trkpt><trkpt lat="45.52298564291635" lon="10.375071634457978"><ele>162.33333333333334</ele><time>2026-04-20T11:35:45.976Z</time></trkpt><trkpt lat="45.52289312359164" lon="10.374866068081985"><ele>162.66666666666669</ele><time>2026-04-20T11:35:46.976Z</time></trkpt><trkpt lat="45.52280024039962" lon="10.374663218372138"><ele>163.0</ele><time>2026-04-20T11:35:47.976Z</time></trkpt><trkpt lat="45.52270683438816" lon="10.374468037199346"><ele>162.33333333333334</ele><time>2026-04-20T11:35:48.976Z</time></trkpt><trkpt lat="45.522605490088644" lon="10.374259978505227"><ele>161.66666666666666</ele><time>2026-04-20T11:35:49.976Z</time></trkpt><trkpt lat="45.52250231036691" lon="10.374063786613162"><ele>161.0</ele><time>2026-04-20T11:35:50.976Z</time></trkpt><trkpt lat="45.52240141956499" lon="10.373868227202012"><ele>161.33333333333331</ele><time>2026-04-20T11:35:51.976Z</time></trkpt><trkpt lat="45.522284946527265" lon="10.37368265060942"><ele>161.66666666666666</ele><time>2026-04-20T11:35:52.976Z</time></trkpt><trkpt lat="45.52218578380554" lon="10.373503317757299"><ele>162.0</ele><time>2026-04-20T11:35:53.976Z</time></trkpt><trkpt lat="45.522090309902055" lon="10.37333320144757"><ele>162.0</ele><time>2026-04-20T11:35:54.976Z</time></trkpt><trkpt lat="45.52196733827388" lon="10.373145793292352"><ele>162.0</ele><time>2026-04-20T11:35:55.976Z</time></trkpt><trkpt lat="45.52184274548762" lon="10.372953144607783"><ele>162.0</ele><time>2026-04-20T11:35:56.976Z</time></trkpt><trkpt lat="45.5216975837044" lon="10.37274380216641"><ele>161.0</ele><time>2026-04-20T11:35:57.976Z</time></trkpt><trkpt lat="45.52157550474231" lon="10.37255102045661"><ele>160.0</ele><time>2026-04-20T11:35:58.976Z</time></trkpt><trkpt lat="45.521444602223006" lon="10.372348699141329"><ele>159.0</ele><time>2026-04-20T11:35:59.976Z</time></trkpt><trkpt lat="45.521311247607976" lon="10.372145330473616"><ele>159.33333333333334</ele><time>2026-04-20T11:36:00.976Z</time></trkpt><trkpt lat="45.52117959768053" lon="10.371937045646373"><ele>159.66666666666669</ele><time>2026-04-20T11:36:01.976Z</time></trkpt><trkpt lat="45.5210547947494" lon="10.371737036102822"><ele>160.0</ele><time>2026-04-20T11:36:02.976Z</time></trkpt><trkpt lat="45.52094240053651" lon="10.371557791582646"><ele>160.0</ele><time>2026-04-20T11:36:03.976Z</time></trkpt><trkpt lat="45.52084849671485" lon="10.371385647498853"><ele>160.0</ele><time>2026-04-20T11:36:04.976Z</time></trkpt><trkpt lat="45.5207347135569" lon="10.37120326147298"><ele>160.0</ele><time>2026-04-20T11:36:05.976Z</time></trkpt><trkpt lat="45.520608810337926" lon="10.371023947582467"><ele>160.0</ele><time>2026-04-20T11:36:06.976Z</time></trkpt><trkpt lat="45.52049284982435" lon="10.370846939578858"><ele>160.0</ele><time>2026-04-20T11:36:07.976Z</time></trkpt><trkpt lat="45.520379984672395" lon="10.37066571720174"><ele>160.0</ele><time>2026-04-20T11:36:08.976Z</time></trkpt><trkpt lat="45.52025844754563" lon="10.370478041299709"><ele>160.0</ele><time>2026-04-20T11:36:09.976Z</time></trkpt><trkpt lat="45.52014040410626" lon="10.370289344701401"><ele>160.0</ele><time>2026-04-20T11:36:10.976Z</time></trkpt><trkpt lat="45.520018923103116" lon="10.370100668590009"><ele>160.0</ele><time>2026-04-20T11:36:11.976Z</time></trkpt><trkpt lat="45.519908010562936" lon="10.369928375690314"><ele>160.0</ele><time>2026-04-20T11:36:12.976Z</time></trkpt><trkpt lat="45.51980550649835" lon="10.369770054058995"><ele>160.0</ele><time>2026-04-20T11:36:13.976Z</time></trkpt><trkpt lat="45.51970227050476" lon="10.36960622716819"><ele>160.0</ele><time>2026-04-20T11:36:14.976Z</time></trkpt><trkpt lat="45.51960188221348" lon="10.369453175956895"><ele>159.75</ele><time>2026-04-20T11:36:15.976Z</time></trkpt><trkpt lat="45.51950128300304" lon="10.369308383578108"><ele>159.5</ele><time>2026-04-20T11:36:16.976Z</time></trkpt><trkpt lat="45.519395180586834" lon="10.369156478969847"><ele>159.25</ele><time>2026-04-20T11:36:17.976Z</time></trkpt><trkpt lat="45.519299738709876" lon="10.36900245133622"><ele>159.0</ele><time>2026-04-20T11:36:18.976Z</time></trkpt><trkpt lat="45.519196790206884" lon="10.368842183451841"><ele>158.66666666666666</ele><time>2026-04-20T11:36:19.976Z</time></trkpt><trkpt lat="45.519090812189546" lon="10.36867922739459"><ele>158.33333333333331</ele><time>2026-04-20T11:36:20.976Z</time></trkpt><trkpt lat="45.5189810512808" lon="10.368507802557911"><ele>158.0</ele><time>2026-04-20T11:36:21.976Z</time></trkpt><trkpt lat="45.518857028352876" lon="10.368330461660927"><ele>158.0</ele><time>2026-04-20T11:36:22.976Z</time></trkpt><trkpt lat="45.51872858415855" lon="10.368155729994639"><ele>158.0</ele><time>2026-04-20T11:36:23.976Z</time></trkpt><trkpt lat="45.51860550092767" lon="10.36799885578234"><ele>158.0</ele><time>2026-04-20T11:36:24.976Z</time></trkpt><trkpt lat="45.5184636141721" lon="10.367847978315135"><ele>157.66666666666666</ele><time>2026-04-20T11:36:25.976Z</time></trkpt><trkpt lat="45.51832728808429" lon="10.3676991613934"><ele>157.33333333333334</ele><time>2026-04-20T11:36:26.976Z</time></trkpt><trkpt lat="45.51819889963947" lon="10.367529721051644"><ele>157.0</ele><time>2026-04-20T11:36:27.976Z</time></trkpt><trkpt lat="45.51806890995088" lon="10.367387223650258"><ele>157.0</ele><time>2026-04-20T11:36:28.976Z</time></trkpt><trkpt lat="45.51793931719761" lon="10.367250134291478"><ele>157.0</ele><time>2026-04-20T11:36:29.976Z</time></trkpt><trkpt lat="45.51780636975806" lon="10.367140361325275"><ele>157.0</ele><time>2026-04-20T11:36:30.976Z</time></trkpt><trkpt lat="45.517688552480145" lon="10.36699049886257"><ele>157.0</ele><time>2026-04-20T11:36:31.976Z</time></trkpt><trkpt lat="45.51755837978986" lon="10.366857649213907"><ele>157.0</ele><time>2026-04-20T11:36:32.976Z</time></trkpt><trkpt lat="45.51742760742271" lon="10.36672469955061"><ele>157.0</ele><time>2026-04-20T11:36:33.976Z</time></trkpt><trkpt lat="45.517297244395444" lon="10.366592539693356"><ele>157.0</ele><time>2026-04-20T11:36:34.976Z</time></trkpt><trkpt lat="45.517172775114815" lon="10.366467771929717"><ele>157.0</ele><time>2026-04-20T11:36:35.976Z</time></trkpt><trkpt lat="45.517035856854264" lon="10.366330525384061"><ele>157.0</ele><time>2026-04-20T11:36:36.976Z</time></trkpt><trkpt lat="45.51689535399907" lon="10.366189685589573"><ele>157.0</ele><time>2026-04-20T11:36:37.976Z</time></trkpt><trkpt lat="45.51676310106806" lon="10.366057115577782"><ele>157.0</ele><time>2026-04-20T11:36:38.976Z</time></trkpt><trkpt lat="45.516629978176326" lon="10.365923673484117"><ele>157.0</ele><time>2026-04-20T11:36:39.976Z</time></trkpt><trkpt lat="45.51649019076673" lon="10.365783550869445"><ele>157.0</ele><time>2026-04-20T11:36:40.976Z</time></trkpt><trkpt lat="45.51634735542872" lon="10.36564037306405"><ele>157.0</ele><time>2026-04-20T11:36:41.976Z</time></trkpt><trkpt lat="45.516204891976805" lon="10.365494827497125"><ele>157.0</ele><time>2026-04-20T11:36:42.976Z</time></trkpt><trkpt lat="45.51606833652024" lon="10.365354764222378"><ele>157.0</ele><time>2026-04-20T11:36:43.976Z</time></trkpt><trkpt lat="45.51592969228704" lon="10.365213222432052"><ele>157.0</ele><time>2026-04-20T11:36:44.976Z</time></trkpt><trkpt lat="45.51578935318547" lon="10.365070780715346"><ele>157.0</ele><time>2026-04-20T11:36:45.976Z</time></trkpt><trkpt lat="45.51564596787809" lon="10.364950090982347"><ele>157.0</ele><time>2026-04-20T11:36:46.976Z</time></trkpt><trkpt lat="45.51552175002564" lon="10.364807594471026"><ele>157.0</ele><time>2026-04-20T11:36:47.976Z</time></trkpt><trkpt lat="45.51538961873745" lon="10.364661971441404"><ele>157.0</ele><time>2026-04-20T11:36:48.976Z</time></trkpt><trkpt lat="45.515248577664195" lon="10.364520510848212"><ele>156.66666666666669</ele><time>2026-04-20T11:36:49.976Z</time></trkpt><trkpt lat="45.515107729047386" lon="10.364374789893603"><ele>156.33333333333334</ele><time>2026-04-20T11:36:50.976Z</time></trkpt><trkpt lat="45.51496517173399" lon="10.364225746849586"><ele>156.0</ele><time>2026-04-20T11:36:51.976Z</time></trkpt><trkpt lat="45.514829795785424" lon="10.364078588201721"><ele>156.0</ele><time>2026-04-20T11:36:52.976Z</time></trkpt><trkpt lat="45.51471093383467" lon="10.363918665541668"><ele>156.0</ele><time>2026-04-20T11:36:53.976Z</time></trkpt><trkpt lat="45.51459111248649" lon="10.363743124401793"><ele>156.0</ele><time>2026-04-20T11:36:54.976Z</time></trkpt><trkpt lat="45.51447897172582" lon="10.363543635312942"><ele>155.66666666666666</ele><time>2026-04-20T11:36:55.975Z</time></trkpt><trkpt lat="45.51438080581895" lon="10.363333339094849"><ele>155.33333333333331</ele><time>2026-04-20T11:36:56.975Z</time></trkpt><trkpt lat="45.51427852221744" lon="10.363155365336185"><ele>155.0</ele><time>2026-04-20T11:36:57.975Z</time></trkpt><trkpt lat="45.514180965682286" lon="10.362955472795589"><ele>155.66666666666666</ele><time>2026-04-20T11:36:58.975Z</time></trkpt><trkpt lat="45.51408165982817" lon="10.36275824262032"><ele>156.33333333333334</ele><time>2026-04-20T11:36:59.975Z</time></trkpt><trkpt lat="45.51401007598941" lon="10.36255181796877"><ele>157.0</ele><time>2026-04-20T11:37:00.976Z</time></trkpt><trkpt lat="45.51394169361685" lon="10.362338784287651"><ele>157.33333333333334</ele><time>2026-04-20T11:37:01.975Z</time></trkpt><trkpt lat="45.51388558305244" lon="10.362114639177062"><ele>157.66666666666666</ele><time>2026-04-20T11:37:02.975Z</time></trkpt><trkpt lat="45.513841070071486" lon="10.361884360765112"><ele>158.0</ele><time>2026-04-20T11:37:03.975Z</time></trkpt><trkpt lat="45.51379415670002" lon="10.36165525044347"><ele>158.0</ele><time>2026-04-20T11:37:04.975Z</time></trkpt><trkpt lat="45.51375907788699" lon="10.36142424107859"><ele>158.0</ele><time>2026-04-20T11:37:05.975Z</time></trkpt><trkpt lat="45.51372577066324" lon="10.361180875544878"><ele>158.0</ele><time>2026-04-20T11:37:06.975Z</time></trkpt><trkpt lat="45.513699293284795" lon="10.36093438184373"><ele>156.33333333333331</ele><time>2026-04-20T11:37:07.975Z</time></trkpt><trkpt lat="45.51367224087887" lon="10.360681073593776"><ele>154.66666666666666</ele><time>2026-04-20T11:37:08.975Z</time></trkpt><trkpt lat="45.513643749768534" lon="10.360416597876842"><ele>153.0</ele><time>2026-04-20T11:37:09.975Z</time></trkpt><trkpt lat="45.51361781965996" lon="10.360147756666352"><ele>152.33333333333334</ele><time>2026-04-20T11:37:10.975Z</time></trkpt><trkpt lat="45.5135896086513" lon="10.35988316935984"><ele>151.66666666666669</ele><time>2026-04-20T11:37:11.975Z</time></trkpt><trkpt lat="45.513567237746585" lon="10.359640279650955"><ele>151.0</ele><time>2026-04-20T11:37:12.975Z</time></trkpt><trkpt lat="45.51354176847886" lon="10.359414860785758"><ele>151.66666666666669</ele><time>2026-04-20T11:37:13.975Z</time></trkpt><trkpt lat="45.51352256428723" lon="10.35919825031871"><ele>152.33333333333334</ele><time>2026-04-20T11:37:14.975Z</time></trkpt><trkpt lat="45.513497059710545" lon="10.358975816719239"><ele>153.0</ele><time>2026-04-20T11:37:15.975Z</time></trkpt><trkpt lat="45.513481222744446" lon="10.35877459594862"><ele>153.0</ele><time>2026-04-20T11:37:16.975Z</time></trkpt><trkpt lat="45.513462779157706" lon="10.358561397667941"><ele>153.0</ele><time>2026-04-20T11:37:17.975Z</time></trkpt><trkpt lat="45.51343638498425" lon="10.358331419051831"><ele>153.0</ele><time>2026-04-20T11:37:18.975Z</time></trkpt><trkpt lat="45.513414996981496" lon="10.358111779565315"><ele>153.5</ele><time>2026-04-20T11:37:19.975Z</time></trkpt><trkpt lat="45.51338717578598" lon="10.357900813523658"><ele>154.0</ele><time>2026-04-20T11:37:20.975Z</time></trkpt><trkpt lat="45.51336563482771" lon="10.357708800291146"><ele>154.5</ele><time>2026-04-20T11:37:21.975Z</time></trkpt><trkpt lat="45.51334101311581" lon="10.35750923335291"><ele>155.0</ele><time>2026-04-20T11:37:22.975Z</time></trkpt><trkpt lat="45.51331871645674" lon="10.357310742835203"><ele>154.33333333333331</ele><time>2026-04-20T11:37:23.975Z</time></trkpt><trkpt lat="45.513293856330385" lon="10.35708953116255"><ele>153.66666666666666</ele><time>2026-04-20T11:37:24.975Z</time></trkpt><trkpt lat="45.51326544705452" lon="10.356871980072064"><ele>153.0</ele><time>2026-04-20T11:37:25.975Z</time></trkpt><trkpt lat="45.51323705913503" lon="10.356674629991579"><ele>153.0</ele><time>2026-04-20T11:37:26.975Z</time></trkpt><trkpt lat="45.51323246009825" lon="10.356480659758"><ele>153.0</ele><time>2026-04-20T11:37:27.975Z</time></trkpt><trkpt lat="45.51319590662478" lon="10.356296476319818"><ele>153.0</ele><time>2026-04-20T11:37:28.975Z</time></trkpt><trkpt lat="45.51316866061667" lon="10.356094635222378"><ele>153.0</ele><time>2026-04-20T11:37:29.975Z</time></trkpt><trkpt lat="45.513146152842296" lon="10.355898553863442"><ele>153.0</ele><time>2026-04-20T11:37:30.975Z</time></trkpt><trkpt lat="45.513112029170294" lon="10.355685280153711"><ele>153.0</ele><time>2026-04-20T11:37:31.975Z</time></trkpt><trkpt lat="45.51311726460105" lon="10.355475497177693"><ele>153.0</ele><time>2026-04-20T11:37:32.975Z</time></trkpt><trkpt lat="45.51308529552272" lon="10.355265772769954"><ele>153.0</ele><time>2026-04-20T11:37:33.975Z</time></trkpt><trkpt lat="45.5130572768309" lon="10.35507541033086"><ele>153.0</ele><time>2026-04-20T11:37:34.975Z</time></trkpt><trkpt lat="45.51302118019114" lon="10.354861258834022"><ele>153.0</ele><time>2026-04-20T11:37:35.975Z</time></trkpt><trkpt lat="45.51298811085563" lon="10.354653059449705"><ele>153.0</ele><time>2026-04-20T11:37:36.975Z</time></trkpt><trkpt lat="45.51294763609494" lon="10.354429805697437"><ele>153.0</ele><time>2026-04-20T11:37:37.975Z</time></trkpt><trkpt lat="45.512907316666784" lon="10.354185873675403"><ele>153.0</ele><time>2026-04-20T11:37:38.975Z</time></trkpt><trkpt lat="45.51285703005935" lon="10.353915850472193"><ele>153.0</ele><time>2026-04-20T11:37:39.975Z</time></trkpt><trkpt lat="45.51280547816833" lon="10.353611091001442"><ele>152.66666666666666</ele><time>2026-04-20T11:37:40.975Z</time></trkpt><trkpt lat="45.51276286832195" lon="10.353321119887747"><ele>152.33333333333331</ele><time>2026-04-20T11:37:41.975Z</time></trkpt><trkpt lat="45.5127249282238" lon="10.35306433586629"><ele>152.0</ele><time>2026-04-20T11:37:42.975Z</time></trkpt><trkpt lat="45.51268562849824" lon="10.352821617906745"><ele>152.0</ele><time>2026-04-20T11:37:43.975Z</time></trkpt><trkpt lat="45.5126509495944" lon="10.35258904940814"><ele>152.0</ele><time>2026-04-20T11:37:44.975Z</time></trkpt><trkpt lat="45.51262788163576" lon="10.35236872626213"><ele>152.0</ele><time>2026-04-20T11:37:45.975Z</time></trkpt><trkpt lat="45.51259654353722" lon="10.3521453419005"><ele>152.33333333333331</ele><time>2026-04-20T11:37:46.975Z</time></trkpt><trkpt lat="45.51256278741171" lon="10.351913645397646"><ele>152.66666666666666</ele><time>2026-04-20T11:37:47.975Z</time></trkpt><trkpt lat="45.51252778122299" lon="10.351682379136744"><ele>153.0</ele><time>2026-04-20T11:37:48.975Z</time></trkpt><trkpt lat="45.512489089591256" lon="10.351434092260568"><ele>153.33333333333334</ele><time>2026-04-20T11:37:49.975Z</time></trkpt><trkpt lat="45.51245769986926" lon="10.351195829690214"><ele>153.66666666666669</ele><time>2026-04-20T11:37:50.975Z</time></trkpt><trkpt lat="45.512418800674034" lon="10.350964114973584"><ele>154.0</ele><time>2026-04-20T11:37:51.975Z</time></trkpt><trkpt lat="45.512381592283404" lon="10.350728875081911"><ele>153.33333333333334</ele><time>2026-04-20T11:37:52.975Z</time></trkpt><trkpt lat="45.51234396724916" lon="10.350486050055743"><ele>152.66666666666666</ele><time>2026-04-20T11:37:53.975Z</time></trkpt><trkpt lat="45.512302990116964" lon="10.350239522299155"><ele>152.0</ele><time>2026-04-20T11:37:54.975Z</time></trkpt><trkpt lat="45.51226122929382" lon="10.349991820978243"><ele>152.0</ele><time>2026-04-20T11:37:55.975Z</time></trkpt><trkpt lat="45.51221561365771" lon="10.349760739030218"><ele>152.0</ele><time>2026-04-20T11:37:56.975Z</time></trkpt><trkpt lat="45.51216815393142" lon="10.349512074737826"><ele>152.0</ele><time>2026-04-20T11:37:57.975Z</time></trkpt><trkpt lat="45.5121160479123" lon="10.349260424729737"><ele>152.0</ele><time>2026-04-20T11:37:58.975Z</time></trkpt><trkpt lat="45.51205435716197" lon="10.349020473313796"><ele>152.0</ele><time>2026-04-20T11:37:59.975Z</time></trkpt><trkpt lat="45.512005359139316" lon="10.348816576155361"><ele>152.0</ele><time>2026-04-20T11:38:00.975Z</time></trkpt><trkpt lat="45.51195534297757" lon="10.348604565620288"><ele>152.0</ele><time>2026-04-20T11:38:01.975Z</time></trkpt><trkpt lat="45.51189475154088" lon="10.348380679414793"><ele>152.0</ele><time>2026-04-20T11:38:02.975Z</time></trkpt><trkpt lat="45.51183307653586" lon="10.348163983210503"><ele>152.0</ele><time>2026-04-20T11:38:03.975Z</time></trkpt><trkpt lat="45.51175036108668" lon="10.347923086101007"><ele>152.0</ele><time>2026-04-20T11:38:04.975Z</time></trkpt><trkpt lat="45.51167053626753" lon="10.347690258801169"><ele>152.0</ele><time>2026-04-20T11:38:05.975Z</time></trkpt><trkpt lat="45.51159694942012" lon="10.347426373716363"><ele>152.0</ele><time>2026-04-20T11:38:06.975Z</time></trkpt><trkpt lat="45.51151446443343" lon="10.347191974902282"><ele>152.33333333333331</ele><time>2026-04-20T11:38:07.975Z</time></trkpt><trkpt lat="45.51143331822065" lon="10.346975770592785"><ele>152.66666666666666</ele><time>2026-04-20T11:38:08.975Z</time></trkpt><trkpt lat="45.51135645972906" lon="10.346775625682767"><ele>153.0</ele><time>2026-04-20T11:38:09.975Z</time></trkpt><trkpt lat="45.51128362809625" lon="10.346585967103"><ele>153.33333333333334</ele><time>2026-04-20T11:38:10.975Z</time></trkpt><trkpt lat="45.51120464891434" lon="10.346379256318514"><ele>153.66666666666669</ele><time>2026-04-20T11:38:11.975Z</time></trkpt><trkpt lat="45.51111925530964" lon="10.346160038919683"><ele>154.0</ele><time>2026-04-20T11:38:12.975Z</time></trkpt><trkpt lat="45.51106797885505" lon="10.34597734466493"><ele>153.0</ele><time>2026-04-20T11:38:13.975Z</time></trkpt><trkpt lat="45.510991906322765" lon="10.345786965718421"><ele>152.0</ele><time>2026-04-20T11:38:14.975Z</time></trkpt><trkpt lat="45.51091359257489" lon="10.345595454756747"><ele>151.0</ele><time>2026-04-20T11:38:15.975Z</time></trkpt><trkpt lat="45.510829152781604" lon="10.345387674255704"><ele>151.0</ele><time>2026-04-20T11:38:16.975Z</time></trkpt><trkpt lat="45.51075601171191" lon="10.345200576367162"><ele>151.0</ele><time>2026-04-20T11:38:17.975Z</time></trkpt><trkpt lat="45.51068086481858" lon="10.345016407260474"><ele>151.0</ele><time>2026-04-20T11:38:18.975Z</time></trkpt><trkpt lat="45.51060558222778" lon="10.344829909362732"><ele>151.0</ele><time>2026-04-20T11:38:19.975Z</time></trkpt><trkpt lat="45.510521017694266" lon="10.344625959621636"><ele>151.0</ele><time>2026-04-20T11:38:20.975Z</time></trkpt><trkpt lat="45.51044698783964" lon="10.344432521957351"><ele>151.0</ele><time>2026-04-20T11:38:21.975Z</time></trkpt><trkpt lat="45.51037297425365" lon="10.344252917583825"><ele>151.0</ele><time>2026-04-20T11:38:22.975Z</time></trkpt><trkpt lat="45.51029491199542" lon="10.344058954412668"><ele>151.0</ele><time>2026-04-20T11:38:23.975Z</time></trkpt><trkpt lat="45.51021466641605" lon="10.343865297462662"><ele>151.0</ele><time>2026-04-20T11:38:24.975Z</time></trkpt><trkpt lat="45.51013210351214" lon="10.343666493915148"><ele>150.66666666666669</ele><time>2026-04-20T11:38:25.975Z</time></trkpt><trkpt lat="45.51005960954464" lon="10.343475153459735"><ele>150.33333333333334</ele><time>2026-04-20T11:38:26.975Z</time></trkpt><trkpt lat="45.50998174918059" lon="10.343287477168525"><ele>150.0</ele><time>2026-04-20T11:38:27.975Z</time></trkpt><trkpt lat="45.50989423220157" lon="10.343099100755685"><ele>149.66666666666666</ele><time>2026-04-20T11:38:28.975Z</time></trkpt><trkpt lat="45.509812216448935" lon="10.342921136407993"><ele>149.33333333333331</ele><time>2026-04-20T11:38:29.975Z</time></trkpt><trkpt lat="45.50972230958048" lon="10.342736472554103"><ele>149.0</ele><time>2026-04-20T11:38:30.975Z</time></trkpt><trkpt lat="45.50962479471488" lon="10.342554547586573"><ele>149.33333333333331</ele><time>2026-04-20T11:38:31.975Z</time></trkpt><trkpt lat="45.50951343336747" lon="10.342372110782001"><ele>149.66666666666666</ele><time>2026-04-20T11:38:32.975Z</time></trkpt><trkpt lat="45.50941033375931" lon="10.342204796784483"><ele>150.0</ele><time>2026-04-20T11:38:33.975Z</time></trkpt><trkpt lat="45.50930217998627" lon="10.34203796741323"><ele>149.33333333333334</ele><time>2026-04-20T11:38:34.975Z</time></trkpt><trkpt lat="45.50920276365245" lon="10.341878093841373"><ele>148.66666666666669</ele><time>2026-04-20T11:38:35.975Z</time></trkpt><trkpt lat="45.50910573977214" lon="10.341730660133544"><ele>148.0</ele><time>2026-04-20T11:38:36.975Z</time></trkpt><trkpt lat="45.50898706883266" lon="10.3415713338664"><ele>148.0</ele><time>2026-04-20T11:38:37.975Z</time></trkpt><trkpt lat="45.50885815561652" lon="10.34141802880756"><ele>148.0</ele><time>2026-04-20T11:38:38.975Z</time></trkpt><trkpt lat="45.50872578870056" lon="10.341266752675422"><ele>148.0</ele><time>2026-04-20T11:38:39.975Z</time></trkpt><trkpt lat="45.50858911197505" lon="10.341124287762304"><ele>147.0</ele><time>2026-04-20T11:38:40.975Z</time></trkpt><trkpt lat="45.50845441003064" lon="10.340986646915008"><ele>146.0</ele><time>2026-04-20T11:38:41.975Z</time></trkpt><trkpt lat="45.50832413929789" lon="10.340861211766509"><ele>145.0</ele><time>2026-04-20T11:38:42.975Z</time></trkpt><trkpt lat="45.508203272929045" lon="10.340746502617808"><ele>145.0</ele><time>2026-04-20T11:38:43.975Z</time></trkpt><trkpt lat="45.508085771738465" lon="10.340627586574623"><ele>145.0</ele><time>2026-04-20T11:38:44.975Z</time></trkpt><trkpt lat="45.50795432004277" lon="10.34049740394526"><ele>145.0</ele><time>2026-04-20T11:38:45.975Z</time></trkpt><trkpt lat="45.507820770998556" lon="10.340372453244125"><ele>147.0</ele><time>2026-04-20T11:38:46.975Z</time></trkpt><trkpt lat="45.5076835980826" lon="10.340255943785085"><ele>149.0</ele><time>2026-04-20T11:38:47.975Z</time></trkpt><trkpt lat="45.507553029649614" lon="10.340131142177505"><ele>151.0</ele><time>2026-04-20T11:38:48.975Z</time></trkpt><trkpt lat="45.507417090197364" lon="10.340005616880063"><ele>151.0</ele><time>2026-04-20T11:38:49.975Z</time></trkpt><trkpt lat="45.50727554466294" lon="10.339873185500505"><ele>151.0</ele><time>2026-04-20T11:38:50.975Z</time></trkpt><trkpt lat="45.50713691732225" lon="10.339739267889557"><ele>151.0</ele><time>2026-04-20T11:38:51.975Z</time></trkpt><trkpt lat="45.50699090939188" lon="10.339599646360869"><ele>149.66666666666669</ele><time>2026-04-20T11:38:52.975Z</time></trkpt><trkpt lat="45.5068391138868" lon="10.339457796507729"><ele>148.33333333333334</ele><time>2026-04-20T11:38:53.975Z</time></trkpt><trkpt lat="45.50668152109131" lon="10.339315547997712"><ele>147.0</ele><time>2026-04-20T11:38:54.975Z</time></trkpt><trkpt lat="45.50652201266508" lon="10.339161015688399"><ele>147.0</ele><time>2026-04-20T11:38:55.975Z</time></trkpt><trkpt lat="45.50635711107903" lon="10.339004505444649"><ele>147.0</ele><time>2026-04-20T11:38:56.975Z</time></trkpt><trkpt lat="45.50619975198095" lon="10.338849143857926"><ele>147.0</ele><time>2026-04-20T11:38:57.975Z</time></trkpt><trkpt lat="45.50604121768696" lon="10.33870105129797"><ele>147.33333333333334</ele><time>2026-04-20T11:38:58.975Z</time></trkpt><trkpt lat="45.505888910284504" lon="10.33855778269233"><ele>147.66666666666669</ele><time>2026-04-20T11:38:59.975Z</time></trkpt><trkpt lat="45.50574380934224" lon="10.338423924786369"><ele>148.0</ele><time>2026-04-20T11:39:00.975Z</time></trkpt><trkpt lat="45.50559810484704" lon="10.338293783732414"><ele>148.0</ele><time>2026-04-20T11:39:01.975Z</time></trkpt><trkpt lat="45.505468613926695" lon="10.338167231009521"><ele>148.0</ele><time>2026-04-20T11:39:02.975Z</time></trkpt><trkpt lat="45.50535730095615" lon="10.338049629805344"><ele>148.0</ele><time>2026-04-20T11:39:03.975Z</time></trkpt><trkpt lat="45.5052595261899" lon="10.33794720989672"><ele>148.0</ele><time>2026-04-20T11:39:04.976Z</time></trkpt><trkpt lat="45.50514932702706" lon="10.337841739376362"><ele>148.0</ele><time>2026-04-20T11:39:05.976Z</time></trkpt><trkpt lat="45.505031991521726" lon="10.337732669030533"><ele>148.0</ele><time>2026-04-20T11:39:06.975Z</time></trkpt><trkpt lat="45.50491323845867" lon="10.33761932155543"><ele>148.0</ele><time>2026-04-20T11:39:07.976Z</time></trkpt><trkpt lat="45.504800614811586" lon="10.33752654601264"><ele>148.0</ele><time>2026-04-20T11:39:08.976Z</time></trkpt><trkpt lat="45.50470432961697" lon="10.337436536643994"><ele>148.0</ele><time>2026-04-20T11:39:09.976Z</time></trkpt><trkpt lat="45.50460488012752" lon="10.337349674214138"><ele>148.0</ele><time>2026-04-20T11:39:10.975Z</time></trkpt><trkpt lat="45.50450158484258" lon="10.337259673213309"><ele>148.0</ele><time>2026-04-20T11:39:11.975Z</time></trkpt><trkpt lat="45.504398594959426" lon="10.337155173472315"><ele>148.0</ele><time>2026-04-20T11:39:12.975Z</time></trkpt><trkpt lat="45.50429775283376" lon="10.337052593879285"><ele>147.6</ele><time>2026-04-20T11:39:13.975Z</time></trkpt><trkpt lat="45.50420877481508" lon="10.33696010523932"><ele>147.20000000000002</ele><time>2026-04-20T11:39:14.975Z</time></trkpt><trkpt lat="45.50412076906597" lon="10.336872117339235"><ele>146.8</ele><time>2026-04-20T11:39:15.975Z</time></trkpt><trkpt lat="45.50403715524443" lon="10.336786090325244"><ele>146.4</ele><time>2026-04-20T11:39:16.975Z</time></trkpt><trkpt lat="45.50395524451519" lon="10.336711149174448"><ele>146.0</ele><time>2026-04-20T11:39:17.975Z</time></trkpt><trkpt lat="45.50385980925665" lon="10.33663919372628"><ele>146.0</ele><time>2026-04-20T11:39:18.975Z</time></trkpt><trkpt lat="45.50376980907392" lon="10.336559149600856"><ele>146.0</ele><time>2026-04-20T11:39:19.975Z</time></trkpt><trkpt lat="45.503667627751774" lon="10.336466035555578"><ele>146.0</ele><time>2026-04-20T11:39:20.975Z</time></trkpt><trkpt lat="45.503575628237236" lon="10.3363807129167"><ele>146.0</ele><time>2026-04-20T11:39:21.975Z</time></trkpt><trkpt lat="45.50348316230334" lon="10.336287309077495"><ele>146.0</ele><time>2026-04-20T11:39:22.975Z</time></trkpt><trkpt lat="45.50339726651034" lon="10.336202236518245"><ele>146.0</ele><time>2026-04-20T11:39:23.975Z</time></trkpt><trkpt lat="45.50331698930277" lon="10.33612451496251"><ele>146.0</ele><time>2026-04-20T11:39:24.975Z</time></trkpt><trkpt lat="45.5032306682912" lon="10.336022477203349"><ele>146.0</ele><time>2026-04-20T11:39:26.975Z</time></trkpt><trkpt lat="45.50317551435941" lon="10.335969923648038"><ele>146.0</ele><time>2026-04-20T11:39:28.975Z</time></trkpt><trkpt lat="45.503114997600115" lon="10.335920218886248"><ele>146.0</ele><time>2026-04-20T11:39:31.975Z</time></trkpt><trkpt lat="45.50305932753253" lon="10.335861044174155"><ele>146.0</ele><time>2026-04-20T11:39:35.975Z</time></trkpt><trkpt lat="45.5030069451774" lon="10.335800548157833"><ele>146.0</ele><time>2026-04-20T11:39:37.975Z</time></trkpt><trkpt lat="45.502950816661624" lon="10.335723366165949"><ele>146.0</ele><time>2026-04-20T11:39:39.975Z</time></trkpt><trkpt lat="45.50289260180145" lon="10.335670782232524"><ele>146.0</ele><time>2026-04-20T11:39:40.975Z</time></trkpt><trkpt lat="45.50282334049511" lon="10.335609181039253"><ele>146.0</ele><time>2026-04-20T11:39:41.975Z</time></trkpt><trkpt lat="45.502744418880596" lon="10.335528918486025"><ele>145.8</ele><time>2026-04-20T11:39:42.975Z</time></trkpt><trkpt lat="45.50266754764495" lon="10.335450415418938"><ele>145.6</ele><time>2026-04-20T11:39:43.975Z</time></trkpt><trkpt lat="45.50259148661423" lon="10.335371690175533"><ele>145.4</ele><time>2026-04-20T11:39:44.975Z</time></trkpt><trkpt lat="45.50250279280346" lon="10.335279733499055"><ele>145.2</ele><time>2026-04-20T11:39:45.975Z</time></trkpt><trkpt lat="45.50240933248023" lon="10.335190893786445"><ele>145.0</ele><time>2026-04-20T11:39:46.975Z</time></trkpt><trkpt lat="45.502320678319954" lon="10.335114399791621"><ele>145.0</ele><time>2026-04-20T11:39:47.975Z</time></trkpt><trkpt lat="45.5022333300421" lon="10.33504386637344"><ele>145.0</ele><time>2026-04-20T11:39:48.975Z</time></trkpt><trkpt lat="45.502167067284695" lon="10.334978857340893"><ele>145.0</ele><time>2026-04-20T11:39:49.975Z</time></trkpt><trkpt lat="45.50210167897975" lon="10.334922588986181"><ele>145.0</ele><time>2026-04-20T11:39:50.975Z</time></trkpt><trkpt lat="45.50203159544022" lon="10.334863092451606"><ele>145.0</ele><time>2026-04-20T11:39:51.975Z</time></trkpt><trkpt lat="45.50195207541352" lon="10.33479155422947"><ele>145.0</ele><time>2026-04-20T11:39:52.975Z</time></trkpt><trkpt lat="45.50187583888999" lon="10.334715455162103"><ele>144.66666666666669</ele><time>2026-04-20T11:39:53.975Z</time></trkpt><trkpt lat="45.50180587287982" lon="10.334640661058009"><ele>144.33333333333334</ele><time>2026-04-20T11:39:54.975Z</time></trkpt><trkpt lat="45.501729351965814" lon="10.334556283594651"><ele>144.0</ele><time>2026-04-20T11:39:55.975Z</time></trkpt><trkpt lat="45.501664663847286" lon="10.334485945840052"><ele>143.66666666666666</ele><time>2026-04-20T11:39:56.975Z</time></trkpt><trkpt lat="45.50159950497155" lon="10.334427190975342"><ele>143.33333333333331</ele><time>2026-04-20T11:39:57.975Z</time></trkpt><trkpt lat="45.50154169489192" lon="10.334371869160126"><ele>143.0</ele><time>2026-04-20T11:39:58.975Z</time></trkpt><trkpt lat="45.50147818740727" lon="10.334308954894592"><ele>143.0</ele><time>2026-04-20T11:39:59.975Z</time></trkpt><trkpt lat="45.50138890093783" lon="10.33421504151498"><ele>143.0</ele><time>2026-04-20T11:40:00.975Z</time></trkpt><trkpt lat="45.50129769730739" lon="10.334125585452883"><ele>143.0</ele><time>2026-04-20T11:40:01.975Z</time></trkpt><trkpt lat="45.50122722217388" lon="10.334050638790334"><ele>143.0</ele><time>2026-04-20T11:40:02.975Z</time></trkpt><trkpt lat="45.501157342852" lon="10.333969760446452"><ele>143.0</ele><time>2026-04-20T11:40:03.975Z</time></trkpt><trkpt lat="45.50109588116329" lon="10.333906529581233"><ele>143.20000000000002</ele><time>2026-04-20T11:40:04.975Z</time></trkpt><trkpt lat="45.50101080230387" lon="10.333831107478572"><ele>143.4</ele><time>2026-04-20T11:40:05.975Z</time></trkpt><trkpt lat="45.500934659297585" lon="10.333756576240814"><ele>143.60000000000002</ele><time>2026-04-20T11:40:06.975Z</time></trkpt><trkpt lat="45.50086613055221" lon="10.33368738454778"><ele>143.8</ele><time>2026-04-20T11:40:07.975Z</time></trkpt><trkpt lat="45.50078708893326" lon="10.3336150171222"><ele>144.0</ele><time>2026-04-20T11:40:08.975Z</time></trkpt><trkpt lat="45.50071467767045" lon="10.33353780778036"><ele>144.0</ele><time>2026-04-20T11:40:09.975Z</time></trkpt><trkpt lat="45.50063189762483" lon="10.333458710471582"><ele>144.0</ele><time>2026-04-20T11:40:10.975Z</time></trkpt><trkpt lat="45.50055767931543" lon="10.333369587079604"><ele>144.0</ele><time>2026-04-20T11:40:11.975Z</time></trkpt><trkpt lat="45.500477201403775" lon="10.33327664432565"><ele>144.0</ele><time>2026-04-20T11:40:12.975Z</time></trkpt><trkpt lat="45.50040739932099" lon="10.333192723363627"><ele>144.0</ele><time>2026-04-20T11:40:13.975Z</time></trkpt><trkpt lat="45.50034049717498" lon="10.333114841341983"><ele>144.0</ele><time>2026-04-20T11:40:14.975Z</time></trkpt><trkpt lat="45.500274434222845" lon="10.333029991037595"><ele>144.0</ele><time>2026-04-20T11:40:15.975Z</time></trkpt><trkpt lat="45.50020534458268" lon="10.332943108570538"><ele>144.0</ele><time>2026-04-20T11:40:16.975Z</time></trkpt><trkpt lat="45.500134120292536" lon="10.332853388635435"><ele>144.0</ele><time>2026-04-20T11:40:17.975Z</time></trkpt><trkpt lat="45.500056375078486" lon="10.33276283987901"><ele>144.0</ele><time>2026-04-20T11:40:18.975Z</time></trkpt><trkpt lat="45.49996671568485" lon="10.332669193583047"><ele>144.0</ele><time>2026-04-20T11:40:19.975Z</time></trkpt><trkpt lat="45.49988549317156" lon="10.332568286993178"><ele>144.0</ele><time>2026-04-20T11:40:20.975Z</time></trkpt><trkpt lat="45.49980733678758" lon="10.332474930078597"><ele>144.0</ele><time>2026-04-20T11:40:21.975Z</time></trkpt><trkpt lat="45.49972852791836" lon="10.33238081926681"><ele>144.0</ele><time>2026-04-20T11:40:22.975Z</time></trkpt><trkpt lat="45.499647821465125" lon="10.332273976864244"><ele>144.0</ele><time>2026-04-20T11:40:23.975Z</time></trkpt><trkpt lat="45.49956999486162" lon="10.332178780014429"><ele>143.75</ele><time>2026-04-20T11:40:24.975Z</time></trkpt><trkpt lat="45.49948566016432" lon="10.33208064336194"><ele>143.5</ele><time>2026-04-20T11:40:25.975Z</time></trkpt><trkpt lat="45.499394886428355" lon="10.331968049668264"><ele>143.25</ele><time>2026-04-20T11:40:26.975Z</time></trkpt><trkpt lat="45.499309285719825" lon="10.331865317861316"><ele>143.0</ele><time>2026-04-20T11:40:27.975Z</time></trkpt><trkpt lat="45.49921881876153" lon="10.331753583104131"><ele>143.0</ele><time>2026-04-20T11:40:28.975Z</time></trkpt><trkpt lat="45.49912913237532" lon="10.331653111216207"><ele>143.0</ele><time>2026-04-20T11:40:29.975Z</time></trkpt><trkpt lat="45.49904703656762" lon="10.331560572468023"><ele>143.0</ele><time>2026-04-20T11:40:30.975Z</time></trkpt><trkpt lat="45.498961133329246" lon="10.33146162172998"><ele>143.0</ele><time>2026-04-20T11:40:31.975Z</time></trkpt><trkpt lat="45.49886469027401" lon="10.331357208356486"><ele>142.75</ele><time>2026-04-20T11:40:32.975Z</time></trkpt><trkpt lat="45.498777123717524" lon="10.331252285719563"><ele>142.5</ele><time>2026-04-20T11:40:33.975Z</time></trkpt><trkpt lat="45.498689305519456" lon="10.33114621255454"><ele>142.25</ele><time>2026-04-20T11:40:34.975Z</time></trkpt><trkpt lat="45.49859751193525" lon="10.331032213852556"><ele>142.0</ele><time>2026-04-20T11:40:35.975Z</time></trkpt><trkpt lat="45.498523301516215" lon="10.33089192152902"><ele>141.75</ele><time>2026-04-20T11:40:36.975Z</time></trkpt><trkpt lat="45.4984314145537" lon="10.330779177678373"><ele>141.5</ele><time>2026-04-20T11:40:37.975Z</time></trkpt><trkpt lat="45.49834062876039" lon="10.330668321465666"><ele>141.25</ele><time>2026-04-20T11:40:38.975Z</time></trkpt><trkpt lat="45.498234581567424" lon="10.330569473271998"><ele>141.0</ele><time>2026-04-20T11:40:39.975Z</time></trkpt><trkpt lat="45.49815501582028" lon="10.330439555655841"><ele>141.0</ele><time>2026-04-20T11:40:40.975Z</time></trkpt><trkpt lat="45.498060933514274" lon="10.330318205641703"><ele>141.0</ele><time>2026-04-20T11:40:41.975Z</time></trkpt><trkpt lat="45.49796217184332" lon="10.330196791973277"><ele>141.0</ele><time>2026-04-20T11:40:42.975Z</time></trkpt><trkpt lat="45.49785445981971" lon="10.330071015050708"><ele>141.0</ele><time>2026-04-20T11:40:43.975Z</time></trkpt><trkpt lat="45.497745235924285" lon="10.329937502092204"><ele>141.0</ele><time>2026-04-20T11:40:44.975Z</time></trkpt><trkpt lat="45.49763365129205" lon="10.329791074477695"><ele>141.0</ele><time>2026-04-20T11:40:45.975Z</time></trkpt><trkpt lat="45.49753156354674" lon="10.3296496604294"><ele>141.0</ele><time>2026-04-20T11:40:46.975Z</time></trkpt><trkpt lat="45.49743872321566" lon="10.329510968607973"><ele>141.0</ele><time>2026-04-20T11:40:47.975Z</time></trkpt><trkpt lat="45.49734741457517" lon="10.32936618938336"><ele>141.0</ele><time>2026-04-20T11:40:48.975Z</time></trkpt><trkpt lat="45.49725710262758" lon="10.329212692627644"><ele>141.0</ele><time>2026-04-20T11:40:49.975Z</time></trkpt><trkpt lat="45.49717782312436" lon="10.329036436469309"><ele>141.0</ele><time>2026-04-20T11:40:50.975Z</time></trkpt><trkpt lat="45.497084346384895" lon="10.3288581667833"><ele>141.0</ele><time>2026-04-20T11:40:51.975Z</time></trkpt><trkpt lat="45.49699545466639" lon="10.328669555773343"><ele>142.0</ele><time>2026-04-20T11:40:52.975Z</time></trkpt><trkpt lat="45.496908411136715" lon="10.328469268547686"><ele>143.0</ele><time>2026-04-20T11:40:53.975Z</time></trkpt><trkpt lat="45.496823535035105" lon="10.328256101625469"><ele>144.0</ele><time>2026-04-20T11:40:54.975Z</time></trkpt><trkpt lat="45.49674515653676" lon="10.328044417833627"><ele>144.0</ele><time>2026-04-20T11:40:55.975Z</time></trkpt><trkpt lat="45.496670223025156" lon="10.327811641664608"><ele>144.0</ele><time>2026-04-20T11:40:56.975Z</time></trkpt><trkpt lat="45.49659703307138" lon="10.327572061778872"><ele>144.0</ele><time>2026-04-20T11:40:57.975Z</time></trkpt><trkpt lat="45.4965395070937" lon="10.327339747542482"><ele>143.33333333333334</ele><time>2026-04-20T11:40:58.975Z</time></trkpt><trkpt lat="45.49648520366307" lon="10.3271044620347"><ele>142.66666666666669</ele><time>2026-04-20T11:40:59.975Z</time></trkpt><trkpt lat="45.49643773125542" lon="10.326861422542517"><ele>142.0</ele><time>2026-04-20T11:41:00.975Z</time></trkpt><trkpt lat="45.496394271300694" lon="10.326618861838824"><ele>142.0</ele><time>2026-04-20T11:41:01.975Z</time></trkpt><trkpt lat="45.49635930481238" lon="10.326369849951192"><ele>142.0</ele><time>2026-04-20T11:41:02.975Z</time></trkpt><trkpt lat="45.49633149668373" lon="10.3261321356344"><ele>142.0</ele><time>2026-04-20T11:41:03.975Z</time></trkpt><trkpt lat="45.496308372113674" lon="10.325879751527244"><ele>142.0</ele><time>2026-04-20T11:41:04.975Z</time></trkpt><trkpt lat="45.49629589493071" lon="10.325624229243978"><ele>142.0</ele><time>2026-04-20T11:41:05.975Z</time></trkpt><trkpt lat="45.496289526811985" lon="10.325364332860902"><ele>142.0</ele><time>2026-04-20T11:41:06.975Z</time></trkpt><trkpt lat="45.496288645014445" lon="10.32509845207591"><ele>142.0</ele><time>2026-04-20T11:41:07.975Z</time></trkpt><trkpt lat="45.49629134805793" lon="10.324834012136382"><ele>142.0</ele><time>2026-04-20T11:41:08.975Z</time></trkpt><trkpt lat="45.4962955019482" lon="10.324562400034807"><ele>142.0</ele><time>2026-04-20T11:41:09.975Z</time></trkpt><trkpt lat="45.496299734100226" lon="10.324285669860298"><ele>142.33333333333334</ele><time>2026-04-20T11:41:10.976Z</time></trkpt><trkpt lat="45.49630372304414" lon="10.324024842755328"><ele>142.66666666666666</ele><time>2026-04-20T11:41:11.976Z</time></trkpt><trkpt lat="45.49629164833016" lon="10.323786722512853"><ele>143.0</ele><time>2026-04-20T11:41:12.976Z</time></trkpt><trkpt lat="45.49629570584667" lon="10.323535009967749"><ele>143.33333333333331</ele><time>2026-04-20T11:41:13.975Z</time></trkpt><trkpt lat="45.49632216455587" lon="10.323286076978018"><ele>143.66666666666666</ele><time>2026-04-20T11:41:14.975Z</time></trkpt><trkpt lat="45.496329948764526" lon="10.323014741971722"><ele>144.0</ele><time>2026-04-20T11:41:15.975Z</time></trkpt><trkpt lat="45.49634218888693" lon="10.322740247677103"><ele>143.0</ele><time>2026-04-20T11:41:16.976Z</time></trkpt><trkpt lat="45.496350212224094" lon="10.322455329999354"><ele>142.0</ele><time>2026-04-20T11:41:17.976Z</time></trkpt><trkpt lat="45.49635488867631" lon="10.322158686492585"><ele>141.0</ele><time>2026-04-20T11:41:18.976Z</time></trkpt><trkpt lat="45.49636338455399" lon="10.321857032300178"><ele>140.5</ele><time>2026-04-20T11:41:19.976Z</time></trkpt><trkpt lat="45.49637478284689" lon="10.321521520101667"><ele>140.0</ele><time>2026-04-20T11:41:20.976Z</time></trkpt><trkpt lat="45.496390528455464" lon="10.321174529798055"><ele>140.0</ele><time>2026-04-20T11:41:21.976Z</time></trkpt><trkpt lat="45.496413279664566" lon="10.320809113508465"><ele>140.0</ele><time>2026-04-20T11:41:22.976Z</time></trkpt><trkpt lat="45.496436962536684" lon="10.320427571772536"><ele>140.0</ele><time>2026-04-20T11:41:23.976Z</time></trkpt><trkpt lat="45.49646117119129" lon="10.320034883001771"><ele>140.0</ele><time>2026-04-20T11:41:24.976Z</time></trkpt><trkpt lat="45.49649620208644" lon="10.319650258418644"><ele>140.0</ele><time>2026-04-20T11:41:25.976Z</time></trkpt><trkpt lat="45.496525893301005" lon="10.319264858249282"><ele>140.0</ele><time>2026-04-20T11:41:26.976Z</time></trkpt><trkpt lat="45.49655939175275" lon="10.318907166114519"><ele>140.0</ele><time>2026-04-20T11:41:27.976Z</time></trkpt><trkpt lat="45.49658480167554" lon="10.318569915840541"><ele>140.0</ele><time>2026-04-20T11:41:28.976Z</time></trkpt><trkpt lat="45.49662032495846" lon="10.318258996189476"><ele>138.5</ele><time>2026-04-20T11:41:29.976Z</time></trkpt><trkpt lat="45.496655412227646" lon="10.317937065327829"><ele>137.0</ele><time>2026-04-20T11:41:30.976Z</time></trkpt><trkpt lat="45.4966950928908" lon="10.317619637431378"><ele>137.0</ele><time>2026-04-20T11:41:31.976Z</time></trkpt><trkpt lat="45.4967349672425" lon="10.31729490058559"><ele>137.0</ele><time>2026-04-20T11:41:32.976Z</time></trkpt><trkpt lat="45.49677861737132" lon="10.316969322834044"><ele>137.0</ele><time>2026-04-20T11:41:33.976Z</time></trkpt><trkpt lat="45.49681454224162" lon="10.316669917625864"><ele>137.0</ele><time>2026-04-20T11:41:34.976Z</time></trkpt><trkpt lat="45.49685011092726" lon="10.316419811451794"><ele>137.0</ele><time>2026-04-20T11:41:35.976Z</time></trkpt><trkpt lat="45.49687926441748" lon="10.31616856035053"><ele>137.0</ele><time>2026-04-20T11:41:36.976Z</time></trkpt><trkpt lat="45.49692567987825" lon="10.315939442936905"><ele>137.0</ele><time>2026-04-20T11:41:37.976Z</time></trkpt><trkpt lat="45.49695229773446" lon="10.315663385477173"><ele>137.0</ele><time>2026-04-20T11:41:38.976Z</time></trkpt><trkpt lat="45.49698340752308" lon="10.315384660069483"><ele>137.66666666666666</ele><time>2026-04-20T11:41:39.976Z</time></trkpt><trkpt lat="45.49701030644142" lon="10.31508256372321"><ele>138.33333333333334</ele><time>2026-04-20T11:41:40.976Z</time></trkpt><trkpt lat="45.497035722494815" lon="10.314759649456693"><ele>139.0</ele><time>2026-04-20T11:41:41.976Z</time></trkpt><trkpt lat="45.49707337547887" lon="10.314430143114667"><ele>139.0</ele><time>2026-04-20T11:41:42.976Z</time></trkpt><trkpt lat="45.497112361221134" lon="10.31410424885314"><ele>139.0</ele><time>2026-04-20T11:41:43.976Z</time></trkpt><trkpt lat="45.497151617796085" lon="10.313773721287529"><ele>139.0</ele><time>2026-04-20T11:41:44.976Z</time></trkpt><trkpt lat="45.497191230578956" lon="10.313443674318792"><ele>139.0</ele><time>2026-04-20T11:41:45.976Z</time></trkpt><trkpt lat="45.49723309380524" lon="10.313133506789539"><ele>138.5</ele><time>2026-04-20T11:41:46.976Z</time></trkpt><trkpt lat="45.49727212183622" lon="10.312823501220363"><ele>138.0</ele><time>2026-04-20T11:41:47.976Z</time></trkpt><trkpt lat="45.49730913300251" lon="10.312494248831888"><ele>138.0</ele><time>2026-04-20T11:41:48.976Z</time></trkpt><trkpt lat="45.49734831614334" lon="10.312162594056346"><ele>138.0</ele><time>2026-04-20T11:41:49.976Z</time></trkpt><trkpt lat="45.49739297355202" lon="10.311835363166876"><ele>138.0</ele><time>2026-04-20T11:41:50.976Z</time></trkpt><trkpt lat="45.49743363549776" lon="10.311505787268434"><ele>138.0</ele><time>2026-04-20T11:41:51.976Z</time></trkpt><trkpt lat="45.49747196437874" lon="10.311177451135158"><ele>138.0</ele><time>2026-04-20T11:41:52.976Z</time></trkpt><trkpt lat="45.49751111752815" lon="10.310859464428235"><ele>138.0</ele><time>2026-04-20T11:41:53.976Z</time></trkpt><trkpt lat="45.49755519450698" lon="10.31053970239399"><ele>137.0</ele><time>2026-04-20T11:41:54.976Z</time></trkpt><trkpt lat="45.497597898239" lon="10.310211761561797"><ele>136.0</ele><time>2026-04-20T11:41:55.976Z</time></trkpt><trkpt lat="45.49764252429642" lon="10.309886396070487"><ele>137.0</ele><time>2026-04-20T11:41:56.976Z</time></trkpt><trkpt lat="45.497684360261836" lon="10.309554598860887"><ele>138.0</ele><time>2026-04-20T11:41:57.975Z</time></trkpt><trkpt lat="45.49772559935189" lon="10.309216014677844"><ele>138.5</ele><time>2026-04-20T11:41:58.975Z</time></trkpt><trkpt lat="45.49776867966616" lon="10.308884718565217"><ele>139.0</ele><time>2026-04-20T11:41:59.975Z</time></trkpt><trkpt lat="45.497813485026086" lon="10.30854878322887"><ele>139.0</ele><time>2026-04-20T11:42:00.975Z</time></trkpt><trkpt lat="45.49786072469681" lon="10.308220665738267"><ele>139.0</ele><time>2026-04-20T11:42:01.975Z</time></trkpt><trkpt lat="45.497910126214656" lon="10.307896723455325"><ele>138.5</ele><time>2026-04-20T11:42:02.975Z</time></trkpt><trkpt lat="45.49795493055717" lon="10.307570920610097"><ele>138.0</ele><time>2026-04-20T11:42:03.975Z</time></trkpt><trkpt lat="45.497995243311635" lon="10.30724969342846"><ele>138.33333333333334</ele><time>2026-04-20T11:42:04.975Z</time></trkpt><trkpt lat="45.498035312717214" lon="10.30693333351797"><ele>138.66666666666669</ele><time>2026-04-20T11:42:05.975Z</time></trkpt><trkpt lat="45.49807773863061" lon="10.30662096622386"><ele>139.0</ele><time>2026-04-20T11:42:06.975Z</time></trkpt><trkpt lat="45.49812149279203" lon="10.306312633854944"><ele>138.33333333333334</ele><time>2026-04-20T11:42:07.974Z</time></trkpt><trkpt lat="45.49816039263503" lon="10.306002131838731"><ele>137.66666666666666</ele><time>2026-04-20T11:42:08.974Z</time></trkpt><trkpt lat="45.498196845816025" lon="10.305689071039449"><ele>137.0</ele><time>2026-04-20T11:42:09.974Z</time></trkpt><trkpt lat="45.49823294877143" lon="10.305368456034056"><ele>137.33333333333331</ele><time>2026-04-20T11:42:10.974Z</time></trkpt><trkpt lat="45.498274191782976" lon="10.305066544116645"><ele>137.66666666666666</ele><time>2026-04-20T11:42:11.974Z</time></trkpt><trkpt lat="45.49831092785425" lon="10.304784504934565"><ele>138.0</ele><time>2026-04-20T11:42:12.974Z</time></trkpt><trkpt lat="45.498346381052436" lon="10.304498095469247"><ele>138.0</ele><time>2026-04-20T11:42:13.974Z</time></trkpt><trkpt lat="45.49839107189991" lon="10.304216369566884"><ele>138.0</ele><time>2026-04-20T11:42:14.974Z</time></trkpt><trkpt lat="45.49842694488078" lon="10.303924393769535"><ele>138.0</ele><time>2026-04-20T11:42:15.974Z</time></trkpt><trkpt lat="45.49846088026867" lon="10.303627259630472"><ele>138.0</ele><time>2026-04-20T11:42:16.974Z</time></trkpt><trkpt lat="45.498497226579175" lon="10.303328105861132"><ele>138.0</ele><time>2026-04-20T11:42:17.974Z</time></trkpt><trkpt lat="45.49853767279729" lon="10.30303833133523"><ele>138.0</ele><time>2026-04-20T11:42:18.974Z</time></trkpt><trkpt lat="45.49856775974453" lon="10.302728596654978"><ele>137.33333333333334</ele><time>2026-04-20T11:42:19.974Z</time></trkpt><trkpt lat="45.4986035313275" lon="10.302412865358141"><ele>136.66666666666669</ele><time>2026-04-20T11:42:20.974Z</time></trkpt><trkpt lat="45.49864324377766" lon="10.302099498302116"><ele>136.0</ele><time>2026-04-20T11:42:21.974Z</time></trkpt><trkpt lat="45.49868011723362" lon="10.301774908899318"><ele>135.5</ele><time>2026-04-20T11:42:22.974Z</time></trkpt><trkpt lat="45.498720591714516" lon="10.301449661726013"><ele>135.0</ele><time>2026-04-20T11:42:23.974Z</time></trkpt><trkpt lat="45.498761461141385" lon="10.301129331593772"><ele>135.0</ele><time>2026-04-20T11:42:24.974Z</time></trkpt><trkpt lat="45.49880294665187" lon="10.300808838280037"><ele>135.0</ele><time>2026-04-20T11:42:25.974Z</time></trkpt><trkpt lat="45.49883539980187" lon="10.30049150766939"><ele>135.0</ele><time>2026-04-20T11:42:26.974Z</time></trkpt><trkpt lat="45.49886726945671" lon="10.300177722246016"><ele>135.0</ele><time>2026-04-20T11:42:27.974Z</time></trkpt><trkpt lat="45.49890580274082" lon="10.29987270795009"><ele>135.0</ele><time>2026-04-20T11:42:28.974Z</time></trkpt><trkpt lat="45.498945220994464" lon="10.29955075721082"><ele>136.0</ele><time>2026-04-20T11:42:29.974Z</time></trkpt><trkpt lat="45.49898372997732" lon="10.299233828674463"><ele>137.0</ele><time>2026-04-20T11:42:30.974Z</time></trkpt><trkpt lat="45.4990263707931" lon="10.298914805413277"><ele>137.0</ele><time>2026-04-20T11:42:31.974Z</time></trkpt><trkpt lat="45.49906495070569" lon="10.29858314964376"><ele>137.0</ele><time>2026-04-20T11:42:32.974Z</time></trkpt><trkpt lat="45.49910372119709" lon="10.298253995317417"><ele>136.0</ele><time>2026-04-20T11:42:33.974Z</time></trkpt><trkpt lat="45.49914510889532" lon="10.29793848499893"><ele>135.0</ele><time>2026-04-20T11:42:34.974Z</time></trkpt><trkpt lat="45.49919215238571" lon="10.297622457183234"><ele>136.0</ele><time>2026-04-20T11:42:35.974Z</time></trkpt><trkpt lat="45.49927159815659" lon="10.29698862527936"><ele>136.0</ele><time>2026-04-20T11:42:37.974Z</time></trkpt><trkpt lat="45.499312812576825" lon="10.296676757936185"><ele>136.0</ele><time>2026-04-20T11:42:38.973Z</time></trkpt><trkpt lat="45.49934809232728" lon="10.296370830317342"><ele>136.0</ele><time>2026-04-20T11:42:39.973Z</time></trkpt><trkpt lat="45.499385225012695" lon="10.296069856825728"><ele>136.0</ele><time>2026-04-20T11:42:40.973Z</time></trkpt><trkpt lat="45.4994220032124" lon="10.295780220085446"><ele>136.0</ele><time>2026-04-20T11:42:41.973Z</time></trkpt><trkpt lat="45.49946000468721" lon="10.295483574550163"><ele>136.0</ele><time>2026-04-20T11:42:42.973Z</time></trkpt><trkpt lat="45.49949978459395" lon="10.295181195696117"><ele>136.0</ele><time>2026-04-20T11:42:43.973Z</time></trkpt><trkpt lat="45.49953945684399" lon="10.29487887267789"><ele>136.0</ele><time>2026-04-20T11:42:44.973Z</time></trkpt><trkpt lat="45.49957999447629" lon="10.29457238967245"><ele>136.0</ele><time>2026-04-20T11:42:45.973Z</time></trkpt><trkpt lat="45.49961613552751" lon="10.294263615080341"><ele>136.0</ele><time>2026-04-20T11:42:46.973Z</time></trkpt><trkpt lat="45.4996508197212" lon="10.293958758997405"><ele>136.0</ele><time>2026-04-20T11:42:47.973Z</time></trkpt><trkpt lat="45.499688947528746" lon="10.293654625585026"><ele>136.0</ele><time>2026-04-20T11:42:48.973Z</time></trkpt><trkpt lat="45.49972953813753" lon="10.293341812726963"><ele>136.66666666666669</ele><time>2026-04-20T11:42:49.973Z</time></trkpt><trkpt lat="45.499762154088" lon="10.293034370173318"><ele>137.33333333333334</ele><time>2026-04-20T11:42:50.973Z</time></trkpt><trkpt lat="45.499798891648624" lon="10.29273191512012"><ele>138.0</ele><time>2026-04-20T11:42:51.973Z</time></trkpt><trkpt lat="45.499840003837235" lon="10.292424431513718"><ele>137.33333333333334</ele><time>2026-04-20T11:42:52.973Z</time></trkpt><trkpt lat="45.4998886625654" lon="10.292115872158034"><ele>136.66666666666669</ele><time>2026-04-20T11:42:53.973Z</time></trkpt><trkpt lat="45.49992397298634" lon="10.291802985018876"><ele>136.0</ele><time>2026-04-20T11:42:54.973Z</time></trkpt><trkpt lat="45.499964182244426" lon="10.291499104562712"><ele>135.66666666666669</ele><time>2026-04-20T11:42:55.973Z</time></trkpt><trkpt lat="45.49999995347909" lon="10.291196597628264"><ele>135.33333333333334</ele><time>2026-04-20T11:42:56.973Z</time></trkpt><trkpt lat="45.500033185271974" lon="10.290885801041743"><ele>135.0</ele><time>2026-04-20T11:42:57.973Z</time></trkpt><trkpt lat="45.50007290286977" lon="10.290566599055673"><ele>134.66666666666666</ele><time>2026-04-20T11:42:58.973Z</time></trkpt><trkpt lat="45.50011337314267" lon="10.290262534491314"><ele>134.33333333333331</ele><time>2026-04-20T11:42:59.973Z</time></trkpt><trkpt lat="45.500153813754146" lon="10.289965174557077"><ele>134.0</ele><time>2026-04-20T11:43:00.973Z</time></trkpt><trkpt lat="45.50019425187468" lon="10.289650596349137"><ele>133.66666666666666</ele><time>2026-04-20T11:43:01.973Z</time></trkpt><trkpt lat="45.50023741018635" lon="10.289347348342343"><ele>133.33333333333334</ele><time>2026-04-20T11:43:02.973Z</time></trkpt><trkpt lat="45.50027634920019" lon="10.28904399092838"><ele>133.0</ele><time>2026-04-20T11:43:03.973Z</time></trkpt><trkpt lat="45.500313940050646" lon="10.288725110546254"><ele>133.0</ele><time>2026-04-20T11:43:04.973Z</time></trkpt><trkpt lat="45.500354645663656" lon="10.288415741970862"><ele>133.0</ele><time>2026-04-20T11:43:05.973Z</time></trkpt><trkpt lat="45.50039227310681" lon="10.288098971474144"><ele>133.0</ele><time>2026-04-20T11:43:06.973Z</time></trkpt><trkpt lat="45.50043219317311" lon="10.287785681826472"><ele>133.0</ele><time>2026-04-20T11:43:07.973Z</time></trkpt><trkpt lat="45.50046643095182" lon="10.287470745707795"><ele>133.0</ele><time>2026-04-20T11:43:08.973Z</time></trkpt><trkpt lat="45.50050647595153" lon="10.287157886875928"><ele>133.0</ele><time>2026-04-20T11:43:09.973Z</time></trkpt><trkpt lat="45.5005456473317" lon="10.286844938087297"><ele>133.0</ele><time>2026-04-20T11:43:10.973Z</time></trkpt><trkpt lat="45.500583839123095" lon="10.286531884352575"><ele>133.0</ele><time>2026-04-20T11:43:11.973Z</time></trkpt><trkpt lat="45.50062680854911" lon="10.286214209739132"><ele>133.0</ele><time>2026-04-20T11:43:12.973Z</time></trkpt><trkpt lat="45.50066728655395" lon="10.285891301196195"><ele>132.33333333333334</ele><time>2026-04-20T11:43:13.973Z</time></trkpt><trkpt lat="45.50070584059987" lon="10.285576199481225"><ele>131.66666666666666</ele><time>2026-04-20T11:43:14.973Z</time></trkpt><trkpt lat="45.50074839586465" lon="10.285267522679744"><ele>131.0</ele><time>2026-04-20T11:43:15.974Z</time></trkpt><trkpt lat="45.500786966108684" lon="10.284937959342098"><ele>131.0</ele><time>2026-04-20T11:43:16.973Z</time></trkpt><trkpt lat="45.50082858844487" lon="10.284628831213153"><ele>131.0</ele><time>2026-04-20T11:43:17.973Z</time></trkpt><trkpt lat="45.50087357782162" lon="10.284312059388839"><ele>131.0</ele><time>2026-04-20T11:43:18.973Z</time></trkpt><trkpt lat="45.50091473930741" lon="10.283991180681783"><ele>131.0</ele><time>2026-04-20T11:43:19.973Z</time></trkpt><trkpt lat="45.50095691535358" lon="10.283668670767593"><ele>131.0</ele><time>2026-04-20T11:43:20.973Z</time></trkpt><trkpt lat="45.50099756499831" lon="10.283356721971552"><ele>130.33333333333331</ele><time>2026-04-20T11:43:21.973Z</time></trkpt><trkpt lat="45.50104280577298" lon="10.283052532099713"><ele>129.66666666666666</ele><time>2026-04-20T11:43:22.973Z</time></trkpt><trkpt lat="45.50108104485261" lon="10.282743402889121"><ele>129.0</ele><time>2026-04-20T11:43:23.973Z</time></trkpt><trkpt lat="45.501263844600345" lon="10.282453310967801"><ele>129.0</ele><time>2026-04-20T11:43:24.973Z</time></trkpt><trkpt lat="45.50130675869989" lon="10.282145668907997"><ele>129.0</ele><time>2026-04-20T11:43:25.973Z</time></trkpt><trkpt lat="45.501354993719566" lon="10.281822262283287"><ele>129.0</ele><time>2026-04-20T11:43:26.973Z</time></trkpt><trkpt lat="45.50138950399948" lon="10.281507658396556"><ele>129.0</ele><time>2026-04-20T11:43:27.973Z</time></trkpt><trkpt lat="45.501417622983716" lon="10.28118692648031"><ele>129.0</ele><time>2026-04-20T11:43:28.973Z</time></trkpt><trkpt lat="45.5014391980974" lon="10.28087267259599"><ele>129.0</ele><time>2026-04-20T11:43:29.973Z</time></trkpt><trkpt lat="45.501459495613595" lon="10.280566953362117"><ele>129.0</ele><time>2026-04-20T11:43:30.973Z</time></trkpt><trkpt lat="45.50147924779531" lon="10.28026879310486"><ele>129.33333333333334</ele><time>2026-04-20T11:43:31.973Z</time></trkpt><trkpt lat="45.501496918280985" lon="10.279972448211437"><ele>129.66666666666669</ele><time>2026-04-20T11:43:32.973Z</time></trkpt><trkpt lat="45.501505867475124" lon="10.27966388277455"><ele>130.0</ele><time>2026-04-20T11:43:33.973Z</time></trkpt><trkpt lat="45.501526497314714" lon="10.279392816740195"><ele>130.33333333333334</ele><time>2026-04-20T11:43:34.973Z</time></trkpt><trkpt lat="45.50160809604773" lon="10.27926984806356"><ele>130.66666666666666</ele><time>2026-04-20T11:43:35.973Z</time></trkpt><trkpt lat="45.50168005908719" lon="10.278954994640337"><ele>131.0</ele><time>2026-04-20T11:43:36.973Z</time></trkpt><trkpt lat="45.50122564383502" lon="10.278633570890701"><ele>129.5</ele><time>2026-04-20T11:43:37.973Z</time></trkpt><trkpt lat="45.50129766659449" lon="10.278117646389562"><ele>128.0</ele><time>2026-04-20T11:43:38.973Z</time></trkpt><trkpt lat="45.50128478630171" lon="10.277814847898513"><ele>128.0</ele><time>2026-04-20T11:43:39.973Z</time></trkpt><trkpt lat="45.50126619358409" lon="10.277532386816485"><ele>128.0</ele><time>2026-04-20T11:43:40.973Z</time></trkpt><trkpt lat="45.50124767794468" lon="10.277236152575977"><ele>128.0</ele><time>2026-04-20T11:43:41.973Z</time></trkpt><trkpt lat="45.50123845305923" lon="10.276940836715001"><ele>128.66666666666666</ele><time>2026-04-20T11:43:42.973Z</time></trkpt><trkpt lat="45.501224307842385" lon="10.276646976872788"><ele>129.33333333333334</ele><time>2026-04-20T11:43:43.973Z</time></trkpt><trkpt lat="45.50121064471841" lon="10.27636266792415"><ele>130.0</ele><time>2026-04-20T11:43:44.973Z</time></trkpt><trkpt lat="45.5011880260488" lon="10.276059153261048"><ele>130.0</ele><time>2026-04-20T11:43:45.973Z</time></trkpt><trkpt lat="45.50117181765626" lon="10.275753010483706"><ele>130.0</ele><time>2026-04-20T11:43:46.973Z</time></trkpt><trkpt lat="45.50115797409616" lon="10.275450366155106"><ele>130.0</ele><time>2026-04-20T11:43:47.973Z</time></trkpt><trkpt lat="45.50114470236626" lon="10.275149769659091"><ele>129.33333333333334</ele><time>2026-04-20T11:43:48.973Z</time></trkpt><trkpt lat="45.50113468824916" lon="10.27485217276571"><ele>128.66666666666666</ele><time>2026-04-20T11:43:49.973Z</time></trkpt><trkpt lat="45.50112109299923" lon="10.27456533168063"><ele>128.0</ele><time>2026-04-20T11:43:50.973Z</time></trkpt><trkpt lat="45.50110378095162" lon="10.274269705412122"><ele>128.0</ele><time>2026-04-20T11:43:51.973Z</time></trkpt><trkpt lat="45.50108803117335" lon="10.273972729354549"><ele>128.0</ele><time>2026-04-20T11:43:52.973Z</time></trkpt><trkpt lat="45.50107540119742" lon="10.273670838687197"><ele>128.0</ele><time>2026-04-20T11:43:53.973Z</time></trkpt><trkpt lat="45.50105341237479" lon="10.273363786994942"><ele>128.33333333333331</ele><time>2026-04-20T11:43:54.973Z</time></trkpt><trkpt lat="45.50104005792517" lon="10.273053262160374"><ele>128.66666666666666</ele><time>2026-04-20T11:43:55.973Z</time></trkpt><trkpt lat="45.5010234230387" lon="10.272747220956637"><ele>129.0</ele><time>2026-04-20T11:43:56.973Z</time></trkpt><trkpt lat="45.501004383315504" lon="10.272451888611108"><ele>129.33333333333334</ele><time>2026-04-20T11:43:57.973Z</time></trkpt><trkpt lat="45.50098646860232" lon="10.272170235710995"><ele>129.66666666666669</ele><time>2026-04-20T11:43:58.973Z</time></trkpt><trkpt lat="45.500971813245414" lon="10.27187893126804"><ele>130.0</ele><time>2026-04-20T11:43:59.973Z</time></trkpt><trkpt lat="45.50095602885577" lon="10.271573502338676"><ele>129.0</ele><time>2026-04-20T11:44:00.973Z</time></trkpt><trkpt lat="45.500941009601455" lon="10.271265124798413"><ele>128.0</ele><time>2026-04-20T11:44:01.973Z</time></trkpt><trkpt lat="45.50092471134511" lon="10.27096776565745"><ele>127.0</ele><time>2026-04-20T11:44:02.973Z</time></trkpt><trkpt lat="45.50090917110677" lon="10.270676586457402"><ele>127.0</ele><time>2026-04-20T11:44:03.973Z</time></trkpt><trkpt lat="45.500897789418254" lon="10.270379888799194"><ele>127.0</ele><time>2026-04-20T11:44:04.973Z</time></trkpt><trkpt lat="45.50088373535054" lon="10.270086808317595"><ele>127.0</ele><time>2026-04-20T11:44:05.973Z</time></trkpt><trkpt lat="45.50086731724657" lon="10.269804623602772"><ele>126.66666666666667</ele><time>2026-04-20T11:44:06.973Z</time></trkpt><trkpt lat="45.500852493652665" lon="10.269528658262418"><ele>126.33333333333334</ele><time>2026-04-20T11:44:07.973Z</time></trkpt><trkpt lat="45.50083796470408" lon="10.269245569011927"><ele>126.0</ele><time>2026-04-20T11:44:08.973Z</time></trkpt><trkpt lat="45.500818367201504" lon="10.268944900542616"><ele>125.33333333333334</ele><time>2026-04-20T11:44:09.973Z</time></trkpt><trkpt lat="45.50080513994693" lon="10.268638525364684"><ele>124.66666666666667</ele><time>2026-04-20T11:44:10.973Z</time></trkpt><trkpt lat="45.50079043318376" lon="10.268327328484215"><ele>124.0</ele><time>2026-04-20T11:44:11.973Z</time></trkpt><trkpt lat="45.50077614138895" lon="10.268021446357944"><ele>123.66666666666667</ele><time>2026-04-20T11:44:12.973Z</time></trkpt><trkpt lat="45.500768359182416" lon="10.267725545090732"><ele>123.33333333333334</ele><time>2026-04-20T11:44:13.973Z</time></trkpt><trkpt lat="45.500752947116375" lon="10.267426975729876"><ele>123.0</ele><time>2026-04-20T11:44:14.973Z</time></trkpt><trkpt lat="45.50074871588657" lon="10.267120529806524"><ele>123.0</ele><time>2026-04-20T11:44:15.973Z</time></trkpt><trkpt lat="45.50074839841304" lon="10.266805005077337"><ele>123.0</ele><time>2026-04-20T11:44:16.973Z</time></trkpt><trkpt lat="45.500757104929804" lon="10.266489613636944"><ele>123.0</ele><time>2026-04-20T11:44:17.973Z</time></trkpt><trkpt lat="45.500767472086" lon="10.266184753916335"><ele>122.66666666666666</ele><time>2026-04-20T11:44:18.973Z</time></trkpt><trkpt lat="45.500778767536815" lon="10.265898268020884"><ele>122.33333333333333</ele><time>2026-04-20T11:44:19.973Z</time></trkpt><trkpt lat="45.50078871472345" lon="10.265602131892303"><ele>122.0</ele><time>2026-04-20T11:44:20.973Z</time></trkpt><trkpt lat="45.50078850966065" lon="10.265294969019344"><ele>122.0</ele><time>2026-04-20T11:44:21.973Z</time></trkpt><trkpt lat="45.50080017644426" lon="10.265003759484765"><ele>122.0</ele><time>2026-04-20T11:44:22.973Z</time></trkpt><trkpt lat="45.50081489988466" lon="10.264714956903353"><ele>122.0</ele><time>2026-04-20T11:44:23.973Z</time></trkpt><trkpt lat="45.50083995693217" lon="10.264431005804504"><ele>122.33333333333333</ele><time>2026-04-20T11:44:24.973Z</time></trkpt><trkpt lat="45.50085440100283" lon="10.264127994820512"><ele>122.66666666666666</ele><time>2026-04-20T11:44:25.973Z</time></trkpt><trkpt lat="45.50086333209212" lon="10.263812590539654"><ele>123.0</ele><time>2026-04-20T11:44:26.973Z</time></trkpt><trkpt lat="45.50088127458717" lon="10.263496342834788"><ele>123.0</ele><time>2026-04-20T11:44:27.973Z</time></trkpt><trkpt lat="45.500897788241225" lon="10.263219920152459"><ele>123.0</ele><time>2026-04-20T11:44:28.973Z</time></trkpt><trkpt lat="45.500919525890666" lon="10.262943221999254"><ele>123.0</ele><time>2026-04-20T11:44:29.973Z</time></trkpt><trkpt lat="45.50094069516365" lon="10.262646297954845"><ele>123.0</ele><time>2026-04-20T11:44:30.973Z</time></trkpt><trkpt lat="45.50096264083655" lon="10.262338708358502"><ele>123.0</ele><time>2026-04-20T11:44:31.973Z</time></trkpt><trkpt lat="45.500982197998546" lon="10.262032811519832"><ele>123.0</ele><time>2026-04-20T11:44:32.973Z</time></trkpt><trkpt lat="45.50100220343476" lon="10.261732786044224"><ele>122.66666666666666</ele><time>2026-04-20T11:44:33.973Z</time></trkpt><trkpt lat="45.50101978462486" lon="10.261425952190343"><ele>122.33333333333333</ele><time>2026-04-20T11:44:34.973Z</time></trkpt><trkpt lat="45.50103929983036" lon="10.26111208081419"><ele>122.0</ele><time>2026-04-20T11:44:35.973Z</time></trkpt><trkpt lat="45.501057231567195" lon="10.260806056918167"><ele>121.66666666666666</ele><time>2026-04-20T11:44:36.973Z</time></trkpt><trkpt lat="45.50107081688788" lon="10.260503950023011"><ele>121.33333333333334</ele><time>2026-04-20T11:44:37.973Z</time></trkpt><trkpt lat="45.50108932833826" lon="10.260194343472232"><ele>121.0</ele><time>2026-04-20T11:44:38.972Z</time></trkpt><trkpt lat="45.50111164671021" lon="10.25988667265182"><ele>121.0</ele><time>2026-04-20T11:44:39.972Z</time></trkpt><trkpt lat="45.50112881902355" lon="10.259571566026278"><ele>121.0</ele><time>2026-04-20T11:44:40.972Z</time></trkpt><trkpt lat="45.501146404010434" lon="10.259264923605569"><ele>121.0</ele><time>2026-04-20T11:44:41.972Z</time></trkpt><trkpt lat="45.50116244764823" lon="10.258963988233154"><ele>121.0</ele><time>2026-04-20T11:44:42.972Z</time></trkpt><trkpt lat="45.5011814197686" lon="10.258668974428996"><ele>121.0</ele><time>2026-04-20T11:44:43.972Z</time></trkpt><trkpt lat="45.50119888755903" lon="10.258371122554378"><ele>121.0</ele><time>2026-04-20T11:44:44.972Z</time></trkpt><trkpt lat="45.50121981472973" lon="10.258076058877688"><ele>121.33333333333334</ele><time>2026-04-20T11:44:45.972Z</time></trkpt><trkpt lat="45.50123749604293" lon="10.257789202801938"><ele>121.66666666666666</ele><time>2026-04-20T11:44:46.972Z</time></trkpt><trkpt lat="45.501256913817485" lon="10.257500070528039"><ele>122.0</ele><time>2026-04-20T11:44:47.972Z</time></trkpt><trkpt lat="45.50127244134362" lon="10.257200396580217"><ele>121.33333333333333</ele><time>2026-04-20T11:44:48.972Z</time></trkpt><trkpt lat="45.501293289017326" lon="10.256905697992051"><ele>120.66666666666666</ele><time>2026-04-20T11:44:49.972Z</time></trkpt><trkpt lat="45.50131164164944" lon="10.256602433409071"><ele>120.0</ele><time>2026-04-20T11:44:50.972Z</time></trkpt><trkpt lat="45.501330742592074" lon="10.256301843724456"><ele>120.0</ele><time>2026-04-20T11:44:51.972Z</time></trkpt><trkpt lat="45.50134999100968" lon="10.256005295865222"><ele>120.0</ele><time>2026-04-20T11:44:52.972Z</time></trkpt><trkpt lat="45.50136938230248" lon="10.255697942671356"><ele>120.0</ele><time>2026-04-20T11:44:53.972Z</time></trkpt><trkpt lat="45.50139758453298" lon="10.255400134658206"><ele>120.33333333333334</ele><time>2026-04-20T11:44:54.972Z</time></trkpt><trkpt lat="45.5014351719004" lon="10.25510852017448"><ele>120.66666666666667</ele><time>2026-04-20T11:44:55.972Z</time></trkpt><trkpt lat="45.50147719586822" lon="10.25481449811324"><ele>121.0</ele><time>2026-04-20T11:44:56.972Z</time></trkpt><trkpt lat="45.5015253105196" lon="10.25451127507325"><ele>121.33333333333334</ele><time>2026-04-20T11:44:57.972Z</time></trkpt><trkpt lat="45.50157754539997" lon="10.254209068601515"><ele>121.66666666666666</ele><time>2026-04-20T11:44:58.972Z</time></trkpt><trkpt lat="45.50163950871282" lon="10.25393258833395"><ele>122.0</ele><time>2026-04-20T11:44:59.972Z</time></trkpt><trkpt lat="45.50170961367237" lon="10.253656163124505"><ele>121.33333333333333</ele><time>2026-04-20T11:45:00.972Z</time></trkpt><trkpt lat="45.50177973411043" lon="10.253373823802816"><ele>120.66666666666666</ele><time>2026-04-20T11:45:01.972Z</time></trkpt><trkpt lat="45.501858411638935" lon="10.253104606016048"><ele>120.0</ele><time>2026-04-20T11:45:02.972Z</time></trkpt><trkpt lat="45.501933702952904" lon="10.252833918328925"><ele>120.0</ele><time>2026-04-20T11:45:03.972Z</time></trkpt><trkpt lat="45.50202101111773" lon="10.25257011955294"><ele>120.0</ele><time>2026-04-20T11:45:04.972Z</time></trkpt><trkpt lat="45.50211696431579" lon="10.252307901020986"><ele>120.0</ele><time>2026-04-20T11:45:05.972Z</time></trkpt><trkpt lat="45.502211236493864" lon="10.252039977431469"><ele>120.0</ele><time>2026-04-20T11:45:06.972Z</time></trkpt><trkpt lat="45.50231542623714" lon="10.25179104634425"><ele>120.0</ele><time>2026-04-20T11:45:07.972Z</time></trkpt><trkpt lat="45.5024267158249" lon="10.251547799430208"><ele>120.0</ele><time>2026-04-20T11:45:08.972Z</time></trkpt><trkpt lat="45.50253856131128" lon="10.251312558596442"><ele>120.0</ele><time>2026-04-20T11:45:09.972Z</time></trkpt><trkpt lat="45.50264763916107" lon="10.251097203611954"><ele>120.0</ele><time>2026-04-20T11:45:10.972Z</time></trkpt><trkpt lat="45.50276172890402" lon="10.2508682293922"><ele>120.0</ele><time>2026-04-20T11:45:11.972Z</time></trkpt><trkpt lat="45.50287918692895" lon="10.250653977621432"><ele>120.33333333333334</ele><time>2026-04-20T11:45:12.972Z</time></trkpt><trkpt lat="45.50300146154127" lon="10.25043717751399"><ele>120.66666666666667</ele><time>2026-04-20T11:45:13.972Z</time></trkpt><trkpt lat="45.503122356641974" lon="10.25024332986197"><ele>121.0</ele><time>2026-04-20T11:45:14.972Z</time></trkpt><trkpt lat="45.50324643772794" lon="10.250035768776005"><ele>121.0</ele><time>2026-04-20T11:45:15.973Z</time></trkpt><trkpt lat="45.503371612241935" lon="10.249831713537446"><ele>121.0</ele><time>2026-04-20T11:45:16.973Z</time></trkpt><trkpt lat="45.503500883056056" lon="10.249611749863407"><ele>121.0</ele><time>2026-04-20T11:45:17.973Z</time></trkpt><trkpt lat="45.50363504562066" lon="10.249384503784544"><ele>121.0</ele><time>2026-04-20T11:45:18.973Z</time></trkpt><trkpt lat="45.5037682513267" lon="10.249158440605896"><ele>121.0</ele><time>2026-04-20T11:45:19.973Z</time></trkpt><trkpt lat="45.50390182660328" lon="10.248948466410798"><ele>121.0</ele><time>2026-04-20T11:45:20.973Z</time></trkpt><trkpt lat="45.504029248137634" lon="10.248751642790607"><ele>121.0</ele><time>2026-04-20T11:45:21.973Z</time></trkpt><trkpt lat="45.50415631846854" lon="10.248554653045554"><ele>121.0</ele><time>2026-04-20T11:45:22.973Z</time></trkpt><trkpt lat="45.504283740058234" lon="10.248358594329849"><ele>121.0</ele><time>2026-04-20T11:45:23.973Z</time></trkpt><trkpt lat="45.504407688523" lon="10.248159968989002"><ele>121.0</ele><time>2026-04-20T11:45:24.973Z</time></trkpt><trkpt lat="45.504530503876566" lon="10.247967828542977"><ele>121.0</ele><time>2026-04-20T11:45:25.973Z</time></trkpt><trkpt lat="45.50465759075133" lon="10.247771064058831"><ele>121.0</ele><time>2026-04-20T11:45:26.973Z</time></trkpt><trkpt lat="45.50478009565967" lon="10.247582300074821"><ele>120.66666666666667</ele><time>2026-04-20T11:45:27.973Z</time></trkpt><trkpt lat="45.504899948530266" lon="10.247383787058103"><ele>120.33333333333334</ele><time>2026-04-20T11:45:28.973Z</time></trkpt><trkpt lat="45.50502566399785" lon="10.24717854229333"><ele>120.0</ele><time>2026-04-20T11:45:29.973Z</time></trkpt><trkpt lat="45.50514773863295" lon="10.24697350141353"><ele>120.0</ele><time>2026-04-20T11:45:30.973Z</time></trkpt><trkpt lat="45.50527047141048" lon="10.246778585231402"><ele>120.0</ele><time>2026-04-20T11:45:31.973Z</time></trkpt><trkpt lat="45.505397000236535" lon="10.24658224580448"><ele>120.0</ele><time>2026-04-20T11:45:32.973Z</time></trkpt><trkpt lat="45.50553104123105" lon="10.24636779464422"><ele>120.0</ele><time>2026-04-20T11:45:33.973Z</time></trkpt><trkpt lat="45.50565980588197" lon="10.246159570034227"><ele>120.0</ele><time>2026-04-20T11:45:34.973Z</time></trkpt><trkpt lat="45.505777054338395" lon="10.245965707132983"><ele>120.0</ele><time>2026-04-20T11:45:35.973Z</time></trkpt><trkpt lat="45.505889544250785" lon="10.245777772770206"><ele>119.0</ele><time>2026-04-20T11:45:36.973Z</time></trkpt><trkpt lat="45.50599516858468" lon="10.245598816241763"><ele>118.0</ele><time>2026-04-20T11:45:37.973Z</time></trkpt><trkpt lat="45.506105799018" lon="10.245419798892788"><ele>117.0</ele><time>2026-04-20T11:45:38.973Z</time></trkpt><trkpt lat="45.50622081255063" lon="10.245234153780274"><ele>117.0</ele><time>2026-04-20T11:45:39.973Z</time></trkpt><trkpt lat="45.50634215099408" lon="10.245031656727955"><ele>117.0</ele><time>2026-04-20T11:45:40.973Z</time></trkpt><trkpt lat="45.506467795622456" lon="10.244817433038593"><ele>117.0</ele><time>2026-04-20T11:45:41.973Z</time></trkpt><trkpt lat="45.50659062145627" lon="10.244612764572235"><ele>117.0</ele><time>2026-04-20T11:45:42.973Z</time></trkpt><trkpt lat="45.50671997401693" lon="10.24440857756624"><ele>117.0</ele><time>2026-04-20T11:45:43.973Z</time></trkpt><trkpt lat="45.50685367358906" lon="10.244197479098933"><ele>117.0</ele><time>2026-04-20T11:45:44.973Z</time></trkpt><trkpt lat="45.50698145749123" lon="10.243982957196396"><ele>117.0</ele><time>2026-04-20T11:45:45.973Z</time></trkpt><trkpt lat="45.50710791305366" lon="10.243766244982792"><ele>117.0</ele><time>2026-04-20T11:45:46.973Z</time></trkpt><trkpt lat="45.50723743112132" lon="10.243550460358389"><ele>117.0</ele><time>2026-04-20T11:45:47.973Z</time></trkpt><trkpt lat="45.50736862771374" lon="10.243331228995396"><ele>117.0</ele><time>2026-04-20T11:45:48.973Z</time></trkpt><trkpt lat="45.50749832052139" lon="10.243106960940105"><ele>117.0</ele><time>2026-04-20T11:45:49.973Z</time></trkpt><trkpt lat="45.507623423961206" lon="10.242873816377701"><ele>117.0</ele><time>2026-04-20T11:45:50.973Z</time></trkpt><trkpt lat="45.507747210603085" lon="10.242633343078595"><ele>117.0</ele><time>2026-04-20T11:45:51.973Z</time></trkpt><trkpt lat="45.50786816515547" lon="10.242380449422528"><ele>117.0</ele><time>2026-04-20T11:45:52.973Z</time></trkpt><trkpt lat="45.50798648902652" lon="10.242121408997239"><ele>117.0</ele><time>2026-04-20T11:45:53.973Z</time></trkpt><trkpt lat="45.50810355326117" lon="10.241871044808978"><ele>117.0</ele><time>2026-04-20T11:45:54.973Z</time></trkpt><trkpt lat="45.50821353351228" lon="10.241628577250477"><ele>117.0</ele><time>2026-04-20T11:45:55.973Z</time></trkpt><trkpt lat="45.50832023211769" lon="10.241380368823581"><ele>117.0</ele><time>2026-04-20T11:45:56.973Z</time></trkpt><trkpt lat="45.50842435498305" lon="10.241128679925673"><ele>117.33333333333334</ele><time>2026-04-20T11:45:57.973Z</time></trkpt><trkpt lat="45.508523486666235" lon="10.240871874969642"><ele>117.66666666666667</ele><time>2026-04-20T11:45:58.973Z</time></trkpt><trkpt lat="45.50862122666657" lon="10.240597479438884"><ele>118.0</ele><time>2026-04-20T11:45:59.973Z</time></trkpt><trkpt lat="45.50871806588055" lon="10.240315924665046"><ele>118.0</ele><time>2026-04-20T11:46:00.973Z</time></trkpt><trkpt lat="45.50881003208394" lon="10.240040541136766"><ele>118.0</ele><time>2026-04-20T11:46:01.973Z</time></trkpt><trkpt lat="45.50889280146997" lon="10.239770352773228"><ele>118.0</ele><time>2026-04-20T11:46:02.973Z</time></trkpt><trkpt lat="45.508971821739635" lon="10.239486305040744"><ele>117.33333333333334</ele><time>2026-04-20T11:46:03.973Z</time></trkpt><trkpt lat="45.50905180489694" lon="10.239201141577782"><ele>116.66666666666666</ele><time>2026-04-20T11:46:04.973Z</time></trkpt><trkpt lat="45.50912423557723" lon="10.238924830940249"><ele>116.0</ele><time>2026-04-20T11:46:05.973Z</time></trkpt><trkpt lat="45.509194880787675" lon="10.238644797296294"><ele>116.0</ele><time>2026-04-20T11:46:06.973Z</time></trkpt><trkpt lat="45.50926399883924" lon="10.238360781249234"><ele>116.0</ele><time>2026-04-20T11:46:07.973Z</time></trkpt><trkpt lat="45.509326691469404" lon="10.238093447229767"><ele>116.0</ele><time>2026-04-20T11:46:08.973Z</time></trkpt><trkpt lat="45.5093848780502" lon="10.237811995792127"><ele>116.0</ele><time>2026-04-20T11:46:09.973Z</time></trkpt><trkpt lat="45.50943642843229" lon="10.237538378945967"><ele>116.0</ele><time>2026-04-20T11:46:10.973Z</time></trkpt><trkpt lat="45.509485350251296" lon="10.237260759082123"><ele>116.0</ele><time>2026-04-20T11:46:11.973Z</time></trkpt><trkpt lat="45.50953029609482" lon="10.23697705851876"><ele>116.0</ele><time>2026-04-20T11:46:12.973Z</time></trkpt><trkpt lat="45.5095699350147" lon="10.236697786391588"><ele>116.0</ele><time>2026-04-20T11:46:13.973Z</time></trkpt><trkpt lat="45.509605516421" lon="10.236410063265609"><ele>116.0</ele><time>2026-04-20T11:46:14.973Z</time></trkpt><trkpt lat="45.50963732800613" lon="10.236118697051364"><ele>116.33333333333333</ele><time>2026-04-20T11:46:15.973Z</time></trkpt><trkpt lat="45.50966299660714" lon="10.235845220136953"><ele>116.66666666666666</ele><time>2026-04-20T11:46:16.973Z</time></trkpt><trkpt lat="45.509690638489694" lon="10.235580939982858"><ele>117.0</ele><time>2026-04-20T11:46:17.973Z</time></trkpt><trkpt lat="45.50971520912521" lon="10.235306700178688"><ele>117.0</ele><time>2026-04-20T11:46:18.973Z</time></trkpt><trkpt lat="45.50973614326875" lon="10.235034993970768"><ele>117.0</ele><time>2026-04-20T11:46:19.973Z</time></trkpt><trkpt lat="45.50975244179426" lon="10.234762055957939"><ele>117.0</ele><time>2026-04-20T11:46:20.973Z</time></trkpt><trkpt lat="45.50977121894263" lon="10.23449188143261"><ele>117.0</ele><time>2026-04-20T11:46:21.973Z</time></trkpt><trkpt lat="45.509786776105585" lon="10.23421597218917"><ele>117.0</ele><time>2026-04-20T11:46:22.973Z</time></trkpt><trkpt lat="45.50980682206295" lon="10.233940449127052"><ele>117.0</ele><time>2026-04-20T11:46:23.973Z</time></trkpt><trkpt lat="45.50982920543804" lon="10.233661664113798"><ele>116.33333333333334</ele><time>2026-04-20T11:46:24.973Z</time></trkpt><trkpt lat="45.50985187904114" lon="10.233381870832584"><ele>115.66666666666667</ele><time>2026-04-20T11:46:25.973Z</time></trkpt><trkpt lat="45.50987334037247" lon="10.233096309715906"><ele>115.0</ele><time>2026-04-20T11:46:26.973Z</time></trkpt><trkpt lat="45.509893421450464" lon="10.232809461457158"><ele>115.0</ele><time>2026-04-20T11:46:27.973Z</time></trkpt><trkpt lat="45.5099166005542" lon="10.232527371444519"><ele>115.0</ele><time>2026-04-20T11:46:28.973Z</time></trkpt><trkpt lat="45.50994033270917" lon="10.232229932651364"><ele>115.0</ele><time>2026-04-20T11:46:29.973Z</time></trkpt><trkpt lat="45.509961162379746" lon="10.231920652327078"><ele>116.0</ele><time>2026-04-20T11:46:30.973Z</time></trkpt><trkpt lat="45.50998132285815" lon="10.231643366193342"><ele>117.0</ele><time>2026-04-20T11:46:31.973Z</time></trkpt><trkpt lat="45.51000249205979" lon="10.231361474280975"><ele>118.0</ele><time>2026-04-20T11:46:32.973Z</time></trkpt><trkpt lat="45.51002687859687" lon="10.231072973970647"><ele>118.0</ele><time>2026-04-20T11:46:33.973Z</time></trkpt><trkpt lat="45.510056411124594" lon="10.230784628653856"><ele>118.0</ele><time>2026-04-20T11:46:34.973Z</time></trkpt><trkpt lat="45.51008446198442" lon="10.230488969640444"><ele>118.0</ele><time>2026-04-20T11:46:35.973Z</time></trkpt><trkpt lat="45.510110357207274" lon="10.230200050481692"><ele>118.0</ele><time>2026-04-20T11:46:36.973Z</time></trkpt><trkpt lat="45.510129605001886" lon="10.229899547811383"><ele>118.0</ele><time>2026-04-20T11:46:37.973Z</time></trkpt><trkpt lat="45.510152714589914" lon="10.229593863039621"><ele>118.0</ele><time>2026-04-20T11:46:38.973Z</time></trkpt><trkpt lat="45.51017632175343" lon="10.229286066614366"><ele>118.0</ele><time>2026-04-20T11:46:39.973Z</time></trkpt><trkpt lat="45.510195190884815" lon="10.228980862905365"><ele>118.0</ele><time>2026-04-20T11:46:40.973Z</time></trkpt><trkpt lat="45.51022457676635" lon="10.22867660073579"><ele>118.0</ele><time>2026-04-20T11:46:41.973Z</time></trkpt><trkpt lat="45.51025064864929" lon="10.228373131603005"><ele>118.0</ele><time>2026-04-20T11:46:42.973Z</time></trkpt><trkpt lat="45.51027230227163" lon="10.22807448564709"><ele>118.0</ele><time>2026-04-20T11:46:43.973Z</time></trkpt><trkpt lat="45.51028624430189" lon="10.227798350603651"><ele>118.0</ele><time>2026-04-20T11:46:44.973Z</time></trkpt><trkpt lat="45.51029015033667" lon="10.227528742016716"><ele>118.0</ele><time>2026-04-20T11:46:45.973Z</time></trkpt><trkpt lat="45.510296687928765" lon="10.227250336044511"><ele>118.0</ele><time>2026-04-20T11:46:46.973Z</time></trkpt><trkpt lat="45.51029789975183" lon="10.226968940492405"><ele>118.0</ele><time>2026-04-20T11:46:47.973Z</time></trkpt><trkpt lat="45.51029919777744" lon="10.226693241165401"><ele>117.66666666666667</ele><time>2026-04-20T11:46:48.973Z</time></trkpt><trkpt lat="45.51030733491071" lon="10.22642788539764"><ele>117.33333333333334</ele><time>2026-04-20T11:46:49.973Z</time></trkpt><trkpt lat="45.51031661645717" lon="10.226162439809082"><ele>117.0</ele><time>2026-04-20T11:46:50.973Z</time></trkpt><trkpt lat="45.510336760413516" lon="10.225901721712725"><ele>117.0</ele><time>2026-04-20T11:46:51.973Z</time></trkpt><trkpt lat="45.51034558087047" lon="10.225655642837982"><ele>117.0</ele><time>2026-04-20T11:46:52.973Z</time></trkpt><trkpt lat="45.51036141839932" lon="10.22540246943627"><ele>117.0</ele><time>2026-04-20T11:46:53.973Z</time></trkpt><trkpt lat="45.510378000136754" lon="10.225147676213869"><ele>117.33333333333334</ele><time>2026-04-20T11:46:54.973Z</time></trkpt><trkpt lat="45.51039909636696" lon="10.22488371860845"><ele>117.66666666666667</ele><time>2026-04-20T11:46:55.973Z</time></trkpt><trkpt lat="45.510423972407146" lon="10.224592339902006"><ele>118.0</ele><time>2026-04-20T11:46:56.973Z</time></trkpt><trkpt lat="45.510458118911124" lon="10.224320083576453"><ele>118.0</ele><time>2026-04-20T11:46:57.973Z</time></trkpt><trkpt lat="45.51050420168098" lon="10.224039242173665"><ele>118.0</ele><time>2026-04-20T11:46:58.973Z</time></trkpt><trkpt lat="45.51055177639093" lon="10.223742904672758"><ele>118.0</ele><time>2026-04-20T11:46:59.973Z</time></trkpt><trkpt lat="45.51060376435283" lon="10.223436005440092"><ele>119.33333333333334</ele><time>2026-04-20T11:47:00.973Z</time></trkpt><trkpt lat="45.510663920277665" lon="10.223129773363246"><ele>120.66666666666666</ele><time>2026-04-20T11:47:01.973Z</time></trkpt><trkpt lat="45.51073139859076" lon="10.222828336466748"><ele>122.0</ele><time>2026-04-20T11:47:02.973Z</time></trkpt><trkpt lat="45.510812416755314" lon="10.222516896315216"><ele>121.5</ele><time>2026-04-20T11:47:03.973Z</time></trkpt><trkpt lat="45.51088922591008" lon="10.222194633919989"><ele>121.0</ele><time>2026-04-20T11:47:04.973Z</time></trkpt><trkpt lat="45.51095754349454" lon="10.221881169139886"><ele>121.0</ele><time>2026-04-20T11:47:05.973Z</time></trkpt><trkpt lat="45.511028665470825" lon="10.221574663950655"><ele>121.0</ele><time>2026-04-20T11:47:06.973Z</time></trkpt><trkpt lat="45.511099765389446" lon="10.22128152447794"><ele>121.0</ele><time>2026-04-20T11:47:07.973Z</time></trkpt><trkpt lat="45.51117248296579" lon="10.220977484199977"><ele>121.0</ele><time>2026-04-20T11:47:08.973Z</time></trkpt><trkpt lat="45.51124575841532" lon="10.220653356658872"><ele>121.0</ele><time>2026-04-20T11:47:09.973Z</time></trkpt><trkpt lat="45.51132459308328" lon="10.220312817545226"><ele>121.0</ele><time>2026-04-20T11:47:10.973Z</time></trkpt><trkpt lat="45.511407627480374" lon="10.21995727053167"><ele>121.0</ele><time>2026-04-20T11:47:11.973Z</time></trkpt><trkpt lat="45.51149071568085" lon="10.219601483004835"><ele>121.5</ele><time>2026-04-20T11:47:12.973Z</time></trkpt><trkpt lat="45.511578735998796" lon="10.219227246150536"><ele>122.0</ele><time>2026-04-20T11:47:13.973Z</time></trkpt><trkpt lat="45.511659713208" lon="10.218862053040832"><ele>122.0</ele><time>2026-04-20T11:47:14.973Z</time></trkpt><trkpt lat="45.511742004553916" lon="10.218501030957293"><ele>122.0</ele><time>2026-04-20T11:47:15.973Z</time></trkpt><trkpt lat="45.51182022729831" lon="10.218150355418548"><ele>122.0</ele><time>2026-04-20T11:47:16.973Z</time></trkpt><trkpt lat="45.51189431709406" lon="10.21783745678435"><ele>122.0</ele><time>2026-04-20T11:47:17.973Z</time></trkpt><trkpt lat="45.51196690094583" lon="10.217530140863328"><ele>122.5</ele><time>2026-04-20T11:47:18.973Z</time></trkpt><trkpt lat="45.51204060288233" lon="10.21723713699349"><ele>123.0</ele><time>2026-04-20T11:47:19.973Z</time></trkpt><trkpt lat="45.512114423593026" lon="10.216910966847388"><ele>123.0</ele><time>2026-04-20T11:47:20.973Z</time></trkpt><trkpt lat="45.512191208904426" lon="10.216580675534951"><ele>123.0</ele><time>2026-04-20T11:47:21.973Z</time></trkpt><trkpt lat="45.51227120743381" lon="10.216242386770352"><ele>122.0</ele><time>2026-04-20T11:47:22.973Z</time></trkpt><trkpt lat="45.51235329427752" lon="10.215895599322545"><ele>121.0</ele><time>2026-04-20T11:47:23.973Z</time></trkpt><trkpt lat="45.512437683428814" lon="10.21552793899078"><ele>120.0</ele><time>2026-04-20T11:47:24.972Z</time></trkpt><trkpt lat="45.51252382974789" lon="10.215148148266426"><ele>119.0</ele><time>2026-04-20T11:47:25.973Z</time></trkpt><trkpt lat="45.5126120199385" lon="10.21477537950759"><ele>119.0</ele><time>2026-04-20T11:47:26.973Z</time></trkpt><trkpt lat="45.51269131838686" lon="10.214432344864836"><ele>119.0</ele><time>2026-04-20T11:47:27.973Z</time></trkpt><trkpt lat="45.51277607175664" lon="10.21406975006748"><ele>119.0</ele><time>2026-04-20T11:47:28.973Z</time></trkpt><trkpt lat="45.51286183876004" lon="10.21373444691327"><ele>119.0</ele><time>2026-04-20T11:47:29.973Z</time></trkpt><trkpt lat="45.512957131057206" lon="10.21339929902865"><ele>120.5</ele><time>2026-04-20T11:47:30.973Z</time></trkpt><trkpt lat="45.51306264945467" lon="10.213050949682186"><ele>122.0</ele><time>2026-04-20T11:47:31.973Z</time></trkpt><trkpt lat="45.51317529481638" lon="10.212700956571895"><ele>122.0</ele><time>2026-04-20T11:47:32.973Z</time></trkpt><trkpt lat="45.51329820029904" lon="10.212371259868958"><ele>122.0</ele><time>2026-04-20T11:47:33.973Z</time></trkpt><trkpt lat="45.51342463847381" lon="10.212044508588214"><ele>122.0</ele><time>2026-04-20T11:47:34.972Z</time></trkpt><trkpt lat="45.51356013786757" lon="10.211720924798598"><ele>122.0</ele><time>2026-04-20T11:47:35.972Z</time></trkpt><trkpt lat="45.51370414763767" lon="10.211413194016965"><ele>121.5</ele><time>2026-04-20T11:47:36.972Z</time></trkpt><trkpt lat="45.51386253515366" lon="10.211113669349453"><ele>121.0</ele><time>2026-04-20T11:47:37.972Z</time></trkpt><trkpt lat="45.51401852603335" lon="10.210814315427239"><ele>120.5</ele><time>2026-04-20T11:47:38.972Z</time></trkpt><trkpt lat="45.514174233387436" lon="10.210521864476208"><ele>120.0</ele><time>2026-04-20T11:47:39.972Z</time></trkpt><trkpt lat="45.51433279493141" lon="10.210235184826672"><ele>120.0</ele><time>2026-04-20T11:47:40.972Z</time></trkpt><trkpt lat="45.51449417576495" lon="10.209959408828357"><ele>120.0</ele><time>2026-04-20T11:47:41.972Z</time></trkpt><trkpt lat="45.514658793563626" lon="10.209677224563942"><ele>120.0</ele><time>2026-04-20T11:47:42.972Z</time></trkpt><trkpt lat="45.514825450220826" lon="10.209406737948651"><ele>120.0</ele><time>2026-04-20T11:47:43.972Z</time></trkpt><trkpt lat="45.51498621874172" lon="10.209137472886008"><ele>119.0</ele><time>2026-04-20T11:47:44.972Z</time></trkpt><trkpt lat="45.51513863124272" lon="10.20888559149335"><ele>118.0</ele><time>2026-04-20T11:47:45.972Z</time></trkpt><trkpt lat="45.515293745597766" lon="10.208637875875251"><ele>118.5</ele><time>2026-04-20T11:47:46.972Z</time></trkpt><trkpt lat="45.51545359546807" lon="10.208376344292573"><ele>119.0</ele><time>2026-04-20T11:47:47.972Z</time></trkpt><trkpt lat="45.515601552890075" lon="10.208105174567665"><ele>119.33333333333333</ele><time>2026-04-20T11:47:48.972Z</time></trkpt><trkpt lat="45.515741216158446" lon="10.207879761095185"><ele>119.66666666666666</ele><time>2026-04-20T11:47:49.972Z</time></trkpt><trkpt lat="45.51588099651878" lon="10.207655833617466"><ele>120.0</ele><time>2026-04-20T11:47:50.972Z</time></trkpt><trkpt lat="45.51602071056387" lon="10.207412905704224"><ele>120.66666666666666</ele><time>2026-04-20T11:47:51.972Z</time></trkpt><trkpt lat="45.51615795041193" lon="10.207188788040904"><ele>121.33333333333333</ele><time>2026-04-20T11:47:52.972Z</time></trkpt><trkpt lat="45.51630281031299" lon="10.206957416154843"><ele>122.0</ele><time>2026-04-20T11:47:53.972Z</time></trkpt><trkpt lat="45.51643402083695" lon="10.206735096047742"><ele>122.33333333333333</ele><time>2026-04-20T11:47:54.972Z</time></trkpt><trkpt lat="45.516561083858136" lon="10.206511602209948"><ele>122.66666666666666</ele><time>2026-04-20T11:47:55.972Z</time></trkpt><trkpt lat="45.516688817299716" lon="10.20628929637426"><ele>123.0</ele><time>2026-04-20T11:47:56.972Z</time></trkpt><trkpt lat="45.516813781623625" lon="10.206051706326448"><ele>123.0</ele><time>2026-04-20T11:47:57.972Z</time></trkpt><trkpt lat="45.51693656956823" lon="10.20580271578967"><ele>123.0</ele><time>2026-04-20T11:47:58.972Z</time></trkpt><trkpt lat="45.51705544463912" lon="10.205545105766078"><ele>123.0</ele><time>2026-04-20T11:47:59.972Z</time></trkpt><trkpt lat="45.51717184875032" lon="10.205287577763041"><ele>123.33333333333334</ele><time>2026-04-20T11:48:00.972Z</time></trkpt><trkpt lat="45.51728728463387" lon="10.205021741458966"><ele>123.66666666666667</ele><time>2026-04-20T11:48:01.972Z</time></trkpt><trkpt lat="45.51740265720352" lon="10.204751489342843"><ele>124.0</ele><time>2026-04-20T11:48:02.972Z</time></trkpt><trkpt lat="45.517514175109675" lon="10.204471471628999"><ele>122.5</ele><time>2026-04-20T11:48:03.972Z</time></trkpt><trkpt lat="45.51762611879925" lon="10.204180951945116"><ele>121.0</ele><time>2026-04-20T11:48:04.972Z</time></trkpt><trkpt lat="45.5177349260969" lon="10.203879425545757"><ele>121.0</ele><time>2026-04-20T11:48:05.972Z</time></trkpt><trkpt lat="45.517836013246516" lon="10.203567070501986"><ele>121.0</ele><time>2026-04-20T11:48:06.972Z</time></trkpt><trkpt lat="45.5179348869089" lon="10.203236284652046"><ele>122.0</ele><time>2026-04-20T11:48:07.972Z</time></trkpt><trkpt lat="45.51803031079682" lon="10.202901903483559"><ele>123.0</ele><time>2026-04-20T11:48:08.972Z</time></trkpt><trkpt lat="45.518121812429236" lon="10.202549220302304"><ele>122.5</ele><time>2026-04-20T11:48:09.972Z</time></trkpt><trkpt lat="45.518216108626156" lon="10.202181150594853"><ele>122.0</ele><time>2026-04-20T11:48:10.972Z</time></trkpt><trkpt lat="45.51830178872923" lon="10.201821328987954"><ele>123.0</ele><time>2026-04-20T11:48:11.972Z</time></trkpt><trkpt lat="45.51839542813419" lon="10.201447470086146"><ele>124.0</ele><time>2026-04-20T11:48:12.972Z</time></trkpt><trkpt lat="45.51849215856833" lon="10.201078155074404"><ele>124.0</ele><time>2026-04-20T11:48:13.972Z</time></trkpt><trkpt lat="45.518588791555835" lon="10.200721718886827"><ele>124.0</ele><time>2026-04-20T11:48:14.972Z</time></trkpt><trkpt lat="45.51867186401571" lon="10.200391264316835"><ele>124.0</ele><time>2026-04-20T11:48:15.972Z</time></trkpt><trkpt lat="45.51875647070123" lon="10.200058053462103"><ele>124.0</ele><time>2026-04-20T11:48:16.972Z</time></trkpt><trkpt lat="45.51883913390506" lon="10.199720183552826"><ele>123.0</ele><time>2026-04-20T11:48:17.972Z</time></trkpt><trkpt lat="45.518920659136796" lon="10.199384160096283"><ele>122.0</ele><time>2026-04-20T11:48:18.972Z</time></trkpt><trkpt lat="45.51899533437512" lon="10.199058024397166"><ele>122.0</ele><time>2026-04-20T11:48:19.972Z</time></trkpt><trkpt lat="45.51907022020697" lon="10.198722907218341"><ele>122.0</ele><time>2026-04-20T11:48:20.972Z</time></trkpt><trkpt lat="45.51914862852423" lon="10.198392543654736"><ele>122.5</ele><time>2026-04-20T11:48:21.972Z</time></trkpt><trkpt lat="45.51922828419612" lon="10.19805698150529"><ele>123.0</ele><time>2026-04-20T11:48:22.972Z</time></trkpt><trkpt lat="45.519303497084096" lon="10.197721977172558"><ele>123.0</ele><time>2026-04-20T11:48:23.972Z</time></trkpt><trkpt lat="45.519383711622794" lon="10.197401622038075"><ele>123.0</ele><time>2026-04-20T11:48:24.972Z</time></trkpt><trkpt lat="45.51946464342366" lon="10.197084248635774"><ele>123.5</ele><time>2026-04-20T11:48:25.972Z</time></trkpt><trkpt lat="45.51954401578931" lon="10.196751253319341"><ele>124.0</ele><time>2026-04-20T11:48:26.972Z</time></trkpt><trkpt lat="45.51962535288106" lon="10.196412729575284"><ele>124.5</ele><time>2026-04-20T11:48:27.972Z</time></trkpt><trkpt lat="45.51970235520443" lon="10.196060650847171"><ele>125.0</ele><time>2026-04-20T11:48:28.972Z</time></trkpt><trkpt lat="45.51977990360493" lon="10.195723352935861"><ele>124.0</ele><time>2026-04-20T11:48:29.972Z</time></trkpt><trkpt lat="45.51985573934782" lon="10.195385261294136"><ele>123.0</ele><time>2026-04-20T11:48:30.972Z</time></trkpt><trkpt lat="45.5199357209259" lon="10.195050689439265"><ele>124.0</ele><time>2026-04-20T11:48:31.972Z</time></trkpt><trkpt lat="45.52001720524473" lon="10.194711121490663"><ele>125.0</ele><time>2026-04-20T11:48:32.972Z</time></trkpt><trkpt lat="45.52010158833119" lon="10.194363171021356"><ele>125.0</ele><time>2026-04-20T11:48:33.972Z</time></trkpt><trkpt lat="45.520183807663045" lon="10.194014700927683"><ele>125.0</ele><time>2026-04-20T11:48:34.972Z</time></trkpt><trkpt lat="45.520265616133784" lon="10.193669647233826"><ele>125.0</ele><time>2026-04-20T11:48:35.972Z</time></trkpt><trkpt lat="45.5203453479348" lon="10.19331985685528"><ele>125.0</ele><time>2026-04-20T11:48:36.972Z</time></trkpt><trkpt lat="45.52042422468549" lon="10.19296449882703"><ele>125.0</ele><time>2026-04-20T11:48:37.972Z</time></trkpt><trkpt lat="45.52050565078963" lon="10.192628367988513"><ele>125.0</ele><time>2026-04-20T11:48:38.972Z</time></trkpt><trkpt lat="45.520590542677354" lon="10.192298420911309"><ele>125.5</ele><time>2026-04-20T11:48:39.972Z</time></trkpt><trkpt lat="45.52067823711959" lon="10.191970134701764"><ele>126.0</ele><time>2026-04-20T11:48:40.972Z</time></trkpt><trkpt lat="45.520765357346654" lon="10.19163606626332"><ele>126.0</ele><time>2026-04-20T11:48:41.972Z</time></trkpt><trkpt lat="45.52085711289637" lon="10.191301899350188"><ele>126.0</ele><time>2026-04-20T11:48:42.972Z</time></trkpt><trkpt lat="45.520947009500375" lon="10.19096041862154"><ele>126.0</ele><time>2026-04-20T11:48:43.972Z</time></trkpt><trkpt lat="45.52103442776917" lon="10.190617529961695"><ele>126.0</ele><time>2026-04-20T11:48:44.972Z</time></trkpt><trkpt lat="45.52111126668672" lon="10.190268090224153"><ele>126.0</ele><time>2026-04-20T11:48:45.972Z</time></trkpt><trkpt lat="45.521189831235624" lon="10.189919637832435"><ele>126.0</ele><time>2026-04-20T11:48:46.972Z</time></trkpt><trkpt lat="45.52126726391064" lon="10.189568728580936"><ele>124.5</ele><time>2026-04-20T11:48:47.972Z</time></trkpt><trkpt lat="45.52134585587809" lon="10.189221985137333"><ele>123.0</ele><time>2026-04-20T11:48:48.972Z</time></trkpt><trkpt lat="45.5214299645007" lon="10.188884999169503"><ele>123.0</ele><time>2026-04-20T11:48:49.972Z</time></trkpt><trkpt lat="45.52151164623614" lon="10.188540744903746"><ele>123.0</ele><time>2026-04-20T11:48:50.972Z</time></trkpt><trkpt lat="45.52159574998776" lon="10.18819128631323"><ele>123.0</ele><time>2026-04-20T11:48:51.972Z</time></trkpt><trkpt lat="45.52167445890968" lon="10.187831195476981"><ele>123.0</ele><time>2026-04-20T11:48:52.972Z</time></trkpt><trkpt lat="45.52175258518968" lon="10.187480270935103"><ele>122.0</ele><time>2026-04-20T11:48:53.972Z</time></trkpt><trkpt lat="45.52183265640408" lon="10.187127932672961"><ele>121.0</ele><time>2026-04-20T11:48:54.972Z</time></trkpt><trkpt lat="45.52191545122033" lon="10.186768142481824"><ele>121.5</ele><time>2026-04-20T11:48:55.972Z</time></trkpt><trkpt lat="45.52199923803101" lon="10.186412309914916"><ele>122.0</ele><time>2026-04-20T11:48:56.972Z</time></trkpt><trkpt lat="45.52208297072658" lon="10.186058055262638"><ele>122.5</ele><time>2026-04-20T11:48:57.972Z</time></trkpt><trkpt lat="45.52216424171139" lon="10.185719792828746"><ele>123.0</ele><time>2026-04-20T11:48:58.972Z</time></trkpt><trkpt lat="45.522246533532744" lon="10.18538922879039"><ele>123.0</ele><time>2026-04-20T11:48:59.972Z</time></trkpt><trkpt lat="45.522323624079746" lon="10.185055942935055"><ele>123.0</ele><time>2026-04-20T11:49:00.972Z</time></trkpt><trkpt lat="45.52240908051312" lon="10.184730558732976"><ele>123.0</ele><time>2026-04-20T11:49:01.972Z</time></trkpt><trkpt lat="45.52248958357039" lon="10.184399554310824"><ele>123.0</ele><time>2026-04-20T11:49:02.972Z</time></trkpt><trkpt lat="45.52256819679594" lon="10.18407450397532"><ele>123.0</ele><time>2026-04-20T11:49:03.972Z</time></trkpt><trkpt lat="45.52264853996554" lon="10.183748120362818"><ele>123.0</ele><time>2026-04-20T11:49:04.972Z</time></trkpt><trkpt lat="45.52272889559345" lon="10.183412363991057"><ele>123.5</ele><time>2026-04-20T11:49:05.972Z</time></trkpt><trkpt lat="45.52281709504644" lon="10.183077761583009"><ele>124.0</ele><time>2026-04-20T11:49:06.972Z</time></trkpt><trkpt lat="45.52291158985666" lon="10.18274271058682"><ele>124.0</ele><time>2026-04-20T11:49:07.972Z</time></trkpt><trkpt lat="45.52300454127526" lon="10.182378311626747"><ele>124.0</ele><time>2026-04-20T11:49:08.972Z</time></trkpt><trkpt lat="45.52310626223263" lon="10.182034391138751"><ele>124.5</ele><time>2026-04-20T11:49:09.972Z</time></trkpt><trkpt lat="45.523217499915745" lon="10.181718858839693"><ele>125.0</ele><time>2026-04-20T11:49:10.972Z</time></trkpt><trkpt lat="45.52333948253416" lon="10.181406779464991"><ele>125.0</ele><time>2026-04-20T11:49:11.972Z</time></trkpt><trkpt lat="45.52347138390696" lon="10.181077128291593"><ele>125.0</ele><time>2026-04-20T11:49:12.972Z</time></trkpt><trkpt lat="45.52359990129618" lon="10.180733823056169"><ele>125.0</ele><time>2026-04-20T11:49:13.972Z</time></trkpt><trkpt lat="45.52372989463227" lon="10.18037409378235"><ele>125.0</ele><time>2026-04-20T11:49:14.972Z</time></trkpt><trkpt lat="45.523861779409394" lon="10.180045240520757"><ele>125.0</ele><time>2026-04-20T11:49:15.972Z</time></trkpt><trkpt lat="45.52399156563768" lon="10.179717274880934"><ele>125.0</ele><time>2026-04-20T11:49:16.972Z</time></trkpt><trkpt lat="45.52412158198588" lon="10.179395195261558"><ele>125.0</ele><time>2026-04-20T11:49:17.972Z</time></trkpt><trkpt lat="45.52425279172084" lon="10.179064584524273"><ele>125.0</ele><time>2026-04-20T11:49:18.972Z</time></trkpt><trkpt lat="45.524385841397695" lon="10.178753442429413"><ele>125.0</ele><time>2026-04-20T11:49:19.972Z</time></trkpt><trkpt lat="45.524520697201744" lon="10.178443147462623"><ele>125.0</ele><time>2026-04-20T11:49:20.972Z</time></trkpt><trkpt lat="45.52465239754411" lon="10.17811926403392"><ele>125.5</ele><time>2026-04-20T11:49:21.972Z</time></trkpt><trkpt lat="45.52478097771138" lon="10.177815114110984"><ele>126.0</ele><time>2026-04-20T11:49:22.972Z</time></trkpt><trkpt lat="45.52490369301371" lon="10.177510018459843"><ele>126.5</ele><time>2026-04-20T11:49:23.972Z</time></trkpt><trkpt lat="45.525028204660806" lon="10.177205352079408"><ele>127.0</ele><time>2026-04-20T11:49:24.972Z</time></trkpt><trkpt lat="45.52515531971555" lon="10.176895810238443"><ele>127.0</ele><time>2026-04-20T11:49:25.972Z</time></trkpt><trkpt lat="45.5252889741207" lon="10.17659612484306"><ele>127.0</ele><time>2026-04-20T11:49:26.972Z</time></trkpt><trkpt lat="45.52542365555942" lon="10.176281618580406"><ele>126.5</ele><time>2026-04-20T11:49:27.973Z</time></trkpt><trkpt lat="45.525559747128504" lon="10.175965745227701"><ele>126.0</ele><time>2026-04-20T11:49:28.973Z</time></trkpt><trkpt lat="45.52569879075701" lon="10.175655274683995"><ele>125.5</ele><time>2026-04-20T11:49:29.973Z</time></trkpt><trkpt lat="45.52583472880362" lon="10.175341587595174"><ele>125.0</ele><time>2026-04-20T11:49:30.973Z</time></trkpt><trkpt lat="45.525977951306416" lon="10.17503374269271"><ele>125.5</ele><time>2026-04-20T11:49:31.973Z</time></trkpt><trkpt lat="45.526119885024016" lon="10.174720285271542"><ele>126.0</ele><time>2026-04-20T11:49:32.973Z</time></trkpt><trkpt lat="45.526259239006265" lon="10.174412144948475"><ele>125.5</ele><time>2026-04-20T11:49:33.972Z</time></trkpt><trkpt lat="45.526398423560096" lon="10.174125472004029"><ele>125.0</ele><time>2026-04-20T11:49:34.972Z</time></trkpt><trkpt lat="45.52653861921499" lon="10.173833801603761"><ele>125.0</ele><time>2026-04-20T11:49:35.972Z</time></trkpt><trkpt lat="45.52668478630188" lon="10.173538704484328"><ele>125.0</ele><time>2026-04-20T11:49:36.973Z</time></trkpt><trkpt lat="45.52683362839719" lon="10.173238705349224"><ele>124.5</ele><time>2026-04-20T11:49:37.973Z</time></trkpt><trkpt lat="45.526984268864" lon="10.172936961794349"><ele>124.0</ele><time>2026-04-20T11:49:38.973Z</time></trkpt><trkpt lat="45.5271351699257" lon="10.17263851515691"><ele>125.0</ele><time>2026-04-20T11:49:39.973Z</time></trkpt><trkpt lat="45.52728740378444" lon="10.1723287747483"><ele>126.0</ele><time>2026-04-20T11:49:40.973Z</time></trkpt><trkpt lat="45.52743547949807" lon="10.17204154715542"><ele>126.0</ele><time>2026-04-20T11:49:41.973Z</time></trkpt><trkpt lat="45.52758649697744" lon="10.171743440430477"><ele>126.0</ele><time>2026-04-20T11:49:42.973Z</time></trkpt><trkpt lat="45.52773640466364" lon="10.171444782094232"><ele>126.0</ele><time>2026-04-20T11:49:43.973Z</time></trkpt><trkpt lat="45.52789077440172" lon="10.171145175101504"><ele>126.0</ele><time>2026-04-20T11:49:44.973Z</time></trkpt><trkpt lat="45.5280438879144" lon="10.17084996688634"><ele>126.5</ele><time>2026-04-20T11:49:45.973Z</time></trkpt><trkpt lat="45.52819934595316" lon="10.170555986793177"><ele>127.0</ele><time>2026-04-20T11:49:46.973Z</time></trkpt><trkpt lat="45.528349926339935" lon="10.170268710143043"><ele>127.0</ele><time>2026-04-20T11:49:47.973Z</time></trkpt><trkpt lat="45.528504375255906" lon="10.169982435527503"><ele>127.0</ele><time>2026-04-20T11:49:48.973Z</time></trkpt><trkpt lat="45.52865965932396" lon="10.169673247574508"><ele>128.0</ele><time>2026-04-20T11:49:49.973Z</time></trkpt><trkpt lat="45.52881136816115" lon="10.169377391417262"><ele>129.0</ele><time>2026-04-20T11:49:50.973Z</time></trkpt><trkpt lat="45.52896199701024" lon="10.169078027009578"><ele>128.5</ele><time>2026-04-20T11:49:51.973Z</time></trkpt><trkpt lat="45.529113003194176" lon="10.168785550961099"><ele>128.0</ele><time>2026-04-20T11:49:52.973Z</time></trkpt><trkpt lat="45.529262007252015" lon="10.168487335783714"><ele>128.0</ele><time>2026-04-20T11:49:53.973Z</time></trkpt><trkpt lat="45.52940989711552" lon="10.168194829673853"><ele>128.0</ele><time>2026-04-20T11:49:54.973Z</time></trkpt><trkpt lat="45.5295551465032" lon="10.167893823587406"><ele>127.0</ele><time>2026-04-20T11:49:55.973Z</time></trkpt><trkpt lat="45.52970681960998" lon="10.16759870128919"><ele>126.0</ele><time>2026-04-20T11:49:56.973Z</time></trkpt><trkpt lat="45.52985356734672" lon="10.167308874415946"><ele>126.0</ele><time>2026-04-20T11:49:57.973Z</time></trkpt><trkpt lat="45.530003266131224" lon="10.16702027100507"><ele>126.0</ele><time>2026-04-20T11:49:58.973Z</time></trkpt><trkpt lat="45.53015461535844" lon="10.166727273673219"><ele>126.0</ele><time>2026-04-20T11:49:59.973Z</time></trkpt><trkpt lat="45.53030250654406" lon="10.166432190770177"><ele>126.0</ele><time>2026-04-20T11:50:00.973Z</time></trkpt><trkpt lat="45.53044849919427" lon="10.166132168151313"><ele>126.0</ele><time>2026-04-20T11:50:01.973Z</time></trkpt><trkpt lat="45.53059907679437" lon="10.165827933564698"><ele>126.0</ele><time>2026-04-20T11:50:02.973Z</time></trkpt><trkpt lat="45.53074739234841" lon="10.165542249373367"><ele>126.0</ele><time>2026-04-20T11:50:03.973Z</time></trkpt><trkpt lat="45.53089589567509" lon="10.165247089990203"><ele>126.0</ele><time>2026-04-20T11:50:04.973Z</time></trkpt><trkpt lat="45.531044819096856" lon="10.16494461286134"><ele>126.5</ele><time>2026-04-20T11:50:05.973Z</time></trkpt><trkpt lat="45.531194707036654" lon="10.164646058410657"><ele>127.0</ele><time>2026-04-20T11:50:06.973Z</time></trkpt><trkpt lat="45.53134846410349" lon="10.164347217382995"><ele>127.0</ele><time>2026-04-20T11:50:07.973Z</time></trkpt><trkpt lat="45.53149893065823" lon="10.164050897589965"><ele>127.0</ele><time>2026-04-20T11:50:08.973Z</time></trkpt><trkpt lat="45.53164731601698" lon="10.163748842739336"><ele>127.0</ele><time>2026-04-20T11:50:09.973Z</time></trkpt><trkpt lat="45.53179393492108" lon="10.163435320832386"><ele>127.0</ele><time>2026-04-20T11:50:10.973Z</time></trkpt><trkpt lat="45.531940452017906" lon="10.163133490300694"><ele>125.0</ele><time>2026-04-20T11:50:11.973Z</time></trkpt><trkpt lat="45.53208772440377" lon="10.162823574682212"><ele>123.0</ele><time>2026-04-20T11:50:12.973Z</time></trkpt><trkpt lat="45.532244767060526" lon="10.162510390734935"><ele>124.0</ele><time>2026-04-20T11:50:13.973Z</time></trkpt><trkpt lat="45.53240328871066" lon="10.16220416109369"><ele>125.0</ele><time>2026-04-20T11:50:14.973Z</time></trkpt><trkpt lat="45.53256281547629" lon="10.161898487384192"><ele>125.0</ele><time>2026-04-20T11:50:15.973Z</time></trkpt><trkpt lat="45.53271430277162" lon="10.16157829489939"><ele>125.0</ele><time>2026-04-20T11:50:16.973Z</time></trkpt><trkpt lat="45.532870348770835" lon="10.161262950713239"><ele>124.5</ele><time>2026-04-20T11:50:17.973Z</time></trkpt><trkpt lat="45.53302517122593" lon="10.160967688727235"><ele>124.0</ele><time>2026-04-20T11:50:18.973Z</time></trkpt><trkpt lat="45.533187626506304" lon="10.160670423907584"><ele>123.0</ele><time>2026-04-20T11:50:19.973Z</time></trkpt><trkpt lat="45.53334858800884" lon="10.160374891756057"><ele>122.0</ele><time>2026-04-20T11:50:20.973Z</time></trkpt><trkpt lat="45.53350772752603" lon="10.160074764718813"><ele>123.0</ele><time>2026-04-20T11:50:21.973Z</time></trkpt><trkpt lat="45.533660045972624" lon="10.159785435097179"><ele>124.0</ele><time>2026-04-20T11:50:22.973Z</time></trkpt><trkpt lat="45.53381592152786" lon="10.159489549661556"><ele>124.0</ele><time>2026-04-20T11:50:23.973Z</time></trkpt><trkpt lat="45.53396931401734" lon="10.159197007696259"><ele>124.0</ele><time>2026-04-20T11:50:24.973Z</time></trkpt><trkpt lat="45.53412397859325" lon="10.15889513992834"><ele>124.0</ele><time>2026-04-20T11:50:25.973Z</time></trkpt><trkpt lat="45.53427617315268" lon="10.158602821640722"><ele>124.0</ele><time>2026-04-20T11:50:26.973Z</time></trkpt><trkpt lat="45.534422043776836" lon="10.158323568444208"><ele>123.5</ele><time>2026-04-20T11:50:27.973Z</time></trkpt><trkpt lat="45.534571232494" lon="10.158042593349881"><ele>123.0</ele><time>2026-04-20T11:50:28.973Z</time></trkpt><trkpt lat="45.53470978813778" lon="10.157780166315026"><ele>123.0</ele><time>2026-04-20T11:50:29.973Z</time></trkpt><trkpt lat="45.53485371650432" lon="10.157503993792352"><ele>123.0</ele><time>2026-04-20T11:50:30.973Z</time></trkpt><trkpt lat="45.53500457375305" lon="10.157213065225754"><ele>122.5</ele><time>2026-04-20T11:50:31.973Z</time></trkpt><trkpt lat="45.53516231398439" lon="10.156919664185299"><ele>122.0</ele><time>2026-04-20T11:50:32.973Z</time></trkpt><trkpt lat="45.53532073812654" lon="10.156613089164738"><ele>122.0</ele><time>2026-04-20T11:50:33.973Z</time></trkpt><trkpt lat="45.53547503908533" lon="10.156300083496893"><ele>122.0</ele><time>2026-04-20T11:50:34.973Z</time></trkpt><trkpt lat="45.53562920424811" lon="10.15599287745606"><ele>121.0</ele><time>2026-04-20T11:50:35.973Z</time></trkpt><trkpt lat="45.53578673363666" lon="10.15568508891359"><ele>120.0</ele><time>2026-04-20T11:50:36.973Z</time></trkpt><trkpt lat="45.53594494214379" lon="10.155380595245024"><ele>120.0</ele><time>2026-04-20T11:50:37.973Z</time></trkpt><trkpt lat="45.53609458248204" lon="10.155083882743236"><ele>120.0</ele><time>2026-04-20T11:50:38.973Z</time></trkpt><trkpt lat="45.536250675138376" lon="10.154779176576008"><ele>121.5</ele><time>2026-04-20T11:50:39.973Z</time></trkpt><trkpt lat="45.53640673627191" lon="10.154469823238681"><ele>123.0</ele><time>2026-04-20T11:50:40.973Z</time></trkpt><trkpt lat="45.53656811219851" lon="10.154152116694913"><ele>122.0</ele><time>2026-04-20T11:50:41.973Z</time></trkpt><trkpt lat="45.53673917577963" lon="10.153816691241312"><ele>121.0</ele><time>2026-04-20T11:50:42.973Z</time></trkpt><trkpt lat="45.53690974149196" lon="10.153487339817463"><ele>121.5</ele><time>2026-04-20T11:50:43.973Z</time></trkpt><trkpt lat="45.53706964356777" lon="10.153178253725683"><ele>122.0</ele><time>2026-04-20T11:50:44.973Z</time></trkpt><trkpt lat="45.53722364304005" lon="10.152881340017545"><ele>122.0</ele><time>2026-04-20T11:50:45.973Z</time></trkpt><trkpt lat="45.53737613106429" lon="10.152577246899787"><ele>122.0</ele><time>2026-04-20T11:50:46.973Z</time></trkpt><trkpt lat="45.53753308742448" lon="10.152280998914755"><ele>122.0</ele><time>2026-04-20T11:50:47.973Z</time></trkpt><trkpt lat="45.53768762406063" lon="10.151981469096446"><ele>122.0</ele><time>2026-04-20T11:50:48.973Z</time></trkpt><trkpt lat="45.5378412838822" lon="10.151682541157065"><ele>121.0</ele><time>2026-04-20T11:50:49.973Z</time></trkpt><trkpt lat="45.537987466709914" lon="10.151384517745207"><ele>120.0</ele><time>2026-04-20T11:50:50.973Z</time></trkpt><trkpt lat="45.53813782380465" lon="10.151090294498468"><ele>120.0</ele><time>2026-04-20T11:50:51.973Z</time></trkpt><trkpt lat="45.53828296656318" lon="10.150815344796333"><ele>120.0</ele><time>2026-04-20T11:50:52.973Z</time></trkpt><trkpt lat="45.538431010111225" lon="10.150523790383334"><ele>120.0</ele><time>2026-04-20T11:50:53.973Z</time></trkpt><trkpt lat="45.53858421400461" lon="10.15022656870445"><ele>120.0</ele><time>2026-04-20T11:50:54.973Z</time></trkpt><trkpt lat="45.53873449833669" lon="10.149938373452265"><ele>120.5</ele><time>2026-04-20T11:50:55.973Z</time></trkpt><trkpt lat="45.538885035098104" lon="10.149663892941756"><ele>121.0</ele><time>2026-04-20T11:50:56.973Z</time></trkpt><trkpt lat="45.53903057922197" lon="10.149398927784707"><ele>121.0</ele><time>2026-04-20T11:50:57.973Z</time></trkpt><trkpt lat="45.53918437629047" lon="10.149121798458424"><ele>121.0</ele><time>2026-04-20T11:50:58.973Z</time></trkpt><trkpt lat="45.53934179422991" lon="10.14882520306864"><ele>122.0</ele><time>2026-04-20T11:50:59.973Z</time></trkpt><trkpt lat="45.539496308673925" lon="10.148528471560388"><ele>123.0</ele><time>2026-04-20T11:51:00.973Z</time></trkpt><trkpt lat="45.53964174135584" lon="10.148258259504772"><ele>123.5</ele><time>2026-04-20T11:51:01.973Z</time></trkpt><trkpt lat="45.5397890251278" lon="10.14797654070574"><ele>124.0</ele><time>2026-04-20T11:51:02.973Z</time></trkpt><trkpt lat="45.539948818591725" lon="10.147676159009718"><ele>124.0</ele><time>2026-04-20T11:51:03.973Z</time></trkpt><trkpt lat="45.540115590739994" lon="10.147370817179583"><ele>124.0</ele><time>2026-04-20T11:51:04.973Z</time></trkpt><trkpt lat="45.54027274968766" lon="10.147090712764085"><ele>123.0</ele><time>2026-04-20T11:51:05.973Z</time></trkpt><trkpt lat="45.540426943060766" lon="10.14680593511876"><ele>122.0</ele><time>2026-04-20T11:51:06.973Z</time></trkpt><trkpt lat="45.540572739137154" lon="10.14650727661979"><ele>122.0</ele><time>2026-04-20T11:51:07.973Z</time></trkpt><trkpt lat="45.540721970864055" lon="10.146204397068606"><ele>122.0</ele><time>2026-04-20T11:51:08.973Z</time></trkpt><trkpt lat="45.5408762066429" lon="10.145910947588176"><ele>121.5</ele><time>2026-04-20T11:51:09.973Z</time></trkpt><trkpt lat="45.541032482438055" lon="10.14562563584899"><ele>121.0</ele><time>2026-04-20T11:51:10.973Z</time></trkpt><trkpt lat="45.54119405436133" lon="10.145337531707941"><ele>120.5</ele><time>2026-04-20T11:51:11.973Z</time></trkpt><trkpt lat="45.541351572925436" lon="10.145061420677848"><ele>120.0</ele><time>2026-04-20T11:51:12.973Z</time></trkpt><trkpt lat="45.54151053104956" lon="10.144789444927369"><ele>120.0</ele><time>2026-04-20T11:51:13.973Z</time></trkpt><trkpt lat="45.54167173852121" lon="10.14451149904719"><ele>120.0</ele><time>2026-04-20T11:51:14.973Z</time></trkpt><trkpt lat="45.54183481237236" lon="10.144235482347618"><ele>120.0</ele><time>2026-04-20T11:51:15.973Z</time></trkpt><trkpt lat="45.5419906888337" lon="10.143968213609892"><ele>120.0</ele><time>2026-04-20T11:51:16.973Z</time></trkpt><trkpt lat="45.54214265389911" lon="10.14368899734673"><ele>119.5</ele><time>2026-04-20T11:51:17.973Z</time></trkpt><trkpt lat="45.54229751742166" lon="10.143414507183708"><ele>119.0</ele><time>2026-04-20T11:51:18.973Z</time></trkpt><trkpt lat="45.54244507167339" lon="10.143142113877897"><ele>119.0</ele><time>2026-04-20T11:51:19.973Z</time></trkpt><trkpt lat="45.54259825919935" lon="10.142868285889271"><ele>119.0</ele><time>2026-04-20T11:51:20.973Z</time></trkpt><trkpt lat="45.542751151923184" lon="10.142593067771418"><ele>120.5</ele><time>2026-04-20T11:51:21.973Z</time></trkpt><trkpt lat="45.542906645629344" lon="10.142309349014884"><ele>122.0</ele><time>2026-04-20T11:51:22.973Z</time></trkpt><trkpt lat="45.5430489672637" lon="10.14204932343254"><ele>122.0</ele><time>2026-04-20T11:51:23.973Z</time></trkpt><trkpt lat="45.54319037827509" lon="10.14179035045601"><ele>122.0</ele><time>2026-04-20T11:51:24.973Z</time></trkpt><trkpt lat="45.543339601033594" lon="10.141515062475655"><ele>122.0</ele><time>2026-04-20T11:51:25.973Z</time></trkpt><trkpt lat="45.54349500329472" lon="10.141235188001362"><ele>122.0</ele><time>2026-04-20T11:51:26.973Z</time></trkpt><trkpt lat="45.54364543719078" lon="10.140954566590878"><ele>122.0</ele><time>2026-04-20T11:51:27.973Z</time></trkpt><trkpt lat="45.54379928790728" lon="10.140669954662785"><ele>122.0</ele><time>2026-04-20T11:51:28.973Z</time></trkpt><trkpt lat="45.54396128736083" lon="10.140384238875777"><ele>122.0</ele><time>2026-04-20T11:51:29.973Z</time></trkpt><trkpt lat="45.54411295440197" lon="10.140104659460665"><ele>122.0</ele><time>2026-04-20T11:51:30.973Z</time></trkpt><trkpt lat="45.54426115364902" lon="10.13983878184659"><ele>122.5</ele><time>2026-04-20T11:51:31.973Z</time></trkpt><trkpt lat="45.54441269773688" lon="10.139566928778192"><ele>123.0</ele><time>2026-04-20T11:51:32.973Z</time></trkpt><trkpt lat="45.54456277634468" lon="10.139298569012086"><ele>123.5</ele><time>2026-04-20T11:51:33.973Z</time></trkpt><trkpt lat="45.54471638876127" lon="10.139021680152608"><ele>124.0</ele><time>2026-04-20T11:51:34.973Z</time></trkpt><trkpt lat="45.54486759647298" lon="10.138753127264723"><ele>124.0</ele><time>2026-04-20T11:51:35.973Z</time></trkpt><trkpt lat="45.54502261660306" lon="10.13846966997503"><ele>124.0</ele><time>2026-04-20T11:51:36.972Z</time></trkpt><trkpt lat="45.545170756807934" lon="10.138189395855166"><ele>124.0</ele><time>2026-04-20T11:51:37.973Z</time></trkpt><trkpt lat="45.545328809335764" lon="10.137899825035422"><ele>124.0</ele><time>2026-04-20T11:51:38.973Z</time></trkpt><trkpt lat="45.545484208477454" lon="10.137620398877331"><ele>123.5</ele><time>2026-04-20T11:51:39.973Z</time></trkpt><trkpt lat="45.545637547503055" lon="10.137336914614538"><ele>123.0</ele><time>2026-04-20T11:51:40.973Z</time></trkpt><trkpt lat="45.54579111238438" lon="10.137055567619017"><ele>123.0</ele><time>2026-04-20T11:51:41.973Z</time></trkpt><trkpt lat="45.54594731659123" lon="10.136772722235992"><ele>123.0</ele><time>2026-04-20T11:51:42.972Z</time></trkpt><trkpt lat="45.546101571252315" lon="10.136486358944314"><ele>123.5</ele><time>2026-04-20T11:51:43.973Z</time></trkpt><trkpt lat="45.546254509392696" lon="10.136199805575945"><ele>124.0</ele><time>2026-04-20T11:51:44.973Z</time></trkpt><trkpt lat="45.54640886676965" lon="10.135918936626325"><ele>125.0</ele><time>2026-04-20T11:51:45.973Z</time></trkpt><trkpt lat="45.546560539924734" lon="10.135648732784498"><ele>126.0</ele><time>2026-04-20T11:51:46.973Z</time></trkpt><trkpt lat="45.54671386163594" lon="10.135377486896889"><ele>126.0</ele><time>2026-04-20T11:51:47.973Z</time></trkpt><trkpt lat="45.5468643755421" lon="10.135114866248799"><ele>126.0</ele><time>2026-04-20T11:51:48.973Z</time></trkpt><trkpt lat="45.547015213280716" lon="10.134849360935712"><ele>127.0</ele><time>2026-04-20T11:51:49.973Z</time></trkpt><trkpt lat="45.54716774531719" lon="10.134581825856435"><ele>128.0</ele><time>2026-04-20T11:51:50.973Z</time></trkpt><trkpt lat="45.5473169283424" lon="10.134310989802986"><ele>129.0</ele><time>2026-04-20T11:51:51.973Z</time></trkpt><trkpt lat="45.54746879773769" lon="10.134035482455618"><ele>130.0</ele><time>2026-04-20T11:51:52.973Z</time></trkpt><trkpt lat="45.54762226129369" lon="10.13377351284479"><ele>130.0</ele><time>2026-04-20T11:51:53.973Z</time></trkpt><trkpt lat="45.547771767580876" lon="10.133539563285632"><ele>130.0</ele><time>2026-04-20T11:51:54.973Z</time></trkpt><trkpt lat="45.54792804371862" lon="10.133291397383893"><ele>130.5</ele><time>2026-04-20T11:51:55.973Z</time></trkpt><trkpt lat="45.54809611189254" lon="10.133051782595638"><ele>131.0</ele><time>2026-04-20T11:51:56.973Z</time></trkpt><trkpt lat="45.548271345180645" lon="10.132823441579019"><ele>131.0</ele><time>2026-04-20T11:51:57.973Z</time></trkpt><trkpt lat="45.54844270184366" lon="10.132613165107294"><ele>131.0</ele><time>2026-04-20T11:51:58.973Z</time></trkpt><trkpt lat="45.54860818584732" lon="10.132409417593486"><ele>131.0</ele><time>2026-04-20T11:51:59.973Z</time></trkpt><trkpt lat="45.5487832839532" lon="10.132205980747875"><ele>131.0</ele><time>2026-04-20T11:52:00.973Z</time></trkpt><trkpt lat="45.548968051925144" lon="10.132006491638334"><ele>131.0</ele><time>2026-04-20T11:52:01.973Z</time></trkpt><trkpt lat="45.549163476786184" lon="10.131813781618602"><ele>131.0</ele><time>2026-04-20T11:52:02.973Z</time></trkpt><trkpt lat="45.5493679707184" lon="10.131623713758383"><ele>131.0</ele><time>2026-04-20T11:52:03.973Z</time></trkpt><trkpt lat="45.54957868925596" lon="10.13144386488493"><ele>131.5</ele><time>2026-04-20T11:52:04.973Z</time></trkpt><trkpt lat="45.54978797803598" lon="10.13127055725728"><ele>132.0</ele><time>2026-04-20T11:52:05.973Z</time></trkpt><trkpt lat="45.54999621731687" lon="10.1311158835392"><ele>132.0</ele><time>2026-04-20T11:52:06.973Z</time></trkpt><trkpt lat="45.55020319728239" lon="10.130967281210667"><ele>132.0</ele><time>2026-04-20T11:52:07.973Z</time></trkpt><trkpt lat="45.55041553151792" lon="10.130824625674114"><ele>131.5</ele><time>2026-04-20T11:52:08.973Z</time></trkpt><trkpt lat="45.55062387150215" lon="10.130699383621764"><ele>131.0</ele><time>2026-04-20T11:52:09.973Z</time></trkpt><trkpt lat="45.55082960737453" lon="10.130573660273244"><ele>131.0</ele><time>2026-04-20T11:52:10.973Z</time></trkpt><trkpt lat="45.55103479740525" lon="10.130443435582755"><ele>131.0</ele><time>2026-04-20T11:52:11.973Z</time></trkpt><trkpt lat="45.55124039253427" lon="10.130308261099273"><ele>130.33333333333331</ele><time>2026-04-20T11:52:12.973Z</time></trkpt><trkpt lat="45.55143005677263" lon="10.130191181496821"><ele>129.66666666666666</ele><time>2026-04-20T11:52:13.973Z</time></trkpt><trkpt lat="45.55161037413799" lon="10.130085350141584"><ele>129.0</ele><time>2026-04-20T11:52:14.973Z</time></trkpt><trkpt lat="45.551787806954216" lon="10.129972778461699"><ele>129.66666666666666</ele><time>2026-04-20T11:52:15.973Z</time></trkpt><trkpt lat="45.55196738304492" lon="10.129864149052668"><ele>130.33333333333331</ele><time>2026-04-20T11:52:16.973Z</time></trkpt><trkpt lat="45.55214397160414" lon="10.12976251188416"><ele>131.0</ele><time>2026-04-20T11:52:17.973Z</time></trkpt><trkpt lat="45.552343055532205" lon="10.129692375937365"><ele>131.0</ele><time>2026-04-20T11:52:18.973Z</time></trkpt><trkpt lat="45.552534094822796" lon="10.129568399601292"><ele>131.0</ele><time>2026-04-20T11:52:19.973Z</time></trkpt><trkpt lat="45.552727976232426" lon="10.129423294621652"><ele>131.0</ele><time>2026-04-20T11:52:20.973Z</time></trkpt><trkpt lat="45.552919178379206" lon="10.129262287364924"><ele>131.0</ele><time>2026-04-20T11:52:21.973Z</time></trkpt><trkpt lat="45.553113063136074" lon="10.129106603193986"><ele>131.0</ele><time>2026-04-20T11:52:22.973Z</time></trkpt><trkpt lat="45.5533931755959" lon="10.129129203849693"><ele>131.0</ele><time>2026-04-20T11:52:23.973Z</time></trkpt><trkpt lat="45.55363532142627" lon="10.12906298310695"><ele>131.0</ele><time>2026-04-20T11:52:24.973Z</time></trkpt><trkpt lat="45.55388339489626" lon="10.128999190593406"><ele>131.0</ele><time>2026-04-20T11:52:25.973Z</time></trkpt><trkpt lat="45.55414281011357" lon="10.128950212575413"><ele>131.0</ele><time>2026-04-20T11:52:26.973Z</time></trkpt><trkpt lat="45.554390441278244" lon="10.128904536071369"><ele>131.5</ele><time>2026-04-20T11:52:27.973Z</time></trkpt><trkpt lat="45.55464326448003" lon="10.12886094119822"><ele>132.0</ele><time>2026-04-20T11:52:28.973Z</time></trkpt><trkpt lat="45.55489926541499" lon="10.128810151620195"><ele>132.0</ele><time>2026-04-20T11:52:29.973Z</time></trkpt><trkpt lat="45.55513086515376" lon="10.128771221621996"><ele>132.0</ele><time>2026-04-20T11:52:30.973Z</time></trkpt><trkpt lat="45.55535753518791" lon="10.128741121179997"><ele>132.5</ele><time>2026-04-20T11:52:31.973Z</time></trkpt><trkpt lat="45.55558273120064" lon="10.128715972190804"><ele>133.0</ele><time>2026-04-20T11:52:32.973Z</time></trkpt><trkpt lat="45.55581973668266" lon="10.128673813684882"><ele>133.0</ele><time>2026-04-20T11:52:33.973Z</time></trkpt><trkpt lat="45.55606211964793" lon="10.128633049623415"><ele>133.0</ele><time>2026-04-20T11:52:34.973Z</time></trkpt><trkpt lat="45.55631223736426" lon="10.128590274752659"><ele>133.0</ele><time>2026-04-20T11:52:35.973Z</time></trkpt><trkpt lat="45.55656752174131" lon="10.128542929203398"><ele>133.0</ele><time>2026-04-20T11:52:36.973Z</time></trkpt><trkpt lat="45.55681616936046" lon="10.128502667219877"><ele>133.5</ele><time>2026-04-20T11:52:37.973Z</time></trkpt><trkpt lat="45.55705872008392" lon="10.128461051113137"><ele>134.0</ele><time>2026-04-20T11:52:38.973Z</time></trkpt><trkpt lat="45.557282215807575" lon="10.128423670418778"><ele>134.0</ele><time>2026-04-20T11:52:39.973Z</time></trkpt><trkpt lat="45.557502559511654" lon="10.128395757803837"><ele>134.0</ele><time>2026-04-20T11:52:40.973Z</time></trkpt><trkpt lat="45.557723060365966" lon="10.128360621264942"><ele>134.0</ele><time>2026-04-20T11:52:41.973Z</time></trkpt><trkpt lat="45.557954890226064" lon="10.128323616565337"><ele>134.66666666666666</ele><time>2026-04-20T11:52:42.973Z</time></trkpt><trkpt lat="45.558182717540596" lon="10.128286105746222"><ele>135.33333333333334</ele><time>2026-04-20T11:52:43.973Z</time></trkpt><trkpt lat="45.558398429407575" lon="10.128247657472993"><ele>136.0</ele><time>2026-04-20T11:52:44.973Z</time></trkpt><trkpt lat="45.55861932492999" lon="10.128204469280732"><ele>136.5</ele><time>2026-04-20T11:52:45.973Z</time></trkpt><trkpt lat="45.558845392458466" lon="10.128164897117252"><ele>137.0</ele><time>2026-04-20T11:52:46.973Z</time></trkpt><trkpt lat="45.55907925818979" lon="10.128123758678642"><ele>137.0</ele><time>2026-04-20T11:52:47.973Z</time></trkpt><trkpt lat="45.559305832981934" lon="10.12807472715796"><ele>137.0</ele><time>2026-04-20T11:52:48.973Z</time></trkpt><trkpt lat="45.55952900619438" lon="10.128029595127378"><ele>137.0</ele><time>2026-04-20T11:52:49.973Z</time></trkpt><trkpt lat="45.55974640836065" lon="10.127982001145007"><ele>137.0</ele><time>2026-04-20T11:52:50.973Z</time></trkpt><trkpt lat="45.55996885701898" lon="10.127932624048396"><ele>137.0</ele><time>2026-04-20T11:52:51.973Z</time></trkpt><trkpt lat="45.560197236633854" lon="10.127878679144917"><ele>137.5</ele><time>2026-04-20T11:52:52.973Z</time></trkpt><trkpt lat="45.56042817816427" lon="10.12782200003668"><ele>138.0</ele><time>2026-04-20T11:52:53.973Z</time></trkpt><trkpt lat="45.56066350350623" lon="10.127756759936617"><ele>138.0</ele><time>2026-04-20T11:52:54.973Z</time></trkpt><trkpt lat="45.56088989547916" lon="10.127688440674893"><ele>138.0</ele><time>2026-04-20T11:52:55.973Z</time></trkpt><trkpt lat="45.5611150015294" lon="10.127618294446771"><ele>137.66666666666666</ele><time>2026-04-20T11:52:56.973Z</time></trkpt><trkpt lat="45.56133201622545" lon="10.127549883376462"><ele>137.33333333333331</ele><time>2026-04-20T11:52:57.973Z</time></trkpt><trkpt lat="45.56154128170124" lon="10.127481110910546"><ele>137.0</ele><time>2026-04-20T11:52:58.973Z</time></trkpt><trkpt lat="45.56174617892154" lon="10.12742201980733"><ele>136.66666666666666</ele><time>2026-04-20T11:52:59.973Z</time></trkpt><trkpt lat="45.56196118335321" lon="10.127349699656861"><ele>136.33333333333334</ele><time>2026-04-20T11:53:00.973Z</time></trkpt><trkpt lat="45.56216789308826" lon="10.127294405839738"><ele>136.0</ele><time>2026-04-20T11:53:01.973Z</time></trkpt><trkpt lat="45.56238107979776" lon="10.127230387791892"><ele>136.66666666666669</ele><time>2026-04-20T11:53:02.973Z</time></trkpt><trkpt lat="45.562591003531956" lon="10.12716726347975"><ele>137.33333333333334</ele><time>2026-04-20T11:53:03.973Z</time></trkpt><trkpt lat="45.56280113056253" lon="10.12709948458684"><ele>138.0</ele><time>2026-04-20T11:53:04.973Z</time></trkpt><trkpt lat="45.56299014411485" lon="10.127049201863512"><ele>138.0</ele><time>2026-04-20T11:53:05.973Z</time></trkpt><trkpt lat="45.5631970715146" lon="10.126972745682108"><ele>138.0</ele><time>2026-04-20T11:53:06.973Z</time></trkpt><trkpt lat="45.56341434437105" lon="10.12689874402965"><ele>138.0</ele><time>2026-04-20T11:53:07.973Z</time></trkpt><trkpt lat="45.56362820595646" lon="10.126822653000536"><ele>138.33333333333334</ele><time>2026-04-20T11:53:08.973Z</time></trkpt><trkpt lat="45.56382694727264" lon="10.12675597715493"><ele>138.66666666666669</ele><time>2026-04-20T11:53:09.973Z</time></trkpt><trkpt lat="45.56401608766848" lon="10.12669482801647"><ele>139.0</ele><time>2026-04-20T11:53:10.973Z</time></trkpt><trkpt lat="45.56419454332246" lon="10.126638452508914"><ele>139.0</ele><time>2026-04-20T11:53:11.973Z</time></trkpt><trkpt lat="45.56438189743682" lon="10.12656936749815"><ele>139.0</ele><time>2026-04-20T11:53:12.973Z</time></trkpt><trkpt lat="45.56455073960491" lon="10.126511204391996"><ele>139.0</ele><time>2026-04-20T11:53:13.973Z</time></trkpt><trkpt lat="45.56472534582077" lon="10.126453383018823"><ele>139.0</ele><time>2026-04-20T11:53:14.973Z</time></trkpt><trkpt lat="45.56489927157308" lon="10.126395173909534"><ele>139.0</ele><time>2026-04-20T11:53:15.973Z</time></trkpt><trkpt lat="45.565069211679" lon="10.126339836493104"><ele>139.0</ele><time>2026-04-20T11:53:16.973Z</time></trkpt><trkpt lat="45.56523376051527" lon="10.126289430202476"><ele>139.66666666666669</ele><time>2026-04-20T11:53:17.973Z</time></trkpt><trkpt lat="45.56540330989787" lon="10.126244124754907"><ele>140.33333333333334</ele><time>2026-04-20T11:53:18.973Z</time></trkpt><trkpt lat="45.56557609462276" lon="10.126186682741407"><ele>141.0</ele><time>2026-04-20T11:53:19.973Z</time></trkpt><trkpt lat="45.56574208030999" lon="10.12612974818215"><ele>141.0</ele><time>2026-04-20T11:53:20.973Z</time></trkpt><trkpt lat="45.56589446347348" lon="10.126081631323938"><ele>141.0</ele><time>2026-04-20T11:53:21.973Z</time></trkpt><trkpt lat="45.56605341378921" lon="10.126026322360472"><ele>141.0</ele><time>2026-04-20T11:53:22.973Z</time></trkpt><trkpt lat="45.566195488593124" lon="10.125989742860929"><ele>141.0</ele><time>2026-04-20T11:53:23.973Z</time></trkpt><trkpt lat="45.566353090915875" lon="10.125941511436023"><ele>141.0</ele><time>2026-04-20T11:53:24.973Z</time></trkpt><trkpt lat="45.56651887246679" lon="10.125885396534915"><ele>141.0</ele><time>2026-04-20T11:53:25.973Z</time></trkpt><trkpt lat="45.56666432141831" lon="10.125847116580676"><ele>141.0</ele><time>2026-04-20T11:53:26.973Z</time></trkpt><trkpt lat="45.5668008324148" lon="10.125808228634071"><ele>141.0</ele><time>2026-04-20T11:53:27.973Z</time></trkpt><trkpt lat="45.56694754822225" lon="10.125750278484196"><ele>141.0</ele><time>2026-04-20T11:53:28.973Z</time></trkpt><trkpt lat="45.567078607205836" lon="10.125708410533196"><ele>141.0</ele><time>2026-04-20T11:53:29.973Z</time></trkpt><trkpt lat="45.56720924140769" lon="10.125668919025083"><ele>141.0</ele><time>2026-04-20T11:53:30.973Z</time></trkpt><trkpt lat="45.567345713422846" lon="10.12562059019488"><ele>141.0</ele><time>2026-04-20T11:53:31.973Z</time></trkpt><trkpt lat="45.567488424428824" lon="10.125564799814832"><ele>141.0</ele><time>2026-04-20T11:53:32.973Z</time></trkpt><trkpt lat="45.56763014331831" lon="10.125521006738476"><ele>141.0</ele><time>2026-04-20T11:53:33.973Z</time></trkpt><trkpt lat="45.56776985011295" lon="10.12548156916938"><ele>141.25</ele><time>2026-04-20T11:53:34.973Z</time></trkpt><trkpt lat="45.567900810211114" lon="10.125439577691935"><ele>141.5</ele><time>2026-04-20T11:53:35.973Z</time></trkpt><trkpt lat="45.568033334399225" lon="10.125394157868179"><ele>141.75</ele><time>2026-04-20T11:53:36.973Z</time></trkpt><trkpt lat="45.568159362241154" lon="10.125355758779358"><ele>142.0</ele><time>2026-04-20T11:53:37.973Z</time></trkpt><trkpt lat="45.56828652665043" lon="10.125319630169725"><ele>142.0</ele><time>2026-04-20T11:53:38.973Z</time></trkpt><trkpt lat="45.56843616551536" lon="10.125265697237595"><ele>142.0</ele><time>2026-04-20T11:53:39.972Z</time></trkpt><trkpt lat="45.56857429996394" lon="10.125221278091923"><ele>142.0</ele><time>2026-04-20T11:53:40.973Z</time></trkpt><trkpt lat="45.56872007794299" lon="10.12516915313367"><ele>142.0</ele><time>2026-04-20T11:53:41.973Z</time></trkpt><trkpt lat="45.568864801862546" lon="10.125118265395566"><ele>143.0</ele><time>2026-04-20T11:53:42.973Z</time></trkpt><trkpt lat="45.56901550553517" lon="10.125067328888504"><ele>144.0</ele><time>2026-04-20T11:53:43.972Z</time></trkpt><trkpt lat="45.56918015145693" lon="10.125009510670315"><ele>145.0</ele><time>2026-04-20T11:53:44.972Z</time></trkpt><trkpt lat="45.56934641419684" lon="10.12495441160993"><ele>145.0</ele><time>2026-04-20T11:53:45.973Z</time></trkpt><trkpt lat="45.56949920224623" lon="10.124910456163981"><ele>145.0</ele><time>2026-04-20T11:53:46.972Z</time></trkpt><trkpt lat="45.56964347467543" lon="10.124866617084681"><ele>145.0</ele><time>2026-04-20T11:53:47.972Z</time></trkpt><trkpt lat="45.56979083314723" lon="10.124820409813855"><ele>145.0</ele><time>2026-04-20T11:53:48.973Z</time></trkpt><trkpt lat="45.56994412132633" lon="10.124766994710235"><ele>145.0</ele><time>2026-04-20T11:53:49.973Z</time></trkpt><trkpt lat="45.57010890416395" lon="10.124710346907369"><ele>145.0</ele><time>2026-04-20T11:53:50.973Z</time></trkpt><trkpt lat="45.570275417265805" lon="10.124660668899736"><ele>145.66666666666669</ele><time>2026-04-20T11:53:51.973Z</time></trkpt><trkpt lat="45.57046718954233" lon="10.124590687299767"><ele>146.33333333333334</ele><time>2026-04-20T11:53:52.972Z</time></trkpt><trkpt lat="45.570665071499846" lon="10.124522443845132"><ele>147.0</ele><time>2026-04-20T11:53:53.972Z</time></trkpt><trkpt lat="45.5708619914088" lon="10.12444676394835"><ele>147.0</ele><time>2026-04-20T11:53:54.972Z</time></trkpt><trkpt lat="45.57104887550314" lon="10.124380620171642"><ele>147.0</ele><time>2026-04-20T11:53:55.972Z</time></trkpt><trkpt lat="45.57122333374624" lon="10.124302413499088"><ele>147.0</ele><time>2026-04-20T11:53:56.972Z</time></trkpt><trkpt lat="45.57138414539764" lon="10.124214835452637"><ele>147.0</ele><time>2026-04-20T11:53:57.972Z</time></trkpt><trkpt lat="45.57154902701716" lon="10.124109610451166"><ele>147.0</ele><time>2026-04-20T11:53:58.972Z</time></trkpt><trkpt lat="45.57170987270961" lon="10.12398033231781"><ele>147.0</ele><time>2026-04-20T11:53:59.972Z</time></trkpt><trkpt lat="45.57186535232539" lon="10.123839898213024"><ele>147.33333333333334</ele><time>2026-04-20T11:54:00.972Z</time></trkpt><trkpt lat="45.57200885778504" lon="10.123688830382218"><ele>147.66666666666669</ele><time>2026-04-20T11:54:01.972Z</time></trkpt><trkpt lat="45.5721441069084" lon="10.123549057490463"><ele>148.0</ele><time>2026-04-20T11:54:02.972Z</time></trkpt><trkpt lat="45.57228038048869" lon="10.12339536575801"><ele>147.66666666666669</ele><time>2026-04-20T11:54:03.972Z</time></trkpt><trkpt lat="45.572414709923166" lon="10.12321195914743"><ele>147.33333333333334</ele><time>2026-04-20T11:54:04.972Z</time></trkpt><trkpt lat="45.57254831216363" lon="10.123000799192498"><ele>147.0</ele><time>2026-04-20T11:54:05.972Z</time></trkpt><trkpt lat="45.57265354451089" lon="10.122795842865262"><ele>147.0</ele><time>2026-04-20T11:54:06.972Z</time></trkpt><trkpt lat="45.57274502307554" lon="10.122607801904906"><ele>147.0</ele><time>2026-04-20T11:54:07.972Z</time></trkpt><trkpt lat="45.572828949365075" lon="10.122423370773415"><ele>147.0</ele><time>2026-04-20T11:54:08.972Z</time></trkpt><trkpt lat="45.57291972906938" lon="10.122237086102261"><ele>147.0</ele><time>2026-04-20T11:54:09.972Z</time></trkpt><trkpt lat="45.57302839646765" lon="10.122025797514498"><ele>147.0</ele><time>2026-04-20T11:54:10.972Z</time></trkpt><trkpt lat="45.57313176865504" lon="10.121827703752542"><ele>147.0</ele><time>2026-04-20T11:54:11.972Z</time></trkpt><trkpt lat="45.57322495967591" lon="10.121649192572987"><ele>147.33333333333334</ele><time>2026-04-20T11:54:12.972Z</time></trkpt><trkpt lat="45.573313336385844" lon="10.121483543642023"><ele>147.66666666666669</ele><time>2026-04-20T11:54:13.972Z</time></trkpt><trkpt lat="45.57341566830913" lon="10.12130040495342"><ele>148.0</ele><time>2026-04-20T11:54:14.972Z</time></trkpt><trkpt lat="45.573529599273684" lon="10.121113487050437"><ele>148.0</ele><time>2026-04-20T11:54:15.972Z</time></trkpt><trkpt lat="45.573644890272064" lon="10.120927380865025"><ele>148.0</ele><time>2026-04-20T11:54:16.972Z</time></trkpt><trkpt lat="45.57376512769888" lon="10.120744245555036"><ele>148.0</ele><time>2026-04-20T11:54:17.972Z</time></trkpt><trkpt lat="45.573884483779466" lon="10.120574129950326"><ele>148.0</ele><time>2026-04-20T11:54:18.972Z</time></trkpt><trkpt lat="45.57399859151696" lon="10.120425414103423"><ele>148.0</ele><time>2026-04-20T11:54:19.972Z</time></trkpt><trkpt lat="45.57411591712785" lon="10.120284235225338"><ele>148.0</ele><time>2026-04-20T11:54:20.972Z</time></trkpt><trkpt lat="45.57422859598083" lon="10.12015692670817"><ele>148.0</ele><time>2026-04-20T11:54:21.972Z</time></trkpt><trkpt lat="45.57434377119912" lon="10.120026688860479"><ele>148.0</ele><time>2026-04-20T11:54:22.972Z</time></trkpt><trkpt lat="45.57445549044859" lon="10.119898948591992"><ele>148.0</ele><time>2026-04-20T11:54:23.972Z</time></trkpt><trkpt lat="45.57455215672327" lon="10.119777047263327"><ele>148.0</ele><time>2026-04-20T11:54:24.972Z</time></trkpt><trkpt lat="45.57467166323955" lon="10.119636653209525"><ele>148.66666666666669</ele><time>2026-04-20T11:54:25.972Z</time></trkpt><trkpt lat="45.57479019111985" lon="10.119500205941666"><ele>149.33333333333334</ele><time>2026-04-20T11:54:26.972Z</time></trkpt><trkpt lat="45.5749046103409" lon="10.119365262931996"><ele>150.0</ele><time>2026-04-20T11:54:27.972Z</time></trkpt><trkpt lat="45.5750212318259" lon="10.119226930269203"><ele>150.0</ele><time>2026-04-20T11:54:28.972Z</time></trkpt><trkpt lat="45.57513478017674" lon="10.119084270704967"><ele>150.0</ele><time>2026-04-20T11:54:29.972Z</time></trkpt><trkpt lat="45.57525092806987" lon="10.118931668162627"><ele>150.0</ele><time>2026-04-20T11:54:30.972Z</time></trkpt><trkpt lat="45.57536255685318" lon="10.118773207829406"><ele>150.33333333333334</ele><time>2026-04-20T11:54:31.972Z</time></trkpt><trkpt lat="45.57548492888087" lon="10.118611502154465"><ele>150.66666666666669</ele><time>2026-04-20T11:54:32.972Z</time></trkpt><trkpt lat="45.57562430467252" lon="10.11844295487611"><ele>151.0</ele><time>2026-04-20T11:54:33.972Z</time></trkpt><trkpt lat="45.57577029438585" lon="10.118275655316538"><ele>151.0</ele><time>2026-04-20T11:54:34.972Z</time></trkpt><trkpt lat="45.575912492464326" lon="10.11811385235668"><ele>151.0</ele><time>2026-04-20T11:54:35.972Z</time></trkpt><trkpt lat="45.57605136740224" lon="10.117942143607767"><ele>151.0</ele><time>2026-04-20T11:54:36.972Z</time></trkpt><trkpt lat="45.57619979661677" lon="10.11775918722394"><ele>151.0</ele><time>2026-04-20T11:54:37.972Z</time></trkpt><trkpt lat="45.576343404049936" lon="10.117581837241426"><ele>151.0</ele><time>2026-04-20T11:54:38.972Z</time></trkpt><trkpt lat="45.57650309596638" lon="10.117394756260731"><ele>151.0</ele><time>2026-04-20T11:54:39.972Z</time></trkpt><trkpt lat="45.576659472491805" lon="10.117208951727731"><ele>151.33333333333334</ele><time>2026-04-20T11:54:40.972Z</time></trkpt><trkpt lat="45.5768142517729" lon="10.117026612538124"><ele>151.66666666666666</ele><time>2026-04-20T11:54:41.972Z</time></trkpt><trkpt lat="45.576966669099626" lon="10.116853043695102"><ele>152.0</ele><time>2026-04-20T11:54:42.972Z</time></trkpt><trkpt lat="45.577117440270314" lon="10.116677678077966"><ele>152.33333333333331</ele><time>2026-04-20T11:54:43.972Z</time></trkpt><trkpt lat="45.57726949925136" lon="10.116494238235791"><ele>152.66666666666666</ele><time>2026-04-20T11:54:44.972Z</time></trkpt><trkpt lat="45.57742621474195" lon="10.11630225076598"><ele>153.0</ele><time>2026-04-20T11:54:45.972Z</time></trkpt><trkpt lat="45.577588116873" lon="10.116112853751767"><ele>153.0</ele><time>2026-04-20T11:54:46.972Z</time></trkpt><trkpt lat="45.57775141751014" lon="10.115919042675557"><ele>153.0</ele><time>2026-04-20T11:54:47.972Z</time></trkpt><trkpt lat="45.57792117852703" lon="10.115718855535459"><ele>153.0</ele><time>2026-04-20T11:54:48.972Z</time></trkpt><trkpt lat="45.57809096053909" lon="10.115520436518773"><ele>153.66666666666666</ele><time>2026-04-20T11:54:49.972Z</time></trkpt><trkpt lat="45.578261542768345" lon="10.115325921928406"><ele>154.33333333333331</ele><time>2026-04-20T11:54:50.972Z</time></trkpt><trkpt lat="45.57842889658788" lon="10.115131601717152"><ele>155.0</ele><time>2026-04-20T11:54:51.972Z</time></trkpt><trkpt lat="45.57859622278737" lon="10.114932808409467"><ele>155.5</ele><time>2026-04-20T11:54:52.972Z</time></trkpt><trkpt lat="45.578762367568366" lon="10.114727595341467"><ele>156.0</ele><time>2026-04-20T11:54:53.972Z</time></trkpt><trkpt lat="45.578937102034786" lon="10.114514122857843"><ele>156.0</ele><time>2026-04-20T11:54:54.972Z</time></trkpt><trkpt lat="45.579116979095865" lon="10.114295221201889"><ele>156.0</ele><time>2026-04-20T11:54:55.972Z</time></trkpt><trkpt lat="45.57929927049719" lon="10.114087865264269"><ele>156.0</ele><time>2026-04-20T11:54:56.972Z</time></trkpt><trkpt lat="45.57946687304782" lon="10.113893849507336"><ele>156.0</ele><time>2026-04-20T11:54:57.972Z</time></trkpt><trkpt lat="45.579628054003386" lon="10.113687821607085"><ele>156.0</ele><time>2026-04-20T11:54:58.972Z</time></trkpt><trkpt lat="45.579796341746494" lon="10.113484083768641"><ele>157.0</ele><time>2026-04-20T11:54:59.972Z</time></trkpt><trkpt lat="45.579964025958226" lon="10.113284630505786"><ele>158.0</ele><time>2026-04-20T11:55:00.972Z</time></trkpt><trkpt lat="45.58014314778887" lon="10.113066531620177"><ele>158.0</ele><time>2026-04-20T11:55:01.972Z</time></trkpt><trkpt lat="45.58031873453542" lon="10.112857520683017"><ele>158.0</ele><time>2026-04-20T11:55:02.972Z</time></trkpt><trkpt lat="45.580482729698694" lon="10.112660508473956"><ele>158.0</ele><time>2026-04-20T11:55:03.972Z</time></trkpt><trkpt lat="45.58064781576449" lon="10.112459728002495"><ele>158.66666666666666</ele><time>2026-04-20T11:55:04.972Z</time></trkpt><trkpt lat="45.58081967148435" lon="10.112260819323014"><ele>159.33333333333334</ele><time>2026-04-20T11:55:05.972Z</time></trkpt><trkpt lat="45.58098640884895" lon="10.112065185735975"><ele>160.0</ele><time>2026-04-20T11:55:06.972Z</time></trkpt><trkpt lat="45.581153088726964" lon="10.1118666040911"><ele>159.66666666666669</ele><time>2026-04-20T11:55:07.972Z</time></trkpt><trkpt lat="45.58131543965246" lon="10.111680447467467"><ele>159.33333333333334</ele><time>2026-04-20T11:55:08.972Z</time></trkpt><trkpt lat="45.581483403103306" lon="10.111484523867333"><ele>159.0</ele><time>2026-04-20T11:55:09.972Z</time></trkpt><trkpt lat="45.58165172018446" lon="10.11128654220586"><ele>160.0</ele><time>2026-04-20T11:55:10.972Z</time></trkpt><trkpt lat="45.581822449964854" lon="10.111086287592276"><ele>161.0</ele><time>2026-04-20T11:55:11.972Z</time></trkpt><trkpt lat="45.58200143785733" lon="10.110874626622454"><ele>161.5</ele><time>2026-04-20T11:55:12.972Z</time></trkpt><trkpt lat="45.58218130214668" lon="10.110664261631452"><ele>162.0</ele><time>2026-04-20T11:55:13.972Z</time></trkpt><trkpt lat="45.58236186960022" lon="10.110458925134408"><ele>162.0</ele><time>2026-04-20T11:55:14.972Z</time></trkpt><trkpt lat="45.58254190212857" lon="10.110251410239"><ele>162.0</ele><time>2026-04-20T11:55:15.972Z</time></trkpt><trkpt lat="45.58271570267054" lon="10.11004326405468"><ele>162.66666666666666</ele><time>2026-04-20T11:55:16.972Z</time></trkpt><trkpt lat="45.58288647937025" lon="10.109836174389379"><ele>163.33333333333331</ele><time>2026-04-20T11:55:17.972Z</time></trkpt><trkpt lat="45.58305607362517" lon="10.109629797629898"><ele>164.0</ele><time>2026-04-20T11:55:18.972Z</time></trkpt><trkpt lat="45.58322980099369" lon="10.109425147675864"><ele>164.0</ele><time>2026-04-20T11:55:19.972Z</time></trkpt><trkpt lat="45.58341157876276" lon="10.109213513654245"><ele>164.0</ele><time>2026-04-20T11:55:20.972Z</time></trkpt><trkpt lat="45.583601716950604" lon="10.108992153958315"><ele>164.0</ele><time>2026-04-20T11:55:21.972Z</time></trkpt><trkpt lat="45.5837975038513" lon="10.108762374197282"><ele>164.0</ele><time>2026-04-20T11:55:22.972Z</time></trkpt><trkpt lat="45.583995280075456" lon="10.108527439754074"><ele>164.0</ele><time>2026-04-20T11:55:23.972Z</time></trkpt><trkpt lat="45.584187388599055" lon="10.108296575764788"><ele>164.0</ele><time>2026-04-20T11:55:24.972Z</time></trkpt><trkpt lat="45.58436774814518" lon="10.108090573561322"><ele>164.5</ele><time>2026-04-20T11:55:25.972Z</time></trkpt><trkpt lat="45.58455059602709" lon="10.107849523951506"><ele>165.0</ele><time>2026-04-20T11:55:26.972Z</time></trkpt><trkpt lat="45.5847566650123" lon="10.107595292036171"><ele>164.5</ele><time>2026-04-20T11:55:27.972Z</time></trkpt><trkpt lat="45.58495994602188" lon="10.107341087626319"><ele>164.0</ele><time>2026-04-20T11:55:28.972Z</time></trkpt><trkpt lat="45.5851551388486" lon="10.107102427138447"><ele>165.0</ele><time>2026-04-20T11:55:29.972Z</time></trkpt><trkpt lat="45.58534930601274" lon="10.106865609935163"><ele>166.0</ele><time>2026-04-20T11:55:30.972Z</time></trkpt><trkpt lat="45.58553223404432" lon="10.106646999031065"><ele>166.0</ele><time>2026-04-20T11:55:31.972Z</time></trkpt><trkpt lat="45.58572056984145" lon="10.10643093734351"><ele>166.0</ele><time>2026-04-20T11:55:32.972Z</time></trkpt><trkpt lat="45.58591093775218" lon="10.106210234761893"><ele>166.0</ele><time>2026-04-20T11:55:33.972Z</time></trkpt><trkpt lat="45.58610251092026" lon="10.105982030855108"><ele>166.0</ele><time>2026-04-20T11:55:34.972Z</time></trkpt><trkpt lat="45.58628985430499" lon="10.105757555965237"><ele>166.5</ele><time>2026-04-20T11:55:35.972Z</time></trkpt><trkpt lat="45.586477421824156" lon="10.105531395079007"><ele>167.0</ele><time>2026-04-20T11:55:36.972Z</time></trkpt><trkpt lat="45.586671147847895" lon="10.105293761854195"><ele>167.0</ele><time>2026-04-20T11:55:37.972Z</time></trkpt><trkpt lat="45.586859361614856" lon="10.105068454979037"><ele>167.0</ele><time>2026-04-20T11:55:38.972Z</time></trkpt><trkpt lat="45.587044090190126" lon="10.104844716664612"><ele>166.5</ele><time>2026-04-20T11:55:39.972Z</time></trkpt><trkpt lat="45.58724375943965" lon="10.104606698325828"><ele>166.0</ele><time>2026-04-20T11:55:40.972Z</time></trkpt><trkpt lat="45.58745695758062" lon="10.104358529507262"><ele>166.0</ele><time>2026-04-20T11:55:41.972Z</time></trkpt><trkpt lat="45.587681714950286" lon="10.10409657471664"><ele>166.0</ele><time>2026-04-20T11:55:42.972Z</time></trkpt><trkpt lat="45.58791217500268" lon="10.103816721324211"><ele>167.5</ele><time>2026-04-20T11:55:43.972Z</time></trkpt><trkpt lat="45.58814088951075" lon="10.103533939628335"><ele>169.0</ele><time>2026-04-20T11:55:44.972Z</time></trkpt><trkpt lat="45.58836047910734" lon="10.103266295032704"><ele>168.5</ele><time>2026-04-20T11:55:45.972Z</time></trkpt><trkpt lat="45.58855513660319" lon="10.103024030549832"><ele>168.0</ele><time>2026-04-20T11:55:46.972Z</time></trkpt><trkpt lat="45.58875222928512" lon="10.1027931999399"><ele>169.5</ele><time>2026-04-20T11:55:47.972Z</time></trkpt><trkpt lat="45.58893986779483" lon="10.102571561970697"><ele>171.0</ele><time>2026-04-20T11:55:48.973Z</time></trkpt><trkpt lat="45.58912889557082" lon="10.102346042344452"><ele>173.0</ele><time>2026-04-20T11:55:49.972Z</time></trkpt><trkpt lat="45.58930764722548" lon="10.102133663591827"><ele>175.0</ele><time>2026-04-20T11:55:50.972Z</time></trkpt><trkpt lat="45.589476966618214" lon="10.101938632019257"><ele>175.33333333333334</ele><time>2026-04-20T11:55:51.972Z</time></trkpt><trkpt lat="45.58964034611678" lon="10.10175369199182"><ele>175.66666666666666</ele><time>2026-04-20T11:55:52.972Z</time></trkpt><trkpt lat="45.58979759165582" lon="10.10156780239958"><ele>176.0</ele><time>2026-04-20T11:55:53.972Z</time></trkpt><trkpt lat="45.58995722318513" lon="10.101382393829338"><ele>176.0</ele><time>2026-04-20T11:55:54.973Z</time></trkpt><trkpt lat="45.590118411942825" lon="10.10119071797526"><ele>176.0</ele><time>2026-04-20T11:55:55.972Z</time></trkpt><trkpt lat="45.590286282756054" lon="10.100992473587915"><ele>176.0</ele><time>2026-04-20T11:55:56.972Z</time></trkpt><trkpt lat="45.590448055001104" lon="10.1007997533237"><ele>175.66666666666666</ele><time>2026-04-20T11:55:57.973Z</time></trkpt><trkpt lat="45.59060857369398" lon="10.100604753482608"><ele>175.33333333333334</ele><time>2026-04-20T11:55:58.972Z</time></trkpt><trkpt lat="45.59076829187349" lon="10.100409448827982"><ele>175.0</ele><time>2026-04-20T11:55:59.972Z</time></trkpt><trkpt lat="45.590934538362525" lon="10.100220172498046"><ele>175.0</ele><time>2026-04-20T11:56:00.972Z</time></trkpt><trkpt lat="45.591106877666036" lon="10.100010832982013"><ele>175.0</ele><time>2026-04-20T11:56:01.972Z</time></trkpt><trkpt lat="45.591287665581795" lon="10.099800518751461"><ele>176.0</ele><time>2026-04-20T11:56:02.972Z</time></trkpt><trkpt lat="45.59147753896255" lon="10.099585807064928"><ele>177.0</ele><time>2026-04-20T11:56:03.972Z</time></trkpt><trkpt lat="45.59166715802889" lon="10.09936158009839"><ele>177.0</ele><time>2026-04-20T11:56:04.972Z</time></trkpt><trkpt lat="45.591856607297515" lon="10.099132215995056"><ele>177.0</ele><time>2026-04-20T11:56:05.972Z</time></trkpt><trkpt lat="45.592033561804314" lon="10.098911600604294"><ele>177.0</ele><time>2026-04-20T11:56:06.972Z</time></trkpt><trkpt lat="45.59221261108603" lon="10.098700157935669"><ele>177.0</ele><time>2026-04-20T11:56:07.972Z</time></trkpt><trkpt lat="45.592393374105804" lon="10.098483960439843"><ele>177.0</ele><time>2026-04-20T11:56:08.972Z</time></trkpt><trkpt lat="45.592575974814764" lon="10.098272361499909"><ele>177.0</ele><time>2026-04-20T11:56:09.972Z</time></trkpt><trkpt lat="45.59275581251303" lon="10.098059178111988"><ele>178.0</ele><time>2026-04-20T11:56:10.972Z</time></trkpt><trkpt lat="45.59293884801261" lon="10.097834258401898"><ele>179.0</ele><time>2026-04-20T11:56:11.972Z</time></trkpt><trkpt lat="45.59312441780435" lon="10.09761098492589"><ele>179.5</ele><time>2026-04-20T11:56:12.972Z</time></trkpt><trkpt lat="45.59331095629924" lon="10.097400847002223"><ele>180.0</ele><time>2026-04-20T11:56:13.972Z</time></trkpt><trkpt lat="45.59349532464074" lon="10.097197553055876"><ele>180.0</ele><time>2026-04-20T11:56:14.972Z</time></trkpt><trkpt lat="45.59367699382996" lon="10.097006312474237"><ele>180.0</ele><time>2026-04-20T11:56:15.972Z</time></trkpt><trkpt lat="45.593858689476235" lon="10.096801818764387"><ele>180.0</ele><time>2026-04-20T11:56:16.972Z</time></trkpt><trkpt lat="45.59404213265973" lon="10.096588530242629"><ele>180.0</ele><time>2026-04-20T11:56:17.972Z</time></trkpt><trkpt lat="45.59422927601467" lon="10.096370835174916"><ele>180.0</ele><time>2026-04-20T11:56:18.972Z</time></trkpt><trkpt lat="45.59440527894181" lon="10.096163782407597"><ele>180.0</ele><time>2026-04-20T11:56:19.972Z</time></trkpt><trkpt lat="45.5945855573502" lon="10.095949201194578"><ele>182.0</ele><time>2026-04-20T11:56:20.972Z</time></trkpt><trkpt lat="45.594770473193826" lon="10.095736887535224"><ele>184.0</ele><time>2026-04-20T11:56:21.972Z</time></trkpt><trkpt lat="45.59496367238077" lon="10.095514517546565"><ele>184.0</ele><time>2026-04-20T11:56:22.972Z</time></trkpt><trkpt lat="45.59515733135139" lon="10.095288633955196"><ele>184.0</ele><time>2026-04-20T11:56:23.972Z</time></trkpt><trkpt lat="45.59534748435008" lon="10.095061923251913"><ele>183.5</ele><time>2026-04-20T11:56:24.972Z</time></trkpt><trkpt lat="45.595541951881266" lon="10.094824158840655"><ele>183.0</ele><time>2026-04-20T11:56:25.972Z</time></trkpt><trkpt lat="45.59573704532019" lon="10.094590994742825"><ele>183.0</ele><time>2026-04-20T11:56:26.972Z</time></trkpt><trkpt lat="45.595933280682864" lon="10.094352869233765"><ele>183.0</ele><time>2026-04-20T11:56:27.972Z</time></trkpt><trkpt lat="45.59612614087481" lon="10.094123008327578"><ele>184.0</ele><time>2026-04-20T11:56:28.972Z</time></trkpt><trkpt lat="45.59632104744495" lon="10.0938986690831"><ele>185.0</ele><time>2026-04-20T11:56:29.972Z</time></trkpt><trkpt lat="45.59650640492911" lon="10.093683836482773"><ele>185.0</ele><time>2026-04-20T11:56:30.972Z</time></trkpt><trkpt lat="45.59670011277136" lon="10.093467322226891"><ele>185.0</ele><time>2026-04-20T11:56:31.972Z</time></trkpt><trkpt lat="45.59690048268867" lon="10.093247540496272"><ele>185.5</ele><time>2026-04-20T11:56:32.972Z</time></trkpt><trkpt lat="45.59709482583197" lon="10.093034950731283"><ele>186.0</ele><time>2026-04-20T11:56:33.972Z</time></trkpt><trkpt lat="45.597290849433875" lon="10.092820451945745"><ele>186.0</ele><time>2026-04-20T11:56:34.972Z</time></trkpt><trkpt lat="45.59747641751839" lon="10.092608187181863"><ele>186.0</ele><time>2026-04-20T11:56:35.972Z</time></trkpt><trkpt lat="45.59765599024322" lon="10.092395853637496"><ele>187.5</ele><time>2026-04-20T11:56:36.972Z</time></trkpt><trkpt lat="45.59784103038006" lon="10.092182563987656"><ele>189.0</ele><time>2026-04-20T11:56:37.972Z</time></trkpt><trkpt lat="45.59801168285612" lon="10.091978609600687"><ele>189.0</ele><time>2026-04-20T11:56:38.972Z</time></trkpt><trkpt lat="45.5981795696418" lon="10.091776791988742"><ele>189.0</ele><time>2026-04-20T11:56:39.972Z</time></trkpt><trkpt lat="45.59834957400003" lon="10.091568944109795"><ele>189.0</ele><time>2026-04-20T11:56:40.972Z</time></trkpt><trkpt lat="45.59852946015151" lon="10.091362324385093"><ele>189.5</ele><time>2026-04-20T11:56:41.972Z</time></trkpt><trkpt lat="45.59870769170314" lon="10.091148218534105"><ele>190.0</ele><time>2026-04-20T11:56:42.972Z</time></trkpt><trkpt lat="45.598887770032135" lon="10.090938642570404"><ele>190.5</ele><time>2026-04-20T11:56:43.972Z</time></trkpt><trkpt lat="45.59907053231572" lon="10.090722490106156"><ele>191.0</ele><time>2026-04-20T11:56:44.972Z</time></trkpt><trkpt lat="45.59925059398673" lon="10.090509354014385"><ele>191.0</ele><time>2026-04-20T11:56:45.972Z</time></trkpt><trkpt lat="45.59943107371899" lon="10.09028730126298"><ele>191.0</ele><time>2026-04-20T11:56:46.972Z</time></trkpt><trkpt lat="45.599618139586475" lon="10.090060805185386"><ele>192.0</ele><time>2026-04-20T11:56:47.972Z</time></trkpt><trkpt lat="45.59980090537212" lon="10.089843804234272"><ele>193.0</ele><time>2026-04-20T11:56:48.972Z</time></trkpt><trkpt lat="45.59998411548667" lon="10.089630282054706"><ele>193.0</ele><time>2026-04-20T11:56:49.972Z</time></trkpt><trkpt lat="45.60016518159089" lon="10.089421277274221"><ele>193.0</ele><time>2026-04-20T11:56:50.972Z</time></trkpt><trkpt lat="45.60034088570987" lon="10.089214820190778"><ele>193.5</ele><time>2026-04-20T11:56:51.972Z</time></trkpt><trkpt lat="45.60051490975055" lon="10.089008812195168"><ele>194.0</ele><time>2026-04-20T11:56:52.972Z</time></trkpt><trkpt lat="45.60069508420524" lon="10.088803007221154"><ele>194.0</ele><time>2026-04-20T11:56:53.972Z</time></trkpt><trkpt lat="45.600879321085124" lon="10.088589376367775"><ele>194.0</ele><time>2026-04-20T11:56:54.972Z</time></trkpt><trkpt lat="45.6010572009603" lon="10.088375770157645"><ele>194.0</ele><time>2026-04-20T11:56:55.972Z</time></trkpt><trkpt lat="45.601225365040676" lon="10.088178350806968"><ele>194.0</ele><time>2026-04-20T11:56:56.972Z</time></trkpt><trkpt lat="45.60139211744188" lon="10.087989442760595"><ele>194.0</ele><time>2026-04-20T11:56:57.972Z</time></trkpt><trkpt lat="45.601559696338455" lon="10.087795113691364"><ele>194.0</ele><time>2026-04-20T11:56:58.971Z</time></trkpt><trkpt lat="45.6017228498593" lon="10.08760167810448"><ele>194.0</ele><time>2026-04-20T11:56:59.971Z</time></trkpt><trkpt lat="45.60188380390201" lon="10.087420981132256"><ele>194.0</ele><time>2026-04-20T11:57:00.971Z</time></trkpt><trkpt lat="45.6020423493445" lon="10.087239436796013"><ele>194.66666666666669</ele><time>2026-04-20T11:57:01.971Z</time></trkpt><trkpt lat="45.602207916014194" lon="10.087051901771387"><ele>195.33333333333331</ele><time>2026-04-20T11:57:02.971Z</time></trkpt><trkpt lat="45.60237706856448" lon="10.086857734675226"><ele>196.0</ele><time>2026-04-20T11:57:03.971Z</time></trkpt><trkpt lat="45.60254406326886" lon="10.086658471001952"><ele>196.33333333333331</ele><time>2026-04-20T11:57:04.971Z</time></trkpt><trkpt lat="45.60271459171673" lon="10.086457466896979"><ele>196.66666666666669</ele><time>2026-04-20T11:57:05.97Z</time></trkpt><trkpt lat="45.60288892425448" lon="10.086255852866838"><ele>197.0</ele><time>2026-04-20T11:57:06.97Z</time></trkpt><trkpt lat="45.60306371395756" lon="10.086057284959992"><ele>197.0</ele><time>2026-04-20T11:57:07.97Z</time></trkpt><trkpt lat="45.60324147846378" lon="10.085850542105494"><ele>197.0</ele><time>2026-04-20T11:57:08.97Z</time></trkpt><trkpt lat="45.603421767790735" lon="10.085643584050118"><ele>198.5</ele><time>2026-04-20T11:57:09.97Z</time></trkpt><trkpt lat="45.603603704519045" lon="10.085434654875243"><ele>200.0</ele><time>2026-04-20T11:57:10.97Z</time></trkpt><trkpt lat="45.60377947037979" lon="10.085230626847233"><ele>200.0</ele><time>2026-04-20T11:57:11.97Z</time></trkpt><trkpt lat="45.60394909539528" lon="10.085032073236714"><ele>200.0</ele><time>2026-04-20T11:57:12.97Z</time></trkpt><trkpt lat="45.60412633080179" lon="10.084835356154477"><ele>200.0</ele><time>2026-04-20T11:57:13.97Z</time></trkpt><trkpt lat="45.604299667499234" lon="10.084636476473545"><ele>200.33333333333334</ele><time>2026-04-20T11:57:14.97Z</time></trkpt><trkpt lat="45.60447140466418" lon="10.084427864135044"><ele>200.66666666666669</ele><time>2026-04-20T11:57:15.97Z</time></trkpt><trkpt lat="45.60464176494787" lon="10.084221649174662"><ele>201.0</ele><time>2026-04-20T11:57:16.969Z</time></trkpt><trkpt lat="45.60481975098608" lon="10.084013533538593"><ele>202.0</ele><time>2026-04-20T11:57:17.969Z</time></trkpt><trkpt lat="45.60499536065369" lon="10.083807056263268"><ele>203.0</ele><time>2026-04-20T11:57:18.969Z</time></trkpt><trkpt lat="45.60517566750953" lon="10.08359401029092"><ele>203.5</ele><time>2026-04-20T11:57:19.969Z</time></trkpt><trkpt lat="45.60535605065903" lon="10.083377614635722"><ele>204.0</ele><time>2026-04-20T11:57:20.969Z</time></trkpt><trkpt lat="45.60553875271332" lon="10.083167936846916"><ele>204.0</ele><time>2026-04-20T11:57:21.969Z</time></trkpt><trkpt lat="45.60572010922389" lon="10.082962060467635"><ele>204.0</ele><time>2026-04-20T11:57:22.969Z</time></trkpt><trkpt lat="45.605895248386766" lon="10.082754355899173"><ele>204.0</ele><time>2026-04-20T11:57:23.969Z</time></trkpt><trkpt lat="45.60605891579128" lon="10.082558693530451"><ele>204.0</ele><time>2026-04-20T11:57:24.969Z</time></trkpt><trkpt lat="45.60621337200528" lon="10.082376867426202"><ele>204.0</ele><time>2026-04-20T11:57:25.969Z</time></trkpt><trkpt lat="45.60637951897903" lon="10.082183484991017"><ele>204.0</ele><time>2026-04-20T11:57:26.969Z</time></trkpt><trkpt lat="45.606559978608985" lon="10.08199225946033"><ele>204.0</ele><time>2026-04-20T11:57:27.969Z</time></trkpt><trkpt lat="45.60674649911836" lon="10.081804536674817"><ele>204.0</ele><time>2026-04-20T11:57:28.969Z</time></trkpt><trkpt lat="45.606935927162006" lon="10.081622547919102"><ele>204.0</ele><time>2026-04-20T11:57:29.969Z</time></trkpt><trkpt lat="45.60712835217143" lon="10.08145122954017"><ele>204.66666666666669</ele><time>2026-04-20T11:57:30.969Z</time></trkpt><trkpt lat="45.607287268543224" lon="10.08125858379167"><ele>205.33333333333334</ele><time>2026-04-20T11:57:31.969Z</time></trkpt><trkpt lat="45.607476013314965" lon="10.081104181606165"><ele>206.0</ele><time>2026-04-20T11:57:32.969Z</time></trkpt><trkpt lat="45.607659791073544" lon="10.08095835512244"><ele>206.0</ele><time>2026-04-20T11:57:33.969Z</time></trkpt><trkpt lat="45.60784791410918" lon="10.080813281488238"><ele>206.0</ele><time>2026-04-20T11:57:34.969Z</time></trkpt><trkpt lat="45.608042181479135" lon="10.080659910899813"><ele>206.0</ele><time>2026-04-20T11:57:35.969Z</time></trkpt><trkpt lat="45.60823629081484" lon="10.080506862770061"><ele>206.33333333333334</ele><time>2026-04-20T11:57:36.969Z</time></trkpt><trkpt lat="45.608432928133595" lon="10.08035347792029"><ele>206.66666666666669</ele><time>2026-04-20T11:57:37.969Z</time></trkpt><trkpt lat="45.60862891243119" lon="10.080201671289608"><ele>207.0</ele><time>2026-04-20T11:57:38.969Z</time></trkpt><trkpt lat="45.60882463680422" lon="10.08004749425786"><ele>208.0</ele><time>2026-04-20T11:57:39.969Z</time></trkpt><trkpt lat="45.60901346300218" lon="10.079893398598298"><ele>209.0</ele><time>2026-04-20T11:57:40.969Z</time></trkpt><trkpt lat="45.60920216324084" lon="10.079741613572605"><ele>210.0</ele><time>2026-04-20T11:57:41.969Z</time></trkpt><trkpt lat="45.6093899272787" lon="10.079590358261699"><ele>210.0</ele><time>2026-04-20T11:57:42.969Z</time></trkpt><trkpt lat="45.60958126212854" lon="10.079441421619624"><ele>210.0</ele><time>2026-04-20T11:57:43.969Z</time></trkpt><trkpt lat="45.60976962518316" lon="10.079285480073661"><ele>210.0</ele><time>2026-04-20T11:57:44.969Z</time></trkpt><trkpt lat="45.60994655526544" lon="10.079139094127607"><ele>210.0</ele><time>2026-04-20T11:57:45.969Z</time></trkpt><trkpt lat="45.61012708898391" lon="10.078997434822085"><ele>210.0</ele><time>2026-04-20T11:57:46.969Z</time></trkpt><trkpt lat="45.610309320454526" lon="10.078864470076967"><ele>210.0</ele><time>2026-04-20T11:57:47.969Z</time></trkpt><trkpt lat="45.61047861725384" lon="10.07873670931919"><ele>210.0</ele><time>2026-04-20T11:57:48.969Z</time></trkpt><trkpt lat="45.61064783734246" lon="10.078601142879608"><ele>210.0</ele><time>2026-04-20T11:57:49.969Z</time></trkpt><trkpt lat="45.61081463515995" lon="10.078472772437262"><ele>210.0</ele><time>2026-04-20T11:57:50.969Z</time></trkpt><trkpt lat="45.610979348637024" lon="10.07834563630466"><ele>211.0</ele><time>2026-04-20T11:57:51.969Z</time></trkpt><trkpt lat="45.61114516674018" lon="10.078215990605756"><ele>212.0</ele><time>2026-04-20T11:57:52.969Z</time></trkpt><trkpt lat="45.61131316364059" lon="10.07808522935976"><ele>213.0</ele><time>2026-04-20T11:57:53.969Z</time></trkpt><trkpt lat="45.61147613482201" lon="10.077965206775255"><ele>213.66666666666669</ele><time>2026-04-20T11:57:54.969Z</time></trkpt><trkpt lat="45.61164070262281" lon="10.077839477335566"><ele>214.33333333333334</ele><time>2026-04-20T11:57:55.969Z</time></trkpt><trkpt lat="45.61180655115804" lon="10.077705904916685"><ele>215.0</ele><time>2026-04-20T11:57:56.969Z</time></trkpt><trkpt lat="45.61197306835426" lon="10.077571802542833"><ele>215.33333333333334</ele><time>2026-04-20T11:57:57.969Z</time></trkpt><trkpt lat="45.61214076695323" lon="10.077436132628605"><ele>215.66666666666669</ele><time>2026-04-20T11:57:58.969Z</time></trkpt><trkpt lat="45.612313045452574" lon="10.077297212053654"><ele>216.0</ele><time>2026-04-20T11:57:59.969Z</time></trkpt><trkpt lat="45.612484790574065" lon="10.077171479702827"><ele>216.33333333333331</ele><time>2026-04-20T11:58:00.969Z</time></trkpt><trkpt lat="45.612657269794845" lon="10.077061545584115"><ele>216.66666666666666</ele><time>2026-04-20T11:58:01.969Z</time></trkpt><trkpt lat="45.612836962303874" lon="10.07695031980857"><ele>217.0</ele><time>2026-04-20T11:58:02.969Z</time></trkpt><trkpt lat="45.6130167275216" lon="10.076844524295204"><ele>217.66666666666666</ele><time>2026-04-20T11:58:03.969Z</time></trkpt><trkpt lat="45.61320568430366" lon="10.076764085890431"><ele>218.33333333333331</ele><time>2026-04-20T11:58:04.968Z</time></trkpt><trkpt lat="45.6133975339745" lon="10.07668532651183"><ele>219.0</ele><time>2026-04-20T11:58:05.968Z</time></trkpt><trkpt lat="45.61359039047494" lon="10.07662116723825"><ele>219.0</ele><time>2026-04-20T11:58:06.968Z</time></trkpt><trkpt lat="45.61378915325911" lon="10.07657077695807"><ele>219.0</ele><time>2026-04-20T11:58:07.968Z</time></trkpt><trkpt lat="45.61399114569493" lon="10.076536054975197"><ele>219.0</ele><time>2026-04-20T11:58:08.968Z</time></trkpt><trkpt lat="45.614192310739384" lon="10.07650465330569"><ele>219.0</ele><time>2026-04-20T11:58:09.968Z</time></trkpt><trkpt lat="45.61438081516358" lon="10.076485237685535"><ele>219.0</ele><time>2026-04-20T11:58:10.968Z</time></trkpt><trkpt lat="45.61456487002812" lon="10.076472505714905"><ele>219.0</ele><time>2026-04-20T11:58:11.968Z</time></trkpt><trkpt lat="45.61475720115108" lon="10.076460610955944"><ele>220.0</ele><time>2026-04-20T11:58:12.968Z</time></trkpt><trkpt lat="45.61495638401653" lon="10.07646565322174"><ele>221.0</ele><time>2026-04-20T11:58:13.968Z</time></trkpt><trkpt lat="45.615157218815305" lon="10.07647113647694"><ele>222.0</ele><time>2026-04-20T11:58:14.968Z</time></trkpt><trkpt lat="45.61535076302521" lon="10.0764547611375"><ele>222.33333333333331</ele><time>2026-04-20T11:58:15.968Z</time></trkpt><trkpt lat="45.61553506729125" lon="10.076463819804623"><ele>222.66666666666666</ele><time>2026-04-20T11:58:16.968Z</time></trkpt><trkpt lat="45.61572509747276" lon="10.076449254051488"><ele>223.0</ele><time>2026-04-20T11:58:17.968Z</time></trkpt><trkpt lat="45.615915269170486" lon="10.076443649865725"><ele>223.0</ele><time>2026-04-20T11:58:18.968Z</time></trkpt><trkpt lat="45.616099654844774" lon="10.076451485405636"><ele>223.0</ele><time>2026-04-20T11:58:19.968Z</time></trkpt><trkpt lat="45.61627798853008" lon="10.076468980028768"><ele>223.0</ele><time>2026-04-20T11:58:20.968Z</time></trkpt><trkpt lat="45.616456223004946" lon="10.07648577883953"><ele>223.33333333333331</ele><time>2026-04-20T11:58:21.968Z</time></trkpt><trkpt lat="45.616640364873305" lon="10.076499270872093"><ele>223.66666666666669</ele><time>2026-04-20T11:58:22.968Z</time></trkpt><trkpt lat="45.61682449825932" lon="10.076492873557221"><ele>224.0</ele><time>2026-04-20T11:58:23.968Z</time></trkpt><trkpt lat="45.61701450231418" lon="10.076490841026203"><ele>224.0</ele><time>2026-04-20T11:58:24.968Z</time></trkpt><trkpt lat="45.61720085577417" lon="10.076491815707573"><ele>224.0</ele><time>2026-04-20T11:58:25.968Z</time></trkpt><trkpt lat="45.6173796540455" lon="10.076493196606274"><ele>224.0</ele><time>2026-04-20T11:58:26.968Z</time></trkpt><trkpt lat="45.61755965221028" lon="10.076490696662587"><ele>224.0</ele><time>2026-04-20T11:58:27.968Z</time></trkpt><trkpt lat="45.61775107474433" lon="10.076478623403075"><ele>224.0</ele><time>2026-04-20T11:58:28.968Z</time></trkpt><trkpt lat="45.6179444068448" lon="10.076473228730618"><ele>224.0</ele><time>2026-04-20T11:58:29.968Z</time></trkpt><trkpt lat="45.618139959449884" lon="10.076462456769702"><ele>224.33333333333334</ele><time>2026-04-20T11:58:30.968Z</time></trkpt><trkpt lat="45.61831278886099" lon="10.076490197380538"><ele>224.66666666666669</ele><time>2026-04-20T11:58:31.968Z</time></trkpt><trkpt lat="45.61849120380661" lon="10.076497188592686"><ele>225.0</ele><time>2026-04-20T11:58:32.968Z</time></trkpt><trkpt lat="45.61867713468662" lon="10.076498052747977"><ele>225.66666666666669</ele><time>2026-04-20T11:58:33.968Z</time></trkpt><trkpt lat="45.61886798648155" lon="10.076498034763345"><ele>226.33333333333334</ele><time>2026-04-20T11:58:34.968Z</time></trkpt><trkpt lat="45.619052703691516" lon="10.076503167474195"><ele>227.0</ele><time>2026-04-20T11:58:35.968Z</time></trkpt><trkpt lat="45.61923681181314" lon="10.076498187521402"><ele>227.0</ele><time>2026-04-20T11:58:36.968Z</time></trkpt><trkpt lat="45.61942457670034" lon="10.076494382213523"><ele>227.0</ele><time>2026-04-20T11:58:37.968Z</time></trkpt><trkpt lat="45.61960224508162" lon="10.076495905434601"><ele>227.0</ele><time>2026-04-20T11:58:38.968Z</time></trkpt><trkpt lat="45.61977548612795" lon="10.07649553104972"><ele>227.33333333333334</ele><time>2026-04-20T11:58:39.968Z</time></trkpt><trkpt lat="45.61994983078699" lon="10.076498255445333"><ele>227.66666666666669</ele><time>2026-04-20T11:58:40.968Z</time></trkpt><trkpt lat="45.62013390848297" lon="10.076496691289494"><ele>228.0</ele><time>2026-04-20T11:58:41.968Z</time></trkpt><trkpt lat="45.62032249544388" lon="10.076518619081844"><ele>229.66666666666669</ele><time>2026-04-20T11:58:42.968Z</time></trkpt><trkpt lat="45.62050325017769" lon="10.076522490245518"><ele>231.33333333333334</ele><time>2026-04-20T11:58:43.968Z</time></trkpt><trkpt lat="45.620674354784924" lon="10.076530861989431"><ele>233.0</ele><time>2026-04-20T11:58:44.968Z</time></trkpt><trkpt lat="45.62085564063515" lon="10.076545531106898"><ele>233.0</ele><time>2026-04-20T11:58:45.968Z</time></trkpt><trkpt lat="45.62103926265621" lon="10.076564624745536"><ele>233.0</ele><time>2026-04-20T11:58:46.968Z</time></trkpt><trkpt lat="45.621228055722305" lon="10.076590182512819"><ele>233.0</ele><time>2026-04-20T11:58:47.968Z</time></trkpt><trkpt lat="45.621404911636645" lon="10.076618216647722"><ele>233.33333333333334</ele><time>2026-04-20T11:58:48.968Z</time></trkpt><trkpt lat="45.62157363434873" lon="10.076653744473703"><ele>233.66666666666669</ele><time>2026-04-20T11:58:49.968Z</time></trkpt><trkpt lat="45.62175343553016" lon="10.076694625594161"><ele>234.0</ele><time>2026-04-20T11:58:50.968Z</time></trkpt><trkpt lat="45.62193891806749" lon="10.076743451245601"><ele>235.33333333333331</ele><time>2026-04-20T11:58:51.968Z</time></trkpt><trkpt lat="45.62213229334263" lon="10.076794804009246"><ele>236.66666666666666</ele><time>2026-04-20T11:58:52.968Z</time></trkpt><trkpt lat="45.6223276053406" lon="10.076825015015302"><ele>238.0</ele><time>2026-04-20T11:58:53.968Z</time></trkpt><trkpt lat="45.622527324451745" lon="10.076881549961415"><ele>238.0</ele><time>2026-04-20T11:58:54.968Z</time></trkpt><trkpt lat="45.622724438369374" lon="10.076941099797336"><ele>238.0</ele><time>2026-04-20T11:58:55.968Z</time></trkpt><trkpt lat="45.6229233529735" lon="10.07699716487635"><ele>238.0</ele><time>2026-04-20T11:58:56.968Z</time></trkpt><trkpt lat="45.62311242989507" lon="10.077089875886333"><ele>239.0</ele><time>2026-04-20T11:58:57.968Z</time></trkpt><trkpt lat="45.62333191166231" lon="10.077145724810997"><ele>240.0</ele><time>2026-04-20T11:58:58.968Z</time></trkpt><trkpt lat="45.62353408273936" lon="10.077205316727781"><ele>241.0</ele><time>2026-04-20T11:58:59.968Z</time></trkpt><trkpt lat="45.62373683251022" lon="10.077262533495114"><ele>241.33333333333331</ele><time>2026-04-20T11:59:00.968Z</time></trkpt><trkpt lat="45.62391894120928" lon="10.077316759755744"><ele>241.66666666666669</ele><time>2026-04-20T11:59:01.968Z</time></trkpt><trkpt lat="45.62410599795393" lon="10.077371276350844"><ele>242.0</ele><time>2026-04-20T11:59:02.968Z</time></trkpt><trkpt lat="45.624291745793336" lon="10.077424104467902"><ele>241.33333333333334</ele><time>2026-04-20T11:59:03.968Z</time></trkpt><trkpt lat="45.62446332231051" lon="10.077479684958208"><ele>240.66666666666669</ele><time>2026-04-20T11:59:04.968Z</time></trkpt><trkpt lat="45.62464223057032" lon="10.07752871876003"><ele>240.0</ele><time>2026-04-20T11:59:05.968Z</time></trkpt><trkpt lat="45.62481314182015" lon="10.07758281117555"><ele>240.0</ele><time>2026-04-20T11:59:06.968Z</time></trkpt><trkpt lat="45.62499532243911" lon="10.077627832427842"><ele>240.0</ele><time>2026-04-20T11:59:07.968Z</time></trkpt><trkpt lat="45.625193413033756" lon="10.07768068478186"><ele>240.0</ele><time>2026-04-20T11:59:08.968Z</time></trkpt><trkpt lat="45.62541093189374" lon="10.077728286905892"><ele>241.5</ele><time>2026-04-20T11:59:09.968Z</time></trkpt><trkpt lat="45.62563780792751" lon="10.077791515403536"><ele>243.0</ele><time>2026-04-20T11:59:10.968Z</time></trkpt><trkpt lat="45.62587715318987" lon="10.077861711928975"><ele>243.0</ele><time>2026-04-20T11:59:11.968Z</time></trkpt><trkpt lat="45.626131009802826" lon="10.077942148253591"><ele>243.0</ele><time>2026-04-20T11:59:12.968Z</time></trkpt><trkpt lat="45.626375229040185" lon="10.07801428086882"><ele>243.33333333333331</ele><time>2026-04-20T11:59:13.968Z</time></trkpt><trkpt lat="45.6265942434616" lon="10.078076203083672"><ele>243.66666666666666</ele><time>2026-04-20T11:59:14.968Z</time></trkpt><trkpt lat="45.62678458907135" lon="10.078137004248145"><ele>244.0</ele><time>2026-04-20T11:59:15.968Z</time></trkpt><trkpt lat="45.62700184607154" lon="10.078193377623366"><ele>244.0</ele><time>2026-04-20T11:59:16.968Z</time></trkpt><trkpt lat="45.627218552502896" lon="10.07824485001752"><ele>244.0</ele><time>2026-04-20T11:59:17.968Z</time></trkpt><trkpt lat="45.627451282317374" lon="10.078289157579412"><ele>244.66666666666666</ele><time>2026-04-20T11:59:18.968Z</time></trkpt><trkpt lat="45.62766641717505" lon="10.078344248426575"><ele>245.33333333333331</ele><time>2026-04-20T11:59:19.968Z</time></trkpt><trkpt lat="45.62787116608077" lon="10.078405905700311"><ele>246.0</ele><time>2026-04-20T11:59:20.968Z</time></trkpt><trkpt lat="45.62807731720308" lon="10.07846383204507"><ele>246.66666666666669</ele><time>2026-04-20T11:59:21.968Z</time></trkpt><trkpt lat="45.628280635043275" lon="10.078522828468815"><ele>247.33333333333334</ele><time>2026-04-20T11:59:22.968Z</time></trkpt><trkpt lat="45.628483856861955" lon="10.078580289387702"><ele>248.0</ele><time>2026-04-20T11:59:23.968Z</time></trkpt><trkpt lat="45.62868916587441" lon="10.078634594104226"><ele>248.66666666666669</ele><time>2026-04-20T11:59:24.968Z</time></trkpt><trkpt lat="45.62889646252984" lon="10.078697466358726"><ele>249.33333333333331</ele><time>2026-04-20T11:59:25.968Z</time></trkpt><trkpt lat="45.629104645983546" lon="10.078755097735286"><ele>250.0</ele><time>2026-04-20T11:59:26.968Z</time></trkpt><trkpt lat="45.62931651996952" lon="10.078798630710459"><ele>250.5</ele><time>2026-04-20T11:59:27.968Z</time></trkpt><trkpt lat="45.629542479996196" lon="10.078842361950638"><ele>251.0</ele><time>2026-04-20T11:59:28.968Z</time></trkpt><trkpt lat="45.629763500003214" lon="10.078870382790573"><ele>251.0</ele><time>2026-04-20T11:59:29.968Z</time></trkpt><trkpt lat="45.629974702203256" lon="10.078884744902647"><ele>251.0</ele><time>2026-04-20T11:59:30.968Z</time></trkpt><trkpt lat="45.63019620840501" lon="10.078884509134296"><ele>251.0</ele><time>2026-04-20T11:59:31.968Z</time></trkpt><trkpt lat="45.63043153146304" lon="10.078875222485632"><ele>251.0</ele><time>2026-04-20T11:59:32.968Z</time></trkpt><trkpt lat="45.63065820753267" lon="10.078861477882068"><ele>251.0</ele><time>2026-04-20T11:59:33.968Z</time></trkpt><trkpt lat="45.63086970435057" lon="10.078837694524681"><ele>251.0</ele><time>2026-04-20T11:59:34.968Z</time></trkpt><trkpt lat="45.63108185389061" lon="10.078804669919208"><ele>252.0</ele><time>2026-04-20T11:59:35.968Z</time></trkpt><trkpt lat="45.63130020886475" lon="10.078752621156923"><ele>253.0</ele><time>2026-04-20T11:59:36.968Z</time></trkpt><trkpt lat="45.63152007516309" lon="10.078682804609645"><ele>254.0</ele><time>2026-04-20T11:59:37.968Z</time></trkpt><trkpt lat="45.63173796189239" lon="10.078613165732124"><ele>254.0</ele><time>2026-04-20T11:59:38.968Z</time></trkpt><trkpt lat="45.63195292561972" lon="10.078533032604792"><ele>254.0</ele><time>2026-04-20T11:59:39.968Z</time></trkpt><trkpt lat="45.63215100337073" lon="10.07844171837971"><ele>254.0</ele><time>2026-04-20T11:59:40.968Z</time></trkpt><trkpt lat="45.63235533509282" lon="10.078342231899052"><ele>254.66666666666669</ele><time>2026-04-20T11:59:41.968Z</time></trkpt><trkpt lat="45.63255589843309" lon="10.078233694221122"><ele>255.33333333333331</ele><time>2026-04-20T11:59:42.968Z</time></trkpt><trkpt lat="45.63275127720145" lon="10.078125628995961"><ele>256.0</ele><time>2026-04-20T11:59:43.968Z</time></trkpt><trkpt lat="45.63294037443177" lon="10.078024066876619"><ele>259.3333333333333</ele><time>2026-04-20T11:59:44.968Z</time></trkpt><trkpt lat="45.63312986626005" lon="10.077919662690483"><ele>262.6666666666667</ele><time>2026-04-20T11:59:45.968Z</time></trkpt><trkpt lat="45.63332175308479" lon="10.077816858215895"><ele>266.0</ele><time>2026-04-20T11:59:46.968Z</time></trkpt><trkpt lat="45.63350952234333" lon="10.077718336688607"><ele>266.33333333333337</ele><time>2026-04-20T11:59:47.968Z</time></trkpt><trkpt lat="45.63368386315867" lon="10.077616555122566"><ele>266.6666666666667</ele><time>2026-04-20T11:59:48.968Z</time></trkpt><trkpt lat="45.63388664600933" lon="10.077523549179908"><ele>267.0</ele><time>2026-04-20T11:59:49.968Z</time></trkpt><trkpt lat="45.634076178535" lon="10.077429834886287"><ele>267.0</ele><time>2026-04-20T11:59:50.968Z</time></trkpt><trkpt lat="45.634262793620785" lon="10.077332998006828"><ele>267.0</ele><time>2026-04-20T11:59:51.968Z</time></trkpt><trkpt lat="45.63445005209291" lon="10.077231773013335"><ele>267.0</ele><time>2026-04-20T11:59:52.968Z</time></trkpt><trkpt lat="45.63464023149143" lon="10.077135479860232"><ele>269.6666666666667</ele><time>2026-04-20T11:59:53.968Z</time></trkpt><trkpt lat="45.6348252302976" lon="10.077036876860497"><ele>272.33333333333337</ele><time>2026-04-20T11:59:54.968Z</time></trkpt><trkpt lat="45.63500982805578" lon="10.076942249824226"><ele>275.0</ele><time>2026-04-20T11:59:55.968Z</time></trkpt><trkpt lat="45.63519354868016" lon="10.076842780648247"><ele>279.6666666666667</ele><time>2026-04-20T11:59:56.968Z</time></trkpt><trkpt lat="45.63537696558574" lon="10.076749618497113"><ele>284.3333333333333</ele><time>2026-04-20T11:59:57.968Z</time></trkpt><trkpt lat="45.63555627111709" lon="10.076650742923562"><ele>289.0</ele><time>2026-04-20T11:59:58.969Z</time></trkpt><trkpt lat="45.635727408773484" lon="10.076550614573424"><ele>289.0</ele><time>2026-04-20T11:59:59.969Z</time></trkpt><trkpt lat="45.63590567506121" lon="10.076453494420111"><ele>289.0</ele><time>2026-04-20T12:00:00.969Z</time></trkpt><trkpt lat="45.636075731908335" lon="10.07635718948636"><ele>289.0</ele><time>2026-04-20T12:00:01.968Z</time></trkpt><trkpt lat="45.636247209344376" lon="10.076266882391915"><ele>289.3333333333333</ele><time>2026-04-20T12:00:02.968Z</time></trkpt><trkpt lat="45.6364173556508" lon="10.076179120441232"><ele>289.6666666666667</ele><time>2026-04-20T12:00:03.969Z</time></trkpt><trkpt lat="45.63659090622027" lon="10.076096609914162"><ele>290.0</ele><time>2026-04-20T12:00:04.968Z</time></trkpt><trkpt lat="45.63676635150508" lon="10.076013677318143"><ele>290.0</ele><time>2026-04-20T12:00:05.968Z</time></trkpt><trkpt lat="45.63694620219022" lon="10.075924874404297"><ele>290.0</ele><time>2026-04-20T12:00:06.969Z</time></trkpt><trkpt lat="45.63713476701929" lon="10.075833457845322"><ele>290.0</ele><time>2026-04-20T12:00:07.969Z</time></trkpt><trkpt lat="45.637331077024676" lon="10.075721461323857"><ele>290.0</ele><time>2026-04-20T12:00:08.969Z</time></trkpt><trkpt lat="45.637520381074815" lon="10.075578187858893"><ele>290.0</ele><time>2026-04-20T12:00:09.969Z</time></trkpt><trkpt lat="45.63769323301076" lon="10.075456747408795"><ele>290.0</ele><time>2026-04-20T12:00:10.968Z</time></trkpt><trkpt lat="45.63788902106274" lon="10.075351699725353"><ele>290.0</ele><time>2026-04-20T12:00:11.968Z</time></trkpt><trkpt lat="45.63808194320318" lon="10.075245875473085"><ele>290.0</ele><time>2026-04-20T12:00:12.968Z</time></trkpt><trkpt lat="45.63827435587365" lon="10.075139945890642"><ele>290.0</ele><time>2026-04-20T12:00:13.968Z</time></trkpt><trkpt lat="45.63847034875079" lon="10.07503149456153"><ele>291.33333333333337</ele><time>2026-04-20T12:00:14.968Z</time></trkpt><trkpt lat="45.638654764852404" lon="10.07492975416967"><ele>292.6666666666667</ele><time>2026-04-20T12:00:15.968Z</time></trkpt><trkpt lat="45.638834143414606" lon="10.074832422289829"><ele>294.0</ele><time>2026-04-20T12:00:16.968Z</time></trkpt><trkpt lat="45.639014973010156" lon="10.074730375062906"><ele>294.0</ele><time>2026-04-20T12:00:17.968Z</time></trkpt><trkpt lat="45.639197319486684" lon="10.07462468878586"><ele>294.0</ele><time>2026-04-20T12:00:18.968Z</time></trkpt><trkpt lat="45.639383391396876" lon="10.074529171875469"><ele>294.0</ele><time>2026-04-20T12:00:19.968Z</time></trkpt><trkpt lat="45.63955262577419" lon="10.074419397532688"><ele>296.0</ele><time>2026-04-20T12:00:20.968Z</time></trkpt><trkpt lat="45.63971606176916" lon="10.074328175581206"><ele>298.0</ele><time>2026-04-20T12:00:21.968Z</time></trkpt><trkpt lat="45.639891482123254" lon="10.074227649805108"><ele>300.0</ele><time>2026-04-20T12:00:22.968Z</time></trkpt><trkpt lat="45.64005470187573" lon="10.07412568136946"><ele>304.0</ele><time>2026-04-20T12:00:23.968Z</time></trkpt><trkpt lat="45.64020203465482" lon="10.074027267458924"><ele>308.0</ele><time>2026-04-20T12:00:24.968Z</time></trkpt><trkpt lat="45.640350606567544" lon="10.073939706278871"><ele>312.0</ele><time>2026-04-20T12:00:25.968Z</time></trkpt><trkpt lat="45.64048838294558" lon="10.073868644080918"><ele>313.0</ele><time>2026-04-20T12:00:26.968Z</time></trkpt><trkpt lat="45.64063737873525" lon="10.073767500501349"><ele>314.0</ele><time>2026-04-20T12:00:27.968Z</time></trkpt><trkpt lat="45.6407865341832" lon="10.073662463490834"><ele>315.0</ele><time>2026-04-20T12:00:28.968Z</time></trkpt><trkpt lat="45.640934546075506" lon="10.073545001990501"><ele>315.0</ele><time>2026-04-20T12:00:29.968Z</time></trkpt><trkpt lat="45.64108919475522" lon="10.073444217755238"><ele>315.0</ele><time>2026-04-20T12:00:30.968Z</time></trkpt><trkpt lat="45.641243830759244" lon="10.073343704106492"><ele>315.0</ele><time>2026-04-20T12:00:31.968Z</time></trkpt><trkpt lat="45.64139925004771" lon="10.073241756518877"><ele>320.6666666666667</ele><time>2026-04-20T12:00:32.968Z</time></trkpt><trkpt lat="45.64155569843719" lon="10.073132343667144"><ele>326.33333333333337</ele><time>2026-04-20T12:00:33.968Z</time></trkpt><trkpt lat="45.641718837666616" lon="10.073023863390516"><ele>332.0</ele><time>2026-04-20T12:00:34.968Z</time></trkpt><trkpt lat="45.64188370658102" lon="10.072914232425559"><ele>337.6666666666667</ele><time>2026-04-20T12:00:35.968Z</time></trkpt><trkpt lat="45.642044148215376" lon="10.072868597887098"><ele>343.3333333333333</ele><time>2026-04-20T12:00:36.968Z</time></trkpt><trkpt lat="45.64221721634038" lon="10.072746789627011"><ele>349.0</ele><time>2026-04-20T12:00:38.109Z</time></trkpt><trkpt lat="45.65694594468705" lon="10.06338508659649"><ele>329.75</ele><time>2026-04-20T12:02:07.968Z</time></trkpt><trkpt lat="45.657046831940164" lon="10.063397354239545"><ele>310.5</ele><time>2026-04-20T12:02:08.968Z</time></trkpt><trkpt lat="45.657148026723995" lon="10.06352158189693"><ele>291.25</ele><time>2026-04-20T12:02:09.968Z</time></trkpt><trkpt lat="45.6572071348342" lon="10.06381006108721"><ele>272.0</ele><time>2026-04-20T12:02:11.968Z</time></trkpt><trkpt lat="45.657228050243205" lon="10.063955065716181"><ele>277.0</ele><time>2026-04-20T12:02:12.968Z</time></trkpt><trkpt lat="45.65702449649115" lon="10.064205034828074"><ele>282.0</ele><time>2026-04-20T12:02:14.969Z</time></trkpt><trkpt lat="45.65692507896107" lon="10.064279155581595"><ele>287.0</ele><time>2026-04-20T12:02:15.969Z</time></trkpt><trkpt lat="45.656859692348625" lon="10.064261842891378"><ele>292.0</ele><time>2026-04-20T12:02:16.968Z</time></trkpt><trkpt lat="45.656770949488426" lon="10.064254825958788"><ele>292.0</ele><time>2026-04-20T12:02:17.968Z</time></trkpt><trkpt lat="45.65742854090562" lon="10.064689492244465"><ele>270.0</ele><time>2026-04-20T12:02:18.968Z</time></trkpt><trkpt lat="45.65660857436735" lon="10.063409513302766"><ele>268.3333333333333</ele><time>2026-04-20T12:02:23.968Z</time></trkpt><trkpt lat="45.656575534206176" lon="10.063241999858588"><ele>266.66666666666663</ele><time>2026-04-20T12:02:24.968Z</time></trkpt><trkpt lat="45.656453393320646" lon="10.062938290563105"><ele>265.0</ele><time>2026-04-20T12:02:25.969Z</time></trkpt><trkpt lat="45.65640751600584" lon="10.062758694454555"><ele>265.0</ele><time>2026-04-20T12:02:26.968Z</time></trkpt><trkpt lat="45.65655734660592" lon="10.062883575733265"><ele>265.0</ele><time>2026-04-20T12:02:27.968Z</time></trkpt><trkpt lat="45.65649223284166" lon="10.06269629578645"><ele>265.0</ele><time>2026-04-20T12:02:28.968Z</time></trkpt><trkpt lat="45.6564882632274" lon="10.062594492715897"><ele>265.0</ele><time>2026-04-20T12:02:29.968Z</time></trkpt><trkpt lat="45.6563598317788" lon="10.062386628235133"><ele>262.5</ele><time>2026-04-20T12:02:30.968Z</time></trkpt><trkpt lat="45.65643930613272" lon="10.062277826090138"><ele>260.0</ele><time>2026-04-20T12:02:33.968Z</time></trkpt><trkpt lat="45.656546748041265" lon="10.062209800743512"><ele>257.5</ele><time>2026-04-20T12:02:36.968Z</time></trkpt><trkpt lat="45.65653430995441" lon="10.062031882071096"><ele>255.0</ele><time>2026-04-20T12:02:38.968Z</time></trkpt><trkpt lat="45.65649137560723" lon="10.061879181064628"><ele>255.0</ele><time>2026-04-20T12:02:40.968Z</time></trkpt><trkpt lat="45.65638955551501" lon="10.061822489467891"><ele>255.0</ele><time>2026-04-20T12:02:41.968Z</time></trkpt><trkpt lat="45.65628423216565" lon="10.061697615843478"><ele>255.0</ele><time>2026-04-20T12:02:42.968Z</time></trkpt><trkpt lat="45.6561759401494" lon="10.06161760898606"><ele>255.0</ele><time>2026-04-20T12:02:43.968Z</time></trkpt><trkpt lat="45.656043962781204" lon="10.061450084680473"><ele>256.3333333333333</ele><time>2026-04-20T12:02:44.968Z</time></trkpt><trkpt lat="45.65590582675246" lon="10.06127266729561"><ele>257.66666666666663</ele><time>2026-04-20T12:02:45.968Z</time></trkpt><trkpt lat="45.655760404935556" lon="10.061056402456545"><ele>259.0</ele><time>2026-04-20T12:02:46.968Z</time></trkpt><trkpt lat="45.65560133119003" lon="10.060846858135823"><ele>256.0</ele><time>2026-04-20T12:02:47.968Z</time></trkpt><trkpt lat="45.65549398935115" lon="10.060554114671213"><ele>253.0</ele><time>2026-04-20T12:02:48.968Z</time></trkpt><trkpt lat="45.6553548385383" lon="10.06028402872508"><ele>253.0</ele><time>2026-04-20T12:02:49.968Z</time></trkpt><trkpt lat="45.65521883989821" lon="10.060014379787214"><ele>253.0</ele><time>2026-04-20T12:02:50.968Z</time></trkpt><trkpt lat="45.65507783127226" lon="10.059734748492609"><ele>253.0</ele><time>2026-04-20T12:02:51.968Z</time></trkpt><trkpt lat="45.654944958714594" lon="10.059456972688322"><ele>253.0</ele><time>2026-04-20T12:02:52.968Z</time></trkpt><trkpt lat="45.65482465549774" lon="10.059212242956654"><ele>253.0</ele><time>2026-04-20T12:02:53.968Z</time></trkpt><trkpt lat="45.654705448752864" lon="10.058985700887515"><ele>249.0</ele><time>2026-04-20T12:02:54.968Z</time></trkpt><trkpt lat="45.65458996490486" lon="10.058758042790906"><ele>245.0</ele><time>2026-04-20T12:02:55.968Z</time></trkpt><trkpt lat="45.654468664481776" lon="10.058503629460953"><ele>241.0</ele><time>2026-04-20T12:02:56.968Z</time></trkpt><trkpt lat="45.65434442575259" lon="10.058260419583844"><ele>241.0</ele><time>2026-04-20T12:02:57.968Z</time></trkpt><trkpt lat="45.654213305384516" lon="10.058005009996844"><ele>241.0</ele><time>2026-04-20T12:02:58.968Z</time></trkpt><trkpt lat="45.654096598061074" lon="10.057788873172251"><ele>241.0</ele><time>2026-04-20T12:02:59.968Z</time></trkpt><trkpt lat="45.65397311159188" lon="10.057566997943022"><ele>246.33333333333331</ele><time>2026-04-20T12:03:00.968Z</time></trkpt><trkpt lat="45.653838899449276" lon="10.057329049613106"><ele>251.66666666666669</ele><time>2026-04-20T12:03:01.968Z</time></trkpt><trkpt lat="45.6536970331975" lon="10.057104027407721"><ele>257.0</ele><time>2026-04-20T12:03:02.968Z</time></trkpt><trkpt lat="45.65354268846185" lon="10.056872676972775"><ele>257.0</ele><time>2026-04-20T12:03:03.968Z</time></trkpt><trkpt lat="45.65339395931876" lon="10.056679297343356"><ele>257.0</ele><time>2026-04-20T12:03:04.968Z</time></trkpt><trkpt lat="45.65325226819693" lon="10.056470118757852"><ele>257.0</ele><time>2026-04-20T12:03:05.968Z</time></trkpt><trkpt lat="45.653107671856986" lon="10.056258691030404"><ele>256.33333333333337</ele><time>2026-04-20T12:03:06.968Z</time></trkpt><trkpt lat="45.65296708498992" lon="10.056049448017108"><ele>255.66666666666669</ele><time>2026-04-20T12:03:07.968Z</time></trkpt><trkpt lat="45.652824442488864" lon="10.055834183102013"><ele>255.0</ele><time>2026-04-20T12:03:08.968Z</time></trkpt><trkpt lat="45.652689729548" lon="10.055623454094986"><ele>255.0</ele><time>2026-04-20T12:03:09.968Z</time></trkpt><trkpt lat="45.65255719057697" lon="10.055402515605287"><ele>255.0</ele><time>2026-04-20T12:03:10.968Z</time></trkpt><trkpt lat="45.652422672203635" lon="10.055185317739014"><ele>255.0</ele><time>2026-04-20T12:03:11.968Z</time></trkpt><trkpt lat="45.650952229231734" lon="10.052937029394094"><ele>247.0</ele><time>2026-04-20T12:03:16.543Z</time></trkpt><trkpt lat="45.650408157659705" lon="10.052081607352976"><ele>259.0</ele><time>2026-04-20T12:03:17.543Z</time></trkpt><trkpt lat="45.64986578440889" lon="10.051228088154344"><ele>281.0</ele><time>2026-04-20T12:03:18.541Z</time></trkpt><trkpt lat="45.64932382635351" lon="10.050373814982546"><ele>258.0</ele><time>2026-04-20T12:03:19.538Z</time></trkpt><trkpt lat="45.6489614" lon="10.0498023"><ele>185.0</ele><time>2026-04-20T12:03:20.543Z</time></trkpt><trkpt lat="45.648829876770385" lon="10.042561888595563"><ele>185.0</ele><time>2026-04-20T12:04:08.968Z</time></trkpt><trkpt lat="45.64901563346447" lon="10.042523280705275"><ele>185.0</ele><time>2026-04-20T12:04:09.968Z</time></trkpt><trkpt lat="45.649106356390185" lon="10.042307133271123"><ele>185.0</ele><time>2026-04-20T12:04:10.968Z</time></trkpt><trkpt lat="45.64924497704232" lon="10.042222475519932"><ele>185.66666666666666</ele><time>2026-04-20T12:04:11.968Z</time></trkpt><trkpt lat="45.64937350347814" lon="10.042121554139515"><ele>186.33333333333334</ele><time>2026-04-20T12:04:12.968Z</time></trkpt><trkpt lat="45.64952692432536" lon="10.042011088639674"><ele>187.0</ele><time>2026-04-20T12:04:13.968Z</time></trkpt><trkpt lat="45.64968426320298" lon="10.041904372304339"><ele>187.0</ele><time>2026-04-20T12:04:14.968Z</time></trkpt><trkpt lat="45.649825078157555" lon="10.041811582737589"><ele>187.0</ele><time>2026-04-20T12:04:15.968Z</time></trkpt><trkpt lat="45.64993621846645" lon="10.041738346347174"><ele>187.0</ele><time>2026-04-20T12:04:16.968Z</time></trkpt><trkpt lat="45.65003329607425" lon="10.041725191949723"><ele>187.0</ele><time>2026-04-20T12:04:17.968Z</time></trkpt><trkpt lat="45.65013176986049" lon="10.041729973447897"><ele>187.0</ele><time>2026-04-20T12:04:18.968Z</time></trkpt><trkpt lat="45.65023830945539" lon="10.041767872621215"><ele>187.0</ele><time>2026-04-20T12:04:19.968Z</time></trkpt><trkpt lat="45.65030920840329" lon="10.041878570576099"><ele>187.0</ele><time>2026-04-20T12:04:20.968Z</time></trkpt><trkpt lat="45.650401255187454" lon="10.042007344199504"><ele>187.0</ele><time>2026-04-20T12:04:21.968Z</time></trkpt><trkpt lat="45.650465122581416" lon="10.042228572448856"><ele>185.75</ele><time>2026-04-20T12:04:22.968Z</time></trkpt><trkpt lat="45.650576416444096" lon="10.042326902261388"><ele>184.5</ele><time>2026-04-20T12:04:23.969Z</time></trkpt><trkpt lat="45.65067295121774" lon="10.042398608914205"><ele>183.25</ele><time>2026-04-20T12:04:24.969Z</time></trkpt><trkpt lat="45.65080194398409" lon="10.04243055610128"><ele>182.0</ele><time>2026-04-20T12:04:25.968Z</time></trkpt><trkpt lat="45.650901412785885" lon="10.04240811165084"><ele>182.0</ele><time>2026-04-20T12:04:26.968Z</time></trkpt><trkpt lat="45.651007572340944" lon="10.042339953402712"><ele>182.0</ele><time>2026-04-20T12:04:27.968Z</time></trkpt><trkpt lat="45.651094382424944" lon="10.04236803454959"><ele>182.0</ele><time>2026-04-20T12:04:28.968Z</time></trkpt><trkpt lat="45.65113313018177" lon="10.04208048082273"><ele>182.0</ele><time>2026-04-20T12:04:29.969Z</time></trkpt><trkpt lat="45.651168599764254" lon="10.041922510389977"><ele>182.39999999999998</ele><time>2026-04-20T12:04:30.969Z</time></trkpt><trkpt lat="45.65117273291414" lon="10.041757422089992"><ele>182.79999999999998</ele><time>2026-04-20T12:04:31.968Z</time></trkpt><trkpt lat="45.65114962933322" lon="10.041606264348738"><ele>183.2</ele><time>2026-04-20T12:04:32.968Z</time></trkpt><trkpt lat="45.65118143808866" lon="10.041446437682485"><ele>183.6</ele><time>2026-04-20T12:04:33.968Z</time></trkpt><trkpt lat="45.651174123353044" lon="10.04131681941321"><ele>184.0</ele><time>2026-04-20T12:04:34.968Z</time></trkpt><trkpt lat="45.65116456117562" lon="10.041161876851515"><ele>184.25</ele><time>2026-04-20T12:04:35.968Z</time></trkpt><trkpt lat="45.651192770610066" lon="10.040999850089955"><ele>184.5</ele><time>2026-04-20T12:04:36.968Z</time></trkpt><trkpt lat="45.65125699049273" lon="10.04086742162893"><ele>184.75</ele><time>2026-04-20T12:04:37.968Z</time></trkpt><trkpt lat="45.6513406007097" lon="10.040765487753296"><ele>185.0</ele><time>2026-04-20T12:04:38.968Z</time></trkpt><trkpt lat="45.651408779986" lon="10.040638918594695"><ele>185.5</ele><time>2026-04-20T12:04:39.968Z</time></trkpt><trkpt lat="45.65152023982856" lon="10.040613768280995"><ele>186.0</ele><time>2026-04-20T12:04:40.968Z</time></trkpt><trkpt lat="45.65162528990194" lon="10.040569298932056"><ele>186.5</ele><time>2026-04-20T12:04:41.968Z</time></trkpt><trkpt lat="45.651730667772796" lon="10.04049846383137"><ele>187.0</ele><time>2026-04-20T12:04:42.968Z</time></trkpt><trkpt lat="45.651834378653426" lon="10.040429290474352"><ele>187.0</ele><time>2026-04-20T12:04:43.968Z</time></trkpt><trkpt lat="45.651939311625256" lon="10.04036053546641"><ele>187.0</ele><time>2026-04-20T12:04:44.968Z</time></trkpt><trkpt lat="45.652030016753685" lon="10.040282201832882"><ele>187.0</ele><time>2026-04-20T12:04:45.968Z</time></trkpt><trkpt lat="45.652148437066224" lon="10.040212650988028"><ele>187.0</ele><time>2026-04-20T12:04:46.968Z</time></trkpt><trkpt lat="45.6522853967026" lon="10.040113947628429"><ele>186.66666666666669</ele><time>2026-04-20T12:04:47.968Z</time></trkpt><trkpt lat="45.65243400510698" lon="10.039983950078367"><ele>186.33333333333334</ele><time>2026-04-20T12:04:48.968Z</time></trkpt><trkpt lat="45.65260560256425" lon="10.03988302416172"><ele>186.0</ele><time>2026-04-20T12:04:49.968Z</time></trkpt><trkpt lat="45.6527814339305" lon="10.039761514315297"><ele>185.5</ele><time>2026-04-20T12:04:50.968Z</time></trkpt><trkpt lat="45.65297855317106" lon="10.03960841420997"><ele>185.0</ele><time>2026-04-20T12:04:51.968Z</time></trkpt><trkpt lat="45.65322402328051" lon="10.03945880259423"><ele>185.0</ele><time>2026-04-20T12:04:52.968Z</time></trkpt><trkpt lat="45.65344399859409" lon="10.03931733657375"><ele>185.0</ele><time>2026-04-20T12:04:53.968Z</time></trkpt><trkpt lat="45.65364834356401" lon="10.039158687608827"><ele>185.33333333333331</ele><time>2026-04-20T12:04:54.968Z</time></trkpt><trkpt lat="45.65384163339894" lon="10.039006784154218"><ele>185.66666666666666</ele><time>2026-04-20T12:04:55.968Z</time></trkpt><trkpt lat="45.654030821619315" lon="10.038844102369119"><ele>186.0</ele><time>2026-04-20T12:04:56.968Z</time></trkpt><trkpt lat="45.65419217695089" lon="10.038669999153353"><ele>186.0</ele><time>2026-04-20T12:04:57.968Z</time></trkpt><trkpt lat="45.65434655848614" lon="10.038474718430876"><ele>186.0</ele><time>2026-04-20T12:04:58.968Z</time></trkpt><trkpt lat="45.654489690273635" lon="10.038262081589016"><ele>186.0</ele><time>2026-04-20T12:04:59.968Z</time></trkpt><trkpt lat="45.65462388279847" lon="10.03801072806765"><ele>186.0</ele><time>2026-04-20T12:05:00.968Z</time></trkpt><trkpt lat="45.65475009729226" lon="10.037755509986868"><ele>186.0</ele><time>2026-04-20T12:05:01.968Z</time></trkpt><trkpt lat="45.65485265482454" lon="10.037503141176265"><ele>186.0</ele><time>2026-04-20T12:05:02.968Z</time></trkpt><trkpt lat="45.65494247833909" lon="10.037269003582386"><ele>186.0</ele><time>2026-04-20T12:05:03.968Z</time></trkpt><trkpt lat="45.655013638886466" lon="10.037035957533023"><ele>186.0</ele><time>2026-04-20T12:05:04.968Z</time></trkpt><trkpt lat="45.655091701073154" lon="10.03679131453714"><ele>186.0</ele><time>2026-04-20T12:05:05.968Z</time></trkpt><trkpt lat="45.655145388335995" lon="10.0365651927945"><ele>185.66666666666666</ele><time>2026-04-20T12:05:06.968Z</time></trkpt><trkpt lat="45.65518858335315" lon="10.036340800078095"><ele>185.33333333333331</ele><time>2026-04-20T12:05:07.968Z</time></trkpt><trkpt lat="45.65522670065337" lon="10.036112795676434"><ele>185.0</ele><time>2026-04-20T12:05:08.968Z</time></trkpt><trkpt lat="45.65524337676705" lon="10.035870455341525"><ele>185.0</ele><time>2026-04-20T12:05:09.968Z</time></trkpt><trkpt lat="45.655240854171254" lon="10.035607728059189"><ele>185.0</ele><time>2026-04-20T12:05:10.968Z</time></trkpt><trkpt lat="45.65522472520649" lon="10.035340711395847"><ele>185.0</ele><time>2026-04-20T12:05:11.968Z</time></trkpt><trkpt lat="45.65519313630861" lon="10.03506707016824"><ele>185.0</ele><time>2026-04-20T12:05:12.968Z</time></trkpt><trkpt lat="45.65514475406789" lon="10.034774741512626"><ele>185.0</ele><time>2026-04-20T12:05:13.968Z</time></trkpt><trkpt lat="45.655085575400186" lon="10.0345153865296"><ele>185.0</ele><time>2026-04-20T12:05:14.968Z</time></trkpt><trkpt lat="45.65500927831626" lon="10.034265455519614"><ele>185.33333333333331</ele><time>2026-04-20T12:05:15.968Z</time></trkpt><trkpt lat="45.65491523138009" lon="10.034011530414624"><ele>185.66666666666666</ele><time>2026-04-20T12:05:16.968Z</time></trkpt><trkpt lat="45.65480686137309" lon="10.033757763337448"><ele>186.0</ele><time>2026-04-20T12:05:17.968Z</time></trkpt><trkpt lat="45.654688797537915" lon="10.033522384327618"><ele>186.0</ele><time>2026-04-20T12:05:18.968Z</time></trkpt><trkpt lat="45.654570731192116" lon="10.033287053861372"><ele>186.0</ele><time>2026-04-20T12:05:19.968Z</time></trkpt><trkpt lat="45.65446613600377" lon="10.033027472610582"><ele>186.0</ele><time>2026-04-20T12:05:20.968Z</time></trkpt><trkpt lat="45.654379781283176" lon="10.03274938139656"><ele>186.0</ele><time>2026-04-20T12:05:21.968Z</time></trkpt><trkpt lat="45.654320046489744" lon="10.03245063610326"><ele>186.0</ele><time>2026-04-20T12:05:22.968Z</time></trkpt><trkpt lat="45.65427323955263" lon="10.03213210493155"><ele>186.0</ele><time>2026-04-20T12:05:23.968Z</time></trkpt><trkpt lat="45.654221365311415" lon="10.031809043365959"><ele>185.5</ele><time>2026-04-20T12:05:24.968Z</time></trkpt><trkpt lat="45.654179834757905" lon="10.03149533609971"><ele>185.0</ele><time>2026-04-20T12:05:25.968Z</time></trkpt><trkpt lat="45.654130164516076" lon="10.031170439609461"><ele>185.0</ele><time>2026-04-20T12:05:26.968Z</time></trkpt><trkpt lat="45.65407345582979" lon="10.030839662690529"><ele>185.0</ele><time>2026-04-20T12:05:27.968Z</time></trkpt><trkpt lat="45.65400227738189" lon="10.030501966581578"><ele>186.0</ele><time>2026-04-20T12:05:28.968Z</time></trkpt><trkpt lat="45.65394318475557" lon="10.030201623562494"><ele>187.0</ele><time>2026-04-20T12:05:29.968Z</time></trkpt><trkpt lat="45.65384935952139" lon="10.029899427249527"><ele>188.0</ele><time>2026-04-20T12:05:30.968Z</time></trkpt><trkpt lat="45.65373897872719" lon="10.02959674528112"><ele>189.0</ele><time>2026-04-20T12:05:31.968Z</time></trkpt><trkpt lat="45.653630859968246" lon="10.029293530838716"><ele>190.0</ele><time>2026-04-20T12:05:32.968Z</time></trkpt><trkpt lat="45.65351455025636" lon="10.028983512685175"><ele>190.0</ele><time>2026-04-20T12:05:33.968Z</time></trkpt><trkpt lat="45.65341111042916" lon="10.02870150607741"><ele>190.0</ele><time>2026-04-20T12:05:34.968Z</time></trkpt><trkpt lat="45.65331632954964" lon="10.0284399946179"><ele>190.0</ele><time>2026-04-20T12:05:35.968Z</time></trkpt><trkpt lat="45.653216544169275" lon="10.028162121347533"><ele>191.0</ele><time>2026-04-20T12:05:36.968Z</time></trkpt><trkpt lat="45.653116990783886" lon="10.027875231106448"><ele>192.0</ele><time>2026-04-20T12:05:37.968Z</time></trkpt><trkpt lat="45.65301496982742" lon="10.02758517926612"><ele>190.5</ele><time>2026-04-20T12:05:38.968Z</time></trkpt><trkpt lat="45.65289851567119" lon="10.027284119338022"><ele>189.0</ele><time>2026-04-20T12:05:39.968Z</time></trkpt><trkpt lat="45.65279984505881" lon="10.027016875457258"><ele>188.66666666666666</ele><time>2026-04-20T12:05:40.968Z</time></trkpt><trkpt lat="45.65270803441342" lon="10.026772503416868"><ele>188.33333333333331</ele><time>2026-04-20T12:05:41.968Z</time></trkpt><trkpt lat="45.65261620783734" lon="10.026522391569783"><ele>188.0</ele><time>2026-04-20T12:05:42.968Z</time></trkpt><trkpt lat="45.65252467928487" lon="10.026266802668136"><ele>188.0</ele><time>2026-04-20T12:05:43.968Z</time></trkpt><trkpt lat="45.652423789403954" lon="10.02600453574854"><ele>188.0</ele><time>2026-04-20T12:05:44.968Z</time></trkpt><trkpt lat="45.65234012470659" lon="10.025764667810448"><ele>188.0</ele><time>2026-04-20T12:05:45.968Z</time></trkpt><trkpt lat="45.652246297338664" lon="10.025509556046995"><ele>188.66666666666666</ele><time>2026-04-20T12:05:46.968Z</time></trkpt><trkpt lat="45.65216988469798" lon="10.025284728115912"><ele>189.33333333333334</ele><time>2026-04-20T12:05:47.968Z</time></trkpt><trkpt lat="45.6521062960929" lon="10.025082083721337"><ele>190.0</ele><time>2026-04-20T12:05:48.968Z</time></trkpt><trkpt lat="45.65202523782118" lon="10.024867093721037"><ele>189.5</ele><time>2026-04-20T12:05:49.968Z</time></trkpt><trkpt lat="45.6519526263679" lon="10.02466426841745"><ele>189.0</ele><time>2026-04-20T12:05:50.968Z</time></trkpt><trkpt lat="45.651899543556816" lon="10.024496249286475"><ele>188.5</ele><time>2026-04-20T12:05:51.968Z</time></trkpt><trkpt lat="45.65182980688502" lon="10.024312735429904"><ele>188.0</ele><time>2026-04-20T12:05:52.968Z</time></trkpt><trkpt lat="45.65178034173912" lon="10.024158569416274"><ele>187.75</ele><time>2026-04-20T12:05:53.968Z</time></trkpt><trkpt lat="45.65173367244901" lon="10.024009436104024"><ele>187.5</ele><time>2026-04-20T12:05:54.968Z</time></trkpt><trkpt lat="45.65170925694698" lon="10.02386252718049"><ele>187.25</ele><time>2026-04-20T12:05:55.968Z</time></trkpt><trkpt lat="45.651684515526014" lon="10.02369178295602"><ele>187.0</ele><time>2026-04-20T12:05:56.968Z</time></trkpt><trkpt lat="45.651670193399646" lon="10.023526181446154"><ele>187.0</ele><time>2026-04-20T12:05:57.968Z</time></trkpt><trkpt lat="45.65166129212774" lon="10.023375233983304"><ele>187.0</ele><time>2026-04-20T12:05:58.968Z</time></trkpt><trkpt lat="45.651659668319105" lon="10.02321128966023"><ele>187.0</ele><time>2026-04-20T12:05:59.968Z</time></trkpt><trkpt lat="45.65164174646348" lon="10.023030399746819"><ele>187.0</ele><time>2026-04-20T12:06:00.968Z</time></trkpt><trkpt lat="45.65163480613317" lon="10.02286957243373"><ele>187.0</ele><time>2026-04-20T12:06:01.968Z</time></trkpt><trkpt lat="45.65163796575246" lon="10.022760658662838"><ele>187.0</ele><time>2026-04-20T12:06:02.968Z</time></trkpt><trkpt lat="45.65164220917305" lon="10.022659332637536"><ele>187.0</ele><time>2026-04-20T12:06:03.968Z</time></trkpt><trkpt lat="45.65159448989043" lon="10.022529243535946"><ele>187.0</ele><time>2026-04-20T12:06:04.968Z</time></trkpt><trkpt lat="45.65161615223788" lon="10.022406915653852"><ele>187.0</ele><time>2026-04-20T12:06:05.968Z</time></trkpt><trkpt lat="45.65164892528023" lon="10.022269150780868"><ele>187.0</ele><time>2026-04-20T12:06:06.968Z</time></trkpt><trkpt lat="45.6517035214908" lon="10.022151479785512"><ele>187.39999999999998</ele><time>2026-04-20T12:06:07.968Z</time></trkpt><trkpt lat="45.651775257472536" lon="10.022045127014609"><ele>187.79999999999998</ele><time>2026-04-20T12:06:08.968Z</time></trkpt><trkpt lat="45.651813704196755" lon="10.02191896738187"><ele>188.2</ele><time>2026-04-20T12:06:09.968Z</time></trkpt><trkpt lat="45.65184583708985" lon="10.021800282209552"><ele>188.6</ele><time>2026-04-20T12:06:10.968Z</time></trkpt><trkpt lat="45.65195375331418" lon="10.02170252746328"><ele>189.0</ele><time>2026-04-20T12:06:11.968Z</time></trkpt><trkpt lat="45.65201965427582" lon="10.021572906989102"><ele>189.0</ele><time>2026-04-20T12:06:12.968Z</time></trkpt><trkpt lat="45.65209346458332" lon="10.021428679778564"><ele>189.0</ele><time>2026-04-20T12:06:13.968Z</time></trkpt><trkpt lat="45.65217134893782" lon="10.02127821235903"><ele>189.0</ele><time>2026-04-20T12:06:14.968Z</time></trkpt><trkpt lat="45.652251064602375" lon="10.02114480710173"><ele>189.0</ele><time>2026-04-20T12:06:15.968Z</time></trkpt><trkpt lat="45.65231414280029" lon="10.021022971791275"><ele>189.0</ele><time>2026-04-20T12:06:16.968Z</time></trkpt><trkpt lat="45.6523908720195" lon="10.020876351354463"><ele>189.0</ele><time>2026-04-20T12:06:17.968Z</time></trkpt><trkpt lat="45.65246944450422" lon="10.020716729000432"><ele>189.0</ele><time>2026-04-20T12:06:18.968Z</time></trkpt><trkpt lat="45.65255592274556" lon="10.020555287497954"><ele>189.0</ele><time>2026-04-20T12:06:19.968Z</time></trkpt><trkpt lat="45.65264657056896" lon="10.0203760785597"><ele>189.0</ele><time>2026-04-20T12:06:20.968Z</time></trkpt><trkpt lat="45.65275399192268" lon="10.020173797615277"><ele>189.0</ele><time>2026-04-20T12:06:21.968Z</time></trkpt><trkpt lat="45.652864997194634" lon="10.019949634563927"><ele>189.0</ele><time>2026-04-20T12:06:22.968Z</time></trkpt><trkpt lat="45.6529873928657" lon="10.019689946409983"><ele>189.0</ele><time>2026-04-20T12:06:23.968Z</time></trkpt><trkpt lat="45.65311494618207" lon="10.019414511141385"><ele>189.0</ele><time>2026-04-20T12:06:24.968Z</time></trkpt><trkpt lat="45.65327546641278" lon="10.019124818853197"><ele>188.5</ele><time>2026-04-20T12:06:25.968Z</time></trkpt><trkpt lat="45.65344230494227" lon="10.018827483219319"><ele>188.0</ele><time>2026-04-20T12:06:26.968Z</time></trkpt><trkpt lat="45.65359727086059" lon="10.01854852186697"><ele>187.66666666666666</ele><time>2026-04-20T12:06:27.968Z</time></trkpt><trkpt lat="45.65373387404152" lon="10.018295139675367"><ele>187.33333333333334</ele><time>2026-04-20T12:06:28.968Z</time></trkpt><trkpt lat="45.65386335308372" lon="10.018032063043652"><ele>187.0</ele><time>2026-04-20T12:06:29.968Z</time></trkpt><trkpt lat="45.653976937434614" lon="10.01773506460549"><ele>187.0</ele><time>2026-04-20T12:06:30.968Z</time></trkpt><trkpt lat="45.65406454987266" lon="10.017406944967824"><ele>187.0</ele><time>2026-04-20T12:06:31.968Z</time></trkpt><trkpt lat="45.654143731322" lon="10.017049659224377"><ele>187.0</ele><time>2026-04-20T12:06:32.968Z</time></trkpt><trkpt lat="45.65420172330737" lon="10.016669225615795"><ele>187.0</ele><time>2026-04-20T12:06:33.968Z</time></trkpt><trkpt lat="45.65425369682873" lon="10.01631214105875"><ele>187.5</ele><time>2026-04-20T12:06:34.968Z</time></trkpt><trkpt lat="45.654301378929965" lon="10.015992331092209"><ele>188.0</ele><time>2026-04-20T12:06:35.968Z</time></trkpt><trkpt lat="45.65434310854245" lon="10.015666909155373"><ele>188.66666666666666</ele><time>2026-04-20T12:06:36.968Z</time></trkpt><trkpt lat="45.65438919390716" lon="10.015348342459616"><ele>189.33333333333334</ele><time>2026-04-20T12:06:37.968Z</time></trkpt><trkpt lat="45.65443984820535" lon="10.015061963153142"><ele>190.0</ele><time>2026-04-20T12:06:38.969Z</time></trkpt><trkpt lat="45.654486961020375" lon="10.014756750382148"><ele>189.33333333333334</ele><time>2026-04-20T12:06:39.969Z</time></trkpt><trkpt lat="45.65452913939274" lon="10.014473684189891"><ele>188.66666666666666</ele><time>2026-04-20T12:06:40.969Z</time></trkpt><trkpt lat="45.6545704312088" lon="10.01421014914716"><ele>188.0</ele><time>2026-04-20T12:06:41.969Z</time></trkpt><trkpt lat="45.65461283156274" lon="10.013939992185728"><ele>188.0</ele><time>2026-04-20T12:06:42.969Z</time></trkpt><trkpt lat="45.65465447930431" lon="10.013671257498284"><ele>188.0</ele><time>2026-04-20T12:06:43.969Z</time></trkpt><trkpt lat="45.654692802597076" lon="10.0134338667344"><ele>188.0</ele><time>2026-04-20T12:06:44.969Z</time></trkpt><trkpt lat="45.65472179417044" lon="10.013199895223243"><ele>188.5</ele><time>2026-04-20T12:06:45.969Z</time></trkpt><trkpt lat="45.65476310415523" lon="10.012995195550491"><ele>189.0</ele><time>2026-04-20T12:06:46.969Z</time></trkpt><trkpt lat="45.65480069223527" lon="10.0128008221072"><ele>189.5</ele><time>2026-04-20T12:06:47.969Z</time></trkpt><trkpt lat="45.654828734533" lon="10.012597591966806"><ele>190.0</ele><time>2026-04-20T12:06:48.969Z</time></trkpt><trkpt lat="45.65486042786542" lon="10.012360221108139"><ele>190.33333333333334</ele><time>2026-04-20T12:06:49.969Z</time></trkpt><trkpt lat="45.65490194100624" lon="10.012144136989514"><ele>190.66666666666666</ele><time>2026-04-20T12:06:50.969Z</time></trkpt><trkpt lat="45.654933677648" lon="10.011930346736401"><ele>191.0</ele><time>2026-04-20T12:06:51.969Z</time></trkpt><trkpt lat="45.654962106076475" lon="10.011729449315867"><ele>191.0</ele><time>2026-04-20T12:06:52.969Z</time></trkpt><trkpt lat="45.654997813841604" lon="10.011503120134936"><ele>191.0</ele><time>2026-04-20T12:06:53.969Z</time></trkpt><trkpt lat="45.65503141776261" lon="10.011297397132171"><ele>191.0</ele><time>2026-04-20T12:06:54.969Z</time></trkpt><trkpt lat="45.65506625663828" lon="10.011098344431744"><ele>191.0</ele><time>2026-04-20T12:06:55.969Z</time></trkpt><trkpt lat="45.65510000671684" lon="10.010907220545171"><ele>191.0</ele><time>2026-04-20T12:06:56.969Z</time></trkpt><trkpt lat="45.65513256257491" lon="10.010718447624656"><ele>191.0</ele><time>2026-04-20T12:06:57.969Z</time></trkpt><trkpt lat="45.65516265839561" lon="10.010514146178958"><ele>191.0</ele><time>2026-04-20T12:06:58.969Z</time></trkpt><trkpt lat="45.65518989305172" lon="10.010323636491135"><ele>191.33333333333331</ele><time>2026-04-20T12:06:59.968Z</time></trkpt><trkpt lat="45.65522178316599" lon="10.010120658082087"><ele>191.66666666666666</ele><time>2026-04-20T12:07:00.968Z</time></trkpt><trkpt lat="45.655270872576374" lon="10.00991334996296"><ele>192.0</ele><time>2026-04-20T12:07:01.968Z</time></trkpt><trkpt lat="45.65533012375777" lon="10.009703333369451"><ele>193.0</ele><time>2026-04-20T12:07:02.968Z</time></trkpt><trkpt lat="45.65540763481839" lon="10.009534315194736"><ele>194.0</ele><time>2026-04-20T12:07:03.968Z</time></trkpt><trkpt lat="45.65548861018166" lon="10.009404649370484"><ele>195.0</ele><time>2026-04-20T12:07:04.968Z</time></trkpt><trkpt lat="45.65556402320988" lon="10.009274382815622"><ele>196.0</ele><time>2026-04-20T12:07:05.968Z</time></trkpt><trkpt lat="45.655654130220974" lon="10.009176060072278"><ele>195.5</ele><time>2026-04-20T12:07:06.968Z</time></trkpt><trkpt lat="45.655752344377646" lon="10.00906833714524"><ele>195.0</ele><time>2026-04-20T12:07:07.968Z</time></trkpt><trkpt lat="45.655857170018834" lon="10.00896284626222"><ele>194.5</ele><time>2026-04-20T12:07:08.968Z</time></trkpt><trkpt lat="45.65595420230181" lon="10.008882086434987"><ele>194.0</ele><time>2026-04-20T12:07:09.968Z</time></trkpt><trkpt lat="45.65605802812253" lon="10.008798241034418"><ele>194.66666666666669</ele><time>2026-04-20T12:07:10.968Z</time></trkpt><trkpt lat="45.65617667865956" lon="10.008697191946652"><ele>195.33333333333331</ele><time>2026-04-20T12:07:11.968Z</time></trkpt><trkpt lat="45.65630550337897" lon="10.008575671658514"><ele>196.0</ele><time>2026-04-20T12:07:12.968Z</time></trkpt><trkpt lat="45.6564555942196" lon="10.008447710923706"><ele>195.0</ele><time>2026-04-20T12:07:13.968Z</time></trkpt><trkpt lat="45.65660748719378" lon="10.00830835176784"><ele>194.0</ele><time>2026-04-20T12:07:14.968Z</time></trkpt><trkpt lat="45.6567505291984" lon="10.008183521170226"><ele>193.0</ele><time>2026-04-20T12:07:15.968Z</time></trkpt><trkpt lat="45.65688152003404" lon="10.0080808780664"><ele>193.75</ele><time>2026-04-20T12:07:16.968Z</time></trkpt><trkpt lat="45.65700427905752" lon="10.007971876734524"><ele>194.5</ele><time>2026-04-20T12:07:17.968Z</time></trkpt><trkpt lat="45.657127993347686" lon="10.007863542555153"><ele>195.25</ele><time>2026-04-20T12:07:18.968Z</time></trkpt><trkpt lat="45.65725793042286" lon="10.007737920266857"><ele>196.0</ele><time>2026-04-20T12:07:19.968Z</time></trkpt><trkpt lat="45.65739086970858" lon="10.007606892389486"><ele>194.33333333333331</ele><time>2026-04-20T12:07:20.968Z</time></trkpt><trkpt lat="45.65751900486147" lon="10.00746297969879"><ele>192.66666666666666</ele><time>2026-04-20T12:07:21.968Z</time></trkpt><trkpt lat="45.65764152972225" lon="10.007316097975972"><ele>191.0</ele><time>2026-04-20T12:07:22.968Z</time></trkpt><trkpt lat="45.65775389718033" lon="10.007160133382643"><ele>191.33333333333331</ele><time>2026-04-20T12:07:23.968Z</time></trkpt><trkpt lat="45.657859339906715" lon="10.006991024121506"><ele>191.66666666666666</ele><time>2026-04-20T12:07:24.968Z</time></trkpt><trkpt lat="45.65795085362298" lon="10.006822258906393"><ele>192.0</ele><time>2026-04-20T12:07:25.968Z</time></trkpt><trkpt lat="45.65803052953762" lon="10.006651077926149"><ele>192.0</ele><time>2026-04-20T12:07:26.968Z</time></trkpt><trkpt lat="45.65810763870806" lon="10.006492699743998"><ele>192.0</ele><time>2026-04-20T12:07:27.968Z</time></trkpt><trkpt lat="45.65818251558145" lon="10.006330060873148"><ele>192.0</ele><time>2026-04-20T12:07:28.968Z</time></trkpt><trkpt lat="45.65825672308799" lon="10.006164538442134"><ele>192.0</ele><time>2026-04-20T12:07:29.968Z</time></trkpt><trkpt lat="45.65833702488147" lon="10.005980489775185"><ele>191.75</ele><time>2026-04-20T12:07:30.968Z</time></trkpt><trkpt lat="45.65841673997157" lon="10.005809028253388"><ele>191.5</ele><time>2026-04-20T12:07:31.968Z</time></trkpt><trkpt lat="45.658488215212536" lon="10.005667134343494"><ele>191.25</ele><time>2026-04-20T12:07:32.968Z</time></trkpt><trkpt lat="45.658560232244625" lon="10.005509325596847"><ele>191.0</ele><time>2026-04-20T12:07:33.968Z</time></trkpt><trkpt lat="45.658627869880995" lon="10.00536399353055"><ele>191.0</ele><time>2026-04-20T12:07:34.968Z</time></trkpt><trkpt lat="45.65868802725348" lon="10.00523293262002"><ele>191.0</ele><time>2026-04-20T12:07:35.968Z</time></trkpt><trkpt lat="45.65874962903499" lon="10.00510009387988"><ele>191.0</ele><time>2026-04-20T12:07:36.968Z</time></trkpt><trkpt lat="45.65881643222428" lon="10.00496349069752"><ele>191.0</ele><time>2026-04-20T12:07:37.968Z</time></trkpt><trkpt lat="45.658879594708736" lon="10.00484372753296"><ele>191.0</ele><time>2026-04-20T12:07:38.968Z</time></trkpt><trkpt lat="45.658943930670446" lon="10.004729049165718"><ele>191.0</ele><time>2026-04-20T12:07:39.968Z</time></trkpt><trkpt lat="45.6590153498573" lon="10.004612061464764"><ele>191.0</ele><time>2026-04-20T12:07:40.968Z</time></trkpt><trkpt lat="45.659089192624826" lon="10.004503756407965"><ele>191.0</ele><time>2026-04-20T12:07:41.968Z</time></trkpt><trkpt lat="45.65916169464332" lon="10.004402175365003"><ele>191.0</ele><time>2026-04-20T12:07:42.968Z</time></trkpt><trkpt lat="45.659231033655296" lon="10.004302949139744"><ele>191.0</ele><time>2026-04-20T12:07:43.968Z</time></trkpt><trkpt lat="45.65929661596531" lon="10.0042140846377"><ele>191.14285714285714</ele><time>2026-04-20T12:07:44.968Z</time></trkpt><trkpt lat="45.65935569204205" lon="10.004141261940354"><ele>191.28571428571428</ele><time>2026-04-20T12:07:45.968Z</time></trkpt><trkpt lat="45.6594075748222" lon="10.004074870241787"><ele>191.42857142857142</ele><time>2026-04-20T12:07:46.968Z</time></trkpt><trkpt lat="45.6594582515007" lon="10.004016661177332"><ele>191.57142857142856</ele><time>2026-04-20T12:07:47.968Z</time></trkpt><trkpt lat="45.6595135680455" lon="10.003951911778856"><ele>191.71428571428572</ele><time>2026-04-20T12:07:48.968Z</time></trkpt><trkpt lat="45.6595701167984" lon="10.003882350540593"><ele>191.85714285714283</ele><time>2026-04-20T12:07:49.968Z</time></trkpt><trkpt lat="45.65963184499578" lon="10.003806297770836"><ele>192.0</ele><time>2026-04-20T12:07:50.968Z</time></trkpt><trkpt lat="45.659695758299186" lon="10.003727559758612"><ele>192.0</ele><time>2026-04-20T12:07:51.968Z</time></trkpt><trkpt lat="45.659755857231985" lon="10.003649711239902"><ele>192.0</ele><time>2026-04-20T12:07:52.968Z</time></trkpt><trkpt lat="45.65982061220224" lon="10.003567223684447"><ele>192.0</ele><time>2026-04-20T12:07:53.968Z</time></trkpt><trkpt lat="45.6598833107832" lon="10.003482104210399"><ele>192.0</ele><time>2026-04-20T12:07:54.968Z</time></trkpt><trkpt lat="45.659945338403226" lon="10.003405857865326"><ele>192.0</ele><time>2026-04-20T12:07:55.968Z</time></trkpt><trkpt lat="45.66000188552353" lon="10.003340666210566"><ele>192.0</ele><time>2026-04-20T12:07:56.968Z</time></trkpt><trkpt lat="45.660070473496816" lon="10.003260191843738"><ele>192.39999999999998</ele><time>2026-04-20T12:07:57.968Z</time></trkpt><trkpt lat="45.660145520880306" lon="10.0031682891563"><ele>192.79999999999998</ele><time>2026-04-20T12:07:58.968Z</time></trkpt><trkpt lat="45.66022116054854" lon="10.003067520306297"><ele>193.2</ele><time>2026-04-20T12:07:59.968Z</time></trkpt><trkpt lat="45.66028595614427" lon="10.002988502604087"><ele>193.6</ele><time>2026-04-20T12:08:00.968Z</time></trkpt><trkpt lat="45.66035228901352" lon="10.002903747383282"><ele>194.0</ele><time>2026-04-20T12:08:01.968Z</time></trkpt><trkpt lat="45.660409926206206" lon="10.002816622216798"><ele>194.00000000000003</ele><time>2026-04-20T12:08:02.968Z</time></trkpt><trkpt lat="45.660455505297584" lon="10.002749511887728"><ele>194.0</ele><time>2026-04-20T12:08:03.968Z</time></trkpt><trkpt lat="45.660527290594736" lon="10.002646000605349"><ele>194.0</ele><time>2026-04-20T12:08:05.968Z</time></trkpt><trkpt lat="45.660589990590715" lon="10.002526364199493"><ele>194.0</ele><time>2026-04-20T12:08:07.968Z</time></trkpt><trkpt lat="45.660646536209214" lon="10.002430874838305"><ele>194.00000000000003</ele><time>2026-04-20T12:08:09.968Z</time></trkpt><trkpt lat="45.660705622143844" lon="10.00234142547221"><ele>194.0</ele><time>2026-04-20T12:08:12.968Z</time></trkpt><trkpt lat="45.6607434189355" lon="10.002252231686"><ele>194.00000000000003</ele><time>2026-04-20T12:08:16.968Z</time></trkpt><trkpt lat="45.66078456319753" lon="10.002164532049616"><ele>194.0</ele><time>2026-04-20T12:08:22.968Z</time></trkpt><trkpt lat="45.6608459197376" lon="10.002073923082742"><ele>194.0</ele><time>2026-04-20T12:08:25.968Z</time></trkpt><trkpt lat="45.66089776245244" lon="10.001989971896931"><ele>194.0</ele><time>2026-04-20T12:08:27.968Z</time></trkpt><trkpt lat="45.66094441341978" lon="10.00191062652746"><ele>194.00000000000003</ele><time>2026-04-20T12:08:29.968Z</time></trkpt><trkpt lat="45.660999075284366" lon="10.001820413971"><ele>194.0</ele><time>2026-04-20T12:08:31.968Z</time></trkpt><trkpt lat="45.6610613535763" lon="10.001721043653125"><ele>194.16666666666669</ele><time>2026-04-20T12:08:33.968Z</time></trkpt><trkpt lat="45.66113479791553" lon="10.00161431875377"><ele>194.33333333333334</ele><time>2026-04-20T12:08:35.968Z</time></trkpt><trkpt lat="45.66120900414283" lon="10.001488797763507"><ele>194.5</ele><time>2026-04-20T12:08:37.968Z</time></trkpt><trkpt lat="45.66124657479552" lon="10.00141157380669"><ele>194.66666666666669</ele><time>2026-04-20T12:08:38.968Z</time></trkpt><trkpt lat="45.661291855188395" lon="10.00132252995471"><ele>194.83333333333334</ele><time>2026-04-20T12:08:39.968Z</time></trkpt><trkpt lat="45.661345437507556" lon="10.001231149223113"><ele>195.0</ele><time>2026-04-20T12:08:40.968Z</time></trkpt><trkpt lat="45.6614002161709" lon="10.00114832018063"><ele>195.0</ele><time>2026-04-20T12:08:41.968Z</time></trkpt><trkpt lat="45.661449072441265" lon="10.001083508110414"><ele>195.0</ele><time>2026-04-20T12:08:42.968Z</time></trkpt><trkpt lat="45.661504483981744" lon="10.001007179338153"><ele>195.0</ele><time>2026-04-20T12:08:43.968Z</time></trkpt><trkpt lat="45.66156190380962" lon="10.000935766986812"><ele>195.0</ele><time>2026-04-20T12:08:44.968Z</time></trkpt><trkpt lat="45.66162840794206" lon="10.000847719472922"><ele>195.0</ele><time>2026-04-20T12:08:45.968Z</time></trkpt><trkpt lat="45.66169695691864" lon="10.000769609014585"><ele>195.0</ele><time>2026-04-20T12:08:46.968Z</time></trkpt><trkpt lat="45.66176681572269" lon="10.000677688202478"><ele>195.2</ele><time>2026-04-20T12:08:47.968Z</time></trkpt><trkpt lat="45.661852924037845" lon="10.00058000174973"><ele>195.4</ele><time>2026-04-20T12:08:48.968Z</time></trkpt><trkpt lat="45.661935531855534" lon="10.000490514858681"><ele>195.60000000000002</ele><time>2026-04-20T12:08:49.968Z</time></trkpt><trkpt lat="45.6620158739656" lon="10.000401166940078"><ele>195.8</ele><time>2026-04-20T12:08:50.968Z</time></trkpt><trkpt lat="45.66210019617356" lon="10.000313941929187"><ele>196.0</ele><time>2026-04-20T12:08:51.968Z</time></trkpt><trkpt lat="45.662182883340265" lon="10.000224495833637"><ele>195.33333333333331</ele><time>2026-04-20T12:08:52.968Z</time></trkpt><trkpt lat="45.66226076668849" lon="10.00014065423264"><ele>194.66666666666666</ele><time>2026-04-20T12:08:53.968Z</time></trkpt><trkpt lat="45.66232558768551" lon="10.000072452867515"><ele>194.0</ele><time>2026-04-20T12:08:54.968Z</time></trkpt><trkpt lat="45.66238745386271" lon="10.000029081687162"><ele>193.33333333333331</ele><time>2026-04-20T12:08:55.968Z</time></trkpt><trkpt lat="45.66245306542867" lon="10.000015507071916"><ele>192.66666666666666</ele><time>2026-04-20T12:08:56.968Z</time></trkpt><trkpt lat="45.66254683409729" lon="10.000023778130446"><ele>192.0</ele><time>2026-04-20T12:08:57.968Z</time></trkpt><trkpt lat="45.66265823463541" lon="10.000016260867227"><ele>192.0</ele><time>2026-04-20T12:08:58.968Z</time></trkpt><trkpt lat="45.66276568274827" lon="10.000011730425392"><ele>192.0</ele><time>2026-04-20T12:08:59.968Z</time></trkpt><trkpt lat="45.66285453417628" lon="10.00001970643916"><ele>192.0</ele><time>2026-04-20T12:09:00.968Z</time></trkpt><trkpt lat="45.6629290232013" lon="10.000074293884493"><ele>192.0</ele><time>2026-04-20T12:09:01.968Z</time></trkpt><trkpt lat="45.662992828544105" lon="10.000215749258581"><ele>192.0</ele><time>2026-04-20T12:09:02.968Z</time></trkpt><trkpt lat="45.66309551891848" lon="10.00030542735251"><ele>191.5</ele><time>2026-04-20T12:09:03.968Z</time></trkpt><trkpt lat="45.66320925788939" lon="10.000380246712922"><ele>191.0</ele><time>2026-04-20T12:09:04.968Z</time></trkpt><trkpt lat="45.66330700954644" lon="10.00049855526593"><ele>190.5</ele><time>2026-04-20T12:09:05.968Z</time></trkpt><trkpt lat="45.66340674512296" lon="10.000590725412737"><ele>190.0</ele><time>2026-04-20T12:09:06.968Z</time></trkpt><trkpt lat="45.66349200353973" lon="10.000666454450378"><ele>190.0</ele><time>2026-04-20T12:09:07.968Z</time></trkpt><trkpt lat="45.66358165501956" lon="10.000738045759148"><ele>190.0</ele><time>2026-04-20T12:09:08.968Z</time></trkpt><trkpt lat="45.663676783819604" lon="10.000813291637094"><ele>190.0</ele><time>2026-04-20T12:09:09.968Z</time></trkpt><trkpt lat="45.663757303864756" lon="10.000880542872363"><ele>190.0</ele><time>2026-04-20T12:09:10.968Z</time></trkpt><trkpt lat="45.663856394969976" lon="10.000955701198192"><ele>190.0</ele><time>2026-04-20T12:09:11.968Z</time></trkpt><trkpt lat="45.66392417929646" lon="10.001017075025565"><ele>189.25</ele><time>2026-04-20T12:09:12.968Z</time></trkpt><trkpt lat="45.66398890390129" lon="10.001155796265433"><ele>188.5</ele><time>2026-04-20T12:09:14.968Z</time></trkpt><trkpt lat="45.66390995575246" lon="10.001322263571042"><ele>187.75</ele><time>2026-04-20T12:09:16.968Z</time></trkpt><trkpt lat="45.66386730000823" lon="10.001458669767157"><ele>187.0</ele><time>2026-04-20T12:09:17.968Z</time></trkpt><trkpt lat="45.663850221549936" lon="10.001618525548729"><ele>187.0</ele><time>2026-04-20T12:09:18.968Z</time></trkpt><trkpt lat="45.66381471070919" lon="10.001768578662714"><ele>187.0</ele><time>2026-04-20T12:09:19.968Z</time></trkpt><trkpt lat="45.66377353272267" lon="10.001944721832615"><ele>187.0</ele><time>2026-04-20T12:09:20.968Z</time></trkpt><trkpt lat="45.663733447241874" lon="10.002111559828117"><ele>187.0</ele><time>2026-04-20T12:09:21.968Z</time></trkpt><trkpt lat="45.66370246992024" lon="10.002240489117181"><ele>187.0</ele><time>2026-04-20T12:09:22.968Z</time></trkpt><trkpt lat="45.66367451676029" lon="10.002356831684029"><ele>187.0</ele><time>2026-04-20T12:09:23.968Z</time></trkpt><trkpt lat="45.66365164028588" lon="10.002452044835566"><ele>187.0</ele><time>2026-04-20T12:09:24.968Z</time></trkpt><trkpt lat="45.663615592868005" lon="10.002597135145535"><ele>187.0</ele><time>2026-04-20T12:09:26.968Z</time></trkpt><trkpt lat="45.663582929867516" lon="10.002718869460407"><ele>187.0</ele><time>2026-04-20T12:09:28.968Z</time></trkpt><trkpt lat="45.66361924368037" lon="10.002810754361827"><ele>187.0</ele><time>2026-04-20T12:09:30.968Z</time></trkpt><trkpt lat="45.66370960952045" lon="10.002782542720151"><ele>187.0</ele><time>2026-04-20T12:09:32.968Z</time></trkpt><trkpt lat="45.66381512615461" lon="10.002730268740127"><ele>187.0</ele><time>2026-04-20T12:09:34.968Z</time></trkpt><trkpt lat="45.663878887244465" lon="10.002723630225235"><ele>187.0</ele><time>2026-04-20T12:09:35.968Z</time></trkpt><trkpt lat="45.66397962563096" lon="10.002697166065479"><ele>187.0</ele><time>2026-04-20T12:09:36.968Z</time></trkpt><trkpt lat="45.66408576256227" lon="10.00268003245814"><ele>187.0</ele><time>2026-04-20T12:09:37.968Z</time></trkpt><trkpt lat="45.66417833377925" lon="10.00263742700368"><ele>187.0</ele><time>2026-04-20T12:09:38.968Z</time></trkpt><trkpt lat="45.664245984020354" lon="10.002615647304536"><ele>187.0</ele><time>2026-04-20T12:09:39.968Z</time></trkpt><trkpt lat="45.664318334140596" lon="10.002586517286904"><ele>187.0</ele><time>2026-04-20T12:09:41.968Z</time></trkpt><trkpt lat="45.664371230203095" lon="10.0024364819653"><ele>187.0</ele><time>2026-04-20T12:09:43.968Z</time></trkpt><trkpt lat="45.6643707453749" lon="10.002333265351746"><ele>187.0</ele><time>2026-04-20T12:09:44.968Z</time></trkpt><trkpt lat="45.664386503477864" lon="10.002166235177418"><ele>187.0</ele><time>2026-04-20T12:09:46.968Z</time></trkpt><trkpt lat="45.66444567791354" lon="10.00213094575311"><ele>187.0</ele><time>2026-04-20T12:09:49.968Z</time></trkpt><trkpt lat="45.66439578443691" lon="10.002062318374447"><ele>187.0</ele><time>2026-04-20T12:10:33.968Z</time></trkpt><trkpt lat="45.6644462072461" lon="10.001962901594329"><ele>187.0</ele><time>2026-04-20T12:10:50.968Z</time></trkpt></trkseg></trk></gpx>